<?xml version='1.0' encoding='UTF-8'?><gpx version="1.1" creator="JPX - https://github.com/jenetics/jpx" xmlns="http://www.topografix.com/GPX/1/1"><trk><trkseg><trkpt lat="42.2331467" lon="12.7059117"><ele>103.0</ele><time>2026-04-25T07:50:12.065Z</time></trkpt><trkpt lat="42.2332133" lon="12.7059383"><ele>103.0</ele><time>2026-04-25T07:50:14.066Z</time></trkpt><trkpt lat="42.2333217" lon="12.7058917"><ele>103.0</ele><time>2026-04-25T07:50:16.064Z</time></trkpt><trkpt lat="42.2334217" lon="12.70582"><ele>103.0</ele><time>2026-04-25T07:50:18.064Z</time></trkpt><trkpt lat="42.23352" lon="12.7057333"><ele>103.0</ele><time>2026-04-25T07:50:20.067Z</time></trkpt><trkpt lat="42.2335733" lon="12.7056867"><ele>102.99999999999999</ele><time>2026-04-25T07:50:21.066Z</time></trkpt><trkpt lat="42.233625" lon="12.7056317"><ele>103.0</ele><time>2026-04-25T07:50:22.064Z</time></trkpt><trkpt lat="42.2336817" lon="12.7055767"><ele>103.0</ele><time>2026-04-25T07:50:23.064Z</time></trkpt><trkpt lat="42.2337417" lon="12.70552"><ele>103.0</ele><time>2026-04-25T07:50:24.066Z</time></trkpt><trkpt lat="42.2338017" lon="12.7054633"><ele>103.0</ele><time>2026-04-25T07:50:25.065Z</time></trkpt><trkpt lat="42.2338583" lon="12.70541"><ele>102.99999999999999</ele><time>2026-04-25T07:50:26.065Z</time></trkpt><trkpt lat="42.233915" lon="12.7053517"><ele>103.0</ele><time>2026-04-25T07:50:27.065Z</time></trkpt><trkpt lat="42.2339733" lon="12.7052933"><ele>102.16666666666667</ele><time>2026-04-25T07:50:28.065Z</time></trkpt><trkpt lat="42.2340317" lon="12.7052333"><ele>101.33333333333334</ele><time>2026-04-25T07:50:29.064Z</time></trkpt><trkpt lat="42.23409" lon="12.705175"><ele>100.5</ele><time>2026-04-25T07:50:30.065Z</time></trkpt><trkpt lat="42.2341517" lon="12.7051133"><ele>99.66666666666666</ele><time>2026-04-25T07:50:31.064Z</time></trkpt><trkpt lat="42.2342183" lon="12.7050533"><ele>98.83333333333333</ele><time>2026-04-25T07:50:32.066Z</time></trkpt><trkpt lat="42.2342883" lon="12.70499"><ele>98.0</ele><time>2026-04-25T07:50:33.066Z</time></trkpt><trkpt lat="42.2343567" lon="12.7049233"><ele>97.99999999999999</ele><time>2026-04-25T07:50:34.065Z</time></trkpt><trkpt lat="42.234425" lon="12.704855"><ele>98.0</ele><time>2026-04-25T07:50:35.065Z</time></trkpt><trkpt lat="42.234495" lon="12.7047867"><ele>98.0</ele><time>2026-04-25T07:50:36.063Z</time></trkpt><trkpt lat="42.234565" lon="12.704715"><ele>98.0</ele><time>2026-04-25T07:50:37.065Z</time></trkpt><trkpt lat="42.234635" lon="12.7046483"><ele>97.99999999999999</ele><time>2026-04-25T07:50:38.066Z</time></trkpt><trkpt lat="42.23471" lon="12.70458"><ele>98.0</ele><time>2026-04-25T07:50:39.064Z</time></trkpt><trkpt lat="42.2347883" lon="12.704505"><ele>98.0</ele><time>2026-04-25T07:50:40.066Z</time></trkpt><trkpt lat="42.2348667" lon="12.7044267"><ele>98.0</ele><time>2026-04-25T07:50:41.066Z</time></trkpt><trkpt lat="42.234945" lon="12.7043467"><ele>98.0</ele><time>2026-04-25T07:50:42.066Z</time></trkpt><trkpt lat="42.2350267" lon="12.7042633"><ele>98.0</ele><time>2026-04-25T07:50:43.066Z</time></trkpt><trkpt lat="42.2351083" lon="12.70418"><ele>98.0</ele><time>2026-04-25T07:50:44.067Z</time></trkpt><trkpt lat="42.23519" lon="12.7040983"><ele>98.0</ele><time>2026-04-25T07:50:45.064Z</time></trkpt><trkpt lat="42.23527" lon="12.704015"><ele>98.0</ele><time>2026-04-25T07:50:46.065Z</time></trkpt><trkpt lat="42.2353483" lon="12.7039333"><ele>98.0</ele><time>2026-04-25T07:50:47.064Z</time></trkpt><trkpt lat="42.2354267" lon="12.7038517"><ele>98.0</ele><time>2026-04-25T07:50:48.066Z</time></trkpt><trkpt lat="42.235505" lon="12.7037717"><ele>98.0</ele><time>2026-04-25T07:50:49.066Z</time></trkpt><trkpt lat="42.2355817" lon="12.7036933"><ele>98.2</ele><time>2026-04-25T07:50:50.066Z</time></trkpt><trkpt lat="42.2356567" lon="12.7036167"><ele>98.4</ele><time>2026-04-25T07:50:51.066Z</time></trkpt><trkpt lat="42.2357317" lon="12.7035433"><ele>98.60000000000001</ele><time>2026-04-25T07:50:52.066Z</time></trkpt><trkpt lat="42.235805" lon="12.7034733"><ele>98.80000000000001</ele><time>2026-04-25T07:50:53.066Z</time></trkpt><trkpt lat="42.2358767" lon="12.7033983"><ele>99.0</ele><time>2026-04-25T07:50:54.066Z</time></trkpt><trkpt lat="42.235945" lon="12.7033217"><ele>99.16666666666667</ele><time>2026-04-25T07:50:55.065Z</time></trkpt><trkpt lat="42.2360133" lon="12.70325"><ele>99.33333333333334</ele><time>2026-04-25T07:50:56.066Z</time></trkpt><trkpt lat="42.2360783" lon="12.7031833"><ele>99.5</ele><time>2026-04-25T07:50:57.066Z</time></trkpt><trkpt lat="42.2361467" lon="12.7031133"><ele>99.66666666666667</ele><time>2026-04-25T07:50:58.065Z</time></trkpt><trkpt lat="42.2362117" lon="12.703045"><ele>99.83333333333334</ele><time>2026-04-25T07:50:59.067Z</time></trkpt><trkpt lat="42.23627" lon="12.702985"><ele>100.0</ele><time>2026-04-25T07:51:00.065Z</time></trkpt><trkpt lat="42.2363217" lon="12.702935"><ele>100.0</ele><time>2026-04-25T07:51:01.065Z</time></trkpt><trkpt lat="42.2364083" lon="12.70286"><ele>100.0</ele><time>2026-04-25T07:51:03.064Z</time></trkpt><trkpt lat="42.2364833" lon="12.70279"><ele>100.0</ele><time>2026-04-25T07:51:05.067Z</time></trkpt><trkpt lat="42.2365683" lon="12.702725"><ele>100.0</ele><time>2026-04-25T07:51:07.066Z</time></trkpt><trkpt lat="42.236675" lon="12.7027417"><ele>100.0</ele><time>2026-04-25T07:51:09.066Z</time></trkpt><trkpt lat="42.236735" lon="12.7028017"><ele>100.75</ele><time>2026-04-25T07:51:10.064Z</time></trkpt><trkpt lat="42.2367883" lon="12.702905"><ele>101.5</ele><time>2026-04-25T07:51:11.064Z</time></trkpt><trkpt lat="42.2368467" lon="12.7030283"><ele>102.25</ele><time>2026-04-25T07:51:12.063Z</time></trkpt><trkpt lat="42.23691" lon="12.7031633"><ele>103.0</ele><time>2026-04-25T07:51:13.064Z</time></trkpt><trkpt lat="42.2369883" lon="12.703305"><ele>103.0</ele><time>2026-04-25T07:51:14.066Z</time></trkpt><trkpt lat="42.237075" lon="12.7034467"><ele>103.0</ele><time>2026-04-25T07:51:15.065Z</time></trkpt><trkpt lat="42.2371617" lon="12.7036017"><ele>103.0</ele><time>2026-04-25T07:51:16.063Z</time></trkpt><trkpt lat="42.237245" lon="12.70376"><ele>103.0</ele><time>2026-04-25T07:51:17.065Z</time></trkpt><trkpt lat="42.2373267" lon="12.703915"><ele>103.0</ele><time>2026-04-25T07:51:18.065Z</time></trkpt><trkpt lat="42.2374067" lon="12.704065"><ele>103.0</ele><time>2026-04-25T07:51:19.066Z</time></trkpt><trkpt lat="42.2374817" lon="12.704205"><ele>103.0</ele><time>2026-04-25T07:51:20.065Z</time></trkpt><trkpt lat="42.23755" lon="12.70433"><ele>103.0</ele><time>2026-04-25T07:51:21.066Z</time></trkpt><trkpt lat="42.237615" lon="12.7044417"><ele>103.0</ele><time>2026-04-25T07:51:22.063Z</time></trkpt><trkpt lat="42.2376817" lon="12.7045467"><ele>103.0</ele><time>2026-04-25T07:51:23.068Z</time></trkpt><trkpt lat="42.2377483" lon="12.7046467"><ele>103.0</ele><time>2026-04-25T07:51:24.067Z</time></trkpt><trkpt lat="42.2378183" lon="12.70474"><ele>103.0</ele><time>2026-04-25T07:51:25.067Z</time></trkpt><trkpt lat="42.2378883" lon="12.7048283"><ele>103.0</ele><time>2026-04-25T07:51:26.066Z</time></trkpt><trkpt lat="42.2379583" lon="12.704915"><ele>103.0</ele><time>2026-04-25T07:51:27.066Z</time></trkpt><trkpt lat="42.23803" lon="12.7050017"><ele>103.0</ele><time>2026-04-25T07:51:28.065Z</time></trkpt><trkpt lat="42.238105" lon="12.7050933"><ele>103.0</ele><time>2026-04-25T07:51:29.068Z</time></trkpt><trkpt lat="42.2381817" lon="12.7051883"><ele>103.0</ele><time>2026-04-25T07:51:30.066Z</time></trkpt><trkpt lat="42.23826" lon="12.7052783"><ele>103.0</ele><time>2026-04-25T07:51:31.067Z</time></trkpt><trkpt lat="42.2383367" lon="12.70537"><ele>103.2</ele><time>2026-04-25T07:51:32.065Z</time></trkpt><trkpt lat="42.238415" lon="12.7054617"><ele>103.4</ele><time>2026-04-25T07:51:33.064Z</time></trkpt><trkpt lat="42.238495" lon="12.7055467"><ele>103.60000000000001</ele><time>2026-04-25T07:51:34.065Z</time></trkpt><trkpt lat="42.2385833" lon="12.70562"><ele>103.80000000000001</ele><time>2026-04-25T07:51:35.067Z</time></trkpt><trkpt lat="42.2386783" lon="12.7056767"><ele>104.0</ele><time>2026-04-25T07:51:36.066Z</time></trkpt><trkpt lat="42.2387767" lon="12.7057267"><ele>104.0</ele><time>2026-04-25T07:51:37.064Z</time></trkpt><trkpt lat="42.2388733" lon="12.7057733"><ele>104.0</ele><time>2026-04-25T07:51:38.064Z</time></trkpt><trkpt lat="42.2389733" lon="12.7058167"><ele>104.0</ele><time>2026-04-25T07:51:39.065Z</time></trkpt><trkpt lat="42.23907" lon="12.70586"><ele>104.0</ele><time>2026-04-25T07:51:40.067Z</time></trkpt><trkpt lat="42.2391683" lon="12.7059033"><ele>104.0</ele><time>2026-04-25T07:51:41.065Z</time></trkpt><trkpt lat="42.2392717" lon="12.7059467"><ele>104.80000000000001</ele><time>2026-04-25T07:51:42.063Z</time></trkpt><trkpt lat="42.2393767" lon="12.7059833"><ele>105.60000000000001</ele><time>2026-04-25T07:51:43.064Z</time></trkpt><trkpt lat="42.2394817" lon="12.7060183"><ele>106.4</ele><time>2026-04-25T07:51:44.066Z</time></trkpt><trkpt lat="42.2395833" lon="12.70605"><ele>107.2</ele><time>2026-04-25T07:51:45.065Z</time></trkpt><trkpt lat="42.2396883" lon="12.7060783"><ele>108.0</ele><time>2026-04-25T07:51:46.064Z</time></trkpt><trkpt lat="42.2397967" lon="12.7061033"><ele>108.0</ele><time>2026-04-25T07:51:47.065Z</time></trkpt><trkpt lat="42.239905" lon="12.706125"><ele>108.00000000000001</ele><time>2026-04-25T07:51:48.065Z</time></trkpt><trkpt lat="42.24001" lon="12.70615"><ele>108.00000000000001</ele><time>2026-04-25T07:51:49.066Z</time></trkpt><trkpt lat="42.2401117" lon="12.7061733"><ele>108.0</ele><time>2026-04-25T07:51:50.065Z</time></trkpt><trkpt lat="42.2402133" lon="12.706195"><ele>108.0</ele><time>2026-04-25T07:51:51.065Z</time></trkpt><trkpt lat="42.2403083" lon="12.70621"><ele>108.0</ele><time>2026-04-25T07:51:52.064Z</time></trkpt><trkpt lat="42.2403967" lon="12.7062367"><ele>108.0</ele><time>2026-04-25T07:51:53.066Z</time></trkpt><trkpt lat="42.2404783" lon="12.7062517"><ele>108.0</ele><time>2026-04-25T07:51:54.065Z</time></trkpt><trkpt lat="42.2405467" lon="12.7062683"><ele>108.0</ele><time>2026-04-25T07:51:55.066Z</time></trkpt><trkpt lat="42.240625" lon="12.7063483"><ele>108.0</ele><time>2026-04-25T07:51:57.066Z</time></trkpt><trkpt lat="42.2405883" lon="12.7064867"><ele>108.0</ele><time>2026-04-25T07:51:59.065Z</time></trkpt><trkpt lat="42.2405517" lon="12.706645"><ele>108.0</ele><time>2026-04-25T07:52:01.064Z</time></trkpt><trkpt lat="42.24057" lon="12.7067367"><ele>108.00000000000001</ele><time>2026-04-25T07:52:02.065Z</time></trkpt><trkpt lat="42.2406133" lon="12.7068367"><ele>108.00000000000001</ele><time>2026-04-25T07:52:03.065Z</time></trkpt><trkpt lat="42.2406717" lon="12.706935"><ele>108.0</ele><time>2026-04-25T07:52:04.066Z</time></trkpt><trkpt lat="42.2407333" lon="12.7070433"><ele>108.0</ele><time>2026-04-25T07:52:05.066Z</time></trkpt><trkpt lat="42.2407983" lon="12.7071583"><ele>108.4</ele><time>2026-04-25T07:52:06.066Z</time></trkpt><trkpt lat="42.2408583" lon="12.707275"><ele>108.80000000000001</ele><time>2026-04-25T07:52:07.066Z</time></trkpt><trkpt lat="42.24091" lon="12.707385"><ele>109.2</ele><time>2026-04-25T07:52:08.066Z</time></trkpt><trkpt lat="42.2409567" lon="12.7074867"><ele>109.6</ele><time>2026-04-25T07:52:09.064Z</time></trkpt><trkpt lat="42.2410017" lon="12.707585"><ele>110.0</ele><time>2026-04-25T07:52:10.065Z</time></trkpt><trkpt lat="42.2410417" lon="12.7076767"><ele>109.8</ele><time>2026-04-25T07:52:11.068Z</time></trkpt><trkpt lat="42.2410817" lon="12.70777"><ele>109.6</ele><time>2026-04-25T07:52:12.065Z</time></trkpt><trkpt lat="42.241125" lon="12.707865"><ele>109.4</ele><time>2026-04-25T07:52:13.063Z</time></trkpt><trkpt lat="42.241175" lon="12.7079733"><ele>109.2</ele><time>2026-04-25T07:52:14.064Z</time></trkpt><trkpt lat="42.2412317" lon="12.7080883"><ele>109.0</ele><time>2026-04-25T07:52:15.066Z</time></trkpt><trkpt lat="42.2412883" lon="12.708205"><ele>109.0</ele><time>2026-04-25T07:52:16.065Z</time></trkpt><trkpt lat="42.241345" lon="12.7083233"><ele>109.0</ele><time>2026-04-25T07:52:17.065Z</time></trkpt><trkpt lat="42.2414067" lon="12.70844"><ele>109.0</ele><time>2026-04-25T07:52:18.066Z</time></trkpt><trkpt lat="42.2414717" lon="12.7085583"><ele>109.0</ele><time>2026-04-25T07:52:19.065Z</time></trkpt><trkpt lat="42.2415383" lon="12.7086767"><ele>109.0</ele><time>2026-04-25T07:52:20.067Z</time></trkpt><trkpt lat="42.2416083" lon="12.7087933"><ele>110.75</ele><time>2026-04-25T07:52:21.067Z</time></trkpt><trkpt lat="42.24168" lon="12.7089117"><ele>112.5</ele><time>2026-04-25T07:52:22.066Z</time></trkpt><trkpt lat="42.2417533" lon="12.7090333"><ele>114.25</ele><time>2026-04-25T07:52:23.066Z</time></trkpt><trkpt lat="42.241825" lon="12.7091533"><ele>116.0</ele><time>2026-04-25T07:52:24.065Z</time></trkpt><trkpt lat="42.2418967" lon="12.7092733"><ele>116.0</ele><time>2026-04-25T07:52:25.065Z</time></trkpt><trkpt lat="42.24197" lon="12.70939"><ele>116.0</ele><time>2026-04-25T07:52:26.066Z</time></trkpt><trkpt lat="42.2420467" lon="12.7095033"><ele>116.0</ele><time>2026-04-25T07:52:27.066Z</time></trkpt><trkpt lat="42.242125" lon="12.7096183"><ele>116.0</ele><time>2026-04-25T07:52:28.067Z</time></trkpt><trkpt lat="42.2422017" lon="12.7097333"><ele>116.5</ele><time>2026-04-25T07:52:29.065Z</time></trkpt><trkpt lat="42.24227" lon="12.709855"><ele>117.0</ele><time>2026-04-25T07:52:30.063Z</time></trkpt><trkpt lat="42.2423383" lon="12.709985"><ele>117.5</ele><time>2026-04-25T07:52:31.064Z</time></trkpt><trkpt lat="42.2424033" lon="12.710115"><ele>118.0</ele><time>2026-04-25T07:52:32.065Z</time></trkpt><trkpt lat="42.242465" lon="12.71025"><ele>118.75</ele><time>2026-04-25T07:52:33.064Z</time></trkpt><trkpt lat="42.242525" lon="12.7103883"><ele>119.5</ele><time>2026-04-25T07:52:34.064Z</time></trkpt><trkpt lat="42.2425783" lon="12.7105267"><ele>120.25</ele><time>2026-04-25T07:52:35.065Z</time></trkpt><trkpt lat="42.2426283" lon="12.7106683"><ele>121.0</ele><time>2026-04-25T07:52:36.063Z</time></trkpt><trkpt lat="42.242675" lon="12.71081"><ele>121.0</ele><time>2026-04-25T07:52:37.066Z</time></trkpt><trkpt lat="42.24273" lon="12.7109433"><ele>121.0</ele><time>2026-04-25T07:52:38.064Z</time></trkpt><trkpt lat="42.24278" lon="12.7110767"><ele>121.0</ele><time>2026-04-25T07:52:39.065Z</time></trkpt><trkpt lat="42.24283" lon="12.7112083"><ele>121.0</ele><time>2026-04-25T07:52:40.066Z</time></trkpt><trkpt lat="42.242885" lon="12.7113433"><ele>121.0</ele><time>2026-04-25T07:52:41.064Z</time></trkpt><trkpt lat="42.2429433" lon="12.7114817"><ele>120.5</ele><time>2026-04-25T07:52:42.065Z</time></trkpt><trkpt lat="42.243" lon="12.7116217"><ele>120.0</ele><time>2026-04-25T07:52:43.063Z</time></trkpt><trkpt lat="42.2430533" lon="12.7117633"><ele>119.5</ele><time>2026-04-25T07:52:44.066Z</time></trkpt><trkpt lat="42.243105" lon="12.7119083"><ele>119.0</ele><time>2026-04-25T07:52:45.063Z</time></trkpt><trkpt lat="42.2431583" lon="12.7120583"><ele>120.75</ele><time>2026-04-25T07:52:46.063Z</time></trkpt><trkpt lat="42.2432133" lon="12.7122083"><ele>122.5</ele><time>2026-04-25T07:52:47.063Z</time></trkpt><trkpt lat="42.2432733" lon="12.712355"><ele>124.25</ele><time>2026-04-25T07:52:48.065Z</time></trkpt><trkpt lat="42.243335" lon="12.7125017"><ele>126.0</ele><time>2026-04-25T07:52:49.065Z</time></trkpt><trkpt lat="42.2433967" lon="12.7126483"><ele>125.5</ele><time>2026-04-25T07:52:50.066Z</time></trkpt><trkpt lat="42.2434633" lon="12.71279"><ele>125.0</ele><time>2026-04-25T07:52:51.066Z</time></trkpt><trkpt lat="42.24353" lon="12.71292"><ele>124.5</ele><time>2026-04-25T07:52:52.065Z</time></trkpt><trkpt lat="42.2435967" lon="12.7130417"><ele>124.0</ele><time>2026-04-25T07:52:53.066Z</time></trkpt><trkpt lat="42.2436667" lon="12.713165"><ele>124.0</ele><time>2026-04-25T07:52:54.065Z</time></trkpt><trkpt lat="42.2437417" lon="12.7132933"><ele>124.0</ele><time>2026-04-25T07:52:55.066Z</time></trkpt><trkpt lat="42.24382" lon="12.7134217"><ele>124.0</ele><time>2026-04-25T07:52:56.066Z</time></trkpt><trkpt lat="42.2439" lon="12.7135467"><ele>124.0</ele><time>2026-04-25T07:52:57.065Z</time></trkpt><trkpt lat="42.2439783" lon="12.713675"><ele>126.25</ele><time>2026-04-25T07:52:58.066Z</time></trkpt><trkpt lat="42.2440617" lon="12.7137983"><ele>128.5</ele><time>2026-04-25T07:52:59.064Z</time></trkpt><trkpt lat="42.2441433" lon="12.713925"><ele>130.75</ele><time>2026-04-25T07:53:00.067Z</time></trkpt><trkpt lat="42.2442133" lon="12.7140633"><ele>133.0</ele><time>2026-04-25T07:53:01.064Z</time></trkpt><trkpt lat="42.2442833" lon="12.7142067"><ele>133.0</ele><time>2026-04-25T07:53:02.066Z</time></trkpt><trkpt lat="42.24435" lon="12.7143467"><ele>133.0</ele><time>2026-04-25T07:53:03.063Z</time></trkpt><trkpt lat="42.2444067" lon="12.7144967"><ele>133.0</ele><time>2026-04-25T07:53:04.065Z</time></trkpt><trkpt lat="42.24445" lon="12.714655"><ele>133.0</ele><time>2026-04-25T07:53:05.065Z</time></trkpt><trkpt lat="42.2444783" lon="12.7148217"><ele>132.0</ele><time>2026-04-25T07:53:06.065Z</time></trkpt><trkpt lat="42.2445033" lon="12.7149917"><ele>131.0</ele><time>2026-04-25T07:53:07.066Z</time></trkpt><trkpt lat="42.2445333" lon="12.7151617"><ele>130.0</ele><time>2026-04-25T07:53:08.064Z</time></trkpt><trkpt lat="42.2445717" lon="12.7153233"><ele>129.0</ele><time>2026-04-25T07:53:09.064Z</time></trkpt><trkpt lat="42.2446217" lon="12.7154717"><ele>129.0</ele><time>2026-04-25T07:53:10.064Z</time></trkpt><trkpt lat="42.2446733" lon="12.7155967"><ele>129.0</ele><time>2026-04-25T07:53:11.067Z</time></trkpt><trkpt lat="42.2447317" lon="12.71571"><ele>129.0</ele><time>2026-04-25T07:53:12.065Z</time></trkpt><trkpt lat="42.2447917" lon="12.7158233"><ele>129.0</ele><time>2026-04-25T07:53:13.065Z</time></trkpt><trkpt lat="42.2448517" lon="12.7159317"><ele>129.0</ele><time>2026-04-25T07:53:14.064Z</time></trkpt><trkpt lat="42.2449133" lon="12.71604"><ele>132.6</ele><time>2026-04-25T07:53:15.063Z</time></trkpt><trkpt lat="42.2449717" lon="12.7161467"><ele>136.2</ele><time>2026-04-25T07:53:16.064Z</time></trkpt><trkpt lat="42.24503" lon="12.716255"><ele>139.79999999999998</ele><time>2026-04-25T07:53:17.063Z</time></trkpt><trkpt lat="42.2450867" lon="12.7163633"><ele>143.4</ele><time>2026-04-25T07:53:18.064Z</time></trkpt><trkpt lat="42.2451467" lon="12.716475"><ele>147.0</ele><time>2026-04-25T07:53:19.064Z</time></trkpt><trkpt lat="42.2452033" lon="12.7165883"><ele>147.0</ele><time>2026-04-25T07:53:20.065Z</time></trkpt><trkpt lat="42.2452533" lon="12.71671"><ele>147.0</ele><time>2026-04-25T07:53:21.066Z</time></trkpt><trkpt lat="42.2452933" lon="12.7168383"><ele>147.0</ele><time>2026-04-25T07:53:22.065Z</time></trkpt><trkpt lat="42.2453283" lon="12.7169683"><ele>147.0</ele><time>2026-04-25T07:53:23.063Z</time></trkpt><trkpt lat="42.2453617" lon="12.7171033"><ele>147.0</ele><time>2026-04-25T07:53:24.064Z</time></trkpt><trkpt lat="42.2453917" lon="12.7172183"><ele>146.66666666666666</ele><time>2026-04-25T07:53:25.063Z</time></trkpt><trkpt lat="42.2454133" lon="12.717305"><ele>146.33333333333334</ele><time>2026-04-25T07:53:26.066Z</time></trkpt><trkpt lat="42.2454233" lon="12.717405"><ele>146.0</ele><time>2026-04-25T07:53:28.063Z</time></trkpt><trkpt lat="42.2454133" lon="12.717305"><ele>145.66666666666669</ele><time>2026-04-25T07:53:50.063Z</time></trkpt><trkpt lat="42.2453917" lon="12.71721"><ele>145.33333333333334</ele><time>2026-04-25T07:53:51.065Z</time></trkpt><trkpt lat="42.2453667" lon="12.717105"><ele>145.0</ele><time>2026-04-25T07:53:52.068Z</time></trkpt><trkpt lat="42.2453367" lon="12.71699"><ele>145.5</ele><time>2026-04-25T07:53:53.066Z</time></trkpt><trkpt lat="42.2453" lon="12.7168583"><ele>146.0</ele><time>2026-04-25T07:53:54.063Z</time></trkpt><trkpt lat="42.2452533" lon="12.7167133"><ele>146.5</ele><time>2026-04-25T07:53:55.063Z</time></trkpt><trkpt lat="42.245195" lon="12.716565"><ele>147.0</ele><time>2026-04-25T07:53:56.064Z</time></trkpt><trkpt lat="42.2451183" lon="12.716405"><ele>147.0</ele><time>2026-04-25T07:53:57.066Z</time></trkpt><trkpt lat="42.2450333" lon="12.71623"><ele>147.0</ele><time>2026-04-25T07:53:58.066Z</time></trkpt><trkpt lat="42.24495" lon="12.71607"><ele>147.0</ele><time>2026-04-25T07:53:59.064Z</time></trkpt><trkpt lat="42.2448783" lon="12.7159267"><ele>147.0</ele><time>2026-04-25T07:54:00.063Z</time></trkpt><trkpt lat="42.2448183" lon="12.715805"><ele>144.0</ele><time>2026-04-25T07:54:01.064Z</time></trkpt><trkpt lat="42.2447717" lon="12.7157117"><ele>141.0</ele><time>2026-04-25T07:54:02.065Z</time></trkpt><trkpt lat="42.2447133" lon="12.7156067"><ele>138.0</ele><time>2026-04-25T07:54:04.064Z</time></trkpt><trkpt lat="42.2446567" lon="12.71565"><ele>135.0</ele><time>2026-04-25T07:54:11.065Z</time></trkpt><trkpt lat="42.2446667" lon="12.7158083"><ele>132.0</ele><time>2026-04-25T07:54:13.063Z</time></trkpt><trkpt lat="42.2446817" lon="12.7159083"><ele>129.0</ele><time>2026-04-25T07:54:14.064Z</time></trkpt><trkpt lat="42.2446983" lon="12.7160117"><ele>128.0</ele><time>2026-04-25T07:54:15.065Z</time></trkpt><trkpt lat="42.2447133" lon="12.716125"><ele>127.0</ele><time>2026-04-25T07:54:16.063Z</time></trkpt><trkpt lat="42.2447283" lon="12.7162433"><ele>126.0</ele><time>2026-04-25T07:54:17.064Z</time></trkpt><trkpt lat="42.24474" lon="12.7163533"><ele>125.0</ele><time>2026-04-25T07:54:18.063Z</time></trkpt><trkpt lat="42.244755" lon="12.7164617"><ele>124.0</ele><time>2026-04-25T07:54:19.066Z</time></trkpt><trkpt lat="42.2447683" lon="12.716575"><ele>123.0</ele><time>2026-04-25T07:54:20.065Z</time></trkpt><trkpt lat="42.2447767" lon="12.7166867"><ele>123.0</ele><time>2026-04-25T07:54:21.064Z</time></trkpt><trkpt lat="42.244785" lon="12.7167967"><ele>123.0</ele><time>2026-04-25T07:54:22.067Z</time></trkpt><trkpt lat="42.2447883" lon="12.71691"><ele>123.0</ele><time>2026-04-25T07:54:23.063Z</time></trkpt><trkpt lat="42.24479" lon="12.7170217"><ele>123.0</ele><time>2026-04-25T07:54:24.064Z</time></trkpt><trkpt lat="42.2447933" lon="12.7171283"><ele>123.0</ele><time>2026-04-25T07:54:25.063Z</time></trkpt><trkpt lat="42.244805" lon="12.7172283"><ele>123.0</ele><time>2026-04-25T07:54:26.064Z</time></trkpt><trkpt lat="42.2448183" lon="12.71732"><ele>125.57142857142858</ele><time>2026-04-25T07:54:27.063Z</time></trkpt><trkpt lat="42.2448317" lon="12.7174083"><ele>128.14285714285714</ele><time>2026-04-25T07:54:28.064Z</time></trkpt><trkpt lat="42.2448467" lon="12.717495"><ele>130.71428571428572</ele><time>2026-04-25T07:54:29.065Z</time></trkpt><trkpt lat="42.244865" lon="12.7175867"><ele>133.28571428571428</ele><time>2026-04-25T07:54:30.065Z</time></trkpt><trkpt lat="42.2448817" lon="12.7176717"><ele>135.85714285714286</ele><time>2026-04-25T07:54:31.064Z</time></trkpt><trkpt lat="42.24489" lon="12.717765"><ele>138.42857142857144</ele><time>2026-04-25T07:54:32.065Z</time></trkpt><trkpt lat="42.2448983" lon="12.717855"><ele>141.0</ele><time>2026-04-25T07:54:33.064Z</time></trkpt><trkpt lat="42.244905" lon="12.7180033"><ele>141.0</ele><time>2026-04-25T07:54:35.064Z</time></trkpt><trkpt lat="42.24489" lon="12.7181767"><ele>141.0</ele><time>2026-04-25T07:54:37.065Z</time></trkpt><trkpt lat="42.2448767" lon="12.7182767"><ele>141.0</ele><time>2026-04-25T07:54:38.066Z</time></trkpt><trkpt lat="42.2448717" lon="12.7183767"><ele>141.0</ele><time>2026-04-25T07:54:39.066Z</time></trkpt><trkpt lat="42.2448667" lon="12.718475"><ele>141.0</ele><time>2026-04-25T07:54:40.064Z</time></trkpt><trkpt lat="42.2448583" lon="12.71857"><ele>141.0</ele><time>2026-04-25T07:54:41.065Z</time></trkpt><trkpt lat="42.2448517" lon="12.7186683"><ele>141.0</ele><time>2026-04-25T07:54:42.065Z</time></trkpt><trkpt lat="42.244845" lon="12.71876"><ele>141.0</ele><time>2026-04-25T07:54:43.063Z</time></trkpt><trkpt lat="42.24485" lon="12.7188883"><ele>141.0</ele><time>2026-04-25T07:54:45.065Z</time></trkpt><trkpt lat="42.2448467" lon="12.7190117"><ele>141.0</ele><time>2026-04-25T07:54:47.063Z</time></trkpt><trkpt lat="42.244855" lon="12.7191517"><ele>141.0</ele><time>2026-04-25T07:54:49.064Z</time></trkpt><trkpt lat="42.2448767" lon="12.7193167"><ele>141.33333333333334</ele><time>2026-04-25T07:54:51.067Z</time></trkpt><trkpt lat="42.2448833" lon="12.7194817"><ele>141.66666666666666</ele><time>2026-04-25T07:54:53.065Z</time></trkpt><trkpt lat="42.24488" lon="12.7195683"><ele>142.0</ele><time>2026-04-25T07:54:54.063Z</time></trkpt><trkpt lat="42.2448717" lon="12.7196583"><ele>142.33333333333331</ele><time>2026-04-25T07:54:55.064Z</time></trkpt><trkpt lat="42.2448633" lon="12.7197517"><ele>142.66666666666666</ele><time>2026-04-25T07:54:56.064Z</time></trkpt><trkpt lat="42.2448567" lon="12.71985"><ele>143.0</ele><time>2026-04-25T07:54:57.065Z</time></trkpt><trkpt lat="42.2448483" lon="12.7199483"><ele>143.0</ele><time>2026-04-25T07:54:58.064Z</time></trkpt><trkpt lat="42.244835" lon="12.720045"><ele>143.0</ele><time>2026-04-25T07:54:59.064Z</time></trkpt><trkpt lat="42.244825" lon="12.7201317"><ele>143.0</ele><time>2026-04-25T07:55:00.063Z</time></trkpt><trkpt lat="42.2448183" lon="12.720225"><ele>143.0</ele><time>2026-04-25T07:55:01.063Z</time></trkpt><trkpt lat="42.2448183" lon="12.72032"><ele>143.0</ele><time>2026-04-25T07:55:02.066Z</time></trkpt><trkpt lat="42.244825" lon="12.7204917"><ele>143.0</ele><time>2026-04-25T07:55:04.065Z</time></trkpt><trkpt lat="42.2448333" lon="12.72058"><ele>143.57142857142856</ele><time>2026-04-25T07:55:05.064Z</time></trkpt><trkpt lat="42.2448433" lon="12.7206717"><ele>144.14285714285714</ele><time>2026-04-25T07:55:06.067Z</time></trkpt><trkpt lat="42.24485" lon="12.7207683"><ele>144.71428571428572</ele><time>2026-04-25T07:55:07.065Z</time></trkpt><trkpt lat="42.244855" lon="12.72087"><ele>145.28571428571428</ele><time>2026-04-25T07:55:08.065Z</time></trkpt><trkpt lat="42.2448583" lon="12.7209717"><ele>145.85714285714286</ele><time>2026-04-25T07:55:09.066Z</time></trkpt><trkpt lat="42.2448567" lon="12.7210717"><ele>146.42857142857142</ele><time>2026-04-25T07:55:10.064Z</time></trkpt><trkpt lat="42.2448567" lon="12.7211717"><ele>147.0</ele><time>2026-04-25T07:55:11.064Z</time></trkpt><trkpt lat="42.2448567" lon="12.7212717"><ele>147.0</ele><time>2026-04-25T07:55:12.064Z</time></trkpt><trkpt lat="42.24486" lon="12.7213683"><ele>147.0</ele><time>2026-04-25T07:55:13.065Z</time></trkpt><trkpt lat="42.2448683" lon="12.7214633"><ele>147.0</ele><time>2026-04-25T07:55:14.064Z</time></trkpt><trkpt lat="42.244875" lon="12.7215533"><ele>147.0</ele><time>2026-04-25T07:55:15.063Z</time></trkpt><trkpt lat="42.2449067" lon="12.7216783"><ele>147.0</ele><time>2026-04-25T07:55:17.065Z</time></trkpt><trkpt lat="42.2449567" lon="12.721755"><ele>147.0</ele><time>2026-04-25T07:55:19.064Z</time></trkpt><trkpt lat="42.2450283" lon="12.721785"><ele>147.0</ele><time>2026-04-25T07:55:21.064Z</time></trkpt><trkpt lat="42.24514" lon="12.7217633"><ele>147.0</ele><time>2026-04-25T07:55:23.064Z</time></trkpt><trkpt lat="42.24521" lon="12.7217467"><ele>147.0</ele><time>2026-04-25T07:55:24.065Z</time></trkpt><trkpt lat="42.2452883" lon="12.7217283"><ele>147.0</ele><time>2026-04-25T07:55:25.063Z</time></trkpt><trkpt lat="42.2453617" lon="12.72171"><ele>147.0</ele><time>2026-04-25T07:55:26.065Z</time></trkpt><trkpt lat="42.2454333" lon="12.7216967"><ele>147.0</ele><time>2026-04-25T07:55:27.064Z</time></trkpt><trkpt lat="42.2455" lon="12.72169"><ele>147.0</ele><time>2026-04-25T07:55:28.062Z</time></trkpt><trkpt lat="42.24557" lon="12.7216917"><ele>147.0</ele><time>2026-04-25T07:55:29.063Z</time></trkpt><trkpt lat="42.245635" lon="12.7217033"><ele>147.0</ele><time>2026-04-25T07:55:30.063Z</time></trkpt><trkpt lat="42.2457517" lon="12.7217533"><ele>147.0</ele><time>2026-04-25T07:55:32.065Z</time></trkpt><trkpt lat="42.245815" lon="12.721785"><ele>147.0</ele><time>2026-04-25T07:55:33.064Z</time></trkpt><trkpt lat="42.2458783" lon="12.721825"><ele>147.0</ele><time>2026-04-25T07:55:34.063Z</time></trkpt><trkpt lat="42.2459433" lon="12.721865"><ele>146.14285714285714</ele><time>2026-04-25T07:55:35.063Z</time></trkpt><trkpt lat="42.2459983" lon="12.721915"><ele>145.28571428571428</ele><time>2026-04-25T07:55:36.065Z</time></trkpt><trkpt lat="42.246055" lon="12.7219683"><ele>144.42857142857144</ele><time>2026-04-25T07:55:37.064Z</time></trkpt><trkpt lat="42.2461083" lon="12.7220233"><ele>143.57142857142856</ele><time>2026-04-25T07:55:38.064Z</time></trkpt><trkpt lat="42.2461583" lon="12.7220817"><ele>142.71428571428572</ele><time>2026-04-25T07:55:39.066Z</time></trkpt><trkpt lat="42.2462067" lon="12.7221467"><ele>141.85714285714286</ele><time>2026-04-25T07:55:40.064Z</time></trkpt><trkpt lat="42.2462533" lon="12.7222117"><ele>141.0</ele><time>2026-04-25T07:55:41.062Z</time></trkpt><trkpt lat="42.2463383" lon="12.7223117"><ele>141.0</ele><time>2026-04-25T07:55:43.065Z</time></trkpt><trkpt lat="42.2463867" lon="12.722395"><ele>141.0</ele><time>2026-04-25T07:55:45.065Z</time></trkpt><trkpt lat="42.2463867" lon="12.7225267"><ele>141.0</ele><time>2026-04-25T07:55:47.065Z</time></trkpt><trkpt lat="42.2463733" lon="12.722615"><ele>141.0</ele><time>2026-04-25T07:55:48.064Z</time></trkpt><trkpt lat="42.24637" lon="12.7227833"><ele>141.0</ele><time>2026-04-25T07:55:50.066Z</time></trkpt><trkpt lat="42.24638" lon="12.7228767"><ele>141.0</ele><time>2026-04-25T07:55:51.064Z</time></trkpt><trkpt lat="42.2463867" lon="12.7229683"><ele>139.25</ele><time>2026-04-25T07:55:52.065Z</time></trkpt><trkpt lat="42.2464167" lon="12.72313"><ele>137.5</ele><time>2026-04-25T07:55:54.064Z</time></trkpt><trkpt lat="42.2464567" lon="12.7232717"><ele>135.75</ele><time>2026-04-25T07:55:56.065Z</time></trkpt><trkpt lat="42.246435" lon="12.7234117"><ele>134.0</ele><time>2026-04-25T07:55:58.065Z</time></trkpt><trkpt lat="42.2463967" lon="12.7235683"><ele>134.0</ele><time>2026-04-25T07:56:00.066Z</time></trkpt><trkpt lat="42.2463717" lon="12.7236567"><ele>134.0</ele><time>2026-04-25T07:56:01.067Z</time></trkpt><trkpt lat="42.24635" lon="12.7237433"><ele>134.0</ele><time>2026-04-25T07:56:02.068Z</time></trkpt><trkpt lat="42.246325" lon="12.7238233"><ele>134.0</ele><time>2026-04-25T07:56:03.066Z</time></trkpt><trkpt lat="42.246255" lon="12.723925"><ele>134.0</ele><time>2026-04-25T07:56:05.064Z</time></trkpt><trkpt lat="42.2461833" lon="12.7240283"><ele>134.0</ele><time>2026-04-25T07:56:07.065Z</time></trkpt><trkpt lat="42.2461233" lon="12.7241483"><ele>134.0</ele><time>2026-04-25T07:56:09.066Z</time></trkpt><trkpt lat="42.2460917" lon="12.724295"><ele>134.0</ele><time>2026-04-25T07:56:11.066Z</time></trkpt><trkpt lat="42.2460767" lon="12.724385"><ele>134.0</ele><time>2026-04-25T07:56:12.065Z</time></trkpt><trkpt lat="42.24606" lon="12.724475"><ele>134.0</ele><time>2026-04-25T07:56:13.065Z</time></trkpt><trkpt lat="42.24604" lon="12.7245583"><ele>134.0</ele><time>2026-04-25T07:56:14.066Z</time></trkpt><trkpt lat="42.2460233" lon="12.724735"><ele>134.0</ele><time>2026-04-25T07:56:16.066Z</time></trkpt><trkpt lat="42.2460283" lon="12.7248367"><ele>134.28571428571428</ele><time>2026-04-25T07:56:17.063Z</time></trkpt><trkpt lat="42.24603" lon="12.7249383"><ele>134.57142857142856</ele><time>2026-04-25T07:56:18.065Z</time></trkpt><trkpt lat="42.2460283" lon="12.725035"><ele>134.85714285714283</ele><time>2026-04-25T07:56:19.066Z</time></trkpt><trkpt lat="42.2460283" lon="12.7251217"><ele>135.14285714285714</ele><time>2026-04-25T07:56:20.065Z</time></trkpt><trkpt lat="42.246045" lon="12.7252083"><ele>135.42857142857142</ele><time>2026-04-25T07:56:21.065Z</time></trkpt><trkpt lat="42.2460583" lon="12.725295"><ele>135.7142857142857</ele><time>2026-04-25T07:56:22.063Z</time></trkpt><trkpt lat="42.2460533" lon="12.7253867"><ele>136.0</ele><time>2026-04-25T07:56:23.066Z</time></trkpt><trkpt lat="42.2460367" lon="12.7254883"><ele>136.83333333333334</ele><time>2026-04-25T07:56:24.064Z</time></trkpt><trkpt lat="42.2460183" lon="12.725595"><ele>137.66666666666669</ele><time>2026-04-25T07:56:25.065Z</time></trkpt><trkpt lat="42.245995" lon="12.7257"><ele>138.5</ele><time>2026-04-25T07:56:26.066Z</time></trkpt><trkpt lat="42.245965" lon="12.7258067"><ele>139.33333333333334</ele><time>2026-04-25T07:56:27.065Z</time></trkpt><trkpt lat="42.2459367" lon="12.7259183"><ele>140.16666666666666</ele><time>2026-04-25T07:56:28.064Z</time></trkpt><trkpt lat="42.2459133" lon="12.7260233"><ele>141.0</ele><time>2026-04-25T07:56:29.066Z</time></trkpt><trkpt lat="42.2459" lon="12.7261067"><ele>141.0</ele><time>2026-04-25T07:56:30.065Z</time></trkpt><trkpt lat="42.2458933" lon="12.7262367"><ele>141.0</ele><time>2026-04-25T07:56:32.066Z</time></trkpt><trkpt lat="42.2459483" lon="12.7263583"><ele>141.0</ele><time>2026-04-25T07:56:34.064Z</time></trkpt><trkpt lat="42.246" lon="12.7264267"><ele>141.0</ele><time>2026-04-25T07:56:35.065Z</time></trkpt><trkpt lat="42.2460567" lon="12.726495"><ele>141.0</ele><time>2026-04-25T07:56:36.064Z</time></trkpt><trkpt lat="42.2461083" lon="12.7265617"><ele>141.0</ele><time>2026-04-25T07:56:37.065Z</time></trkpt><trkpt lat="42.2461467" lon="12.7266333"><ele>141.0</ele><time>2026-04-25T07:56:38.066Z</time></trkpt><trkpt lat="42.246185" lon="12.7267017"><ele>141.0</ele><time>2026-04-25T07:56:39.063Z</time></trkpt><trkpt lat="42.2462717" lon="12.7268317"><ele>141.0</ele><time>2026-04-25T07:56:41.065Z</time></trkpt><trkpt lat="42.2463217" lon="12.7268983"><ele>141.0</ele><time>2026-04-25T07:56:42.065Z</time></trkpt><trkpt lat="42.2463667" lon="12.726965"><ele>141.0</ele><time>2026-04-25T07:56:43.07Z</time></trkpt><trkpt lat="42.2464083" lon="12.7270383"><ele>141.0</ele><time>2026-04-25T07:56:44.064Z</time></trkpt><trkpt lat="42.24646" lon="12.7271717"><ele>141.6</ele><time>2026-04-25T07:56:46.063Z</time></trkpt><trkpt lat="42.24649" lon="12.7272817"><ele>142.2</ele><time>2026-04-25T07:56:48.063Z</time></trkpt><trkpt lat="42.2465567" lon="12.727395"><ele>142.8</ele><time>2026-04-25T07:56:50.065Z</time></trkpt><trkpt lat="42.2466433" lon="12.7275017"><ele>143.4</ele><time>2026-04-25T07:56:52.066Z</time></trkpt><trkpt lat="42.2467217" lon="12.7275983"><ele>144.0</ele><time>2026-04-25T07:56:54.065Z</time></trkpt><trkpt lat="42.2467467" lon="12.7277433"><ele>144.0</ele><time>2026-04-25T07:56:56.066Z</time></trkpt><trkpt lat="42.2467117" lon="12.7278683"><ele>144.0</ele><time>2026-04-25T07:56:58.065Z</time></trkpt><trkpt lat="42.2466367" lon="12.7279667"><ele>144.0</ele><time>2026-04-25T07:57:00.066Z</time></trkpt><trkpt lat="42.2465933" lon="12.72811"><ele>144.0</ele><time>2026-04-25T07:57:02.066Z</time></trkpt><trkpt lat="42.2466017" lon="12.7282567"><ele>144.0</ele><time>2026-04-25T07:57:04.065Z</time></trkpt><trkpt lat="42.246625" lon="12.7283933"><ele>144.0</ele><time>2026-04-25T07:57:06.066Z</time></trkpt><trkpt lat="42.246655" lon="12.7285333"><ele>144.0</ele><time>2026-04-25T07:57:08.068Z</time></trkpt><trkpt lat="42.2467" lon="12.7286783"><ele>144.0</ele><time>2026-04-25T07:57:10.065Z</time></trkpt><trkpt lat="42.2467483" lon="12.728835"><ele>144.0</ele><time>2026-04-25T07:57:12.066Z</time></trkpt><trkpt lat="42.24681" lon="12.72897"><ele>143.2</ele><time>2026-04-25T07:57:14.066Z</time></trkpt><trkpt lat="42.2468717" lon="12.72908"><ele>142.4</ele><time>2026-04-25T07:57:16.066Z</time></trkpt><trkpt lat="42.2469433" lon="12.7291917"><ele>141.6</ele><time>2026-04-25T07:57:18.067Z</time></trkpt><trkpt lat="42.246995" lon="12.729315"><ele>140.8</ele><time>2026-04-25T07:57:20.067Z</time></trkpt><trkpt lat="42.2470433" lon="12.7294467"><ele>140.0</ele><time>2026-04-25T07:57:22.067Z</time></trkpt><trkpt lat="42.247075" lon="12.729595"><ele>140.0</ele><time>2026-04-25T07:57:24.067Z</time></trkpt><trkpt lat="42.247115" lon="12.7297483"><ele>140.0</ele><time>2026-04-25T07:57:26.064Z</time></trkpt><trkpt lat="42.2471583" lon="12.7298967"><ele>140.0</ele><time>2026-04-25T07:57:28.063Z</time></trkpt><trkpt lat="42.2471867" lon="12.7300283"><ele>140.0</ele><time>2026-04-25T07:57:30.064Z</time></trkpt><trkpt lat="42.24721" lon="12.7301617"><ele>140.0</ele><time>2026-04-25T07:57:32.065Z</time></trkpt><trkpt lat="42.2472433" lon="12.73029"><ele>140.0</ele><time>2026-04-25T07:57:34.063Z</time></trkpt><trkpt lat="42.2472417" lon="12.7304117"><ele>140.0</ele><time>2026-04-25T07:57:36.065Z</time></trkpt><trkpt lat="42.2472017" lon="12.730535"><ele>140.0</ele><time>2026-04-25T07:57:38.066Z</time></trkpt><trkpt lat="42.2471783" lon="12.7306417"><ele>140.0</ele><time>2026-04-25T07:57:40.064Z</time></trkpt><trkpt lat="42.247165" lon="12.730735"><ele>140.0</ele><time>2026-04-25T07:57:46.066Z</time></trkpt><trkpt lat="42.2471467" lon="12.7308417"><ele>140.0</ele><time>2026-04-25T07:57:49.064Z</time></trkpt><trkpt lat="42.24716" lon="12.7309283"><ele>140.0</ele><time>2026-04-25T07:57:51.065Z</time></trkpt><trkpt lat="42.2472133" lon="12.7310433"><ele>140.0</ele><time>2026-04-25T07:57:53.065Z</time></trkpt><trkpt lat="42.2472633" lon="12.7311517"><ele>140.0</ele><time>2026-04-25T07:57:55.065Z</time></trkpt><trkpt lat="42.2473233" lon="12.7312617"><ele>140.0</ele><time>2026-04-25T07:57:57.065Z</time></trkpt><trkpt lat="42.2473917" lon="12.7313483"><ele>140.0</ele><time>2026-04-25T07:57:59.066Z</time></trkpt><trkpt lat="42.247425" lon="12.7314217"><ele>139.83333333333331</ele><time>2026-04-25T07:58:01.063Z</time></trkpt><trkpt lat="42.2473983" lon="12.73153"><ele>139.66666666666666</ele><time>2026-04-25T07:58:04.066Z</time></trkpt><trkpt lat="42.2473467" lon="12.7316"><ele>139.5</ele><time>2026-04-25T07:58:06.066Z</time></trkpt><trkpt lat="42.2472867" lon="12.7316767"><ele>139.33333333333334</ele><time>2026-04-25T07:58:09.064Z</time></trkpt><trkpt lat="42.2472517" lon="12.7317667"><ele>139.16666666666669</ele><time>2026-04-25T08:00:16.064Z</time></trkpt><trkpt lat="42.2471867" lon="12.73184"><ele>139.0</ele><time>2026-04-25T08:00:18.064Z</time></trkpt><trkpt lat="42.2471133" lon="12.731915"><ele>139.0</ele><time>2026-04-25T08:00:20.065Z</time></trkpt><trkpt lat="42.247075" lon="12.7320083"><ele>139.0</ele><time>2026-04-25T08:00:22.064Z</time></trkpt><trkpt lat="42.247095" lon="12.7320933"><ele>139.0</ele><time>2026-04-25T08:00:24.065Z</time></trkpt><trkpt lat="42.2471733" lon="12.7320667"><ele>139.0</ele><time>2026-04-25T08:00:28.066Z</time></trkpt><trkpt lat="42.2472417" lon="12.7320017"><ele>139.0</ele><time>2026-04-25T08:00:30.063Z</time></trkpt><trkpt lat="42.2473533" lon="12.7320233"><ele>139.0</ele><time>2026-04-25T08:00:32.066Z</time></trkpt><trkpt lat="42.2474333" lon="12.73208"><ele>139.0</ele><time>2026-04-25T08:00:33.064Z</time></trkpt><trkpt lat="42.2475083" lon="12.7321567"><ele>139.0</ele><time>2026-04-25T08:00:34.066Z</time></trkpt><trkpt lat="42.2475767" lon="12.7322267"><ele>139.0</ele><time>2026-04-25T08:00:35.065Z</time></trkpt><trkpt lat="42.2476317" lon="12.732285"><ele>139.0</ele><time>2026-04-25T08:00:36.065Z</time></trkpt><trkpt lat="42.2476933" lon="12.7323633"><ele>139.0</ele><time>2026-04-25T08:00:38.066Z</time></trkpt><trkpt lat="42.24774" lon="12.7324617"><ele>139.0</ele><time>2026-04-25T08:00:40.064Z</time></trkpt><trkpt lat="42.24777" lon="12.7326183"><ele>139.0</ele><time>2026-04-25T08:00:42.065Z</time></trkpt><trkpt lat="42.24779" lon="12.7327067"><ele>139.0</ele><time>2026-04-25T08:00:43.064Z</time></trkpt><trkpt lat="42.2478067" lon="12.7328283"><ele>139.0</ele><time>2026-04-25T08:00:44.064Z</time></trkpt><trkpt lat="42.2478233" lon="12.7329767"><ele>139.0</ele><time>2026-04-25T08:00:45.063Z</time></trkpt><trkpt lat="42.2478433" lon="12.7331267"><ele>139.0</ele><time>2026-04-25T08:00:46.064Z</time></trkpt><trkpt lat="42.247865" lon="12.7332517"><ele>140.16666666666669</ele><time>2026-04-25T08:00:47.063Z</time></trkpt><trkpt lat="42.2478967" lon="12.7333567"><ele>141.33333333333334</ele><time>2026-04-25T08:00:48.064Z</time></trkpt><trkpt lat="42.2479383" lon="12.7334483"><ele>142.5</ele><time>2026-04-25T08:00:49.064Z</time></trkpt><trkpt lat="42.247985" lon="12.7335233"><ele>143.66666666666666</ele><time>2026-04-25T08:00:50.065Z</time></trkpt><trkpt lat="42.2480317" lon="12.7335833"><ele>144.83333333333331</ele><time>2026-04-25T08:00:51.064Z</time></trkpt><trkpt lat="42.248145" lon="12.73367"><ele>146.0</ele><time>2026-04-25T08:00:53.063Z</time></trkpt><trkpt lat="42.2482083" lon="12.7337017"><ele>146.28571428571428</ele><time>2026-04-25T08:00:54.065Z</time></trkpt><trkpt lat="42.2482733" lon="12.7337317"><ele>146.57142857142858</ele><time>2026-04-25T08:00:55.063Z</time></trkpt><trkpt lat="42.2483383" lon="12.7337667"><ele>146.85714285714286</ele><time>2026-04-25T08:00:56.064Z</time></trkpt><trkpt lat="42.2484033" lon="12.7338117"><ele>147.14285714285714</ele><time>2026-04-25T08:00:57.064Z</time></trkpt><trkpt lat="42.2484633" lon="12.733865"><ele>147.42857142857142</ele><time>2026-04-25T08:00:58.066Z</time></trkpt><trkpt lat="42.2485233" lon="12.733915"><ele>147.71428571428572</ele><time>2026-04-25T08:00:59.067Z</time></trkpt><trkpt lat="42.2485833" lon="12.73397"><ele>148.0</ele><time>2026-04-25T08:01:00.068Z</time></trkpt><trkpt lat="42.2486433" lon="12.7340317"><ele>148.0</ele><time>2026-04-25T08:01:01.067Z</time></trkpt><trkpt lat="42.2486967" lon="12.7340983"><ele>148.0</ele><time>2026-04-25T08:01:02.066Z</time></trkpt><trkpt lat="42.248745" lon="12.7341617"><ele>148.0</ele><time>2026-04-25T08:01:03.063Z</time></trkpt><trkpt lat="42.2487917" lon="12.7342233"><ele>148.0</ele><time>2026-04-25T08:01:04.067Z</time></trkpt><trkpt lat="42.2488467" lon="12.7342933"><ele>148.0</ele><time>2026-04-25T08:01:05.066Z</time></trkpt><trkpt lat="42.2488967" lon="12.73437"><ele>148.0</ele><time>2026-04-25T08:01:06.067Z</time></trkpt><trkpt lat="42.2489467" lon="12.7344483"><ele>148.0</ele><time>2026-04-25T08:01:07.064Z</time></trkpt><trkpt lat="42.2489983" lon="12.7345217"><ele>149.28571428571428</ele><time>2026-04-25T08:01:08.066Z</time></trkpt><trkpt lat="42.24906" lon="12.7345767"><ele>150.57142857142856</ele><time>2026-04-25T08:01:09.068Z</time></trkpt><trkpt lat="42.249125" lon="12.7346267"><ele>151.85714285714283</ele><time>2026-04-25T08:01:10.064Z</time></trkpt><trkpt lat="42.2491883" lon="12.734675"><ele>153.14285714285714</ele><time>2026-04-25T08:01:11.064Z</time></trkpt><trkpt lat="42.249245" lon="12.73473"><ele>154.42857142857142</ele><time>2026-04-25T08:01:12.067Z</time></trkpt><trkpt lat="42.249295" lon="12.7347817"><ele>155.7142857142857</ele><time>2026-04-25T08:01:13.063Z</time></trkpt><trkpt lat="42.2493467" lon="12.7348383"><ele>157.0</ele><time>2026-04-25T08:01:14.065Z</time></trkpt><trkpt lat="42.249395" lon="12.7349133"><ele>156.99999999999997</ele><time>2026-04-25T08:01:15.063Z</time></trkpt><trkpt lat="42.2494333" lon="12.735"><ele>157.0</ele><time>2026-04-25T08:01:16.065Z</time></trkpt><trkpt lat="42.2494633" lon="12.7350917"><ele>157.0</ele><time>2026-04-25T08:01:17.064Z</time></trkpt><trkpt lat="42.2494917" lon="12.7351783"><ele>157.0</ele><time>2026-04-25T08:01:18.065Z</time></trkpt><trkpt lat="42.24952" lon="12.7352683"><ele>157.0</ele><time>2026-04-25T08:01:19.065Z</time></trkpt><trkpt lat="42.2495483" lon="12.735365"><ele>156.99999999999997</ele><time>2026-04-25T08:01:20.066Z</time></trkpt><trkpt lat="42.2495767" lon="12.7354633"><ele>157.0</ele><time>2026-04-25T08:01:21.063Z</time></trkpt><trkpt lat="42.2496067" lon="12.7355617"><ele>157.33333333333334</ele><time>2026-04-25T08:01:22.064Z</time></trkpt><trkpt lat="42.2496383" lon="12.7356667"><ele>157.66666666666669</ele><time>2026-04-25T08:01:23.065Z</time></trkpt><trkpt lat="42.2496783" lon="12.73577"><ele>158.0</ele><time>2026-04-25T08:01:24.063Z</time></trkpt><trkpt lat="42.2497167" lon="12.73587"><ele>158.33333333333334</ele><time>2026-04-25T08:01:25.066Z</time></trkpt><trkpt lat="42.2497533" lon="12.735965"><ele>158.66666666666666</ele><time>2026-04-25T08:01:26.065Z</time></trkpt><trkpt lat="42.24979" lon="12.7360633"><ele>159.0</ele><time>2026-04-25T08:01:27.065Z</time></trkpt><trkpt lat="42.2498233" lon="12.7361633"><ele>161.16666666666666</ele><time>2026-04-25T08:01:28.065Z</time></trkpt><trkpt lat="42.24986" lon="12.73627"><ele>163.33333333333334</ele><time>2026-04-25T08:01:29.066Z</time></trkpt><trkpt lat="42.2498933" lon="12.7363767"><ele>165.5</ele><time>2026-04-25T08:01:30.066Z</time></trkpt><trkpt lat="42.2499267" lon="12.7364883"><ele>167.66666666666669</ele><time>2026-04-25T08:01:31.065Z</time></trkpt><trkpt lat="42.2499617" lon="12.736595"><ele>169.83333333333334</ele><time>2026-04-25T08:01:32.066Z</time></trkpt><trkpt lat="42.249985" lon="12.7367183"><ele>172.0</ele><time>2026-04-25T08:01:33.063Z</time></trkpt><trkpt lat="42.25" lon="12.7368467"><ele>171.8</ele><time>2026-04-25T08:01:34.065Z</time></trkpt><trkpt lat="42.2500067" lon="12.73696"><ele>171.6</ele><time>2026-04-25T08:01:35.064Z</time></trkpt><trkpt lat="42.2500067" lon="12.73707"><ele>171.4</ele><time>2026-04-25T08:01:36.064Z</time></trkpt><trkpt lat="42.2500067" lon="12.737165"><ele>171.20000000000002</ele><time>2026-04-25T08:01:37.065Z</time></trkpt><trkpt lat="42.2500167" lon="12.7373067"><ele>171.0</ele><time>2026-04-25T08:01:39.065Z</time></trkpt><trkpt lat="42.2500333" lon="12.737465"><ele>171.0</ele><time>2026-04-25T08:01:41.064Z</time></trkpt><trkpt lat="42.2500517" lon="12.7375533"><ele>171.0</ele><time>2026-04-25T08:01:42.065Z</time></trkpt><trkpt lat="42.2500867" lon="12.737645"><ele>171.0</ele><time>2026-04-25T08:01:43.065Z</time></trkpt><trkpt lat="42.2501417" lon="12.7377333"><ele>171.0</ele><time>2026-04-25T08:01:44.065Z</time></trkpt><trkpt lat="42.250205" lon="12.7378133"><ele>171.0</ele><time>2026-04-25T08:01:45.064Z</time></trkpt><trkpt lat="42.250265" lon="12.737895"><ele>171.0</ele><time>2026-04-25T08:01:46.065Z</time></trkpt><trkpt lat="42.2503167" lon="12.73799"><ele>172.20000000000002</ele><time>2026-04-25T08:01:47.064Z</time></trkpt><trkpt lat="42.25036" lon="12.7380967"><ele>173.4</ele><time>2026-04-25T08:01:48.065Z</time></trkpt><trkpt lat="42.250395" lon="12.7382083"><ele>174.6</ele><time>2026-04-25T08:01:49.066Z</time></trkpt><trkpt lat="42.25043" lon="12.7383267"><ele>175.8</ele><time>2026-04-25T08:01:50.066Z</time></trkpt><trkpt lat="42.2504767" lon="12.73844"><ele>177.0</ele><time>2026-04-25T08:01:51.065Z</time></trkpt><trkpt lat="42.2505183" lon="12.7385567"><ele>177.0</ele><time>2026-04-25T08:01:52.065Z</time></trkpt><trkpt lat="42.25056" lon="12.73867"><ele>177.0</ele><time>2026-04-25T08:01:53.065Z</time></trkpt><trkpt lat="42.2506017" lon="12.7387833"><ele>177.0</ele><time>2026-04-25T08:01:54.065Z</time></trkpt><trkpt lat="42.250645" lon="12.7389017"><ele>177.0</ele><time>2026-04-25T08:01:55.063Z</time></trkpt><trkpt lat="42.2506817" lon="12.7390233"><ele>177.0</ele><time>2026-04-25T08:01:56.065Z</time></trkpt><trkpt lat="42.2507183" lon="12.739145"><ele>179.39999999999998</ele><time>2026-04-25T08:01:57.066Z</time></trkpt><trkpt lat="42.2507567" lon="12.739265"><ele>181.79999999999998</ele><time>2026-04-25T08:01:58.065Z</time></trkpt><trkpt lat="42.2507917" lon="12.7393833"><ele>184.2</ele><time>2026-04-25T08:01:59.063Z</time></trkpt><trkpt lat="42.250835" lon="12.7394967"><ele>186.6</ele><time>2026-04-25T08:02:00.063Z</time></trkpt><trkpt lat="42.2508883" lon="12.7396033"><ele>189.0</ele><time>2026-04-25T08:02:01.066Z</time></trkpt><trkpt lat="42.2509417" lon="12.7397033"><ele>189.0</ele><time>2026-04-25T08:02:02.065Z</time></trkpt><trkpt lat="42.2509933" lon="12.7397967"><ele>189.0</ele><time>2026-04-25T08:02:03.063Z</time></trkpt><trkpt lat="42.2510433" lon="12.7398783"><ele>189.0</ele><time>2026-04-25T08:02:04.066Z</time></trkpt><trkpt lat="42.2510917" lon="12.7399383"><ele>189.0</ele><time>2026-04-25T08:02:05.066Z</time></trkpt><trkpt lat="42.2511833" lon="12.7399667"><ele>189.0</ele><time>2026-04-25T08:02:07.063Z</time></trkpt><trkpt lat="42.2511917" lon="12.7398333"><ele>189.0</ele><time>2026-04-25T08:02:09.065Z</time></trkpt><trkpt lat="42.2511617" lon="12.73974"><ele>189.0</ele><time>2026-04-25T08:02:10.063Z</time></trkpt><trkpt lat="42.251135" lon="12.7396367"><ele>189.0</ele><time>2026-04-25T08:02:11.066Z</time></trkpt><trkpt lat="42.2511217" lon="12.7395267"><ele>189.0</ele><time>2026-04-25T08:02:12.064Z</time></trkpt><trkpt lat="42.2511167" lon="12.739415"><ele>189.0</ele><time>2026-04-25T08:02:13.064Z</time></trkpt><trkpt lat="42.2511217" lon="12.7393133"><ele>189.0</ele><time>2026-04-25T08:02:14.066Z</time></trkpt><trkpt lat="42.2511783" lon="12.739195"><ele>189.0</ele><time>2026-04-25T08:02:16.064Z</time></trkpt><trkpt lat="42.2513017" lon="12.7391433"><ele>189.16666666666666</ele><time>2026-04-25T08:02:18.063Z</time></trkpt><trkpt lat="42.25138" lon="12.73912"><ele>189.33333333333334</ele><time>2026-04-25T08:02:19.064Z</time></trkpt><trkpt lat="42.2514617" lon="12.7390967"><ele>189.5</ele><time>2026-04-25T08:02:20.064Z</time></trkpt><trkpt lat="42.251545" lon="12.7390733"><ele>189.66666666666669</ele><time>2026-04-25T08:02:21.063Z</time></trkpt><trkpt lat="42.2516317" lon="12.73905"><ele>189.83333333333334</ele><time>2026-04-25T08:02:22.065Z</time></trkpt><trkpt lat="42.2517167" lon="12.7390283"><ele>190.0</ele><time>2026-04-25T08:02:23.065Z</time></trkpt><trkpt lat="42.2517983" lon="12.7390067"><ele>192.5</ele><time>2026-04-25T08:02:24.065Z</time></trkpt><trkpt lat="42.25188" lon="12.73899"><ele>195.0</ele><time>2026-04-25T08:02:25.065Z</time></trkpt><trkpt lat="42.2519617" lon="12.73897"><ele>197.5</ele><time>2026-04-25T08:02:26.065Z</time></trkpt><trkpt lat="42.2520467" lon="12.73894"><ele>200.0</ele><time>2026-04-25T08:02:27.064Z</time></trkpt><trkpt lat="42.25213" lon="12.738905"><ele>202.49999999999997</ele><time>2026-04-25T08:02:28.063Z</time></trkpt><trkpt lat="42.2522133" lon="12.7388667"><ele>205.0</ele><time>2026-04-25T08:02:29.065Z</time></trkpt><trkpt lat="42.2522983" lon="12.73883"><ele>206.66666666666666</ele><time>2026-04-25T08:02:30.066Z</time></trkpt><trkpt lat="42.25238" lon="12.7387933"><ele>208.33333333333331</ele><time>2026-04-25T08:02:31.066Z</time></trkpt><trkpt lat="42.2524583" lon="12.7387567"><ele>210.0</ele><time>2026-04-25T08:02:32.063Z</time></trkpt><trkpt lat="42.2525317" lon="12.7387133"><ele>211.66666666666669</ele><time>2026-04-25T08:02:33.066Z</time></trkpt><trkpt lat="42.2526" lon="12.7386633"><ele>213.33333333333334</ele><time>2026-04-25T08:02:34.066Z</time></trkpt><trkpt lat="42.2526617" lon="12.7385933"><ele>215.0</ele><time>2026-04-25T08:02:35.065Z</time></trkpt><trkpt lat="42.25271" lon="12.73851"><ele>215.00000000000003</ele><time>2026-04-25T08:02:36.065Z</time></trkpt><trkpt lat="42.2527467" lon="12.7384217"><ele>215.0</ele><time>2026-04-25T08:02:37.065Z</time></trkpt><trkpt lat="42.2527767" lon="12.7383267"><ele>215.0</ele><time>2026-04-25T08:02:38.064Z</time></trkpt><trkpt lat="42.2528" lon="12.7382233"><ele>215.0</ele><time>2026-04-25T08:02:39.065Z</time></trkpt><trkpt lat="42.2528233" lon="12.7381117"><ele>215.00000000000003</ele><time>2026-04-25T08:02:40.064Z</time></trkpt><trkpt lat="42.2528467" lon="12.7380017"><ele>215.0</ele><time>2026-04-25T08:02:41.065Z</time></trkpt><trkpt lat="42.2528767" lon="12.7378967"><ele>215.0</ele><time>2026-04-25T08:02:42.066Z</time></trkpt><trkpt lat="42.25292" lon="12.7377967"><ele>215.0</ele><time>2026-04-25T08:02:43.065Z</time></trkpt><trkpt lat="42.252985" lon="12.7377067"><ele>215.0</ele><time>2026-04-25T08:02:44.065Z</time></trkpt><trkpt lat="42.25307" lon="12.737635"><ele>215.0</ele><time>2026-04-25T08:02:45.063Z</time></trkpt><trkpt lat="42.2531683" lon="12.7375917"><ele>215.0</ele><time>2026-04-25T08:02:46.062Z</time></trkpt><trkpt lat="42.25327" lon="12.7375817"><ele>216.6</ele><time>2026-04-25T08:02:47.064Z</time></trkpt><trkpt lat="42.2533667" lon="12.7376117"><ele>218.2</ele><time>2026-04-25T08:02:48.064Z</time></trkpt><trkpt lat="42.253455" lon="12.7376767"><ele>219.8</ele><time>2026-04-25T08:02:49.064Z</time></trkpt><trkpt lat="42.2535267" lon="12.7377683"><ele>221.4</ele><time>2026-04-25T08:02:50.064Z</time></trkpt><trkpt lat="42.253585" lon="12.7378817"><ele>223.0</ele><time>2026-04-25T08:02:51.064Z</time></trkpt><trkpt lat="42.253625" lon="12.7380117"><ele>223.8</ele><time>2026-04-25T08:02:52.066Z</time></trkpt><trkpt lat="42.2536417" lon="12.738155"><ele>224.60000000000002</ele><time>2026-04-25T08:02:53.063Z</time></trkpt><trkpt lat="42.2536517" lon="12.7383017"><ele>225.39999999999998</ele><time>2026-04-25T08:02:54.065Z</time></trkpt><trkpt lat="42.25366" lon="12.7384517"><ele>226.2</ele><time>2026-04-25T08:02:55.065Z</time></trkpt><trkpt lat="42.2536683" lon="12.7386033"><ele>227.0</ele><time>2026-04-25T08:02:56.065Z</time></trkpt><trkpt lat="42.2536783" lon="12.7387533"><ele>227.0</ele><time>2026-04-25T08:02:57.065Z</time></trkpt><trkpt lat="42.25369" lon="12.7389017"><ele>227.0</ele><time>2026-04-25T08:02:58.064Z</time></trkpt><trkpt lat="42.2537017" lon="12.7390483"><ele>227.0</ele><time>2026-04-25T08:02:59.066Z</time></trkpt><trkpt lat="42.2537133" lon="12.7391983"><ele>227.0</ele><time>2026-04-25T08:03:00.064Z</time></trkpt><trkpt lat="42.253725" lon="12.73935"><ele>227.0</ele><time>2026-04-25T08:03:01.065Z</time></trkpt><trkpt lat="42.2537367" lon="12.7395"><ele>227.0</ele><time>2026-04-25T08:03:02.066Z</time></trkpt><trkpt lat="42.2537467" lon="12.7396417"><ele>227.0</ele><time>2026-04-25T08:03:03.066Z</time></trkpt><trkpt lat="42.25376" lon="12.7397733"><ele>227.0</ele><time>2026-04-25T08:03:04.066Z</time></trkpt><trkpt lat="42.2537783" lon="12.7399"><ele>227.0</ele><time>2026-04-25T08:03:05.065Z</time></trkpt><trkpt lat="42.253815" lon="12.7400167"><ele>227.0</ele><time>2026-04-25T08:03:06.066Z</time></trkpt><trkpt lat="42.2538783" lon="12.7401117"><ele>229.6</ele><time>2026-04-25T08:03:07.066Z</time></trkpt><trkpt lat="42.2539583" lon="12.7401733"><ele>232.2</ele><time>2026-04-25T08:03:08.065Z</time></trkpt><trkpt lat="42.25405" lon="12.7401833"><ele>234.8</ele><time>2026-04-25T08:03:09.066Z</time></trkpt><trkpt lat="42.2541433" lon="12.74014"><ele>237.4</ele><time>2026-04-25T08:03:10.065Z</time></trkpt><trkpt lat="42.254225" lon="12.74005"><ele>240.0</ele><time>2026-04-25T08:03:11.064Z</time></trkpt><trkpt lat="42.25428" lon="12.7399217"><ele>240.0</ele><time>2026-04-25T08:03:12.065Z</time></trkpt><trkpt lat="42.254315" lon="12.7397783"><ele>240.0</ele><time>2026-04-25T08:03:13.067Z</time></trkpt><trkpt lat="42.2543417" lon="12.7396283"><ele>240.0</ele><time>2026-04-25T08:03:14.066Z</time></trkpt><trkpt lat="42.2543633" lon="12.7394767"><ele>240.0</ele><time>2026-04-25T08:03:15.065Z</time></trkpt><trkpt lat="42.2543867" lon="12.73933"><ele>240.2</ele><time>2026-04-25T08:03:16.066Z</time></trkpt><trkpt lat="42.2544067" lon="12.7391867"><ele>240.4</ele><time>2026-04-25T08:03:17.066Z</time></trkpt><trkpt lat="42.2544267" lon="12.7390583"><ele>240.60000000000002</ele><time>2026-04-25T08:03:18.066Z</time></trkpt><trkpt lat="42.2544517" lon="12.7389433"><ele>240.8</ele><time>2026-04-25T08:03:19.066Z</time></trkpt><trkpt lat="42.2544967" lon="12.738845"><ele>241.0</ele><time>2026-04-25T08:03:20.066Z</time></trkpt><trkpt lat="42.2545667" lon="12.7387633"><ele>241.0</ele><time>2026-04-25T08:03:21.066Z</time></trkpt><trkpt lat="42.2546533" lon="12.7387067"><ele>241.00000000000003</ele><time>2026-04-25T08:03:22.065Z</time></trkpt><trkpt lat="42.25475" lon="12.7386817"><ele>241.00000000000003</ele><time>2026-04-25T08:03:23.066Z</time></trkpt><trkpt lat="42.2548533" lon="12.7386917"><ele>241.0</ele><time>2026-04-25T08:03:24.066Z</time></trkpt><trkpt lat="42.2549517" lon="12.7387367"><ele>241.0</ele><time>2026-04-25T08:03:25.066Z</time></trkpt><trkpt lat="42.2550483" lon="12.7388017"><ele>243.60000000000002</ele><time>2026-04-25T08:03:26.066Z</time></trkpt><trkpt lat="42.255145" lon="12.73887"><ele>246.20000000000002</ele><time>2026-04-25T08:03:27.068Z</time></trkpt><trkpt lat="42.2552483" lon="12.73892"><ele>248.79999999999998</ele><time>2026-04-25T08:03:28.065Z</time></trkpt><trkpt lat="42.2553567" lon="12.738935"><ele>251.39999999999998</ele><time>2026-04-25T08:03:29.068Z</time></trkpt><trkpt lat="42.255465" lon="12.7389233"><ele>254.0</ele><time>2026-04-25T08:03:30.066Z</time></trkpt><trkpt lat="42.255575" lon="12.7388733"><ele>253.5</ele><time>2026-04-25T08:03:31.065Z</time></trkpt><trkpt lat="42.2556767" lon="12.73879"><ele>253.0</ele><time>2026-04-25T08:03:32.066Z</time></trkpt><trkpt lat="42.2557683" lon="12.738695"><ele>252.5</ele><time>2026-04-25T08:03:33.065Z</time></trkpt><trkpt lat="42.2558533" lon="12.738595"><ele>252.0</ele><time>2026-04-25T08:03:34.065Z</time></trkpt><trkpt lat="42.2559367" lon="12.738495"><ele>252.0</ele><time>2026-04-25T08:03:35.065Z</time></trkpt><trkpt lat="42.2560217" lon="12.7383967"><ele>252.0</ele><time>2026-04-25T08:03:36.065Z</time></trkpt><trkpt lat="42.2561" lon="12.7383067"><ele>252.0</ele><time>2026-04-25T08:03:37.067Z</time></trkpt><trkpt lat="42.25617" lon="12.7382333"><ele>252.0</ele><time>2026-04-25T08:03:38.065Z</time></trkpt><trkpt lat="42.256235" lon="12.738185"><ele>252.0</ele><time>2026-04-25T08:03:39.066Z</time></trkpt><trkpt lat="42.2563117" lon="12.7381833"><ele>252.0</ele><time>2026-04-25T08:03:40.067Z</time></trkpt><trkpt lat="42.2563917" lon="12.7382167"><ele>252.0</ele><time>2026-04-25T08:03:41.066Z</time></trkpt><trkpt lat="42.2564733" lon="12.7382833"><ele>252.0</ele><time>2026-04-25T08:03:42.065Z</time></trkpt><trkpt lat="42.2565567" lon="12.738365"><ele>252.0</ele><time>2026-04-25T08:03:43.063Z</time></trkpt><trkpt lat="42.2566367" lon="12.7384533"><ele>252.0</ele><time>2026-04-25T08:03:44.065Z</time></trkpt><trkpt lat="42.25672" lon="12.7385433"><ele>255.39999999999998</ele><time>2026-04-25T08:03:45.064Z</time></trkpt><trkpt lat="42.2568033" lon="12.7386233"><ele>258.79999999999995</ele><time>2026-04-25T08:03:46.064Z</time></trkpt><trkpt lat="42.2568967" lon="12.7386817"><ele>262.2</ele><time>2026-04-25T08:03:47.065Z</time></trkpt><trkpt lat="42.2569867" lon="12.7386983"><ele>265.59999999999997</ele><time>2026-04-25T08:03:48.066Z</time></trkpt><trkpt lat="42.2570733" lon="12.73868"><ele>269.0</ele><time>2026-04-25T08:03:49.067Z</time></trkpt><trkpt lat="42.25716" lon="12.7386233"><ele>269.4</ele><time>2026-04-25T08:03:50.066Z</time></trkpt><trkpt lat="42.25725" lon="12.7385483"><ele>269.79999999999995</ele><time>2026-04-25T08:03:51.067Z</time></trkpt><trkpt lat="42.2573367" lon="12.7384633"><ele>270.20000000000005</ele><time>2026-04-25T08:03:52.065Z</time></trkpt><trkpt lat="42.2574183" lon="12.73837"><ele>270.6</ele><time>2026-04-25T08:03:53.065Z</time></trkpt><trkpt lat="42.2574933" lon="12.7382733"><ele>271.0</ele><time>2026-04-25T08:03:54.066Z</time></trkpt><trkpt lat="42.257565" lon="12.73818"><ele>271.0</ele><time>2026-04-25T08:03:55.066Z</time></trkpt><trkpt lat="42.2576383" lon="12.738105"><ele>271.0</ele><time>2026-04-25T08:03:56.066Z</time></trkpt><trkpt lat="42.2577133" lon="12.73806"><ele>271.0</ele><time>2026-04-25T08:03:57.066Z</time></trkpt><trkpt lat="42.25779" lon="12.7380467"><ele>271.0</ele><time>2026-04-25T08:03:58.066Z</time></trkpt><trkpt lat="42.2578683" lon="12.73811"><ele>271.0</ele><time>2026-04-25T08:03:59.066Z</time></trkpt><trkpt lat="42.257925" lon="12.7382167"><ele>271.0</ele><time>2026-04-25T08:04:00.066Z</time></trkpt><trkpt lat="42.2579517" lon="12.738335"><ele>271.0</ele><time>2026-04-25T08:04:01.065Z</time></trkpt><trkpt lat="42.25794" lon="12.7384567"><ele>271.0</ele><time>2026-04-25T08:04:02.066Z</time></trkpt><trkpt lat="42.2578967" lon="12.738585"><ele>271.0</ele><time>2026-04-25T08:04:03.066Z</time></trkpt><trkpt lat="42.2578417" lon="12.7387167"><ele>271.0</ele><time>2026-04-25T08:04:04.066Z</time></trkpt><trkpt lat="42.2577867" lon="12.7388483"><ele>271.0</ele><time>2026-04-25T08:04:05.065Z</time></trkpt><trkpt lat="42.25773" lon="12.7389783"><ele>271.66666666666663</ele><time>2026-04-25T08:04:06.065Z</time></trkpt><trkpt lat="42.25768" lon="12.7390983"><ele>272.3333333333333</ele><time>2026-04-25T08:04:07.064Z</time></trkpt><trkpt lat="42.2576467" lon="12.7392067"><ele>273.0</ele><time>2026-04-25T08:04:08.066Z</time></trkpt><trkpt lat="42.2576333" lon="12.7393083"><ele>273.6666666666667</ele><time>2026-04-25T08:04:09.068Z</time></trkpt><trkpt lat="42.2576467" lon="12.73941"><ele>274.33333333333337</ele><time>2026-04-25T08:04:10.065Z</time></trkpt><trkpt lat="42.25769" lon="12.7394933"><ele>275.0</ele><time>2026-04-25T08:04:11.066Z</time></trkpt><trkpt lat="42.2577633" lon="12.7395483"><ele>276.0</ele><time>2026-04-25T08:04:12.065Z</time></trkpt><trkpt lat="42.2578667" lon="12.7395667"><ele>277.0</ele><time>2026-04-25T08:04:13.064Z</time></trkpt><trkpt lat="42.257995" lon="12.73955"><ele>278.0</ele><time>2026-04-25T08:04:14.066Z</time></trkpt><trkpt lat="42.25812" lon="12.7395333"><ele>279.0</ele><time>2026-04-25T08:04:15.064Z</time></trkpt><trkpt lat="42.2582433" lon="12.73952"><ele>282.0</ele><time>2026-04-25T08:04:16.065Z</time></trkpt><trkpt lat="42.2583683" lon="12.7395067"><ele>285.0</ele><time>2026-04-25T08:04:17.064Z</time></trkpt><trkpt lat="42.2584917" lon="12.7394883"><ele>288.0</ele><time>2026-04-25T08:04:18.065Z</time></trkpt><trkpt lat="42.2586133" lon="12.7394567"><ele>291.0</ele><time>2026-04-25T08:04:19.065Z</time></trkpt><trkpt lat="42.25873" lon="12.7394117"><ele>291.5</ele><time>2026-04-25T08:04:20.066Z</time></trkpt><trkpt lat="42.25884" lon="12.7393617"><ele>292.0</ele><time>2026-04-25T08:04:21.064Z</time></trkpt><trkpt lat="42.258945" lon="12.7393067"><ele>292.5</ele><time>2026-04-25T08:04:22.065Z</time></trkpt><trkpt lat="42.2590533" lon="12.7392517"><ele>293.0</ele><time>2026-04-25T08:04:23.064Z</time></trkpt><trkpt lat="42.2591533" lon="12.7391967"><ele>293.0</ele><time>2026-04-25T08:04:24.067Z</time></trkpt><trkpt lat="42.2592517" lon="12.7391433"><ele>293.0</ele><time>2026-04-25T08:04:25.066Z</time></trkpt><trkpt lat="42.2593483" lon="12.7390883"><ele>293.0</ele><time>2026-04-25T08:04:26.066Z</time></trkpt><trkpt lat="42.259435" lon="12.73902"><ele>293.0</ele><time>2026-04-25T08:04:27.065Z</time></trkpt><trkpt lat="42.2595067" lon="12.7389283"><ele>293.0</ele><time>2026-04-25T08:04:28.066Z</time></trkpt><trkpt lat="42.2595683" lon="12.738825"><ele>293.0</ele><time>2026-04-25T08:04:29.066Z</time></trkpt><trkpt lat="42.259625" lon="12.73871"><ele>293.0</ele><time>2026-04-25T08:04:30.066Z</time></trkpt><trkpt lat="42.2596767" lon="12.738605"><ele>293.0</ele><time>2026-04-25T08:04:31.065Z</time></trkpt><trkpt lat="42.2597217" lon="12.7385117"><ele>293.0</ele><time>2026-04-25T08:04:32.065Z</time></trkpt><trkpt lat="42.25977" lon="12.7384233"><ele>293.0</ele><time>2026-04-25T08:04:33.067Z</time></trkpt><trkpt lat="42.2598167" lon="12.738335"><ele>293.0</ele><time>2026-04-25T08:04:34.063Z</time></trkpt><trkpt lat="42.2598567" lon="12.7382517"><ele>294.99999999999994</ele><time>2026-04-25T08:04:35.066Z</time></trkpt><trkpt lat="42.2598917" lon="12.73818"><ele>297.0</ele><time>2026-04-25T08:04:36.065Z</time></trkpt><trkpt lat="42.2599333" lon="12.738115"><ele>299.0</ele><time>2026-04-25T08:04:38.065Z</time></trkpt><trkpt lat="42.26" lon="12.738105"><ele>301.0</ele><time>2026-04-25T08:04:42.063Z</time></trkpt><trkpt lat="42.2599883" lon="12.7381933"><ele>303.0</ele><time>2026-04-25T08:04:44.065Z</time></trkpt><trkpt lat="42.2599517" lon="12.7382933"><ele>304.99999999999994</ele><time>2026-04-25T08:04:46.064Z</time></trkpt><trkpt lat="42.2599383" lon="12.73839"><ele>307.0</ele><time>2026-04-25T08:04:49.066Z</time></trkpt><trkpt lat="42.2599767" lon="12.7385083"><ele>307.57142857142856</ele><time>2026-04-25T08:05:41.064Z</time></trkpt><trkpt lat="42.259965" lon="12.7386083"><ele>308.1428571428571</ele><time>2026-04-25T08:05:43.063Z</time></trkpt><trkpt lat="42.2599517" lon="12.7387117"><ele>308.71428571428567</ele><time>2026-04-25T08:05:45.063Z</time></trkpt><trkpt lat="42.259945" lon="12.73881"><ele>309.2857142857143</ele><time>2026-04-25T08:05:47.063Z</time></trkpt><trkpt lat="42.2599717" lon="12.73889"><ele>309.8571428571429</ele><time>2026-04-25T08:05:50.064Z</time></trkpt><trkpt lat="42.2600017" lon="12.7389867"><ele>310.4285714285714</ele><time>2026-04-25T08:05:52.064Z</time></trkpt><trkpt lat="42.2600433" lon="12.7390567"><ele>311.0</ele><time>2026-04-25T08:05:54.065Z</time></trkpt><trkpt lat="42.2600483" lon="12.7391467"><ele>311.0</ele><time>2026-04-25T08:05:56.065Z</time></trkpt><trkpt lat="42.2600117" lon="12.7392317"><ele>311.0</ele><time>2026-04-25T08:05:58.064Z</time></trkpt><trkpt lat="42.2599833" lon="12.7393233"><ele>311.0</ele><time>2026-04-25T08:06:00.064Z</time></trkpt><trkpt lat="42.2599667" lon="12.7394167"><ele>311.0</ele><time>2026-04-25T08:06:02.065Z</time></trkpt><trkpt lat="42.2599333" lon="12.7395167"><ele>311.0</ele><time>2026-04-25T08:06:04.063Z</time></trkpt><trkpt lat="42.2598983" lon="12.739615"><ele>311.0</ele><time>2026-04-25T08:06:06.064Z</time></trkpt><trkpt lat="42.2598567" lon="12.7397117"><ele>311.0</ele><time>2026-04-25T08:06:08.066Z</time></trkpt><trkpt lat="42.2598183" lon="12.739805"><ele>311.0</ele><time>2026-04-25T08:06:10.063Z</time></trkpt><trkpt lat="42.259765" lon="12.7398967"><ele>311.0</ele><time>2026-04-25T08:06:12.063Z</time></trkpt><trkpt lat="42.2596917" lon="12.7399783"><ele>311.0</ele><time>2026-04-25T08:06:14.062Z</time></trkpt><trkpt lat="42.25962" lon="12.7400417"><ele>311.0</ele><time>2026-04-25T08:06:16.065Z</time></trkpt><trkpt lat="42.2595517" lon="12.740105"><ele>311.0</ele><time>2026-04-25T08:06:18.064Z</time></trkpt><trkpt lat="42.2595133" lon="12.7401883"><ele>314.0</ele><time>2026-04-25T08:06:20.063Z</time></trkpt><trkpt lat="42.2594533" lon="12.7402933"><ele>317.0</ele><time>2026-04-25T08:06:22.065Z</time></trkpt><trkpt lat="42.2593917" lon="12.7403733"><ele>320.0</ele><time>2026-04-25T08:06:24.063Z</time></trkpt><trkpt lat="42.2593283" lon="12.74044"><ele>323.0</ele><time>2026-04-25T08:06:26.063Z</time></trkpt><trkpt lat="42.2592683" lon="12.74051"><ele>326.0</ele><time>2026-04-25T08:06:28.064Z</time></trkpt><trkpt lat="42.2592533" lon="12.7406017"><ele>329.0</ele><time>2026-04-25T08:06:31.063Z</time></trkpt><trkpt lat="42.2593267" lon="12.7406267"><ele>329.0</ele><time>2026-04-25T08:06:34.064Z</time></trkpt><trkpt lat="42.2593767" lon="12.7406983"><ele>329.0</ele><time>2026-04-25T08:06:36.065Z</time></trkpt><trkpt lat="42.2594267" lon="12.7407817"><ele>329.0</ele><time>2026-04-25T08:06:39.063Z</time></trkpt><trkpt lat="42.2594983" lon="12.7408017"><ele>329.0</ele><time>2026-04-25T08:06:42.065Z</time></trkpt><trkpt lat="42.259565" lon="12.7408217"><ele>329.0</ele><time>2026-04-25T08:06:44.066Z</time></trkpt><trkpt lat="42.2596333" lon="12.7408633"><ele>329.0</ele><time>2026-04-25T08:06:46.064Z</time></trkpt><trkpt lat="42.2596917" lon="12.740915"><ele>329.0</ele><time>2026-04-25T08:06:48.063Z</time></trkpt><trkpt lat="42.2597367" lon="12.740975"><ele>331.6666666666667</ele><time>2026-04-25T08:06:50.063Z</time></trkpt><trkpt lat="42.2598083" lon="12.7410367"><ele>334.33333333333337</ele><time>2026-04-25T08:06:53.062Z</time></trkpt><trkpt lat="42.259855" lon="12.7410967"><ele>337.0</ele><time>2026-04-25T08:06:55.064Z</time></trkpt><trkpt lat="42.2599267" lon="12.7411783"><ele>339.6666666666667</ele><time>2026-04-25T08:06:58.063Z</time></trkpt><trkpt lat="42.2599767" lon="12.74125"><ele>342.3333333333333</ele><time>2026-04-25T08:07:00.063Z</time></trkpt><trkpt lat="42.26003" lon="12.7413267"><ele>345.0</ele><time>2026-04-25T08:07:03.064Z</time></trkpt><trkpt lat="42.2600833" lon="12.7414033"><ele>345.0</ele><time>2026-04-25T08:07:05.063Z</time></trkpt><trkpt lat="42.2601317" lon="12.7414967"><ele>345.0</ele><time>2026-04-25T08:07:08.064Z</time></trkpt><trkpt lat="42.2601467" lon="12.7416233"><ele>345.0</ele><time>2026-04-25T08:07:11.063Z</time></trkpt><trkpt lat="42.2601667" lon="12.7417183"><ele>345.0</ele><time>2026-04-25T08:07:13.064Z</time></trkpt><trkpt lat="42.2601867" lon="12.741815"><ele>345.0</ele><time>2026-04-25T08:07:15.062Z</time></trkpt><trkpt lat="42.260205" lon="12.7419067"><ele>345.0</ele><time>2026-04-25T08:07:17.064Z</time></trkpt><trkpt lat="42.260245" lon="12.74199"><ele>346.5</ele><time>2026-04-25T08:07:19.063Z</time></trkpt><trkpt lat="42.2602883" lon="12.7420883"><ele>348.0</ele><time>2026-04-25T08:07:22.064Z</time></trkpt><trkpt lat="42.2603167" lon="12.7422033"><ele>349.5</ele><time>2026-04-25T08:07:25.064Z</time></trkpt><trkpt lat="42.2602883" lon="12.74231"><ele>351.0</ele><time>2026-04-25T08:07:27.062Z</time></trkpt><trkpt lat="42.2602733" lon="12.7424267"><ele>352.5</ele><time>2026-04-25T08:07:29.063Z</time></trkpt><trkpt lat="42.260255" lon="12.7425417"><ele>354.0</ele><time>2026-04-25T08:07:31.062Z</time></trkpt><trkpt lat="42.2602183" lon="12.7426433"><ele>355.6666666666667</ele><time>2026-04-25T08:07:33.064Z</time></trkpt><trkpt lat="42.2601967" lon="12.7427333"><ele>357.3333333333333</ele><time>2026-04-25T08:07:35.063Z</time></trkpt><trkpt lat="42.2601867" lon="12.742825"><ele>359.0</ele><time>2026-04-25T08:07:37.062Z</time></trkpt><trkpt lat="42.2601883" lon="12.742925"><ele>360.66666666666663</ele><time>2026-04-25T08:07:39.064Z</time></trkpt><trkpt lat="42.2602133" lon="12.7430467"><ele>362.3333333333333</ele><time>2026-04-25T08:07:41.063Z</time></trkpt><trkpt lat="42.2602467" lon="12.7431533"><ele>364.0</ele><time>2026-04-25T08:07:43.063Z</time></trkpt><trkpt lat="42.2603183" lon="12.7432567"><ele>364.0</ele><time>2026-04-25T08:07:46.064Z</time></trkpt><trkpt lat="42.2603717" lon="12.7433467"><ele>364.0</ele><time>2026-04-25T08:07:48.064Z</time></trkpt><trkpt lat="42.2604233" lon="12.7434183"><ele>364.0</ele><time>2026-04-25T08:07:50.063Z</time></trkpt><trkpt lat="42.2604767" lon="12.7434983"><ele>364.0</ele><time>2026-04-25T08:07:52.062Z</time></trkpt><trkpt lat="42.2605433" lon="12.7435567"><ele>364.0</ele><time>2026-04-25T08:07:55.063Z</time></trkpt><trkpt lat="42.2606367" lon="12.7436133"><ele>364.0</ele><time>2026-04-25T08:07:58.064Z</time></trkpt><trkpt lat="42.2606983" lon="12.7436733"><ele>366.3333333333333</ele><time>2026-04-25T08:08:00.062Z</time></trkpt><trkpt lat="42.26073" lon="12.7437733"><ele>368.66666666666663</ele><time>2026-04-25T08:08:03.064Z</time></trkpt><trkpt lat="42.2607033" lon="12.7438633"><ele>371.0</ele><time>2026-04-25T08:08:06.063Z</time></trkpt><trkpt lat="42.26063" lon="12.7439117"><ele>373.3333333333333</ele><time>2026-04-25T08:08:11.063Z</time></trkpt><trkpt lat="42.2605667" lon="12.7438967"><ele>375.6666666666667</ele><time>2026-04-25T08:08:13.064Z</time></trkpt><trkpt lat="42.2604917" lon="12.74389"><ele>378.0</ele><time>2026-04-25T08:08:15.065Z</time></trkpt><trkpt lat="42.2603917" lon="12.7438733"><ele>380.5</ele><time>2026-04-25T08:08:17.065Z</time></trkpt><trkpt lat="42.2603017" lon="12.7438483"><ele>383.0</ele><time>2026-04-25T08:08:19.064Z</time></trkpt><trkpt lat="42.2602333" lon="12.74379"><ele>385.5</ele><time>2026-04-25T08:08:21.063Z</time></trkpt><trkpt lat="42.26027" lon="12.7438783"><ele>388.0</ele><time>2026-04-25T08:08:51.063Z</time></trkpt><trkpt lat="42.26031" lon="12.7439917"><ele>390.5</ele><time>2026-04-25T08:09:14.063Z</time></trkpt><trkpt lat="42.2603883" lon="12.74404"><ele>393.0</ele><time>2026-04-25T08:09:17.062Z</time></trkpt><trkpt lat="42.26047" lon="12.7440683"><ele>393.0</ele><time>2026-04-25T08:09:19.064Z</time></trkpt><trkpt lat="42.260525" lon="12.7441517"><ele>393.0</ele><time>2026-04-25T08:09:22.062Z</time></trkpt><trkpt lat="42.2605033" lon="12.74424"><ele>393.0</ele><time>2026-04-25T08:09:24.062Z</time></trkpt><trkpt lat="42.2604933" lon="12.7443267"><ele>393.0</ele><time>2026-04-25T08:09:26.064Z</time></trkpt><trkpt lat="42.2604983" lon="12.744445"><ele>393.0</ele><time>2026-04-25T08:09:28.064Z</time></trkpt><trkpt lat="42.2604933" lon="12.7445883"><ele>393.0</ele><time>2026-04-25T08:09:30.064Z</time></trkpt><trkpt lat="42.26048" lon="12.7446867"><ele>394.8333333333333</ele><time>2026-04-25T08:09:31.064Z</time></trkpt><trkpt lat="42.2604833" lon="12.7447917"><ele>396.66666666666663</ele><time>2026-04-25T08:09:32.065Z</time></trkpt><trkpt lat="42.2604833" lon="12.744895"><ele>398.5</ele><time>2026-04-25T08:09:33.064Z</time></trkpt><trkpt lat="42.2604833" lon="12.7449883"><ele>400.3333333333333</ele><time>2026-04-25T08:09:34.065Z</time></trkpt><trkpt lat="42.2604967" lon="12.745145"><ele>402.16666666666663</ele><time>2026-04-25T08:09:36.065Z</time></trkpt><trkpt lat="42.2605483" lon="12.7452683"><ele>404.0</ele><time>2026-04-25T08:09:38.067Z</time></trkpt><trkpt lat="42.26064" lon="12.745385"><ele>403.99999999999994</ele><time>2026-04-25T08:09:40.067Z</time></trkpt><trkpt lat="42.2607" lon="12.7454267"><ele>404.0</ele><time>2026-04-25T08:09:41.066Z</time></trkpt><trkpt lat="42.2607733" lon="12.7454667"><ele>404.0</ele><time>2026-04-25T08:09:42.065Z</time></trkpt><trkpt lat="42.2608483" lon="12.7455033"><ele>404.0</ele><time>2026-04-25T08:09:43.066Z</time></trkpt><trkpt lat="42.26093" lon="12.7455267"><ele>403.99999999999994</ele><time>2026-04-25T08:09:44.068Z</time></trkpt><trkpt lat="42.26101" lon="12.74554"><ele>404.0</ele><time>2026-04-25T08:09:45.066Z</time></trkpt><trkpt lat="42.26108" lon="12.745555"><ele>403.99999999999994</ele><time>2026-04-25T08:09:46.064Z</time></trkpt><trkpt lat="42.2611467" lon="12.7455617"><ele>404.0</ele><time>2026-04-25T08:09:47.066Z</time></trkpt><trkpt lat="42.2612367" lon="12.7456033"><ele>404.0</ele><time>2026-04-25T08:09:49.065Z</time></trkpt><trkpt lat="42.2613317" lon="12.74572"><ele>404.0</ele><time>2026-04-25T08:09:51.066Z</time></trkpt><trkpt lat="42.261385" lon="12.7457983"><ele>403.99999999999994</ele><time>2026-04-25T08:09:52.066Z</time></trkpt><trkpt lat="42.2614267" lon="12.7458733"><ele>404.0</ele><time>2026-04-25T08:09:53.066Z</time></trkpt><trkpt lat="42.2614733" lon="12.746005"><ele>404.2857142857143</ele><time>2026-04-25T08:09:55.067Z</time></trkpt><trkpt lat="42.2614717" lon="12.74611"><ele>404.57142857142856</ele><time>2026-04-25T08:09:57.065Z</time></trkpt><trkpt lat="42.261515" lon="12.746205"><ele>404.8571428571429</ele><time>2026-04-25T08:10:00.065Z</time></trkpt><trkpt lat="42.26159" lon="12.7461967"><ele>405.1428571428571</ele><time>2026-04-25T08:10:02.065Z</time></trkpt><trkpt lat="42.2616667" lon="12.7461483"><ele>405.42857142857144</ele><time>2026-04-25T08:10:04.064Z</time></trkpt><trkpt lat="42.2617233" lon="12.74611"><ele>405.7142857142857</ele><time>2026-04-25T08:10:06.065Z</time></trkpt><trkpt lat="42.2617817" lon="12.746145"><ele>406.0</ele><time>2026-04-25T08:10:08.065Z</time></trkpt><trkpt lat="42.261825" lon="12.7462183"><ele>406.00000000000006</ele><time>2026-04-25T08:10:17.065Z</time></trkpt><trkpt lat="42.2618617" lon="12.7463117"><ele>406.0</ele><time>2026-04-25T08:10:19.065Z</time></trkpt><trkpt lat="42.2619067" lon="12.7464633"><ele>406.0</ele><time>2026-04-25T08:10:22.065Z</time></trkpt><trkpt lat="42.2618817" lon="12.746565"><ele>406.0</ele><time>2026-04-25T08:10:24.066Z</time></trkpt><trkpt lat="42.26184" lon="12.7466683"><ele>406.00000000000006</ele><time>2026-04-25T08:10:26.064Z</time></trkpt><trkpt lat="42.2618083" lon="12.7467533"><ele>406.0</ele><time>2026-04-25T08:10:28.067Z</time></trkpt><trkpt lat="42.2617917" lon="12.7468583"><ele>408.20000000000005</ele><time>2026-04-25T08:10:30.065Z</time></trkpt><trkpt lat="42.2618067" lon="12.747025"><ele>410.40000000000003</ele><time>2026-04-25T08:10:32.065Z</time></trkpt><trkpt lat="42.261835" lon="12.7471167"><ele>412.6</ele><time>2026-04-25T08:10:33.064Z</time></trkpt><trkpt lat="42.2618567" lon="12.7472233"><ele>414.8</ele><time>2026-04-25T08:10:34.065Z</time></trkpt><trkpt lat="42.2618717" lon="12.7473367"><ele>417.0</ele><time>2026-04-25T08:10:35.064Z</time></trkpt><trkpt lat="42.2618817" lon="12.747455"><ele>417.0</ele><time>2026-04-25T08:10:36.064Z</time></trkpt><trkpt lat="42.26189" lon="12.74757"><ele>417.0</ele><time>2026-04-25T08:10:37.064Z</time></trkpt><trkpt lat="42.2618917" lon="12.747705"><ele>417.0</ele><time>2026-04-25T08:10:38.064Z</time></trkpt><trkpt lat="42.2619033" lon="12.7478267"><ele>417.0</ele><time>2026-04-25T08:10:39.065Z</time></trkpt><trkpt lat="42.2619117" lon="12.74793"><ele>417.0</ele><time>2026-04-25T08:10:40.065Z</time></trkpt><trkpt lat="42.2619233" lon="12.7480217"><ele>417.0</ele><time>2026-04-25T08:10:41.066Z</time></trkpt><trkpt lat="42.2619483" lon="12.7481533"><ele>418.40000000000003</ele><time>2026-04-25T08:10:43.064Z</time></trkpt><trkpt lat="42.2619483" lon="12.7482733"><ele>419.8</ele><time>2026-04-25T08:10:49.065Z</time></trkpt><trkpt lat="42.2618467" lon="12.7483883"><ele>421.2</ele><time>2026-04-25T08:10:51.064Z</time></trkpt><trkpt lat="42.261795" lon="12.7484467"><ele>422.6</ele><time>2026-04-25T08:10:52.066Z</time></trkpt><trkpt lat="42.2617233" lon="12.7485317"><ele>424.0</ele><time>2026-04-25T08:10:54.066Z</time></trkpt><trkpt lat="42.2616117" lon="12.74852"><ele>424.0</ele><time>2026-04-25T08:11:47.064Z</time></trkpt><trkpt lat="42.2614933" lon="12.7484933"><ele>424.0</ele><time>2026-04-25T08:11:49.066Z</time></trkpt><trkpt lat="42.2613967" lon="12.7485583"><ele>424.0</ele><time>2026-04-25T08:11:51.066Z</time></trkpt><trkpt lat="42.26132" lon="12.7486917"><ele>424.0</ele><time>2026-04-25T08:11:53.065Z</time></trkpt><trkpt lat="42.2612817" lon="12.7488317"><ele>423.50000000000006</ele><time>2026-04-25T08:11:55.064Z</time></trkpt><trkpt lat="42.2613367" lon="12.7489567"><ele>423.0</ele><time>2026-04-25T08:11:57.065Z</time></trkpt><trkpt lat="42.2614017" lon="12.7490167"><ele>422.5</ele><time>2026-04-25T08:11:58.065Z</time></trkpt><trkpt lat="42.26147" lon="12.7490833"><ele>422.0</ele><time>2026-04-25T08:11:59.067Z</time></trkpt><trkpt lat="42.2615367" lon="12.749155"><ele>421.50000000000006</ele><time>2026-04-25T08:12:00.066Z</time></trkpt><trkpt lat="42.26159" lon="12.7492367"><ele>421.0</ele><time>2026-04-25T08:12:01.064Z</time></trkpt><trkpt lat="42.261635" lon="12.749335"><ele>420.1666666666667</ele><time>2026-04-25T08:12:02.064Z</time></trkpt><trkpt lat="42.2616683" lon="12.749445"><ele>419.33333333333337</ele><time>2026-04-25T08:12:03.065Z</time></trkpt><trkpt lat="42.261695" lon="12.7495517"><ele>418.5</ele><time>2026-04-25T08:12:04.063Z</time></trkpt><trkpt lat="42.2617183" lon="12.7496483"><ele>417.66666666666663</ele><time>2026-04-25T08:12:05.064Z</time></trkpt><trkpt lat="42.261745" lon="12.749735"><ele>416.8333333333333</ele><time>2026-04-25T08:12:06.066Z</time></trkpt><trkpt lat="42.26177" lon="12.7498233"><ele>416.0</ele><time>2026-04-25T08:12:07.064Z</time></trkpt><trkpt lat="42.261795" lon="12.7499167"><ele>416.0</ele><time>2026-04-25T08:12:08.065Z</time></trkpt><trkpt lat="42.2618167" lon="12.7500083"><ele>416.0</ele><time>2026-04-25T08:12:09.064Z</time></trkpt><trkpt lat="42.261835" lon="12.7500967"><ele>416.0</ele><time>2026-04-25T08:12:10.064Z</time></trkpt><trkpt lat="42.2618617" lon="12.75018"><ele>416.0</ele><time>2026-04-25T08:12:11.064Z</time></trkpt><trkpt lat="42.2619033" lon="12.750255"><ele>416.0</ele><time>2026-04-25T08:12:12.065Z</time></trkpt><trkpt lat="42.261955" lon="12.75033"><ele>416.0</ele><time>2026-04-25T08:12:13.064Z</time></trkpt><trkpt lat="42.262015" lon="12.7504067"><ele>416.0</ele><time>2026-04-25T08:12:14.065Z</time></trkpt><trkpt lat="42.2620833" lon="12.7504933"><ele>415.8</ele><time>2026-04-25T08:12:15.066Z</time></trkpt><trkpt lat="42.262155" lon="12.750595"><ele>415.6</ele><time>2026-04-25T08:12:16.064Z</time></trkpt><trkpt lat="42.2622217" lon="12.7507083"><ele>415.4</ele><time>2026-04-25T08:12:17.065Z</time></trkpt><trkpt lat="42.26228" lon="12.7508317"><ele>415.2</ele><time>2026-04-25T08:12:18.064Z</time></trkpt><trkpt lat="42.2623267" lon="12.750955"><ele>415.0</ele><time>2026-04-25T08:12:19.065Z</time></trkpt><trkpt lat="42.2623567" lon="12.751075"><ele>415.0</ele><time>2026-04-25T08:12:20.066Z</time></trkpt><trkpt lat="42.2623667" lon="12.7511967"><ele>415.0</ele><time>2026-04-25T08:12:21.066Z</time></trkpt><trkpt lat="42.2623533" lon="12.7513267"><ele>415.0</ele><time>2026-04-25T08:12:22.067Z</time></trkpt><trkpt lat="42.26233" lon="12.751465"><ele>415.0</ele><time>2026-04-25T08:12:23.064Z</time></trkpt><trkpt lat="42.262305" lon="12.7516067"><ele>415.0</ele><time>2026-04-25T08:12:24.066Z</time></trkpt><trkpt lat="42.2622833" lon="12.7517483"><ele>409.8</ele><time>2026-04-25T08:12:25.065Z</time></trkpt><trkpt lat="42.2622667" lon="12.751885"><ele>404.6</ele><time>2026-04-25T08:12:26.066Z</time></trkpt><trkpt lat="42.2622517" lon="12.75202"><ele>399.4</ele><time>2026-04-25T08:12:27.065Z</time></trkpt><trkpt lat="42.2622333" lon="12.7521483"><ele>394.2</ele><time>2026-04-25T08:12:28.065Z</time></trkpt><trkpt lat="42.262215" lon="12.7522733"><ele>389.0</ele><time>2026-04-25T08:12:29.065Z</time></trkpt><trkpt lat="42.2622033" lon="12.752385"><ele>388.99999999999994</ele><time>2026-04-25T08:12:30.065Z</time></trkpt><trkpt lat="42.262195" lon="12.7524783"><ele>389.0</ele><time>2026-04-25T08:12:31.066Z</time></trkpt><trkpt lat="42.2621933" lon="12.752565"><ele>389.0</ele><time>2026-04-25T08:12:32.064Z</time></trkpt><trkpt lat="42.2622167" lon="12.7527267"><ele>389.0</ele><time>2026-04-25T08:12:34.066Z</time></trkpt><trkpt lat="42.2622583" lon="12.7528083"><ele>388.99999999999994</ele><time>2026-04-25T08:12:35.066Z</time></trkpt><trkpt lat="42.262315" lon="12.7528917"><ele>389.0</ele><time>2026-04-25T08:12:36.064Z</time></trkpt><trkpt lat="42.262375" lon="12.752975"><ele>392.16666666666663</ele><time>2026-04-25T08:12:37.065Z</time></trkpt><trkpt lat="42.2624267" lon="12.753065"><ele>395.3333333333333</ele><time>2026-04-25T08:12:38.065Z</time></trkpt><trkpt lat="42.2624683" lon="12.75316"><ele>398.5</ele><time>2026-04-25T08:12:39.066Z</time></trkpt><trkpt lat="42.262505" lon="12.7532567"><ele>401.66666666666663</ele><time>2026-04-25T08:12:40.067Z</time></trkpt><trkpt lat="42.2625417" lon="12.7533567"><ele>404.8333333333333</ele><time>2026-04-25T08:12:41.067Z</time></trkpt><trkpt lat="42.26257" lon="12.7534667"><ele>408.0</ele><time>2026-04-25T08:12:42.066Z</time></trkpt><trkpt lat="42.26259" lon="12.7535833"><ele>408.0</ele><time>2026-04-25T08:12:43.064Z</time></trkpt><trkpt lat="42.2626067" lon="12.7537067"><ele>408.0</ele><time>2026-04-25T08:12:44.065Z</time></trkpt><trkpt lat="42.2626217" lon="12.7538283"><ele>408.0</ele><time>2026-04-25T08:12:45.066Z</time></trkpt><trkpt lat="42.2626417" lon="12.7539417"><ele>408.0</ele><time>2026-04-25T08:12:46.064Z</time></trkpt><trkpt lat="42.262665" lon="12.75405"><ele>408.0</ele><time>2026-04-25T08:12:47.066Z</time></trkpt><trkpt lat="42.262695" lon="12.7541517"><ele>408.0</ele><time>2026-04-25T08:12:48.066Z</time></trkpt><trkpt lat="42.262735" lon="12.7542533"><ele>408.0</ele><time>2026-04-25T08:12:49.063Z</time></trkpt><trkpt lat="42.2627767" lon="12.75436"><ele>408.0</ele><time>2026-04-25T08:12:50.065Z</time></trkpt><trkpt lat="42.262815" lon="12.7544717"><ele>408.0</ele><time>2026-04-25T08:12:51.065Z</time></trkpt><trkpt lat="42.2628483" lon="12.754595"><ele>408.0</ele><time>2026-04-25T08:12:52.066Z</time></trkpt><trkpt lat="42.2628783" lon="12.7547217"><ele>408.0</ele><time>2026-04-25T08:12:53.064Z</time></trkpt><trkpt lat="42.2629" lon="12.7548483"><ele>406.59999999999997</ele><time>2026-04-25T08:12:54.065Z</time></trkpt><trkpt lat="42.2629117" lon="12.7549783"><ele>405.2</ele><time>2026-04-25T08:12:55.067Z</time></trkpt><trkpt lat="42.2629183" lon="12.7551083"><ele>403.8</ele><time>2026-04-25T08:12:56.066Z</time></trkpt><trkpt lat="42.2629233" lon="12.7552283"><ele>402.4</ele><time>2026-04-25T08:12:57.067Z</time></trkpt><trkpt lat="42.26292" lon="12.7553417"><ele>401.0</ele><time>2026-04-25T08:12:58.065Z</time></trkpt><trkpt lat="42.26291" lon="12.7554567"><ele>400.8333333333333</ele><time>2026-04-25T08:12:59.066Z</time></trkpt><trkpt lat="42.26289" lon="12.7555733"><ele>400.66666666666663</ele><time>2026-04-25T08:13:00.063Z</time></trkpt><trkpt lat="42.26286" lon="12.755685"><ele>400.5</ele><time>2026-04-25T08:13:01.063Z</time></trkpt><trkpt lat="42.26283" lon="12.7557783"><ele>400.33333333333337</ele><time>2026-04-25T08:13:02.066Z</time></trkpt><trkpt lat="42.2628033" lon="12.7558617"><ele>400.1666666666667</ele><time>2026-04-25T08:13:03.066Z</time></trkpt><trkpt lat="42.2627867" lon="12.75603"><ele>400.0</ele><time>2026-04-25T08:13:05.063Z</time></trkpt><trkpt lat="42.262805" lon="12.7561317"><ele>399.28571428571433</ele><time>2026-04-25T08:13:06.064Z</time></trkpt><trkpt lat="42.26283" lon="12.7562333"><ele>398.57142857142856</ele><time>2026-04-25T08:13:07.065Z</time></trkpt><trkpt lat="42.2628567" lon="12.7563267"><ele>397.8571428571429</ele><time>2026-04-25T08:13:08.063Z</time></trkpt><trkpt lat="42.26287" lon="12.7564167"><ele>397.14285714285717</ele><time>2026-04-25T08:13:09.066Z</time></trkpt><trkpt lat="42.2628783" lon="12.7565067"><ele>396.42857142857144</ele><time>2026-04-25T08:13:10.065Z</time></trkpt><trkpt lat="42.262895" lon="12.7565983"><ele>395.7142857142857</ele><time>2026-04-25T08:13:11.066Z</time></trkpt><trkpt lat="42.26292" lon="12.7566933"><ele>395.0</ele><time>2026-04-25T08:13:12.066Z</time></trkpt><trkpt lat="42.2629517" lon="12.756795"><ele>394.3333333333333</ele><time>2026-04-25T08:13:13.067Z</time></trkpt><trkpt lat="42.262985" lon="12.7569033"><ele>393.66666666666663</ele><time>2026-04-25T08:13:14.065Z</time></trkpt><trkpt lat="42.2630183" lon="12.757015"><ele>393.0</ele><time>2026-04-25T08:13:15.064Z</time></trkpt><trkpt lat="42.2630567" lon="12.7571233"><ele>392.33333333333337</ele><time>2026-04-25T08:13:16.064Z</time></trkpt><trkpt lat="42.263095" lon="12.7572333"><ele>391.6666666666667</ele><time>2026-04-25T08:13:17.064Z</time></trkpt><trkpt lat="42.2631317" lon="12.7573333"><ele>391.0</ele><time>2026-04-25T08:13:18.064Z</time></trkpt><trkpt lat="42.2631633" lon="12.75742"><ele>391.0</ele><time>2026-04-25T08:13:19.067Z</time></trkpt><trkpt lat="42.263225" lon="12.75756"><ele>391.0</ele><time>2026-04-25T08:13:21.065Z</time></trkpt><trkpt lat="42.2632417" lon="12.7577067"><ele>391.0</ele><time>2026-04-25T08:13:23.064Z</time></trkpt><trkpt lat="42.263225" lon="12.7577933"><ele>391.0</ele><time>2026-04-25T08:13:24.066Z</time></trkpt><trkpt lat="42.2632017" lon="12.75789"><ele>391.0</ele><time>2026-04-25T08:13:25.067Z</time></trkpt><trkpt lat="42.2631783" lon="12.7579933"><ele>389.1666666666667</ele><time>2026-04-25T08:13:26.065Z</time></trkpt><trkpt lat="42.263155" lon="12.758105"><ele>387.33333333333337</ele><time>2026-04-25T08:13:27.064Z</time></trkpt><trkpt lat="42.26313" lon="12.75822"><ele>385.5</ele><time>2026-04-25T08:13:28.065Z</time></trkpt><trkpt lat="42.263105" lon="12.758335"><ele>383.6666666666667</ele><time>2026-04-25T08:13:29.065Z</time></trkpt><trkpt lat="42.2630783" lon="12.7584433"><ele>381.83333333333337</ele><time>2026-04-25T08:13:30.065Z</time></trkpt><trkpt lat="42.263055" lon="12.7585517"><ele>380.0</ele><time>2026-04-25T08:13:31.063Z</time></trkpt><trkpt lat="42.2630367" lon="12.7586583"><ele>378.6666666666667</ele><time>2026-04-25T08:13:32.065Z</time></trkpt><trkpt lat="42.26302" lon="12.7587683"><ele>377.33333333333337</ele><time>2026-04-25T08:13:33.064Z</time></trkpt><trkpt lat="42.2630117" lon="12.7588733"><ele>376.0</ele><time>2026-04-25T08:13:34.064Z</time></trkpt><trkpt lat="42.2630033" lon="12.7589767"><ele>374.6666666666667</ele><time>2026-04-25T08:13:35.063Z</time></trkpt><trkpt lat="42.2629917" lon="12.7590867"><ele>373.3333333333333</ele><time>2026-04-25T08:13:36.066Z</time></trkpt><trkpt lat="42.2629833" lon="12.7591933"><ele>372.0</ele><time>2026-04-25T08:13:37.065Z</time></trkpt><trkpt lat="42.2629717" lon="12.7592983"><ele>370.0</ele><time>2026-04-25T08:13:38.063Z</time></trkpt><trkpt lat="42.2629533" lon="12.7594067"><ele>368.0</ele><time>2026-04-25T08:13:39.064Z</time></trkpt><trkpt lat="42.26293" lon="12.7595267"><ele>366.0</ele><time>2026-04-25T08:13:40.066Z</time></trkpt><trkpt lat="42.2629017" lon="12.7596567"><ele>364.0</ele><time>2026-04-25T08:13:41.064Z</time></trkpt><trkpt lat="42.2628733" lon="12.75979"><ele>362.0</ele><time>2026-04-25T08:13:42.063Z</time></trkpt><trkpt lat="42.2628483" lon="12.759925"><ele>362.0</ele><time>2026-04-25T08:13:43.065Z</time></trkpt><trkpt lat="42.2628283" lon="12.7600583"><ele>362.0</ele><time>2026-04-25T08:13:44.064Z</time></trkpt><trkpt lat="42.2628083" lon="12.760185"><ele>362.0</ele><time>2026-04-25T08:13:45.065Z</time></trkpt><trkpt lat="42.2627833" lon="12.7603083"><ele>362.0</ele><time>2026-04-25T08:13:46.065Z</time></trkpt><trkpt lat="42.26275" lon="12.7604383"><ele>362.0</ele><time>2026-04-25T08:13:47.065Z</time></trkpt><trkpt lat="42.26271" lon="12.7605733"><ele>360.20000000000005</ele><time>2026-04-25T08:13:48.063Z</time></trkpt><trkpt lat="42.262665" lon="12.7607067"><ele>358.4</ele><time>2026-04-25T08:13:49.065Z</time></trkpt><trkpt lat="42.26262" lon="12.760835"><ele>356.6</ele><time>2026-04-25T08:13:50.065Z</time></trkpt><trkpt lat="42.2625783" lon="12.76096"><ele>354.79999999999995</ele><time>2026-04-25T08:13:51.065Z</time></trkpt><trkpt lat="42.2625417" lon="12.7610867"><ele>353.0</ele><time>2026-04-25T08:13:52.066Z</time></trkpt><trkpt lat="42.2625133" lon="12.7612133"><ele>352.2</ele><time>2026-04-25T08:13:53.066Z</time></trkpt><trkpt lat="42.26249" lon="12.7613367"><ele>351.4</ele><time>2026-04-25T08:13:54.064Z</time></trkpt><trkpt lat="42.26247" lon="12.7614617"><ele>350.59999999999997</ele><time>2026-04-25T08:13:55.064Z</time></trkpt><trkpt lat="42.2624517" lon="12.7615883"><ele>349.79999999999995</ele><time>2026-04-25T08:13:56.065Z</time></trkpt><trkpt lat="42.2624383" lon="12.761715"><ele>349.0</ele><time>2026-04-25T08:13:57.064Z</time></trkpt><trkpt lat="42.2624333" lon="12.7618417"><ele>348.3333333333333</ele><time>2026-04-25T08:13:58.063Z</time></trkpt><trkpt lat="42.2624317" lon="12.76197"><ele>347.66666666666663</ele><time>2026-04-25T08:13:59.065Z</time></trkpt><trkpt lat="42.2624267" lon="12.7620933"><ele>347.0</ele><time>2026-04-25T08:14:00.066Z</time></trkpt><trkpt lat="42.2624183" lon="12.76221"><ele>346.3333333333333</ele><time>2026-04-25T08:14:01.066Z</time></trkpt><trkpt lat="42.26241" lon="12.762325"><ele>345.6666666666667</ele><time>2026-04-25T08:14:02.066Z</time></trkpt><trkpt lat="42.2624" lon="12.7624417"><ele>345.0</ele><time>2026-04-25T08:14:03.064Z</time></trkpt><trkpt lat="42.2623983" lon="12.7625583"><ele>345.0</ele><time>2026-04-25T08:14:04.066Z</time></trkpt><trkpt lat="42.2624" lon="12.76267"><ele>345.0</ele><time>2026-04-25T08:14:05.064Z</time></trkpt><trkpt lat="42.2623983" lon="12.7627767"><ele>345.0</ele><time>2026-04-25T08:14:06.065Z</time></trkpt><trkpt lat="42.2624" lon="12.7628783"><ele>345.0</ele><time>2026-04-25T08:14:07.065Z</time></trkpt><trkpt lat="42.2623933" lon="12.7629833"><ele>345.0</ele><time>2026-04-25T08:14:08.065Z</time></trkpt><trkpt lat="42.2623867" lon="12.7630883"><ele>345.0</ele><time>2026-04-25T08:14:09.066Z</time></trkpt><trkpt lat="42.26238" lon="12.7631967"><ele>343.4</ele><time>2026-04-25T08:14:10.064Z</time></trkpt><trkpt lat="42.262375" lon="12.7633033"><ele>341.8</ele><time>2026-04-25T08:14:11.064Z</time></trkpt><trkpt lat="42.2623817" lon="12.7633983"><ele>340.20000000000005</ele><time>2026-04-25T08:14:12.066Z</time></trkpt><trkpt lat="42.2624" lon="12.7635367"><ele>338.6</ele><time>2026-04-25T08:14:14.065Z</time></trkpt><trkpt lat="42.2623933" lon="12.76367"><ele>337.0</ele><time>2026-04-25T08:14:16.065Z</time></trkpt><trkpt lat="42.262375" lon="12.7638083"><ele>334.8333333333333</ele><time>2026-04-25T08:14:18.064Z</time></trkpt><trkpt lat="42.262365" lon="12.763905"><ele>332.66666666666663</ele><time>2026-04-25T08:14:20.066Z</time></trkpt><trkpt lat="42.2623667" lon="12.763995"><ele>330.5</ele><time>2026-04-25T08:14:22.065Z</time></trkpt><trkpt lat="42.26238" lon="12.7640983"><ele>328.3333333333333</ele><time>2026-04-25T08:14:24.065Z</time></trkpt><trkpt lat="42.262375" lon="12.7642083"><ele>326.1666666666667</ele><time>2026-04-25T08:14:26.067Z</time></trkpt><trkpt lat="42.2623683" lon="12.76432"><ele>324.0</ele><time>2026-04-25T08:14:28.065Z</time></trkpt><trkpt lat="42.26237" lon="12.764425"><ele>321.8333333333333</ele><time>2026-04-25T08:14:30.064Z</time></trkpt><trkpt lat="42.2623717" lon="12.764515"><ele>319.6666666666667</ele><time>2026-04-25T08:14:32.066Z</time></trkpt><trkpt lat="42.2623733" lon="12.764625"><ele>317.5</ele><time>2026-04-25T08:14:35.065Z</time></trkpt><trkpt lat="42.2623317" lon="12.7647533"><ele>315.33333333333337</ele><time>2026-04-25T08:14:38.064Z</time></trkpt><trkpt lat="42.262275" lon="12.7648417"><ele>313.1666666666667</ele><time>2026-04-25T08:14:41.064Z</time></trkpt><trkpt lat="42.26228" lon="12.7649533"><ele>311.0</ele><time>2026-04-25T08:14:45.065Z</time></trkpt><trkpt lat="42.2622717" lon="12.765055"><ele>310.33333333333337</ele><time>2026-04-25T08:14:47.064Z</time></trkpt><trkpt lat="42.2622483" lon="12.7651483"><ele>309.6666666666667</ele><time>2026-04-25T08:14:49.064Z</time></trkpt><trkpt lat="42.2622233" lon="12.7652333"><ele>309.0</ele><time>2026-04-25T08:14:51.064Z</time></trkpt><trkpt lat="42.26225" lon="12.765325"><ele>308.3333333333333</ele><time>2026-04-25T08:14:54.065Z</time></trkpt><trkpt lat="42.2623" lon="12.765405"><ele>307.66666666666663</ele><time>2026-04-25T08:14:57.064Z</time></trkpt><trkpt lat="42.2623633" lon="12.7654683"><ele>307.0</ele><time>2026-04-25T08:15:00.064Z</time></trkpt><trkpt lat="42.2624467" lon="12.7655067"><ele>305.8333333333333</ele><time>2026-04-25T08:15:03.064Z</time></trkpt><trkpt lat="42.26253" lon="12.7655533"><ele>304.66666666666663</ele><time>2026-04-25T08:15:06.064Z</time></trkpt><trkpt lat="42.262605" lon="12.7656383"><ele>303.5</ele><time>2026-04-25T08:15:09.066Z</time></trkpt><trkpt lat="42.2626683" lon="12.765675"><ele>302.3333333333333</ele><time>2026-04-25T08:15:11.065Z</time></trkpt><trkpt lat="42.262735" lon="12.76572"><ele>301.1666666666667</ele><time>2026-04-25T08:15:14.064Z</time></trkpt><trkpt lat="42.2627417" lon="12.7658733"><ele>300.0</ele><time>2026-04-25T08:15:24.066Z</time></trkpt><trkpt lat="42.2627767" lon="12.7659583"><ele>300.5</ele><time>2026-04-25T08:15:27.065Z</time></trkpt><trkpt lat="42.2628233" lon="12.76605"><ele>301.0</ele><time>2026-04-25T08:15:30.065Z</time></trkpt><trkpt lat="42.2628067" lon="12.7661483"><ele>301.5</ele><time>2026-04-25T08:15:34.064Z</time></trkpt><trkpt lat="42.2627583" lon="12.7662317"><ele>302.0</ele><time>2026-04-25T08:16:08.068Z</time></trkpt><trkpt lat="42.2627117" lon="12.766295"><ele>302.5</ele><time>2026-04-25T08:16:12.067Z</time></trkpt><trkpt lat="42.2627633" lon="12.7664067"><ele>303.0</ele><time>2026-04-25T08:16:15.065Z</time></trkpt><trkpt lat="42.2628217" lon="12.7665133"><ele>303.0</ele><time>2026-04-25T08:16:17.064Z</time></trkpt><trkpt lat="42.2628333" lon="12.7666333"><ele>303.0</ele><time>2026-04-25T08:16:19.065Z</time></trkpt><trkpt lat="42.262805" lon="12.7667433"><ele>303.0</ele><time>2026-04-25T08:16:21.066Z</time></trkpt><trkpt lat="42.2627433" lon="12.7668033"><ele>303.0</ele><time>2026-04-25T08:16:23.065Z</time></trkpt><trkpt lat="42.262675" lon="12.7668083"><ele>303.0</ele><time>2026-04-25T08:16:25.066Z</time></trkpt><trkpt lat="42.2625833" lon="12.7668183"><ele>303.0</ele><time>2026-04-25T08:16:27.066Z</time></trkpt><trkpt lat="42.2624817" lon="12.7668383"><ele>303.0</ele><time>2026-04-25T08:16:29.066Z</time></trkpt><trkpt lat="42.262405" lon="12.7668533"><ele>303.0</ele><time>2026-04-25T08:16:31.065Z</time></trkpt><trkpt lat="42.2623017" lon="12.7668817"><ele>303.0</ele><time>2026-04-25T08:16:34.065Z</time></trkpt><trkpt lat="42.2621867" lon="12.7669017"><ele>303.0</ele><time>2026-04-25T08:16:36.065Z</time></trkpt><trkpt lat="42.2621133" lon="12.7669"><ele>303.0</ele><time>2026-04-25T08:16:37.066Z</time></trkpt><trkpt lat="42.26204" lon="12.76689"><ele>303.0</ele><time>2026-04-25T08:16:38.065Z</time></trkpt><trkpt lat="42.2619667" lon="12.7668767"><ele>304.7142857142857</ele><time>2026-04-25T08:16:39.066Z</time></trkpt><trkpt lat="42.2618967" lon="12.76687"><ele>306.42857142857144</ele><time>2026-04-25T08:16:40.064Z</time></trkpt><trkpt lat="42.261825" lon="12.766875"><ele>308.1428571428571</ele><time>2026-04-25T08:16:41.065Z</time></trkpt><trkpt lat="42.261755" lon="12.7668833"><ele>309.8571428571429</ele><time>2026-04-25T08:16:42.064Z</time></trkpt><trkpt lat="42.2616833" lon="12.76689"><ele>311.57142857142856</ele><time>2026-04-25T08:16:43.063Z</time></trkpt><trkpt lat="42.2616133" lon="12.7669"><ele>313.2857142857143</ele><time>2026-04-25T08:16:44.066Z</time></trkpt><trkpt lat="42.2615417" lon="12.7669183"><ele>315.0</ele><time>2026-04-25T08:16:45.067Z</time></trkpt><trkpt lat="42.2614683" lon="12.7669467"><ele>313.3333333333333</ele><time>2026-04-25T08:16:46.066Z</time></trkpt><trkpt lat="42.2613967" lon="12.7669833"><ele>311.6666666666667</ele><time>2026-04-25T08:16:47.067Z</time></trkpt><trkpt lat="42.2613233" lon="12.7670117"><ele>310.0</ele><time>2026-04-25T08:16:48.066Z</time></trkpt><trkpt lat="42.2612467" lon="12.7670467"><ele>308.33333333333337</ele><time>2026-04-25T08:16:49.065Z</time></trkpt><trkpt lat="42.2611683" lon="12.7670817"><ele>306.6666666666667</ele><time>2026-04-25T08:16:50.065Z</time></trkpt><trkpt lat="42.26109" lon="12.7671233"><ele>305.0</ele><time>2026-04-25T08:16:51.066Z</time></trkpt><trkpt lat="42.2610167" lon="12.7671767"><ele>305.0</ele><time>2026-04-25T08:16:52.066Z</time></trkpt><trkpt lat="42.26094" lon="12.7672283"><ele>305.0</ele><time>2026-04-25T08:16:53.067Z</time></trkpt><trkpt lat="42.2608617" lon="12.7672717"><ele>305.0</ele><time>2026-04-25T08:16:54.066Z</time></trkpt><trkpt lat="42.2607783" lon="12.767305"><ele>305.0</ele><time>2026-04-25T08:16:55.066Z</time></trkpt><trkpt lat="42.2606967" lon="12.7673317"><ele>305.0</ele><time>2026-04-25T08:16:56.067Z</time></trkpt><trkpt lat="42.2606167" lon="12.7673617"><ele>305.0</ele><time>2026-04-25T08:16:57.066Z</time></trkpt><trkpt lat="42.26054" lon="12.767395"><ele>303.5</ele><time>2026-04-25T08:16:58.065Z</time></trkpt><trkpt lat="42.260465" lon="12.7674283"><ele>302.0</ele><time>2026-04-25T08:16:59.065Z</time></trkpt><trkpt lat="42.2603883" lon="12.7674483"><ele>300.5</ele><time>2026-04-25T08:17:00.066Z</time></trkpt><trkpt lat="42.2603117" lon="12.7674517"><ele>299.0</ele><time>2026-04-25T08:17:01.067Z</time></trkpt><trkpt lat="42.260235" lon="12.7674267"><ele>297.5</ele><time>2026-04-25T08:17:02.067Z</time></trkpt><trkpt lat="42.2601617" lon="12.7673817"><ele>296.0</ele><time>2026-04-25T08:17:03.068Z</time></trkpt><trkpt lat="42.2600917" lon="12.7673283"><ele>296.0</ele><time>2026-04-25T08:17:04.066Z</time></trkpt><trkpt lat="42.2600317" lon="12.7672733"><ele>296.0</ele><time>2026-04-25T08:17:05.067Z</time></trkpt><trkpt lat="42.2599483" lon="12.76718"><ele>296.0</ele><time>2026-04-25T08:17:07.066Z</time></trkpt><trkpt lat="42.259875" lon="12.7670867"><ele>296.0</ele><time>2026-04-25T08:18:34.065Z</time></trkpt><trkpt lat="42.2598217" lon="12.7670383"><ele>296.0</ele><time>2026-04-25T08:18:35.065Z</time></trkpt><trkpt lat="42.2597383" lon="12.7669833"><ele>296.0</ele><time>2026-04-25T08:18:36.066Z</time></trkpt><trkpt lat="42.2596383" lon="12.7669483"><ele>294.5</ele><time>2026-04-25T08:18:37.066Z</time></trkpt><trkpt lat="42.2595217" lon="12.7669467"><ele>293.0</ele><time>2026-04-25T08:18:38.066Z</time></trkpt><trkpt lat="42.2594017" lon="12.7669967"><ele>291.5</ele><time>2026-04-25T08:18:39.065Z</time></trkpt><trkpt lat="42.259285" lon="12.7670867"><ele>290.0</ele><time>2026-04-25T08:18:40.065Z</time></trkpt><trkpt lat="42.259185" lon="12.7672133"><ele>290.0</ele><time>2026-04-25T08:18:41.066Z</time></trkpt><trkpt lat="42.2591183" lon="12.7673683"><ele>290.0</ele><time>2026-04-25T08:18:42.066Z</time></trkpt><trkpt lat="42.2590783" lon="12.7675467"><ele>290.0</ele><time>2026-04-25T08:18:43.066Z</time></trkpt><trkpt lat="42.2590667" lon="12.7677433"><ele>290.0</ele><time>2026-04-25T08:18:44.065Z</time></trkpt><trkpt lat="42.2590783" lon="12.7679533"><ele>289.6666666666667</ele><time>2026-04-25T08:18:45.067Z</time></trkpt><trkpt lat="42.2591" lon="12.7681683"><ele>289.3333333333333</ele><time>2026-04-25T08:18:46.066Z</time></trkpt><trkpt lat="42.2591283" lon="12.7683833"><ele>289.0</ele><time>2026-04-25T08:18:47.065Z</time></trkpt><trkpt lat="42.2591567" lon="12.768585"><ele>288.2</ele><time>2026-04-25T08:18:48.067Z</time></trkpt><trkpt lat="42.2591833" lon="12.768765"><ele>287.4</ele><time>2026-04-25T08:18:49.066Z</time></trkpt><trkpt lat="42.2592017" lon="12.7689183"><ele>286.6</ele><time>2026-04-25T08:18:50.067Z</time></trkpt><trkpt lat="42.259215" lon="12.7690383"><ele>285.8</ele><time>2026-04-25T08:18:51.067Z</time></trkpt><trkpt lat="42.259225" lon="12.769125"><ele>285.0</ele><time>2026-04-25T08:18:52.066Z</time></trkpt><trkpt lat="42.259255" lon="12.76922"><ele>285.0</ele><time>2026-04-25T08:18:54.065Z</time></trkpt><trkpt lat="42.2593433" lon="12.7691617"><ele>285.0</ele><time>2026-04-25T08:18:57.065Z</time></trkpt><trkpt lat="42.2593617" lon="12.76907"><ele>285.0</ele><time>2026-04-25T08:18:58.062Z</time></trkpt><trkpt lat="42.2593783" lon="12.7689417"><ele>285.0</ele><time>2026-04-25T08:18:59.063Z</time></trkpt><trkpt lat="42.2594017" lon="12.7687967"><ele>285.0</ele><time>2026-04-25T08:19:00.066Z</time></trkpt><trkpt lat="42.2594367" lon="12.76866"><ele>285.0</ele><time>2026-04-25T08:19:01.064Z</time></trkpt><trkpt lat="42.2594967" lon="12.7685383"><ele>285.0</ele><time>2026-04-25T08:19:02.065Z</time></trkpt><trkpt lat="42.2595717" lon="12.7684267"><ele>285.0</ele><time>2026-04-25T08:19:03.063Z</time></trkpt><trkpt lat="42.2596533" lon="12.7683267"><ele>285.0</ele><time>2026-04-25T08:19:04.064Z</time></trkpt><trkpt lat="42.2597317" lon="12.7682367"><ele>285.0</ele><time>2026-04-25T08:19:05.065Z</time></trkpt><trkpt lat="42.2598033" lon="12.7681483"><ele>288.3333333333333</ele><time>2026-04-25T08:19:06.065Z</time></trkpt><trkpt lat="42.2598717" lon="12.768065"><ele>291.6666666666667</ele><time>2026-04-25T08:19:07.065Z</time></trkpt><trkpt lat="42.2599417" lon="12.7679933"><ele>295.0</ele><time>2026-04-25T08:19:08.067Z</time></trkpt><trkpt lat="42.2600167" lon="12.767945"><ele>298.33333333333337</ele><time>2026-04-25T08:19:09.065Z</time></trkpt><trkpt lat="42.2600967" lon="12.7679317"><ele>301.6666666666667</ele><time>2026-04-25T08:19:10.065Z</time></trkpt><trkpt lat="42.2601733" lon="12.7679583"><ele>305.0</ele><time>2026-04-25T08:19:11.066Z</time></trkpt><trkpt lat="42.2602583" lon="12.76802"><ele>305.0</ele><time>2026-04-25T08:19:12.065Z</time></trkpt><trkpt lat="42.2603383" lon="12.768075"><ele>305.0</ele><time>2026-04-25T08:19:13.065Z</time></trkpt><trkpt lat="42.2604183" lon="12.7681067"><ele>305.0</ele><time>2026-04-25T08:19:14.065Z</time></trkpt><trkpt lat="42.2605117" lon="12.7681"><ele>305.0</ele><time>2026-04-25T08:19:15.064Z</time></trkpt><trkpt lat="42.2606033" lon="12.7680767"><ele>305.0</ele><time>2026-04-25T08:19:16.064Z</time></trkpt><trkpt lat="42.2606917" lon="12.76805"><ele>308.0</ele><time>2026-04-25T08:19:17.064Z</time></trkpt><trkpt lat="42.2607783" lon="12.7680233"><ele>311.0</ele><time>2026-04-25T08:19:18.066Z</time></trkpt><trkpt lat="42.2608633" lon="12.7679983"><ele>314.0</ele><time>2026-04-25T08:19:19.064Z</time></trkpt><trkpt lat="42.2609467" lon="12.76798"><ele>317.0</ele><time>2026-04-25T08:19:20.066Z</time></trkpt><trkpt lat="42.2610333" lon="12.7679633"><ele>320.0</ele><time>2026-04-25T08:19:21.066Z</time></trkpt><trkpt lat="42.26112" lon="12.7679567"><ele>323.0</ele><time>2026-04-25T08:19:22.064Z</time></trkpt><trkpt lat="42.2612083" lon="12.7679817"><ele>323.0</ele><time>2026-04-25T08:19:23.064Z</time></trkpt><trkpt lat="42.2612983" lon="12.76803"><ele>323.0</ele><time>2026-04-25T08:19:24.066Z</time></trkpt><trkpt lat="42.2613883" lon="12.7681033"><ele>323.0</ele><time>2026-04-25T08:19:25.066Z</time></trkpt><trkpt lat="42.2614783" lon="12.7681883"><ele>323.0</ele><time>2026-04-25T08:19:26.066Z</time></trkpt><trkpt lat="42.261565" lon="12.768275"><ele>323.0</ele><time>2026-04-25T08:19:27.066Z</time></trkpt><trkpt lat="42.2616533" lon="12.7683617"><ele>325.4</ele><time>2026-04-25T08:19:28.065Z</time></trkpt><trkpt lat="42.2617433" lon="12.7684467"><ele>327.79999999999995</ele><time>2026-04-25T08:19:29.064Z</time></trkpt><trkpt lat="42.2618333" lon="12.7685233"><ele>330.2</ele><time>2026-04-25T08:19:30.064Z</time></trkpt><trkpt lat="42.2619233" lon="12.7685967"><ele>332.6</ele><time>2026-04-25T08:19:31.065Z</time></trkpt><trkpt lat="42.2620217" lon="12.7686633"><ele>335.0</ele><time>2026-04-25T08:19:32.067Z</time></trkpt><trkpt lat="42.26212" lon="12.7687283"><ele>335.2</ele><time>2026-04-25T08:19:33.065Z</time></trkpt><trkpt lat="42.262225" lon="12.768785"><ele>335.4</ele><time>2026-04-25T08:19:34.065Z</time></trkpt><trkpt lat="42.26233" lon="12.7688367"><ele>335.6</ele><time>2026-04-25T08:19:35.066Z</time></trkpt><trkpt lat="42.2624333" lon="12.7688867"><ele>335.8</ele><time>2026-04-25T08:19:36.066Z</time></trkpt><trkpt lat="42.2625367" lon="12.7689433"><ele>336.0</ele><time>2026-04-25T08:19:37.064Z</time></trkpt><trkpt lat="42.2626383" lon="12.7690033"><ele>340.0</ele><time>2026-04-25T08:19:38.065Z</time></trkpt><trkpt lat="42.262735" lon="12.7690733"><ele>344.0</ele><time>2026-04-25T08:19:39.065Z</time></trkpt><trkpt lat="42.2628317" lon="12.7691533"><ele>348.0</ele><time>2026-04-25T08:19:40.068Z</time></trkpt><trkpt lat="42.2629333" lon="12.7692367"><ele>352.0</ele><time>2026-04-25T08:19:41.068Z</time></trkpt><trkpt lat="42.2630367" lon="12.7693217"><ele>353.0</ele><time>2026-04-25T08:19:42.066Z</time></trkpt><trkpt lat="42.2631367" lon="12.7694033"><ele>354.0</ele><time>2026-04-25T08:19:43.066Z</time></trkpt><trkpt lat="42.263235" lon="12.7694733"><ele>355.0</ele><time>2026-04-25T08:19:44.066Z</time></trkpt><trkpt lat="42.26333" lon="12.7695383"><ele>356.0</ele><time>2026-04-25T08:19:45.068Z</time></trkpt><trkpt lat="42.263425" lon="12.7696033"><ele>357.0</ele><time>2026-04-25T08:19:46.067Z</time></trkpt><trkpt lat="42.2635217" lon="12.7696683"><ele>357.0</ele><time>2026-04-25T08:19:47.066Z</time></trkpt><trkpt lat="42.2636217" lon="12.7697367"><ele>357.0</ele><time>2026-04-25T08:19:48.068Z</time></trkpt><trkpt lat="42.263725" lon="12.769805"><ele>357.0</ele><time>2026-04-25T08:19:49.065Z</time></trkpt><trkpt lat="42.2638267" lon="12.7698767"><ele>357.0</ele><time>2026-04-25T08:19:50.067Z</time></trkpt><trkpt lat="42.263925" lon="12.769955"><ele>358.20000000000005</ele><time>2026-04-25T08:19:51.067Z</time></trkpt><trkpt lat="42.2640167" lon="12.77004"><ele>359.4</ele><time>2026-04-25T08:19:52.066Z</time></trkpt><trkpt lat="42.2641067" lon="12.770125"><ele>360.6</ele><time>2026-04-25T08:19:53.065Z</time></trkpt><trkpt lat="42.2641933" lon="12.7702117"><ele>361.79999999999995</ele><time>2026-04-25T08:19:54.067Z</time></trkpt><trkpt lat="42.264275" lon="12.7702967"><ele>363.0</ele><time>2026-04-25T08:19:55.065Z</time></trkpt><trkpt lat="42.2643533" lon="12.77038"><ele>363.59999999999997</ele><time>2026-04-25T08:19:56.066Z</time></trkpt><trkpt lat="42.2644317" lon="12.7704683"><ele>364.2</ele><time>2026-04-25T08:19:57.068Z</time></trkpt><trkpt lat="42.2645083" lon="12.7705633"><ele>364.8</ele><time>2026-04-25T08:19:58.066Z</time></trkpt><trkpt lat="42.2645733" lon="12.77067"><ele>365.4</ele><time>2026-04-25T08:19:59.065Z</time></trkpt><trkpt lat="42.26462" lon="12.770785"><ele>366.0</ele><time>2026-04-25T08:20:00.066Z</time></trkpt><trkpt lat="42.2646433" lon="12.77091"><ele>367.6</ele><time>2026-04-25T08:20:01.063Z</time></trkpt><trkpt lat="42.26464" lon="12.7710483"><ele>369.20000000000005</ele><time>2026-04-25T08:20:02.064Z</time></trkpt><trkpt lat="42.2646183" lon="12.7711933"><ele>370.79999999999995</ele><time>2026-04-25T08:20:03.064Z</time></trkpt><trkpt lat="42.2645833" lon="12.7713383"><ele>372.4</ele><time>2026-04-25T08:20:04.063Z</time></trkpt><trkpt lat="42.264545" lon="12.7714867"><ele>374.0</ele><time>2026-04-25T08:20:05.065Z</time></trkpt><trkpt lat="42.2645" lon="12.771635"><ele>374.0</ele><time>2026-04-25T08:20:06.065Z</time></trkpt><trkpt lat="42.264455" lon="12.7717767"><ele>374.0</ele><time>2026-04-25T08:20:07.064Z</time></trkpt><trkpt lat="42.264415" lon="12.7719167"><ele>374.0</ele><time>2026-04-25T08:20:08.065Z</time></trkpt><trkpt lat="42.2643767" lon="12.7720633"><ele>374.0</ele><time>2026-04-25T08:20:09.064Z</time></trkpt><trkpt lat="42.264345" lon="12.7722083"><ele>376.79999999999995</ele><time>2026-04-25T08:20:10.067Z</time></trkpt><trkpt lat="42.26432" lon="12.7723517"><ele>379.59999999999997</ele><time>2026-04-25T08:20:11.066Z</time></trkpt><trkpt lat="42.2642983" lon="12.7724967"><ele>382.4</ele><time>2026-04-25T08:20:12.067Z</time></trkpt><trkpt lat="42.2642833" lon="12.7726433"><ele>385.2</ele><time>2026-04-25T08:20:13.065Z</time></trkpt><trkpt lat="42.2642733" lon="12.7727817"><ele>388.0</ele><time>2026-04-25T08:20:14.066Z</time></trkpt><trkpt lat="42.26428" lon="12.7729"><ele>388.6666666666667</ele><time>2026-04-25T08:20:15.066Z</time></trkpt><trkpt lat="42.2643083" lon="12.7729967"><ele>389.33333333333337</ele><time>2026-04-25T08:20:16.064Z</time></trkpt><trkpt lat="42.26436" lon="12.7730667"><ele>390.0</ele><time>2026-04-25T08:20:17.063Z</time></trkpt><trkpt lat="42.2644317" lon="12.7731"><ele>390.66666666666663</ele><time>2026-04-25T08:20:18.065Z</time></trkpt><trkpt lat="42.264515" lon="12.7730517"><ele>391.3333333333333</ele><time>2026-04-25T08:20:19.066Z</time></trkpt><trkpt lat="42.264595" lon="12.7729783"><ele>392.0</ele><time>2026-04-25T08:20:20.066Z</time></trkpt><trkpt lat="42.2646733" lon="12.772895"><ele>392.0</ele><time>2026-04-25T08:20:21.066Z</time></trkpt><trkpt lat="42.2647483" lon="12.7728067"><ele>392.0</ele><time>2026-04-25T08:20:22.065Z</time></trkpt><trkpt lat="42.2648233" lon="12.772725"><ele>392.0</ele><time>2026-04-25T08:20:23.067Z</time></trkpt><trkpt lat="42.2649017" lon="12.7726483"><ele>392.0</ele><time>2026-04-25T08:20:24.066Z</time></trkpt><trkpt lat="42.2649883" lon="12.7725883"><ele>392.0</ele><time>2026-04-25T08:20:25.064Z</time></trkpt><trkpt lat="42.2650867" lon="12.77255"><ele>397.25</ele><time>2026-04-25T08:20:26.067Z</time></trkpt><trkpt lat="42.2651967" lon="12.772535"><ele>402.5</ele><time>2026-04-25T08:20:27.066Z</time></trkpt><trkpt lat="42.2653067" lon="12.7725367"><ele>407.75</ele><time>2026-04-25T08:20:28.065Z</time></trkpt><trkpt lat="42.2654233" lon="12.77255"><ele>413.0</ele><time>2026-04-25T08:20:29.065Z</time></trkpt><trkpt lat="42.2655467" lon="12.7725633"><ele>417.0</ele><time>2026-04-25T08:20:30.063Z</time></trkpt><trkpt lat="42.2656733" lon="12.77258"><ele>421.0</ele><time>2026-04-25T08:20:31.065Z</time></trkpt><trkpt lat="42.2657983" lon="12.7726017"><ele>425.0</ele><time>2026-04-25T08:20:32.066Z</time></trkpt><trkpt lat="42.2659233" lon="12.7726283"><ele>429.0</ele><time>2026-04-25T08:20:33.064Z</time></trkpt><trkpt lat="42.2660467" lon="12.7726617"><ele>426.25</ele><time>2026-04-25T08:20:34.064Z</time></trkpt><trkpt lat="42.2661683" lon="12.7726983"><ele>423.5</ele><time>2026-04-25T08:20:35.063Z</time></trkpt><trkpt lat="42.2662867" lon="12.772735"><ele>420.75</ele><time>2026-04-25T08:20:36.064Z</time></trkpt><trkpt lat="42.2664033" lon="12.772775"><ele>418.0</ele><time>2026-04-25T08:20:37.065Z</time></trkpt><trkpt lat="42.2665167" lon="12.7728167"><ele>418.0</ele><time>2026-04-25T08:20:38.063Z</time></trkpt><trkpt lat="42.2666267" lon="12.7728517"><ele>418.0</ele><time>2026-04-25T08:20:39.065Z</time></trkpt><trkpt lat="42.2667317" lon="12.7728783"><ele>418.0</ele><time>2026-04-25T08:20:40.065Z</time></trkpt><trkpt lat="42.2668317" lon="12.7729067"><ele>418.0</ele><time>2026-04-25T08:20:41.067Z</time></trkpt><trkpt lat="42.2669367" lon="12.772935"><ele>418.0</ele><time>2026-04-25T08:20:42.065Z</time></trkpt><trkpt lat="42.26704" lon="12.77297"><ele>418.0</ele><time>2026-04-25T08:20:43.064Z</time></trkpt><trkpt lat="42.2671367" lon="12.7730167"><ele>418.0</ele><time>2026-04-25T08:20:44.065Z</time></trkpt><trkpt lat="42.2672233" lon="12.7730783"><ele>418.0</ele><time>2026-04-25T08:20:45.064Z</time></trkpt><trkpt lat="42.2673" lon="12.7731483"><ele>418.0</ele><time>2026-04-25T08:20:46.065Z</time></trkpt><trkpt lat="42.26738" lon="12.773215"><ele>418.0</ele><time>2026-04-25T08:20:47.065Z</time></trkpt><trkpt lat="42.2674583" lon="12.773275"><ele>419.50000000000006</ele><time>2026-04-25T08:20:48.063Z</time></trkpt><trkpt lat="42.2675433" lon="12.7733283"><ele>421.0</ele><time>2026-04-25T08:20:49.068Z</time></trkpt><trkpt lat="42.2676333" lon="12.7733667"><ele>422.5</ele><time>2026-04-25T08:20:50.064Z</time></trkpt><trkpt lat="42.2677183" lon="12.7733883"><ele>424.0</ele><time>2026-04-25T08:20:51.064Z</time></trkpt><trkpt lat="42.2677983" lon="12.773385"><ele>425.50000000000006</ele><time>2026-04-25T08:20:52.066Z</time></trkpt><trkpt lat="42.2678817" lon="12.77336"><ele>427.0</ele><time>2026-04-25T08:20:53.067Z</time></trkpt><trkpt lat="42.2679617" lon="12.7733167"><ele>427.00000000000006</ele><time>2026-04-25T08:20:54.066Z</time></trkpt><trkpt lat="42.268035" lon="12.77327"><ele>427.0</ele><time>2026-04-25T08:20:55.069Z</time></trkpt><trkpt lat="42.2681133" lon="12.7732333"><ele>427.0</ele><time>2026-04-25T08:20:56.066Z</time></trkpt><trkpt lat="42.26819" lon="12.773225"><ele>427.0</ele><time>2026-04-25T08:20:57.065Z</time></trkpt><trkpt lat="42.2682667" lon="12.77324"><ele>427.00000000000006</ele><time>2026-04-25T08:20:58.064Z</time></trkpt><trkpt lat="42.268335" lon="12.7732767"><ele>427.0</ele><time>2026-04-25T08:20:59.066Z</time></trkpt><trkpt lat="42.2683983" lon="12.7733367"><ele>429.00000000000006</ele><time>2026-04-25T08:21:00.068Z</time></trkpt><trkpt lat="42.2684533" lon="12.7734167"><ele>431.0</ele><time>2026-04-25T08:21:01.066Z</time></trkpt><trkpt lat="42.2685033" lon="12.7735083"><ele>433.0</ele><time>2026-04-25T08:21:02.064Z</time></trkpt><trkpt lat="42.2685467" lon="12.773605"><ele>435.0</ele><time>2026-04-25T08:21:03.064Z</time></trkpt><trkpt lat="42.2685833" lon="12.7737133"><ele>437.00000000000006</ele><time>2026-04-25T08:21:04.062Z</time></trkpt><trkpt lat="42.2686167" lon="12.7738233"><ele>439.0</ele><time>2026-04-25T08:21:05.064Z</time></trkpt><trkpt lat="42.268645" lon="12.7739367"><ele>439.0</ele><time>2026-04-25T08:21:06.065Z</time></trkpt><trkpt lat="42.2686683" lon="12.774055"><ele>439.0</ele><time>2026-04-25T08:21:07.063Z</time></trkpt><trkpt lat="42.2686967" lon="12.7741767"><ele>439.0</ele><time>2026-04-25T08:21:08.065Z</time></trkpt><trkpt lat="42.268725" lon="12.7742983"><ele>439.0</ele><time>2026-04-25T08:21:09.064Z</time></trkpt><trkpt lat="42.268765" lon="12.7744117"><ele>439.0</ele><time>2026-04-25T08:21:10.066Z</time></trkpt><trkpt lat="42.2688183" lon="12.774515"><ele>438.2</ele><time>2026-04-25T08:21:11.063Z</time></trkpt><trkpt lat="42.26888" lon="12.7746133"><ele>437.4</ele><time>2026-04-25T08:21:12.065Z</time></trkpt><trkpt lat="42.2689417" lon="12.7747117"><ele>436.6</ele><time>2026-04-25T08:21:13.065Z</time></trkpt><trkpt lat="42.269" lon="12.7748133"><ele>435.8</ele><time>2026-04-25T08:21:14.065Z</time></trkpt><trkpt lat="42.26905" lon="12.77492"><ele>435.0</ele><time>2026-04-25T08:21:15.065Z</time></trkpt><trkpt lat="42.2690917" lon="12.7750233"><ele>436.5</ele><time>2026-04-25T08:21:16.063Z</time></trkpt><trkpt lat="42.269125" lon="12.7751183"><ele>438.0</ele><time>2026-04-25T08:21:17.064Z</time></trkpt><trkpt lat="42.2691467" lon="12.775215"><ele>439.5</ele><time>2026-04-25T08:21:18.064Z</time></trkpt><trkpt lat="42.2691617" lon="12.775315"><ele>441.0</ele><time>2026-04-25T08:21:19.066Z</time></trkpt><trkpt lat="42.2691733" lon="12.7754217"><ele>442.5</ele><time>2026-04-25T08:21:20.064Z</time></trkpt><trkpt lat="42.2691767" lon="12.7755317"><ele>444.0</ele><time>2026-04-25T08:21:21.066Z</time></trkpt><trkpt lat="42.2691783" lon="12.7756367"><ele>444.6666666666667</ele><time>2026-04-25T08:21:22.064Z</time></trkpt><trkpt lat="42.269175" lon="12.7757417"><ele>445.33333333333337</ele><time>2026-04-25T08:21:23.065Z</time></trkpt><trkpt lat="42.2691717" lon="12.775845"><ele>446.0</ele><time>2026-04-25T08:21:24.064Z</time></trkpt><trkpt lat="42.2691683" lon="12.7759483"><ele>446.6666666666667</ele><time>2026-04-25T08:21:25.063Z</time></trkpt><trkpt lat="42.2691717" lon="12.7760583"><ele>447.33333333333337</ele><time>2026-04-25T08:21:26.064Z</time></trkpt><trkpt lat="42.2691833" lon="12.776175"><ele>448.0</ele><time>2026-04-25T08:21:27.065Z</time></trkpt><trkpt lat="42.2692017" lon="12.7762883"><ele>448.79999999999995</ele><time>2026-04-25T08:21:28.065Z</time></trkpt><trkpt lat="42.2692233" lon="12.7764033"><ele>449.59999999999997</ele><time>2026-04-25T08:21:29.063Z</time></trkpt><trkpt lat="42.2692467" lon="12.7765267"><ele>450.40000000000003</ele><time>2026-04-25T08:21:30.065Z</time></trkpt><trkpt lat="42.2692667" lon="12.7766617"><ele>451.20000000000005</ele><time>2026-04-25T08:21:31.066Z</time></trkpt><trkpt lat="42.2692833" lon="12.7768033"><ele>452.0</ele><time>2026-04-25T08:21:32.066Z</time></trkpt><trkpt lat="42.269295" lon="12.776935"><ele>452.8</ele><time>2026-04-25T08:21:33.063Z</time></trkpt><trkpt lat="42.2693033" lon="12.77706"><ele>453.6</ele><time>2026-04-25T08:21:34.064Z</time></trkpt><trkpt lat="42.2693117" lon="12.777185"><ele>454.40000000000003</ele><time>2026-04-25T08:21:35.065Z</time></trkpt><trkpt lat="42.2693183" lon="12.7773233"><ele>455.20000000000005</ele><time>2026-04-25T08:21:36.064Z</time></trkpt><trkpt lat="42.2693333" lon="12.7774883"><ele>456.0</ele><time>2026-04-25T08:21:37.064Z</time></trkpt><trkpt lat="42.2693533" lon="12.77767"><ele>457.0</ele><time>2026-04-25T08:21:38.065Z</time></trkpt><trkpt lat="42.269375" lon="12.7778583"><ele>458.0</ele><time>2026-04-25T08:21:39.063Z</time></trkpt><trkpt lat="42.2694" lon="12.778055"><ele>459.0</ele><time>2026-04-25T08:21:40.064Z</time></trkpt><trkpt lat="42.269425" lon="12.778245"><ele>460.0</ele><time>2026-04-25T08:21:41.066Z</time></trkpt><trkpt lat="42.2694517" lon="12.7784217"><ele>461.5</ele><time>2026-04-25T08:21:42.066Z</time></trkpt><trkpt lat="42.269475" lon="12.7785833"><ele>463.0</ele><time>2026-04-25T08:21:43.065Z</time></trkpt><trkpt lat="42.2695" lon="12.7787333"><ele>464.5</ele><time>2026-04-25T08:21:44.065Z</time></trkpt><trkpt lat="42.269515" lon="12.7788833"><ele>466.0</ele><time>2026-04-25T08:21:45.063Z</time></trkpt><trkpt lat="42.2695083" lon="12.779035"><ele>466.0</ele><time>2026-04-25T08:21:46.065Z</time></trkpt><trkpt lat="42.2694783" lon="12.7791833"><ele>466.0</ele><time>2026-04-25T08:21:47.064Z</time></trkpt><trkpt lat="42.269445" lon="12.7793283"><ele>466.0</ele><time>2026-04-25T08:21:48.066Z</time></trkpt><trkpt lat="42.2694233" lon="12.7794683"><ele>466.0</ele><time>2026-04-25T08:21:49.065Z</time></trkpt><trkpt lat="42.2694267" lon="12.7796083"><ele>466.0</ele><time>2026-04-25T08:21:50.068Z</time></trkpt><trkpt lat="42.26945" lon="12.7797567"><ele>467.20000000000005</ele><time>2026-04-25T08:21:51.064Z</time></trkpt><trkpt lat="42.2694883" lon="12.7799"><ele>468.40000000000003</ele><time>2026-04-25T08:21:52.067Z</time></trkpt><trkpt lat="42.2695317" lon="12.7800267"><ele>469.6</ele><time>2026-04-25T08:21:53.063Z</time></trkpt><trkpt lat="42.2695733" lon="12.7801417"><ele>470.8</ele><time>2026-04-25T08:21:54.065Z</time></trkpt><trkpt lat="42.269615" lon="12.78024"><ele>472.0</ele><time>2026-04-25T08:21:55.064Z</time></trkpt><trkpt lat="42.2696717" lon="12.7803217"><ele>473.0</ele><time>2026-04-25T08:21:56.063Z</time></trkpt><trkpt lat="42.2697467" lon="12.7803967"><ele>474.00000000000006</ele><time>2026-04-25T08:21:57.064Z</time></trkpt><trkpt lat="42.2698333" lon="12.780465"><ele>475.00000000000006</ele><time>2026-04-25T08:21:58.065Z</time></trkpt><trkpt lat="42.269925" lon="12.7805283"><ele>476.0</ele><time>2026-04-25T08:21:59.067Z</time></trkpt><trkpt lat="42.2700233" lon="12.780595"><ele>477.0</ele><time>2026-04-25T08:22:00.068Z</time></trkpt><trkpt lat="42.2701217" lon="12.780665"><ele>477.0</ele><time>2026-04-25T08:22:01.067Z</time></trkpt><trkpt lat="42.2702183" lon="12.7807383"><ele>477.00000000000006</ele><time>2026-04-25T08:22:02.066Z</time></trkpt><trkpt lat="42.27031" lon="12.780815"><ele>477.00000000000006</ele><time>2026-04-25T08:22:03.067Z</time></trkpt><trkpt lat="42.2703967" lon="12.780895"><ele>477.0</ele><time>2026-04-25T08:22:04.067Z</time></trkpt><trkpt lat="42.2704767" lon="12.7809717"><ele>477.0</ele><time>2026-04-25T08:22:05.065Z</time></trkpt><trkpt lat="42.2705517" lon="12.781045"><ele>477.40000000000003</ele><time>2026-04-25T08:22:06.064Z</time></trkpt><trkpt lat="42.270625" lon="12.7811133"><ele>477.80000000000007</ele><time>2026-04-25T08:22:07.065Z</time></trkpt><trkpt lat="42.2706983" lon="12.7811817"><ele>478.2</ele><time>2026-04-25T08:22:08.064Z</time></trkpt><trkpt lat="42.270775" lon="12.7812533"><ele>478.6</ele><time>2026-04-25T08:22:09.064Z</time></trkpt><trkpt lat="42.2708533" lon="12.7813233"><ele>479.0</ele><time>2026-04-25T08:22:10.068Z</time></trkpt><trkpt lat="42.2709333" lon="12.7813967"><ele>479.0</ele><time>2026-04-25T08:22:11.067Z</time></trkpt><trkpt lat="42.2710117" lon="12.78148"><ele>479.0</ele><time>2026-04-25T08:22:12.067Z</time></trkpt><trkpt lat="42.271085" lon="12.7815733"><ele>479.0</ele><time>2026-04-25T08:22:13.064Z</time></trkpt><trkpt lat="42.2711467" lon="12.7816833"><ele>479.0</ele><time>2026-04-25T08:22:14.065Z</time></trkpt><trkpt lat="42.2712017" lon="12.781805"><ele>479.0</ele><time>2026-04-25T08:22:15.065Z</time></trkpt><trkpt lat="42.2712517" lon="12.7819317"><ele>479.5</ele><time>2026-04-25T08:22:16.065Z</time></trkpt><trkpt lat="42.2713033" lon="12.7820667"><ele>480.0</ele><time>2026-04-25T08:22:17.067Z</time></trkpt><trkpt lat="42.271355" lon="12.78221"><ele>480.5</ele><time>2026-04-25T08:22:18.067Z</time></trkpt><trkpt lat="42.2714017" lon="12.78236"><ele>481.0</ele><time>2026-04-25T08:22:19.065Z</time></trkpt><trkpt lat="42.271445" lon="12.7825167"><ele>481.0</ele><time>2026-04-25T08:22:20.066Z</time></trkpt><trkpt lat="42.2714883" lon="12.7826733"><ele>481.0</ele><time>2026-04-25T08:22:21.065Z</time></trkpt><trkpt lat="42.2715317" lon="12.78283"><ele>481.0</ele><time>2026-04-25T08:22:22.065Z</time></trkpt><trkpt lat="42.2715767" lon="12.7829867"><ele>481.0</ele><time>2026-04-25T08:22:23.065Z</time></trkpt><trkpt lat="42.2716183" lon="12.7831417"><ele>483.25</ele><time>2026-04-25T08:22:24.066Z</time></trkpt><trkpt lat="42.2716617" lon="12.78329"><ele>485.5</ele><time>2026-04-25T08:22:25.066Z</time></trkpt><trkpt lat="42.2717033" lon="12.783435"><ele>487.75</ele><time>2026-04-25T08:22:26.066Z</time></trkpt><trkpt lat="42.271745" lon="12.783585"><ele>490.0</ele><time>2026-04-25T08:22:27.064Z</time></trkpt><trkpt lat="42.2717817" lon="12.7837383"><ele>492.5</ele><time>2026-04-25T08:22:28.066Z</time></trkpt><trkpt lat="42.27182" lon="12.7838867"><ele>495.0</ele><time>2026-04-25T08:22:29.065Z</time></trkpt><trkpt lat="42.2718483" lon="12.7840367"><ele>497.5</ele><time>2026-04-25T08:22:30.065Z</time></trkpt><trkpt lat="42.271875" lon="12.7841867"><ele>500.0</ele><time>2026-04-25T08:22:31.065Z</time></trkpt><trkpt lat="42.2719017" lon="12.78434"><ele>502.2</ele><time>2026-04-25T08:22:32.064Z</time></trkpt><trkpt lat="42.2719267" lon="12.7844983"><ele>504.4</ele><time>2026-04-25T08:22:33.066Z</time></trkpt><trkpt lat="42.271945" lon="12.7846517"><ele>506.6</ele><time>2026-04-25T08:22:34.064Z</time></trkpt><trkpt lat="42.2719617" lon="12.784795"><ele>508.8</ele><time>2026-04-25T08:22:35.065Z</time></trkpt><trkpt lat="42.2719783" lon="12.7849333"><ele>511.0</ele><time>2026-04-25T08:22:36.068Z</time></trkpt><trkpt lat="42.2719917" lon="12.7850717"><ele>511.8</ele><time>2026-04-25T08:22:37.066Z</time></trkpt><trkpt lat="42.2720033" lon="12.7852133"><ele>512.6</ele><time>2026-04-25T08:22:38.065Z</time></trkpt><trkpt lat="42.2720183" lon="12.7853517"><ele>513.4</ele><time>2026-04-25T08:22:39.066Z</time></trkpt><trkpt lat="42.272035" lon="12.785485"><ele>514.2</ele><time>2026-04-25T08:22:40.065Z</time></trkpt><trkpt lat="42.2720483" lon="12.7856"><ele>515.0</ele><time>2026-04-25T08:22:41.067Z</time></trkpt><trkpt lat="42.2720583" lon="12.785685"><ele>515.0</ele><time>2026-04-25T08:22:42.065Z</time></trkpt><trkpt lat="42.2720917" lon="12.7857917"><ele>515.0</ele><time>2026-04-25T08:22:44.067Z</time></trkpt><trkpt lat="42.272185" lon="12.785855"><ele>515.0</ele><time>2026-04-25T08:22:46.067Z</time></trkpt><trkpt lat="42.2722517" lon="12.7858783"><ele>515.0</ele><time>2026-04-25T08:22:47.065Z</time></trkpt><trkpt lat="42.2723283" lon="12.7859017"><ele>515.0</ele><time>2026-04-25T08:22:48.064Z</time></trkpt><trkpt lat="42.2724133" lon="12.7859283"><ele>515.0</ele><time>2026-04-25T08:22:49.066Z</time></trkpt><trkpt lat="42.2725017" lon="12.7859567"><ele>514.6</ele><time>2026-04-25T08:22:50.066Z</time></trkpt><trkpt lat="42.272595" lon="12.7859933"><ele>514.2</ele><time>2026-04-25T08:22:51.064Z</time></trkpt><trkpt lat="42.2726967" lon="12.78603"><ele>513.8</ele><time>2026-04-25T08:22:52.064Z</time></trkpt><trkpt lat="42.2728" lon="12.786065"><ele>513.4</ele><time>2026-04-25T08:22:53.067Z</time></trkpt><trkpt lat="42.2729017" lon="12.7860983"><ele>513.0</ele><time>2026-04-25T08:22:54.064Z</time></trkpt><trkpt lat="42.2730083" lon="12.786125"><ele>514.25</ele><time>2026-04-25T08:22:55.064Z</time></trkpt><trkpt lat="42.27312" lon="12.786155"><ele>515.5</ele><time>2026-04-25T08:22:56.066Z</time></trkpt><trkpt lat="42.273235" lon="12.78619"><ele>516.75</ele><time>2026-04-25T08:22:57.066Z</time></trkpt><trkpt lat="42.27335" lon="12.78623"><ele>518.0</ele><time>2026-04-25T08:22:58.065Z</time></trkpt><trkpt lat="42.2734717" lon="12.78628"><ele>518.0</ele><time>2026-04-25T08:22:59.065Z</time></trkpt><trkpt lat="42.2735933" lon="12.7863417"><ele>518.0</ele><time>2026-04-25T08:23:00.066Z</time></trkpt><trkpt lat="42.2737133" lon="12.7864083"><ele>518.0</ele><time>2026-04-25T08:23:01.067Z</time></trkpt><trkpt lat="42.2738367" lon="12.7864667"><ele>518.0</ele><time>2026-04-25T08:23:02.065Z</time></trkpt><trkpt lat="42.2739617" lon="12.78652"><ele>522.5</ele><time>2026-04-25T08:23:03.067Z</time></trkpt><trkpt lat="42.2740867" lon="12.7865633"><ele>527.0</ele><time>2026-04-25T08:23:04.065Z</time></trkpt><trkpt lat="42.2742083" lon="12.7866"><ele>531.5</ele><time>2026-04-25T08:23:05.065Z</time></trkpt><trkpt lat="42.2743267" lon="12.7866333"><ele>536.0</ele><time>2026-04-25T08:23:06.064Z</time></trkpt><trkpt lat="42.2744267" lon="12.7866683"><ele>536.0</ele><time>2026-04-25T08:23:07.065Z</time></trkpt><trkpt lat="42.2744933" lon="12.7866933"><ele>536.0</ele><time>2026-04-25T08:23:08.065Z</time></trkpt><trkpt lat="42.27457" lon="12.786725"><ele>536.0</ele><time>2026-04-25T08:23:10.066Z</time></trkpt><trkpt lat="42.2746433" lon="12.7867617"><ele>536.0</ele><time>2026-04-25T08:23:12.064Z</time></trkpt><trkpt lat="42.2747433" lon="12.7867917"><ele>536.0</ele><time>2026-04-25T08:23:14.066Z</time></trkpt><trkpt lat="42.2748217" lon="12.7868217"><ele>536.0</ele><time>2026-04-25T08:23:16.066Z</time></trkpt><trkpt lat="42.274885" lon="12.7868017"><ele>536.0</ele><time>2026-04-25T08:23:19.065Z</time></trkpt><trkpt lat="42.2748983" lon="12.7866983"><ele>536.0</ele><time>2026-04-25T08:23:22.064Z</time></trkpt><trkpt lat="42.2748733" lon="12.7865917"><ele>536.0</ele><time>2026-04-25T08:23:25.062Z</time></trkpt><trkpt lat="42.2748017" lon="12.786505"><ele>536.0</ele><time>2026-04-25T08:23:28.064Z</time></trkpt><trkpt lat="42.2747267" lon="12.786425"><ele>536.0</ele><time>2026-04-25T08:23:30.064Z</time></trkpt><trkpt lat="42.2746817" lon="12.7863617"><ele>536.0</ele><time>2026-04-25T08:23:32.065Z</time></trkpt><trkpt lat="42.2746283" lon="12.7862817"><ele>536.0</ele><time>2026-04-25T08:23:35.063Z</time></trkpt><trkpt lat="42.27459" lon="12.7862017"><ele>536.0</ele><time>2026-04-25T08:23:38.066Z</time></trkpt><trkpt lat="42.2745483" lon="12.78611"><ele>536.0</ele><time>2026-04-25T08:23:46.063Z</time></trkpt><trkpt lat="42.2745583" lon="12.7861983"><ele>536.0</ele><time>2026-04-25T08:23:50.066Z</time></trkpt><trkpt lat="42.27462" lon="12.78631"><ele>536.0</ele><time>2026-04-25T08:23:52.065Z</time></trkpt><trkpt lat="42.2747" lon="12.7864067"><ele>536.0</ele><time>2026-04-25T08:23:54.067Z</time></trkpt><trkpt lat="42.2747667" lon="12.7864783"><ele>537.1428571428571</ele><time>2026-04-25T08:23:56.067Z</time></trkpt><trkpt lat="42.2748433" lon="12.7865317"><ele>538.2857142857142</ele><time>2026-04-25T08:23:59.064Z</time></trkpt><trkpt lat="42.2749033" lon="12.78649"><ele>539.4285714285713</ele><time>2026-04-25T08:24:03.065Z</time></trkpt><trkpt lat="42.27493" lon="12.786395"><ele>540.5714285714286</ele><time>2026-04-25T08:24:06.066Z</time></trkpt><trkpt lat="42.2749467" lon="12.7862717"><ele>541.7142857142857</ele><time>2026-04-25T08:24:09.066Z</time></trkpt><trkpt lat="42.2749417" lon="12.7861867"><ele>542.8571428571428</ele><time>2026-04-25T08:24:11.066Z</time></trkpt><trkpt lat="42.2749367" lon="12.7861"><ele>544.0</ele><time>2026-04-25T08:24:14.068Z</time></trkpt><trkpt lat="42.2749217" lon="12.7859967"><ele>544.0</ele><time>2026-04-25T08:24:17.067Z</time></trkpt><trkpt lat="42.274905" lon="12.7858983"><ele>544.0</ele><time>2026-04-25T08:24:20.067Z</time></trkpt><trkpt lat="42.2748833" lon="12.785795"><ele>544.0</ele><time>2026-04-25T08:24:23.065Z</time></trkpt><trkpt lat="42.2748517" lon="12.7856817"><ele>544.0</ele><time>2026-04-25T08:24:26.067Z</time></trkpt><trkpt lat="42.27482" lon="12.7855617"><ele>544.0</ele><time>2026-04-25T08:24:29.065Z</time></trkpt><trkpt lat="42.2747933" lon="12.7854833"><ele>544.0</ele><time>2026-04-25T08:24:31.066Z</time></trkpt><trkpt lat="42.274765" lon="12.78539"><ele>543.6666666666667</ele><time>2026-04-25T08:24:33.066Z</time></trkpt><trkpt lat="42.2747383" lon="12.7853017"><ele>543.3333333333334</ele><time>2026-04-25T08:24:35.066Z</time></trkpt><trkpt lat="42.2747183" lon="12.78521"><ele>543.0</ele><time>2026-04-25T08:24:37.068Z</time></trkpt><trkpt lat="42.2746917" lon="12.785105"><ele>542.6666666666666</ele><time>2026-04-25T08:24:39.066Z</time></trkpt><trkpt lat="42.2746783" lon="12.7849833"><ele>542.3333333333333</ele><time>2026-04-25T08:24:41.067Z</time></trkpt><trkpt lat="42.2746617" lon="12.7848817"><ele>542.0</ele><time>2026-04-25T08:24:43.066Z</time></trkpt><trkpt lat="42.27464" lon="12.7847633"><ele>541.1666666666666</ele><time>2026-04-25T08:24:46.067Z</time></trkpt><trkpt lat="42.2746117" lon="12.7846567"><ele>540.3333333333333</ele><time>2026-04-25T08:24:49.064Z</time></trkpt><trkpt lat="42.2745983" lon="12.7845733"><ele>539.5</ele><time>2026-04-25T08:24:52.067Z</time></trkpt><trkpt lat="42.27459" lon="12.7844217"><ele>538.6666666666666</ele><time>2026-04-25T08:26:59.064Z</time></trkpt><trkpt lat="42.2745717" lon="12.7843167"><ele>537.8333333333334</ele><time>2026-04-25T08:27:01.065Z</time></trkpt><trkpt lat="42.2745283" lon="12.7841933"><ele>537.0</ele><time>2026-04-25T08:27:03.064Z</time></trkpt><trkpt lat="42.2744167" lon="12.7840967"><ele>535.0</ele><time>2026-04-25T08:27:05.064Z</time></trkpt><trkpt lat="42.2743417" lon="12.78405"><ele>533.0</ele><time>2026-04-25T08:27:06.065Z</time></trkpt><trkpt lat="42.2742583" lon="12.78399"><ele>531.0</ele><time>2026-04-25T08:27:07.065Z</time></trkpt><trkpt lat="42.27418" lon="12.7839333"><ele>529.0</ele><time>2026-04-25T08:27:08.066Z</time></trkpt><trkpt lat="42.274105" lon="12.7838983"><ele>527.0</ele><time>2026-04-25T08:27:09.064Z</time></trkpt><trkpt lat="42.2740233" lon="12.7838783"><ele>525.0</ele><time>2026-04-25T08:27:10.065Z</time></trkpt><trkpt lat="42.2739383" lon="12.78387"><ele>522.6666666666666</ele><time>2026-04-25T08:27:11.065Z</time></trkpt><trkpt lat="42.27386" lon="12.7838683"><ele>520.3333333333334</ele><time>2026-04-25T08:27:12.064Z</time></trkpt><trkpt lat="42.2737867" lon="12.78388"><ele>518.0</ele><time>2026-04-25T08:27:13.063Z</time></trkpt><trkpt lat="42.2737283" lon="12.7839133"><ele>515.6666666666667</ele><time>2026-04-25T08:27:14.065Z</time></trkpt><trkpt lat="42.2736283" lon="12.784"><ele>513.3333333333334</ele><time>2026-04-25T08:27:16.064Z</time></trkpt><trkpt lat="42.2735533" lon="12.7840633"><ele>511.0</ele><time>2026-04-25T08:27:18.066Z</time></trkpt><trkpt lat="42.2734917" lon="12.7841167"><ele>511.00000000000006</ele><time>2026-04-25T08:27:20.065Z</time></trkpt><trkpt lat="42.273425" lon="12.78417"><ele>511.0</ele><time>2026-04-25T08:27:22.065Z</time></trkpt><trkpt lat="42.2733633" lon="12.7842183"><ele>511.0</ele><time>2026-04-25T08:27:24.064Z</time></trkpt><trkpt lat="42.2732883" lon="12.7842867"><ele>511.0</ele><time>2026-04-25T08:27:27.065Z</time></trkpt><trkpt lat="42.2732217" lon="12.7843367"><ele>511.00000000000006</ele><time>2026-04-25T08:27:30.064Z</time></trkpt><trkpt lat="42.273215" lon="12.78423"><ele>511.0</ele><time>2026-04-25T08:27:35.066Z</time></trkpt><trkpt lat="42.2732433" lon="12.7841333"><ele>511.0</ele><time>2026-04-25T08:27:37.063Z</time></trkpt><trkpt lat="42.2732617" lon="12.7840467"><ele>511.0</ele><time>2026-04-25T08:27:39.063Z</time></trkpt><trkpt lat="42.2732767" lon="12.7839617"><ele>511.0</ele><time>2026-04-25T08:27:41.066Z</time></trkpt><trkpt lat="42.27329" lon="12.7838367"><ele>511.0</ele><time>2026-04-25T08:27:44.065Z</time></trkpt><trkpt lat="42.2732983" lon="12.783725"><ele>511.0</ele><time>2026-04-25T08:27:47.066Z</time></trkpt><trkpt lat="42.2733033" lon="12.783635"><ele>511.0</ele><time>2026-04-25T08:27:49.065Z</time></trkpt><trkpt lat="42.273315" lon="12.78354"><ele>511.0</ele><time>2026-04-25T08:27:51.066Z</time></trkpt><trkpt lat="42.2733317" lon="12.7834433"><ele>508.83333333333337</ele><time>2026-04-25T08:27:53.065Z</time></trkpt><trkpt lat="42.2733483" lon="12.7833333"><ele>506.6666666666667</ele><time>2026-04-25T08:27:55.066Z</time></trkpt><trkpt lat="42.2733683" lon="12.7832333"><ele>504.5</ele><time>2026-04-25T08:27:57.067Z</time></trkpt><trkpt lat="42.2733933" lon="12.783145"><ele>502.33333333333337</ele><time>2026-04-25T08:27:59.066Z</time></trkpt><trkpt lat="42.2733683" lon="12.7832683"><ele>500.1666666666667</ele><time>2026-04-25T08:28:07.064Z</time></trkpt><trkpt lat="42.2733583" lon="12.7833533"><ele>498.0</ele><time>2026-04-25T08:28:08.065Z</time></trkpt><trkpt lat="42.273345" lon="12.7834383"><ele>500.1666666666667</ele><time>2026-04-25T08:28:09.064Z</time></trkpt><trkpt lat="42.2733217" lon="12.78359"><ele>502.33333333333337</ele><time>2026-04-25T08:28:11.064Z</time></trkpt><trkpt lat="42.273315" lon="12.783685"><ele>504.5</ele><time>2026-04-25T08:28:12.064Z</time></trkpt><trkpt lat="42.2733083" lon="12.783795"><ele>506.6666666666667</ele><time>2026-04-25T08:28:13.066Z</time></trkpt><trkpt lat="42.2732983" lon="12.7839083"><ele>508.83333333333337</ele><time>2026-04-25T08:28:14.065Z</time></trkpt><trkpt lat="42.2732817" lon="12.7840183"><ele>511.0</ele><time>2026-04-25T08:28:15.064Z</time></trkpt><trkpt lat="42.2732617" lon="12.7841217"><ele>511.00000000000006</ele><time>2026-04-25T08:28:16.067Z</time></trkpt><trkpt lat="42.2732417" lon="12.7842083"><ele>511.0</ele><time>2026-04-25T08:28:17.065Z</time></trkpt><trkpt lat="42.2732083" lon="12.784315"><ele>511.0</ele><time>2026-04-25T08:28:19.067Z</time></trkpt><trkpt lat="42.2732767" lon="12.7843067"><ele>511.0</ele><time>2026-04-25T08:28:24.067Z</time></trkpt><trkpt lat="42.27335" lon="12.7842267"><ele>511.00000000000006</ele><time>2026-04-25T08:28:26.067Z</time></trkpt><trkpt lat="42.2734517" lon="12.7841417"><ele>511.0</ele><time>2026-04-25T08:28:28.068Z</time></trkpt><trkpt lat="42.2735067" lon="12.7840983"><ele>511.00000000000006</ele><time>2026-04-25T08:28:29.066Z</time></trkpt><trkpt lat="42.2735667" lon="12.78405"><ele>511.0</ele><time>2026-04-25T08:28:30.066Z</time></trkpt><trkpt lat="42.2736283" lon="12.7839967"><ele>511.0</ele><time>2026-04-25T08:28:31.064Z</time></trkpt><trkpt lat="42.2736883" lon="12.7839467"><ele>511.0</ele><time>2026-04-25T08:28:32.065Z</time></trkpt><trkpt lat="42.273745" lon="12.7839"><ele>511.00000000000006</ele><time>2026-04-25T08:28:33.066Z</time></trkpt><trkpt lat="42.2738617" lon="12.7838417"><ele>511.0</ele><time>2026-04-25T08:28:35.065Z</time></trkpt><trkpt lat="42.2739867" lon="12.783835"><ele>513.0</ele><time>2026-04-25T08:28:37.066Z</time></trkpt><trkpt lat="42.274055" lon="12.7838433"><ele>515.0</ele><time>2026-04-25T08:28:38.066Z</time></trkpt><trkpt lat="42.2741233" lon="12.7838617"><ele>517.0</ele><time>2026-04-25T08:28:39.064Z</time></trkpt><trkpt lat="42.27419" lon="12.7839"><ele>519.0</ele><time>2026-04-25T08:28:40.065Z</time></trkpt><trkpt lat="42.2742533" lon="12.783945"><ele>521.0</ele><time>2026-04-25T08:28:41.065Z</time></trkpt><trkpt lat="42.2743217" lon="12.7839967"><ele>523.0</ele><time>2026-04-25T08:28:42.066Z</time></trkpt><trkpt lat="42.2743883" lon="12.78405"><ele>525.0</ele><time>2026-04-25T08:28:43.068Z</time></trkpt><trkpt lat="42.2744533" lon="12.7840967"><ele>525.0</ele><time>2026-04-25T08:28:44.067Z</time></trkpt><trkpt lat="42.2745067" lon="12.7841467"><ele>525.0</ele><time>2026-04-25T08:28:45.067Z</time></trkpt><trkpt lat="42.2745767" lon="12.7842233"><ele>525.0</ele><time>2026-04-25T08:28:47.066Z</time></trkpt><trkpt lat="42.2745967" lon="12.784315"><ele>525.0</ele><time>2026-04-25T08:28:50.067Z</time></trkpt><trkpt lat="42.2745933" lon="12.78441"><ele>525.0</ele><time>2026-04-25T08:28:52.066Z</time></trkpt><trkpt lat="42.2746733" lon="12.784455"><ele>525.0</ele><time>2026-04-25T08:28:55.067Z</time></trkpt><trkpt lat="42.274785" lon="12.784435"><ele>525.0</ele><time>2026-04-25T08:28:57.065Z</time></trkpt><trkpt lat="42.27486" lon="12.7844067"><ele>525.0</ele><time>2026-04-25T08:28:59.064Z</time></trkpt><trkpt lat="42.2749183" lon="12.784355"><ele>525.0</ele><time>2026-04-25T08:29:02.064Z</time></trkpt><trkpt lat="42.2749683" lon="12.7842633"><ele>525.0</ele><time>2026-04-25T08:29:04.063Z</time></trkpt><trkpt lat="42.2750433" lon="12.7841467"><ele>525.0</ele><time>2026-04-25T08:29:06.065Z</time></trkpt><trkpt lat="42.2750933" lon="12.784075"><ele>525.0</ele><time>2026-04-25T08:29:07.064Z</time></trkpt><trkpt lat="42.27515" lon="12.78399"><ele>525.0</ele><time>2026-04-25T08:29:08.066Z</time></trkpt><trkpt lat="42.2752083" lon="12.7838917"><ele>525.0</ele><time>2026-04-25T08:29:09.064Z</time></trkpt><trkpt lat="42.2752567" lon="12.7837833"><ele>525.0</ele><time>2026-04-25T08:29:10.066Z</time></trkpt><trkpt lat="42.275305" lon="12.7836683"><ele>525.0</ele><time>2026-04-25T08:29:11.063Z</time></trkpt><trkpt lat="42.2753633" lon="12.78357"><ele>525.0</ele><time>2026-04-25T08:29:12.065Z</time></trkpt><trkpt lat="42.2754233" lon="12.783495"><ele>522.4</ele><time>2026-04-25T08:29:13.066Z</time></trkpt><trkpt lat="42.2754767" lon="12.7834333"><ele>519.8</ele><time>2026-04-25T08:29:14.065Z</time></trkpt><trkpt lat="42.27555" lon="12.7833817"><ele>517.2</ele><time>2026-04-25T08:29:16.064Z</time></trkpt><trkpt lat="42.275645" lon="12.78333"><ele>514.6</ele><time>2026-04-25T08:29:59.064Z</time></trkpt><trkpt lat="42.2757817" lon="12.7832983"><ele>512.0</ele><time>2026-04-25T08:30:01.065Z</time></trkpt><trkpt lat="42.2758567" lon="12.7832633"><ele>516.6666666666666</ele><time>2026-04-25T08:30:02.065Z</time></trkpt><trkpt lat="42.275925" lon="12.7832117"><ele>521.3333333333333</ele><time>2026-04-25T08:30:03.065Z</time></trkpt><trkpt lat="42.2759833" lon="12.7831417"><ele>526.0</ele><time>2026-04-25T08:30:04.065Z</time></trkpt><trkpt lat="42.2760383" lon="12.783055"><ele>530.6666666666666</ele><time>2026-04-25T08:30:05.066Z</time></trkpt><trkpt lat="42.276085" lon="12.78297"><ele>535.3333333333334</ele><time>2026-04-25T08:30:06.065Z</time></trkpt><trkpt lat="42.2761183" lon="12.782885"><ele>540.0</ele><time>2026-04-25T08:30:07.064Z</time></trkpt><trkpt lat="42.2761367" lon="12.7828"><ele>538.4</ele><time>2026-04-25T08:30:08.066Z</time></trkpt><trkpt lat="42.276165" lon="12.7826517"><ele>536.8</ele><time>2026-04-25T08:30:10.064Z</time></trkpt><trkpt lat="42.276215" lon="12.782515"><ele>535.2</ele><time>2026-04-25T08:30:12.063Z</time></trkpt><trkpt lat="42.2762867" lon="12.7824083"><ele>533.6</ele><time>2026-04-25T08:30:14.066Z</time></trkpt><trkpt lat="42.2763633" lon="12.7823017"><ele>532.0</ele><time>2026-04-25T08:30:16.065Z</time></trkpt><trkpt lat="42.2764533" lon="12.78218"><ele>536.0</ele><time>2026-04-25T08:30:18.064Z</time></trkpt><trkpt lat="42.276515" lon="12.7821417"><ele>540.0</ele><time>2026-04-25T08:30:19.065Z</time></trkpt><trkpt lat="42.276625" lon="12.7820917"><ele>544.0</ele><time>2026-04-25T08:30:21.065Z</time></trkpt><trkpt lat="42.2766883" lon="12.7820867"><ele>548.0</ele><time>2026-04-25T08:30:22.064Z</time></trkpt><trkpt lat="42.276755" lon="12.7821"><ele>552.0</ele><time>2026-04-25T08:30:23.065Z</time></trkpt><trkpt lat="42.2768167" lon="12.7821267"><ele>556.0</ele><time>2026-04-25T08:30:24.065Z</time></trkpt><trkpt lat="42.276925" lon="12.7822033"><ele>556.0</ele><time>2026-04-25T08:30:26.066Z</time></trkpt><trkpt lat="42.2769867" lon="12.7822517"><ele>556.0</ele><time>2026-04-25T08:30:27.064Z</time></trkpt><trkpt lat="42.2770533" lon="12.782305"><ele>556.0</ele><time>2026-04-25T08:30:28.065Z</time></trkpt><trkpt lat="42.27712" lon="12.78236"><ele>556.0</ele><time>2026-04-25T08:30:29.064Z</time></trkpt><trkpt lat="42.27719" lon="12.7824083"><ele>556.0</ele><time>2026-04-25T08:30:30.066Z</time></trkpt><trkpt lat="42.27726" lon="12.7824467"><ele>556.0</ele><time>2026-04-25T08:30:31.066Z</time></trkpt><trkpt lat="42.27733" lon="12.7824817"><ele>557.1666666666667</ele><time>2026-04-25T08:30:32.066Z</time></trkpt><trkpt lat="42.2773983" lon="12.782525"><ele>558.3333333333334</ele><time>2026-04-25T08:30:33.064Z</time></trkpt><trkpt lat="42.2774617" lon="12.7825733"><ele>559.5</ele><time>2026-04-25T08:30:34.065Z</time></trkpt><trkpt lat="42.2775283" lon="12.78264"><ele>560.6666666666666</ele><time>2026-04-25T08:30:35.066Z</time></trkpt><trkpt lat="42.2775967" lon="12.7827183"><ele>561.8333333333333</ele><time>2026-04-25T08:30:36.065Z</time></trkpt><trkpt lat="42.2776767" lon="12.7828017"><ele>563.0</ele><time>2026-04-25T08:30:37.064Z</time></trkpt><trkpt lat="42.2777583" lon="12.78288"><ele>563.0</ele><time>2026-04-25T08:30:38.066Z</time></trkpt><trkpt lat="42.2778433" lon="12.782955"><ele>563.0</ele><time>2026-04-25T08:30:39.067Z</time></trkpt><trkpt lat="42.2779267" lon="12.7830283"><ele>563.0</ele><time>2026-04-25T08:30:40.065Z</time></trkpt><trkpt lat="42.278005" lon="12.7831067"><ele>563.0</ele><time>2026-04-25T08:30:41.066Z</time></trkpt><trkpt lat="42.2780817" lon="12.7831817"><ele>563.0</ele><time>2026-04-25T08:30:42.065Z</time></trkpt><trkpt lat="42.2781583" lon="12.7832467"><ele>559.8333333333333</ele><time>2026-04-25T08:30:43.064Z</time></trkpt><trkpt lat="42.2782233" lon="12.7832983"><ele>556.6666666666666</ele><time>2026-04-25T08:30:44.066Z</time></trkpt><trkpt lat="42.2783017" lon="12.7833567"><ele>553.5</ele><time>2026-04-25T08:30:46.065Z</time></trkpt><trkpt lat="42.278375" lon="12.783335"><ele>550.3333333333334</ele><time>2026-04-25T08:30:49.066Z</time></trkpt><trkpt lat="42.2784417" lon="12.783255"><ele>547.1666666666667</ele><time>2026-04-25T08:30:51.066Z</time></trkpt><trkpt lat="42.2785233" lon="12.7831517"><ele>544.0</ele><time>2026-04-25T08:30:53.064Z</time></trkpt><trkpt lat="42.2785933" lon="12.7830283"><ele>543.9999999999999</ele><time>2026-04-25T08:30:55.064Z</time></trkpt><trkpt lat="42.2786317" lon="12.7829533"><ele>544.0</ele><time>2026-04-25T08:30:56.065Z</time></trkpt><trkpt lat="42.278675" lon="12.7828717"><ele>544.0</ele><time>2026-04-25T08:30:57.065Z</time></trkpt><trkpt lat="42.2787233" lon="12.7827967"><ele>544.0</ele><time>2026-04-25T08:30:58.066Z</time></trkpt><trkpt lat="42.2787733" lon="12.7827267"><ele>544.0</ele><time>2026-04-25T08:30:59.065Z</time></trkpt><trkpt lat="42.278825" lon="12.782655"><ele>543.9999999999999</ele><time>2026-04-25T08:31:00.066Z</time></trkpt><trkpt lat="42.278875" lon="12.7825867"><ele>544.0</ele><time>2026-04-25T08:31:01.067Z</time></trkpt><trkpt lat="42.2789267" lon="12.782515"><ele>543.6</ele><time>2026-04-25T08:31:02.067Z</time></trkpt><trkpt lat="42.2789783" lon="12.7824517"><ele>543.2</ele><time>2026-04-25T08:31:03.064Z</time></trkpt><trkpt lat="42.2790217" lon="12.7823833"><ele>542.8000000000001</ele><time>2026-04-25T08:31:04.066Z</time></trkpt><trkpt lat="42.27907" lon="12.782245"><ele>542.4</ele><time>2026-04-25T08:31:06.066Z</time></trkpt><trkpt lat="42.279095" lon="12.7821117"><ele>542.0</ele><time>2026-04-25T08:31:08.066Z</time></trkpt><trkpt lat="42.2791133" lon="12.7819617"><ele>539.3333333333333</ele><time>2026-04-25T08:31:10.065Z</time></trkpt><trkpt lat="42.27912" lon="12.7817933"><ele>536.6666666666666</ele><time>2026-04-25T08:31:12.064Z</time></trkpt><trkpt lat="42.279115" lon="12.7817083"><ele>534.0</ele><time>2026-04-25T08:31:13.066Z</time></trkpt><trkpt lat="42.2791083" lon="12.7816233"><ele>531.3333333333334</ele><time>2026-04-25T08:31:14.064Z</time></trkpt><trkpt lat="42.279105" lon="12.7815317"><ele>528.6666666666667</ele><time>2026-04-25T08:31:15.064Z</time></trkpt><trkpt lat="42.2791033" lon="12.7814433"><ele>526.0</ele><time>2026-04-25T08:31:16.065Z</time></trkpt><trkpt lat="42.2790983" lon="12.7813117"><ele>526.0</ele><time>2026-04-25T08:31:18.066Z</time></trkpt><trkpt lat="42.2791133" lon="12.7812017"><ele>526.0</ele><time>2026-04-25T08:31:21.064Z</time></trkpt><trkpt lat="42.2791633" lon="12.7810867"><ele>526.0</ele><time>2026-04-25T08:33:09.064Z</time></trkpt><trkpt lat="42.2791117" lon="12.7810167"><ele>526.0</ele><time>2026-04-25T08:33:12.065Z</time></trkpt><trkpt lat="42.27902" lon="12.7810017"><ele>526.0</ele><time>2026-04-25T08:33:15.063Z</time></trkpt><trkpt lat="42.2789483" lon="12.781015"><ele>526.0</ele><time>2026-04-25T08:33:17.063Z</time></trkpt><trkpt lat="42.2788833" lon="12.7810383"><ele>526.0</ele><time>2026-04-25T08:33:20.064Z</time></trkpt><trkpt lat="42.2788283" lon="12.7810917"><ele>526.0</ele><time>2026-04-25T08:33:23.062Z</time></trkpt><trkpt lat="42.2788883" lon="12.7810417"><ele>526.0</ele><time>2026-04-25T08:34:03.066Z</time></trkpt><trkpt lat="42.2789933" lon="12.7810167"><ele>526.0</ele><time>2026-04-25T08:34:05.065Z</time></trkpt><trkpt lat="42.279095" lon="12.7810217"><ele>526.0</ele><time>2026-04-25T08:34:07.064Z</time></trkpt><trkpt lat="42.2791467" lon="12.7810767"><ele>526.0</ele><time>2026-04-25T08:34:09.065Z</time></trkpt><trkpt lat="42.2790833" lon="12.7812233"><ele>526.0</ele><time>2026-04-25T08:37:24.068Z</time></trkpt><trkpt lat="42.279065" lon="12.781355"><ele>526.0</ele><time>2026-04-25T08:37:26.067Z</time></trkpt><trkpt lat="42.2790817" lon="12.781535"><ele>526.0</ele><time>2026-04-25T08:37:28.064Z</time></trkpt><trkpt lat="42.2790883" lon="12.78166"><ele>526.0</ele><time>2026-04-25T08:37:29.065Z</time></trkpt><trkpt lat="42.2790867" lon="12.7818067"><ele>526.0</ele><time>2026-04-25T08:37:30.064Z</time></trkpt><trkpt lat="42.2790833" lon="12.7819483"><ele>526.0</ele><time>2026-04-25T08:37:31.064Z</time></trkpt><trkpt lat="42.27907" lon="12.7820767"><ele>526.0</ele><time>2026-04-25T08:37:32.065Z</time></trkpt><trkpt lat="42.2790533" lon="12.7821967"><ele>526.0</ele><time>2026-04-25T08:37:33.063Z</time></trkpt><trkpt lat="42.2790283" lon="12.782305"><ele>526.0</ele><time>2026-04-25T08:37:34.065Z</time></trkpt><trkpt lat="42.27899" lon="12.7823933"><ele>526.0</ele><time>2026-04-25T08:37:35.064Z</time></trkpt><trkpt lat="42.2789317" lon="12.7824783"><ele>526.0</ele><time>2026-04-25T08:37:36.065Z</time></trkpt><trkpt lat="42.2788617" lon="12.782575"><ele>526.0</ele><time>2026-04-25T08:37:37.066Z</time></trkpt><trkpt lat="42.2787833" lon="12.7826733"><ele>526.0</ele><time>2026-04-25T08:37:38.065Z</time></trkpt><trkpt lat="42.2787133" lon="12.7827717"><ele>526.0</ele><time>2026-04-25T08:37:39.065Z</time></trkpt><trkpt lat="42.2786533" lon="12.78286"><ele>526.0</ele><time>2026-04-25T08:37:40.067Z</time></trkpt><trkpt lat="42.2786033" lon="12.7829533"><ele>526.0</ele><time>2026-04-25T08:37:41.066Z</time></trkpt><trkpt lat="42.2785617" lon="12.7830483"><ele>529.0</ele><time>2026-04-25T08:37:42.063Z</time></trkpt><trkpt lat="42.278525" lon="12.7831383"><ele>532.0</ele><time>2026-04-25T08:37:43.064Z</time></trkpt><trkpt lat="42.27848" lon="12.783215"><ele>535.0</ele><time>2026-04-25T08:37:44.065Z</time></trkpt><trkpt lat="42.2784267" lon="12.7832817"><ele>538.0</ele><time>2026-04-25T08:37:45.064Z</time></trkpt><trkpt lat="42.27834" lon="12.7833467"><ele>541.0</ele><time>2026-04-25T08:37:47.065Z</time></trkpt><trkpt lat="42.2784217" lon="12.78334"><ele>544.0</ele><time>2026-04-25T08:38:44.065Z</time></trkpt><trkpt lat="42.2785067" lon="12.7832933"><ele>544.0</ele><time>2026-04-25T08:38:46.064Z</time></trkpt><trkpt lat="42.27858" lon="12.7832583"><ele>544.0</ele><time>2026-04-25T08:38:48.063Z</time></trkpt><trkpt lat="42.27866" lon="12.7831917"><ele>544.0</ele><time>2026-04-25T08:38:50.066Z</time></trkpt><trkpt lat="42.278735" lon="12.7831183"><ele>544.0</ele><time>2026-04-25T08:38:52.062Z</time></trkpt><trkpt lat="42.2787867" lon="12.7830617"><ele>544.0</ele><time>2026-04-25T08:38:54.063Z</time></trkpt><trkpt lat="42.2788367" lon="12.7829983"><ele>544.0</ele><time>2026-04-25T08:38:56.065Z</time></trkpt><trkpt lat="42.2789017" lon="12.7829333"><ele>543.6</ele><time>2026-04-25T08:38:58.063Z</time></trkpt><trkpt lat="42.278975" lon="12.78285"><ele>543.2</ele><time>2026-04-25T08:39:00.063Z</time></trkpt><trkpt lat="42.2790567" lon="12.7827567"><ele>542.8000000000001</ele><time>2026-04-25T08:39:02.066Z</time></trkpt><trkpt lat="42.2791233" lon="12.7826617"><ele>542.4</ele><time>2026-04-25T08:39:04.064Z</time></trkpt><trkpt lat="42.2792067" lon="12.7825867"><ele>542.0</ele><time>2026-04-25T08:39:06.064Z</time></trkpt><trkpt lat="42.2792583" lon="12.7825333"><ele>542.0</ele><time>2026-04-25T08:39:08.065Z</time></trkpt><trkpt lat="42.2793167" lon="12.7824917"><ele>542.0</ele><time>2026-04-25T08:39:12.064Z</time></trkpt><trkpt lat="42.2793717" lon="12.7824367"><ele>542.0</ele><time>2026-04-25T08:40:57.065Z</time></trkpt><trkpt lat="42.2794433" lon="12.7824217"><ele>542.0</ele><time>2026-04-25T08:41:00.063Z</time></trkpt><trkpt lat="42.2795083" lon="12.7824267"><ele>542.0</ele><time>2026-04-25T08:41:02.064Z</time></trkpt><trkpt lat="42.279595" lon="12.78247"><ele>542.0</ele><time>2026-04-25T08:41:05.064Z</time></trkpt><trkpt lat="42.2796567" lon="12.7825267"><ele>542.0</ele><time>2026-04-25T08:41:07.066Z</time></trkpt><trkpt lat="42.279715" lon="12.7826033"><ele>542.0</ele><time>2026-04-25T08:41:09.065Z</time></trkpt><trkpt lat="42.2797633" lon="12.7826683"><ele>542.0</ele><time>2026-04-25T08:41:11.066Z</time></trkpt><trkpt lat="42.279835" lon="12.7827467"><ele>542.0</ele><time>2026-04-25T08:41:13.066Z</time></trkpt><trkpt lat="42.279905" lon="12.7828067"><ele>542.0</ele><time>2026-04-25T08:41:15.065Z</time></trkpt><trkpt lat="42.279975" lon="12.78288"><ele>542.0</ele><time>2026-04-25T08:41:17.064Z</time></trkpt><trkpt lat="42.2800467" lon="12.7829517"><ele>542.0</ele><time>2026-04-25T08:41:19.066Z</time></trkpt><trkpt lat="42.2801017" lon="12.7830167"><ele>546.0</ele><time>2026-04-25T08:41:21.065Z</time></trkpt><trkpt lat="42.2801717" lon="12.7830517"><ele>550.0</ele><time>2026-04-25T08:41:24.065Z</time></trkpt><trkpt lat="42.2802333" lon="12.7830183"><ele>554.0</ele><time>2026-04-25T08:41:28.065Z</time></trkpt><trkpt lat="42.2803183" lon="12.7829683"><ele>558.0</ele><time>2026-04-25T08:41:31.064Z</time></trkpt><trkpt lat="42.28039" lon="12.782895"><ele>562.0</ele><time>2026-04-25T08:41:33.064Z</time></trkpt><trkpt lat="42.28047" lon="12.7828217"><ele>566.0</ele><time>2026-04-25T08:41:35.064Z</time></trkpt><trkpt lat="42.28053" lon="12.7827767"><ele>563.3333333333333</ele><time>2026-04-25T08:41:37.066Z</time></trkpt><trkpt lat="42.280595" lon="12.78268"><ele>560.6666666666666</ele><time>2026-04-25T08:41:40.063Z</time></trkpt><trkpt lat="42.2806567" lon="12.78263"><ele>558.0</ele><time>2026-04-25T08:41:42.066Z</time></trkpt><trkpt lat="42.2807317" lon="12.7826017"><ele>555.3333333333334</ele><time>2026-04-25T08:41:44.065Z</time></trkpt><trkpt lat="42.2808317" lon="12.7825783"><ele>552.6666666666667</ele><time>2026-04-25T08:41:46.065Z</time></trkpt><trkpt lat="42.2809233" lon="12.7825633"><ele>550.0</ele><time>2026-04-25T08:41:48.065Z</time></trkpt><trkpt lat="42.2810083" lon="12.782565"><ele>550.0</ele><time>2026-04-25T08:41:50.064Z</time></trkpt><trkpt lat="42.2810883" lon="12.7826"><ele>550.0</ele><time>2026-04-25T08:41:52.065Z</time></trkpt><trkpt lat="42.28115" lon="12.7826517"><ele>550.0</ele><time>2026-04-25T08:41:54.064Z</time></trkpt><trkpt lat="42.2812333" lon="12.7826683"><ele>550.0</ele><time>2026-04-25T08:41:56.065Z</time></trkpt><trkpt lat="42.2813233" lon="12.782625"><ele>550.0</ele><time>2026-04-25T08:41:58.065Z</time></trkpt><trkpt lat="42.281395" lon="12.7825467"><ele>550.0</ele><time>2026-04-25T08:42:00.064Z</time></trkpt><trkpt lat="42.28147" lon="12.78246"><ele>552.5</ele><time>2026-04-25T08:42:02.066Z</time></trkpt><trkpt lat="42.28154" lon="12.7823767"><ele>555.0</ele><time>2026-04-25T08:42:04.066Z</time></trkpt><trkpt lat="42.2815883" lon="12.7822983"><ele>557.5</ele><time>2026-04-25T08:42:06.064Z</time></trkpt><trkpt lat="42.2816583" lon="12.7822067"><ele>560.0</ele><time>2026-04-25T08:42:08.065Z</time></trkpt><trkpt lat="42.2817283" lon="12.7821033"><ele>562.5</ele><time>2026-04-25T08:42:10.064Z</time></trkpt><trkpt lat="42.2817933" lon="12.7820467"><ele>565.0</ele><time>2026-04-25T08:42:12.067Z</time></trkpt><trkpt lat="42.281865" lon="12.781965"><ele>565.0</ele><time>2026-04-25T08:42:14.064Z</time></trkpt><trkpt lat="42.28194" lon="12.781895"><ele>565.0</ele><time>2026-04-25T08:42:16.065Z</time></trkpt><trkpt lat="42.2820317" lon="12.7818683"><ele>565.0</ele><time>2026-04-25T08:42:18.065Z</time></trkpt><trkpt lat="42.2820967" lon="12.7818367"><ele>565.0</ele><time>2026-04-25T08:42:20.066Z</time></trkpt><trkpt lat="42.2821783" lon="12.7818083"><ele>565.0</ele><time>2026-04-25T08:42:22.067Z</time></trkpt><trkpt lat="42.2822717" lon="12.78179"><ele>565.0</ele><time>2026-04-25T08:42:24.067Z</time></trkpt><trkpt lat="42.2823483" lon="12.7817817"><ele>566.0</ele><time>2026-04-25T08:43:53.064Z</time></trkpt><trkpt lat="42.2824367" lon="12.7816383"><ele>567.0</ele><time>2026-04-25T08:45:27.064Z</time></trkpt><trkpt lat="42.2824733" lon="12.781565"><ele>568.0</ele><time>2026-04-25T08:45:29.064Z</time></trkpt><trkpt lat="42.282495" lon="12.7814617"><ele>569.0</ele><time>2026-04-25T08:45:40.064Z</time></trkpt><trkpt lat="42.2824967" lon="12.7813033"><ele>570.0</ele><time>2026-04-25T08:45:42.062Z</time></trkpt><trkpt lat="42.2825083" lon="12.781135"><ele>570.0</ele><time>2026-04-25T08:45:44.065Z</time></trkpt><trkpt lat="42.2825283" lon="12.7810367"><ele>570.0</ele><time>2026-04-25T08:45:45.065Z</time></trkpt><trkpt lat="42.282555" lon="12.7809317"><ele>570.0</ele><time>2026-04-25T08:45:46.062Z</time></trkpt><trkpt lat="42.2825917" lon="12.7808217"><ele>570.0</ele><time>2026-04-25T08:45:47.063Z</time></trkpt><trkpt lat="42.2826317" lon="12.7807183"><ele>570.0</ele><time>2026-04-25T08:45:48.065Z</time></trkpt><trkpt lat="42.2826667" lon="12.78064"><ele>570.0</ele><time>2026-04-25T08:45:49.063Z</time></trkpt><trkpt lat="42.2827033" lon="12.78057"><ele>569.2</ele><time>2026-04-25T08:45:50.067Z</time></trkpt><trkpt lat="42.2827767" lon="12.7804683"><ele>568.4</ele><time>2026-04-25T08:45:52.066Z</time></trkpt><trkpt lat="42.2828633" lon="12.7804133"><ele>567.6</ele><time>2026-04-25T08:45:54.067Z</time></trkpt><trkpt lat="42.2829283" lon="12.78039"><ele>566.8</ele><time>2026-04-25T08:45:55.064Z</time></trkpt><trkpt lat="42.2830367" lon="12.7803617"><ele>566.0</ele><time>2026-04-25T08:45:57.065Z</time></trkpt><trkpt lat="42.2831317" lon="12.7803433"><ele>569.6666666666666</ele><time>2026-04-25T08:45:59.065Z</time></trkpt><trkpt lat="42.2832533" lon="12.780345"><ele>573.3333333333333</ele><time>2026-04-25T08:46:01.066Z</time></trkpt><trkpt lat="42.28333" lon="12.7803467"><ele>577.0</ele><time>2026-04-25T08:46:02.067Z</time></trkpt><trkpt lat="42.2834067" lon="12.78035"><ele>580.6666666666666</ele><time>2026-04-25T08:46:03.066Z</time></trkpt><trkpt lat="42.2834833" lon="12.7803533"><ele>584.3333333333334</ele><time>2026-04-25T08:46:04.064Z</time></trkpt><trkpt lat="42.2835467" lon="12.7803583"><ele>588.0</ele><time>2026-04-25T08:46:05.064Z</time></trkpt><trkpt lat="42.2836583" lon="12.7803517"><ele>588.0</ele><time>2026-04-25T08:46:07.065Z</time></trkpt><trkpt lat="42.2837583" lon="12.7803317"><ele>588.0</ele><time>2026-04-25T08:46:09.064Z</time></trkpt><trkpt lat="42.2838217" lon="12.7803283"><ele>588.0</ele><time>2026-04-25T08:46:10.065Z</time></trkpt><trkpt lat="42.2838917" lon="12.78033"><ele>588.0</ele><time>2026-04-25T08:46:11.065Z</time></trkpt><trkpt lat="42.2839583" lon="12.7803383"><ele>588.0</ele><time>2026-04-25T08:46:12.066Z</time></trkpt><trkpt lat="42.2840233" lon="12.7803467"><ele>588.0</ele><time>2026-04-25T08:46:13.066Z</time></trkpt><trkpt lat="42.2840967" lon="12.7803583"><ele>588.0</ele><time>2026-04-25T08:46:14.064Z</time></trkpt><trkpt lat="42.2841683" lon="12.780365"><ele>587.1999999999999</ele><time>2026-04-25T08:46:15.065Z</time></trkpt><trkpt lat="42.2842933" lon="12.78039"><ele>586.4</ele><time>2026-04-25T08:46:17.066Z</time></trkpt><trkpt lat="42.2844233" lon="12.78041"><ele>585.5999999999999</ele><time>2026-04-25T08:46:19.062Z</time></trkpt><trkpt lat="42.2844933" lon="12.7804067"><ele>584.8</ele><time>2026-04-25T08:46:20.065Z</time></trkpt><trkpt lat="42.2845917" lon="12.7803633"><ele>584.0</ele><time>2026-04-25T08:46:22.064Z</time></trkpt><trkpt lat="42.2846833" lon="12.78036"><ele>584.0</ele><time>2026-04-25T08:46:24.064Z</time></trkpt><trkpt lat="42.284755" lon="12.7803433"><ele>584.0</ele><time>2026-04-25T08:46:26.066Z</time></trkpt><trkpt lat="42.2848283" lon="12.7803183"><ele>584.0</ele><time>2026-04-25T08:46:28.065Z</time></trkpt><trkpt lat="42.28493" lon="12.78037"><ele>584.0</ele><time>2026-04-25T08:48:46.065Z</time></trkpt><trkpt lat="42.28492" lon="12.780465"><ele>584.0</ele><time>2026-04-25T08:48:48.065Z</time></trkpt><trkpt lat="42.2848917" lon="12.78056"><ele>584.0</ele><time>2026-04-25T08:48:50.065Z</time></trkpt><trkpt lat="42.28487" lon="12.78066"><ele>582.8571428571429</ele><time>2026-04-25T08:48:52.065Z</time></trkpt><trkpt lat="42.284835" lon="12.78074"><ele>581.7142857142858</ele><time>2026-04-25T08:48:54.069Z</time></trkpt><trkpt lat="42.28477" lon="12.7807633"><ele>580.5714285714287</ele><time>2026-04-25T08:48:58.067Z</time></trkpt><trkpt lat="42.2848" lon="12.7808483"><ele>579.4285714285714</ele><time>2026-04-25T08:49:10.066Z</time></trkpt><trkpt lat="42.2848683" lon="12.7808667"><ele>578.2857142857143</ele><time>2026-04-25T08:49:28.064Z</time></trkpt><trkpt lat="42.2849083" lon="12.780935"><ele>577.1428571428572</ele><time>2026-04-25T08:49:37.067Z</time></trkpt><trkpt lat="42.2848583" lon="12.7810133"><ele>576.0</ele><time>2026-04-25T08:49:39.066Z</time></trkpt><trkpt lat="42.2847783" lon="12.7810667"><ele>576.8</ele><time>2026-04-25T08:49:41.066Z</time></trkpt><trkpt lat="42.2846783" lon="12.7810833"><ele>577.6</ele><time>2026-04-25T08:49:43.066Z</time></trkpt><trkpt lat="42.2845617" lon="12.7811033"><ele>578.4</ele><time>2026-04-25T08:49:45.066Z</time></trkpt><trkpt lat="42.2844533" lon="12.7811633"><ele>579.2</ele><time>2026-04-25T08:49:47.066Z</time></trkpt><trkpt lat="42.2843617" lon="12.7812517"><ele>580.0</ele><time>2026-04-25T08:49:49.066Z</time></trkpt><trkpt lat="42.2842667" lon="12.7813467"><ele>580.0</ele><time>2026-04-25T08:49:51.066Z</time></trkpt><trkpt lat="42.2841583" lon="12.781435"><ele>580.0</ele><time>2026-04-25T08:49:53.066Z</time></trkpt><trkpt lat="42.284105" lon="12.7814833"><ele>580.0</ele><time>2026-04-25T08:49:54.067Z</time></trkpt><trkpt lat="42.2839917" lon="12.7815583"><ele>580.0</ele><time>2026-04-25T08:49:56.065Z</time></trkpt><trkpt lat="42.283875" lon="12.7815983"><ele>580.0</ele><time>2026-04-25T08:49:58.067Z</time></trkpt><trkpt lat="42.2838033" lon="12.78163"><ele>580.4</ele><time>2026-04-25T08:49:59.067Z</time></trkpt><trkpt lat="42.28373" lon="12.781665"><ele>580.8</ele><time>2026-04-25T08:50:00.066Z</time></trkpt><trkpt lat="42.2836633" lon="12.7817033"><ele>581.2</ele><time>2026-04-25T08:50:01.065Z</time></trkpt><trkpt lat="42.2835533" lon="12.7817767"><ele>581.6</ele><time>2026-04-25T08:50:03.064Z</time></trkpt><trkpt lat="42.283475" lon="12.781855"><ele>582.0</ele><time>2026-04-25T08:50:05.066Z</time></trkpt><trkpt lat="42.2834067" lon="12.7819767"><ele>582.0</ele><time>2026-04-25T08:50:07.064Z</time></trkpt><trkpt lat="42.28335" lon="12.782115"><ele>582.0</ele><time>2026-04-25T08:50:09.065Z</time></trkpt><trkpt lat="42.283295" lon="12.7822483"><ele>582.0</ele><time>2026-04-25T08:50:11.067Z</time></trkpt><trkpt lat="42.2832767" lon="12.7823333"><ele>582.0</ele><time>2026-04-25T08:50:12.066Z</time></trkpt><trkpt lat="42.283275" lon="12.782425"><ele>582.0</ele><time>2026-04-25T08:50:13.067Z</time></trkpt><trkpt lat="42.2832883" lon="12.7825133"><ele>582.0</ele><time>2026-04-25T08:50:14.065Z</time></trkpt><trkpt lat="42.2833167" lon="12.7826"><ele>583.0</ele><time>2026-04-25T08:50:15.065Z</time></trkpt><trkpt lat="42.2833633" lon="12.78269"><ele>584.0</ele><time>2026-04-25T08:50:16.065Z</time></trkpt><trkpt lat="42.2834217" lon="12.7827733"><ele>585.0</ele><time>2026-04-25T08:50:17.065Z</time></trkpt><trkpt lat="42.2834783" lon="12.7828483"><ele>586.0</ele><time>2026-04-25T08:50:18.064Z</time></trkpt><trkpt lat="42.2835133" lon="12.78292"><ele>587.0</ele><time>2026-04-25T08:50:19.067Z</time></trkpt><trkpt lat="42.28351" lon="12.7830533"><ele>588.0</ele><time>2026-04-25T08:50:21.065Z</time></trkpt><trkpt lat="42.2834167" lon="12.7831683"><ele>588.0</ele><time>2026-04-25T08:50:23.066Z</time></trkpt><trkpt lat="42.28333" lon="12.7832183"><ele>588.0</ele><time>2026-04-25T08:50:24.065Z</time></trkpt><trkpt lat="42.2832283" lon="12.78328"><ele>588.0</ele><time>2026-04-25T08:50:25.066Z</time></trkpt><trkpt lat="42.28313" lon="12.7833683"><ele>588.0</ele><time>2026-04-25T08:50:26.067Z</time></trkpt><trkpt lat="42.28304" lon="12.78348"><ele>588.0</ele><time>2026-04-25T08:50:27.066Z</time></trkpt><trkpt lat="42.282965" lon="12.783595"><ele>588.1999999999999</ele><time>2026-04-25T08:50:28.066Z</time></trkpt><trkpt lat="42.2828933" lon="12.78369"><ele>588.4</ele><time>2026-04-25T08:50:29.065Z</time></trkpt><trkpt lat="42.2828183" lon="12.783765"><ele>588.5999999999999</ele><time>2026-04-25T08:50:30.065Z</time></trkpt><trkpt lat="42.2827367" lon="12.7838283"><ele>588.8</ele><time>2026-04-25T08:50:31.066Z</time></trkpt><trkpt lat="42.2826517" lon="12.7838717"><ele>589.0</ele><time>2026-04-25T08:50:32.066Z</time></trkpt><trkpt lat="42.2825617" lon="12.7838917"><ele>589.0</ele><time>2026-04-25T08:50:33.066Z</time></trkpt><trkpt lat="42.282475" lon="12.7838967"><ele>589.0</ele><time>2026-04-25T08:50:34.064Z</time></trkpt><trkpt lat="42.2823883" lon="12.7838933"><ele>589.0</ele><time>2026-04-25T08:50:35.065Z</time></trkpt><trkpt lat="42.2823067" lon="12.7838917"><ele>589.0</ele><time>2026-04-25T08:50:36.064Z</time></trkpt><trkpt lat="42.2822317" lon="12.7839133"><ele>589.0</ele><time>2026-04-25T08:50:37.066Z</time></trkpt><trkpt lat="42.282155" lon="12.7839617"><ele>589.0</ele><time>2026-04-25T08:50:38.066Z</time></trkpt><trkpt lat="42.2820817" lon="12.78404"><ele>588.6</ele><time>2026-04-25T08:50:39.066Z</time></trkpt><trkpt lat="42.282" lon="12.7841417"><ele>588.2</ele><time>2026-04-25T08:50:40.064Z</time></trkpt><trkpt lat="42.281915" lon="12.784245"><ele>587.8000000000001</ele><time>2026-04-25T08:50:41.067Z</time></trkpt><trkpt lat="42.28183" lon="12.7843267"><ele>587.4</ele><time>2026-04-25T08:50:42.063Z</time></trkpt><trkpt lat="42.2817483" lon="12.7843917"><ele>587.0</ele><time>2026-04-25T08:50:43.066Z</time></trkpt><trkpt lat="42.2816817" lon="12.78446"><ele>587.6666666666666</ele><time>2026-04-25T08:50:44.066Z</time></trkpt><trkpt lat="42.2816233" lon="12.784535"><ele>588.3333333333333</ele><time>2026-04-25T08:50:45.066Z</time></trkpt><trkpt lat="42.2815583" lon="12.7846183"><ele>589.0</ele><time>2026-04-25T08:50:46.067Z</time></trkpt><trkpt lat="42.2814933" lon="12.7846967"><ele>589.6666666666666</ele><time>2026-04-25T08:50:47.066Z</time></trkpt><trkpt lat="42.2814417" lon="12.7847717"><ele>590.3333333333334</ele><time>2026-04-25T08:50:48.066Z</time></trkpt><trkpt lat="42.2814067" lon="12.7848567"><ele>591.0</ele><time>2026-04-25T08:50:49.065Z</time></trkpt><trkpt lat="42.2813683" lon="12.784975"><ele>592.6</ele><time>2026-04-25T08:50:51.065Z</time></trkpt><trkpt lat="42.2812617" lon="12.78502"><ele>594.2</ele><time>2026-04-25T08:51:42.066Z</time></trkpt><trkpt lat="42.2811783" lon="12.7850333"><ele>595.8</ele><time>2026-04-25T08:51:43.064Z</time></trkpt><trkpt lat="42.2810767" lon="12.78505"><ele>597.4</ele><time>2026-04-25T08:51:44.067Z</time></trkpt><trkpt lat="42.2809617" lon="12.7850617"><ele>599.0</ele><time>2026-04-25T08:51:45.065Z</time></trkpt><trkpt lat="42.28084" lon="12.7850583"><ele>599.0</ele><time>2026-04-25T08:51:46.065Z</time></trkpt><trkpt lat="42.2807217" lon="12.7850483"><ele>599.0</ele><time>2026-04-25T08:51:47.065Z</time></trkpt><trkpt lat="42.2806033" lon="12.785045"><ele>599.0</ele><time>2026-04-25T08:51:48.064Z</time></trkpt><trkpt lat="42.280475" lon="12.78506"><ele>599.0</ele><time>2026-04-25T08:51:49.065Z</time></trkpt><trkpt lat="42.2803217" lon="12.7850767"><ele>599.75</ele><time>2026-04-25T08:51:50.065Z</time></trkpt><trkpt lat="42.2801583" lon="12.785085"><ele>600.5</ele><time>2026-04-25T08:51:51.065Z</time></trkpt><trkpt lat="42.2800083" lon="12.785085"><ele>601.25</ele><time>2026-04-25T08:51:52.065Z</time></trkpt><trkpt lat="42.2798983" lon="12.7850867"><ele>602.0</ele><time>2026-04-25T08:51:53.066Z</time></trkpt><trkpt lat="42.2798233" lon="12.7850883"><ele>602.6</ele><time>2026-04-25T08:51:54.067Z</time></trkpt><trkpt lat="42.2797483" lon="12.7851067"><ele>603.2</ele><time>2026-04-25T08:51:56.067Z</time></trkpt><trkpt lat="42.2796733" lon="12.7852033"><ele>603.8</ele><time>2026-04-25T08:52:21.065Z</time></trkpt><trkpt lat="42.2795867" lon="12.7853167"><ele>604.4</ele><time>2026-04-25T08:52:22.065Z</time></trkpt><trkpt lat="42.2794933" lon="12.7854633"><ele>605.0</ele><time>2026-04-25T08:52:23.066Z</time></trkpt><trkpt lat="42.2794167" lon="12.7856133"><ele>605.0</ele><time>2026-04-25T08:52:24.065Z</time></trkpt><trkpt lat="42.2793417" lon="12.7857517"><ele>605.0</ele><time>2026-04-25T08:52:25.065Z</time></trkpt><trkpt lat="42.27927" lon="12.785875"><ele>605.0</ele><time>2026-04-25T08:52:26.066Z</time></trkpt><trkpt lat="42.2791917" lon="12.785975"><ele>605.0</ele><time>2026-04-25T08:52:27.066Z</time></trkpt><trkpt lat="42.2791067" lon="12.7860583"><ele>603.8</ele><time>2026-04-25T08:52:28.066Z</time></trkpt><trkpt lat="42.279025" lon="12.7861367"><ele>602.6</ele><time>2026-04-25T08:52:29.066Z</time></trkpt><trkpt lat="42.2789567" lon="12.7862117"><ele>601.4</ele><time>2026-04-25T08:52:30.066Z</time></trkpt><trkpt lat="42.2788933" lon="12.7862983"><ele>600.2</ele><time>2026-04-25T08:52:31.064Z</time></trkpt><trkpt lat="42.2788317" lon="12.78639"><ele>599.0</ele><time>2026-04-25T08:52:32.065Z</time></trkpt><trkpt lat="42.2787783" lon="12.78648"><ele>599.0</ele><time>2026-04-25T08:52:33.066Z</time></trkpt><trkpt lat="42.2787483" lon="12.7865867"><ele>599.0</ele><time>2026-04-25T08:52:34.065Z</time></trkpt><trkpt lat="42.2787333" lon="12.7867117"><ele>599.0</ele><time>2026-04-25T08:52:35.063Z</time></trkpt><trkpt lat="42.2787183" lon="12.7868567"><ele>599.0</ele><time>2026-04-25T08:52:36.065Z</time></trkpt><trkpt lat="42.2786933" lon="12.7870017"><ele>599.0</ele><time>2026-04-25T08:52:37.067Z</time></trkpt><trkpt lat="42.2786467" lon="12.78713"><ele>599.6</ele><time>2026-04-25T08:52:38.066Z</time></trkpt><trkpt lat="42.27859" lon="12.7872433"><ele>600.2</ele><time>2026-04-25T08:52:39.065Z</time></trkpt><trkpt lat="42.278525" lon="12.7873317"><ele>600.8000000000001</ele><time>2026-04-25T08:52:40.066Z</time></trkpt><trkpt lat="42.2784567" lon="12.7874"><ele>601.4</ele><time>2026-04-25T08:52:41.065Z</time></trkpt><trkpt lat="42.2783733" lon="12.7874533"><ele>602.0</ele><time>2026-04-25T08:52:42.066Z</time></trkpt><trkpt lat="42.2782783" lon="12.7875033"><ele>602.0</ele><time>2026-04-25T08:52:43.064Z</time></trkpt><trkpt lat="42.27817" lon="12.7875433"><ele>602.0</ele><time>2026-04-25T08:52:44.066Z</time></trkpt><trkpt lat="42.2780583" lon="12.7875867"><ele>602.0</ele><time>2026-04-25T08:52:45.095Z</time></trkpt><trkpt lat="42.2779533" lon="12.7876283"><ele>602.0</ele><time>2026-04-25T08:52:46.065Z</time></trkpt><trkpt lat="42.2778717" lon="12.7876617"><ele>602.0</ele><time>2026-04-25T08:52:47.065Z</time></trkpt><trkpt lat="42.2778083" lon="12.7876867"><ele>600.5</ele><time>2026-04-25T08:52:48.066Z</time></trkpt><trkpt lat="42.2777367" lon="12.7877183"><ele>599.0</ele><time>2026-04-25T08:52:50.067Z</time></trkpt><trkpt lat="42.2776767" lon="12.787755"><ele>597.5</ele><time>2026-04-25T08:52:52.067Z</time></trkpt><trkpt lat="42.2776133" lon="12.7877917"><ele>596.0</ele><time>2026-04-25T08:52:54.067Z</time></trkpt><trkpt lat="42.2775433" lon="12.787855"><ele>594.5</ele><time>2026-04-25T08:52:57.064Z</time></trkpt><trkpt lat="42.277635" lon="12.7877867"><ele>593.0</ele><time>2026-04-25T08:53:25.065Z</time></trkpt><trkpt lat="42.27771" lon="12.7877533"><ele>593.0</ele><time>2026-04-25T08:53:26.065Z</time></trkpt><trkpt lat="42.2777967" lon="12.7877167"><ele>593.0</ele><time>2026-04-25T08:53:27.064Z</time></trkpt><trkpt lat="42.2778967" lon="12.7876733"><ele>593.0</ele><time>2026-04-25T08:53:28.063Z</time></trkpt><trkpt lat="42.27801" lon="12.7876233"><ele>593.0</ele><time>2026-04-25T08:53:29.063Z</time></trkpt><trkpt lat="42.2781317" lon="12.78757"><ele>593.0</ele><time>2026-04-25T08:53:30.066Z</time></trkpt><trkpt lat="42.278265" lon="12.7875117"><ele>594.8</ele><time>2026-04-25T08:53:31.064Z</time></trkpt><trkpt lat="42.2783867" lon="12.78745"><ele>596.5999999999999</ele><time>2026-04-25T08:53:32.065Z</time></trkpt><trkpt lat="42.2784867" lon="12.787385"><ele>598.4000000000001</ele><time>2026-04-25T08:53:33.065Z</time></trkpt><trkpt lat="42.27857" lon="12.7873133"><ele>600.2</ele><time>2026-04-25T08:53:34.064Z</time></trkpt><trkpt lat="42.2786317" lon="12.7872333"><ele>602.0</ele><time>2026-04-25T08:53:35.064Z</time></trkpt><trkpt lat="42.278685" lon="12.78714"><ele>602.0</ele><time>2026-04-25T08:53:36.065Z</time></trkpt><trkpt lat="42.2787233" lon="12.7870217"><ele>602.0</ele><time>2026-04-25T08:53:37.064Z</time></trkpt><trkpt lat="42.278745" lon="12.78687"><ele>602.0</ele><time>2026-04-25T08:53:38.064Z</time></trkpt><trkpt lat="42.2787567" lon="12.7867233"><ele>602.0</ele><time>2026-04-25T08:53:39.066Z</time></trkpt><trkpt lat="42.2787717" lon="12.7865883"><ele>602.0</ele><time>2026-04-25T08:53:40.066Z</time></trkpt><trkpt lat="42.2788033" lon="12.7864683"><ele>601.5</ele><time>2026-04-25T08:53:41.065Z</time></trkpt><trkpt lat="42.2788517" lon="12.7863667"><ele>601.0</ele><time>2026-04-25T08:53:42.065Z</time></trkpt><trkpt lat="42.2789083" lon="12.786275"><ele>600.5</ele><time>2026-04-25T08:53:43.065Z</time></trkpt><trkpt lat="42.2789667" lon="12.7861917"><ele>600.0</ele><time>2026-04-25T08:53:44.066Z</time></trkpt><trkpt lat="42.2790283" lon="12.7861183"><ele>599.5</ele><time>2026-04-25T08:53:45.063Z</time></trkpt><trkpt lat="42.279105" lon="12.7860533"><ele>599.0</ele><time>2026-04-25T08:53:46.063Z</time></trkpt><trkpt lat="42.279175" lon="12.7859917"><ele>600.0</ele><time>2026-04-25T08:53:47.065Z</time></trkpt><trkpt lat="42.2792317" lon="12.7859283"><ele>601.0</ele><time>2026-04-25T08:53:48.063Z</time></trkpt><trkpt lat="42.279285" lon="12.785855"><ele>602.0</ele><time>2026-04-25T08:53:49.066Z</time></trkpt><trkpt lat="42.2793383" lon="12.7857583"><ele>603.0</ele><time>2026-04-25T08:53:50.065Z</time></trkpt><trkpt lat="42.2793933" lon="12.7856417"><ele>604.0</ele><time>2026-04-25T08:53:51.065Z</time></trkpt><trkpt lat="42.2794467" lon="12.7855183"><ele>605.0</ele><time>2026-04-25T08:53:52.063Z</time></trkpt><trkpt lat="42.279505" lon="12.7853917"><ele>605.0</ele><time>2026-04-25T08:53:53.067Z</time></trkpt><trkpt lat="42.2795717" lon="12.785285"><ele>605.0</ele><time>2026-04-25T08:53:54.065Z</time></trkpt><trkpt lat="42.2796417" lon="12.7851983"><ele>605.0</ele><time>2026-04-25T08:53:55.065Z</time></trkpt><trkpt lat="42.2797117" lon="12.7851317"><ele>605.0</ele><time>2026-04-25T08:53:56.067Z</time></trkpt><trkpt lat="42.2797833" lon="12.7851"><ele>605.0</ele><time>2026-04-25T08:53:57.065Z</time></trkpt><trkpt lat="42.2798583" lon="12.785085"><ele>605.0</ele><time>2026-04-25T08:53:58.064Z</time></trkpt><trkpt lat="42.2799467" lon="12.785075"><ele>604.25</ele><time>2026-04-25T08:53:59.065Z</time></trkpt><trkpt lat="42.28006" lon="12.785065"><ele>603.5</ele><time>2026-04-25T08:54:00.064Z</time></trkpt><trkpt lat="42.2801917" lon="12.7850533"><ele>602.75</ele><time>2026-04-25T08:54:01.063Z</time></trkpt><trkpt lat="42.2803267" lon="12.7850467"><ele>602.0</ele><time>2026-04-25T08:54:02.064Z</time></trkpt><trkpt lat="42.2804567" lon="12.7850367"><ele>602.0</ele><time>2026-04-25T08:54:03.064Z</time></trkpt><trkpt lat="42.2805783" lon="12.7850217"><ele>602.0</ele><time>2026-04-25T08:54:04.065Z</time></trkpt><trkpt lat="42.2807033" lon="12.7850183"><ele>602.0</ele><time>2026-04-25T08:54:05.065Z</time></trkpt><trkpt lat="42.2808333" lon="12.7850217"><ele>602.0</ele><time>2026-04-25T08:54:06.065Z</time></trkpt><trkpt lat="42.28097" lon="12.7850233"><ele>601.4</ele><time>2026-04-25T08:54:07.065Z</time></trkpt><trkpt lat="42.2811" lon="12.7850217"><ele>600.8000000000001</ele><time>2026-04-25T08:54:08.065Z</time></trkpt><trkpt lat="42.281205" lon="12.7850133"><ele>600.2</ele><time>2026-04-25T08:54:09.066Z</time></trkpt><trkpt lat="42.2812883" lon="12.7850017"><ele>599.6</ele><time>2026-04-25T08:54:10.065Z</time></trkpt><trkpt lat="42.2813917" lon="12.78499"><ele>599.0</ele><time>2026-04-25T08:54:12.066Z</time></trkpt><trkpt lat="42.281475" lon="12.7850967"><ele>599.0</ele><time>2026-04-25T08:55:37.067Z</time></trkpt><trkpt lat="42.2815433" lon="12.7851817"><ele>599.0</ele><time>2026-04-25T08:55:39.065Z</time></trkpt><trkpt lat="42.28159" lon="12.7852517"><ele>599.0</ele><time>2026-04-25T08:55:40.065Z</time></trkpt><trkpt lat="42.28163" lon="12.7853617"><ele>599.0</ele><time>2026-04-25T08:55:41.065Z</time></trkpt><trkpt lat="42.281675" lon="12.7854767"><ele>599.0</ele><time>2026-04-25T08:55:42.066Z</time></trkpt><trkpt lat="42.281735" lon="12.7855633"><ele>599.0</ele><time>2026-04-25T08:55:43.07Z</time></trkpt><trkpt lat="42.2817917" lon="12.7856467"><ele>599.0</ele><time>2026-04-25T08:55:44.067Z</time></trkpt><trkpt lat="42.281845" lon="12.7857233"><ele>599.0</ele><time>2026-04-25T08:55:45.067Z</time></trkpt><trkpt lat="42.281885" lon="12.78581"><ele>599.0</ele><time>2026-04-25T08:55:46.066Z</time></trkpt><trkpt lat="42.2819117" lon="12.7859033"><ele>599.0</ele><time>2026-04-25T08:55:47.066Z</time></trkpt><trkpt lat="42.2819383" lon="12.7860033"><ele>599.0</ele><time>2026-04-25T08:55:48.066Z</time></trkpt><trkpt lat="42.2819583" lon="12.7861167"><ele>599.0</ele><time>2026-04-25T08:55:49.066Z</time></trkpt><trkpt lat="42.2819867" lon="12.7862283"><ele>597.8333333333333</ele><time>2026-04-25T08:55:50.066Z</time></trkpt><trkpt lat="42.2820167" lon="12.7863317"><ele>596.6666666666666</ele><time>2026-04-25T08:55:51.066Z</time></trkpt><trkpt lat="42.28205" lon="12.7864267"><ele>595.5</ele><time>2026-04-25T08:55:52.065Z</time></trkpt><trkpt lat="42.2820833" lon="12.7865167"><ele>594.3333333333334</ele><time>2026-04-25T08:55:53.065Z</time></trkpt><trkpt lat="42.282115" lon="12.7865983"><ele>593.1666666666667</ele><time>2026-04-25T08:55:54.066Z</time></trkpt><trkpt lat="42.2821767" lon="12.7867283"><ele>592.0</ele><time>2026-04-25T08:55:56.066Z</time></trkpt><trkpt lat="42.2822433" lon="12.7868233"><ele>592.0</ele><time>2026-04-25T08:55:58.063Z</time></trkpt></trkseg><trkseg><trkpt lat="42.2821967" lon="12.7869317"><ele>576.0</ele><time>2026-04-25T09:06:13.062Z</time></trkpt><trkpt lat="42.2821217" lon="12.786975"><ele>576.0</ele><time>2026-04-25T09:06:16.064Z</time></trkpt><trkpt lat="42.282055" lon="12.7870183"><ele>576.0</ele><time>2026-04-25T09:06:18.064Z</time></trkpt><trkpt lat="42.2819783" lon="12.7870667"><ele>576.0</ele><time>2026-04-25T09:06:20.062Z</time></trkpt><trkpt lat="42.2819067" lon="12.7871183"><ele>576.0</ele><time>2026-04-25T09:06:22.063Z</time></trkpt><trkpt lat="42.281835" lon="12.7871667"><ele>576.0</ele><time>2026-04-25T09:06:24.063Z</time></trkpt><trkpt lat="42.2817767" lon="12.7872217"><ele>576.0000000000001</ele><time>2026-04-25T09:06:26.062Z</time></trkpt><trkpt lat="42.2817217" lon="12.7872733"><ele>576.0</ele><time>2026-04-25T09:06:28.064Z</time></trkpt><trkpt lat="42.2816533" lon="12.7873517"><ele>576.0</ele><time>2026-04-25T09:06:31.064Z</time></trkpt><trkpt lat="42.2816467" lon="12.7874467"><ele>576.0</ele><time>2026-04-25T09:06:34.064Z</time></trkpt><trkpt lat="42.2816867" lon="12.7875367"><ele>576.0</ele><time>2026-04-25T09:06:37.064Z</time></trkpt><trkpt lat="42.2817433" lon="12.7875867"><ele>576.0000000000001</ele><time>2026-04-25T09:06:42.063Z</time></trkpt><trkpt lat="42.28179" lon="12.787645"><ele>576.0</ele><time>2026-04-25T09:06:45.061Z</time></trkpt><trkpt lat="42.281845" lon="12.7876867"><ele>577.0000000000001</ele><time>2026-04-25T09:06:54.063Z</time></trkpt><trkpt lat="42.2819033" lon="12.7877417"><ele>578.0</ele><time>2026-04-25T09:06:59.065Z</time></trkpt><trkpt lat="42.281965" lon="12.787785"><ele>579.0</ele><time>2026-04-25T09:07:02.064Z</time></trkpt><trkpt lat="42.2820317" lon="12.7878533"><ele>580.0</ele><time>2026-04-25T09:07:09.066Z</time></trkpt><trkpt lat="42.2820767" lon="12.787915"><ele>581.0</ele><time>2026-04-25T09:07:15.065Z</time></trkpt><trkpt lat="42.2821467" lon="12.7879733"><ele>582.0000000000001</ele><time>2026-04-25T09:07:20.065Z</time></trkpt><trkpt lat="42.2822083" lon="12.78802"><ele>583.0</ele><time>2026-04-25T09:07:23.066Z</time></trkpt><trkpt lat="42.2823417" lon="12.788035"><ele>576.5</ele><time>2026-04-25T09:07:32.065Z</time></trkpt><trkpt lat="42.2824033" lon="12.78809"><ele>570.0</ele><time>2026-04-25T09:07:35.063Z</time></trkpt><trkpt lat="42.2824733" lon="12.7881417"><ele>563.5</ele><time>2026-04-25T09:07:38.066Z</time></trkpt><trkpt lat="42.2827133" lon="12.7881467"><ele>557.0</ele><time>2026-04-25T09:07:47.065Z</time></trkpt><trkpt lat="42.2827983" lon="12.78812"><ele>557.0</ele><time>2026-04-25T09:07:50.065Z</time></trkpt><trkpt lat="42.2828533" lon="12.7881633"><ele>557.0</ele><time>2026-04-25T09:08:02.064Z</time></trkpt><trkpt lat="42.2829033" lon="12.7882183"><ele>557.0</ele><time>2026-04-25T09:08:07.065Z</time></trkpt><trkpt lat="42.2829733" lon="12.7882917"><ele>557.0</ele><time>2026-04-25T09:08:10.065Z</time></trkpt><trkpt lat="42.2830283" lon="12.788345"><ele>557.0</ele><time>2026-04-25T09:08:12.063Z</time></trkpt><trkpt lat="42.2830833" lon="12.7884"><ele>557.0</ele><time>2026-04-25T09:08:14.066Z</time></trkpt><trkpt lat="42.283125" lon="12.7884667"><ele>557.0</ele><time>2026-04-25T09:08:21.064Z</time></trkpt><trkpt lat="42.2831933" lon="12.7885333"><ele>551.6</ele><time>2026-04-25T09:08:27.064Z</time></trkpt><trkpt lat="42.283255" lon="12.78861"><ele>546.2</ele><time>2026-04-25T09:08:29.063Z</time></trkpt><trkpt lat="42.28333" lon="12.7886733"><ele>540.8</ele><time>2026-04-25T09:08:31.065Z</time></trkpt><trkpt lat="42.2834017" lon="12.788755"><ele>535.4</ele><time>2026-04-25T09:08:33.062Z</time></trkpt><trkpt lat="42.2834783" lon="12.7888567"><ele>530.0</ele><time>2026-04-25T09:08:35.063Z</time></trkpt><trkpt lat="42.2835617" lon="12.78896"><ele>530.0</ele><time>2026-04-25T09:08:37.065Z</time></trkpt><trkpt lat="42.2836483" lon="12.7890633"><ele>530.0</ele><time>2026-04-25T09:08:39.063Z</time></trkpt><trkpt lat="42.2837283" lon="12.7891467"><ele>530.0</ele><time>2026-04-25T09:08:41.064Z</time></trkpt><trkpt lat="42.28382" lon="12.7892083"><ele>530.0</ele><time>2026-04-25T09:08:43.065Z</time></trkpt><trkpt lat="42.2838967" lon="12.7892567"><ele>530.0</ele><time>2026-04-25T09:08:45.064Z</time></trkpt><trkpt lat="42.2839717" lon="12.78929"><ele>528.0</ele><time>2026-04-25T09:08:47.065Z</time></trkpt><trkpt lat="42.28405" lon="12.7893083"><ele>526.0</ele><time>2026-04-25T09:08:50.066Z</time></trkpt><trkpt lat="42.2841183" lon="12.7893167"><ele>524.0</ele><time>2026-04-25T09:08:55.068Z</time></trkpt><trkpt lat="42.2842617" lon="12.7893033"><ele>522.0</ele><time>2026-04-25T09:10:09.062Z</time></trkpt><trkpt lat="42.2843317" lon="12.78934"><ele>520.0</ele><time>2026-04-25T09:10:11.064Z</time></trkpt><trkpt lat="42.284425" lon="12.7893883"><ele>520.0000000000001</ele><time>2026-04-25T09:10:14.064Z</time></trkpt><trkpt lat="42.2844833" lon="12.78943"><ele>520.0</ele><time>2026-04-25T09:10:16.065Z</time></trkpt><trkpt lat="42.2845383" lon="12.7894733"><ele>520.0</ele><time>2026-04-25T09:10:18.065Z</time></trkpt><trkpt lat="42.2845983" lon="12.78952"><ele>520.0</ele><time>2026-04-25T09:10:20.066Z</time></trkpt><trkpt lat="42.2846717" lon="12.7895717"><ele>520.0</ele><time>2026-04-25T09:10:24.066Z</time></trkpt><trkpt lat="42.2847517" lon="12.7895933"><ele>520.0000000000001</ele><time>2026-04-25T09:10:27.064Z</time></trkpt><trkpt lat="42.2848183" lon="12.789625"><ele>520.0</ele><time>2026-04-25T09:10:29.064Z</time></trkpt><trkpt lat="42.28489" lon="12.7896633"><ele>515.8333333333334</ele><time>2026-04-25T09:10:31.063Z</time></trkpt><trkpt lat="42.2849517" lon="12.789685"><ele>511.6666666666667</ele><time>2026-04-25T09:10:33.066Z</time></trkpt><trkpt lat="42.2850417" lon="12.7897167"><ele>507.5</ele><time>2026-04-25T09:10:36.066Z</time></trkpt><trkpt lat="42.285035" lon="12.7898083"><ele>503.33333333333337</ele><time>2026-04-25T09:10:42.064Z</time></trkpt><trkpt lat="42.2849933" lon="12.7898733"><ele>499.1666666666667</ele><time>2026-04-25T09:10:45.064Z</time></trkpt><trkpt lat="42.2850167" lon="12.7899583"><ele>495.0</ele><time>2026-04-25T09:10:48.064Z</time></trkpt><trkpt lat="42.285145" lon="12.789995"><ele>494.99999999999994</ele><time>2026-04-25T09:14:52.064Z</time></trkpt><trkpt lat="42.2852233" lon="12.790065"><ele>495.0</ele><time>2026-04-25T09:14:54.065Z</time></trkpt><trkpt lat="42.2852967" lon="12.7901133"><ele>494.99999999999994</ele><time>2026-04-25T09:14:56.066Z</time></trkpt><trkpt lat="42.2853617" lon="12.7901383"><ele>494.99999999999994</ele><time>2026-04-25T09:14:58.066Z</time></trkpt><trkpt lat="42.2854233" lon="12.7901667"><ele>495.0</ele><time>2026-04-25T09:15:00.066Z</time></trkpt><trkpt lat="42.28548" lon="12.790215"><ele>494.99999999999994</ele><time>2026-04-25T09:15:02.066Z</time></trkpt><trkpt lat="42.2855433" lon="12.79026"><ele>494.99999999999994</ele><time>2026-04-25T09:15:04.065Z</time></trkpt><trkpt lat="42.2855967" lon="12.7903217"><ele>490.6</ele><time>2026-04-25T09:15:07.064Z</time></trkpt><trkpt lat="42.2856883" lon="12.790355"><ele>486.2</ele><time>2026-04-25T09:15:10.063Z</time></trkpt><trkpt lat="42.2857533" lon="12.7903833"><ele>481.79999999999995</ele><time>2026-04-25T09:15:12.064Z</time></trkpt><trkpt lat="42.2858433" lon="12.7904517"><ele>477.4</ele><time>2026-04-25T09:15:15.068Z</time></trkpt><trkpt lat="42.285925" lon="12.7905167"><ele>473.0</ele><time>2026-04-25T09:15:17.063Z</time></trkpt><trkpt lat="42.2860133" lon="12.7905917"><ele>473.0</ele><time>2026-04-25T09:15:19.065Z</time></trkpt><trkpt lat="42.2860633" lon="12.790705"><ele>472.99999999999994</ele><time>2026-04-25T09:15:21.065Z</time></trkpt><trkpt lat="42.286145" lon="12.7908083"><ele>472.99999999999994</ele><time>2026-04-25T09:15:23.065Z</time></trkpt><trkpt lat="42.286235" lon="12.79091"><ele>473.0</ele><time>2026-04-25T09:15:25.066Z</time></trkpt><trkpt lat="42.2863017" lon="12.79098"><ele>473.0</ele><time>2026-04-25T09:15:27.066Z</time></trkpt><trkpt lat="42.2863617" lon="12.7910583"><ele>467.3333333333333</ele><time>2026-04-25T09:15:29.063Z</time></trkpt><trkpt lat="42.2864317" lon="12.7911333"><ele>461.66666666666663</ele><time>2026-04-25T09:15:31.064Z</time></trkpt><trkpt lat="42.286495" lon="12.79122"><ele>456.0</ele><time>2026-04-25T09:15:33.064Z</time></trkpt><trkpt lat="42.2865683" lon="12.7913033"><ele>450.33333333333337</ele><time>2026-04-25T09:15:35.065Z</time></trkpt><trkpt lat="42.2866267" lon="12.7913983"><ele>444.6666666666667</ele><time>2026-04-25T09:15:37.064Z</time></trkpt><trkpt lat="42.2866667" lon="12.791495"><ele>439.0</ele><time>2026-04-25T09:15:39.063Z</time></trkpt><trkpt lat="42.2867" lon="12.7915883"><ele>439.00000000000006</ele><time>2026-04-25T09:15:41.063Z</time></trkpt><trkpt lat="42.2867083" lon="12.7916833"><ele>439.0</ele><time>2026-04-25T09:15:43.063Z</time></trkpt><trkpt lat="42.2867017" lon="12.791785"><ele>439.0</ele><time>2026-04-25T09:15:45.064Z</time></trkpt><trkpt lat="42.2866783" lon="12.7919017"><ele>439.0</ele><time>2026-04-25T09:15:47.064Z</time></trkpt><trkpt lat="42.2866667" lon="12.792"><ele>439.00000000000006</ele><time>2026-04-25T09:15:49.065Z</time></trkpt><trkpt lat="42.2866317" lon="12.7920933"><ele>439.0</ele><time>2026-04-25T09:15:52.063Z</time></trkpt><trkpt lat="42.286575" lon="12.7921467"><ele>438.50000000000006</ele><time>2026-04-25T09:15:54.065Z</time></trkpt><trkpt lat="42.2865383" lon="12.792225"><ele>438.0</ele><time>2026-04-25T09:15:56.064Z</time></trkpt><trkpt lat="42.2865" lon="12.7923283"><ele>437.5</ele><time>2026-04-25T09:15:58.067Z</time></trkpt><trkpt lat="42.28645" lon="12.7924383"><ele>437.0</ele><time>2026-04-25T09:16:00.064Z</time></trkpt><trkpt lat="42.2864017" lon="12.79255"><ele>436.50000000000006</ele><time>2026-04-25T09:16:02.064Z</time></trkpt><trkpt lat="42.2863617" lon="12.7926533"><ele>436.0</ele><time>2026-04-25T09:16:04.066Z</time></trkpt><trkpt lat="42.28633" lon="12.7927633"><ele>436.00000000000006</ele><time>2026-04-25T09:16:06.066Z</time></trkpt><trkpt lat="42.2863167" lon="12.7928583"><ele>436.0</ele><time>2026-04-25T09:16:08.065Z</time></trkpt><trkpt lat="42.286305" lon="12.7929617"><ele>436.0</ele><time>2026-04-25T09:16:10.065Z</time></trkpt><trkpt lat="42.2862717" lon="12.7930517"><ele>436.0</ele><time>2026-04-25T09:16:12.063Z</time></trkpt><trkpt lat="42.2862167" lon="12.7931367"><ele>436.00000000000006</ele><time>2026-04-25T09:16:14.064Z</time></trkpt><trkpt lat="42.2861467" lon="12.7932283"><ele>436.0</ele><time>2026-04-25T09:16:16.064Z</time></trkpt><trkpt lat="42.2860733" lon="12.793295"><ele>436.00000000000006</ele><time>2026-04-25T09:16:18.065Z</time></trkpt><trkpt lat="42.2860117" lon="12.7933617"><ele>436.0</ele><time>2026-04-25T09:16:20.065Z</time></trkpt><trkpt lat="42.2859717" lon="12.7934533"><ele>436.0</ele><time>2026-04-25T09:16:22.066Z</time></trkpt><trkpt lat="42.2859183" lon="12.7935417"><ele>436.0</ele><time>2026-04-25T09:16:24.066Z</time></trkpt><trkpt lat="42.2858467" lon="12.7936033"><ele>436.00000000000006</ele><time>2026-04-25T09:16:26.064Z</time></trkpt><trkpt lat="42.2857883" lon="12.7937367"><ele>436.0</ele><time>2026-04-25T09:16:30.066Z</time></trkpt><trkpt lat="42.2857983" lon="12.793845"><ele>434.4</ele><time>2026-04-25T09:16:32.065Z</time></trkpt><trkpt lat="42.2857817" lon="12.79398"><ele>432.8</ele><time>2026-04-25T09:16:34.066Z</time></trkpt><trkpt lat="42.2857683" lon="12.79412"><ele>431.19999999999993</ele><time>2026-04-25T09:16:36.066Z</time></trkpt><trkpt lat="42.2857483" lon="12.7942717"><ele>429.59999999999997</ele><time>2026-04-25T09:16:38.068Z</time></trkpt><trkpt lat="42.285755" lon="12.7944417"><ele>428.0</ele><time>2026-04-25T09:16:40.065Z</time></trkpt><trkpt lat="42.2857867" lon="12.7945933"><ele>427.99999999999994</ele><time>2026-04-25T09:16:42.065Z</time></trkpt><trkpt lat="42.28583" lon="12.79472"><ele>428.0</ele><time>2026-04-25T09:16:44.066Z</time></trkpt><trkpt lat="42.285885" lon="12.79486"><ele>428.0</ele><time>2026-04-25T09:16:46.065Z</time></trkpt><trkpt lat="42.2859167" lon="12.7949433"><ele>428.0</ele><time>2026-04-25T09:16:47.065Z</time></trkpt><trkpt lat="42.2859467" lon="12.79503"><ele>427.99999999999994</ele><time>2026-04-25T09:16:48.065Z</time></trkpt><trkpt lat="42.2859717" lon="12.7951083"><ele>428.0</ele><time>2026-04-25T09:16:49.067Z</time></trkpt><trkpt lat="42.2859817" lon="12.7952733"><ele>427.8333333333333</ele><time>2026-04-25T09:16:51.066Z</time></trkpt><trkpt lat="42.2859667" lon="12.7953733"><ele>427.66666666666663</ele><time>2026-04-25T09:16:52.066Z</time></trkpt><trkpt lat="42.2859583" lon="12.7954733"><ele>427.5</ele><time>2026-04-25T09:16:53.066Z</time></trkpt><trkpt lat="42.2859533" lon="12.7955617"><ele>427.33333333333337</ele><time>2026-04-25T09:16:54.064Z</time></trkpt><trkpt lat="42.285945" lon="12.7956983"><ele>427.1666666666667</ele><time>2026-04-25T09:16:56.066Z</time></trkpt><trkpt lat="42.285945" lon="12.7957917"><ele>427.0</ele><time>2026-04-25T09:16:59.063Z</time></trkpt><trkpt lat="42.286" lon="12.7957417"><ele>427.0</ele><time>2026-04-25T09:17:06.065Z</time></trkpt><trkpt lat="42.2860717" lon="12.7956017"><ele>427.0</ele><time>2026-04-25T09:17:08.066Z</time></trkpt><trkpt lat="42.286125" lon="12.79548"><ele>427.0</ele><time>2026-04-25T09:17:10.067Z</time></trkpt></trkseg><trkseg><trkpt lat="42.286187" lon="12.7954565"><ele>427.00000000000006</ele><time>2026-04-25T09:30:01.092Z</time></trkpt><trkpt lat="42.286095" lon="12.7954867"><ele>427.0</ele><time>2026-04-25T09:30:56.065Z</time></trkpt><trkpt lat="42.2860517" lon="12.7955833"><ele>427.0</ele><time>2026-04-25T09:30:58.065Z</time></trkpt><trkpt lat="42.2859967" lon="12.7956683"><ele>427.0</ele><time>2026-04-25T09:31:00.063Z</time></trkpt><trkpt lat="42.28598" lon="12.795755"><ele>427.00000000000006</ele><time>2026-04-25T09:31:02.064Z</time></trkpt><trkpt lat="42.2860667" lon="12.7957817"><ele>427.0</ele><time>2026-04-25T09:31:04.063Z</time></trkpt><trkpt lat="42.2861767" lon="12.7957917"><ele>427.0</ele><time>2026-04-25T09:31:06.064Z</time></trkpt><trkpt lat="42.2862983" lon="12.7958283"><ele>427.00000000000006</ele><time>2026-04-25T09:31:08.066Z</time></trkpt><trkpt lat="42.2863583" lon="12.7958833"><ele>427.00000000000006</ele><time>2026-04-25T09:31:09.064Z</time></trkpt><trkpt lat="42.2864033" lon="12.79597"><ele>427.0</ele><time>2026-04-25T09:31:10.066Z</time></trkpt><trkpt lat="42.2864367" lon="12.7960817"><ele>427.0</ele><time>2026-04-25T09:31:11.063Z</time></trkpt><trkpt lat="42.2864583" lon="12.796195"><ele>425.50000000000006</ele><time>2026-04-25T09:31:12.063Z</time></trkpt><trkpt lat="42.2864683" lon="12.7963067"><ele>424.0</ele><time>2026-04-25T09:31:13.065Z</time></trkpt><trkpt lat="42.2864717" lon="12.796415"><ele>422.5</ele><time>2026-04-25T09:31:14.066Z</time></trkpt><trkpt lat="42.286475" lon="12.7965233"><ele>421.0</ele><time>2026-04-25T09:31:15.065Z</time></trkpt><trkpt lat="42.28648" lon="12.796635"><ele>419.50000000000006</ele><time>2026-04-25T09:31:16.064Z</time></trkpt><trkpt lat="42.2864883" lon="12.7967533"><ele>418.0</ele><time>2026-04-25T09:31:17.063Z</time></trkpt><trkpt lat="42.2865067" lon="12.7968733"><ele>417.2</ele><time>2026-04-25T09:31:18.065Z</time></trkpt><trkpt lat="42.2865333" lon="12.7969983"><ele>416.4</ele><time>2026-04-25T09:31:19.063Z</time></trkpt><trkpt lat="42.2865667" lon="12.7971233"><ele>415.59999999999997</ele><time>2026-04-25T09:31:20.067Z</time></trkpt><trkpt lat="42.286605" lon="12.79725"><ele>414.79999999999995</ele><time>2026-04-25T09:31:21.063Z</time></trkpt><trkpt lat="42.2866467" lon="12.7973717"><ele>414.0</ele><time>2026-04-25T09:31:22.063Z</time></trkpt><trkpt lat="42.2866867" lon="12.7974867"><ele>414.0</ele><time>2026-04-25T09:31:23.064Z</time></trkpt><trkpt lat="42.2867267" lon="12.7975983"><ele>414.0</ele><time>2026-04-25T09:31:24.065Z</time></trkpt><trkpt lat="42.2867633" lon="12.7977083"><ele>414.0</ele><time>2026-04-25T09:31:25.067Z</time></trkpt><trkpt lat="42.2867983" lon="12.7978217"><ele>414.0</ele><time>2026-04-25T09:31:26.064Z</time></trkpt><trkpt lat="42.286835" lon="12.7979333"><ele>414.0</ele><time>2026-04-25T09:31:27.062Z</time></trkpt><trkpt lat="42.28687" lon="12.79805"><ele>413.2</ele><time>2026-04-25T09:31:28.066Z</time></trkpt><trkpt lat="42.2868883" lon="12.79817"><ele>412.4</ele><time>2026-04-25T09:31:29.065Z</time></trkpt><trkpt lat="42.286895" lon="12.7982983"><ele>411.6</ele><time>2026-04-25T09:31:30.064Z</time></trkpt><trkpt lat="42.2868883" lon="12.7984283"><ele>410.8</ele><time>2026-04-25T09:31:31.066Z</time></trkpt><trkpt lat="42.2868817" lon="12.7985567"><ele>410.0</ele><time>2026-04-25T09:31:32.064Z</time></trkpt><trkpt lat="42.286875" lon="12.7986833"><ele>409.8333333333333</ele><time>2026-04-25T09:31:33.065Z</time></trkpt><trkpt lat="42.28687" lon="12.7988083"><ele>409.66666666666663</ele><time>2026-04-25T09:31:34.064Z</time></trkpt><trkpt lat="42.2868683" lon="12.79893"><ele>409.5</ele><time>2026-04-25T09:31:35.067Z</time></trkpt><trkpt lat="42.286865" lon="12.79905"><ele>409.33333333333337</ele><time>2026-04-25T09:31:36.065Z</time></trkpt><trkpt lat="42.2868617" lon="12.7991667"><ele>409.1666666666667</ele><time>2026-04-25T09:31:37.064Z</time></trkpt><trkpt lat="42.2868667" lon="12.7992767"><ele>409.0</ele><time>2026-04-25T09:31:38.066Z</time></trkpt><trkpt lat="42.28689" lon="12.7993833"><ele>409.0</ele><time>2026-04-25T09:31:39.066Z</time></trkpt><trkpt lat="42.2869383" lon="12.799475"><ele>409.0</ele><time>2026-04-25T09:31:40.066Z</time></trkpt><trkpt lat="42.2870067" lon="12.7995483"><ele>409.0</ele><time>2026-04-25T09:31:41.065Z</time></trkpt><trkpt lat="42.2870883" lon="12.7995933"><ele>409.0</ele><time>2026-04-25T09:31:42.066Z</time></trkpt><trkpt lat="42.2871883" lon="12.799595"><ele>409.0</ele><time>2026-04-25T09:31:43.065Z</time></trkpt><trkpt lat="42.2872933" lon="12.79956"><ele>409.0</ele><time>2026-04-25T09:31:44.065Z</time></trkpt><trkpt lat="42.287395" lon="12.7995217"><ele>409.0</ele><time>2026-04-25T09:31:45.064Z</time></trkpt><trkpt lat="42.287495" lon="12.79948"><ele>409.0</ele><time>2026-04-25T09:31:46.063Z</time></trkpt><trkpt lat="42.2875967" lon="12.7994317"><ele>409.0</ele><time>2026-04-25T09:31:47.066Z</time></trkpt><trkpt lat="42.2876917" lon="12.7993733"><ele>409.0</ele><time>2026-04-25T09:31:48.064Z</time></trkpt><trkpt lat="42.28778" lon="12.7993017"><ele>411.2</ele><time>2026-04-25T09:31:49.066Z</time></trkpt><trkpt lat="42.2878667" lon="12.7992167"><ele>413.4</ele><time>2026-04-25T09:31:50.065Z</time></trkpt><trkpt lat="42.2879483" lon="12.7991217"><ele>415.6</ele><time>2026-04-25T09:31:51.065Z</time></trkpt><trkpt lat="42.2880267" lon="12.7990183"><ele>417.8</ele><time>2026-04-25T09:31:52.064Z</time></trkpt><trkpt lat="42.2880983" lon="12.798905"><ele>420.0</ele><time>2026-04-25T09:31:53.064Z</time></trkpt><trkpt lat="42.2881617" lon="12.7987867"><ele>420.0</ele><time>2026-04-25T09:31:54.066Z</time></trkpt><trkpt lat="42.2882217" lon="12.7986667"><ele>420.0</ele><time>2026-04-25T09:31:55.064Z</time></trkpt><trkpt lat="42.288275" lon="12.7985417"><ele>420.0</ele><time>2026-04-25T09:31:56.065Z</time></trkpt><trkpt lat="42.2883267" lon="12.7984133"><ele>420.0</ele><time>2026-04-25T09:31:57.064Z</time></trkpt><trkpt lat="42.2883767" lon="12.7982867"><ele>420.0</ele><time>2026-04-25T09:31:58.066Z</time></trkpt><trkpt lat="42.288425" lon="12.7981567"><ele>423.2</ele><time>2026-04-25T09:31:59.066Z</time></trkpt><trkpt lat="42.2884767" lon="12.7980333"><ele>426.4</ele><time>2026-04-25T09:32:00.067Z</time></trkpt><trkpt lat="42.2885283" lon="12.7979167"><ele>429.6</ele><time>2026-04-25T09:32:01.066Z</time></trkpt><trkpt lat="42.28858" lon="12.7978033"><ele>432.8</ele><time>2026-04-25T09:32:02.066Z</time></trkpt><trkpt lat="42.288635" lon="12.797695"><ele>436.0</ele><time>2026-04-25T09:32:03.064Z</time></trkpt><trkpt lat="42.2886967" lon="12.7975967"><ele>435.4</ele><time>2026-04-25T09:32:04.066Z</time></trkpt><trkpt lat="42.288765" lon="12.7975067"><ele>434.8</ele><time>2026-04-25T09:32:05.065Z</time></trkpt><trkpt lat="42.2888367" lon="12.7974233"><ele>434.19999999999993</ele><time>2026-04-25T09:32:06.066Z</time></trkpt><trkpt lat="42.2889067" lon="12.7973417"><ele>433.59999999999997</ele><time>2026-04-25T09:32:07.064Z</time></trkpt><trkpt lat="42.2889783" lon="12.7972617"><ele>433.0</ele><time>2026-04-25T09:32:08.065Z</time></trkpt><trkpt lat="42.289055" lon="12.7971883"><ele>433.0</ele><time>2026-04-25T09:32:09.067Z</time></trkpt><trkpt lat="42.2891333" lon="12.7971167"><ele>432.99999999999994</ele><time>2026-04-25T09:32:10.064Z</time></trkpt><trkpt lat="42.28921" lon="12.7970467"><ele>432.99999999999994</ele><time>2026-04-25T09:32:11.064Z</time></trkpt><trkpt lat="42.28929" lon="12.7969833"><ele>433.0</ele><time>2026-04-25T09:32:12.066Z</time></trkpt><trkpt lat="42.289375" lon="12.7969283"><ele>433.0</ele><time>2026-04-25T09:32:13.064Z</time></trkpt><trkpt lat="42.2894633" lon="12.7968817"><ele>433.0</ele><time>2026-04-25T09:32:14.066Z</time></trkpt><trkpt lat="42.289555" lon="12.7968417"><ele>432.99999999999994</ele><time>2026-04-25T09:32:15.065Z</time></trkpt><trkpt lat="42.2896433" lon="12.7968"><ele>432.99999999999994</ele><time>2026-04-25T09:32:16.064Z</time></trkpt><trkpt lat="42.2897317" lon="12.7967533"><ele>433.0</ele><time>2026-04-25T09:32:17.064Z</time></trkpt><trkpt lat="42.2898183" lon="12.796695"><ele>433.0</ele><time>2026-04-25T09:32:18.065Z</time></trkpt><trkpt lat="42.2899017" lon="12.79663"><ele>434.83333333333337</ele><time>2026-04-25T09:32:19.065Z</time></trkpt><trkpt lat="42.2899833" lon="12.79656"><ele>436.6666666666667</ele><time>2026-04-25T09:32:20.064Z</time></trkpt><trkpt lat="42.290055" lon="12.7964867"><ele>438.5</ele><time>2026-04-25T09:32:21.066Z</time></trkpt><trkpt lat="42.2901133" lon="12.7964167"><ele>440.33333333333337</ele><time>2026-04-25T09:32:22.064Z</time></trkpt><trkpt lat="42.290165" lon="12.7963567"><ele>442.1666666666667</ele><time>2026-04-25T09:32:23.067Z</time></trkpt><trkpt lat="42.2902133" lon="12.7963017"><ele>444.0</ele><time>2026-04-25T09:32:24.065Z</time></trkpt><trkpt lat="42.2902717" lon="12.7962383"><ele>444.0</ele><time>2026-04-25T09:32:25.064Z</time></trkpt><trkpt lat="42.2903317" lon="12.7961667"><ele>444.0</ele><time>2026-04-25T09:32:26.067Z</time></trkpt><trkpt lat="42.2903933" lon="12.796095"><ele>444.0</ele><time>2026-04-25T09:32:27.064Z</time></trkpt><trkpt lat="42.2904533" lon="12.7960217"><ele>444.0</ele><time>2026-04-25T09:32:28.063Z</time></trkpt><trkpt lat="42.290515" lon="12.7959467"><ele>444.0</ele><time>2026-04-25T09:32:29.066Z</time></trkpt><trkpt lat="42.29058" lon="12.7958683"><ele>444.0</ele><time>2026-04-25T09:32:30.068Z</time></trkpt><trkpt lat="42.290645" lon="12.7957867"><ele>444.6</ele><time>2026-04-25T09:32:31.064Z</time></trkpt><trkpt lat="42.2907067" lon="12.7957033"><ele>445.2</ele><time>2026-04-25T09:32:32.067Z</time></trkpt><trkpt lat="42.2907767" lon="12.7956167"><ele>445.80000000000007</ele><time>2026-04-25T09:32:33.065Z</time></trkpt><trkpt lat="42.2908567" lon="12.7955233"><ele>446.40000000000003</ele><time>2026-04-25T09:32:34.066Z</time></trkpt><trkpt lat="42.2909433" lon="12.7954283"><ele>447.0</ele><time>2026-04-25T09:32:35.065Z</time></trkpt><trkpt lat="42.2910267" lon="12.7953317"><ele>447.0</ele><time>2026-04-25T09:32:36.065Z</time></trkpt><trkpt lat="42.2911083" lon="12.7952467"><ele>447.00000000000006</ele><time>2026-04-25T09:32:37.064Z</time></trkpt><trkpt lat="42.29119" lon="12.7951683"><ele>447.00000000000006</ele><time>2026-04-25T09:32:38.065Z</time></trkpt><trkpt lat="42.2912717" lon="12.795095"><ele>447.0</ele><time>2026-04-25T09:32:39.066Z</time></trkpt><trkpt lat="42.2913517" lon="12.7950267"><ele>447.0</ele><time>2026-04-25T09:32:40.067Z</time></trkpt><trkpt lat="42.291435" lon="12.7949567"><ele>448.6</ele><time>2026-04-25T09:32:41.066Z</time></trkpt><trkpt lat="42.2915167" lon="12.7948867"><ele>450.20000000000005</ele><time>2026-04-25T09:32:42.065Z</time></trkpt><trkpt lat="42.2915967" lon="12.7948183"><ele>451.8</ele><time>2026-04-25T09:32:43.066Z</time></trkpt><trkpt lat="42.29168" lon="12.794755"><ele>453.4</ele><time>2026-04-25T09:32:44.067Z</time></trkpt><trkpt lat="42.2917633" lon="12.794695"><ele>455.0</ele><time>2026-04-25T09:32:45.065Z</time></trkpt><trkpt lat="42.2918433" lon="12.7946333"><ele>454.99999999999994</ele><time>2026-04-25T09:32:46.066Z</time></trkpt><trkpt lat="42.2919267" lon="12.7945783"><ele>455.0</ele><time>2026-04-25T09:32:47.066Z</time></trkpt><trkpt lat="42.29201" lon="12.7945283"><ele>455.0</ele><time>2026-04-25T09:32:48.066Z</time></trkpt><trkpt lat="42.2920933" lon="12.7944883"><ele>455.0</ele><time>2026-04-25T09:32:49.065Z</time></trkpt><trkpt lat="42.2921733" lon="12.7944583"><ele>454.99999999999994</ele><time>2026-04-25T09:32:50.067Z</time></trkpt><trkpt lat="42.2922533" lon="12.7944367"><ele>455.0</ele><time>2026-04-25T09:32:51.066Z</time></trkpt><trkpt lat="42.2923333" lon="12.7944183"><ele>456.8</ele><time>2026-04-25T09:32:52.064Z</time></trkpt><trkpt lat="42.29242" lon="12.7944017"><ele>458.6</ele><time>2026-04-25T09:32:53.063Z</time></trkpt><trkpt lat="42.2925117" lon="12.7943883"><ele>460.4</ele><time>2026-04-25T09:32:54.063Z</time></trkpt><trkpt lat="42.2926017" lon="12.7943717"><ele>462.2</ele><time>2026-04-25T09:32:55.064Z</time></trkpt><trkpt lat="42.2926917" lon="12.7943567"><ele>464.0</ele><time>2026-04-25T09:32:56.064Z</time></trkpt><trkpt lat="42.2927817" lon="12.7943533"><ele>463.99999999999994</ele><time>2026-04-25T09:32:57.063Z</time></trkpt><trkpt lat="42.2928717" lon="12.7943483"><ele>464.0</ele><time>2026-04-25T09:32:58.066Z</time></trkpt><trkpt lat="42.2929633" lon="12.794345"><ele>464.0</ele><time>2026-04-25T09:32:59.066Z</time></trkpt><trkpt lat="42.2930517" lon="12.794345"><ele>464.0</ele><time>2026-04-25T09:33:00.067Z</time></trkpt><trkpt lat="42.2931367" lon="12.7943517"><ele>463.99999999999994</ele><time>2026-04-25T09:33:01.066Z</time></trkpt><trkpt lat="42.29322" lon="12.7943617"><ele>464.0</ele><time>2026-04-25T09:33:02.069Z</time></trkpt><trkpt lat="42.2933033" lon="12.7943767"><ele>465.2</ele><time>2026-04-25T09:33:03.068Z</time></trkpt><trkpt lat="42.2933867" lon="12.794405"><ele>466.4</ele><time>2026-04-25T09:33:04.067Z</time></trkpt><trkpt lat="42.2934717" lon="12.7944467"><ele>467.6</ele><time>2026-04-25T09:33:05.067Z</time></trkpt><trkpt lat="42.2935567" lon="12.7945"><ele>468.8</ele><time>2026-04-25T09:33:06.069Z</time></trkpt><trkpt lat="42.2936433" lon="12.79456"><ele>470.0</ele><time>2026-04-25T09:33:07.066Z</time></trkpt><trkpt lat="42.293725" lon="12.794625"><ele>470.0</ele><time>2026-04-25T09:33:08.066Z</time></trkpt><trkpt lat="42.2938017" lon="12.7946933"><ele>470.0</ele><time>2026-04-25T09:33:09.068Z</time></trkpt><trkpt lat="42.2938767" lon="12.7947683"><ele>470.0</ele><time>2026-04-25T09:33:10.066Z</time></trkpt><trkpt lat="42.293945" lon="12.7948533"><ele>470.0</ele><time>2026-04-25T09:33:11.067Z</time></trkpt><trkpt lat="42.2940117" lon="12.794945"><ele>470.0</ele><time>2026-04-25T09:33:12.064Z</time></trkpt><trkpt lat="42.29408" lon="12.7950333"><ele>469.8</ele><time>2026-04-25T09:33:13.064Z</time></trkpt><trkpt lat="42.2941467" lon="12.7951267"><ele>469.6</ele><time>2026-04-25T09:33:14.067Z</time></trkpt><trkpt lat="42.2942117" lon="12.7952217"><ele>469.4</ele><time>2026-04-25T09:33:15.067Z</time></trkpt><trkpt lat="42.2942817" lon="12.795315"><ele>469.2</ele><time>2026-04-25T09:33:16.066Z</time></trkpt><trkpt lat="42.2943483" lon="12.79541"><ele>469.0</ele><time>2026-04-25T09:33:17.065Z</time></trkpt><trkpt lat="42.2944167" lon="12.795505"><ele>469.0</ele><time>2026-04-25T09:33:18.065Z</time></trkpt><trkpt lat="42.2944833" lon="12.7955967"><ele>469.0</ele><time>2026-04-25T09:33:19.064Z</time></trkpt><trkpt lat="42.29455" lon="12.7956817"><ele>469.0</ele><time>2026-04-25T09:33:20.067Z</time></trkpt><trkpt lat="42.294625" lon="12.7957517"><ele>469.0</ele><time>2026-04-25T09:33:21.067Z</time></trkpt><trkpt lat="42.29471" lon="12.7958"><ele>469.0</ele><time>2026-04-25T09:33:22.065Z</time></trkpt><trkpt lat="42.2947967" lon="12.7958233"><ele>469.00000000000006</ele><time>2026-04-25T09:33:23.065Z</time></trkpt><trkpt lat="42.2948767" lon="12.79583"><ele>469.0</ele><time>2026-04-25T09:33:24.065Z</time></trkpt><trkpt lat="42.29494" lon="12.795825"><ele>469.0</ele><time>2026-04-25T09:33:25.067Z</time></trkpt><trkpt lat="42.2950067" lon="12.7958133"><ele>469.0</ele><time>2026-04-25T09:33:27.065Z</time></trkpt><trkpt lat="42.29491" lon="12.7957717"><ele>469.00000000000006</ele><time>2026-04-25T09:34:05.065Z</time></trkpt><trkpt lat="42.294825" lon="12.7957683"><ele>469.0</ele><time>2026-04-25T09:34:06.064Z</time></trkpt><trkpt lat="42.29473" lon="12.79574"><ele>469.0</ele><time>2026-04-25T09:34:07.065Z</time></trkpt><trkpt lat="42.294635" lon="12.7956817"><ele>469.0</ele><time>2026-04-25T09:34:08.064Z</time></trkpt><trkpt lat="42.2945467" lon="12.7955983"><ele>469.0</ele><time>2026-04-25T09:34:09.066Z</time></trkpt><trkpt lat="42.29446" lon="12.7954967"><ele>469.0</ele><time>2026-04-25T09:34:10.066Z</time></trkpt><trkpt lat="42.294375" lon="12.7953817"><ele>469.0</ele><time>2026-04-25T09:34:11.066Z</time></trkpt><trkpt lat="42.29429" lon="12.7952617"><ele>469.25</ele><time>2026-04-25T09:34:12.066Z</time></trkpt><trkpt lat="42.2942017" lon="12.79514"><ele>469.5</ele><time>2026-04-25T09:34:13.065Z</time></trkpt><trkpt lat="42.2941117" lon="12.7950217"><ele>469.75</ele><time>2026-04-25T09:34:14.068Z</time></trkpt><trkpt lat="42.2940167" lon="12.7949017"><ele>470.0</ele><time>2026-04-25T09:34:15.064Z</time></trkpt><trkpt lat="42.29392" lon="12.7947817"><ele>470.0</ele><time>2026-04-25T09:34:16.065Z</time></trkpt><trkpt lat="42.2938167" lon="12.7946667"><ele>470.0</ele><time>2026-04-25T09:34:17.065Z</time></trkpt><trkpt lat="42.293705" lon="12.79456"><ele>470.0</ele><time>2026-04-25T09:34:18.064Z</time></trkpt><trkpt lat="42.2935883" lon="12.79447"><ele>470.0</ele><time>2026-04-25T09:34:19.064Z</time></trkpt><trkpt lat="42.2934667" lon="12.7944"><ele>470.0</ele><time>2026-04-25T09:34:20.066Z</time></trkpt><trkpt lat="42.2933383" lon="12.7943483"><ele>470.0</ele><time>2026-04-25T09:34:21.063Z</time></trkpt><trkpt lat="42.2932017" lon="12.7943117"><ele>470.0</ele><time>2026-04-25T09:34:22.066Z</time></trkpt><trkpt lat="42.2930583" lon="12.7942933"><ele>470.0</ele><time>2026-04-25T09:34:23.066Z</time></trkpt><trkpt lat="42.2929117" lon="12.7942917"><ele>469.75</ele><time>2026-04-25T09:34:24.066Z</time></trkpt><trkpt lat="42.2927667" lon="12.7943017"><ele>469.5</ele><time>2026-04-25T09:34:25.067Z</time></trkpt><trkpt lat="42.2926233" lon="12.7943217"><ele>469.25</ele><time>2026-04-25T09:34:26.067Z</time></trkpt><trkpt lat="42.29248" lon="12.7943467"><ele>469.0</ele><time>2026-04-25T09:34:27.067Z</time></trkpt><trkpt lat="42.292335" lon="12.7943733"><ele>465.5</ele><time>2026-04-25T09:34:28.065Z</time></trkpt><trkpt lat="42.2921917" lon="12.7944117"><ele>462.0</ele><time>2026-04-25T09:34:29.068Z</time></trkpt><trkpt lat="42.2920467" lon="12.7944667"><ele>458.5</ele><time>2026-04-25T09:34:30.067Z</time></trkpt><trkpt lat="42.2919067" lon="12.7945417"><ele>455.0</ele><time>2026-04-25T09:34:31.068Z</time></trkpt><trkpt lat="42.29177" lon="12.7946333"><ele>455.0</ele><time>2026-04-25T09:34:32.068Z</time></trkpt><trkpt lat="42.29164" lon="12.7947317"><ele>455.0</ele><time>2026-04-25T09:34:33.067Z</time></trkpt><trkpt lat="42.2915183" lon="12.79483"><ele>455.0</ele><time>2026-04-25T09:34:34.069Z</time></trkpt><trkpt lat="42.2913967" lon="12.7949283"><ele>455.0</ele><time>2026-04-25T09:34:35.067Z</time></trkpt><trkpt lat="42.2912733" lon="12.7950333"><ele>452.3333333333333</ele><time>2026-04-25T09:34:36.068Z</time></trkpt><trkpt lat="42.2911483" lon="12.795145"><ele>449.66666666666663</ele><time>2026-04-25T09:34:37.066Z</time></trkpt><trkpt lat="42.2910267" lon="12.79527"><ele>447.0</ele><time>2026-04-25T09:34:38.069Z</time></trkpt><trkpt lat="42.2909067" lon="12.7954017"><ele>447.0</ele><time>2026-04-25T09:34:39.066Z</time></trkpt><trkpt lat="42.290785" lon="12.7955417"><ele>447.0</ele><time>2026-04-25T09:34:40.066Z</time></trkpt><trkpt lat="42.2906617" lon="12.795685"><ele>447.0</ele><time>2026-04-25T09:34:41.067Z</time></trkpt><trkpt lat="42.29054" lon="12.7958333"><ele>446.0</ele><time>2026-04-25T09:34:42.067Z</time></trkpt><trkpt lat="42.29042" lon="12.7959783"><ele>445.0</ele><time>2026-04-25T09:34:43.069Z</time></trkpt><trkpt lat="42.2903017" lon="12.79612"><ele>444.0</ele><time>2026-04-25T09:34:44.066Z</time></trkpt><trkpt lat="42.2901883" lon="12.7962583"><ele>444.0</ele><time>2026-04-25T09:34:45.066Z</time></trkpt><trkpt lat="42.29007" lon="12.79639"><ele>444.0</ele><time>2026-04-25T09:34:46.067Z</time></trkpt><trkpt lat="42.289945" lon="12.7965167"><ele>444.0</ele><time>2026-04-25T09:34:47.068Z</time></trkpt><trkpt lat="42.28981" lon="12.7966283"><ele>440.33333333333337</ele><time>2026-04-25T09:34:48.064Z</time></trkpt><trkpt lat="42.289665" lon="12.796725"><ele>436.6666666666667</ele><time>2026-04-25T09:34:49.065Z</time></trkpt><trkpt lat="42.28952" lon="12.7968117"><ele>433.0</ele><time>2026-04-25T09:34:50.066Z</time></trkpt><trkpt lat="42.2893717" lon="12.7968933"><ele>433.0</ele><time>2026-04-25T09:34:51.067Z</time></trkpt><trkpt lat="42.2892317" lon="12.7969883"><ele>433.0</ele><time>2026-04-25T09:34:52.067Z</time></trkpt><trkpt lat="42.2890967" lon="12.797095"><ele>433.0</ele><time>2026-04-25T09:34:53.065Z</time></trkpt><trkpt lat="42.28897" lon="12.7972183"><ele>433.75</ele><time>2026-04-25T09:34:54.065Z</time></trkpt><trkpt lat="42.28885" lon="12.797345"><ele>434.5</ele><time>2026-04-25T09:34:55.064Z</time></trkpt><trkpt lat="42.2887417" lon="12.7974767"><ele>435.25</ele><time>2026-04-25T09:34:56.067Z</time></trkpt><trkpt lat="42.2886467" lon="12.79762"><ele>436.0</ele><time>2026-04-25T09:34:57.066Z</time></trkpt><trkpt lat="42.2885583" lon="12.7977733"><ele>436.0</ele><time>2026-04-25T09:34:58.066Z</time></trkpt><trkpt lat="42.2884783" lon="12.7979333"><ele>436.0</ele><time>2026-04-25T09:34:59.064Z</time></trkpt><trkpt lat="42.288405" lon="12.7981"><ele>436.0</ele><time>2026-04-25T09:35:00.066Z</time></trkpt><trkpt lat="42.28834" lon="12.798265"><ele>436.0</ele><time>2026-04-25T09:35:01.066Z</time></trkpt><trkpt lat="42.2882733" lon="12.7984233"><ele>434.5</ele><time>2026-04-25T09:35:02.066Z</time></trkpt><trkpt lat="42.288205" lon="12.79858"><ele>433.0</ele><time>2026-04-25T09:35:03.066Z</time></trkpt><trkpt lat="42.288135" lon="12.798735"><ele>431.5</ele><time>2026-04-25T09:35:04.067Z</time></trkpt><trkpt lat="42.2880633" lon="12.7988833"><ele>430.0</ele><time>2026-04-25T09:35:05.068Z</time></trkpt><trkpt lat="42.2879767" lon="12.7990217"><ele>430.0</ele><time>2026-04-25T09:35:06.068Z</time></trkpt><trkpt lat="42.2878767" lon="12.799145"><ele>430.0</ele><time>2026-04-25T09:35:07.067Z</time></trkpt><trkpt lat="42.2877667" lon="12.7992533"><ele>430.0</ele><time>2026-04-25T09:35:08.067Z</time></trkpt><trkpt lat="42.2876433" lon="12.7993417"><ele>430.0</ele><time>2026-04-25T09:35:09.066Z</time></trkpt><trkpt lat="42.2875167" lon="12.7994083"><ele>424.75</ele><time>2026-04-25T09:35:10.069Z</time></trkpt><trkpt lat="42.2873967" lon="12.7994617"><ele>419.5</ele><time>2026-04-25T09:35:11.065Z</time></trkpt><trkpt lat="42.2872833" lon="12.799505"><ele>414.25</ele><time>2026-04-25T09:35:12.065Z</time></trkpt><trkpt lat="42.2871767" lon="12.79953"><ele>409.0</ele><time>2026-04-25T09:35:13.066Z</time></trkpt><trkpt lat="42.287075" lon="12.79953"><ele>409.00000000000006</ele><time>2026-04-25T09:35:14.065Z</time></trkpt><trkpt lat="42.2869883" lon="12.7994867"><ele>409.0</ele><time>2026-04-25T09:35:15.063Z</time></trkpt><trkpt lat="42.2869267" lon="12.7994"><ele>409.0</ele><time>2026-04-25T09:35:16.067Z</time></trkpt><trkpt lat="42.2868833" lon="12.7992967"><ele>409.0</ele><time>2026-04-25T09:35:17.066Z</time></trkpt><trkpt lat="42.2868817" lon="12.79918"><ele>409.00000000000006</ele><time>2026-04-25T09:35:18.065Z</time></trkpt><trkpt lat="42.2868917" lon="12.799065"><ele>409.0</ele><time>2026-04-25T09:35:19.065Z</time></trkpt><trkpt lat="42.2869" lon="12.7989417"><ele>409.0</ele><time>2026-04-25T09:35:20.065Z</time></trkpt><trkpt lat="42.286905" lon="12.798805"><ele>409.0</ele><time>2026-04-25T09:35:21.066Z</time></trkpt><trkpt lat="42.286905" lon="12.7986617"><ele>409.0</ele><time>2026-04-25T09:35:22.066Z</time></trkpt><trkpt lat="42.28691" lon="12.7985167"><ele>409.0</ele><time>2026-04-25T09:35:23.066Z</time></trkpt><trkpt lat="42.2869133" lon="12.7983783"><ele>409.0</ele><time>2026-04-25T09:35:24.066Z</time></trkpt><trkpt lat="42.2869117" lon="12.7982467"><ele>409.2</ele><time>2026-04-25T09:35:25.067Z</time></trkpt><trkpt lat="42.2868967" lon="12.7981133"><ele>409.4</ele><time>2026-04-25T09:35:26.065Z</time></trkpt><trkpt lat="42.28687" lon="12.7979867"><ele>409.6</ele><time>2026-04-25T09:35:27.066Z</time></trkpt><trkpt lat="42.2868383" lon="12.7978667"><ele>409.8</ele><time>2026-04-25T09:35:28.065Z</time></trkpt><trkpt lat="42.2868033" lon="12.7977467"><ele>410.0</ele><time>2026-04-25T09:35:29.065Z</time></trkpt><trkpt lat="42.2867683" lon="12.7976333"><ele>410.8</ele><time>2026-04-25T09:35:30.065Z</time></trkpt><trkpt lat="42.2867333" lon="12.7975217"><ele>411.6</ele><time>2026-04-25T09:35:31.065Z</time></trkpt><trkpt lat="42.2866983" lon="12.79741"><ele>412.4</ele><time>2026-04-25T09:35:32.065Z</time></trkpt><trkpt lat="42.2866617" lon="12.7972983"><ele>413.2</ele><time>2026-04-25T09:35:33.066Z</time></trkpt><trkpt lat="42.28663" lon="12.7971817"><ele>414.0</ele><time>2026-04-25T09:35:34.064Z</time></trkpt><trkpt lat="42.2866017" lon="12.7970667"><ele>414.0</ele><time>2026-04-25T09:35:35.066Z</time></trkpt><trkpt lat="42.2865783" lon="12.79696"><ele>414.0</ele><time>2026-04-25T09:35:36.066Z</time></trkpt><trkpt lat="42.2865583" lon="12.79686"><ele>414.0</ele><time>2026-04-25T09:35:37.065Z</time></trkpt><trkpt lat="42.2865483" lon="12.7967733"><ele>414.0</ele><time>2026-04-25T09:35:38.067Z</time></trkpt><trkpt lat="42.286545" lon="12.7966383"><ele>414.0</ele><time>2026-04-25T09:35:40.065Z</time></trkpt><trkpt lat="42.2864967" lon="12.7965483"><ele>414.0</ele><time>2026-04-25T09:35:48.064Z</time></trkpt><trkpt lat="42.286465" lon="12.7966583"><ele>414.6666666666667</ele><time>2026-04-25T09:35:50.067Z</time></trkpt><trkpt lat="42.2864417" lon="12.7968017"><ele>415.33333333333337</ele><time>2026-04-25T09:35:52.064Z</time></trkpt><trkpt lat="42.2864017" lon="12.7969583"><ele>416.0</ele><time>2026-04-25T09:35:54.067Z</time></trkpt><trkpt lat="42.2863867" lon="12.7970433"><ele>416.6666666666667</ele><time>2026-04-25T09:35:55.064Z</time></trkpt><trkpt lat="42.28638" lon="12.797135"><ele>417.33333333333337</ele><time>2026-04-25T09:35:56.066Z</time></trkpt><trkpt lat="42.286385" lon="12.7972317"><ele>418.0</ele><time>2026-04-25T09:35:57.064Z</time></trkpt><trkpt lat="42.28641" lon="12.7973317"><ele>417.2</ele><time>2026-04-25T09:35:58.064Z</time></trkpt><trkpt lat="42.28645" lon="12.7974333"><ele>416.4</ele><time>2026-04-25T09:35:59.068Z</time></trkpt><trkpt lat="42.2865017" lon="12.7975383"><ele>415.59999999999997</ele><time>2026-04-25T09:36:00.066Z</time></trkpt><trkpt lat="42.2865533" lon="12.7976467"><ele>414.79999999999995</ele><time>2026-04-25T09:36:01.066Z</time></trkpt><trkpt lat="42.2866033" lon="12.7977617"><ele>414.0</ele><time>2026-04-25T09:36:02.067Z</time></trkpt><trkpt lat="42.2866483" lon="12.7978833"><ele>413.2</ele><time>2026-04-25T09:36:03.065Z</time></trkpt><trkpt lat="42.2866867" lon="12.7980133"><ele>412.4</ele><time>2026-04-25T09:36:04.066Z</time></trkpt><trkpt lat="42.2867117" lon="12.7981467"><ele>411.6</ele><time>2026-04-25T09:36:05.067Z</time></trkpt><trkpt lat="42.2867267" lon="12.798275"><ele>410.8</ele><time>2026-04-25T09:36:06.064Z</time></trkpt><trkpt lat="42.2867283" lon="12.7984"><ele>410.0</ele><time>2026-04-25T09:36:07.065Z</time></trkpt><trkpt lat="42.286725" lon="12.7985283"><ele>409.8</ele><time>2026-04-25T09:36:08.065Z</time></trkpt><trkpt lat="42.2867183" lon="12.7986567"><ele>409.6</ele><time>2026-04-25T09:36:09.064Z</time></trkpt><trkpt lat="42.2867133" lon="12.7987833"><ele>409.4</ele><time>2026-04-25T09:36:10.064Z</time></trkpt><trkpt lat="42.2866983" lon="12.7989117"><ele>409.2</ele><time>2026-04-25T09:36:11.065Z</time></trkpt><trkpt lat="42.2866833" lon="12.7990433"><ele>409.0</ele><time>2026-04-25T09:36:12.064Z</time></trkpt><trkpt lat="42.2866617" lon="12.799175"><ele>409.00000000000006</ele><time>2026-04-25T09:36:13.065Z</time></trkpt><trkpt lat="42.2866333" lon="12.7992967"><ele>409.0</ele><time>2026-04-25T09:36:14.065Z</time></trkpt><trkpt lat="42.286605" lon="12.79941"><ele>409.0</ele><time>2026-04-25T09:36:15.064Z</time></trkpt><trkpt lat="42.2865783" lon="12.7995183"><ele>409.0</ele><time>2026-04-25T09:36:16.066Z</time></trkpt><trkpt lat="42.2865517" lon="12.79962"><ele>409.00000000000006</ele><time>2026-04-25T09:36:17.065Z</time></trkpt><trkpt lat="42.2865233" lon="12.7997167"><ele>409.0</ele><time>2026-04-25T09:36:18.065Z</time></trkpt><trkpt lat="42.2864867" lon="12.7998167"><ele>408.1666666666667</ele><time>2026-04-25T09:36:19.064Z</time></trkpt><trkpt lat="42.28644" lon="12.7999133"><ele>407.33333333333337</ele><time>2026-04-25T09:36:20.065Z</time></trkpt><trkpt lat="42.2863833" lon="12.799995"><ele>406.5</ele><time>2026-04-25T09:36:21.064Z</time></trkpt><trkpt lat="42.2863267" lon="12.8000617"><ele>405.66666666666663</ele><time>2026-04-25T09:36:22.065Z</time></trkpt><trkpt lat="42.2862667" lon="12.8001167"><ele>404.8333333333333</ele><time>2026-04-25T09:36:23.064Z</time></trkpt><trkpt lat="42.2862083" lon="12.8001667"><ele>404.0</ele><time>2026-04-25T09:36:24.067Z</time></trkpt><trkpt lat="42.286155" lon="12.8002283"><ele>401.3333333333333</ele><time>2026-04-25T09:36:25.065Z</time></trkpt><trkpt lat="42.2861183" lon="12.8003217"><ele>398.66666666666663</ele><time>2026-04-25T09:36:26.066Z</time></trkpt><trkpt lat="42.286105" lon="12.800435"><ele>396.0</ele><time>2026-04-25T09:36:27.066Z</time></trkpt><trkpt lat="42.28612" lon="12.800545"><ele>393.33333333333337</ele><time>2026-04-25T09:36:28.066Z</time></trkpt><trkpt lat="42.2861583" lon="12.80064"><ele>390.6666666666667</ele><time>2026-04-25T09:36:29.066Z</time></trkpt><trkpt lat="42.286215" lon="12.8007167"><ele>388.0</ele><time>2026-04-25T09:36:30.065Z</time></trkpt><trkpt lat="42.2862917" lon="12.8007517"><ele>388.00000000000006</ele><time>2026-04-25T09:36:31.066Z</time></trkpt><trkpt lat="42.286375" lon="12.8007633"><ele>388.0</ele><time>2026-04-25T09:36:32.067Z</time></trkpt><trkpt lat="42.2864533" lon="12.8007733"><ele>388.0</ele><time>2026-04-25T09:36:33.065Z</time></trkpt><trkpt lat="42.2865317" lon="12.80079"><ele>388.0</ele><time>2026-04-25T09:36:34.064Z</time></trkpt><trkpt lat="42.2866067" lon="12.8008233"><ele>388.00000000000006</ele><time>2026-04-25T09:36:35.066Z</time></trkpt><trkpt lat="42.2866717" lon="12.8008767"><ele>388.0</ele><time>2026-04-25T09:36:36.066Z</time></trkpt><trkpt lat="42.28672" lon="12.8009483"><ele>391.33333333333337</ele><time>2026-04-25T09:36:37.066Z</time></trkpt><trkpt lat="42.286755" lon="12.80102"><ele>394.6666666666667</ele><time>2026-04-25T09:36:38.066Z</time></trkpt><trkpt lat="42.2867833" lon="12.801135"><ele>398.0</ele><time>2026-04-25T09:36:40.066Z</time></trkpt><trkpt lat="42.2868" lon="12.801235"><ele>401.33333333333337</ele><time>2026-04-25T09:36:43.066Z</time></trkpt><trkpt lat="42.2868283" lon="12.8013633"><ele>404.6666666666667</ele><time>2026-04-25T09:39:28.064Z</time></trkpt><trkpt lat="42.2868117" lon="12.8014467"><ele>408.0</ele><time>2026-04-25T09:40:43.066Z</time></trkpt><trkpt lat="42.2868883" lon="12.8015317"><ele>408.0</ele><time>2026-04-25T09:42:41.065Z</time></trkpt><trkpt lat="42.2869617" lon="12.8015967"><ele>408.0</ele><time>2026-04-25T09:43:40.064Z</time></trkpt><trkpt lat="42.2870117" lon="12.8017033"><ele>408.0</ele><time>2026-04-25T09:44:10.065Z</time></trkpt><trkpt lat="42.2870567" lon="12.8017667"><ele>408.0</ele><time>2026-04-25T09:44:16.066Z</time></trkpt><trkpt lat="42.2871133" lon="12.8018267"><ele>408.0</ele><time>2026-04-25T09:44:18.067Z</time></trkpt><trkpt lat="42.2871717" lon="12.801875"><ele>408.0</ele><time>2026-04-25T09:44:20.066Z</time></trkpt><trkpt lat="42.2872333" lon="12.8019233"><ele>410.1666666666667</ele><time>2026-04-25T09:44:22.064Z</time></trkpt><trkpt lat="42.287285" lon="12.8020233"><ele>412.33333333333337</ele><time>2026-04-25T09:44:25.066Z</time></trkpt><trkpt lat="42.287305" lon="12.8021333"><ele>414.5</ele><time>2026-04-25T09:44:27.065Z</time></trkpt><trkpt lat="42.2873167" lon="12.8022533"><ele>416.6666666666667</ele><time>2026-04-25T09:44:29.066Z</time></trkpt><trkpt lat="42.287345" lon="12.802365"><ele>418.83333333333337</ele><time>2026-04-25T09:44:31.068Z</time></trkpt><trkpt lat="42.28736" lon="12.80245"><ele>421.0</ele><time>2026-04-25T09:44:33.068Z</time></trkpt><trkpt lat="42.2872683" lon="12.8024533"><ele>424.20000000000005</ele><time>2026-04-25T09:46:03.064Z</time></trkpt><trkpt lat="42.2871783" lon="12.802405"><ele>427.40000000000003</ele><time>2026-04-25T09:46:29.064Z</time></trkpt><trkpt lat="42.2872583" lon="12.8024517"><ele>430.6</ele><time>2026-04-25T09:47:38.064Z</time></trkpt><trkpt lat="42.2872033" lon="12.80238"><ele>433.8</ele><time>2026-04-25T09:48:11.065Z</time></trkpt><trkpt lat="42.287075" lon="12.802345"><ele>437.0</ele><time>2026-04-25T09:49:34.065Z</time></trkpt><trkpt lat="42.2869883" lon="12.8023317"><ele>436.99999999999994</ele><time>2026-04-25T09:49:37.064Z</time></trkpt><trkpt lat="42.2868883" lon="12.8023183"><ele>437.0</ele><time>2026-04-25T09:49:40.064Z</time></trkpt><trkpt lat="42.2868067" lon="12.8023033"><ele>437.0</ele><time>2026-04-25T09:49:42.065Z</time></trkpt><trkpt lat="42.2867233" lon="12.8023233"><ele>437.0</ele><time>2026-04-25T09:49:44.066Z</time></trkpt><trkpt lat="42.2866567" lon="12.8023583"><ele>436.99999999999994</ele><time>2026-04-25T09:49:46.065Z</time></trkpt><trkpt lat="42.2866333" lon="12.8024767"><ele>437.0</ele><time>2026-04-25T09:49:53.064Z</time></trkpt><trkpt lat="42.286605" lon="12.802575"><ele>439.99999999999994</ele><time>2026-04-25T09:49:56.066Z</time></trkpt><trkpt lat="42.2866067" lon="12.8026683"><ele>443.0</ele><time>2026-04-25T09:49:58.067Z</time></trkpt><trkpt lat="42.2866033" lon="12.8027867"><ele>446.0</ele><time>2026-04-25T09:50:00.064Z</time></trkpt><trkpt lat="42.2866167" lon="12.8029083"><ele>449.0</ele><time>2026-04-25T09:50:02.064Z</time></trkpt><trkpt lat="42.2866183" lon="12.8030117"><ele>451.99999999999994</ele><time>2026-04-25T09:50:04.064Z</time></trkpt><trkpt lat="42.286615" lon="12.8031417"><ele>455.0</ele><time>2026-04-25T09:50:06.065Z</time></trkpt><trkpt lat="42.2866083" lon="12.8032383"><ele>455.0</ele><time>2026-04-25T09:50:08.065Z</time></trkpt><trkpt lat="42.2865917" lon="12.803345"><ele>455.0</ele><time>2026-04-25T09:50:12.065Z</time></trkpt><trkpt lat="42.2866117" lon="12.8034483"><ele>455.0</ele><time>2026-04-25T09:50:14.066Z</time></trkpt><trkpt lat="42.2866267" lon="12.8036"><ele>455.0</ele><time>2026-04-25T09:50:16.065Z</time></trkpt><trkpt lat="42.286635" lon="12.80369"><ele>455.0</ele><time>2026-04-25T09:50:17.064Z</time></trkpt><trkpt lat="42.28664" lon="12.8038533"><ele>457.16666666666663</ele><time>2026-04-25T09:50:19.066Z</time></trkpt><trkpt lat="42.28663" lon="12.8039733"><ele>459.3333333333333</ele><time>2026-04-25T09:50:21.065Z</time></trkpt><trkpt lat="42.286605" lon="12.804105"><ele>461.5</ele><time>2026-04-25T09:50:23.064Z</time></trkpt><trkpt lat="42.2865683" lon="12.8042417"><ele>463.66666666666663</ele><time>2026-04-25T09:50:25.067Z</time></trkpt><trkpt lat="42.286555" lon="12.8043267"><ele>465.8333333333333</ele><time>2026-04-25T09:50:26.065Z</time></trkpt><trkpt lat="42.28655" lon="12.8044233"><ele>468.0</ele><time>2026-04-25T09:50:27.063Z</time></trkpt><trkpt lat="42.2865467" lon="12.8045117"><ele>467.2</ele><time>2026-04-25T09:50:28.066Z</time></trkpt><trkpt lat="42.28654" lon="12.8046267"><ele>466.4</ele><time>2026-04-25T09:50:30.066Z</time></trkpt><trkpt lat="42.286475" lon="12.80475"><ele>465.59999999999997</ele><time>2026-04-25T09:55:49.064Z</time></trkpt><trkpt lat="42.28643" lon="12.8048683"><ele>464.79999999999995</ele><time>2026-04-25T09:55:51.064Z</time></trkpt><trkpt lat="42.2863783" lon="12.8049883"><ele>464.0</ele><time>2026-04-25T09:55:53.064Z</time></trkpt><trkpt lat="42.2863383" lon="12.80506"><ele>463.99999999999994</ele><time>2026-04-25T09:55:55.065Z</time></trkpt><trkpt lat="42.28627" lon="12.80509"><ele>464.0</ele><time>2026-04-25T09:56:21.064Z</time></trkpt><trkpt lat="42.2863467" lon="12.80506"><ele>464.0</ele><time>2026-04-25T09:56:28.065Z</time></trkpt><trkpt lat="42.2864083" lon="12.804945"><ele>464.0</ele><time>2026-04-25T09:56:30.065Z</time></trkpt><trkpt lat="42.28644" lon="12.804865"><ele>463.99999999999994</ele><time>2026-04-25T09:56:31.065Z</time></trkpt><trkpt lat="42.286465" lon="12.8047867"><ele>464.0</ele><time>2026-04-25T09:56:32.066Z</time></trkpt><trkpt lat="42.2865017" lon="12.8046767"><ele>465.99999999999994</ele><time>2026-04-25T09:56:34.065Z</time></trkpt><trkpt lat="42.2865667" lon="12.8047467"><ele>468.0</ele><time>2026-04-25T09:56:38.065Z</time></trkpt><trkpt lat="42.2865517" lon="12.8048317"><ele>470.0</ele><time>2026-04-25T09:56:39.065Z</time></trkpt><trkpt lat="42.28653" lon="12.80493"><ele>472.0</ele><time>2026-04-25T09:56:40.065Z</time></trkpt><trkpt lat="42.2865117" lon="12.805045"><ele>473.99999999999994</ele><time>2026-04-25T09:56:41.064Z</time></trkpt><trkpt lat="42.2864917" lon="12.8051767"><ele>476.0</ele><time>2026-04-25T09:56:42.064Z</time></trkpt><trkpt lat="42.2864783" lon="12.8053233"><ele>476.8333333333333</ele><time>2026-04-25T09:56:43.065Z</time></trkpt><trkpt lat="42.2864667" lon="12.8054683"><ele>477.66666666666663</ele><time>2026-04-25T09:56:44.064Z</time></trkpt><trkpt lat="42.286455" lon="12.80559"><ele>478.5</ele><time>2026-04-25T09:56:45.063Z</time></trkpt><trkpt lat="42.2864467" lon="12.8056933"><ele>479.33333333333337</ele><time>2026-04-25T09:56:46.065Z</time></trkpt><trkpt lat="42.2864467" lon="12.80578"><ele>480.1666666666667</ele><time>2026-04-25T09:56:47.067Z</time></trkpt><trkpt lat="42.2864517" lon="12.8059017"><ele>481.0</ele><time>2026-04-25T09:56:49.065Z</time></trkpt><trkpt lat="42.2864017" lon="12.80603"><ele>481.0</ele><time>2026-04-25T09:56:56.066Z</time></trkpt><trkpt lat="42.2863333" lon="12.80614"><ele>481.0</ele><time>2026-04-25T09:56:58.063Z</time></trkpt><trkpt lat="42.28627" lon="12.8062733"><ele>481.0</ele><time>2026-04-25T09:57:00.066Z</time></trkpt><trkpt lat="42.28624" lon="12.8063567"><ele>481.0</ele><time>2026-04-25T09:57:01.065Z</time></trkpt><trkpt lat="42.28621" lon="12.8064533"><ele>481.0</ele><time>2026-04-25T09:57:02.065Z</time></trkpt><trkpt lat="42.28618" lon="12.8065617"><ele>481.00000000000006</ele><time>2026-04-25T09:57:03.065Z</time></trkpt><trkpt lat="42.2861517" lon="12.806675"><ele>481.0</ele><time>2026-04-25T09:57:04.065Z</time></trkpt><trkpt lat="42.28613" lon="12.8067933"><ele>481.0</ele><time>2026-04-25T09:57:05.063Z</time></trkpt><trkpt lat="42.28611" lon="12.8069067"><ele>481.0</ele><time>2026-04-25T09:57:06.067Z</time></trkpt><trkpt lat="42.28609" lon="12.8070183"><ele>481.00000000000006</ele><time>2026-04-25T09:57:07.065Z</time></trkpt><trkpt lat="42.286075" lon="12.807135"><ele>481.0</ele><time>2026-04-25T09:57:08.066Z</time></trkpt><trkpt lat="42.2860683" lon="12.8072567"><ele>480.42857142857133</ele><time>2026-04-25T09:57:09.064Z</time></trkpt><trkpt lat="42.28606" lon="12.8073733"><ele>479.85714285714283</ele><time>2026-04-25T09:57:10.066Z</time></trkpt><trkpt lat="42.2860483" lon="12.8074717"><ele>479.2857142857142</ele><time>2026-04-25T09:57:11.063Z</time></trkpt><trkpt lat="42.2860183" lon="12.8075583"><ele>478.71428571428567</ele><time>2026-04-25T09:57:12.062Z</time></trkpt><trkpt lat="42.2859683" lon="12.8076183"><ele>478.1428571428571</ele><time>2026-04-25T09:57:13.065Z</time></trkpt><trkpt lat="42.2859033" lon="12.8076567"><ele>477.57142857142856</ele><time>2026-04-25T09:57:14.067Z</time></trkpt><trkpt lat="42.2858317" lon="12.8076967"><ele>477.0</ele><time>2026-04-25T09:57:15.067Z</time></trkpt><trkpt lat="42.2857617" lon="12.807745"><ele>477.0</ele><time>2026-04-25T09:57:16.065Z</time></trkpt><trkpt lat="42.2856867" lon="12.807805"><ele>477.0</ele><time>2026-04-25T09:57:17.064Z</time></trkpt><trkpt lat="42.28561" lon="12.8078717"><ele>477.0</ele><time>2026-04-25T09:57:18.064Z</time></trkpt><trkpt lat="42.285535" lon="12.807935"><ele>477.0</ele><time>2026-04-25T09:57:19.066Z</time></trkpt><trkpt lat="42.28547" lon="12.808"><ele>477.0</ele><time>2026-04-25T09:57:20.064Z</time></trkpt><trkpt lat="42.2854167" lon="12.8080717"><ele>477.0</ele><time>2026-04-25T09:57:21.064Z</time></trkpt><trkpt lat="42.2853833" lon="12.8081567"><ele>476.3333333333333</ele><time>2026-04-25T09:57:22.063Z</time></trkpt><trkpt lat="42.28537" lon="12.8082583"><ele>475.66666666666663</ele><time>2026-04-25T09:57:23.066Z</time></trkpt><trkpt lat="42.2853767" lon="12.8083733"><ele>475.0</ele><time>2026-04-25T09:57:24.065Z</time></trkpt><trkpt lat="42.2853867" lon="12.808495"><ele>474.3333333333333</ele><time>2026-04-25T09:57:25.065Z</time></trkpt><trkpt lat="42.2853967" lon="12.808615"><ele>473.66666666666663</ele><time>2026-04-25T09:57:26.066Z</time></trkpt><trkpt lat="42.2854017" lon="12.80874"><ele>473.0</ele><time>2026-04-25T09:57:27.065Z</time></trkpt><trkpt lat="42.2854067" lon="12.8088433"><ele>472.99999999999994</ele><time>2026-04-25T09:57:28.066Z</time></trkpt><trkpt lat="42.2854067" lon="12.8089333"><ele>473.0</ele><time>2026-04-25T09:57:29.066Z</time></trkpt><trkpt lat="42.2853717" lon="12.8090367"><ele>473.0</ele><time>2026-04-25T09:57:31.066Z</time></trkpt><trkpt lat="42.2852833" lon="12.8090267"><ele>473.0</ele><time>2026-04-25T09:57:33.067Z</time></trkpt><trkpt lat="42.2851667" lon="12.8089333"><ele>472.99999999999994</ele><time>2026-04-25T09:57:35.065Z</time></trkpt><trkpt lat="42.2851033" lon="12.808895"><ele>473.0</ele><time>2026-04-25T09:57:36.066Z</time></trkpt><trkpt lat="42.2850383" lon="12.8088583"><ele>473.0</ele><time>2026-04-25T09:57:37.066Z</time></trkpt><trkpt lat="42.284975" lon="12.80883"><ele>473.0</ele><time>2026-04-25T09:57:38.067Z</time></trkpt><trkpt lat="42.2849083" lon="12.8088283"><ele>473.0</ele><time>2026-04-25T09:57:39.067Z</time></trkpt><trkpt lat="42.28484" lon="12.8088567"><ele>473.0</ele><time>2026-04-25T09:57:40.066Z</time></trkpt><trkpt lat="42.2847733" lon="12.80888"><ele>473.0</ele><time>2026-04-25T09:57:41.066Z</time></trkpt><trkpt lat="42.284705" lon="12.8088783"><ele>473.0</ele><time>2026-04-25T09:57:42.065Z</time></trkpt><trkpt lat="42.2846333" lon="12.8088433"><ele>473.0</ele><time>2026-04-25T09:57:43.064Z</time></trkpt><trkpt lat="42.2845667" lon="12.808775"><ele>475.2</ele><time>2026-04-25T09:57:44.066Z</time></trkpt><trkpt lat="42.2845017" lon="12.808695"><ele>477.4</ele><time>2026-04-25T09:57:45.066Z</time></trkpt><trkpt lat="42.2844333" lon="12.8086317"><ele>479.59999999999997</ele><time>2026-04-25T09:57:46.065Z</time></trkpt><trkpt lat="42.2843467" lon="12.8085783"><ele>481.79999999999995</ele><time>2026-04-25T09:57:47.066Z</time></trkpt><trkpt lat="42.2842483" lon="12.8085533"><ele>484.0</ele><time>2026-04-25T09:57:48.067Z</time></trkpt><trkpt lat="42.2841483" lon="12.8085117"><ele>481.2</ele><time>2026-04-25T09:57:49.067Z</time></trkpt><trkpt lat="42.2840517" lon="12.80846"><ele>478.4</ele><time>2026-04-25T09:57:50.067Z</time></trkpt><trkpt lat="42.2839533" lon="12.8083983"><ele>475.6</ele><time>2026-04-25T09:57:51.067Z</time></trkpt><trkpt lat="42.28385" lon="12.8083433"><ele>472.8</ele><time>2026-04-25T09:57:52.065Z</time></trkpt><trkpt lat="42.283745" lon="12.8083"><ele>470.0</ele><time>2026-04-25T09:57:53.064Z</time></trkpt><trkpt lat="42.283635" lon="12.8082533"><ele>470.0</ele><time>2026-04-25T09:57:54.063Z</time></trkpt><trkpt lat="42.283525" lon="12.808205"><ele>470.0</ele><time>2026-04-25T09:57:55.063Z</time></trkpt><trkpt lat="42.283415" lon="12.808155"><ele>470.0</ele><time>2026-04-25T09:57:56.067Z</time></trkpt><trkpt lat="42.2833067" lon="12.8081217"><ele>470.0</ele><time>2026-04-25T09:57:57.064Z</time></trkpt><trkpt lat="42.2831967" lon="12.8080883"><ele>470.0</ele><time>2026-04-25T09:57:58.065Z</time></trkpt><trkpt lat="42.2830983" lon="12.808055"><ele>470.0</ele><time>2026-04-25T09:57:59.064Z</time></trkpt><trkpt lat="42.283005" lon="12.80802"><ele>470.0</ele><time>2026-04-25T09:58:00.065Z</time></trkpt><trkpt lat="42.28292" lon="12.8079933"><ele>470.0</ele><time>2026-04-25T09:58:01.066Z</time></trkpt><trkpt lat="42.28283" lon="12.8079583"><ele>470.0</ele><time>2026-04-25T09:58:02.067Z</time></trkpt><trkpt lat="42.282735" lon="12.8079417"><ele>471.4</ele><time>2026-04-25T09:58:03.064Z</time></trkpt><trkpt lat="42.28263" lon="12.807925"><ele>472.8</ele><time>2026-04-25T09:58:04.065Z</time></trkpt><trkpt lat="42.2825167" lon="12.8079183"><ele>474.20000000000005</ele><time>2026-04-25T09:58:05.066Z</time></trkpt><trkpt lat="42.282405" lon="12.807895"><ele>475.6</ele><time>2026-04-25T09:58:06.066Z</time></trkpt><trkpt lat="42.2823067" lon="12.8078567"><ele>477.0</ele><time>2026-04-25T09:58:07.065Z</time></trkpt><trkpt lat="42.2822217" lon="12.8078067"><ele>474.1666666666667</ele><time>2026-04-25T09:58:08.065Z</time></trkpt><trkpt lat="42.2821417" lon="12.8077617"><ele>471.33333333333337</ele><time>2026-04-25T09:58:09.063Z</time></trkpt><trkpt lat="42.2820617" lon="12.8077233"><ele>468.5</ele><time>2026-04-25T09:58:10.064Z</time></trkpt><trkpt lat="42.2819783" lon="12.8076917"><ele>465.6666666666667</ele><time>2026-04-25T09:58:11.067Z</time></trkpt><trkpt lat="42.2818983" lon="12.8076683"><ele>462.83333333333337</ele><time>2026-04-25T09:58:12.066Z</time></trkpt><trkpt lat="42.2818283" lon="12.8076717"><ele>460.0</ele><time>2026-04-25T09:58:13.064Z</time></trkpt><trkpt lat="42.2817667" lon="12.807705"><ele>460.00000000000006</ele><time>2026-04-25T09:58:14.066Z</time></trkpt><trkpt lat="42.2817133" lon="12.8077617"><ele>460.0</ele><time>2026-04-25T09:58:15.066Z</time></trkpt><trkpt lat="42.2816717" lon="12.80786"><ele>460.0</ele><time>2026-04-25T09:58:16.066Z</time></trkpt><trkpt lat="42.2816383" lon="12.8079883"><ele>460.0</ele><time>2026-04-25T09:58:17.063Z</time></trkpt><trkpt lat="42.281605" lon="12.80811"><ele>460.00000000000006</ele><time>2026-04-25T09:58:18.066Z</time></trkpt><trkpt lat="42.281575" lon="12.8082233"><ele>460.0</ele><time>2026-04-25T09:58:19.067Z</time></trkpt><trkpt lat="42.2815417" lon="12.8083267"><ele>460.00000000000006</ele><time>2026-04-25T09:58:20.067Z</time></trkpt><trkpt lat="42.2815" lon="12.808425"><ele>460.0</ele><time>2026-04-25T09:58:21.066Z</time></trkpt><trkpt lat="42.2814467" lon="12.8085083"><ele>460.0</ele><time>2026-04-25T09:58:22.065Z</time></trkpt><trkpt lat="42.2813817" lon="12.8085633"><ele>460.0</ele><time>2026-04-25T09:58:23.067Z</time></trkpt><trkpt lat="42.2813033" lon="12.8085867"><ele>460.00000000000006</ele><time>2026-04-25T09:58:24.066Z</time></trkpt><trkpt lat="42.2812367" lon="12.8085933"><ele>460.0</ele><time>2026-04-25T09:58:25.065Z</time></trkpt><trkpt lat="42.2811483" lon="12.8086117"><ele>461.0</ele><time>2026-04-25T09:58:27.064Z</time></trkpt><trkpt lat="42.281225" lon="12.8087167"><ele>462.0</ele><time>2026-04-25T09:58:34.065Z</time></trkpt><trkpt lat="42.281285" lon="12.80877"><ele>463.0</ele><time>2026-04-25T09:58:35.064Z</time></trkpt><trkpt lat="42.281355" lon="12.8088433"><ele>464.0</ele><time>2026-04-25T09:58:36.065Z</time></trkpt><trkpt lat="42.281425" lon="12.808935"><ele>465.0</ele><time>2026-04-25T09:58:37.064Z</time></trkpt><trkpt lat="42.281485" lon="12.8090417"><ele>465.0</ele><time>2026-04-25T09:58:38.065Z</time></trkpt><trkpt lat="42.2815383" lon="12.8091333"><ele>465.0</ele><time>2026-04-25T09:58:39.064Z</time></trkpt><trkpt lat="42.2815817" lon="12.80921"><ele>465.0</ele><time>2026-04-25T09:58:40.067Z</time></trkpt><trkpt lat="42.28166" lon="12.8093367"><ele>465.0</ele><time>2026-04-25T09:58:42.065Z</time></trkpt><trkpt lat="42.2817283" lon="12.8094633"><ele>465.0</ele><time>2026-04-25T09:58:44.068Z</time></trkpt><trkpt lat="42.2818067" lon="12.8095917"><ele>464.2</ele><time>2026-04-25T09:58:46.065Z</time></trkpt><trkpt lat="42.281855" lon="12.8096567"><ele>463.4</ele><time>2026-04-25T09:58:47.066Z</time></trkpt><trkpt lat="42.2819083" lon="12.8097167"><ele>462.6</ele><time>2026-04-25T09:58:48.066Z</time></trkpt><trkpt lat="42.2820017" lon="12.8098117"><ele>461.8</ele><time>2026-04-25T09:58:50.067Z</time></trkpt><trkpt lat="42.2820967" lon="12.80992"><ele>461.0</ele><time>2026-04-25T09:58:52.064Z</time></trkpt><trkpt lat="42.28215" lon="12.8099867"><ele>461.0</ele><time>2026-04-25T09:58:53.066Z</time></trkpt><trkpt lat="42.2822083" lon="12.8100617"><ele>461.0</ele><time>2026-04-25T09:58:54.066Z</time></trkpt><trkpt lat="42.2822583" lon="12.810135"><ele>461.0</ele><time>2026-04-25T09:58:55.065Z</time></trkpt><trkpt lat="42.282295" lon="12.81021"><ele>461.0</ele><time>2026-04-25T09:58:56.067Z</time></trkpt><trkpt lat="42.282375" lon="12.81032"><ele>461.0</ele><time>2026-04-25T09:58:58.066Z</time></trkpt><trkpt lat="42.28249" lon="12.8103967"><ele>464.8333333333333</ele><time>2026-04-25T09:59:00.066Z</time></trkpt><trkpt lat="42.282575" lon="12.81042"><ele>468.66666666666663</ele><time>2026-04-25T09:59:01.066Z</time></trkpt><trkpt lat="42.2826583" lon="12.810455"><ele>472.5</ele><time>2026-04-25T09:59:02.064Z</time></trkpt><trkpt lat="42.28274" lon="12.8104983"><ele>476.33333333333337</ele><time>2026-04-25T09:59:03.064Z</time></trkpt><trkpt lat="42.2828167" lon="12.8105367"><ele>480.1666666666667</ele><time>2026-04-25T09:59:04.065Z</time></trkpt><trkpt lat="42.2828933" lon="12.8105617"><ele>484.0</ele><time>2026-04-25T09:59:05.065Z</time></trkpt><trkpt lat="42.2829733" lon="12.8105833"><ele>484.00000000000006</ele><time>2026-04-25T09:59:06.066Z</time></trkpt><trkpt lat="42.28304" lon="12.8106"><ele>484.0</ele><time>2026-04-25T09:59:07.065Z</time></trkpt><trkpt lat="42.283125" lon="12.8106783"><ele>484.0</ele><time>2026-04-25T09:59:09.066Z</time></trkpt><trkpt lat="42.2831633" lon="12.8107483"><ele>484.0</ele><time>2026-04-25T09:59:10.066Z</time></trkpt><trkpt lat="42.28321" lon="12.8108233"><ele>484.00000000000006</ele><time>2026-04-25T09:59:11.067Z</time></trkpt><trkpt lat="42.2832633" lon="12.8109017"><ele>484.0</ele><time>2026-04-25T09:59:12.065Z</time></trkpt><trkpt lat="42.283335" lon="12.8109817"><ele>485.6</ele><time>2026-04-25T09:59:13.064Z</time></trkpt><trkpt lat="42.28341" lon="12.811065"><ele>487.2</ele><time>2026-04-25T09:59:14.065Z</time></trkpt><trkpt lat="42.28348" lon="12.8111483"><ele>488.80000000000007</ele><time>2026-04-25T09:59:15.066Z</time></trkpt><trkpt lat="42.2835483" lon="12.81123"><ele>490.40000000000003</ele><time>2026-04-25T09:59:16.068Z</time></trkpt><trkpt lat="42.2836217" lon="12.8113233"><ele>492.0</ele><time>2026-04-25T09:59:17.065Z</time></trkpt><trkpt lat="42.2836917" lon="12.81141"><ele>492.0</ele><time>2026-04-25T09:59:18.067Z</time></trkpt><trkpt lat="42.2837533" lon="12.8114983"><ele>492.0</ele><time>2026-04-25T09:59:19.067Z</time></trkpt><trkpt lat="42.283805" lon="12.811585"><ele>492.0</ele><time>2026-04-25T09:59:20.066Z</time></trkpt><trkpt lat="42.2838417" lon="12.81166"><ele>492.0</ele><time>2026-04-25T09:59:21.064Z</time></trkpt><trkpt lat="42.2838967" lon="12.811735"><ele>492.0</ele><time>2026-04-25T10:00:50.064Z</time></trkpt><trkpt lat="42.2839783" lon="12.811825"><ele>492.0</ele><time>2026-04-25T10:00:52.065Z</time></trkpt><trkpt lat="42.28404" lon="12.8118767"><ele>496.8</ele><time>2026-04-25T10:00:53.064Z</time></trkpt><trkpt lat="42.2841117" lon="12.81194"><ele>501.6</ele><time>2026-04-25T10:00:54.064Z</time></trkpt><trkpt lat="42.2842017" lon="12.8120067"><ele>506.40000000000003</ele><time>2026-04-25T10:00:55.065Z</time></trkpt><trkpt lat="42.2843" lon="12.8120767"><ele>511.20000000000005</ele><time>2026-04-25T10:00:56.068Z</time></trkpt><trkpt lat="42.284395" lon="12.8121533"><ele>516.0</ele><time>2026-04-25T10:00:57.065Z</time></trkpt><trkpt lat="42.2844833" lon="12.8122233"><ele>516.0</ele><time>2026-04-25T10:00:58.065Z</time></trkpt><trkpt lat="42.28457" lon="12.812285"><ele>516.0</ele><time>2026-04-25T10:00:59.066Z</time></trkpt><trkpt lat="42.2846533" lon="12.812355"><ele>516.0</ele><time>2026-04-25T10:01:00.066Z</time></trkpt><trkpt lat="42.2847433" lon="12.81243"><ele>516.0</ele><time>2026-04-25T10:01:01.066Z</time></trkpt><trkpt lat="42.284825" lon="12.8125083"><ele>516.0</ele><time>2026-04-25T10:01:02.067Z</time></trkpt><trkpt lat="42.2849117" lon="12.81257"><ele>522.6</ele><time>2026-04-25T10:01:03.067Z</time></trkpt><trkpt lat="42.2849967" lon="12.8126283"><ele>529.2</ele><time>2026-04-25T10:01:04.064Z</time></trkpt><trkpt lat="42.2850883" lon="12.81267"><ele>535.8</ele><time>2026-04-25T10:01:05.066Z</time></trkpt><trkpt lat="42.2851917" lon="12.8127"><ele>542.4</ele><time>2026-04-25T10:01:06.066Z</time></trkpt><trkpt lat="42.2852883" lon="12.812745"><ele>549.0</ele><time>2026-04-25T10:01:07.066Z</time></trkpt><trkpt lat="42.28538" lon="12.8127933"><ele>549.1666666666666</ele><time>2026-04-25T10:01:08.067Z</time></trkpt><trkpt lat="42.2854633" lon="12.8128283"><ele>549.3333333333334</ele><time>2026-04-25T10:01:09.065Z</time></trkpt><trkpt lat="42.2855417" lon="12.8128567"><ele>549.5</ele><time>2026-04-25T10:01:10.065Z</time></trkpt><trkpt lat="42.2856183" lon="12.8128817"><ele>549.6666666666667</ele><time>2026-04-25T10:01:11.064Z</time></trkpt><trkpt lat="42.2856917" lon="12.81291"><ele>549.8333333333334</ele><time>2026-04-25T10:01:12.065Z</time></trkpt><trkpt lat="42.2858017" lon="12.812975"><ele>550.0</ele><time>2026-04-25T10:01:14.067Z</time></trkpt><trkpt lat="42.2858933" lon="12.813055"><ele>552.4</ele><time>2026-04-25T10:01:16.062Z</time></trkpt><trkpt lat="42.28599" lon="12.8131383"><ele>554.8</ele><time>2026-04-25T10:01:18.065Z</time></trkpt><trkpt lat="42.28601" lon="12.81331"><ele>557.2</ele><time>2026-04-25T10:01:20.065Z</time></trkpt><trkpt lat="42.2859967" lon="12.8134067"><ele>559.6</ele><time>2026-04-25T10:01:21.064Z</time></trkpt><trkpt lat="42.28599" lon="12.8135067"><ele>562.0</ele><time>2026-04-25T10:01:22.065Z</time></trkpt><trkpt lat="42.285985" lon="12.8136083"><ele>563.2</ele><time>2026-04-25T10:01:23.065Z</time></trkpt><trkpt lat="42.2859917" lon="12.8137267"><ele>564.4000000000001</ele><time>2026-04-25T10:01:24.066Z</time></trkpt><trkpt lat="42.2860083" lon="12.813855"><ele>565.5999999999999</ele><time>2026-04-25T10:01:25.066Z</time></trkpt><trkpt lat="42.28603" lon="12.81399"><ele>566.8</ele><time>2026-04-25T10:01:26.065Z</time></trkpt><trkpt lat="42.2860667" lon="12.8141083"><ele>568.0</ele><time>2026-04-25T10:01:27.065Z</time></trkpt><trkpt lat="42.2861067" lon="12.8142117"><ele>568.0</ele><time>2026-04-25T10:01:28.065Z</time></trkpt><trkpt lat="42.286145" lon="12.8142983"><ele>568.0</ele><time>2026-04-25T10:01:29.065Z</time></trkpt><trkpt lat="42.28619" lon="12.8144217"><ele>568.0</ele><time>2026-04-25T10:01:31.066Z</time></trkpt><trkpt lat="42.2862317" lon="12.8145933"><ele>568.0</ele><time>2026-04-25T10:02:45.064Z</time></trkpt><trkpt lat="42.2862766" lon="12.814745"><ele>568.0</ele><time>2026-04-25T10:04:33.114Z</time></trkpt><trkpt lat="42.2863082" lon="12.8148199"><ele>567.8</ele><time>2026-04-25T10:04:35.112Z</time></trkpt><trkpt lat="42.2863767" lon="12.8149133"><ele>567.5999999999999</ele><time>2026-04-25T10:04:36.065Z</time></trkpt><trkpt lat="42.2864433" lon="12.8149767"><ele>567.4000000000001</ele><time>2026-04-25T10:04:38.064Z</time></trkpt><trkpt lat="42.286525" lon="12.8150517"><ele>567.2</ele><time>2026-04-25T10:04:40.065Z</time></trkpt><trkpt lat="42.2866183" lon="12.8151283"><ele>567.0</ele><time>2026-04-25T10:04:42.064Z</time></trkpt><trkpt lat="42.2867267" lon="12.81522"><ele>566.6666666666666</ele><time>2026-04-25T10:04:44.065Z</time></trkpt><trkpt lat="42.286795" lon="12.8152667"><ele>566.3333333333334</ele><time>2026-04-25T10:04:45.065Z</time></trkpt><trkpt lat="42.2868767" lon="12.8153183"><ele>566.0</ele><time>2026-04-25T10:04:46.066Z</time></trkpt><trkpt lat="42.28696" lon="12.815365"><ele>565.6666666666667</ele><time>2026-04-25T10:04:47.065Z</time></trkpt><trkpt lat="42.2870267" lon="12.815405"><ele>565.3333333333334</ele><time>2026-04-25T10:04:48.065Z</time></trkpt><trkpt lat="42.2871183" lon="12.8154533"><ele>565.0</ele><time>2026-04-25T10:04:50.067Z</time></trkpt><trkpt lat="42.2871833" lon="12.81552"><ele>565.0</ele><time>2026-04-25T10:04:53.066Z</time></trkpt><trkpt lat="42.2872267" lon="12.81544"><ele>565.0</ele><time>2026-04-25T10:04:58.066Z</time></trkpt><trkpt lat="42.287285" lon="12.815395"><ele>565.0</ele><time>2026-04-25T10:05:00.065Z</time></trkpt><trkpt lat="42.28735" lon="12.8154167"><ele>565.0</ele><time>2026-04-25T10:05:03.063Z</time></trkpt><trkpt lat="42.2873867" lon="12.815515"><ele>565.0</ele><time>2026-04-25T10:05:07.065Z</time></trkpt><trkpt lat="42.2874733" lon="12.8155617"><ele>565.0</ele><time>2026-04-25T10:05:10.064Z</time></trkpt><trkpt lat="42.2875267" lon="12.8156267"><ele>571.0</ele><time>2026-04-25T10:05:12.063Z</time></trkpt><trkpt lat="42.2875783" lon="12.815715"><ele>577.0</ele><time>2026-04-25T10:05:14.065Z</time></trkpt><trkpt lat="42.2876517" lon="12.8157717"><ele>583.0</ele><time>2026-04-25T10:05:16.065Z</time></trkpt><trkpt lat="42.2877183" lon="12.81574"><ele>589.0</ele><time>2026-04-25T10:05:18.064Z</time></trkpt><trkpt lat="42.28779" lon="12.8157233"><ele>595.0</ele><time>2026-04-25T10:05:21.063Z</time></trkpt><trkpt lat="42.2878283" lon="12.8157983"><ele>601.0</ele><time>2026-04-25T10:05:23.065Z</time></trkpt><trkpt lat="42.2878683" lon="12.81589"><ele>601.0</ele><time>2026-04-25T10:05:25.065Z</time></trkpt><trkpt lat="42.287945" lon="12.8158533"><ele>601.0</ele><time>2026-04-25T10:05:29.067Z</time></trkpt><trkpt lat="42.28801" lon="12.815785"><ele>601.0</ele><time>2026-04-25T10:05:31.066Z</time></trkpt><trkpt lat="42.2880933" lon="12.8157133"><ele>601.0</ele><time>2026-04-25T10:05:33.064Z</time></trkpt><trkpt lat="42.288165" lon="12.8156433"><ele>601.0</ele><time>2026-04-25T10:05:35.066Z</time></trkpt><trkpt lat="42.2882167" lon="12.8157183"><ele>601.0</ele><time>2026-04-25T10:05:49.063Z</time></trkpt><trkpt lat="42.28827" lon="12.8157983"><ele>606.5</ele><time>2026-04-25T10:05:51.065Z</time></trkpt><trkpt lat="42.2883017" lon="12.815895"><ele>612.0</ele><time>2026-04-25T10:05:53.064Z</time></trkpt><trkpt lat="42.2883333" lon="12.8159767"><ele>617.5</ele><time>2026-04-25T10:05:55.065Z</time></trkpt><trkpt lat="42.288365" lon="12.8160683"><ele>623.0</ele><time>2026-04-25T10:05:57.066Z</time></trkpt><trkpt lat="42.2884067" lon="12.81615"><ele>628.5</ele><time>2026-04-25T10:05:59.067Z</time></trkpt><trkpt lat="42.2884433" lon="12.8162283"><ele>634.0</ele><time>2026-04-25T10:06:01.066Z</time></trkpt><trkpt lat="42.2884933" lon="12.8163317"><ele>634.8333333333334</ele><time>2026-04-25T10:06:04.065Z</time></trkpt><trkpt lat="42.2885367" lon="12.8164017"><ele>635.6666666666667</ele><time>2026-04-25T10:06:06.066Z</time></trkpt><trkpt lat="42.2885867" lon="12.81648"><ele>636.5</ele><time>2026-04-25T10:06:09.065Z</time></trkpt><trkpt lat="42.28867" lon="12.81646"><ele>637.3333333333334</ele><time>2026-04-25T10:06:13.064Z</time></trkpt><trkpt lat="42.288765" lon="12.8164683"><ele>638.1666666666666</ele><time>2026-04-25T10:06:16.064Z</time></trkpt><trkpt lat="42.2888517" lon="12.816495"><ele>639.0</ele><time>2026-04-25T10:06:18.064Z</time></trkpt><trkpt lat="42.2889383" lon="12.8165133"><ele>644.3333333333334</ele><time>2026-04-25T10:06:20.066Z</time></trkpt><trkpt lat="42.2890017" lon="12.8165183"><ele>649.6666666666666</ele><time>2026-04-25T10:06:22.064Z</time></trkpt><trkpt lat="42.2890467" lon="12.8164383"><ele>655.0</ele><time>2026-04-25T10:06:25.065Z</time></trkpt><trkpt lat="42.2891133" lon="12.8163783"><ele>660.3333333333333</ele><time>2026-04-25T10:06:28.065Z</time></trkpt><trkpt lat="42.289185" lon="12.816325"><ele>665.6666666666666</ele><time>2026-04-25T10:06:31.066Z</time></trkpt><trkpt lat="42.2892217" lon="12.8162217"><ele>671.0</ele><time>2026-04-25T10:06:33.065Z</time></trkpt><trkpt lat="42.2892683" lon="12.8161467"><ele>671.0</ele><time>2026-04-25T10:06:35.066Z</time></trkpt><trkpt lat="42.289345" lon="12.8161183"><ele>671.0</ele><time>2026-04-25T10:07:04.065Z</time></trkpt><trkpt lat="42.2894183" lon="12.8161917"><ele>671.0</ele><time>2026-04-25T10:07:07.067Z</time></trkpt><trkpt lat="42.2895017" lon="12.81627"><ele>671.0</ele><time>2026-04-25T10:07:09.067Z</time></trkpt><trkpt lat="42.289605" lon="12.8163733"><ele>671.0</ele><time>2026-04-25T10:07:11.066Z</time></trkpt><trkpt lat="42.2896683" lon="12.8164283"><ele>671.0</ele><time>2026-04-25T10:07:12.064Z</time></trkpt><trkpt lat="42.2897367" lon="12.816475"><ele>671.0</ele><time>2026-04-25T10:07:13.067Z</time></trkpt><trkpt lat="42.2898067" lon="12.8165133"><ele>671.0</ele><time>2026-04-25T10:07:14.067Z</time></trkpt><trkpt lat="42.2898683" lon="12.8165533"><ele>671.0</ele><time>2026-04-25T10:07:15.065Z</time></trkpt><trkpt lat="42.2899717" lon="12.8166217"><ele>671.0</ele><time>2026-04-25T10:07:17.064Z</time></trkpt><trkpt lat="42.2900667" lon="12.8166133"><ele>671.0</ele><time>2026-04-25T10:07:19.065Z</time></trkpt><trkpt lat="42.2901483" lon="12.81661"><ele>674.8333333333333</ele><time>2026-04-25T10:07:21.066Z</time></trkpt><trkpt lat="42.2902233" lon="12.8166817"><ele>678.6666666666666</ele><time>2026-04-25T10:07:23.066Z</time></trkpt><trkpt lat="42.2902867" lon="12.816765"><ele>682.5</ele><time>2026-04-25T10:07:25.065Z</time></trkpt><trkpt lat="42.290345" lon="12.8168217"><ele>686.3333333333334</ele><time>2026-04-25T10:07:32.067Z</time></trkpt><trkpt lat="42.2903933" lon="12.81691"><ele>690.1666666666667</ele><time>2026-04-25T10:07:36.066Z</time></trkpt><trkpt lat="42.29044" lon="12.8170067"><ele>694.0</ele><time>2026-04-25T10:07:38.067Z</time></trkpt><trkpt lat="42.290505" lon="12.8171033"><ele>694.3333333333334</ele><time>2026-04-25T10:07:40.065Z</time></trkpt><trkpt lat="42.290555" lon="12.81724"><ele>694.6666666666667</ele><time>2026-04-25T10:07:42.068Z</time></trkpt><trkpt lat="42.2906283" lon="12.8173383"><ele>695.0</ele><time>2026-04-25T10:07:44.065Z</time></trkpt><trkpt lat="42.2906933" lon="12.8174117"><ele>695.3333333333334</ele><time>2026-04-25T10:07:46.066Z</time></trkpt><trkpt lat="42.290715" lon="12.8175017"><ele>695.6666666666666</ele><time>2026-04-25T10:07:48.067Z</time></trkpt><trkpt lat="42.290755" lon="12.817585"><ele>696.0</ele><time>2026-04-25T10:07:50.066Z</time></trkpt><trkpt lat="42.2908083" lon="12.8176783"><ele>702.1666666666666</ele><time>2026-04-25T10:07:52.065Z</time></trkpt><trkpt lat="42.2908717" lon="12.8177367"><ele>708.3333333333334</ele><time>2026-04-25T10:07:55.066Z</time></trkpt><trkpt lat="42.2909317" lon="12.8178"><ele>714.5</ele><time>2026-04-25T10:07:59.066Z</time></trkpt><trkpt lat="42.291" lon="12.8178683"><ele>720.6666666666667</ele><time>2026-04-25T10:08:01.067Z</time></trkpt><trkpt lat="42.2910433" lon="12.8179417"><ele>726.8333333333334</ele><time>2026-04-25T10:08:03.066Z</time></trkpt><trkpt lat="42.291065" lon="12.818065"><ele>733.0</ele><time>2026-04-25T10:08:05.065Z</time></trkpt><trkpt lat="42.291115" lon="12.8181983"><ele>733.0</ele><time>2026-04-25T10:08:07.066Z</time></trkpt><trkpt lat="42.2911367" lon="12.8183183"><ele>733.0</ele><time>2026-04-25T10:08:09.067Z</time></trkpt><trkpt lat="42.2911733" lon="12.818465"><ele>733.0</ele><time>2026-04-25T10:08:11.065Z</time></trkpt><trkpt lat="42.2912183" lon="12.81858"><ele>733.0</ele><time>2026-04-25T10:08:13.065Z</time></trkpt><trkpt lat="42.2912917" lon="12.8186133"><ele>733.0</ele><time>2026-04-25T10:08:28.064Z</time></trkpt><trkpt lat="42.2913483" lon="12.818685"><ele>732.0</ele><time>2026-04-25T10:08:32.067Z</time></trkpt><trkpt lat="42.2913917" lon="12.8187867"><ele>731.0</ele><time>2026-04-25T10:08:35.065Z</time></trkpt><trkpt lat="42.2914583" lon="12.8188717"><ele>730.0</ele><time>2026-04-25T10:08:38.066Z</time></trkpt><trkpt lat="42.2915233" lon="12.81894"><ele>729.0</ele><time>2026-04-25T10:08:40.064Z</time></trkpt><trkpt lat="42.2915967" lon="12.819025"><ele>728.0</ele><time>2026-04-25T10:08:42.064Z</time></trkpt><trkpt lat="42.291665" lon="12.8191267"><ele>732.5</ele><time>2026-04-25T10:08:44.065Z</time></trkpt><trkpt lat="42.2916767" lon="12.819225"><ele>737.0</ele><time>2026-04-25T10:09:17.064Z</time></trkpt><trkpt lat="42.2916333" lon="12.8192983"><ele>741.5</ele><time>2026-04-25T10:09:19.065Z</time></trkpt><trkpt lat="42.2916233" lon="12.819405"><ele>746.0</ele><time>2026-04-25T10:09:22.064Z</time></trkpt><trkpt lat="42.2916567" lon="12.81951"><ele>750.5</ele><time>2026-04-25T10:09:24.065Z</time></trkpt><trkpt lat="42.291725" lon="12.8196267"><ele>755.0</ele><time>2026-04-25T10:09:26.064Z</time></trkpt><trkpt lat="42.2917967" lon="12.819745"><ele>755.0</ele><time>2026-04-25T10:09:28.064Z</time></trkpt><trkpt lat="42.2918583" lon="12.8198517"><ele>755.0</ele><time>2026-04-25T10:09:30.065Z</time></trkpt><trkpt lat="42.2919317" lon="12.8199433"><ele>755.0</ele><time>2026-04-25T10:09:32.067Z</time></trkpt><trkpt lat="42.2919867" lon="12.8200333"><ele>755.0</ele><time>2026-04-25T10:09:34.067Z</time></trkpt><trkpt lat="42.29205" lon="12.8201183"><ele>755.0</ele><time>2026-04-25T10:09:36.066Z</time></trkpt><trkpt lat="42.2921217" lon="12.8201883"><ele>752.1666666666666</ele><time>2026-04-25T10:09:38.066Z</time></trkpt><trkpt lat="42.2921983" lon="12.820255"><ele>749.3333333333333</ele><time>2026-04-25T10:09:40.066Z</time></trkpt><trkpt lat="42.2922533" lon="12.8203333"><ele>746.5</ele><time>2026-04-25T10:09:42.063Z</time></trkpt><trkpt lat="42.2923267" lon="12.8204183"><ele>743.6666666666666</ele><time>2026-04-25T10:09:44.064Z</time></trkpt><trkpt lat="42.2924217" lon="12.8204883"><ele>740.8333333333334</ele><time>2026-04-25T10:09:46.065Z</time></trkpt><trkpt lat="42.2924817" lon="12.82052"><ele>738.0</ele><time>2026-04-25T10:09:47.064Z</time></trkpt><trkpt lat="42.2925867" lon="12.820605"><ele>744.8</ele><time>2026-04-25T10:09:49.066Z</time></trkpt><trkpt lat="42.2926817" lon="12.8206617"><ele>751.5999999999999</ele><time>2026-04-25T10:09:51.063Z</time></trkpt><trkpt lat="42.2927483" lon="12.820695"><ele>758.4000000000001</ele><time>2026-04-25T10:09:54.067Z</time></trkpt><trkpt lat="42.2928333" lon="12.8207167"><ele>765.2</ele><time>2026-04-25T10:09:58.064Z</time></trkpt><trkpt lat="42.2929133" lon="12.8207633"><ele>772.0</ele><time>2026-04-25T10:10:00.065Z</time></trkpt><trkpt lat="42.2930217" lon="12.8208167"><ele>775.3333333333333</ele><time>2026-04-25T10:10:02.065Z</time></trkpt><trkpt lat="42.29309" lon="12.8208517"><ele>778.6666666666666</ele><time>2026-04-25T10:10:03.065Z</time></trkpt><trkpt lat="42.2931467" lon="12.8209017"><ele>782.0</ele><time>2026-04-25T10:10:04.065Z</time></trkpt><trkpt lat="42.2931833" lon="12.8209717"><ele>785.3333333333333</ele><time>2026-04-25T10:10:05.064Z</time></trkpt><trkpt lat="42.2932283" lon="12.8211217"><ele>788.6666666666666</ele><time>2026-04-25T10:10:07.066Z</time></trkpt><trkpt lat="42.2932617" lon="12.8212783"><ele>792.0</ele><time>2026-04-25T10:10:09.066Z</time></trkpt><trkpt lat="42.293285" lon="12.8213583"><ele>792.0</ele><time>2026-04-25T10:10:10.066Z</time></trkpt><trkpt lat="42.2933117" lon="12.8214417"><ele>792.0</ele><time>2026-04-25T10:10:11.065Z</time></trkpt><trkpt lat="42.2933767" lon="12.8215817"><ele>792.0</ele><time>2026-04-25T10:10:13.065Z</time></trkpt><trkpt lat="42.2934167" lon="12.8216517"><ele>792.0</ele><time>2026-04-25T10:10:14.066Z</time></trkpt><trkpt lat="42.293465" lon="12.8217167"><ele>792.0</ele><time>2026-04-25T10:10:15.066Z</time></trkpt><trkpt lat="42.2935233" lon="12.82178"><ele>792.0</ele><time>2026-04-25T10:10:16.066Z</time></trkpt><trkpt lat="42.2935817" lon="12.8218333"><ele>789.8571428571429</ele><time>2026-04-25T10:10:17.066Z</time></trkpt><trkpt lat="42.2936417" lon="12.821885"><ele>787.7142857142857</ele><time>2026-04-25T10:10:18.066Z</time></trkpt><trkpt lat="42.29371" lon="12.8219383"><ele>785.5714285714286</ele><time>2026-04-25T10:10:19.064Z</time></trkpt><trkpt lat="42.2937783" lon="12.8219983"><ele>783.4285714285714</ele><time>2026-04-25T10:10:20.066Z</time></trkpt><trkpt lat="42.2938417" lon="12.8220667"><ele>781.2857142857142</ele><time>2026-04-25T10:10:21.066Z</time></trkpt><trkpt lat="42.293895" lon="12.82213"><ele>779.1428571428571</ele><time>2026-04-25T10:10:22.066Z</time></trkpt><trkpt lat="42.2939417" lon="12.8221917"><ele>777.0</ele><time>2026-04-25T10:10:23.067Z</time></trkpt><trkpt lat="42.293985" lon="12.8222617"><ele>779.0</ele><time>2026-04-25T10:10:24.065Z</time></trkpt><trkpt lat="42.29403" lon="12.8223367"><ele>781.0</ele><time>2026-04-25T10:10:25.067Z</time></trkpt><trkpt lat="42.2940833" lon="12.8224117"><ele>783.0</ele><time>2026-04-25T10:10:26.067Z</time></trkpt><trkpt lat="42.294135" lon="12.82248"><ele>785.0</ele><time>2026-04-25T10:10:27.067Z</time></trkpt><trkpt lat="42.2941883" lon="12.822545"><ele>787.0</ele><time>2026-04-25T10:10:28.066Z</time></trkpt><trkpt lat="42.2942383" lon="12.82261"><ele>789.0</ele><time>2026-04-25T10:10:29.065Z</time></trkpt><trkpt lat="42.2942817" lon="12.8226717"><ele>791.0</ele><time>2026-04-25T10:10:30.066Z</time></trkpt><trkpt lat="42.294335" lon="12.82277"><ele>791.0</ele><time>2026-04-25T10:10:32.066Z</time></trkpt><trkpt lat="42.2944117" lon="12.822855"><ele>791.0</ele><time>2026-04-25T10:10:34.066Z</time></trkpt><trkpt lat="42.2944917" lon="12.82295"><ele>791.0</ele><time>2026-04-25T10:10:36.065Z</time></trkpt><trkpt lat="42.2945633" lon="12.8229983"><ele>791.0</ele><time>2026-04-25T10:10:38.065Z</time></trkpt><trkpt lat="42.2946517" lon="12.8230117"><ele>791.0</ele><time>2026-04-25T10:10:40.064Z</time></trkpt><trkpt lat="42.2947517" lon="12.823025"><ele>795.0000000000001</ele><time>2026-04-25T10:10:42.067Z</time></trkpt><trkpt lat="42.2948283" lon="12.8230217"><ele>799.0</ele><time>2026-04-25T10:10:44.067Z</time></trkpt><trkpt lat="42.294915" lon="12.8229683"><ele>803.0</ele><time>2026-04-25T10:10:46.065Z</time></trkpt><trkpt lat="42.2950183" lon="12.822885"><ele>807.0</ele><time>2026-04-25T10:10:48.067Z</time></trkpt><trkpt lat="42.29508" lon="12.8228517"><ele>811.0000000000001</ele><time>2026-04-25T10:10:49.065Z</time></trkpt><trkpt lat="42.295145" lon="12.8228333"><ele>815.0</ele><time>2026-04-25T10:10:50.067Z</time></trkpt><trkpt lat="42.29521" lon="12.8228333"><ele>815.0000000000001</ele><time>2026-04-25T10:10:51.068Z</time></trkpt><trkpt lat="42.2952767" lon="12.822845"><ele>815.0</ele><time>2026-04-25T10:10:52.067Z</time></trkpt><trkpt lat="42.295345" lon="12.822865"><ele>815.0</ele><time>2026-04-25T10:10:53.068Z</time></trkpt><trkpt lat="42.2954083" lon="12.8228817"><ele>815.0</ele><time>2026-04-25T10:10:54.068Z</time></trkpt><trkpt lat="42.2955033" lon="12.8228717"><ele>815.0000000000001</ele><time>2026-04-25T10:10:56.065Z</time></trkpt><trkpt lat="42.2956" lon="12.8228317"><ele>815.0</ele><time>2026-04-25T10:10:58.065Z</time></trkpt><trkpt lat="42.2957017" lon="12.8228"><ele>815.0</ele><time>2026-04-25T10:11:00.066Z</time></trkpt><trkpt lat="42.2957967" lon="12.822845"><ele>815.0</ele><time>2026-04-25T10:11:02.065Z</time></trkpt><trkpt lat="42.2958767" lon="12.8229583"><ele>815.0</ele><time>2026-04-25T10:11:04.065Z</time></trkpt><trkpt lat="42.2959117" lon="12.8230517"><ele>815.0</ele><time>2026-04-25T10:11:06.065Z</time></trkpt><trkpt lat="42.2959567" lon="12.8231433"><ele>815.0</ele><time>2026-04-25T10:11:09.066Z</time></trkpt><trkpt lat="42.2960283" lon="12.8231867"><ele>815.0</ele><time>2026-04-25T10:11:11.065Z</time></trkpt><trkpt lat="42.2961133" lon="12.82319"><ele>815.0</ele><time>2026-04-25T10:11:13.064Z</time></trkpt><trkpt lat="42.296235" lon="12.8231883"><ele>815.0</ele><time>2026-04-25T10:11:15.065Z</time></trkpt><trkpt lat="42.2963117" lon="12.8231983"><ele>815.0</ele><time>2026-04-25T10:11:16.064Z</time></trkpt><trkpt lat="42.296455" lon="12.8232233"><ele>815.0</ele><time>2026-04-25T10:11:18.064Z</time></trkpt><trkpt lat="42.2965367" lon="12.8232367"><ele>814.8333333333334</ele><time>2026-04-25T10:11:19.067Z</time></trkpt><trkpt lat="42.29662" lon="12.8232533"><ele>814.6666666666667</ele><time>2026-04-25T10:11:20.064Z</time></trkpt><trkpt lat="42.2967" lon="12.8232817"><ele>814.5</ele><time>2026-04-25T10:11:21.066Z</time></trkpt><trkpt lat="42.2967717" lon="12.8233133"><ele>814.3333333333333</ele><time>2026-04-25T10:11:22.066Z</time></trkpt><trkpt lat="42.2968317" lon="12.82335"><ele>814.1666666666666</ele><time>2026-04-25T10:11:23.064Z</time></trkpt><trkpt lat="42.296885" lon="12.8233983"><ele>814.0</ele><time>2026-04-25T10:11:24.065Z</time></trkpt><trkpt lat="42.2969767" lon="12.82347"><ele>812.4999999999999</ele><time>2026-04-25T10:11:26.064Z</time></trkpt><trkpt lat="42.2970433" lon="12.8235533"><ele>811.0</ele><time>2026-04-25T10:11:28.067Z</time></trkpt><trkpt lat="42.2970967" lon="12.8236083"><ele>809.5</ele><time>2026-04-25T10:11:30.066Z</time></trkpt><trkpt lat="42.297195" lon="12.8236183"><ele>808.0</ele><time>2026-04-25T10:16:02.064Z</time></trkpt><trkpt lat="42.2973183" lon="12.8236233"><ele>806.4999999999999</ele><time>2026-04-25T10:16:04.065Z</time></trkpt><trkpt lat="42.2973833" lon="12.8236417"><ele>805.0</ele><time>2026-04-25T10:16:05.064Z</time></trkpt><trkpt lat="42.2974567" lon="12.82368"><ele>805.0</ele><time>2026-04-25T10:16:06.064Z</time></trkpt><trkpt lat="42.2975433" lon="12.82373"><ele>805.0</ele><time>2026-04-25T10:16:07.062Z</time></trkpt><trkpt lat="42.2976433" lon="12.823775"><ele>805.0</ele><time>2026-04-25T10:16:08.066Z</time></trkpt><trkpt lat="42.2977567" lon="12.82381"><ele>805.0</ele><time>2026-04-25T10:16:09.064Z</time></trkpt><trkpt lat="42.2978783" lon="12.8238267"><ele>805.0</ele><time>2026-04-25T10:16:10.067Z</time></trkpt><trkpt lat="42.298005" lon="12.8238367"><ele>806.75</ele><time>2026-04-25T10:16:11.065Z</time></trkpt><trkpt lat="42.298135" lon="12.8238467"><ele>808.5</ele><time>2026-04-25T10:16:12.066Z</time></trkpt><trkpt lat="42.298265" lon="12.8238683"><ele>810.25</ele><time>2026-04-25T10:16:13.067Z</time></trkpt><trkpt lat="42.2983867" lon="12.8239"><ele>812.0</ele><time>2026-04-25T10:16:14.068Z</time></trkpt><trkpt lat="42.2984867" lon="12.8239283"><ele>812.0</ele><time>2026-04-25T10:16:15.066Z</time></trkpt><trkpt lat="42.2985617" lon="12.8239667"><ele>812.0</ele><time>2026-04-25T10:16:16.066Z</time></trkpt><trkpt lat="42.2986583" lon="12.8239933"><ele>812.0</ele><time>2026-04-25T10:16:18.065Z</time></trkpt><trkpt lat="42.29874" lon="12.8239683"><ele>812.0</ele><time>2026-04-25T10:16:20.067Z</time></trkpt><trkpt lat="42.298855" lon="12.8239383"><ele>812.0</ele><time>2026-04-25T10:16:22.067Z</time></trkpt><trkpt lat="42.2989867" lon="12.8238933"><ele>812.1666666666667</ele><time>2026-04-25T10:16:24.066Z</time></trkpt><trkpt lat="42.2990533" lon="12.82386"><ele>812.3333333333334</ele><time>2026-04-25T10:16:25.066Z</time></trkpt><trkpt lat="42.29912" lon="12.82381"><ele>812.5</ele><time>2026-04-25T10:16:26.067Z</time></trkpt><trkpt lat="42.29918" lon="12.8237517"><ele>812.6666666666667</ele><time>2026-04-25T10:16:27.066Z</time></trkpt><trkpt lat="42.2992483" lon="12.823665"><ele>812.8333333333334</ele><time>2026-04-25T10:16:29.065Z</time></trkpt><trkpt lat="42.2992883" lon="12.82356"><ele>813.0</ele><time>2026-04-25T10:16:44.065Z</time></trkpt><trkpt lat="42.2993433" lon="12.823495"><ele>815.3333333333334</ele><time>2026-04-25T10:16:45.064Z</time></trkpt><trkpt lat="42.2994017" lon="12.8234217"><ele>817.6666666666667</ele><time>2026-04-25T10:16:46.066Z</time></trkpt><trkpt lat="42.2994617" lon="12.8233333"><ele>820.0</ele><time>2026-04-25T10:16:47.062Z</time></trkpt><trkpt lat="42.2995167" lon="12.82324"><ele>822.3333333333334</ele><time>2026-04-25T10:16:48.063Z</time></trkpt><trkpt lat="42.2995733" lon="12.8231417"><ele>824.6666666666667</ele><time>2026-04-25T10:16:49.064Z</time></trkpt><trkpt lat="42.2996217" lon="12.82304"><ele>827.0</ele><time>2026-04-25T10:16:50.064Z</time></trkpt><trkpt lat="42.299665" lon="12.8229633"><ele>827.0000000000001</ele><time>2026-04-25T10:16:51.065Z</time></trkpt><trkpt lat="42.2997167" lon="12.8229117"><ele>827.0</ele><time>2026-04-25T10:16:52.063Z</time></trkpt><trkpt lat="42.2998133" lon="12.8228783"><ele>827.0</ele><time>2026-04-25T10:16:54.065Z</time></trkpt><trkpt lat="42.2999167" lon="12.8228333"><ele>827.0</ele><time>2026-04-25T10:16:56.064Z</time></trkpt><trkpt lat="42.2999733" lon="12.8227883"><ele>827.0000000000001</ele><time>2026-04-25T10:16:57.065Z</time></trkpt><trkpt lat="42.3000233" lon="12.8227283"><ele>827.0</ele><time>2026-04-25T10:16:58.064Z</time></trkpt><trkpt lat="42.3000817" lon="12.82266"><ele>831.6666666666667</ele><time>2026-04-25T10:16:59.066Z</time></trkpt><trkpt lat="42.3001433" lon="12.8225983"><ele>836.3333333333334</ele><time>2026-04-25T10:17:00.065Z</time></trkpt><trkpt lat="42.3002" lon="12.8225383"><ele>841.0</ele><time>2026-04-25T10:17:01.064Z</time></trkpt><trkpt lat="42.3002533" lon="12.8224667"><ele>845.6666666666667</ele><time>2026-04-25T10:17:02.065Z</time></trkpt><trkpt lat="42.3003083" lon="12.82239"><ele>850.3333333333334</ele><time>2026-04-25T10:17:03.065Z</time></trkpt><trkpt lat="42.3003733" lon="12.82232"><ele>855.0</ele><time>2026-04-25T10:17:04.063Z</time></trkpt><trkpt lat="42.300455" lon="12.822265"><ele>855.0</ele><time>2026-04-25T10:17:05.066Z</time></trkpt><trkpt lat="42.30053" lon="12.822225"><ele>855.0</ele><time>2026-04-25T10:17:06.067Z</time></trkpt><trkpt lat="42.3005867" lon="12.8221767"><ele>855.0</ele><time>2026-04-25T10:17:07.065Z</time></trkpt><trkpt lat="42.300635" lon="12.82212"><ele>855.0</ele><time>2026-04-25T10:17:08.065Z</time></trkpt><trkpt lat="42.3006883" lon="12.822055"><ele>855.0</ele><time>2026-04-25T10:17:09.067Z</time></trkpt><trkpt lat="42.3007433" lon="12.8219933"><ele>855.0</ele><time>2026-04-25T10:17:10.066Z</time></trkpt><trkpt lat="42.3007983" lon="12.8219433"><ele>855.0</ele><time>2026-04-25T10:17:11.067Z</time></trkpt><trkpt lat="42.3008617" lon="12.8219033"><ele>855.1666666666666</ele><time>2026-04-25T10:17:12.067Z</time></trkpt><trkpt lat="42.3009283" lon="12.82185"><ele>855.3333333333333</ele><time>2026-04-25T10:17:13.067Z</time></trkpt><trkpt lat="42.3010017" lon="12.8217967"><ele>855.5</ele><time>2026-04-25T10:17:14.068Z</time></trkpt><trkpt lat="42.3010733" lon="12.8217433"><ele>855.6666666666666</ele><time>2026-04-25T10:17:15.064Z</time></trkpt><trkpt lat="42.3011483" lon="12.8217083"><ele>855.8333333333333</ele><time>2026-04-25T10:17:16.064Z</time></trkpt><trkpt lat="42.3012167" lon="12.8216783"><ele>856.0</ele><time>2026-04-25T10:17:17.068Z</time></trkpt><trkpt lat="42.3012783" lon="12.8216433"><ele>856.6666666666666</ele><time>2026-04-25T10:17:18.066Z</time></trkpt><trkpt lat="42.3013433" lon="12.8215917"><ele>857.3333333333333</ele><time>2026-04-25T10:17:19.065Z</time></trkpt><trkpt lat="42.30141" lon="12.8215167"><ele>858.0</ele><time>2026-04-25T10:17:20.065Z</time></trkpt><trkpt lat="42.301455" lon="12.82142"><ele>858.6666666666667</ele><time>2026-04-25T10:17:21.065Z</time></trkpt><trkpt lat="42.3014933" lon="12.8213417"><ele>859.3333333333334</ele><time>2026-04-25T10:17:22.064Z</time></trkpt><trkpt lat="42.3015483" lon="12.8212133"><ele>860.0</ele><time>2026-04-25T10:17:24.065Z</time></trkpt><trkpt lat="42.3015717" lon="12.8211283"><ele>860.0000000000001</ele><time>2026-04-25T10:17:25.067Z</time></trkpt><trkpt lat="42.301585" lon="12.8210217"><ele>860.0</ele><time>2026-04-25T10:17:26.066Z</time></trkpt><trkpt lat="42.301605" lon="12.820915"><ele>860.0</ele><time>2026-04-25T10:17:27.064Z</time></trkpt><trkpt lat="42.301635" lon="12.8208167"><ele>860.0</ele><time>2026-04-25T10:17:28.064Z</time></trkpt><trkpt lat="42.3016733" lon="12.820725"><ele>860.0000000000001</ele><time>2026-04-25T10:17:29.066Z</time></trkpt><trkpt lat="42.301725" lon="12.8206483"><ele>860.0</ele><time>2026-04-25T10:17:30.066Z</time></trkpt><trkpt lat="42.30178" lon="12.8205933"><ele>860.3333333333334</ele><time>2026-04-25T10:17:31.064Z</time></trkpt><trkpt lat="42.30184" lon="12.8205417"><ele>860.6666666666667</ele><time>2026-04-25T10:17:32.065Z</time></trkpt><trkpt lat="42.3018983" lon="12.8204833"><ele>861.0</ele><time>2026-04-25T10:17:33.063Z</time></trkpt><trkpt lat="42.3019533" lon="12.8204283"><ele>861.3333333333333</ele><time>2026-04-25T10:17:34.064Z</time></trkpt><trkpt lat="42.30201" lon="12.820375"><ele>861.6666666666666</ele><time>2026-04-25T10:17:35.063Z</time></trkpt><trkpt lat="42.302065" lon="12.8203117"><ele>862.0</ele><time>2026-04-25T10:17:36.064Z</time></trkpt><trkpt lat="42.30215" lon="12.8202033"><ele>861.8333333333333</ele><time>2026-04-25T10:17:38.067Z</time></trkpt><trkpt lat="42.3022383" lon="12.82008"><ele>861.6666666666666</ele><time>2026-04-25T10:17:40.064Z</time></trkpt><trkpt lat="42.30228" lon="12.8200117"><ele>861.5</ele><time>2026-04-25T10:17:41.066Z</time></trkpt><trkpt lat="42.3023333" lon="12.8199417"><ele>861.3333333333333</ele><time>2026-04-25T10:17:42.066Z</time></trkpt><trkpt lat="42.3023817" lon="12.819865"><ele>861.1666666666666</ele><time>2026-04-25T10:17:43.065Z</time></trkpt><trkpt lat="42.302435" lon="12.81978"><ele>861.0</ele><time>2026-04-25T10:17:44.066Z</time></trkpt><trkpt lat="42.3024883" lon="12.8196833"><ele>861.0</ele><time>2026-04-25T10:17:45.063Z</time></trkpt><trkpt lat="42.3025367" lon="12.8195917"><ele>861.0</ele><time>2026-04-25T10:17:46.063Z</time></trkpt><trkpt lat="42.302575" lon="12.819505"><ele>861.0</ele><time>2026-04-25T10:17:47.065Z</time></trkpt><trkpt lat="42.302615" lon="12.819425"><ele>861.0</ele><time>2026-04-25T10:17:48.063Z</time></trkpt><trkpt lat="42.3026583" lon="12.8193533"><ele>861.0</ele><time>2026-04-25T10:17:49.065Z</time></trkpt><trkpt lat="42.3027083" lon="12.8192917"><ele>861.0</ele><time>2026-04-25T10:17:50.065Z</time></trkpt><trkpt lat="42.3027633" lon="12.81924"><ele>861.0</ele><time>2026-04-25T10:17:51.066Z</time></trkpt><trkpt lat="42.30282" lon="12.8191867"><ele>861.1666666666666</ele><time>2026-04-25T10:17:52.065Z</time></trkpt><trkpt lat="42.302885" lon="12.8191333"><ele>861.3333333333333</ele><time>2026-04-25T10:17:53.063Z</time></trkpt><trkpt lat="42.3029567" lon="12.8190717"><ele>861.5</ele><time>2026-04-25T10:17:54.065Z</time></trkpt><trkpt lat="42.303035" lon="12.8190017"><ele>861.6666666666666</ele><time>2026-04-25T10:17:55.066Z</time></trkpt><trkpt lat="42.3031067" lon="12.8189217"><ele>861.8333333333333</ele><time>2026-04-25T10:17:56.067Z</time></trkpt><trkpt lat="42.3031783" lon="12.8188333"><ele>862.0</ele><time>2026-04-25T10:17:57.067Z</time></trkpt><trkpt lat="42.303245" lon="12.8187467"><ele>861.9999999999999</ele><time>2026-04-25T10:17:58.066Z</time></trkpt><trkpt lat="42.3033117" lon="12.818665"><ele>862.0</ele><time>2026-04-25T10:17:59.067Z</time></trkpt><trkpt lat="42.303375" lon="12.8185867"><ele>862.0</ele><time>2026-04-25T10:18:00.066Z</time></trkpt><trkpt lat="42.3034367" lon="12.8185167"><ele>862.0</ele><time>2026-04-25T10:18:01.065Z</time></trkpt><trkpt lat="42.3034917" lon="12.8184417"><ele>861.9999999999999</ele><time>2026-04-25T10:18:02.065Z</time></trkpt><trkpt lat="42.3035467" lon="12.818365"><ele>862.0</ele><time>2026-04-25T10:18:03.066Z</time></trkpt><trkpt lat="42.3036017" lon="12.8182917"><ele>861.1666666666666</ele><time>2026-04-25T10:18:04.066Z</time></trkpt><trkpt lat="42.3036567" lon="12.8182183"><ele>860.3333333333333</ele><time>2026-04-25T10:18:05.065Z</time></trkpt><trkpt lat="42.3037083" lon="12.8181383"><ele>859.5</ele><time>2026-04-25T10:18:06.066Z</time></trkpt><trkpt lat="42.303755" lon="12.8180433"><ele>858.6666666666667</ele><time>2026-04-25T10:18:07.067Z</time></trkpt><trkpt lat="42.303795" lon="12.8179517"><ele>857.8333333333334</ele><time>2026-04-25T10:18:08.066Z</time></trkpt><trkpt lat="42.3038233" lon="12.817865"><ele>857.0</ele><time>2026-04-25T10:18:09.065Z</time></trkpt><trkpt lat="42.3038433" lon="12.8177633"><ele>857.0</ele><time>2026-04-25T10:18:10.066Z</time></trkpt><trkpt lat="42.3038617" lon="12.8176617"><ele>857.0</ele><time>2026-04-25T10:18:11.067Z</time></trkpt><trkpt lat="42.30388" lon="12.8175617"><ele>857.0</ele><time>2026-04-25T10:18:12.066Z</time></trkpt><trkpt lat="42.30389" lon="12.8174717"><ele>857.0</ele><time>2026-04-25T10:18:13.067Z</time></trkpt><trkpt lat="42.3039217" lon="12.8173233"><ele>857.0</ele><time>2026-04-25T10:18:15.065Z</time></trkpt><trkpt lat="42.3039867" lon="12.8171833"><ele>856.8333333333334</ele><time>2026-04-25T10:18:17.067Z</time></trkpt><trkpt lat="42.3040367" lon="12.8171233"><ele>856.6666666666667</ele><time>2026-04-25T10:18:18.067Z</time></trkpt><trkpt lat="42.3040933" lon="12.817065"><ele>856.5</ele><time>2026-04-25T10:18:19.064Z</time></trkpt><trkpt lat="42.304185" lon="12.8169717"><ele>856.3333333333333</ele><time>2026-04-25T10:18:21.064Z</time></trkpt><trkpt lat="42.30424" lon="12.8169"><ele>856.1666666666666</ele><time>2026-04-25T10:18:25.064Z</time></trkpt><trkpt lat="42.3042767" lon="12.8170233"><ele>856.0</ele><time>2026-04-25T10:18:32.067Z</time></trkpt><trkpt lat="42.3042733" lon="12.8171667"><ele>855.9999999999999</ele><time>2026-04-25T10:18:34.067Z</time></trkpt><trkpt lat="42.3042733" lon="12.8172567"><ele>856.0</ele><time>2026-04-25T10:18:35.064Z</time></trkpt><trkpt lat="42.3042683" lon="12.8173583"><ele>856.0</ele><time>2026-04-25T10:18:36.065Z</time></trkpt><trkpt lat="42.30427" lon="12.817475"><ele>856.0</ele><time>2026-04-25T10:18:37.063Z</time></trkpt><trkpt lat="42.3042783" lon="12.8176"><ele>855.9999999999999</ele><time>2026-04-25T10:18:38.064Z</time></trkpt><trkpt lat="42.3042983" lon="12.8177283"><ele>856.0</ele><time>2026-04-25T10:18:39.065Z</time></trkpt><trkpt lat="42.3043217" lon="12.8178617"><ele>856.1999999999999</ele><time>2026-04-25T10:18:40.065Z</time></trkpt><trkpt lat="42.3043483" lon="12.8179867"><ele>856.3999999999999</ele><time>2026-04-25T10:18:41.066Z</time></trkpt><trkpt lat="42.3043717" lon="12.81811"><ele>856.6</ele><time>2026-04-25T10:18:42.067Z</time></trkpt><trkpt lat="42.30439" lon="12.818235"><ele>856.8</ele><time>2026-04-25T10:18:43.063Z</time></trkpt><trkpt lat="42.3043933" lon="12.8183617"><ele>857.0</ele><time>2026-04-25T10:18:44.065Z</time></trkpt><trkpt lat="42.304375" lon="12.8184933"><ele>855.6</ele><time>2026-04-25T10:18:45.066Z</time></trkpt><trkpt lat="42.3043417" lon="12.8186117"><ele>854.2</ele><time>2026-04-25T10:18:46.064Z</time></trkpt><trkpt lat="42.3042833" lon="12.8187067"><ele>852.8</ele><time>2026-04-25T10:18:47.065Z</time></trkpt><trkpt lat="42.3042" lon="12.8187833"><ele>851.4</ele><time>2026-04-25T10:18:48.065Z</time></trkpt><trkpt lat="42.3040917" lon="12.8188483"><ele>850.0</ele><time>2026-04-25T10:18:49.068Z</time></trkpt><trkpt lat="42.3039833" lon="12.81892"><ele>851.5</ele><time>2026-04-25T10:18:50.066Z</time></trkpt><trkpt lat="42.30388" lon="12.8190133"><ele>853.0</ele><time>2026-04-25T10:18:51.065Z</time></trkpt><trkpt lat="42.303795" lon="12.8191183"><ele>854.5</ele><time>2026-04-25T10:18:52.067Z</time></trkpt><trkpt lat="42.303725" lon="12.8192317"><ele>856.0</ele><time>2026-04-25T10:18:53.065Z</time></trkpt><trkpt lat="42.3036683" lon="12.8193567"><ele>856.0</ele><time>2026-04-25T10:18:54.064Z</time></trkpt><trkpt lat="42.303615" lon="12.8194867"><ele>855.9999999999999</ele><time>2026-04-25T10:18:55.066Z</time></trkpt><trkpt lat="42.30357" lon="12.8196133"><ele>855.9999999999999</ele><time>2026-04-25T10:18:56.066Z</time></trkpt><trkpt lat="42.30354" lon="12.8197267"><ele>856.0</ele><time>2026-04-25T10:18:57.066Z</time></trkpt><trkpt lat="42.303535" lon="12.81983"><ele>856.0</ele><time>2026-04-25T10:18:58.064Z</time></trkpt><trkpt lat="42.3035517" lon="12.81994"><ele>856.0</ele><time>2026-04-25T10:18:59.065Z</time></trkpt><trkpt lat="42.30359" lon="12.8200633"><ele>856.0</ele><time>2026-04-25T10:19:00.067Z</time></trkpt><trkpt lat="42.3036467" lon="12.8202117"><ele>856.0</ele><time>2026-04-25T10:19:01.066Z</time></trkpt><trkpt lat="42.3037017" lon="12.8203617"><ele>856.0</ele><time>2026-04-25T10:19:02.067Z</time></trkpt><trkpt lat="42.303755" lon="12.8205067"><ele>854.5</ele><time>2026-04-25T10:19:03.065Z</time></trkpt><trkpt lat="42.303815" lon="12.820645"><ele>853.0</ele><time>2026-04-25T10:19:04.067Z</time></trkpt><trkpt lat="42.3038933" lon="12.8207633"><ele>851.5</ele><time>2026-04-25T10:19:05.066Z</time></trkpt><trkpt lat="42.3039817" lon="12.82087"><ele>850.0</ele><time>2026-04-25T10:19:06.066Z</time></trkpt><trkpt lat="42.3040783" lon="12.8209667"><ele>849.0</ele><time>2026-04-25T10:19:07.065Z</time></trkpt><trkpt lat="42.3041867" lon="12.8210483"><ele>848.0</ele><time>2026-04-25T10:19:08.064Z</time></trkpt><trkpt lat="42.3042933" lon="12.8211267"><ele>847.0</ele><time>2026-04-25T10:19:09.064Z</time></trkpt><trkpt lat="42.3044" lon="12.8212017"><ele>846.0</ele><time>2026-04-25T10:19:10.064Z</time></trkpt><trkpt lat="42.3045" lon="12.8212767"><ele>846.0</ele><time>2026-04-25T10:19:11.064Z</time></trkpt><trkpt lat="42.3045983" lon="12.8213483"><ele>846.0</ele><time>2026-04-25T10:19:12.064Z</time></trkpt><trkpt lat="42.3046767" lon="12.8214217"><ele>846.0</ele><time>2026-04-25T10:19:13.065Z</time></trkpt><trkpt lat="42.304745" lon="12.8215017"><ele>846.0</ele><time>2026-04-25T10:19:14.065Z</time></trkpt><trkpt lat="42.3048017" lon="12.8215967"><ele>846.0</ele><time>2026-04-25T10:19:15.065Z</time></trkpt><trkpt lat="42.304855" lon="12.821695"><ele>846.1999999999999</ele><time>2026-04-25T10:19:16.063Z</time></trkpt><trkpt lat="42.3048917" lon="12.8218083"><ele>846.4</ele><time>2026-04-25T10:19:17.064Z</time></trkpt><trkpt lat="42.3049183" lon="12.8219317"><ele>846.6</ele><time>2026-04-25T10:19:18.067Z</time></trkpt><trkpt lat="42.30494" lon="12.822055"><ele>846.8</ele><time>2026-04-25T10:19:19.065Z</time></trkpt><trkpt lat="42.3049517" lon="12.822165"><ele>847.0</ele><time>2026-04-25T10:19:20.065Z</time></trkpt><trkpt lat="42.30496" lon="12.8222967"><ele>848.4999999999999</ele><time>2026-04-25T10:19:22.064Z</time></trkpt><trkpt lat="42.3049467" lon="12.8223833"><ele>850.0</ele><time>2026-04-25T10:19:37.064Z</time></trkpt><trkpt lat="42.304925" lon="12.8225133"><ele>851.5</ele><time>2026-04-25T10:19:39.064Z</time></trkpt><trkpt lat="42.304885" lon="12.8225883"><ele>853.0</ele><time>2026-04-25T10:19:40.064Z</time></trkpt><trkpt lat="42.3048383" lon="12.822675"><ele>854.4999999999999</ele><time>2026-04-25T10:19:41.063Z</time></trkpt><trkpt lat="42.304785" lon="12.822775"><ele>856.0</ele><time>2026-04-25T10:19:42.064Z</time></trkpt><trkpt lat="42.3047267" lon="12.8228867"><ele>856.0</ele><time>2026-04-25T10:19:43.064Z</time></trkpt><trkpt lat="42.3046683" lon="12.8230117"><ele>855.9999999999999</ele><time>2026-04-25T10:19:44.065Z</time></trkpt><trkpt lat="42.3046167" lon="12.823145"><ele>855.9999999999999</ele><time>2026-04-25T10:19:45.065Z</time></trkpt><trkpt lat="42.3045767" lon="12.8232583"><ele>856.0</ele><time>2026-04-25T10:19:46.064Z</time></trkpt><trkpt lat="42.304545" lon="12.8233383"><ele>856.0</ele><time>2026-04-25T10:19:47.064Z</time></trkpt><trkpt lat="42.3045" lon="12.8234217"><ele>856.0</ele><time>2026-04-25T10:19:49.065Z</time></trkpt><trkpt lat="42.3045633" lon="12.8233717"><ele>855.9999999999999</ele><time>2026-04-25T10:19:52.064Z</time></trkpt><trkpt lat="42.3046517" lon="12.8232"><ele>855.9999999999999</ele><time>2026-04-25T10:19:54.066Z</time></trkpt><trkpt lat="42.30472" lon="12.823105"><ele>856.0</ele><time>2026-04-25T10:19:55.066Z</time></trkpt><trkpt lat="42.304805" lon="12.82303"><ele>856.0</ele><time>2026-04-25T10:19:56.067Z</time></trkpt><trkpt lat="42.3048967" lon="12.822985"><ele>859.1999999999999</ele><time>2026-04-25T10:19:57.066Z</time></trkpt><trkpt lat="42.3049833" lon="12.8229683"><ele>862.3999999999999</ele><time>2026-04-25T10:19:58.065Z</time></trkpt><trkpt lat="42.3050833" lon="12.8229917"><ele>865.6</ele><time>2026-04-25T10:19:59.064Z</time></trkpt><trkpt lat="42.3051883" lon="12.82305"><ele>868.8</ele><time>2026-04-25T10:20:00.066Z</time></trkpt><trkpt lat="42.3052917" lon="12.823125"><ele>872.0</ele><time>2026-04-25T10:20:01.068Z</time></trkpt><trkpt lat="42.3053933" lon="12.8232117"><ele>872.0</ele><time>2026-04-25T10:20:02.065Z</time></trkpt><trkpt lat="42.305495" lon="12.8233083"><ele>872.0</ele><time>2026-04-25T10:20:03.065Z</time></trkpt><trkpt lat="42.3055833" lon="12.823415"><ele>872.0</ele><time>2026-04-25T10:20:04.064Z</time></trkpt><trkpt lat="42.305675" lon="12.8235083"><ele>872.0</ele><time>2026-04-25T10:20:05.063Z</time></trkpt><trkpt lat="42.3057667" lon="12.8235883"><ele>872.0</ele><time>2026-04-25T10:20:06.064Z</time></trkpt><trkpt lat="42.3058633" lon="12.823645"><ele>872.0</ele><time>2026-04-25T10:20:07.065Z</time></trkpt><trkpt lat="42.3059433" lon="12.8236817"><ele>872.0</ele><time>2026-04-25T10:20:08.065Z</time></trkpt><trkpt lat="42.30601" lon="12.8237033"><ele>872.0</ele><time>2026-04-25T10:20:09.065Z</time></trkpt><trkpt lat="42.3062333" lon="12.8237667"><ele>872.0</ele><time>2026-04-25T10:23:16.067Z</time></trkpt><trkpt lat="42.306345" lon="12.82381"><ele>872.0</ele><time>2026-04-25T10:23:17.066Z</time></trkpt><trkpt lat="42.3064667" lon="12.8238717"><ele>872.0</ele><time>2026-04-25T10:23:18.063Z</time></trkpt><trkpt lat="42.3065867" lon="12.8239317"><ele>872.0</ele><time>2026-04-25T10:23:19.064Z</time></trkpt><trkpt lat="42.3067033" lon="12.82399"><ele>870.75</ele><time>2026-04-25T10:23:20.066Z</time></trkpt><trkpt lat="42.30683" lon="12.8240467"><ele>869.5</ele><time>2026-04-25T10:23:21.066Z</time></trkpt><trkpt lat="42.3069633" lon="12.824095"><ele>868.25</ele><time>2026-04-25T10:23:22.065Z</time></trkpt><trkpt lat="42.3071" lon="12.8241567"><ele>867.0</ele><time>2026-04-25T10:23:23.065Z</time></trkpt><trkpt lat="42.3072317" lon="12.824225"><ele>869.0</ele><time>2026-04-25T10:23:24.066Z</time></trkpt><trkpt lat="42.30736" lon="12.8243083"><ele>871.0</ele><time>2026-04-25T10:23:25.065Z</time></trkpt><trkpt lat="42.3074767" lon="12.8244017"><ele>873.0</ele><time>2026-04-25T10:23:26.067Z</time></trkpt><trkpt lat="42.3075783" lon="12.8245017"><ele>875.0</ele><time>2026-04-25T10:23:27.065Z</time></trkpt><trkpt lat="42.3076517" lon="12.8246217"><ele>871.0</ele><time>2026-04-25T10:23:28.064Z</time></trkpt><trkpt lat="42.3077183" lon="12.824765"><ele>867.0</ele><time>2026-04-25T10:23:29.065Z</time></trkpt><trkpt lat="42.3077867" lon="12.824935"><ele>863.0</ele><time>2026-04-25T10:23:30.066Z</time></trkpt><trkpt lat="42.3078517" lon="12.8251167"><ele>859.0</ele><time>2026-04-25T10:23:31.064Z</time></trkpt><trkpt lat="42.3079133" lon="12.825295"><ele>859.25</ele><time>2026-04-25T10:23:32.066Z</time></trkpt><trkpt lat="42.3079767" lon="12.825475"><ele>859.5</ele><time>2026-04-25T10:23:33.064Z</time></trkpt><trkpt lat="42.3080333" lon="12.825655"><ele>859.75</ele><time>2026-04-25T10:23:34.066Z</time></trkpt><trkpt lat="42.3080783" lon="12.825845"><ele>860.0</ele><time>2026-04-25T10:23:35.065Z</time></trkpt><trkpt lat="42.3081167" lon="12.8260467"><ele>860.0</ele><time>2026-04-25T10:23:36.067Z</time></trkpt><trkpt lat="42.30815" lon="12.8262567"><ele>860.0</ele><time>2026-04-25T10:23:37.067Z</time></trkpt><trkpt lat="42.308175" lon="12.8264733"><ele>860.0</ele><time>2026-04-25T10:23:38.065Z</time></trkpt><trkpt lat="42.3082083" lon="12.82669"><ele>856.3333333333334</ele><time>2026-04-25T10:23:39.066Z</time></trkpt><trkpt lat="42.3082417" lon="12.82691"><ele>852.6666666666667</ele><time>2026-04-25T10:23:40.065Z</time></trkpt><trkpt lat="42.30828" lon="12.8271267"><ele>849.0</ele><time>2026-04-25T10:23:41.065Z</time></trkpt><trkpt lat="42.3083183" lon="12.8273283"><ele>849.0</ele><time>2026-04-25T10:23:42.067Z</time></trkpt><trkpt lat="42.3083483" lon="12.8275217"><ele>849.0</ele><time>2026-04-25T10:23:43.064Z</time></trkpt><trkpt lat="42.3083817" lon="12.8277033"><ele>849.0</ele><time>2026-04-25T10:23:44.064Z</time></trkpt><trkpt lat="42.30842" lon="12.8278783"><ele>849.0</ele><time>2026-04-25T10:23:45.063Z</time></trkpt><trkpt lat="42.3084617" lon="12.8280283"><ele>846.6</ele><time>2026-04-25T10:23:46.066Z</time></trkpt><trkpt lat="42.3085017" lon="12.8281633"><ele>844.2</ele><time>2026-04-25T10:23:47.064Z</time></trkpt><trkpt lat="42.308545" lon="12.82827"><ele>841.8000000000001</ele><time>2026-04-25T10:23:48.064Z</time></trkpt><trkpt lat="42.3085933" lon="12.8283583"><ele>839.4000000000001</ele><time>2026-04-25T10:23:49.064Z</time></trkpt><trkpt lat="42.3086483" lon="12.8284117"><ele>837.0</ele><time>2026-04-25T10:23:50.066Z</time></trkpt><trkpt lat="42.3087683" lon="12.828395"><ele>837.0</ele><time>2026-04-25T10:23:52.063Z</time></trkpt><trkpt lat="42.3088383" lon="12.828345"><ele>837.0</ele><time>2026-04-25T10:23:53.066Z</time></trkpt><trkpt lat="42.3089133" lon="12.8282683"><ele>837.0</ele><time>2026-04-25T10:23:54.066Z</time></trkpt><trkpt lat="42.3089817" lon="12.82818"><ele>837.0</ele><time>2026-04-25T10:23:55.065Z</time></trkpt><trkpt lat="42.309035" lon="12.8280617"><ele>837.0</ele><time>2026-04-25T10:23:56.066Z</time></trkpt><trkpt lat="42.30908" lon="12.8279133"><ele>838.2</ele><time>2026-04-25T10:23:57.064Z</time></trkpt><trkpt lat="42.3091367" lon="12.8277567"><ele>839.4000000000001</ele><time>2026-04-25T10:23:58.065Z</time></trkpt><trkpt lat="42.3091933" lon="12.8276283"><ele>840.5999999999999</ele><time>2026-04-25T10:23:59.064Z</time></trkpt><trkpt lat="42.3092417" lon="12.82754"><ele>841.8</ele><time>2026-04-25T10:24:00.067Z</time></trkpt><trkpt lat="42.3093083" lon="12.8274617"><ele>843.0</ele><time>2026-04-25T10:24:01.066Z</time></trkpt><trkpt lat="42.3093967" lon="12.827415"><ele>845.25</ele><time>2026-04-25T10:24:02.067Z</time></trkpt><trkpt lat="42.3095133" lon="12.8274417"><ele>847.5</ele><time>2026-04-25T10:24:03.066Z</time></trkpt><trkpt lat="42.3096383" lon="12.82749"><ele>849.75</ele><time>2026-04-25T10:24:04.067Z</time></trkpt><trkpt lat="42.3097617" lon="12.8275683"><ele>852.0</ele><time>2026-04-25T10:24:05.065Z</time></trkpt><trkpt lat="42.3098883" lon="12.8276483"><ele>846.25</ele><time>2026-04-25T10:24:06.065Z</time></trkpt><trkpt lat="42.3100117" lon="12.8277267"><ele>840.5</ele><time>2026-04-25T10:24:07.067Z</time></trkpt><trkpt lat="42.31013" lon="12.8278017"><ele>834.75</ele><time>2026-04-25T10:24:08.068Z</time></trkpt><trkpt lat="42.3102417" lon="12.8278667"><ele>829.0</ele><time>2026-04-25T10:24:09.067Z</time></trkpt><trkpt lat="42.3103467" lon="12.82793"><ele>829.0</ele><time>2026-04-25T10:24:10.067Z</time></trkpt><trkpt lat="42.3104417" lon="12.8279933"><ele>829.0</ele><time>2026-04-25T10:24:11.066Z</time></trkpt><trkpt lat="42.3105167" lon="12.8280917"><ele>829.0</ele><time>2026-04-25T10:24:12.066Z</time></trkpt><trkpt lat="42.3105717" lon="12.8282083"><ele>829.0</ele><time>2026-04-25T10:24:13.068Z</time></trkpt><trkpt lat="42.3106133" lon="12.8283433"><ele>829.0</ele><time>2026-04-25T10:24:14.066Z</time></trkpt><trkpt lat="42.31066" lon="12.8284767"><ele>827.6666666666666</ele><time>2026-04-25T10:24:15.066Z</time></trkpt><trkpt lat="42.3107083" lon="12.8285967"><ele>826.3333333333333</ele><time>2026-04-25T10:24:16.066Z</time></trkpt><trkpt lat="42.3107583" lon="12.8287017"><ele>825.0</ele><time>2026-04-25T10:24:17.065Z</time></trkpt><trkpt lat="42.3108117" lon="12.82878"><ele>823.6666666666667</ele><time>2026-04-25T10:24:18.064Z</time></trkpt><trkpt lat="42.310875" lon="12.8288433"><ele>822.3333333333334</ele><time>2026-04-25T10:24:19.064Z</time></trkpt><trkpt lat="42.3109533" lon="12.82889"><ele>821.0</ele><time>2026-04-25T10:24:20.066Z</time></trkpt><trkpt lat="42.3110417" lon="12.8288983"><ele>821.0000000000001</ele><time>2026-04-25T10:24:21.067Z</time></trkpt><trkpt lat="42.3111267" lon="12.8288783"><ele>821.0</ele><time>2026-04-25T10:24:22.065Z</time></trkpt><trkpt lat="42.3111967" lon="12.8288467"><ele>821.0</ele><time>2026-04-25T10:24:23.066Z</time></trkpt><trkpt lat="42.31126" lon="12.82882"><ele>821.0</ele><time>2026-04-25T10:24:24.066Z</time></trkpt><trkpt lat="42.3113267" lon="12.8287667"><ele>821.0000000000001</ele><time>2026-04-25T10:24:27.067Z</time></trkpt><trkpt lat="42.311335" lon="12.8286667"><ele>821.0</ele><time>2026-04-25T10:24:30.067Z</time></trkpt><trkpt lat="42.3113283" lon="12.828555"><ele>821.8333333333334</ele><time>2026-04-25T10:24:32.069Z</time></trkpt><trkpt lat="42.3113267" lon="12.8284017"><ele>822.6666666666667</ele><time>2026-04-25T10:24:34.068Z</time></trkpt><trkpt lat="42.3113367" lon="12.828315"><ele>823.5</ele><time>2026-04-25T10:24:35.067Z</time></trkpt><trkpt lat="42.31135" lon="12.82823"><ele>824.3333333333333</ele><time>2026-04-25T10:24:36.066Z</time></trkpt><trkpt lat="42.3113683" lon="12.8281467"><ele>825.1666666666666</ele><time>2026-04-25T10:24:37.067Z</time></trkpt><trkpt lat="42.311405" lon="12.8280167"><ele>826.0</ele><time>2026-04-25T10:24:39.065Z</time></trkpt><trkpt lat="42.3114683" lon="12.8279133"><ele>826.0</ele><time>2026-04-25T10:24:41.069Z</time></trkpt><trkpt lat="42.3115333" lon="12.8278083"><ele>826.0</ele><time>2026-04-25T10:24:43.067Z</time></trkpt><trkpt lat="42.3115983" lon="12.8276983"><ele>826.0</ele><time>2026-04-25T10:24:45.065Z</time></trkpt><trkpt lat="42.3116417" lon="12.8275883"><ele>826.0</ele><time>2026-04-25T10:24:47.064Z</time></trkpt><trkpt lat="42.311665" lon="12.8275"><ele>826.0</ele><time>2026-04-25T10:24:49.065Z</time></trkpt><trkpt lat="42.3116917" lon="12.8273917"><ele>827.9999999999999</ele><time>2026-04-25T10:24:52.066Z</time></trkpt><trkpt lat="42.3116933" lon="12.8273"><ele>830.0</ele><time>2026-04-25T10:24:54.067Z</time></trkpt><trkpt lat="42.3116783" lon="12.827195"><ele>832.0</ele><time>2026-04-25T10:24:56.067Z</time></trkpt><trkpt lat="42.3116567" lon="12.8270767"><ele>834.0</ele><time>2026-04-25T10:24:58.065Z</time></trkpt><trkpt lat="42.31162" lon="12.8269583"><ele>835.9999999999999</ele><time>2026-04-25T10:25:00.067Z</time></trkpt><trkpt lat="42.31157" lon="12.8268433"><ele>838.0</ele><time>2026-04-25T10:25:02.067Z</time></trkpt><trkpt lat="42.3115383" lon="12.8267383"><ele>837.9999999999999</ele><time>2026-04-25T10:25:04.066Z</time></trkpt><trkpt lat="42.311535" lon="12.826625"><ele>838.0</ele><time>2026-04-25T10:25:06.067Z</time></trkpt><trkpt lat="42.3115217" lon="12.8265017"><ele>838.0</ele><time>2026-04-25T10:25:08.065Z</time></trkpt><trkpt lat="42.3115133" lon="12.8264033"><ele>838.0</ele><time>2026-04-25T10:25:11.065Z</time></trkpt><trkpt lat="42.3115033" lon="12.8263083"><ele>837.9999999999999</ele><time>2026-04-25T10:25:15.066Z</time></trkpt><trkpt lat="42.311485" lon="12.826205"><ele>838.0</ele><time>2026-04-25T10:25:18.066Z</time></trkpt><trkpt lat="42.31145" lon="12.8261283"><ele>837.9999999999999</ele><time>2026-04-25T10:25:20.068Z</time></trkpt><trkpt lat="42.3114133" lon="12.8260317"><ele>838.0</ele><time>2026-04-25T10:25:23.066Z</time></trkpt><trkpt lat="42.31139" lon="12.82595"><ele>838.0</ele><time>2026-04-25T10:25:25.067Z</time></trkpt><trkpt lat="42.3114083" lon="12.8258367"><ele>838.0</ele><time>2026-04-25T10:25:27.066Z</time></trkpt><trkpt lat="42.3114467" lon="12.8257483"><ele>837.9999999999999</ele><time>2026-04-25T10:25:29.066Z</time></trkpt><trkpt lat="42.3115117" lon="12.8257033"><ele>838.0</ele><time>2026-04-25T10:25:32.067Z</time></trkpt><trkpt lat="42.3116917" lon="12.8273917"><ele>837.9999999999999</ele><time>2026-04-25T10:24:52.066Z</time></trkpt><trkpt lat="42.3116933" lon="12.8273"><ele>838.0</ele><time>2026-04-25T10:24:54.067Z</time></trkpt><trkpt lat="42.3116783" lon="12.827195"><ele>838.0</ele><time>2026-04-25T10:24:56.067Z</time></trkpt><trkpt lat="42.3116567" lon="12.8270767"><ele>838.0</ele><time>2026-04-25T10:24:58.065Z</time></trkpt><trkpt lat="42.31162" lon="12.8269583"><ele>837.9999999999999</ele><time>2026-04-25T10:25:00.067Z</time></trkpt><trkpt lat="42.31157" lon="12.8268433"><ele>838.0</ele><time>2026-04-25T10:25:02.067Z</time></trkpt><trkpt lat="42.3115383" lon="12.8267383"><ele>837.9999999999999</ele><time>2026-04-25T10:25:04.066Z</time></trkpt><trkpt lat="42.311535" lon="12.826625"><ele>838.0</ele><time>2026-04-25T10:25:06.067Z</time></trkpt><trkpt lat="42.3115217" lon="12.8265017"><ele>838.0</ele><time>2026-04-25T10:25:08.065Z</time></trkpt><trkpt lat="42.3115133" lon="12.8264033"><ele>838.0</ele><time>2026-04-25T10:25:11.065Z</time></trkpt><trkpt lat="42.3115033" lon="12.8263083"><ele>837.9999999999999</ele><time>2026-04-25T10:25:15.066Z</time></trkpt><trkpt lat="42.311485" lon="12.826205"><ele>838.0</ele><time>2026-04-25T10:25:18.066Z</time></trkpt><trkpt lat="42.31145" lon="12.8261283"><ele>837.9999999999999</ele><time>2026-04-25T10:25:20.068Z</time></trkpt><trkpt lat="42.3114133" lon="12.8260317"><ele>838.0</ele><time>2026-04-25T10:25:23.066Z</time></trkpt><trkpt lat="42.31139" lon="12.82595"><ele>838.0</ele><time>2026-04-25T10:25:25.067Z</time></trkpt><trkpt lat="42.3114083" lon="12.8258367"><ele>838.0</ele><time>2026-04-25T10:25:27.066Z</time></trkpt><trkpt lat="42.3114467" lon="12.8257483"><ele>838.0</ele><time>2026-04-25T10:25:29.066Z</time></trkpt><trkpt lat="42.3115117" lon="12.8257033"><ele>837.9999999999999</ele><time>2026-04-25T10:25:32.067Z</time></trkpt><trkpt lat="42.3115767" lon="12.825725"><ele>838.0</ele><time>2026-04-25T10:25:34.065Z</time></trkpt><trkpt lat="42.3116717" lon="12.8257333"><ele>838.4</ele><time>2026-04-25T10:25:37.066Z</time></trkpt><trkpt lat="42.3117883" lon="12.8257183"><ele>838.8</ele><time>2026-04-25T10:25:39.066Z</time></trkpt><trkpt lat="42.3118667" lon="12.8256917"><ele>839.2</ele><time>2026-04-25T10:25:40.065Z</time></trkpt><trkpt lat="42.311965" lon="12.82566"><ele>839.6</ele><time>2026-04-25T10:25:41.066Z</time></trkpt><trkpt lat="42.3121" lon="12.8256333"><ele>840.0</ele><time>2026-04-25T10:25:42.068Z</time></trkpt><trkpt lat="42.3122517" lon="12.82563"><ele>835.5</ele><time>2026-04-25T10:25:43.067Z</time></trkpt><trkpt lat="42.3123833" lon="12.82563"><ele>831.0</ele><time>2026-04-25T10:25:44.065Z</time></trkpt><trkpt lat="42.3125083" lon="12.8256333"><ele>826.5</ele><time>2026-04-25T10:25:45.067Z</time></trkpt><trkpt lat="42.3126233" lon="12.8256333"><ele>822.0</ele><time>2026-04-25T10:25:46.067Z</time></trkpt><trkpt lat="42.3127233" lon="12.8256283"><ele>822.0</ele><time>2026-04-25T10:25:47.066Z</time></trkpt><trkpt lat="42.3128133" lon="12.8256133"><ele>822.0</ele><time>2026-04-25T10:25:48.067Z</time></trkpt><trkpt lat="42.312885" lon="12.8255817"><ele>822.0</ele><time>2026-04-25T10:25:49.066Z</time></trkpt><trkpt lat="42.3129583" lon="12.8255367"><ele>822.0</ele><time>2026-04-25T10:25:50.065Z</time></trkpt><trkpt lat="42.3130317" lon="12.82551"><ele>822.0</ele><time>2026-04-25T10:25:51.067Z</time></trkpt><trkpt lat="42.3131183" lon="12.8254933"><ele>822.0</ele><time>2026-04-25T10:25:52.066Z</time></trkpt><trkpt lat="42.31321" lon="12.82548"><ele>822.5</ele><time>2026-04-25T10:25:53.065Z</time></trkpt><trkpt lat="42.3132967" lon="12.8254633"><ele>823.0</ele><time>2026-04-25T10:25:54.066Z</time></trkpt><trkpt lat="42.31337" lon="12.825435"><ele>823.5</ele><time>2026-04-25T10:25:55.066Z</time></trkpt><trkpt lat="42.31343" lon="12.8253883"><ele>824.0</ele><time>2026-04-25T10:25:56.066Z</time></trkpt><trkpt lat="42.313475" lon="12.8253233"><ele>824.5</ele><time>2026-04-25T10:25:57.067Z</time></trkpt><trkpt lat="42.313505" lon="12.82523"><ele>825.0</ele><time>2026-04-25T10:25:58.066Z</time></trkpt><trkpt lat="42.313495" lon="12.8251067"><ele>825.0</ele><time>2026-04-25T10:25:59.064Z</time></trkpt><trkpt lat="42.3134867" lon="12.8249533"><ele>825.0</ele><time>2026-04-25T10:26:00.065Z</time></trkpt><trkpt lat="42.3135033" lon="12.8247967"><ele>825.0</ele><time>2026-04-25T10:26:01.066Z</time></trkpt><trkpt lat="42.31353" lon="12.8246467"><ele>825.0</ele><time>2026-04-25T10:26:02.068Z</time></trkpt><trkpt lat="42.31355" lon="12.82453"><ele>825.0</ele><time>2026-04-25T10:26:03.066Z</time></trkpt><trkpt lat="42.3135667" lon="12.8244317"><ele>825.0</ele><time>2026-04-25T10:26:04.066Z</time></trkpt><trkpt lat="42.3135917" lon="12.8243433"><ele>825.0</ele><time>2026-04-25T10:26:05.065Z</time></trkpt><trkpt lat="42.3136333" lon="12.8242783"><ele>825.0</ele><time>2026-04-25T10:26:06.066Z</time></trkpt><trkpt lat="42.3137017" lon="12.8242083"><ele>825.0</ele><time>2026-04-25T10:26:07.066Z</time></trkpt><trkpt lat="42.31379" lon="12.8241417"><ele>825.0</ele><time>2026-04-25T10:26:08.066Z</time></trkpt><trkpt lat="42.3138917" lon="12.8240833"><ele>825.0</ele><time>2026-04-25T10:26:09.066Z</time></trkpt><trkpt lat="42.3139883" lon="12.824025"><ele>821.4</ele><time>2026-04-25T10:26:10.066Z</time></trkpt><trkpt lat="42.314085" lon="12.8239733"><ele>817.8</ele><time>2026-04-25T10:26:11.065Z</time></trkpt><trkpt lat="42.314175" lon="12.8239417"><ele>814.2</ele><time>2026-04-25T10:26:12.065Z</time></trkpt><trkpt lat="42.3142633" lon="12.8239233"><ele>810.6</ele><time>2026-04-25T10:26:13.066Z</time></trkpt><trkpt lat="42.3143567" lon="12.8239283"><ele>807.0</ele><time>2026-04-25T10:26:14.067Z</time></trkpt><trkpt lat="42.3144617" lon="12.8239483"><ele>807.0</ele><time>2026-04-25T10:26:15.068Z</time></trkpt><trkpt lat="42.314565" lon="12.8239767"><ele>807.0</ele><time>2026-04-25T10:26:16.065Z</time></trkpt><trkpt lat="42.314655" lon="12.82401"><ele>807.0</ele><time>2026-04-25T10:26:17.067Z</time></trkpt><trkpt lat="42.3147383" lon="12.8240467"><ele>807.0</ele><time>2026-04-25T10:26:18.066Z</time></trkpt><trkpt lat="42.3148183" lon="12.82407"><ele>807.0</ele><time>2026-04-25T10:26:19.066Z</time></trkpt><trkpt lat="42.3148933" lon="12.824075"><ele>807.0</ele><time>2026-04-25T10:26:20.065Z</time></trkpt><trkpt lat="42.3149733" lon="12.824065"><ele>805.8333333333334</ele><time>2026-04-25T10:26:21.065Z</time></trkpt><trkpt lat="42.3150517" lon="12.8240483"><ele>804.6666666666667</ele><time>2026-04-25T10:26:22.065Z</time></trkpt><trkpt lat="42.3151217" lon="12.8240267"><ele>803.5</ele><time>2026-04-25T10:26:23.065Z</time></trkpt><trkpt lat="42.3151883" lon="12.8240183"><ele>802.3333333333334</ele><time>2026-04-25T10:26:24.065Z</time></trkpt><trkpt lat="42.3152683" lon="12.82402"><ele>801.1666666666667</ele><time>2026-04-25T10:26:26.066Z</time></trkpt><trkpt lat="42.3153367" lon="12.8240033"><ele>800.0</ele><time>2026-04-25T10:26:29.065Z</time></trkpt><trkpt lat="42.3154233" lon="12.8239717"><ele>800.0</ele><time>2026-04-25T10:27:27.067Z</time></trkpt><trkpt lat="42.3154917" lon="12.8239567"><ele>800.0</ele><time>2026-04-25T10:31:14.065Z</time></trkpt><trkpt lat="42.3155717" lon="12.8239017"><ele>800.0</ele><time>2026-04-25T10:31:16.065Z</time></trkpt><trkpt lat="42.3156567" lon="12.8238117"><ele>800.0</ele><time>2026-04-25T10:31:18.065Z</time></trkpt><trkpt lat="42.315735" lon="12.823715"><ele>800.0</ele><time>2026-04-25T10:31:20.067Z</time></trkpt><trkpt lat="42.3158267" lon="12.8236767"><ele>796.5</ele><time>2026-04-25T10:31:22.066Z</time></trkpt><trkpt lat="42.3159433" lon="12.823645"><ele>793.0</ele><time>2026-04-25T10:31:24.065Z</time></trkpt><trkpt lat="42.316065" lon="12.823605"><ele>789.5</ele><time>2026-04-25T10:31:26.067Z</time></trkpt><trkpt lat="42.3161817" lon="12.8235433"><ele>786.0</ele><time>2026-04-25T10:31:28.065Z</time></trkpt><trkpt lat="42.31631" lon="12.8235183"><ele>786.0000000000001</ele><time>2026-04-25T10:31:30.065Z</time></trkpt><trkpt lat="42.3163883" lon="12.8235317"><ele>786.0</ele><time>2026-04-25T10:31:31.068Z</time></trkpt><trkpt lat="42.3164583" lon="12.8235467"><ele>786.0</ele><time>2026-04-25T10:31:32.067Z</time></trkpt><trkpt lat="42.316525" lon="12.8235583"><ele>786.0</ele><time>2026-04-25T10:31:33.064Z</time></trkpt><trkpt lat="42.3165933" lon="12.8235633"><ele>786.0</ele><time>2026-04-25T10:31:34.066Z</time></trkpt><trkpt lat="42.3166617" lon="12.8235633"><ele>786.0000000000001</ele><time>2026-04-25T10:31:35.067Z</time></trkpt><trkpt lat="42.316735" lon="12.8235533"><ele>786.0</ele><time>2026-04-25T10:31:36.066Z</time></trkpt><trkpt lat="42.316815" lon="12.823535"><ele>787.3333333333334</ele><time>2026-04-25T10:31:37.066Z</time></trkpt><trkpt lat="42.316895" lon="12.8235233"><ele>788.6666666666667</ele><time>2026-04-25T10:31:38.066Z</time></trkpt><trkpt lat="42.3169783" lon="12.823525"><ele>790.0</ele><time>2026-04-25T10:31:39.066Z</time></trkpt><trkpt lat="42.317065" lon="12.8235383"><ele>791.3333333333334</ele><time>2026-04-25T10:31:40.067Z</time></trkpt><trkpt lat="42.317155" lon="12.823565"><ele>792.6666666666667</ele><time>2026-04-25T10:31:41.065Z</time></trkpt><trkpt lat="42.317235" lon="12.8236017"><ele>794.0</ele><time>2026-04-25T10:31:42.067Z</time></trkpt><trkpt lat="42.31731" lon="12.823645"><ele>797.3333333333334</ele><time>2026-04-25T10:31:43.065Z</time></trkpt><trkpt lat="42.3173733" lon="12.8236917"><ele>800.6666666666667</ele><time>2026-04-25T10:31:44.067Z</time></trkpt><trkpt lat="42.317435" lon="12.8237233"><ele>804.0</ele><time>2026-04-25T10:31:45.065Z</time></trkpt><trkpt lat="42.31754" lon="12.8237417"><ele>807.3333333333333</ele><time>2026-04-25T10:31:47.066Z</time></trkpt><trkpt lat="42.3176083" lon="12.8237817"><ele>810.6666666666666</ele><time>2026-04-25T10:31:49.067Z</time></trkpt><trkpt lat="42.3176383" lon="12.8239217"><ele>814.0</ele><time>2026-04-25T10:31:51.066Z</time></trkpt><trkpt lat="42.3176383" lon="12.824085"><ele>813.9999999999999</ele><time>2026-04-25T10:31:53.066Z</time></trkpt><trkpt lat="42.3176517" lon="12.82417"><ele>814.0</ele><time>2026-04-25T10:31:54.066Z</time></trkpt><trkpt lat="42.31768" lon="12.8242533"><ele>814.0</ele><time>2026-04-25T10:31:55.066Z</time></trkpt><trkpt lat="42.317715" lon="12.8243383"><ele>814.0</ele><time>2026-04-25T10:31:56.066Z</time></trkpt><trkpt lat="42.3177517" lon="12.8244117"><ele>813.9999999999999</ele><time>2026-04-25T10:31:57.066Z</time></trkpt><trkpt lat="42.317855" lon="12.824525"><ele>814.0</ele><time>2026-04-25T10:31:59.065Z</time></trkpt><trkpt lat="42.31792" lon="12.8245833"><ele>814.0</ele><time>2026-04-25T10:32:00.066Z</time></trkpt><trkpt lat="42.3179783" lon="12.8246517"><ele>814.0</ele><time>2026-04-25T10:32:01.066Z</time></trkpt><trkpt lat="42.3180383" lon="12.8247083"><ele>814.0</ele><time>2026-04-25T10:32:02.069Z</time></trkpt><trkpt lat="42.318145" lon="12.8247533"><ele>814.0</ele><time>2026-04-25T10:32:04.066Z</time></trkpt><trkpt lat="42.318235" lon="12.8247167"><ele>814.0</ele><time>2026-04-25T10:32:06.067Z</time></trkpt><trkpt lat="42.3183583" lon="12.8246333"><ele>814.9999999999999</ele><time>2026-04-25T10:32:08.069Z</time></trkpt><trkpt lat="42.3184233" lon="12.8245833"><ele>816.0</ele><time>2026-04-25T10:32:09.066Z</time></trkpt><trkpt lat="42.3185217" lon="12.8244983"><ele>817.0</ele><time>2026-04-25T10:32:11.067Z</time></trkpt><trkpt lat="42.3185917" lon="12.8243783"><ele>818.0</ele><time>2026-04-25T10:32:13.067Z</time></trkpt><trkpt lat="42.3186217" lon="12.82429"><ele>818.9999999999999</ele><time>2026-04-25T10:32:14.065Z</time></trkpt><trkpt lat="42.3186533" lon="12.8242033"><ele>820.0</ele><time>2026-04-25T10:32:15.066Z</time></trkpt><trkpt lat="42.3186883" lon="12.82413"><ele>819.9999999999999</ele><time>2026-04-25T10:32:16.065Z</time></trkpt><trkpt lat="42.3187317" lon="12.8240617"><ele>820.0</ele><time>2026-04-25T10:32:17.066Z</time></trkpt><trkpt lat="42.3187767" lon="12.824"><ele>820.0</ele><time>2026-04-25T10:32:18.066Z</time></trkpt><trkpt lat="42.3188233" lon="12.82394"><ele>820.0</ele><time>2026-04-25T10:32:19.064Z</time></trkpt><trkpt lat="42.3189233" lon="12.8238683"><ele>819.9999999999999</ele><time>2026-04-25T10:32:21.066Z</time></trkpt><trkpt lat="42.318985" lon="12.8238483"><ele>820.0</ele><time>2026-04-25T10:32:22.066Z</time></trkpt><trkpt lat="42.3190983" lon="12.8237917"><ele>818.3333333333333</ele><time>2026-04-25T10:32:24.066Z</time></trkpt><trkpt lat="42.3191867" lon="12.8237133"><ele>816.6666666666666</ele><time>2026-04-25T10:32:26.066Z</time></trkpt><trkpt lat="42.3192683" lon="12.8236183"><ele>815.0</ele><time>2026-04-25T10:32:28.064Z</time></trkpt><trkpt lat="42.319295" lon="12.8235383"><ele>813.3333333333333</ele><time>2026-04-25T10:32:29.065Z</time></trkpt><trkpt lat="42.3193217" lon="12.823445"><ele>811.6666666666666</ele><time>2026-04-25T10:32:30.066Z</time></trkpt><trkpt lat="42.319355" lon="12.8233533"><ele>810.0</ele><time>2026-04-25T10:32:31.065Z</time></trkpt><trkpt lat="42.3193867" lon="12.823275"><ele>809.0</ele><time>2026-04-25T10:32:32.065Z</time></trkpt><trkpt lat="42.3194583" lon="12.8231633"><ele>808.0</ele><time>2026-04-25T10:32:34.063Z</time></trkpt><trkpt lat="42.31951" lon="12.8231067"><ele>807.0</ele><time>2026-04-25T10:32:35.063Z</time></trkpt><trkpt lat="42.3195617" lon="12.8230333"><ele>806.0</ele><time>2026-04-25T10:32:36.064Z</time></trkpt><trkpt lat="42.3196133" lon="12.822955"><ele>805.0</ele><time>2026-04-25T10:32:37.064Z</time></trkpt><trkpt lat="42.3196683" lon="12.8228733"><ele>804.0</ele><time>2026-04-25T10:32:38.065Z</time></trkpt><trkpt lat="42.3197283" lon="12.82279"><ele>803.8333333333334</ele><time>2026-04-25T10:32:39.067Z</time></trkpt><trkpt lat="42.3197883" lon="12.8227067"><ele>803.6666666666667</ele><time>2026-04-25T10:32:40.067Z</time></trkpt><trkpt lat="42.319845" lon="12.8226267"><ele>803.5</ele><time>2026-04-25T10:32:41.066Z</time></trkpt><trkpt lat="42.3199017" lon="12.8225433"><ele>803.3333333333334</ele><time>2026-04-25T10:32:42.065Z</time></trkpt><trkpt lat="42.3199567" lon="12.8224667"><ele>803.1666666666667</ele><time>2026-04-25T10:32:43.063Z</time></trkpt><trkpt lat="42.3200183" lon="12.8224117"><ele>803.0</ele><time>2026-04-25T10:32:44.066Z</time></trkpt><trkpt lat="42.3201117" lon="12.82238"><ele>803.0000000000001</ele><time>2026-04-25T10:32:46.064Z</time></trkpt><trkpt lat="42.3201833" lon="12.8224567"><ele>803.0</ele><time>2026-04-25T10:32:48.064Z</time></trkpt><trkpt lat="42.3202067" lon="12.8225367"><ele>803.0</ele><time>2026-04-25T10:32:49.065Z</time></trkpt><trkpt lat="42.32027" lon="12.82266"><ele>803.0</ele><time>2026-04-25T10:32:51.063Z</time></trkpt><trkpt lat="42.320325" lon="12.8227317"><ele>803.0000000000001</ele><time>2026-04-25T10:32:53.065Z</time></trkpt><trkpt lat="42.320395" lon="12.822755"><ele>803.0</ele><time>2026-04-25T10:32:56.065Z</time></trkpt><trkpt lat="42.3204517" lon="12.82269"><ele>803.8333333333334</ele><time>2026-04-25T10:32:58.067Z</time></trkpt><trkpt lat="42.3205233" lon="12.8226133"><ele>804.6666666666667</ele><time>2026-04-25T10:33:00.066Z</time></trkpt><trkpt lat="42.3205933" lon="12.8225983"><ele>805.5</ele><time>2026-04-25T10:33:02.065Z</time></trkpt><trkpt lat="42.32068" lon="12.8225717"><ele>806.3333333333333</ele><time>2026-04-25T10:33:05.064Z</time></trkpt><trkpt lat="42.3207467" lon="12.822545"><ele>807.1666666666666</ele><time>2026-04-25T10:33:07.065Z</time></trkpt><trkpt lat="42.32083" lon="12.8225217"><ele>808.0</ele><time>2026-04-25T10:33:10.065Z</time></trkpt><trkpt lat="42.3209033" lon="12.8225033"><ele>808.3333333333333</ele><time>2026-04-25T10:33:12.063Z</time></trkpt><trkpt lat="42.32099" lon="12.8225067"><ele>808.6666666666666</ele><time>2026-04-25T10:33:14.066Z</time></trkpt><trkpt lat="42.3210833" lon="12.8225083"><ele>809.0</ele><time>2026-04-25T10:33:16.065Z</time></trkpt><trkpt lat="42.3211633" lon="12.8224933"><ele>809.3333333333333</ele><time>2026-04-25T10:33:18.066Z</time></trkpt><trkpt lat="42.3212317" lon="12.82241"><ele>809.6666666666666</ele><time>2026-04-25T10:33:21.066Z</time></trkpt><trkpt lat="42.3212967" lon="12.8223883"><ele>810.0</ele><time>2026-04-25T10:33:23.065Z</time></trkpt><trkpt lat="42.3213833" lon="12.8224267"><ele>807.1428571428571</ele><time>2026-04-25T10:33:26.065Z</time></trkpt><trkpt lat="42.3214517" lon="12.822435"><ele>804.2857142857142</ele><time>2026-04-25T10:33:28.066Z</time></trkpt><trkpt lat="42.3215183" lon="12.822425"><ele>801.4285714285713</ele><time>2026-04-25T10:33:30.067Z</time></trkpt><trkpt lat="42.3215883" lon="12.8223567"><ele>798.5714285714286</ele><time>2026-04-25T10:33:34.066Z</time></trkpt><trkpt lat="42.3216317" lon="12.82228"><ele>795.7142857142858</ele><time>2026-04-25T10:33:36.068Z</time></trkpt><trkpt lat="42.3216783" lon="12.8222117"><ele>792.8571428571428</ele><time>2026-04-25T10:33:39.067Z</time></trkpt><trkpt lat="42.3217083" lon="12.8221333"><ele>790.0</ele><time>2026-04-25T10:33:41.066Z</time></trkpt><trkpt lat="42.32178" lon="12.8220983"><ele>789.9999999999999</ele><time>2026-04-25T10:33:48.065Z</time></trkpt><trkpt lat="42.321855" lon="12.8220467"><ele>790.0</ele><time>2026-04-25T10:33:50.069Z</time></trkpt><trkpt lat="42.3219367" lon="12.8220017"><ele>790.0</ele><time>2026-04-25T10:33:52.068Z</time></trkpt><trkpt lat="42.3220133" lon="12.8219383"><ele>790.0</ele><time>2026-04-25T10:33:54.066Z</time></trkpt><trkpt lat="42.3220967" lon="12.8218867"><ele>789.9999999999999</ele><time>2026-04-25T10:33:56.067Z</time></trkpt><trkpt lat="42.3221717" lon="12.8218567"><ele>790.0</ele><time>2026-04-25T10:33:58.066Z</time></trkpt><trkpt lat="42.3222733" lon="12.8218117"><ele>791.6</ele><time>2026-04-25T10:34:00.065Z</time></trkpt><trkpt lat="42.3223883" lon="12.82177"><ele>793.2</ele><time>2026-04-25T10:34:02.068Z</time></trkpt><trkpt lat="42.322495" lon="12.821745"><ele>794.8</ele><time>2026-04-25T10:34:04.066Z</time></trkpt><trkpt lat="42.3226083" lon="12.821735"><ele>796.4</ele><time>2026-04-25T10:34:06.067Z</time></trkpt><trkpt lat="42.322675" lon="12.82175"><ele>798.0</ele><time>2026-04-25T10:34:07.067Z</time></trkpt><trkpt lat="42.3227933" lon="12.8217967"><ele>795.3333333333334</ele><time>2026-04-25T10:34:09.067Z</time></trkpt><trkpt lat="42.3228867" lon="12.8218533"><ele>792.6666666666667</ele><time>2026-04-25T10:34:11.064Z</time></trkpt><trkpt lat="42.32296" lon="12.821905"><ele>790.0</ele><time>2026-04-25T10:34:13.069Z</time></trkpt><trkpt lat="42.3230033" lon="12.82198"><ele>787.3333333333334</ele><time>2026-04-25T10:34:15.063Z</time></trkpt><trkpt lat="42.3230367" lon="12.82211"><ele>784.6666666666667</ele><time>2026-04-25T10:34:17.065Z</time></trkpt><trkpt lat="42.3230633" lon="12.82222"><ele>782.0</ele><time>2026-04-25T10:34:19.065Z</time></trkpt><trkpt lat="42.3231317" lon="12.82227"><ele>782.0000000000001</ele><time>2026-04-25T10:34:21.067Z</time></trkpt><trkpt lat="42.323215" lon="12.822325"><ele>782.0</ele><time>2026-04-25T10:34:23.066Z</time></trkpt><trkpt lat="42.3232883" lon="12.8223383"><ele>782.0</ele><time>2026-04-25T10:34:25.066Z</time></trkpt><trkpt lat="42.323365" lon="12.8222867"><ele>782.0</ele><time>2026-04-25T10:34:27.067Z</time></trkpt><trkpt lat="42.323455" lon="12.822305"><ele>782.0000000000001</ele><time>2026-04-25T10:34:30.066Z</time></trkpt><trkpt lat="42.3235283" lon="12.822355"><ele>782.0</ele><time>2026-04-25T10:34:32.066Z</time></trkpt><trkpt lat="42.3236" lon="12.82235"><ele>781.9999999999999</ele><time>2026-04-25T10:34:34.065Z</time></trkpt><trkpt lat="42.3236833" lon="12.8223267"><ele>782.0</ele><time>2026-04-25T10:34:37.067Z</time></trkpt><trkpt lat="42.3237467" lon="12.8223317"><ele>782.0</ele><time>2026-04-25T10:34:39.064Z</time></trkpt><trkpt lat="42.3238233" lon="12.8223367"><ele>782.0</ele><time>2026-04-25T10:35:11.065Z</time></trkpt><trkpt lat="42.323905" lon="12.8223467"><ele>782.0</ele><time>2026-04-25T10:35:40.066Z</time></trkpt><trkpt lat="42.3239683" lon="12.8223367"><ele>781.9999999999999</ele><time>2026-04-25T10:35:42.065Z</time></trkpt><trkpt lat="42.3240383" lon="12.8223167"><ele>782.0</ele><time>2026-04-25T10:35:44.064Z</time></trkpt><trkpt lat="42.3241283" lon="12.8222617"><ele>782.8</ele><time>2026-04-25T10:35:46.066Z</time></trkpt><trkpt lat="42.3242283" lon="12.8222117"><ele>783.6</ele><time>2026-04-25T10:35:48.064Z</time></trkpt><trkpt lat="42.3243217" lon="12.8221367"><ele>784.4</ele><time>2026-04-25T10:35:50.066Z</time></trkpt><trkpt lat="42.3244167" lon="12.8220417"><ele>785.1999999999999</ele><time>2026-04-25T10:35:52.065Z</time></trkpt><trkpt lat="42.3245183" lon="12.8219667"><ele>786.0</ele><time>2026-04-25T10:35:54.064Z</time></trkpt><trkpt lat="42.3246233" lon="12.8218867"><ele>788.1999999999999</ele><time>2026-04-25T10:35:56.065Z</time></trkpt><trkpt lat="42.3247233" lon="12.8218133"><ele>790.4</ele><time>2026-04-25T10:35:58.063Z</time></trkpt><trkpt lat="42.3248017" lon="12.8217617"><ele>792.6</ele><time>2026-04-25T10:36:00.064Z</time></trkpt><trkpt lat="42.324905" lon="12.8217283"><ele>794.8</ele><time>2026-04-25T10:36:02.064Z</time></trkpt><trkpt lat="42.3249967" lon="12.821695"><ele>797.0</ele><time>2026-04-25T10:36:04.066Z</time></trkpt><trkpt lat="42.3251267" lon="12.8216467"><ele>798.5000000000001</ele><time>2026-04-25T10:36:16.065Z</time></trkpt><trkpt lat="42.3251617" lon="12.8217633"><ele>800.0</ele><time>2026-04-25T10:36:19.064Z</time></trkpt><trkpt lat="42.3252" lon="12.821835"><ele>801.5</ele><time>2026-04-25T10:36:21.064Z</time></trkpt><trkpt lat="42.325275" lon="12.82188"><ele>803.0</ele><time>2026-04-25T10:36:24.067Z</time></trkpt><trkpt lat="42.3253267" lon="12.8219567"><ele>804.5000000000001</ele><time>2026-04-25T10:36:26.065Z</time></trkpt><trkpt lat="42.325415" lon="12.8220533"><ele>806.0</ele><time>2026-04-25T10:36:28.065Z</time></trkpt><trkpt lat="42.3254983" lon="12.822145"><ele>806.8333333333334</ele><time>2026-04-25T10:36:30.066Z</time></trkpt><trkpt lat="42.325585" lon="12.8221833"><ele>807.6666666666667</ele><time>2026-04-25T10:36:32.065Z</time></trkpt><trkpt lat="42.32566" lon="12.822245"><ele>808.5</ele><time>2026-04-25T10:36:34.066Z</time></trkpt><trkpt lat="42.3257567" lon="12.822275"><ele>809.3333333333333</ele><time>2026-04-25T10:36:36.065Z</time></trkpt><trkpt lat="42.325845" lon="12.8223033"><ele>810.1666666666666</ele><time>2026-04-25T10:36:38.066Z</time></trkpt><trkpt lat="42.3259083" lon="12.8223217"><ele>811.0</ele><time>2026-04-25T10:36:40.064Z</time></trkpt><trkpt lat="42.3259717" lon="12.82233"><ele>811.0</ele><time>2026-04-25T10:36:42.065Z</time></trkpt><trkpt lat="42.3260483" lon="12.82234"><ele>811.0</ele><time>2026-04-25T10:36:44.065Z</time></trkpt><trkpt lat="42.32615" lon="12.8223883"><ele>811.0</ele><time>2026-04-25T10:36:46.063Z</time></trkpt><trkpt lat="42.326255" lon="12.82244"><ele>811.0</ele><time>2026-04-25T10:36:48.066Z</time></trkpt><trkpt lat="42.3263617" lon="12.8224767"><ele>811.0</ele><time>2026-04-25T10:36:50.063Z</time></trkpt><trkpt lat="42.3264583" lon="12.82252"><ele>810.1999999999999</ele><time>2026-04-25T10:36:52.066Z</time></trkpt><trkpt lat="42.32655" lon="12.8225767"><ele>809.4</ele><time>2026-04-25T10:36:54.065Z</time></trkpt><trkpt lat="42.3266417" lon="12.8226483"><ele>808.6</ele><time>2026-04-25T10:36:56.067Z</time></trkpt><trkpt lat="42.32673" lon="12.82272"><ele>807.8</ele><time>2026-04-25T10:36:58.063Z</time></trkpt><trkpt lat="42.3268117" lon="12.8227883"><ele>807.0</ele><time>2026-04-25T10:37:00.065Z</time></trkpt><trkpt lat="42.32691" lon="12.82283"><ele>804.8</ele><time>2026-04-25T10:37:02.066Z</time></trkpt><trkpt lat="42.32699" lon="12.8228533"><ele>802.6</ele><time>2026-04-25T10:37:04.066Z</time></trkpt><trkpt lat="42.3270583" lon="12.8229167"><ele>800.4</ele><time>2026-04-25T10:37:06.068Z</time></trkpt><trkpt lat="42.3271183" lon="12.8230283"><ele>798.1999999999999</ele><time>2026-04-25T10:37:08.067Z</time></trkpt><trkpt lat="42.3271783" lon="12.8231383"><ele>796.0</ele><time>2026-04-25T10:37:10.064Z</time></trkpt><trkpt lat="42.32725" lon="12.82322"><ele>795.1428571428571</ele><time>2026-04-25T10:37:12.066Z</time></trkpt><trkpt lat="42.3273117" lon="12.8232617"><ele>794.2857142857142</ele><time>2026-04-25T10:37:14.066Z</time></trkpt><trkpt lat="42.32738" lon="12.823335"><ele>793.4285714285713</ele><time>2026-04-25T10:37:21.065Z</time></trkpt><trkpt lat="42.3274283" lon="12.82339"><ele>792.5714285714286</ele><time>2026-04-25T10:37:22.066Z</time></trkpt><trkpt lat="42.327485" lon="12.8234433"><ele>791.7142857142858</ele><time>2026-04-25T10:37:23.063Z</time></trkpt><trkpt lat="42.3275417" lon="12.823495"><ele>790.8571428571428</ele><time>2026-04-25T10:37:24.063Z</time></trkpt><trkpt lat="42.32761" lon="12.8235433"><ele>790.0</ele><time>2026-04-25T10:37:25.065Z</time></trkpt><trkpt lat="42.32769" lon="12.8235967"><ele>790.6</ele><time>2026-04-25T10:37:26.065Z</time></trkpt><trkpt lat="42.3277783" lon="12.8236567"><ele>791.2</ele><time>2026-04-25T10:37:27.064Z</time></trkpt><trkpt lat="42.3278717" lon="12.8237167"><ele>791.8</ele><time>2026-04-25T10:37:28.065Z</time></trkpt><trkpt lat="42.3279633" lon="12.8237833"><ele>792.4</ele><time>2026-04-25T10:37:29.069Z</time></trkpt><trkpt lat="42.32805" lon="12.823855"><ele>793.0</ele><time>2026-04-25T10:37:30.067Z</time></trkpt><trkpt lat="42.3281317" lon="12.823925"><ele>793.0</ele><time>2026-04-25T10:37:31.064Z</time></trkpt><trkpt lat="42.3282133" lon="12.8239883"><ele>793.0</ele><time>2026-04-25T10:37:32.066Z</time></trkpt><trkpt lat="42.3282967" lon="12.8240467"><ele>793.0</ele><time>2026-04-25T10:37:33.067Z</time></trkpt><trkpt lat="42.3283733" lon="12.8241133"><ele>793.0</ele><time>2026-04-25T10:37:34.066Z</time></trkpt><trkpt lat="42.32844" lon="12.82419"><ele>793.0</ele><time>2026-04-25T10:37:35.068Z</time></trkpt><trkpt lat="42.3284917" lon="12.8242833"><ele>790.8333333333333</ele><time>2026-04-25T10:37:36.065Z</time></trkpt><trkpt lat="42.3285333" lon="12.8243867"><ele>788.6666666666666</ele><time>2026-04-25T10:37:37.066Z</time></trkpt><trkpt lat="42.3285667" lon="12.8244917"><ele>786.5</ele><time>2026-04-25T10:37:38.068Z</time></trkpt><trkpt lat="42.3286017" lon="12.8245817"><ele>784.3333333333333</ele><time>2026-04-25T10:37:39.065Z</time></trkpt><trkpt lat="42.3286417" lon="12.8246483"><ele>782.1666666666666</ele><time>2026-04-25T10:37:40.065Z</time></trkpt><trkpt lat="42.3287467" lon="12.8247483"><ele>780.0</ele><time>2026-04-25T10:37:42.065Z</time></trkpt><trkpt lat="42.3288017" lon="12.82481"><ele>780.0</ele><time>2026-04-25T10:37:43.065Z</time></trkpt><trkpt lat="42.3288517" lon="12.8248783"><ele>780.0</ele><time>2026-04-25T10:37:44.065Z</time></trkpt><trkpt lat="42.32891" lon="12.8249433"><ele>780.0</ele><time>2026-04-25T10:37:45.065Z</time></trkpt><trkpt lat="42.3289617" lon="12.8250167"><ele>780.0</ele><time>2026-04-25T10:37:46.064Z</time></trkpt><trkpt lat="42.3290067" lon="12.8250833"><ele>780.0</ele><time>2026-04-25T10:37:47.065Z</time></trkpt><trkpt lat="42.3290967" lon="12.8251917"><ele>780.0</ele><time>2026-04-25T10:37:49.065Z</time></trkpt><trkpt lat="42.32916" lon="12.82524"><ele>778.3333333333334</ele><time>2026-04-25T10:37:50.066Z</time></trkpt><trkpt lat="42.3292317" lon="12.8252867"><ele>776.6666666666667</ele><time>2026-04-25T10:37:51.066Z</time></trkpt><trkpt lat="42.3293117" lon="12.82531"><ele>775.0</ele><time>2026-04-25T10:37:52.065Z</time></trkpt><trkpt lat="42.3293817" lon="12.8253383"><ele>773.3333333333334</ele><time>2026-04-25T10:37:53.062Z</time></trkpt><trkpt lat="42.3294783" lon="12.82543"><ele>771.6666666666667</ele><time>2026-04-25T10:37:55.064Z</time></trkpt><trkpt lat="42.32952" lon="12.825495"><ele>770.0</ele><time>2026-04-25T10:37:56.065Z</time></trkpt><trkpt lat="42.3295667" lon="12.825555"><ele>770.0000000000001</ele><time>2026-04-25T10:37:57.064Z</time></trkpt><trkpt lat="42.3296317" lon="12.825615"><ele>770.0</ele><time>2026-04-25T10:37:58.065Z</time></trkpt><trkpt lat="42.3297067" lon="12.825675"><ele>770.0</ele><time>2026-04-25T10:37:59.067Z</time></trkpt><trkpt lat="42.3297817" lon="12.8257283"><ele>770.0</ele><time>2026-04-25T10:38:00.066Z</time></trkpt><trkpt lat="42.3298533" lon="12.8257817"><ele>770.0000000000001</ele><time>2026-04-25T10:38:01.066Z</time></trkpt><trkpt lat="42.32993" lon="12.8258267"><ele>770.0</ele><time>2026-04-25T10:38:02.065Z</time></trkpt><trkpt lat="42.330015" lon="12.8258583"><ele>771.0000000000001</ele><time>2026-04-25T10:38:03.066Z</time></trkpt><trkpt lat="42.3301067" lon="12.825875"><ele>772.0</ele><time>2026-04-25T10:38:04.067Z</time></trkpt><trkpt lat="42.3301967" lon="12.825885"><ele>773.0</ele><time>2026-04-25T10:38:05.066Z</time></trkpt><trkpt lat="42.3302817" lon="12.82589"><ele>774.0</ele><time>2026-04-25T10:38:06.067Z</time></trkpt><trkpt lat="42.33036" lon="12.8258983"><ele>775.0000000000001</ele><time>2026-04-25T10:38:07.065Z</time></trkpt><trkpt lat="42.33043" lon="12.8258967"><ele>776.0</ele><time>2026-04-25T10:38:08.065Z</time></trkpt><trkpt lat="42.3304967" lon="12.825885"><ele>777.5000000000001</ele><time>2026-04-25T10:38:09.066Z</time></trkpt><trkpt lat="42.3305617" lon="12.82585"><ele>779.0</ele><time>2026-04-25T10:38:10.066Z</time></trkpt><trkpt lat="42.3306217" lon="12.825795"><ele>780.5</ele><time>2026-04-25T10:38:11.066Z</time></trkpt><trkpt lat="42.3306767" lon="12.8257217"><ele>782.0</ele><time>2026-04-25T10:38:12.065Z</time></trkpt><trkpt lat="42.3307283" lon="12.825625"><ele>783.5000000000001</ele><time>2026-04-25T10:38:13.064Z</time></trkpt><trkpt lat="42.33077" lon="12.8255267"><ele>785.0</ele><time>2026-04-25T10:38:14.066Z</time></trkpt><trkpt lat="42.33081" lon="12.8254283"><ele>785.0000000000001</ele><time>2026-04-25T10:38:15.064Z</time></trkpt><trkpt lat="42.3308517" lon="12.8253267"><ele>785.0</ele><time>2026-04-25T10:38:16.066Z</time></trkpt><trkpt lat="42.3309017" lon="12.8252217"><ele>785.0</ele><time>2026-04-25T10:38:17.064Z</time></trkpt><trkpt lat="42.3309583" lon="12.825135"><ele>785.0</ele><time>2026-04-25T10:38:18.065Z</time></trkpt><trkpt lat="42.3310183" lon="12.825065"><ele>785.0000000000001</ele><time>2026-04-25T10:38:19.064Z</time></trkpt><trkpt lat="42.331085" lon="12.8249983"><ele>785.0</ele><time>2026-04-25T10:38:20.065Z</time></trkpt><trkpt lat="42.3311517" lon="12.82493"><ele>785.0000000000001</ele><time>2026-04-25T10:38:21.066Z</time></trkpt><trkpt lat="42.3312117" lon="12.8248583"><ele>785.0</ele><time>2026-04-25T10:38:22.065Z</time></trkpt><trkpt lat="42.33127" lon="12.8247983"><ele>785.0</ele><time>2026-04-25T10:38:23.065Z</time></trkpt><trkpt lat="42.3313417" lon="12.824755"><ele>785.0</ele><time>2026-04-25T10:38:24.064Z</time></trkpt><trkpt lat="42.3314133" lon="12.824725"><ele>785.0000000000001</ele><time>2026-04-25T10:38:25.065Z</time></trkpt><trkpt lat="42.3315283" lon="12.8247117"><ele>785.0</ele><time>2026-04-25T10:38:27.065Z</time></trkpt><trkpt lat="42.3316333" lon="12.8247467"><ele>785.0</ele><time>2026-04-25T10:38:29.066Z</time></trkpt><trkpt lat="42.33174" lon="12.8248233"><ele>785.0</ele><time>2026-04-25T10:38:31.066Z</time></trkpt><trkpt lat="42.3318383" lon="12.8249283"><ele>785.0</ele><time>2026-04-25T10:38:33.067Z</time></trkpt><trkpt lat="42.3318883" lon="12.8250017"><ele>785.0</ele><time>2026-04-25T10:38:34.065Z</time></trkpt><trkpt lat="42.3319267" lon="12.8250783"><ele>785.0</ele><time>2026-04-25T10:38:35.067Z</time></trkpt><trkpt lat="42.3319667" lon="12.8251517"><ele>785.0000000000001</ele><time>2026-04-25T10:38:36.068Z</time></trkpt><trkpt lat="42.3320117" lon="12.8252117"><ele>785.0</ele><time>2026-04-25T10:38:37.067Z</time></trkpt><trkpt lat="42.33211" lon="12.82529"><ele>785.0</ele><time>2026-04-25T10:38:39.065Z</time></trkpt><trkpt lat="42.3321717" lon="12.825325"><ele>785.0</ele><time>2026-04-25T10:38:41.065Z</time></trkpt><trkpt lat="42.3322467" lon="12.8253417"><ele>785.0000000000001</ele><time>2026-04-25T10:41:33.065Z</time></trkpt><trkpt lat="42.3323133" lon="12.8253733"><ele>785.0</ele><time>2026-04-25T10:41:34.065Z</time></trkpt><trkpt lat="42.3323917" lon="12.8254183"><ele>783.4</ele><time>2026-04-25T10:41:35.066Z</time></trkpt><trkpt lat="42.3324717" lon="12.8254733"><ele>781.8</ele><time>2026-04-25T10:41:36.066Z</time></trkpt><trkpt lat="42.332555" lon="12.8255367"><ele>780.2</ele><time>2026-04-25T10:41:37.065Z</time></trkpt><trkpt lat="42.3326383" lon="12.8255983"><ele>778.6</ele><time>2026-04-25T10:41:38.066Z</time></trkpt><trkpt lat="42.33272" lon="12.82565"><ele>777.0</ele><time>2026-04-25T10:41:39.066Z</time></trkpt><trkpt lat="42.3328083" lon="12.8256883"><ele>777.0</ele><time>2026-04-25T10:41:40.064Z</time></trkpt><trkpt lat="42.332905" lon="12.825715"><ele>777.0</ele><time>2026-04-25T10:41:41.064Z</time></trkpt><trkpt lat="42.333005" lon="12.825745"><ele>777.0</ele><time>2026-04-25T10:41:42.065Z</time></trkpt><trkpt lat="42.3331067" lon="12.8257767"><ele>777.0</ele><time>2026-04-25T10:41:43.066Z</time></trkpt><trkpt lat="42.333205" lon="12.8258133"><ele>777.0</ele><time>2026-04-25T10:41:44.066Z</time></trkpt><trkpt lat="42.3332933" lon="12.8258533"><ele>778.1666666666666</ele><time>2026-04-25T10:41:45.064Z</time></trkpt><trkpt lat="42.333375" lon="12.82589"><ele>779.3333333333333</ele><time>2026-04-25T10:41:46.066Z</time></trkpt><trkpt lat="42.33345" lon="12.8259217"><ele>780.5</ele><time>2026-04-25T10:41:47.062Z</time></trkpt><trkpt lat="42.3335267" lon="12.8259483"><ele>781.6666666666666</ele><time>2026-04-25T10:41:48.066Z</time></trkpt><trkpt lat="42.3336133" lon="12.8259717"><ele>782.8333333333333</ele><time>2026-04-25T10:41:49.065Z</time></trkpt><trkpt lat="42.3337067" lon="12.826"><ele>784.0</ele><time>2026-04-25T10:41:50.066Z</time></trkpt><trkpt lat="42.333795" lon="12.8260333"><ele>783.1666666666666</ele><time>2026-04-25T10:41:51.066Z</time></trkpt><trkpt lat="42.3338833" lon="12.8260683"><ele>782.3333333333333</ele><time>2026-04-25T10:41:52.066Z</time></trkpt><trkpt lat="42.3339683" lon="12.826095"><ele>781.5</ele><time>2026-04-25T10:41:53.065Z</time></trkpt><trkpt lat="42.3340483" lon="12.8261117"><ele>780.6666666666667</ele><time>2026-04-25T10:41:54.066Z</time></trkpt><trkpt lat="42.33413" lon="12.8261067"><ele>779.8333333333334</ele><time>2026-04-25T10:41:55.064Z</time></trkpt><trkpt lat="42.334215" lon="12.8260917"><ele>779.0</ele><time>2026-04-25T10:41:56.066Z</time></trkpt><trkpt lat="42.3343067" lon="12.8260817"><ele>779.0000000000001</ele><time>2026-04-25T10:41:57.066Z</time></trkpt><trkpt lat="42.334395" lon="12.8260567"><ele>779.0</ele><time>2026-04-25T10:41:58.064Z</time></trkpt><trkpt lat="42.3344833" lon="12.8260383"><ele>779.0</ele><time>2026-04-25T10:41:59.066Z</time></trkpt><trkpt lat="42.3345617" lon="12.8260283"><ele>779.0</ele><time>2026-04-25T10:42:00.065Z</time></trkpt><trkpt lat="42.3346367" lon="12.8260267"><ele>779.0000000000001</ele><time>2026-04-25T10:42:01.067Z</time></trkpt><trkpt lat="42.3347183" lon="12.8260367"><ele>779.0</ele><time>2026-04-25T10:42:02.066Z</time></trkpt><trkpt lat="42.3348017" lon="12.8260517"><ele>779.3333333333334</ele><time>2026-04-25T10:42:03.065Z</time></trkpt><trkpt lat="42.3348817" lon="12.8260767"><ele>779.6666666666667</ele><time>2026-04-25T10:42:04.064Z</time></trkpt><trkpt lat="42.33496" lon="12.826105"><ele>780.0</ele><time>2026-04-25T10:42:05.065Z</time></trkpt><trkpt lat="42.3350367" lon="12.8261333"><ele>780.3333333333333</ele><time>2026-04-25T10:42:06.066Z</time></trkpt><trkpt lat="42.3351117" lon="12.8261533"><ele>780.6666666666666</ele><time>2026-04-25T10:42:07.065Z</time></trkpt><trkpt lat="42.3351933" lon="12.8261633"><ele>781.0</ele><time>2026-04-25T10:42:08.069Z</time></trkpt><trkpt lat="42.3352733" lon="12.82617"><ele>780.9999999999999</ele><time>2026-04-25T10:42:09.065Z</time></trkpt><trkpt lat="42.335355" lon="12.8261667"><ele>781.0</ele><time>2026-04-25T10:42:10.065Z</time></trkpt><trkpt lat="42.3354333" lon="12.8261567"><ele>781.0</ele><time>2026-04-25T10:42:11.065Z</time></trkpt><trkpt lat="42.33551" lon="12.8261433"><ele>781.0</ele><time>2026-04-25T10:42:12.066Z</time></trkpt><trkpt lat="42.33559" lon="12.8261367"><ele>780.9999999999999</ele><time>2026-04-25T10:42:13.067Z</time></trkpt><trkpt lat="42.3356783" lon="12.82614"><ele>781.0</ele><time>2026-04-25T10:42:14.066Z</time></trkpt><trkpt lat="42.3357683" lon="12.8261467"><ele>779.4999999999999</ele><time>2026-04-25T10:42:15.065Z</time></trkpt><trkpt lat="42.3358583" lon="12.8261567"><ele>778.0</ele><time>2026-04-25T10:42:16.066Z</time></trkpt><trkpt lat="42.3359433" lon="12.8261617"><ele>776.5</ele><time>2026-04-25T10:42:17.064Z</time></trkpt><trkpt lat="42.3360217" lon="12.826155"><ele>775.0</ele><time>2026-04-25T10:42:18.065Z</time></trkpt><trkpt lat="42.3361017" lon="12.82613"><ele>773.4999999999999</ele><time>2026-04-25T10:42:19.065Z</time></trkpt><trkpt lat="42.33619" lon="12.826095"><ele>772.0</ele><time>2026-04-25T10:42:20.065Z</time></trkpt><trkpt lat="42.3362867" lon="12.82607"><ele>772.0</ele><time>2026-04-25T10:42:21.067Z</time></trkpt><trkpt lat="42.336385" lon="12.8260533"><ele>772.0</ele><time>2026-04-25T10:42:22.068Z</time></trkpt><trkpt lat="42.33648" lon="12.826025"><ele>772.0</ele><time>2026-04-25T10:42:23.067Z</time></trkpt><trkpt lat="42.3365683" lon="12.826"><ele>772.0</ele><time>2026-04-25T10:42:24.065Z</time></trkpt><trkpt lat="42.3366617" lon="12.82597"><ele>772.0</ele><time>2026-04-25T10:42:25.066Z</time></trkpt><trkpt lat="42.336745" lon="12.8259383"><ele>770.8333333333333</ele><time>2026-04-25T10:42:26.066Z</time></trkpt><trkpt lat="42.3368217" lon="12.82591"><ele>769.6666666666666</ele><time>2026-04-25T10:42:27.067Z</time></trkpt><trkpt lat="42.3369" lon="12.8258717"><ele>768.5</ele><time>2026-04-25T10:42:28.065Z</time></trkpt><trkpt lat="42.3369783" lon="12.8258183"><ele>767.3333333333333</ele><time>2026-04-25T10:42:29.067Z</time></trkpt><trkpt lat="42.33706" lon="12.8257667"><ele>766.1666666666666</ele><time>2026-04-25T10:42:30.065Z</time></trkpt><trkpt lat="42.3371433" lon="12.8257117"><ele>765.0</ele><time>2026-04-25T10:42:31.067Z</time></trkpt><trkpt lat="42.3372217" lon="12.82563"><ele>763.4</ele><time>2026-04-25T10:42:32.069Z</time></trkpt><trkpt lat="42.3373" lon="12.8255533"><ele>761.8</ele><time>2026-04-25T10:42:33.066Z</time></trkpt><trkpt lat="42.3373717" lon="12.8254783"><ele>760.2</ele><time>2026-04-25T10:42:34.066Z</time></trkpt><trkpt lat="42.3374383" lon="12.8254117"><ele>758.6</ele><time>2026-04-25T10:42:35.065Z</time></trkpt><trkpt lat="42.3375133" lon="12.8253467"><ele>757.0</ele><time>2026-04-25T10:42:36.065Z</time></trkpt><trkpt lat="42.33759" lon="12.8252767"><ele>757.0</ele><time>2026-04-25T10:42:37.067Z</time></trkpt><trkpt lat="42.3376667" lon="12.8252083"><ele>757.0</ele><time>2026-04-25T10:42:38.065Z</time></trkpt><trkpt lat="42.3377367" lon="12.8251483"><ele>757.0</ele><time>2026-04-25T10:42:39.066Z</time></trkpt><trkpt lat="42.3378017" lon="12.8250933"><ele>757.0</ele><time>2026-04-25T10:42:40.064Z</time></trkpt><trkpt lat="42.33787" lon="12.82505"><ele>757.0</ele><time>2026-04-25T10:42:41.065Z</time></trkpt><trkpt lat="42.3379517" lon="12.825015"><ele>757.0</ele><time>2026-04-25T10:42:42.063Z</time></trkpt><trkpt lat="42.3380417" lon="12.82499"><ele>758.8333333333334</ele><time>2026-04-25T10:42:43.064Z</time></trkpt><trkpt lat="42.3381267" lon="12.8249633"><ele>760.6666666666667</ele><time>2026-04-25T10:42:44.066Z</time></trkpt><trkpt lat="42.3382" lon="12.8249317"><ele>762.5</ele><time>2026-04-25T10:42:45.065Z</time></trkpt><trkpt lat="42.3382667" lon="12.8248833"><ele>764.3333333333334</ele><time>2026-04-25T10:42:46.065Z</time></trkpt><trkpt lat="42.3383367" lon="12.8248283"><ele>766.1666666666666</ele><time>2026-04-25T10:42:47.066Z</time></trkpt><trkpt lat="42.33841" lon="12.8247883"><ele>768.0</ele><time>2026-04-25T10:42:48.066Z</time></trkpt><trkpt lat="42.338485" lon="12.8247533"><ele>768.0</ele><time>2026-04-25T10:42:49.065Z</time></trkpt><trkpt lat="42.3385483" lon="12.8247083"><ele>768.0</ele><time>2026-04-25T10:42:50.066Z</time></trkpt><trkpt lat="42.33864" lon="12.8245983"><ele>768.0</ele><time>2026-04-25T10:42:52.065Z</time></trkpt><trkpt lat="42.338735" lon="12.8244867"><ele>768.0</ele><time>2026-04-25T10:42:54.065Z</time></trkpt><trkpt lat="42.3387883" lon="12.82442"><ele>768.0</ele><time>2026-04-25T10:42:55.065Z</time></trkpt><trkpt lat="42.3388417" lon="12.824355"><ele>771.0</ele><time>2026-04-25T10:42:56.066Z</time></trkpt><trkpt lat="42.3388983" lon="12.8242983"><ele>774.0</ele><time>2026-04-25T10:42:57.066Z</time></trkpt><trkpt lat="42.338955" lon="12.82424"><ele>777.0</ele><time>2026-04-25T10:42:58.065Z</time></trkpt><trkpt lat="42.3390117" lon="12.824185"><ele>780.0</ele><time>2026-04-25T10:42:59.066Z</time></trkpt><trkpt lat="42.3390833" lon="12.82408"><ele>783.0</ele><time>2026-04-25T10:43:01.065Z</time></trkpt><trkpt lat="42.3391617" lon="12.8240117"><ele>786.0</ele><time>2026-04-25T10:43:03.065Z</time></trkpt><trkpt lat="42.3392783" lon="12.8239533"><ele>786.0</ele><time>2026-04-25T10:43:05.064Z</time></trkpt><trkpt lat="42.3393933" lon="12.8239033"><ele>786.0</ele><time>2026-04-25T10:43:07.066Z</time></trkpt><trkpt lat="42.339455" lon="12.8238767"><ele>786.0</ele><time>2026-04-25T10:43:08.065Z</time></trkpt><trkpt lat="42.33957" lon="12.8238417"><ele>786.0</ele><time>2026-04-25T10:43:10.065Z</time></trkpt><trkpt lat="42.3396867" lon="12.8238083"><ele>786.0</ele><time>2026-04-25T10:43:12.066Z</time></trkpt><trkpt lat="42.3397533" lon="12.823795"><ele>787.1999999999999</ele><time>2026-04-25T10:43:13.066Z</time></trkpt><trkpt lat="42.3398767" lon="12.8237683"><ele>788.4</ele><time>2026-04-25T10:43:15.066Z</time></trkpt><trkpt lat="42.33995" lon="12.82374"><ele>789.6</ele><time>2026-04-25T10:43:16.065Z</time></trkpt><trkpt lat="42.340015" lon="12.823715"><ele>790.8</ele><time>2026-04-25T10:43:17.067Z</time></trkpt><trkpt lat="42.340125" lon="12.8236617"><ele>792.0</ele><time>2026-04-25T10:43:19.067Z</time></trkpt><trkpt lat="42.3402217" lon="12.823615"><ele>792.0</ele><time>2026-04-25T10:43:21.066Z</time></trkpt><trkpt lat="42.34029" lon="12.823515"><ele>792.0</ele><time>2026-04-25T10:43:23.065Z</time></trkpt><trkpt lat="42.3403417" lon="12.82336"><ele>792.0</ele><time>2026-04-25T10:43:25.065Z</time></trkpt><trkpt lat="42.34038" lon="12.8232783"><ele>792.0</ele><time>2026-04-25T10:43:26.066Z</time></trkpt><trkpt lat="42.3404267" lon="12.8232017"><ele>792.0</ele><time>2026-04-25T10:43:27.063Z</time></trkpt><trkpt lat="42.3404867" lon="12.8231333"><ele>796.0</ele><time>2026-04-25T10:43:28.066Z</time></trkpt><trkpt lat="42.340555" lon="12.8230817"><ele>800.0</ele><time>2026-04-25T10:43:29.066Z</time></trkpt><trkpt lat="42.3406267" lon="12.8230367"><ele>804.0</ele><time>2026-04-25T10:43:30.067Z</time></trkpt><trkpt lat="42.3406917" lon="12.8229817"><ele>808.0</ele><time>2026-04-25T10:43:31.068Z</time></trkpt><trkpt lat="42.3407467" lon="12.8229117"><ele>812.0</ele><time>2026-04-25T10:43:32.066Z</time></trkpt><trkpt lat="42.3408017" lon="12.82284"><ele>816.0</ele><time>2026-04-25T10:43:33.068Z</time></trkpt><trkpt lat="42.3408583" lon="12.8227767"><ele>816.0</ele><time>2026-04-25T10:43:34.065Z</time></trkpt><trkpt lat="42.3409183" lon="12.8227283"><ele>816.0</ele><time>2026-04-25T10:43:35.066Z</time></trkpt><trkpt lat="42.3409883" lon="12.8226917"><ele>816.0</ele><time>2026-04-25T10:43:36.065Z</time></trkpt><trkpt lat="42.3410617" lon="12.8226517"><ele>816.0</ele><time>2026-04-25T10:43:37.065Z</time></trkpt><trkpt lat="42.3411317" lon="12.8225933"><ele>816.0</ele><time>2026-04-25T10:43:38.066Z</time></trkpt><trkpt lat="42.3411967" lon="12.8225233"><ele>816.0</ele><time>2026-04-25T10:43:39.067Z</time></trkpt><trkpt lat="42.341245" lon="12.8224483"><ele>819.5</ele><time>2026-04-25T10:43:40.064Z</time></trkpt><trkpt lat="42.3412983" lon="12.8222983"><ele>823.0</ele><time>2026-04-25T10:43:42.066Z</time></trkpt><trkpt lat="42.3413017" lon="12.8222"><ele>826.5</ele><time>2026-04-25T10:43:43.066Z</time></trkpt><trkpt lat="42.341305" lon="12.8220917"><ele>830.0</ele><time>2026-04-25T10:43:44.066Z</time></trkpt><trkpt lat="42.3413183" lon="12.8219933"><ele>833.5</ele><time>2026-04-25T10:43:45.066Z</time></trkpt><trkpt lat="42.3413483" lon="12.8219033"><ele>837.0</ele><time>2026-04-25T10:43:46.066Z</time></trkpt><trkpt lat="42.3413783" lon="12.8218267"><ele>837.2</ele><time>2026-04-25T10:43:47.067Z</time></trkpt><trkpt lat="42.341425" lon="12.8217583"><ele>837.4000000000001</ele><time>2026-04-25T10:43:48.064Z</time></trkpt><trkpt lat="42.341525" lon="12.8216533"><ele>837.5999999999999</ele><time>2026-04-25T10:43:50.065Z</time></trkpt><trkpt lat="42.341585" lon="12.82161"><ele>837.8</ele><time>2026-04-25T10:43:51.065Z</time></trkpt><trkpt lat="42.34167" lon="12.8215683"><ele>838.0</ele><time>2026-04-25T10:43:52.064Z</time></trkpt><trkpt lat="42.34176" lon="12.8215183"><ele>838.0</ele><time>2026-04-25T10:43:53.067Z</time></trkpt><trkpt lat="42.3418267" lon="12.82147"><ele>838.0</ele><time>2026-04-25T10:43:54.066Z</time></trkpt><trkpt lat="42.3418833" lon="12.8214117"><ele>838.0</ele><time>2026-04-25T10:43:55.067Z</time></trkpt><trkpt lat="42.34195" lon="12.82133"><ele>838.0</ele><time>2026-04-25T10:43:56.066Z</time></trkpt><trkpt lat="42.342035" lon="12.821225"><ele>838.0</ele><time>2026-04-25T10:43:57.066Z</time></trkpt><trkpt lat="42.3421167" lon="12.8211083"><ele>838.0</ele><time>2026-04-25T10:43:58.064Z</time></trkpt><trkpt lat="42.3421967" lon="12.820985"><ele>838.0</ele><time>2026-04-25T10:43:59.066Z</time></trkpt><trkpt lat="42.34227" lon="12.820865"><ele>838.0</ele><time>2026-04-25T10:44:00.066Z</time></trkpt><trkpt lat="42.342335" lon="12.8207667"><ele>838.0</ele><time>2026-04-25T10:44:01.064Z</time></trkpt><trkpt lat="42.3423967" lon="12.8206867"><ele>838.0</ele><time>2026-04-25T10:44:02.067Z</time></trkpt><trkpt lat="42.3424483" lon="12.8206217"><ele>836.3333333333333</ele><time>2026-04-25T10:44:03.065Z</time></trkpt><trkpt lat="42.3425283" lon="12.8205283"><ele>834.6666666666666</ele><time>2026-04-25T10:44:05.063Z</time></trkpt><trkpt lat="42.3424817" lon="12.8206117"><ele>833.0</ele><time>2026-04-25T10:57:23.064Z</time></trkpt><trkpt lat="42.3424317" lon="12.8206767"><ele>831.3333333333333</ele><time>2026-04-25T10:57:25.063Z</time></trkpt><trkpt lat="42.3423767" lon="12.8207767"><ele>829.6666666666666</ele><time>2026-04-25T10:57:28.062Z</time></trkpt><trkpt lat="42.3424533" lon="12.8206983"><ele>828.0</ele><time>2026-04-25T10:57:45.063Z</time></trkpt><trkpt lat="42.3424767" lon="12.820605"><ele>828.0</ele><time>2026-04-25T10:57:48.063Z</time></trkpt><trkpt lat="42.34249" lon="12.820505"><ele>828.0</ele><time>2026-04-25T10:57:54.106Z</time></trkpt><trkpt lat="42.3426033" lon="12.8203133"><ele>828.0</ele><time>2026-04-25T10:58:45.106Z</time></trkpt><trkpt lat="42.3426817" lon="12.820205"><ele>828.0</ele><time>2026-04-25T10:58:48.106Z</time></trkpt><trkpt lat="42.3427183" lon="12.820105"><ele>827.5999999999999</ele><time>2026-04-25T10:58:50.106Z</time></trkpt><trkpt lat="42.3427633" lon="12.820025"><ele>827.1999999999999</ele><time>2026-04-25T10:58:52.106Z</time></trkpt><trkpt lat="42.34282" lon="12.8199567"><ele>826.8</ele><time>2026-04-25T10:58:55.107Z</time></trkpt><trkpt lat="42.3429" lon="12.8198683"><ele>826.4</ele><time>2026-04-25T10:58:58.107Z</time></trkpt><trkpt lat="42.342995" lon="12.8198167"><ele>826.0</ele><time>2026-04-25T10:59:00.106Z</time></trkpt><trkpt lat="42.3431217" lon="12.819745"><ele>825.0</ele><time>2026-04-25T10:59:03.106Z</time></trkpt><trkpt lat="42.3431767" lon="12.8196983"><ele>824.0</ele><time>2026-04-25T10:59:05.106Z</time></trkpt><trkpt lat="42.3432433" lon="12.8196417"><ele>823.0</ele><time>2026-04-25T11:00:19.107Z</time></trkpt><trkpt lat="42.3433267" lon="12.819595"><ele>822.0</ele><time>2026-04-25T11:01:22.108Z</time></trkpt><trkpt lat="42.3434267" lon="12.8196267"><ele>821.0</ele><time>2026-04-25T11:01:23.107Z</time></trkpt><trkpt lat="42.343545" lon="12.8196683"><ele>821.0</ele><time>2026-04-25T11:01:24.106Z</time></trkpt><trkpt lat="42.3436567" lon="12.819685"><ele>821.0</ele><time>2026-04-25T11:01:25.108Z</time></trkpt><trkpt lat="42.343775" lon="12.81968"><ele>821.0</ele><time>2026-04-25T11:01:26.106Z</time></trkpt><trkpt lat="42.3439017" lon="12.8196717"><ele>821.0</ele><time>2026-04-25T11:01:27.108Z</time></trkpt><trkpt lat="42.344025" lon="12.8196533"><ele>822.0</ele><time>2026-04-25T11:01:28.106Z</time></trkpt><trkpt lat="42.3441433" lon="12.8196267"><ele>823.0</ele><time>2026-04-25T11:01:29.107Z</time></trkpt><trkpt lat="42.34426" lon="12.8196067"><ele>824.0</ele><time>2026-04-25T11:01:30.108Z</time></trkpt><trkpt lat="42.3443817" lon="12.8195933"><ele>825.0</ele><time>2026-04-25T11:01:31.108Z</time></trkpt><trkpt lat="42.3445017" lon="12.8195733"><ele>825.0</ele><time>2026-04-25T11:01:32.108Z</time></trkpt><trkpt lat="42.3446133" lon="12.8195467"><ele>825.0</ele><time>2026-04-25T11:01:33.107Z</time></trkpt><trkpt lat="42.3447" lon="12.819515"><ele>825.0</ele><time>2026-04-25T11:01:34.107Z</time></trkpt><trkpt lat="42.34477" lon="12.8194633"><ele>825.0</ele><time>2026-04-25T11:01:35.106Z</time></trkpt><trkpt lat="42.3448167" lon="12.8193433"><ele>825.0</ele><time>2026-04-25T11:01:36.106Z</time></trkpt><trkpt lat="42.34486" lon="12.8191967"><ele>825.8</ele><time>2026-04-25T11:01:37.108Z</time></trkpt><trkpt lat="42.3449083" lon="12.8190533"><ele>826.6</ele><time>2026-04-25T11:01:38.108Z</time></trkpt><trkpt lat="42.3449583" lon="12.8189483"><ele>827.4000000000001</ele><time>2026-04-25T11:01:39.11Z</time></trkpt><trkpt lat="42.3450217" lon="12.818855"><ele>828.2</ele><time>2026-04-25T11:01:40.109Z</time></trkpt><trkpt lat="42.3451083" lon="12.8187333"><ele>829.0</ele><time>2026-04-25T11:01:41.109Z</time></trkpt><trkpt lat="42.3451983" lon="12.8186117"><ele>829.0</ele><time>2026-04-25T11:01:42.109Z</time></trkpt><trkpt lat="42.3452817" lon="12.8185"><ele>829.0</ele><time>2026-04-25T11:01:43.109Z</time></trkpt><trkpt lat="42.34535" lon="12.8183933"><ele>829.0</ele><time>2026-04-25T11:01:44.11Z</time></trkpt><trkpt lat="42.34541" lon="12.81828"><ele>829.0</ele><time>2026-04-25T11:01:45.11Z</time></trkpt><trkpt lat="42.34547" lon="12.8181717"><ele>829.0</ele><time>2026-04-25T11:01:46.108Z</time></trkpt><trkpt lat="42.345525" lon="12.8180917"><ele>827.0</ele><time>2026-04-25T11:01:47.108Z</time></trkpt><trkpt lat="42.34559" lon="12.8179817"><ele>825.0</ele><time>2026-04-25T11:01:49.106Z</time></trkpt><trkpt lat="42.345645" lon="12.8179133"><ele>823.0</ele><time>2026-04-25T11:03:50.11Z</time></trkpt><trkpt lat="42.345725" lon="12.81784"><ele>821.0</ele><time>2026-04-25T11:03:52.106Z</time></trkpt><trkpt lat="42.3458233" lon="12.8177633"><ele>819.0</ele><time>2026-04-25T11:03:54.109Z</time></trkpt><trkpt lat="42.3459033" lon="12.8176733"><ele>818.0</ele><time>2026-04-25T11:03:56.108Z</time></trkpt><trkpt lat="42.34596" lon="12.8175517"><ele>817.0</ele><time>2026-04-25T11:03:58.109Z</time></trkpt><trkpt lat="42.34602" lon="12.8174133"><ele>816.0</ele><time>2026-04-25T11:04:00.108Z</time></trkpt><trkpt lat="42.3460567" lon="12.8172583"><ele>815.0</ele><time>2026-04-25T11:04:02.108Z</time></trkpt><trkpt lat="42.346085" lon="12.8171817"><ele>814.0</ele><time>2026-04-25T11:04:03.109Z</time></trkpt><trkpt lat="42.3461783" lon="12.8170583"><ele>813.9999999999999</ele><time>2026-04-25T11:04:05.109Z</time></trkpt><trkpt lat="42.3462367" lon="12.817"><ele>814.0</ele><time>2026-04-25T11:04:06.109Z</time></trkpt><trkpt lat="42.3463033" lon="12.8169417"><ele>814.0</ele><time>2026-04-25T11:04:07.107Z</time></trkpt><trkpt lat="42.3463717" lon="12.81689"><ele>814.0</ele><time>2026-04-25T11:04:08.11Z</time></trkpt><trkpt lat="42.3464433" lon="12.8168383"><ele>813.9999999999999</ele><time>2026-04-25T11:04:09.11Z</time></trkpt><trkpt lat="42.3465217" lon="12.8168"><ele>814.0</ele><time>2026-04-25T11:04:10.111Z</time></trkpt><trkpt lat="42.346605" lon="12.8167583"><ele>814.0</ele><time>2026-04-25T11:04:11.108Z</time></trkpt><trkpt lat="42.3466967" lon="12.8167217"><ele>814.0</ele><time>2026-04-25T11:04:12.11Z</time></trkpt><trkpt lat="42.34679" lon="12.8166817"><ele>814.0</ele><time>2026-04-25T11:04:13.11Z</time></trkpt><trkpt lat="42.3468817" lon="12.8166383"><ele>814.0</ele><time>2026-04-25T11:04:14.11Z</time></trkpt><trkpt lat="42.3469717" lon="12.81659"><ele>814.0</ele><time>2026-04-25T11:04:15.109Z</time></trkpt><trkpt lat="42.3470533" lon="12.8165533"><ele>813.9999999999999</ele><time>2026-04-25T11:04:16.107Z</time></trkpt><trkpt lat="42.34713" lon="12.8165183"><ele>814.0</ele><time>2026-04-25T11:04:17.11Z</time></trkpt><trkpt lat="42.3472" lon="12.8164917"><ele>814.0</ele><time>2026-04-25T11:04:18.106Z</time></trkpt><trkpt lat="42.3472617" lon="12.8164733"><ele>814.0</ele><time>2026-04-25T11:04:19.107Z</time></trkpt><trkpt lat="42.3473233" lon="12.8164517"><ele>813.9999999999999</ele><time>2026-04-25T11:04:20.109Z</time></trkpt><trkpt lat="42.34744" lon="12.8164267"><ele>814.0</ele><time>2026-04-25T11:04:22.109Z</time></trkpt><trkpt lat="42.347555" lon="12.81646"><ele>815.0</ele><time>2026-04-25T11:04:24.108Z</time></trkpt><trkpt lat="42.3476433" lon="12.8165133"><ele>816.0</ele><time>2026-04-25T11:04:26.109Z</time></trkpt><trkpt lat="42.3477217" lon="12.8165483"><ele>817.0</ele><time>2026-04-25T11:04:28.108Z</time></trkpt><trkpt lat="42.347845" lon="12.81659"><ele>818.0</ele><time>2026-04-25T11:04:30.108Z</time></trkpt><trkpt lat="42.3479317" lon="12.81662"><ele>819.0</ele><time>2026-04-25T11:04:31.11Z</time></trkpt><trkpt lat="42.3480133" lon="12.8166433"><ele>820.6</ele><time>2026-04-25T11:04:32.108Z</time></trkpt><trkpt lat="42.3481217" lon="12.8166867"><ele>822.2</ele><time>2026-04-25T11:04:34.108Z</time></trkpt><trkpt lat="42.3482267" lon="12.8167483"><ele>823.8000000000001</ele><time>2026-04-25T11:04:36.11Z</time></trkpt><trkpt lat="42.3482917" lon="12.8167683"><ele>825.4000000000001</ele><time>2026-04-25T11:04:37.107Z</time></trkpt><trkpt lat="42.3483567" lon="12.81678"><ele>827.0</ele><time>2026-04-25T11:04:38.109Z</time></trkpt><trkpt lat="42.3484817" lon="12.8167783"><ele>827.0000000000001</ele><time>2026-04-25T11:04:40.109Z</time></trkpt><trkpt lat="42.348545" lon="12.81675"><ele>827.0</ele><time>2026-04-25T11:04:41.11Z</time></trkpt><trkpt lat="42.34861" lon="12.8167067"><ele>827.0</ele><time>2026-04-25T11:04:42.107Z</time></trkpt><trkpt lat="42.3486767" lon="12.8166567"><ele>827.0</ele><time>2026-04-25T11:04:43.108Z</time></trkpt><trkpt lat="42.34873" lon="12.8166033"><ele>827.0000000000001</ele><time>2026-04-25T11:04:44.107Z</time></trkpt><trkpt lat="42.348825" lon="12.8165317"><ele>827.0</ele><time>2026-04-25T11:04:46.107Z</time></trkpt><trkpt lat="42.348935" lon="12.8165083"><ele>829.4000000000001</ele><time>2026-04-25T11:04:48.109Z</time></trkpt><trkpt lat="42.3490683" lon="12.8165583"><ele>831.8000000000001</ele><time>2026-04-25T11:04:50.109Z</time></trkpt><trkpt lat="42.34915" lon="12.8165983"><ele>834.2</ele><time>2026-04-25T11:04:51.11Z</time></trkpt><trkpt lat="42.3492333" lon="12.8166333"><ele>836.6</ele><time>2026-04-25T11:04:52.11Z</time></trkpt><trkpt lat="42.3493133" lon="12.8166683"><ele>839.0</ele><time>2026-04-25T11:04:53.11Z</time></trkpt><trkpt lat="42.3493833" lon="12.8167133"><ele>839.0</ele><time>2026-04-25T11:04:54.11Z</time></trkpt><trkpt lat="42.3494417" lon="12.8167683"><ele>839.0</ele><time>2026-04-25T11:04:55.108Z</time></trkpt><trkpt lat="42.3494983" lon="12.8168133"><ele>839.0</ele><time>2026-04-25T11:04:56.109Z</time></trkpt><trkpt lat="42.349555" lon="12.8168633"><ele>839.0</ele><time>2026-04-25T11:04:57.11Z</time></trkpt><trkpt lat="42.3496117" lon="12.81691"><ele>839.0</ele><time>2026-04-25T11:04:58.109Z</time></trkpt><trkpt lat="42.3496633" lon="12.81696"><ele>839.0</ele><time>2026-04-25T11:04:59.11Z</time></trkpt><trkpt lat="42.3497217" lon="12.817015"><ele>839.0</ele><time>2026-04-25T11:05:00.11Z</time></trkpt><trkpt lat="42.3497867" lon="12.8170767"><ele>836.8000000000001</ele><time>2026-04-25T11:05:01.109Z</time></trkpt><trkpt lat="42.3498567" lon="12.8171483"><ele>834.6</ele><time>2026-04-25T11:05:02.107Z</time></trkpt><trkpt lat="42.3499333" lon="12.8172267"><ele>832.4</ele><time>2026-04-25T11:05:03.109Z</time></trkpt><trkpt lat="42.350005" lon="12.8173117"><ele>830.2</ele><time>2026-04-25T11:05:04.106Z</time></trkpt><trkpt lat="42.350075" lon="12.8173933"><ele>828.0</ele><time>2026-04-25T11:05:05.108Z</time></trkpt><trkpt lat="42.35014" lon="12.8174717"><ele>828.0</ele><time>2026-04-25T11:05:06.112Z</time></trkpt><trkpt lat="42.3502083" lon="12.8175433"><ele>828.0</ele><time>2026-04-25T11:05:07.11Z</time></trkpt><trkpt lat="42.3502933" lon="12.817595"><ele>828.0</ele><time>2026-04-25T11:05:08.107Z</time></trkpt><trkpt lat="42.3503833" lon="12.8176367"><ele>828.0</ele><time>2026-04-25T11:05:09.109Z</time></trkpt><trkpt lat="42.3504717" lon="12.817665"><ele>828.0</ele><time>2026-04-25T11:05:10.107Z</time></trkpt><trkpt lat="42.3505617" lon="12.8176883"><ele>829.3333333333334</ele><time>2026-04-25T11:05:11.108Z</time></trkpt><trkpt lat="42.350645" lon="12.8177167"><ele>830.6666666666667</ele><time>2026-04-25T11:05:12.11Z</time></trkpt><trkpt lat="42.350725" lon="12.8177567"><ele>832.0</ele><time>2026-04-25T11:05:13.108Z</time></trkpt><trkpt lat="42.3508067" lon="12.8178067"><ele>833.3333333333334</ele><time>2026-04-25T11:05:14.108Z</time></trkpt><trkpt lat="42.35089" lon="12.8178633"><ele>834.6666666666667</ele><time>2026-04-25T11:05:15.108Z</time></trkpt><trkpt lat="42.3509667" lon="12.8179317"><ele>836.0</ele><time>2026-04-25T11:05:16.11Z</time></trkpt><trkpt lat="42.3510383" lon="12.8180133"><ele>836.0</ele><time>2026-04-25T11:05:17.107Z</time></trkpt><trkpt lat="42.35111" lon="12.818105"><ele>836.0</ele><time>2026-04-25T11:05:18.11Z</time></trkpt><trkpt lat="42.351185" lon="12.818205"><ele>836.0</ele><time>2026-04-25T11:05:19.108Z</time></trkpt><trkpt lat="42.3512617" lon="12.8183133"><ele>836.0</ele><time>2026-04-25T11:05:20.106Z</time></trkpt><trkpt lat="42.3513317" lon="12.8184267"><ele>836.0</ele><time>2026-04-25T11:05:21.108Z</time></trkpt><trkpt lat="42.3514033" lon="12.818535"><ele>836.0</ele><time>2026-04-25T11:05:22.11Z</time></trkpt><trkpt lat="42.3514717" lon="12.8186317"><ele>836.0</ele><time>2026-04-25T11:05:23.107Z</time></trkpt><trkpt lat="42.3515433" lon="12.81872"><ele>836.0</ele><time>2026-04-25T11:05:24.108Z</time></trkpt><trkpt lat="42.3516167" lon="12.8187933"><ele>836.0</ele><time>2026-04-25T11:05:25.109Z</time></trkpt><trkpt lat="42.351695" lon="12.8188567"><ele>836.0</ele><time>2026-04-25T11:05:26.109Z</time></trkpt><trkpt lat="42.3517767" lon="12.8189167"><ele>836.0</ele><time>2026-04-25T11:05:27.11Z</time></trkpt><trkpt lat="42.3518667" lon="12.8189683"><ele>836.0</ele><time>2026-04-25T11:05:28.11Z</time></trkpt><trkpt lat="42.35196" lon="12.8190133"><ele>836.0</ele><time>2026-04-25T11:05:29.108Z</time></trkpt><trkpt lat="42.3520533" lon="12.819055"><ele>836.0</ele><time>2026-04-25T11:05:30.106Z</time></trkpt><trkpt lat="42.352145" lon="12.8191067"><ele>836.0</ele><time>2026-04-25T11:05:31.107Z</time></trkpt><trkpt lat="42.3522283" lon="12.8191717"><ele>836.0000000000001</ele><time>2026-04-25T11:05:32.108Z</time></trkpt><trkpt lat="42.3523017" lon="12.8192483"><ele>836.0</ele><time>2026-04-25T11:05:33.109Z</time></trkpt><trkpt lat="42.3523717" lon="12.81932"><ele>836.0</ele><time>2026-04-25T11:05:34.108Z</time></trkpt><trkpt lat="42.3524367" lon="12.819375"><ele>836.0</ele><time>2026-04-25T11:05:35.107Z</time></trkpt><trkpt lat="42.3524917" lon="12.8194267"><ele>836.0000000000001</ele><time>2026-04-25T11:05:36.109Z</time></trkpt><trkpt lat="42.3525583" lon="12.8195083"><ele>836.0</ele><time>2026-04-25T11:05:38.11Z</time></trkpt><trkpt lat="42.35263" lon="12.8195417"><ele>836.4</ele><time>2026-04-25T11:05:47.107Z</time></trkpt><trkpt lat="42.3527033" lon="12.819465"><ele>836.8</ele><time>2026-04-25T11:05:49.106Z</time></trkpt><trkpt lat="42.35284" lon="12.8194483"><ele>837.1999999999999</ele><time>2026-04-25T11:05:51.108Z</time></trkpt><trkpt lat="42.352925" lon="12.8194533"><ele>837.5999999999999</ele><time>2026-04-25T11:05:52.108Z</time></trkpt><trkpt lat="42.3530167" lon="12.8194583"><ele>838.0</ele><time>2026-04-25T11:05:53.106Z</time></trkpt><trkpt lat="42.35311" lon="12.81946"><ele>839.4</ele><time>2026-04-25T11:05:54.106Z</time></trkpt><trkpt lat="42.3532083" lon="12.8194633"><ele>840.8</ele><time>2026-04-25T11:05:55.107Z</time></trkpt><trkpt lat="42.353315" lon="12.8194683"><ele>842.2</ele><time>2026-04-25T11:05:56.107Z</time></trkpt><trkpt lat="42.3534267" lon="12.8194783"><ele>843.6</ele><time>2026-04-25T11:05:57.108Z</time></trkpt><trkpt lat="42.3535433" lon="12.8195033"><ele>845.0</ele><time>2026-04-25T11:05:58.109Z</time></trkpt><trkpt lat="42.353655" lon="12.8195317"><ele>845.0</ele><time>2026-04-25T11:05:59.107Z</time></trkpt><trkpt lat="42.3537617" lon="12.819555"><ele>845.0</ele><time>2026-04-25T11:06:00.108Z</time></trkpt><trkpt lat="42.3538667" lon="12.81958"><ele>845.0</ele><time>2026-04-25T11:06:01.107Z</time></trkpt><trkpt lat="42.35396" lon="12.8195933"><ele>845.0</ele><time>2026-04-25T11:06:02.106Z</time></trkpt><trkpt lat="42.3540333" lon="12.8195933"><ele>845.0</ele><time>2026-04-25T11:06:03.108Z</time></trkpt><trkpt lat="42.3541117" lon="12.8195867"><ele>841.8</ele><time>2026-04-25T11:06:05.107Z</time></trkpt><trkpt lat="42.3542067" lon="12.819555"><ele>838.6</ele><time>2026-04-25T11:06:22.106Z</time></trkpt><trkpt lat="42.3543183" lon="12.8195833"><ele>835.4000000000001</ele><time>2026-04-25T11:06:24.109Z</time></trkpt><trkpt lat="42.354395" lon="12.8196167"><ele>832.2</ele><time>2026-04-25T11:06:25.11Z</time></trkpt><trkpt lat="42.3544833" lon="12.8196717"><ele>829.0</ele><time>2026-04-25T11:06:26.108Z</time></trkpt><trkpt lat="42.35457" lon="12.8197417"><ele>829.0</ele><time>2026-04-25T11:06:27.109Z</time></trkpt><trkpt lat="42.354655" lon="12.819815"><ele>829.0</ele><time>2026-04-25T11:06:28.108Z</time></trkpt><trkpt lat="42.3547383" lon="12.81989"><ele>829.0</ele><time>2026-04-25T11:06:29.107Z</time></trkpt><trkpt lat="42.3548133" lon="12.81997"><ele>829.0</ele><time>2026-04-25T11:06:30.107Z</time></trkpt><trkpt lat="42.3548917" lon="12.8200417"><ele>829.0</ele><time>2026-04-25T11:06:31.108Z</time></trkpt><trkpt lat="42.354975" lon="12.8200967"><ele>826.6666666666666</ele><time>2026-04-25T11:06:32.106Z</time></trkpt><trkpt lat="42.3550567" lon="12.8201533"><ele>824.3333333333333</ele><time>2026-04-25T11:06:33.109Z</time></trkpt><trkpt lat="42.3551333" lon="12.8202033"><ele>822.0</ele><time>2026-04-25T11:06:34.109Z</time></trkpt><trkpt lat="42.3552083" lon="12.8202567"><ele>819.6666666666667</ele><time>2026-04-25T11:06:35.108Z</time></trkpt><trkpt lat="42.35528" lon="12.8203217"><ele>817.3333333333334</ele><time>2026-04-25T11:06:36.107Z</time></trkpt><trkpt lat="42.3553433" lon="12.8203883"><ele>815.0</ele><time>2026-04-25T11:06:37.105Z</time></trkpt><trkpt lat="42.355415" lon="12.8204833"><ele>815.0000000000001</ele><time>2026-04-25T11:06:39.107Z</time></trkpt><trkpt lat="42.355465" lon="12.8205433"><ele>815.0</ele><time>2026-04-25T11:06:43.11Z</time></trkpt><trkpt lat="42.3554233" lon="12.8204517"><ele>815.0</ele><time>2026-04-25T11:07:40.11Z</time></trkpt><trkpt lat="42.3553667" lon="12.8203667"><ele>815.0</ele><time>2026-04-25T11:07:41.109Z</time></trkpt><trkpt lat="42.355305" lon="12.82029"><ele>815.0000000000001</ele><time>2026-04-25T11:07:42.11Z</time></trkpt><trkpt lat="42.3552383" lon="12.82023"><ele>815.0</ele><time>2026-04-25T11:07:43.108Z</time></trkpt><trkpt lat="42.3551667" lon="12.8201833"><ele>818.0000000000001</ele><time>2026-04-25T11:07:44.107Z</time></trkpt><trkpt lat="42.35509" lon="12.820145"><ele>821.0</ele><time>2026-04-25T11:07:45.109Z</time></trkpt><trkpt lat="42.355015" lon="12.8201067"><ele>824.0</ele><time>2026-04-25T11:07:46.107Z</time></trkpt><trkpt lat="42.3549383" lon="12.8200633"><ele>827.0</ele><time>2026-04-25T11:07:47.107Z</time></trkpt><trkpt lat="42.3548633" lon="12.8200133"><ele>830.0000000000001</ele><time>2026-04-25T11:07:48.107Z</time></trkpt><trkpt lat="42.3547867" lon="12.8199567"><ele>833.0</ele><time>2026-04-25T11:07:49.109Z</time></trkpt><trkpt lat="42.3547183" lon="12.8198833"><ele>832.3333333333334</ele><time>2026-04-25T11:07:50.109Z</time></trkpt><trkpt lat="42.35465" lon="12.81982"><ele>831.6666666666667</ele><time>2026-04-25T11:07:51.108Z</time></trkpt><trkpt lat="42.3545867" lon="12.819755"><ele>831.0</ele><time>2026-04-25T11:07:52.108Z</time></trkpt><trkpt lat="42.3545283" lon="12.819695"><ele>830.3333333333333</ele><time>2026-04-25T11:07:53.108Z</time></trkpt><trkpt lat="42.3544733" lon="12.8196467"><ele>829.6666666666666</ele><time>2026-04-25T11:07:54.109Z</time></trkpt><trkpt lat="42.3543733" lon="12.8195767"><ele>829.0</ele><time>2026-04-25T11:07:56.109Z</time></trkpt><trkpt lat="42.3542767" lon="12.8195517"><ele>828.9999999999999</ele><time>2026-04-25T11:07:58.108Z</time></trkpt><trkpt lat="42.3542133" lon="12.8195717"><ele>829.0</ele><time>2026-04-25T11:08:05.11Z</time></trkpt><trkpt lat="42.3542367" lon="12.8194867"><ele>829.0</ele><time>2026-04-25T11:08:10.109Z</time></trkpt><trkpt lat="42.3543533" lon="12.8194483"><ele>829.0</ele><time>2026-04-25T11:08:12.107Z</time></trkpt><trkpt lat="42.354435" lon="12.8194033"><ele>828.9999999999999</ele><time>2026-04-25T11:08:13.108Z</time></trkpt><trkpt lat="42.35451" lon="12.8193567"><ele>829.0</ele><time>2026-04-25T11:08:14.11Z</time></trkpt><trkpt lat="42.354585" lon="12.819325"><ele>828.9999999999999</ele><time>2026-04-25T11:08:15.109Z</time></trkpt><trkpt lat="42.3546567" lon="12.8193217"><ele>829.0</ele><time>2026-04-25T11:08:16.107Z</time></trkpt><trkpt lat="42.3547267" lon="12.81934"><ele>829.0</ele><time>2026-04-25T11:08:17.107Z</time></trkpt><trkpt lat="42.3548067" lon="12.8193633"><ele>829.0</ele><time>2026-04-25T11:08:18.108Z</time></trkpt><trkpt lat="42.3548917" lon="12.819395"><ele>828.9999999999999</ele><time>2026-04-25T11:08:19.107Z</time></trkpt><trkpt lat="42.3549817" lon="12.8194233"><ele>829.0</ele><time>2026-04-25T11:08:20.106Z</time></trkpt><trkpt lat="42.3550767" lon="12.8194567"><ele>829.8000000000001</ele><time>2026-04-25T11:08:21.109Z</time></trkpt><trkpt lat="42.3551733" lon="12.8194917"><ele>830.6</ele><time>2026-04-25T11:08:22.108Z</time></trkpt><trkpt lat="42.35527" lon="12.8195333"><ele>831.4</ele><time>2026-04-25T11:08:23.108Z</time></trkpt><trkpt lat="42.3553667" lon="12.81957"><ele>832.2</ele><time>2026-04-25T11:08:24.109Z</time></trkpt><trkpt lat="42.3554633" lon="12.8195883"><ele>833.0</ele><time>2026-04-25T11:08:25.11Z</time></trkpt><trkpt lat="42.3555633" lon="12.8196017"><ele>836.5000000000001</ele><time>2026-04-25T11:08:26.108Z</time></trkpt><trkpt lat="42.3556583" lon="12.81962"><ele>840.0</ele><time>2026-04-25T11:08:27.11Z</time></trkpt><trkpt lat="42.3557383" lon="12.8196167"><ele>843.5</ele><time>2026-04-25T11:08:28.108Z</time></trkpt><trkpt lat="42.3558133" lon="12.819575"><ele>847.0</ele><time>2026-04-25T11:08:29.108Z</time></trkpt><trkpt lat="42.3558617" lon="12.8194867"><ele>850.5000000000001</ele><time>2026-04-25T11:08:30.107Z</time></trkpt><trkpt lat="42.35589" lon="12.8193917"><ele>854.0</ele><time>2026-04-25T11:08:31.109Z</time></trkpt><trkpt lat="42.3559017" lon="12.8193"><ele>855.3333333333334</ele><time>2026-04-25T11:08:32.108Z</time></trkpt><trkpt lat="42.3558933" lon="12.8191833"><ele>856.6666666666667</ele><time>2026-04-25T11:08:34.109Z</time></trkpt><trkpt lat="42.3558817" lon="12.81905"><ele>858.0</ele><time>2026-04-25T11:08:43.109Z</time></trkpt><trkpt lat="42.355895" lon="12.8189633"><ele>859.3333333333333</ele><time>2026-04-25T11:08:44.106Z</time></trkpt><trkpt lat="42.355925" lon="12.81887"><ele>860.6666666666666</ele><time>2026-04-25T11:08:45.108Z</time></trkpt><trkpt lat="42.3559667" lon="12.8187667"><ele>862.0</ele><time>2026-04-25T11:08:46.108Z</time></trkpt><trkpt lat="42.35601" lon="12.818675"><ele>861.9999999999999</ele><time>2026-04-25T11:08:47.107Z</time></trkpt><trkpt lat="42.35606" lon="12.81859"><ele>862.0</ele><time>2026-04-25T11:08:48.111Z</time></trkpt><trkpt lat="42.3561083" lon="12.818515"><ele>862.0</ele><time>2026-04-25T11:08:49.108Z</time></trkpt><trkpt lat="42.3561633" lon="12.8184467"><ele>862.0</ele><time>2026-04-25T11:08:50.11Z</time></trkpt><trkpt lat="42.356215" lon="12.818375"><ele>861.9999999999999</ele><time>2026-04-25T11:08:51.108Z</time></trkpt><trkpt lat="42.3562633" lon="12.8182883"><ele>862.0</ele><time>2026-04-25T11:08:52.108Z</time></trkpt><trkpt lat="42.35631" lon="12.8182033"><ele>862.8333333333333</ele><time>2026-04-25T11:08:53.109Z</time></trkpt><trkpt lat="42.3563517" lon="12.8181233"><ele>863.6666666666666</ele><time>2026-04-25T11:08:54.106Z</time></trkpt><trkpt lat="42.3563967" lon="12.81804"><ele>864.5</ele><time>2026-04-25T11:08:55.107Z</time></trkpt><trkpt lat="42.3564517" lon="12.8179483"><ele>865.3333333333333</ele><time>2026-04-25T11:08:56.107Z</time></trkpt><trkpt lat="42.35651" lon="12.8178517"><ele>866.1666666666666</ele><time>2026-04-25T11:08:57.108Z</time></trkpt><trkpt lat="42.35657" lon="12.81776"><ele>867.0</ele><time>2026-04-25T11:08:58.107Z</time></trkpt><trkpt lat="42.356625" lon="12.8176783"><ele>865.4000000000001</ele><time>2026-04-25T11:08:59.107Z</time></trkpt><trkpt lat="42.3566883" lon="12.8176033"><ele>863.8000000000001</ele><time>2026-04-25T11:09:01.108Z</time></trkpt><trkpt lat="42.3567283" lon="12.8174833"><ele>862.2</ele><time>2026-04-25T11:09:07.107Z</time></trkpt><trkpt lat="42.3567817" lon="12.8173767"><ele>860.6</ele><time>2026-04-25T11:09:08.109Z</time></trkpt><trkpt lat="42.356835" lon="12.817285"><ele>859.0</ele><time>2026-04-25T11:09:09.109Z</time></trkpt><trkpt lat="42.3568817" lon="12.8171383"><ele>859.0</ele><time>2026-04-25T11:09:11.107Z</time></trkpt><trkpt lat="42.3569317" lon="12.8169867"><ele>859.0000000000001</ele><time>2026-04-25T11:09:13.105Z</time></trkpt><trkpt lat="42.3569733" lon="12.8169133"><ele>859.0000000000001</ele><time>2026-04-25T11:09:14.106Z</time></trkpt><trkpt lat="42.3570383" lon="12.816805"><ele>859.0</ele><time>2026-04-25T11:09:16.108Z</time></trkpt><trkpt lat="42.3570917" lon="12.816725"><ele>859.0</ele><time>2026-04-25T11:09:18.108Z</time></trkpt><trkpt lat="42.3571517" lon="12.816655"><ele>859.3333333333333</ele><time>2026-04-25T11:09:20.106Z</time></trkpt><trkpt lat="42.35722" lon="12.816595"><ele>859.6666666666666</ele><time>2026-04-25T11:09:22.107Z</time></trkpt><trkpt lat="42.3572933" lon="12.81654"><ele>860.0</ele><time>2026-04-25T11:09:24.108Z</time></trkpt><trkpt lat="42.357375" lon="12.816495"><ele>860.3333333333333</ele><time>2026-04-25T11:09:26.107Z</time></trkpt><trkpt lat="42.35749" lon="12.8164433"><ele>860.6666666666666</ele><time>2026-04-25T11:09:28.106Z</time></trkpt><trkpt lat="42.357555" lon="12.8164133"><ele>861.0</ele><time>2026-04-25T11:09:29.108Z</time></trkpt><trkpt lat="42.3576183" lon="12.8163817"><ele>861.0</ele><time>2026-04-25T11:09:30.106Z</time></trkpt><trkpt lat="42.3576817" lon="12.8163483"><ele>861.0</ele><time>2026-04-25T11:09:31.106Z</time></trkpt><trkpt lat="42.3577417" lon="12.8163167"><ele>861.0</ele><time>2026-04-25T11:09:32.108Z</time></trkpt><trkpt lat="42.3578567" lon="12.8162433"><ele>861.0</ele><time>2026-04-25T11:09:34.108Z</time></trkpt><trkpt lat="42.3579183" lon="12.816205"><ele>861.0</ele><time>2026-04-25T11:09:35.107Z</time></trkpt><trkpt lat="42.3579933" lon="12.8161667"><ele>861.0</ele><time>2026-04-25T11:09:36.108Z</time></trkpt><trkpt lat="42.35807" lon="12.8161333"><ele>859.1666666666666</ele><time>2026-04-25T11:09:37.109Z</time></trkpt><trkpt lat="42.3581417" lon="12.8161083"><ele>857.3333333333333</ele><time>2026-04-25T11:09:38.107Z</time></trkpt><trkpt lat="42.3582133" lon="12.81609"><ele>855.5</ele><time>2026-04-25T11:09:39.108Z</time></trkpt><trkpt lat="42.3582883" lon="12.8160767"><ele>853.6666666666666</ele><time>2026-04-25T11:09:40.107Z</time></trkpt><trkpt lat="42.3583617" lon="12.816065"><ele>851.8333333333333</ele><time>2026-04-25T11:09:41.108Z</time></trkpt><trkpt lat="42.3584267" lon="12.8160617"><ele>850.0</ele><time>2026-04-25T11:09:42.108Z</time></trkpt><trkpt lat="42.3585467" lon="12.8160717"><ele>850.0</ele><time>2026-04-25T11:09:44.108Z</time></trkpt><trkpt lat="42.358665" lon="12.8161117"><ele>850.0</ele><time>2026-04-25T11:09:46.107Z</time></trkpt><trkpt lat="42.3587783" lon="12.8161317"><ele>850.0</ele><time>2026-04-25T11:09:48.109Z</time></trkpt><trkpt lat="42.35888" lon="12.8161083"><ele>850.0</ele><time>2026-04-25T11:09:50.107Z</time></trkpt><trkpt lat="42.35896" lon="12.8160567"><ele>850.0</ele><time>2026-04-25T11:09:52.107Z</time></trkpt><trkpt lat="42.3590583" lon="12.8160383"><ele>848.4</ele><time>2026-04-25T11:09:54.11Z</time></trkpt><trkpt lat="42.35913" lon="12.8160167"><ele>846.8</ele><time>2026-04-25T11:09:56.109Z</time></trkpt><trkpt lat="42.3592267" lon="12.8159683"><ele>845.2</ele><time>2026-04-25T11:09:58.107Z</time></trkpt><trkpt lat="42.3593033" lon="12.8158817"><ele>843.6</ele><time>2026-04-25T11:10:00.109Z</time></trkpt><trkpt lat="42.3593733" lon="12.815795"><ele>842.0</ele><time>2026-04-25T11:10:02.107Z</time></trkpt><trkpt lat="42.3594533" lon="12.815685"><ele>842.0</ele><time>2026-04-25T11:10:04.106Z</time></trkpt><trkpt lat="42.3595333" lon="12.8155683"><ele>842.0</ele><time>2026-04-25T11:10:06.107Z</time></trkpt><trkpt lat="42.3595883" lon="12.8154267"><ele>842.0</ele><time>2026-04-25T11:10:08.106Z</time></trkpt><trkpt lat="42.3596317" lon="12.8153083"><ele>842.0</ele><time>2026-04-25T11:10:10.106Z</time></trkpt><trkpt lat="42.3596633" lon="12.8152133"><ele>842.0</ele><time>2026-04-25T11:10:12.106Z</time></trkpt><trkpt lat="42.359715" lon="12.815105"><ele>843.8333333333334</ele><time>2026-04-25T11:10:14.11Z</time></trkpt><trkpt lat="42.3597683" lon="12.8149817"><ele>845.6666666666667</ele><time>2026-04-25T11:10:16.105Z</time></trkpt><trkpt lat="42.3598317" lon="12.8148467"><ele>847.5</ele><time>2026-04-25T11:10:18.107Z</time></trkpt><trkpt lat="42.3598633" lon="12.8147717"><ele>849.3333333333333</ele><time>2026-04-25T11:10:19.108Z</time></trkpt><trkpt lat="42.359895" lon="12.8146967"><ele>851.1666666666666</ele><time>2026-04-25T11:10:20.109Z</time></trkpt><trkpt lat="42.3599267" lon="12.8146217"><ele>853.0</ele><time>2026-04-25T11:10:21.108Z</time></trkpt><trkpt lat="42.3599617" lon="12.8145417"><ele>853.0</ele><time>2026-04-25T11:10:22.108Z</time></trkpt><trkpt lat="42.3599933" lon="12.8144617"><ele>853.0</ele><time>2026-04-25T11:10:23.106Z</time></trkpt><trkpt lat="42.360025" lon="12.8143833"><ele>853.0</ele><time>2026-04-25T11:10:24.108Z</time></trkpt><trkpt lat="42.360055" lon="12.8143067"><ele>853.0</ele><time>2026-04-25T11:10:25.108Z</time></trkpt><trkpt lat="42.3600867" lon="12.8142317"><ele>853.0</ele><time>2026-04-25T11:10:26.109Z</time></trkpt><trkpt lat="42.36012" lon="12.8141567"><ele>853.0</ele><time>2026-04-25T11:10:27.109Z</time></trkpt><trkpt lat="42.360155" lon="12.8140833"><ele>853.0</ele><time>2026-04-25T11:10:28.107Z</time></trkpt><trkpt lat="42.3601883" lon="12.8140083"><ele>852.8333333333333</ele><time>2026-04-25T11:10:29.108Z</time></trkpt><trkpt lat="42.3602167" lon="12.8139267"><ele>852.6666666666666</ele><time>2026-04-25T11:10:30.107Z</time></trkpt><trkpt lat="42.360255" lon="12.8138483"><ele>852.5</ele><time>2026-04-25T11:10:31.107Z</time></trkpt><trkpt lat="42.3603" lon="12.8137783"><ele>852.3333333333333</ele><time>2026-04-25T11:10:32.107Z</time></trkpt><trkpt lat="42.3603533" lon="12.81372"><ele>852.1666666666666</ele><time>2026-04-25T11:10:33.11Z</time></trkpt><trkpt lat="42.3604533" lon="12.8136433"><ele>852.0</ele><time>2026-04-25T11:10:35.109Z</time></trkpt><trkpt lat="42.36052" lon="12.8136183"><ele>853.0</ele><time>2026-04-25T11:10:37.107Z</time></trkpt><trkpt lat="42.3605967" lon="12.8135483"><ele>854.0</ele><time>2026-04-25T11:10:40.107Z</time></trkpt><trkpt lat="42.3606633" lon="12.8134167"><ele>855.0</ele><time>2026-04-25T11:10:42.107Z</time></trkpt><trkpt lat="42.3607567" lon="12.8132967"><ele>856.0</ele><time>2026-04-25T11:10:44.109Z</time></trkpt><trkpt lat="42.3608117" lon="12.813235"><ele>857.0</ele><time>2026-04-25T11:10:45.11Z</time></trkpt><trkpt lat="42.36087" lon="12.8131833"><ele>857.1666666666667</ele><time>2026-04-25T11:10:46.108Z</time></trkpt><trkpt lat="42.36093" lon="12.813135"><ele>857.3333333333334</ele><time>2026-04-25T11:10:47.108Z</time></trkpt><trkpt lat="42.3609983" lon="12.8130917"><ele>857.5</ele><time>2026-04-25T11:10:48.11Z</time></trkpt><trkpt lat="42.361065" lon="12.81305"><ele>857.6666666666667</ele><time>2026-04-25T11:10:49.11Z</time></trkpt><trkpt lat="42.3611333" lon="12.8130017"><ele>857.8333333333334</ele><time>2026-04-25T11:10:50.105Z</time></trkpt><trkpt lat="42.361215" lon="12.812955"><ele>858.0</ele><time>2026-04-25T11:10:51.108Z</time></trkpt><trkpt lat="42.361295" lon="12.8129067"><ele>857.3333333333334</ele><time>2026-04-25T11:10:52.109Z</time></trkpt><trkpt lat="42.3613767" lon="12.81285"><ele>856.6666666666667</ele><time>2026-04-25T11:10:53.106Z</time></trkpt><trkpt lat="42.3614483" lon="12.8127917"><ele>856.0</ele><time>2026-04-25T11:10:54.108Z</time></trkpt><trkpt lat="42.3615183" lon="12.812735"><ele>855.3333333333334</ele><time>2026-04-25T11:10:55.109Z</time></trkpt><trkpt lat="42.361585" lon="12.8126933"><ele>854.6666666666667</ele><time>2026-04-25T11:10:56.108Z</time></trkpt><trkpt lat="42.3616483" lon="12.8126583"><ele>854.0</ele><time>2026-04-25T11:10:57.108Z</time></trkpt><trkpt lat="42.361715" lon="12.8126333"><ele>854.0000000000001</ele><time>2026-04-25T11:10:58.107Z</time></trkpt><trkpt lat="42.3618" lon="12.8126067"><ele>854.0</ele><time>2026-04-25T11:10:59.108Z</time></trkpt><trkpt lat="42.36188" lon="12.8125833"><ele>854.0</ele><time>2026-04-25T11:11:00.109Z</time></trkpt><trkpt lat="42.3619617" lon="12.8125733"><ele>854.0</ele><time>2026-04-25T11:11:01.109Z</time></trkpt><trkpt lat="42.36203" lon="12.812565"><ele>854.0000000000001</ele><time>2026-04-25T11:11:02.109Z</time></trkpt><trkpt lat="42.36213" lon="12.8125167"><ele>854.0</ele><time>2026-04-25T11:11:04.106Z</time></trkpt><trkpt lat="42.362195" lon="12.81244"><ele>852.0000000000001</ele><time>2026-04-25T11:11:06.105Z</time></trkpt><trkpt lat="42.36227" lon="12.8123417"><ele>850.0</ele><time>2026-04-25T11:11:09.108Z</time></trkpt><trkpt lat="42.36233" lon="12.81228"><ele>848.0</ele><time>2026-04-25T11:11:11.106Z</time></trkpt><trkpt lat="42.3624133" lon="12.8122333"><ele>846.0</ele><time>2026-04-25T11:11:14.108Z</time></trkpt><trkpt lat="42.36248" lon="12.81221"><ele>844.0000000000001</ele><time>2026-04-25T11:11:16.106Z</time></trkpt><trkpt lat="42.362555" lon="12.8121633"><ele>842.0</ele><time>2026-04-25T11:11:18.107Z</time></trkpt><trkpt lat="42.36264" lon="12.81211"><ele>842.0</ele><time>2026-04-25T11:11:20.107Z</time></trkpt><trkpt lat="42.3627233" lon="12.8120567"><ele>842.0</ele><time>2026-04-25T11:11:22.106Z</time></trkpt><trkpt lat="42.362815" lon="12.812015"><ele>842.0</ele><time>2026-04-25T11:11:24.107Z</time></trkpt><trkpt lat="42.3629083" lon="12.8119733"><ele>842.0</ele><time>2026-04-25T11:11:26.107Z</time></trkpt><trkpt lat="42.363005" lon="12.8119217"><ele>842.0</ele><time>2026-04-25T11:11:28.108Z</time></trkpt><trkpt lat="42.36309" lon="12.811895"><ele>841.1666666666667</ele><time>2026-04-25T11:11:30.107Z</time></trkpt><trkpt lat="42.363165" lon="12.81186"><ele>840.3333333333334</ele><time>2026-04-25T11:11:32.109Z</time></trkpt><trkpt lat="42.3632283" lon="12.8118167"><ele>839.5</ele><time>2026-04-25T11:11:34.107Z</time></trkpt><trkpt lat="42.3633067" lon="12.811775"><ele>838.6666666666667</ele><time>2026-04-25T11:11:36.106Z</time></trkpt><trkpt lat="42.3633783" lon="12.8117233"><ele>837.8333333333334</ele><time>2026-04-25T11:11:38.107Z</time></trkpt><trkpt lat="42.3634533" lon="12.8116633"><ele>837.0</ele><time>2026-04-25T11:11:40.106Z</time></trkpt><trkpt lat="42.363535" lon="12.8116067"><ele>834.3333333333334</ele><time>2026-04-25T11:11:42.106Z</time></trkpt><trkpt lat="42.36363" lon="12.811545"><ele>831.6666666666667</ele><time>2026-04-25T11:11:44.108Z</time></trkpt><trkpt lat="42.3637017" lon="12.811495"><ele>829.0</ele><time>2026-04-25T11:11:46.107Z</time></trkpt><trkpt lat="42.3637733" lon="12.8114433"><ele>826.3333333333334</ele><time>2026-04-25T11:11:48.108Z</time></trkpt><trkpt lat="42.36386" lon="12.8113933"><ele>823.6666666666667</ele><time>2026-04-25T11:11:50.107Z</time></trkpt><trkpt lat="42.363935" lon="12.811365"><ele>821.0</ele><time>2026-04-25T11:11:52.107Z</time></trkpt><trkpt lat="42.3639967" lon="12.8113033"><ele>810.0</ele><time>2026-04-25T11:11:54.106Z</time></trkpt><trkpt lat="42.3640617" lon="12.8112467"><ele>810.0</ele><time>2026-04-25T11:11:56.108Z</time></trkpt><trkpt lat="42.3641367" lon="12.8111967"><ele>810.0</ele><time>2026-04-25T11:11:59.108Z</time></trkpt></trkseg><trkseg><trkpt lat="42.364285" lon="12.8111583"><ele>810.0</ele><time>2026-04-25T11:25:27.107Z</time></trkpt><trkpt lat="42.3643467" lon="12.81112"><ele>810.0</ele><time>2026-04-25T11:25:33.107Z</time></trkpt><trkpt lat="42.3643967" lon="12.8110283"><ele>810.0</ele><time>2026-04-25T11:25:36.107Z</time></trkpt><trkpt lat="42.3644717" lon="12.810955"><ele>810.0</ele><time>2026-04-25T11:25:38.106Z</time></trkpt><trkpt lat="42.36454" lon="12.8108933"><ele>810.0</ele><time>2026-04-25T11:25:40.106Z</time></trkpt><trkpt lat="42.3645817" lon="12.8108133"><ele>810.0</ele><time>2026-04-25T11:25:42.107Z</time></trkpt><trkpt lat="42.3646133" lon="12.8107183"><ele>808.1428571428571</ele><time>2026-04-25T11:25:44.108Z</time></trkpt><trkpt lat="42.364655" lon="12.810625"><ele>806.2857142857142</ele><time>2026-04-25T11:25:46.108Z</time></trkpt><trkpt lat="42.3647033" lon="12.8105433"><ele>804.4285714285713</ele><time>2026-04-25T11:25:48.106Z</time></trkpt><trkpt lat="42.3647567" lon="12.810475"><ele>802.5714285714286</ele><time>2026-04-25T11:25:50.108Z</time></trkpt><trkpt lat="42.3648017" lon="12.810395"><ele>800.7142857142858</ele><time>2026-04-25T11:25:53.107Z</time></trkpt><trkpt lat="42.3647817" lon="12.8102983"><ele>798.8571428571428</ele><time>2026-04-25T11:25:57.108Z</time></trkpt><trkpt lat="42.364835" lon="12.8102433"><ele>797.0</ele><time>2026-04-25T11:26:00.11Z</time></trkpt><trkpt lat="42.3650483" lon="12.8102133"><ele>792.8571428571428</ele><time>2026-04-25T11:26:08.107Z</time></trkpt><trkpt lat="42.3651067" lon="12.8101433"><ele>788.7142857142858</ele><time>2026-04-25T11:26:10.107Z</time></trkpt><trkpt lat="42.3651683" lon="12.8101083"><ele>784.5714285714286</ele><time>2026-04-25T11:26:12.108Z</time></trkpt><trkpt lat="42.3652617" lon="12.81007"><ele>780.4285714285713</ele><time>2026-04-25T11:26:14.109Z</time></trkpt><trkpt lat="42.3653217" lon="12.8100433"><ele>776.2857142857142</ele><time>2026-04-25T11:26:15.109Z</time></trkpt><trkpt lat="42.365385" lon="12.8100167"><ele>772.1428571428571</ele><time>2026-04-25T11:26:16.109Z</time></trkpt><trkpt lat="42.3654483" lon="12.8099933"><ele>768.0</ele><time>2026-04-25T11:26:17.108Z</time></trkpt><trkpt lat="42.36551" lon="12.8099683"><ele>765.8333333333334</ele><time>2026-04-25T11:26:18.108Z</time></trkpt><trkpt lat="42.3656167" lon="12.80994"><ele>763.6666666666666</ele><time>2026-04-25T11:26:20.108Z</time></trkpt><trkpt lat="42.365695" lon="12.8099383"><ele>761.5</ele><time>2026-04-25T11:26:22.11Z</time></trkpt><trkpt lat="42.36576" lon="12.809915"><ele>759.3333333333333</ele><time>2026-04-25T11:26:37.108Z</time></trkpt><trkpt lat="42.365825" lon="12.8098883"><ele>757.1666666666666</ele><time>2026-04-25T11:26:39.109Z</time></trkpt><trkpt lat="42.3659117" lon="12.8098833"><ele>755.0</ele><time>2026-04-25T11:26:41.108Z</time></trkpt><trkpt lat="42.3659717" lon="12.80992"><ele>755.0</ele><time>2026-04-25T11:26:43.107Z</time></trkpt><trkpt lat="42.3659667" lon="12.8100233"><ele>755.0</ele><time>2026-04-25T11:26:46.109Z</time></trkpt><trkpt lat="42.365915" lon="12.81011"><ele>755.0</ele><time>2026-04-25T11:26:49.107Z</time></trkpt><trkpt lat="42.3658667" lon="12.8101683"><ele>755.0</ele><time>2026-04-25T11:26:51.109Z</time></trkpt><trkpt lat="42.3658167" lon="12.81024"><ele>755.0</ele><time>2026-04-25T11:26:53.107Z</time></trkpt><trkpt lat="42.3657633" lon="12.8103133"><ele>755.0</ele><time>2026-04-25T11:26:55.108Z</time></trkpt><trkpt lat="42.36571" lon="12.8103933"><ele>754.6666666666666</ele><time>2026-04-25T11:26:57.108Z</time></trkpt><trkpt lat="42.3656583" lon="12.8104883"><ele>754.3333333333333</ele><time>2026-04-25T11:26:59.108Z</time></trkpt><trkpt lat="42.3656117" lon="12.810595"><ele>754.0</ele><time>2026-04-25T11:27:01.107Z</time></trkpt><trkpt lat="42.365605" lon="12.810705"><ele>753.6666666666666</ele><time>2026-04-25T11:27:03.109Z</time></trkpt><trkpt lat="42.3656333" lon="12.8108"><ele>753.3333333333334</ele><time>2026-04-25T11:27:05.107Z</time></trkpt><trkpt lat="42.36569" lon="12.8108933"><ele>753.0</ele><time>2026-04-25T11:27:07.109Z</time></trkpt><trkpt lat="42.3657633" lon="12.810955"><ele>753.0</ele><time>2026-04-25T11:27:09.109Z</time></trkpt><trkpt lat="42.3659117" lon="12.81096"><ele>753.0</ele><time>2026-04-25T11:27:12.109Z</time></trkpt><trkpt lat="42.36604" lon="12.8109733"><ele>753.0</ele><time>2026-04-25T11:27:14.108Z</time></trkpt><trkpt lat="42.366105" lon="12.8109767"><ele>753.0</ele><time>2026-04-25T11:27:15.106Z</time></trkpt><trkpt lat="42.3662217" lon="12.8109817"><ele>753.0</ele><time>2026-04-25T11:27:17.109Z</time></trkpt><trkpt lat="42.366345" lon="12.8109667"><ele>753.0</ele><time>2026-04-25T11:27:19.11Z</time></trkpt><trkpt lat="42.3664533" lon="12.8109233"><ele>753.0</ele><time>2026-04-25T11:27:21.11Z</time></trkpt><trkpt lat="42.3665583" lon="12.81087"><ele>753.0</ele><time>2026-04-25T11:27:23.108Z</time></trkpt><trkpt lat="42.366665" lon="12.8108333"><ele>748.8</ele><time>2026-04-25T11:27:25.11Z</time></trkpt><trkpt lat="42.36675" lon="12.8108217"><ele>744.5999999999999</ele><time>2026-04-25T11:27:27.112Z</time></trkpt><trkpt lat="42.366865" lon="12.8107983"><ele>740.4000000000001</ele><time>2026-04-25T11:27:29.109Z</time></trkpt><trkpt lat="42.3669717" lon="12.810765"><ele>736.2</ele><time>2026-04-25T11:27:31.11Z</time></trkpt><trkpt lat="42.3670633" lon="12.8107117"><ele>732.0</ele><time>2026-04-25T11:27:33.109Z</time></trkpt><trkpt lat="42.367145" lon="12.81068"><ele>728.0</ele><time>2026-04-25T11:27:35.109Z</time></trkpt><trkpt lat="42.3672233" lon="12.810675"><ele>724.0</ele><time>2026-04-25T11:27:37.108Z</time></trkpt><trkpt lat="42.36731" lon="12.81065"><ele>720.0</ele><time>2026-04-25T11:27:39.11Z</time></trkpt><trkpt lat="42.367365" lon="12.810605"><ele>716.0</ele><time>2026-04-25T11:27:41.106Z</time></trkpt><trkpt lat="42.3674217" lon="12.810535"><ele>712.0</ele><time>2026-04-25T11:27:43.108Z</time></trkpt><trkpt lat="42.3674917" lon="12.8104433"><ele>708.0</ele><time>2026-04-25T11:27:45.107Z</time></trkpt><trkpt lat="42.3675283" lon="12.8103317"><ele>708.0</ele><time>2026-04-25T11:27:47.107Z</time></trkpt><trkpt lat="42.3675733" lon="12.810235"><ele>708.0</ele><time>2026-04-25T11:27:49.108Z</time></trkpt><trkpt lat="42.36764" lon="12.81018"><ele>708.0</ele><time>2026-04-25T11:27:51.111Z</time></trkpt><trkpt lat="42.3677167" lon="12.8101633"><ele>708.0</ele><time>2026-04-25T11:27:53.11Z</time></trkpt><trkpt lat="42.3677967" lon="12.8101983"><ele>708.0</ele><time>2026-04-25T11:27:55.11Z</time></trkpt><trkpt lat="42.3678317" lon="12.8102917"><ele>708.0</ele><time>2026-04-25T11:27:58.11Z</time></trkpt><trkpt lat="42.36779" lon="12.8103617"><ele>708.0</ele><time>2026-04-25T11:28:10.108Z</time></trkpt><trkpt lat="42.367955" lon="12.8103217"><ele>708.0</ele><time>2026-04-25T11:28:21.111Z</time></trkpt><trkpt lat="42.3680433" lon="12.8103033"><ele>708.0</ele><time>2026-04-25T11:28:22.109Z</time></trkpt><trkpt lat="42.3681483" lon="12.810285"><ele>708.0</ele><time>2026-04-25T11:28:23.11Z</time></trkpt><trkpt lat="42.3682683" lon="12.8102567"><ele>706.0</ele><time>2026-04-25T11:28:24.108Z</time></trkpt><trkpt lat="42.368395" lon="12.8102317"><ele>704.0</ele><time>2026-04-25T11:28:25.11Z</time></trkpt><trkpt lat="42.3685117" lon="12.8102117"><ele>702.0</ele><time>2026-04-25T11:28:26.109Z</time></trkpt><trkpt lat="42.368615" lon="12.8101917"><ele>700.0</ele><time>2026-04-25T11:28:27.112Z</time></trkpt><trkpt lat="42.3687033" lon="12.8101583"><ele>698.0</ele><time>2026-04-25T11:28:28.11Z</time></trkpt><trkpt lat="42.3687967" lon="12.8101067"><ele>698.1666666666666</ele><time>2026-04-25T11:28:29.111Z</time></trkpt><trkpt lat="42.36888" lon="12.810035"><ele>698.3333333333333</ele><time>2026-04-25T11:28:30.109Z</time></trkpt><trkpt lat="42.368955" lon="12.8099517"><ele>698.5</ele><time>2026-04-25T11:28:31.108Z</time></trkpt><trkpt lat="42.3690217" lon="12.8098667"><ele>698.6666666666666</ele><time>2026-04-25T11:28:32.109Z</time></trkpt><trkpt lat="42.3690783" lon="12.809795"><ele>698.8333333333334</ele><time>2026-04-25T11:28:33.109Z</time></trkpt><trkpt lat="42.3691233" lon="12.809735"><ele>699.0</ele><time>2026-04-25T11:28:34.109Z</time></trkpt><trkpt lat="42.3692083" lon="12.80961"><ele>699.0</ele><time>2026-04-25T11:28:36.108Z</time></trkpt><trkpt lat="42.3692533" lon="12.809545"><ele>699.0</ele><time>2026-04-25T11:28:37.109Z</time></trkpt><trkpt lat="42.3693167" lon="12.8094267"><ele>699.0</ele><time>2026-04-25T11:28:39.11Z</time></trkpt><trkpt lat="42.3693517" lon="12.80931"><ele>699.0</ele><time>2026-04-25T11:28:41.11Z</time></trkpt><trkpt lat="42.3693667" lon="12.809205"><ele>699.0</ele><time>2026-04-25T11:28:43.108Z</time></trkpt><trkpt lat="42.3693433" lon="12.8092917"><ele>699.0</ele><time>2026-04-25T11:29:55.109Z</time></trkpt><trkpt lat="42.3693033" lon="12.8094483"><ele>699.0</ele><time>2026-04-25T11:29:57.109Z</time></trkpt><trkpt lat="42.3692667" lon="12.809525"><ele>699.0</ele><time>2026-04-25T11:29:58.108Z</time></trkpt><trkpt lat="42.3692267" lon="12.8095917"><ele>699.0</ele><time>2026-04-25T11:29:59.109Z</time></trkpt><trkpt lat="42.3691833" lon="12.8096617"><ele>699.0</ele><time>2026-04-25T11:30:00.111Z</time></trkpt><trkpt lat="42.36914" lon="12.8097317"><ele>699.0</ele><time>2026-04-25T11:30:01.11Z</time></trkpt><trkpt lat="42.3690983" lon="12.8097967"><ele>699.0</ele><time>2026-04-25T11:30:02.109Z</time></trkpt><trkpt lat="42.3690217" lon="12.8099067"><ele>699.0</ele><time>2026-04-25T11:30:04.109Z</time></trkpt><trkpt lat="42.3689433" lon="12.810005"><ele>698.8000000000001</ele><time>2026-04-25T11:30:06.111Z</time></trkpt><trkpt lat="42.3688583" lon="12.8100933"><ele>698.6</ele><time>2026-04-25T11:30:08.11Z</time></trkpt><trkpt lat="42.3687633" lon="12.81016"><ele>698.4</ele><time>2026-04-25T11:30:10.11Z</time></trkpt><trkpt lat="42.368655" lon="12.8101883"><ele>698.2</ele><time>2026-04-25T11:30:12.11Z</time></trkpt><trkpt lat="42.3685583" lon="12.8101967"><ele>698.0</ele><time>2026-04-25T11:30:14.111Z</time></trkpt><trkpt lat="42.3684367" lon="12.810205"><ele>697.3333333333333</ele><time>2026-04-25T11:30:16.107Z</time></trkpt><trkpt lat="42.36831" lon="12.81024"><ele>696.6666666666666</ele><time>2026-04-25T11:30:18.107Z</time></trkpt><trkpt lat="42.368245" lon="12.8102533"><ele>696.0</ele><time>2026-04-25T11:30:19.108Z</time></trkpt><trkpt lat="42.3681717" lon="12.8102667"><ele>695.3333333333334</ele><time>2026-04-25T11:30:20.107Z</time></trkpt><trkpt lat="42.3680933" lon="12.810275"><ele>694.6666666666667</ele><time>2026-04-25T11:30:21.109Z</time></trkpt><trkpt lat="42.3680217" lon="12.81029"><ele>694.0</ele><time>2026-04-25T11:30:22.108Z</time></trkpt><trkpt lat="42.3679483" lon="12.810315"><ele>696.8000000000001</ele><time>2026-04-25T11:30:23.108Z</time></trkpt><trkpt lat="42.3678867" lon="12.81034"><ele>699.6</ele><time>2026-04-25T11:30:24.109Z</time></trkpt><trkpt lat="42.3678017" lon="12.8103967"><ele>702.4</ele><time>2026-04-25T11:30:26.109Z</time></trkpt><trkpt lat="42.3677417" lon="12.8105183"><ele>705.2</ele><time>2026-04-25T11:30:28.108Z</time></trkpt><trkpt lat="42.36771" lon="12.8106783"><ele>708.0</ele><time>2026-04-25T11:30:30.109Z</time></trkpt><trkpt lat="42.3677067" lon="12.8108383"><ele>705.5999999999999</ele><time>2026-04-25T11:30:32.108Z</time></trkpt><trkpt lat="42.3677133" lon="12.8110033"><ele>703.1999999999999</ele><time>2026-04-25T11:30:34.112Z</time></trkpt><trkpt lat="42.367735" lon="12.8111567"><ele>700.8</ele><time>2026-04-25T11:30:36.109Z</time></trkpt><trkpt lat="42.3677683" lon="12.81125"><ele>698.4</ele><time>2026-04-25T11:30:38.112Z</time></trkpt><trkpt lat="42.3678083" lon="12.811335"><ele>696.0</ele><time>2026-04-25T11:30:42.107Z</time></trkpt><trkpt lat="42.3678517" lon="12.811425"><ele>696.0</ele><time>2026-04-25T11:30:50.107Z</time></trkpt><trkpt lat="42.3678333" lon="12.81131"><ele>696.0</ele><time>2026-04-25T11:30:55.108Z</time></trkpt><trkpt lat="42.3678783" lon="12.8111983"><ele>696.0</ele><time>2026-04-25T11:30:57.109Z</time></trkpt><trkpt lat="42.36793" lon="12.8111283"><ele>696.0</ele><time>2026-04-25T11:30:58.107Z</time></trkpt><trkpt lat="42.3679933" lon="12.8110533"><ele>696.0</ele><time>2026-04-25T11:30:59.109Z</time></trkpt><trkpt lat="42.368065" lon="12.8109783"><ele>696.0</ele><time>2026-04-25T11:31:00.108Z</time></trkpt><trkpt lat="42.368145" lon="12.8109017"><ele>695.5999999999999</ele><time>2026-04-25T11:31:01.107Z</time></trkpt><trkpt lat="42.3682317" lon="12.81082"><ele>695.2</ele><time>2026-04-25T11:31:02.109Z</time></trkpt><trkpt lat="42.36832" lon="12.81074"><ele>694.8</ele><time>2026-04-25T11:31:03.109Z</time></trkpt><trkpt lat="42.3684067" lon="12.8106633"><ele>694.4000000000001</ele><time>2026-04-25T11:31:04.109Z</time></trkpt><trkpt lat="42.3684917" lon="12.8105933"><ele>694.0</ele><time>2026-04-25T11:31:05.108Z</time></trkpt><trkpt lat="42.3685767" lon="12.8105333"><ele>694.0</ele><time>2026-04-25T11:31:06.109Z</time></trkpt><trkpt lat="42.3686583" lon="12.81048"><ele>694.0</ele><time>2026-04-25T11:31:07.108Z</time></trkpt><trkpt lat="42.3687383" lon="12.81044"><ele>694.0</ele><time>2026-04-25T11:31:08.107Z</time></trkpt><trkpt lat="42.3688133" lon="12.8104133"><ele>694.0</ele><time>2026-04-25T11:31:09.109Z</time></trkpt><trkpt lat="42.3689267" lon="12.810415"><ele>694.0</ele><time>2026-04-25T11:31:11.108Z</time></trkpt><trkpt lat="42.3690167" lon="12.8104633"><ele>694.8333333333334</ele><time>2026-04-25T11:31:13.108Z</time></trkpt><trkpt lat="42.3690933" lon="12.8104817"><ele>695.6666666666667</ele><time>2026-04-25T11:31:15.109Z</time></trkpt><trkpt lat="42.3691683" lon="12.8104217"><ele>696.5</ele><time>2026-04-25T11:31:18.111Z</time></trkpt><trkpt lat="42.369195" lon="12.8103317"><ele>697.3333333333334</ele><time>2026-04-25T11:31:20.108Z</time></trkpt><trkpt lat="42.3692217" lon="12.8102367"><ele>698.1666666666666</ele><time>2026-04-25T11:31:22.109Z</time></trkpt><trkpt lat="42.3692233" lon="12.8101483"><ele>699.0</ele><time>2026-04-25T11:31:24.107Z</time></trkpt><trkpt lat="42.369165" lon="12.8100617"><ele>699.0</ele><time>2026-04-25T11:31:28.109Z</time></trkpt><trkpt lat="42.369105" lon="12.8100217"><ele>699.0</ele><time>2026-04-25T11:31:31.109Z</time></trkpt><trkpt lat="42.3690333" lon="12.810045"><ele>699.0</ele><time>2026-04-25T11:32:05.107Z</time></trkpt><trkpt lat="42.368925" lon="12.8101367"><ele>699.0</ele><time>2026-04-25T11:32:07.109Z</time></trkpt><trkpt lat="42.36887" lon="12.810185"><ele>699.0</ele><time>2026-04-25T11:32:08.108Z</time></trkpt><trkpt lat="42.3688233" lon="12.8102433"><ele>699.0</ele><time>2026-04-25T11:32:09.109Z</time></trkpt><trkpt lat="42.3687833" lon="12.8103183"><ele>698.1666666666666</ele><time>2026-04-25T11:32:10.108Z</time></trkpt><trkpt lat="42.3687417" lon="12.8103917"><ele>697.3333333333334</ele><time>2026-04-25T11:32:11.109Z</time></trkpt><trkpt lat="42.3686917" lon="12.810455"><ele>696.5</ele><time>2026-04-25T11:32:12.108Z</time></trkpt><trkpt lat="42.36863" lon="12.8105067"><ele>695.6666666666667</ele><time>2026-04-25T11:32:13.107Z</time></trkpt><trkpt lat="42.36856" lon="12.8105567"><ele>694.8333333333334</ele><time>2026-04-25T11:32:14.111Z</time></trkpt><trkpt lat="42.3684833" lon="12.8106133"><ele>694.0</ele><time>2026-04-25T11:32:15.109Z</time></trkpt><trkpt lat="42.3684" lon="12.8106783"><ele>694.0</ele><time>2026-04-25T11:32:16.11Z</time></trkpt><trkpt lat="42.3683183" lon="12.810755"><ele>694.0</ele><time>2026-04-25T11:32:17.107Z</time></trkpt><trkpt lat="42.3682333" lon="12.8108317"><ele>694.0</ele><time>2026-04-25T11:32:18.108Z</time></trkpt><trkpt lat="42.3681483" lon="12.81091"><ele>694.0</ele><time>2026-04-25T11:32:19.111Z</time></trkpt><trkpt lat="42.368065" lon="12.8109917"><ele>694.0</ele><time>2026-04-25T11:32:20.107Z</time></trkpt><trkpt lat="42.36799" lon="12.8110683"><ele>694.3333333333334</ele><time>2026-04-25T11:32:21.106Z</time></trkpt><trkpt lat="42.367925" lon="12.81114"><ele>694.6666666666667</ele><time>2026-04-25T11:32:22.108Z</time></trkpt><trkpt lat="42.367875" lon="12.8111967"><ele>695.0</ele><time>2026-04-25T11:32:23.108Z</time></trkpt><trkpt lat="42.3678217" lon="12.8112817"><ele>695.3333333333334</ele><time>2026-04-25T11:32:25.108Z</time></trkpt><trkpt lat="42.367815" lon="12.8113883"><ele>695.6666666666666</ele><time>2026-04-25T11:32:28.109Z</time></trkpt><trkpt lat="42.3678517" lon="12.8114633"><ele>696.0</ele><time>2026-04-25T11:32:30.108Z</time></trkpt><trkpt lat="42.3679083" lon="12.8115767"><ele>696.0</ele><time>2026-04-25T11:32:32.107Z</time></trkpt><trkpt lat="42.3679483" lon="12.81165"><ele>696.0</ele><time>2026-04-25T11:32:33.108Z</time></trkpt><trkpt lat="42.3679967" lon="12.81174"><ele>696.0</ele><time>2026-04-25T11:32:34.107Z</time></trkpt><trkpt lat="42.3680483" lon="12.8118467"><ele>696.0</ele><time>2026-04-25T11:32:35.11Z</time></trkpt><trkpt lat="42.368105" lon="12.8119567"><ele>696.0</ele><time>2026-04-25T11:32:36.11Z</time></trkpt><trkpt lat="42.3681567" lon="12.8120733"><ele>696.0</ele><time>2026-04-25T11:32:37.108Z</time></trkpt><trkpt lat="42.3682083" lon="12.8121833"><ele>695.0</ele><time>2026-04-25T11:32:38.108Z</time></trkpt><trkpt lat="42.3682567" lon="12.812295"><ele>694.0</ele><time>2026-04-25T11:32:39.109Z</time></trkpt><trkpt lat="42.3683033" lon="12.8124067"><ele>693.0</ele><time>2026-04-25T11:32:40.109Z</time></trkpt><trkpt lat="42.3683467" lon="12.81251"><ele>692.0</ele><time>2026-04-25T11:32:41.108Z</time></trkpt><trkpt lat="42.3684" lon="12.8125983"><ele>691.0</ele><time>2026-04-25T11:32:42.109Z</time></trkpt><trkpt lat="42.3684617" lon="12.8126767"><ele>690.0</ele><time>2026-04-25T11:32:43.108Z</time></trkpt><trkpt lat="42.36853" lon="12.8127433"><ele>689.4</ele><time>2026-04-25T11:32:44.108Z</time></trkpt><trkpt lat="42.3685933" lon="12.8128033"><ele>688.8</ele><time>2026-04-25T11:32:45.111Z</time></trkpt><trkpt lat="42.3686517" lon="12.8128517"><ele>688.2</ele><time>2026-04-25T11:32:46.108Z</time></trkpt><trkpt lat="42.3687583" lon="12.81293"><ele>687.6</ele><time>2026-04-25T11:32:48.109Z</time></trkpt><trkpt lat="42.3688583" lon="12.812995"><ele>687.0</ele><time>2026-04-25T11:32:50.11Z</time></trkpt><trkpt lat="42.36896" lon="12.8130717"><ele>688.3333333333334</ele><time>2026-04-25T11:32:52.109Z</time></trkpt><trkpt lat="42.369065" lon="12.8131467"><ele>689.6666666666666</ele><time>2026-04-25T11:32:54.11Z</time></trkpt><trkpt lat="42.36912" lon="12.8131933"><ele>691.0</ele><time>2026-04-25T11:32:55.108Z</time></trkpt><trkpt lat="42.3691717" lon="12.8132483"><ele>692.3333333333333</ele><time>2026-04-25T11:32:56.107Z</time></trkpt><trkpt lat="42.369215" lon="12.813325"><ele>693.6666666666666</ele><time>2026-04-25T11:32:57.11Z</time></trkpt><trkpt lat="42.3692617" lon="12.813405"><ele>695.0</ele><time>2026-04-25T11:32:58.109Z</time></trkpt><trkpt lat="42.36931" lon="12.81348"><ele>694.0</ele><time>2026-04-25T11:32:59.108Z</time></trkpt><trkpt lat="42.369355" lon="12.8135567"><ele>693.0</ele><time>2026-04-25T11:33:00.109Z</time></trkpt><trkpt lat="42.3693983" lon="12.81363"><ele>692.0</ele><time>2026-04-25T11:33:01.109Z</time></trkpt><trkpt lat="42.3694617" lon="12.8137533"><ele>691.0</ele><time>2026-04-25T11:33:03.109Z</time></trkpt><trkpt lat="42.369505" lon="12.81387"><ele>690.0</ele><time>2026-04-25T11:33:05.109Z</time></trkpt><trkpt lat="42.3695267" lon="12.8139967"><ele>689.0</ele><time>2026-04-25T11:33:07.108Z</time></trkpt><trkpt lat="42.3695283" lon="12.8141233"><ele>689.0</ele><time>2026-04-25T11:33:09.109Z</time></trkpt><trkpt lat="42.3695133" lon="12.8142617"><ele>689.0</ele><time>2026-04-25T11:33:20.109Z</time></trkpt><trkpt lat="42.36955" lon="12.81417"><ele>689.0</ele><time>2026-04-25T11:33:24.108Z</time></trkpt><trkpt lat="42.3695583" lon="12.814065"><ele>689.0</ele><time>2026-04-25T11:33:26.108Z</time></trkpt><trkpt lat="42.36955" lon="12.8139717"><ele>689.0</ele><time>2026-04-25T11:33:29.107Z</time></trkpt><trkpt lat="42.3695467" lon="12.813885"><ele>689.0</ele><time>2026-04-25T11:33:31.11Z</time></trkpt><trkpt lat="42.3695367" lon="12.8137967"><ele>689.0</ele><time>2026-04-25T11:34:24.108Z</time></trkpt><trkpt lat="42.3694967" lon="12.81371"><ele>689.0</ele><time>2026-04-25T11:34:27.107Z</time></trkpt><trkpt lat="42.3694517" lon="12.8136367"><ele>689.0</ele><time>2026-04-25T11:34:29.108Z</time></trkpt><trkpt lat="42.3694017" lon="12.8135633"><ele>689.0</ele><time>2026-04-25T11:34:31.107Z</time></trkpt><trkpt lat="42.369345" lon="12.8134883"><ele>689.0</ele><time>2026-04-25T11:34:33.107Z</time></trkpt><trkpt lat="42.3692717" lon="12.81339"><ele>689.0</ele><time>2026-04-25T11:34:35.108Z</time></trkpt><trkpt lat="42.369205" lon="12.813285"><ele>688.6666666666666</ele><time>2026-04-25T11:34:37.107Z</time></trkpt><trkpt lat="42.3691533" lon="12.813205"><ele>688.3333333333333</ele><time>2026-04-25T11:34:39.109Z</time></trkpt><trkpt lat="42.3690817" lon="12.813135"><ele>688.0</ele><time>2026-04-25T11:34:41.107Z</time></trkpt><trkpt lat="42.369" lon="12.81308"><ele>687.6666666666666</ele><time>2026-04-25T11:34:43.108Z</time></trkpt><trkpt lat="42.368925" lon="12.8130267"><ele>687.3333333333334</ele><time>2026-04-25T11:34:45.108Z</time></trkpt><trkpt lat="42.3688517" lon="12.8129733"><ele>687.0</ele><time>2026-04-25T11:34:47.106Z</time></trkpt><trkpt lat="42.3687783" lon="12.8129233"><ele>687.0</ele><time>2026-04-25T11:34:49.106Z</time></trkpt><trkpt lat="42.3687033" lon="12.8128833"><ele>687.0</ele><time>2026-04-25T11:34:51.108Z</time></trkpt><trkpt lat="42.368645" lon="12.81284"><ele>687.0</ele><time>2026-04-25T11:34:53.109Z</time></trkpt><trkpt lat="42.36858" lon="12.8127867"><ele>687.0</ele><time>2026-04-25T11:34:55.107Z</time></trkpt><trkpt lat="42.36851" lon="12.81273"><ele>687.0</ele><time>2026-04-25T11:34:57.109Z</time></trkpt><trkpt lat="42.36845" lon="12.8126767"><ele>687.0</ele><time>2026-04-25T11:34:59.109Z</time></trkpt><trkpt lat="42.3683933" lon="12.8125967"><ele>687.6</ele><time>2026-04-25T11:35:01.107Z</time></trkpt><trkpt lat="42.36834" lon="12.812495"><ele>688.2</ele><time>2026-04-25T11:35:03.11Z</time></trkpt><trkpt lat="42.36829" lon="12.8123717"><ele>688.8</ele><time>2026-04-25T11:35:05.108Z</time></trkpt><trkpt lat="42.3682383" lon="12.8122233"><ele>689.4</ele><time>2026-04-25T11:35:07.107Z</time></trkpt><trkpt lat="42.3682067" lon="12.812145"><ele>690.0</ele><time>2026-04-25T11:35:08.107Z</time></trkpt><trkpt lat="42.3681717" lon="12.81206"><ele>690.0</ele><time>2026-04-25T11:35:09.109Z</time></trkpt><trkpt lat="42.3681317" lon="12.8119767"><ele>690.0</ele><time>2026-04-25T11:35:10.108Z</time></trkpt><trkpt lat="42.36809" lon="12.8118917"><ele>690.0</ele><time>2026-04-25T11:35:11.109Z</time></trkpt><trkpt lat="42.368045" lon="12.81181"><ele>690.0</ele><time>2026-04-25T11:35:12.108Z</time></trkpt><trkpt lat="42.3680033" lon="12.811725"><ele>690.0</ele><time>2026-04-25T11:35:13.107Z</time></trkpt><trkpt lat="42.367965" lon="12.8116383"><ele>690.0</ele><time>2026-04-25T11:35:14.109Z</time></trkpt><trkpt lat="42.3679267" lon="12.8115517"><ele>690.0</ele><time>2026-04-25T11:35:15.11Z</time></trkpt><trkpt lat="42.3678883" lon="12.81147"><ele>690.8</ele><time>2026-04-25T11:35:16.11Z</time></trkpt><trkpt lat="42.367845" lon="12.8113433"><ele>691.6</ele><time>2026-04-25T11:35:18.11Z</time></trkpt><trkpt lat="42.3678733" lon="12.8112217"><ele>692.4000000000001</ele><time>2026-04-25T11:35:20.106Z</time></trkpt><trkpt lat="42.36797" lon="12.8110983"><ele>693.2</ele><time>2026-04-25T11:35:22.108Z</time></trkpt><trkpt lat="42.3680317" lon="12.8110333"><ele>694.0</ele><time>2026-04-25T11:35:23.11Z</time></trkpt><trkpt lat="42.3681" lon="12.810965"><ele>694.0</ele><time>2026-04-25T11:35:24.108Z</time></trkpt><trkpt lat="42.368175" lon="12.8108917"><ele>694.0</ele><time>2026-04-25T11:35:25.106Z</time></trkpt><trkpt lat="42.3682533" lon="12.8108167"><ele>694.0</ele><time>2026-04-25T11:35:26.107Z</time></trkpt><trkpt lat="42.3683283" lon="12.810745"><ele>694.0</ele><time>2026-04-25T11:35:27.109Z</time></trkpt><trkpt lat="42.3684033" lon="12.8106767"><ele>694.0</ele><time>2026-04-25T11:35:28.108Z</time></trkpt><trkpt lat="42.36848" lon="12.81061"><ele>694.0</ele><time>2026-04-25T11:35:29.108Z</time></trkpt><trkpt lat="42.3685583" lon="12.8105467"><ele>694.0</ele><time>2026-04-25T11:35:30.108Z</time></trkpt><trkpt lat="42.3686317" lon="12.81049"><ele>694.0</ele><time>2026-04-25T11:35:31.107Z</time></trkpt><trkpt lat="42.3686967" lon="12.81044"><ele>694.0</ele><time>2026-04-25T11:35:32.109Z</time></trkpt><trkpt lat="42.36875" lon="12.8103933"><ele>694.0</ele><time>2026-04-25T11:35:33.107Z</time></trkpt><trkpt lat="42.36882" lon="12.8102717"><ele>694.0</ele><time>2026-04-25T11:35:35.109Z</time></trkpt><trkpt lat="42.3688917" lon="12.81018"><ele>694.8333333333334</ele><time>2026-04-25T11:35:37.107Z</time></trkpt><trkpt lat="42.36898" lon="12.8101017"><ele>695.6666666666667</ele><time>2026-04-25T11:35:39.109Z</time></trkpt><trkpt lat="42.3690583" lon="12.81004"><ele>696.5</ele><time>2026-04-25T11:35:41.108Z</time></trkpt><trkpt lat="42.3691317" lon="12.8100367"><ele>697.3333333333334</ele><time>2026-04-25T11:35:43.108Z</time></trkpt><trkpt lat="42.3692083" lon="12.8100433"><ele>698.1666666666666</ele><time>2026-04-25T11:35:45.108Z</time></trkpt><trkpt lat="42.3692783" lon="12.8100133"><ele>699.0</ele><time>2026-04-25T11:35:47.107Z</time></trkpt><trkpt lat="42.3693633" lon="12.8099533"><ele>699.0</ele><time>2026-04-25T11:35:49.107Z</time></trkpt><trkpt lat="42.3694433" lon="12.8098933"><ele>699.0</ele><time>2026-04-25T11:35:51.108Z</time></trkpt><trkpt lat="42.3695067" lon="12.8098467"><ele>699.0</ele><time>2026-04-25T11:35:53.107Z</time></trkpt></trkseg><trkseg><trkpt lat="42.3694733" lon="12.8098283"><ele>699.0</ele><time>2026-04-25T12:21:25.107Z</time></trkpt><trkpt lat="42.3693125" lon="12.8099267"><ele>699.0</ele><time>2026-04-25T12:23:39.109Z</time></trkpt><trkpt lat="42.3692018" lon="12.8099727"><ele>699.0</ele><time>2026-04-25T12:23:40.109Z</time></trkpt><trkpt lat="42.3691083" lon="12.8100219"><ele>699.0</ele><time>2026-04-25T12:23:41.109Z</time></trkpt><trkpt lat="42.3690254" lon="12.8100792"><ele>699.0</ele><time>2026-04-25T12:23:42.108Z</time></trkpt><trkpt lat="42.3689521" lon="12.8101338"><ele>699.0</ele><time>2026-04-25T12:23:43.108Z</time></trkpt><trkpt lat="42.3688904" lon="12.8101936"><ele>699.0</ele><time>2026-04-25T12:23:44.109Z</time></trkpt><trkpt lat="42.3688406" lon="12.8102705"><ele>699.0</ele><time>2026-04-25T12:23:45.109Z</time></trkpt><trkpt lat="42.3687971" lon="12.8103545"><ele>699.0</ele><time>2026-04-25T12:23:46.11Z</time></trkpt><trkpt lat="42.3687447" lon="12.810424"><ele>699.0</ele><time>2026-04-25T12:23:47.108Z</time></trkpt><trkpt lat="42.3686776" lon="12.8104821"><ele>698.0</ele><time>2026-04-25T12:23:48.108Z</time></trkpt><trkpt lat="42.3685993" lon="12.8105406"><ele>697.0</ele><time>2026-04-25T12:23:49.11Z</time></trkpt><trkpt lat="42.3685178" lon="12.8106025"><ele>696.0</ele><time>2026-04-25T12:23:50.11Z</time></trkpt><trkpt lat="42.3684378" lon="12.8106662"><ele>695.0</ele><time>2026-04-25T12:23:51.111Z</time></trkpt><trkpt lat="42.3683603" lon="12.8107346"><ele>694.0</ele><time>2026-04-25T12:23:52.111Z</time></trkpt><trkpt lat="42.3682876" lon="12.8108024"><ele>694.0</ele><time>2026-04-25T12:23:53.11Z</time></trkpt><trkpt lat="42.3682158" lon="12.8108694"><ele>694.0</ele><time>2026-04-25T12:23:54.111Z</time></trkpt><trkpt lat="42.3681441" lon="12.8109332"><ele>694.0</ele><time>2026-04-25T12:23:55.111Z</time></trkpt><trkpt lat="42.3680711" lon="12.811001"><ele>694.0</ele><time>2026-04-25T12:23:56.11Z</time></trkpt><trkpt lat="42.3679979" lon="12.8110755"><ele>694.0</ele><time>2026-04-25T12:23:57.109Z</time></trkpt><trkpt lat="42.3679318" lon="12.8111502"><ele>694.0</ele><time>2026-04-25T12:23:58.109Z</time></trkpt><trkpt lat="42.3678799" lon="12.8112236"><ele>694.4000000000001</ele><time>2026-04-25T12:23:59.11Z</time></trkpt><trkpt lat="42.367837" lon="12.8113445"><ele>694.8</ele><time>2026-04-25T12:24:01.109Z</time></trkpt><trkpt lat="42.3678683" lon="12.8114567"><ele>695.2</ele><time>2026-04-25T12:24:03.108Z</time></trkpt><trkpt lat="42.3679217" lon="12.81158"><ele>695.5999999999999</ele><time>2026-04-25T12:24:05.109Z</time></trkpt><trkpt lat="42.3679567" lon="12.8116583"><ele>696.0</ele><time>2026-04-25T12:24:06.109Z</time></trkpt><trkpt lat="42.3680283" lon="12.8118"><ele>695.0</ele><time>2026-04-25T12:24:08.108Z</time></trkpt><trkpt lat="42.3680967" lon="12.81194"><ele>694.0</ele><time>2026-04-25T12:24:10.108Z</time></trkpt><trkpt lat="42.368135" lon="12.8120267"><ele>693.0</ele><time>2026-04-25T12:24:11.108Z</time></trkpt><trkpt lat="42.3681717" lon="12.812115"><ele>692.0</ele><time>2026-04-25T12:24:12.109Z</time></trkpt><trkpt lat="42.368205" lon="12.8121983"><ele>691.0</ele><time>2026-04-25T12:24:13.108Z</time></trkpt><trkpt lat="42.368235" lon="12.812285"><ele>690.0</ele><time>2026-04-25T12:24:14.108Z</time></trkpt><trkpt lat="42.3682667" lon="12.8123717"><ele>690.0</ele><time>2026-04-25T12:24:15.11Z</time></trkpt><trkpt lat="42.3683017" lon="12.8124517"><ele>690.0</ele><time>2026-04-25T12:24:16.107Z</time></trkpt><trkpt lat="42.3683433" lon="12.8125333"><ele>690.0</ele><time>2026-04-25T12:24:17.108Z</time></trkpt><trkpt lat="42.3683917" lon="12.8126083"><ele>690.0</ele><time>2026-04-25T12:24:18.108Z</time></trkpt><trkpt lat="42.3684467" lon="12.8126733"><ele>690.0</ele><time>2026-04-25T12:24:19.109Z</time></trkpt><trkpt lat="42.3685017" lon="12.8127317"><ele>690.0</ele><time>2026-04-25T12:24:20.109Z</time></trkpt><trkpt lat="42.3685633" lon="12.8127867"><ele>690.0</ele><time>2026-04-25T12:24:21.109Z</time></trkpt><trkpt lat="42.36863" lon="12.81284"><ele>689.4</ele><time>2026-04-25T12:24:22.108Z</time></trkpt><trkpt lat="42.3687067" lon="12.8128933"><ele>688.8</ele><time>2026-04-25T12:24:23.108Z</time></trkpt><trkpt lat="42.3687933" lon="12.812945"><ele>688.2</ele><time>2026-04-25T12:24:24.109Z</time></trkpt><trkpt lat="42.3688733" lon="12.8129983"><ele>687.6</ele><time>2026-04-25T12:24:25.107Z</time></trkpt><trkpt lat="42.3689367" lon="12.813045"><ele>687.0</ele><time>2026-04-25T12:24:26.109Z</time></trkpt><trkpt lat="42.3690383" lon="12.8131233"><ele>687.4000000000001</ele><time>2026-04-25T12:24:28.109Z</time></trkpt><trkpt lat="42.3691217" lon="12.8131983"><ele>687.8000000000001</ele><time>2026-04-25T12:24:30.108Z</time></trkpt><trkpt lat="42.369205" lon="12.813305"><ele>688.2</ele><time>2026-04-25T12:24:46.108Z</time></trkpt><trkpt lat="42.36928" lon="12.81343"><ele>688.6</ele><time>2026-04-25T12:24:48.109Z</time></trkpt><trkpt lat="42.3693183" lon="12.8135"><ele>689.0</ele><time>2026-04-25T12:24:49.11Z</time></trkpt><trkpt lat="42.3693617" lon="12.8135667"><ele>689.0</ele><time>2026-04-25T12:24:50.109Z</time></trkpt><trkpt lat="42.3694017" lon="12.813635"><ele>689.0</ele><time>2026-04-25T12:24:51.112Z</time></trkpt><trkpt lat="42.3694367" lon="12.8137067"><ele>689.0</ele><time>2026-04-25T12:24:52.11Z</time></trkpt><trkpt lat="42.369465" lon="12.8137883"><ele>689.0</ele><time>2026-04-25T12:24:53.111Z</time></trkpt><trkpt lat="42.3694833" lon="12.813875"><ele>689.0</ele><time>2026-04-25T12:24:54.11Z</time></trkpt><trkpt lat="42.3694983" lon="12.8139667"><ele>689.0</ele><time>2026-04-25T12:24:55.109Z</time></trkpt><trkpt lat="42.3695017" lon="12.8140667"><ele>689.0</ele><time>2026-04-25T12:24:56.109Z</time></trkpt><trkpt lat="42.3695" lon="12.8141767"><ele>689.0</ele><time>2026-04-25T12:24:57.109Z</time></trkpt><trkpt lat="42.369495" lon="12.8142917"><ele>689.0</ele><time>2026-04-25T12:24:58.106Z</time></trkpt><trkpt lat="42.3694983" lon="12.8144067"><ele>689.0</ele><time>2026-04-25T12:24:59.107Z</time></trkpt><trkpt lat="42.3695017" lon="12.814525"><ele>689.0</ele><time>2026-04-25T12:25:00.108Z</time></trkpt><trkpt lat="42.3695067" lon="12.81464"><ele>689.0</ele><time>2026-04-25T12:25:01.108Z</time></trkpt><trkpt lat="42.3695117" lon="12.8147467"><ele>689.0</ele><time>2026-04-25T12:25:02.109Z</time></trkpt><trkpt lat="42.36952" lon="12.8148417"><ele>688.1428571428571</ele><time>2026-04-25T12:25:03.109Z</time></trkpt><trkpt lat="42.36953" lon="12.8149317"><ele>687.2857142857143</ele><time>2026-04-25T12:25:04.108Z</time></trkpt><trkpt lat="42.3695367" lon="12.8150183"><ele>686.4285714285714</ele><time>2026-04-25T12:25:05.109Z</time></trkpt><trkpt lat="42.3695433" lon="12.8151033"><ele>685.5714285714286</ele><time>2026-04-25T12:25:06.11Z</time></trkpt><trkpt lat="42.3695417" lon="12.81519"><ele>684.7142857142857</ele><time>2026-04-25T12:25:07.108Z</time></trkpt><trkpt lat="42.3695367" lon="12.815275"><ele>683.8571428571429</ele><time>2026-04-25T12:25:08.109Z</time></trkpt><trkpt lat="42.369535" lon="12.8153633"><ele>683.0</ele><time>2026-04-25T12:25:09.108Z</time></trkpt><trkpt lat="42.3695417" lon="12.8154567"><ele>682.2857142857143</ele><time>2026-04-25T12:25:10.108Z</time></trkpt><trkpt lat="42.3695533" lon="12.8155483"><ele>681.5714285714286</ele><time>2026-04-25T12:25:11.109Z</time></trkpt><trkpt lat="42.3695633" lon="12.8156367"><ele>680.8571428571429</ele><time>2026-04-25T12:25:12.109Z</time></trkpt><trkpt lat="42.3695717" lon="12.815725"><ele>680.1428571428571</ele><time>2026-04-25T12:25:13.108Z</time></trkpt><trkpt lat="42.3695717" lon="12.8158117"><ele>679.4285714285714</ele><time>2026-04-25T12:25:14.107Z</time></trkpt><trkpt lat="42.3695583" lon="12.8159"><ele>678.7142857142857</ele><time>2026-04-25T12:25:15.113Z</time></trkpt><trkpt lat="42.3695367" lon="12.8159867"><ele>678.0</ele><time>2026-04-25T12:25:16.11Z</time></trkpt><trkpt lat="42.3695117" lon="12.8160717"><ele>676.5714285714286</ele><time>2026-04-25T12:25:17.109Z</time></trkpt><trkpt lat="42.3694867" lon="12.8161583"><ele>675.1428571428572</ele><time>2026-04-25T12:25:18.112Z</time></trkpt><trkpt lat="42.36946" lon="12.8162433"><ele>673.7142857142858</ele><time>2026-04-25T12:25:19.109Z</time></trkpt><trkpt lat="42.3694367" lon="12.8163317"><ele>672.2857142857142</ele><time>2026-04-25T12:25:20.109Z</time></trkpt><trkpt lat="42.3694233" lon="12.8164233"><ele>670.8571428571429</ele><time>2026-04-25T12:25:21.111Z</time></trkpt><trkpt lat="42.3694283" lon="12.816515"><ele>669.4285714285714</ele><time>2026-04-25T12:25:22.109Z</time></trkpt><trkpt lat="42.3694467" lon="12.8166033"><ele>668.0</ele><time>2026-04-25T12:25:23.109Z</time></trkpt><trkpt lat="42.3694817" lon="12.8166833"><ele>668.0</ele><time>2026-04-25T12:25:24.109Z</time></trkpt><trkpt lat="42.36953" lon="12.8167433"><ele>668.0</ele><time>2026-04-25T12:25:25.108Z</time></trkpt><trkpt lat="42.369585" lon="12.81679"><ele>668.0</ele><time>2026-04-25T12:25:26.11Z</time></trkpt><trkpt lat="42.369645" lon="12.8168333"><ele>668.0</ele><time>2026-04-25T12:25:27.109Z</time></trkpt><trkpt lat="42.3697083" lon="12.8168683"><ele>668.0</ele><time>2026-04-25T12:25:28.108Z</time></trkpt><trkpt lat="42.3697717" lon="12.8168983"><ele>668.0</ele><time>2026-04-25T12:25:29.108Z</time></trkpt><trkpt lat="42.3698383" lon="12.8169233"><ele>668.0</ele><time>2026-04-25T12:25:30.108Z</time></trkpt><trkpt lat="42.3699317" lon="12.816965"><ele>668.0</ele><time>2026-04-25T12:25:32.109Z</time></trkpt><trkpt lat="42.370005" lon="12.816995"><ele>668.0</ele><time>2026-04-25T12:25:35.109Z</time></trkpt><trkpt lat="42.369925" lon="12.8169233"><ele>668.0</ele><time>2026-04-25T12:25:41.11Z</time></trkpt><trkpt lat="42.3697983" lon="12.8168717"><ele>668.0</ele><time>2026-04-25T12:25:43.111Z</time></trkpt><trkpt lat="42.369725" lon="12.8168367"><ele>668.0</ele><time>2026-04-25T12:25:44.109Z</time></trkpt><trkpt lat="42.3696517" lon="12.816795"><ele>668.0</ele><time>2026-04-25T12:25:45.109Z</time></trkpt><trkpt lat="42.3695833" lon="12.8167433"><ele>668.0</ele><time>2026-04-25T12:25:46.109Z</time></trkpt><trkpt lat="42.3695233" lon="12.816685"><ele>668.0</ele><time>2026-04-25T12:25:47.108Z</time></trkpt><trkpt lat="42.369475" lon="12.81661"><ele>668.0</ele><time>2026-04-25T12:25:48.109Z</time></trkpt><trkpt lat="42.3694467" lon="12.816515"><ele>668.0</ele><time>2026-04-25T12:25:49.109Z</time></trkpt><trkpt lat="42.3694367" lon="12.8164117"><ele>668.0</ele><time>2026-04-25T12:25:50.109Z</time></trkpt><trkpt lat="42.3694467" lon="12.8163117"><ele>668.0</ele><time>2026-04-25T12:25:51.11Z</time></trkpt><trkpt lat="42.3694817" lon="12.8162133"><ele>668.0</ele><time>2026-04-25T12:25:52.108Z</time></trkpt><trkpt lat="42.3695183" lon="12.81611"><ele>668.0</ele><time>2026-04-25T12:25:53.108Z</time></trkpt><trkpt lat="42.3695517" lon="12.816"><ele>668.0</ele><time>2026-04-25T12:25:54.108Z</time></trkpt><trkpt lat="42.3695817" lon="12.815885"><ele>668.0</ele><time>2026-04-25T12:25:55.11Z</time></trkpt><trkpt lat="42.3695917" lon="12.8157667"><ele>668.0</ele><time>2026-04-25T12:25:56.109Z</time></trkpt><trkpt lat="42.3695883" lon="12.8156417"><ele>669.6666666666666</ele><time>2026-04-25T12:25:57.109Z</time></trkpt><trkpt lat="42.36958" lon="12.815515"><ele>671.3333333333333</ele><time>2026-04-25T12:25:58.109Z</time></trkpt><trkpt lat="42.3695717" lon="12.8154133"><ele>673.0</ele><time>2026-04-25T12:25:59.109Z</time></trkpt><trkpt lat="42.369565" lon="12.815295"><ele>674.6666666666666</ele><time>2026-04-25T12:26:01.109Z</time></trkpt><trkpt lat="42.3695417" lon="12.8152117"><ele>676.3333333333334</ele><time>2026-04-25T12:26:04.109Z</time></trkpt><trkpt lat="42.36954" lon="12.8153117"><ele>678.0</ele><time>2026-04-25T12:26:18.11Z</time></trkpt><trkpt lat="42.3695417" lon="12.815415"><ele>678.0</ele><time>2026-04-25T12:26:20.109Z</time></trkpt><trkpt lat="42.369555" lon="12.8155367"><ele>678.0</ele><time>2026-04-25T12:26:22.107Z</time></trkpt><trkpt lat="42.3695683" lon="12.81567"><ele>678.0</ele><time>2026-04-25T12:26:24.107Z</time></trkpt><trkpt lat="42.369565" lon="12.81581"><ele>678.0</ele><time>2026-04-25T12:26:26.109Z</time></trkpt><trkpt lat="42.369545" lon="12.815915"><ele>678.0</ele><time>2026-04-25T12:26:27.109Z</time></trkpt><trkpt lat="42.36951" lon="12.8160483"><ele>676.0</ele><time>2026-04-25T12:26:28.107Z</time></trkpt><trkpt lat="42.3694717" lon="12.8161783"><ele>674.0</ele><time>2026-04-25T12:26:29.109Z</time></trkpt><trkpt lat="42.3694367" lon="12.8163083"><ele>672.0</ele><time>2026-04-25T12:26:30.11Z</time></trkpt><trkpt lat="42.3694183" lon="12.8164333"><ele>670.0</ele><time>2026-04-25T12:26:31.107Z</time></trkpt><trkpt lat="42.36943" lon="12.81655"><ele>668.0</ele><time>2026-04-25T12:26:32.109Z</time></trkpt><trkpt lat="42.3694617" lon="12.8166533"><ele>668.0</ele><time>2026-04-25T12:26:33.11Z</time></trkpt><trkpt lat="42.3695217" lon="12.8167433"><ele>668.0</ele><time>2026-04-25T12:26:34.109Z</time></trkpt><trkpt lat="42.369615" lon="12.8168133"><ele>668.0</ele><time>2026-04-25T12:26:35.11Z</time></trkpt><trkpt lat="42.3697267" lon="12.8168733"><ele>668.0</ele><time>2026-04-25T12:26:36.109Z</time></trkpt><trkpt lat="42.3698483" lon="12.816925"><ele>668.0</ele><time>2026-04-25T12:26:37.109Z</time></trkpt><trkpt lat="42.36997" lon="12.8169667"><ele>667.4</ele><time>2026-04-25T12:26:38.107Z</time></trkpt><trkpt lat="42.3700883" lon="12.8169917"><ele>666.8</ele><time>2026-04-25T12:26:39.107Z</time></trkpt><trkpt lat="42.3701967" lon="12.8170067"><ele>666.2</ele><time>2026-04-25T12:26:40.108Z</time></trkpt><trkpt lat="42.370295" lon="12.8170133"><ele>665.6</ele><time>2026-04-25T12:26:41.109Z</time></trkpt><trkpt lat="42.370385" lon="12.8170083"><ele>665.0</ele><time>2026-04-25T12:26:42.109Z</time></trkpt><trkpt lat="42.370465" lon="12.8170083"><ele>665.0</ele><time>2026-04-25T12:26:43.108Z</time></trkpt><trkpt lat="42.37057" lon="12.8170033"><ele>665.0</ele><time>2026-04-25T12:26:45.108Z</time></trkpt><trkpt lat="42.3705983" lon="12.8169267"><ele>665.0</ele><time>2026-04-25T12:26:48.109Z</time></trkpt><trkpt lat="42.37054" lon="12.816885"><ele>665.0</ele><time>2026-04-25T12:26:51.109Z</time></trkpt><trkpt lat="42.37044" lon="12.816915"><ele>665.0</ele><time>2026-04-25T12:26:53.109Z</time></trkpt><trkpt lat="42.37031" lon="12.8169567"><ele>665.0</ele><time>2026-04-25T12:26:55.108Z</time></trkpt><trkpt lat="42.3702333" lon="12.8169667"><ele>665.0</ele><time>2026-04-25T12:26:56.108Z</time></trkpt><trkpt lat="42.3701517" lon="12.8169633"><ele>665.0</ele><time>2026-04-25T12:26:57.108Z</time></trkpt><trkpt lat="42.3700667" lon="12.81695"><ele>665.0</ele><time>2026-04-25T12:26:58.107Z</time></trkpt><trkpt lat="42.36998" lon="12.8169333"><ele>665.0</ele><time>2026-04-25T12:26:59.108Z</time></trkpt><trkpt lat="42.3698883" lon="12.81691"><ele>665.0</ele><time>2026-04-25T12:27:00.107Z</time></trkpt><trkpt lat="42.3697967" lon="12.8168817"><ele>665.0</ele><time>2026-04-25T12:27:01.107Z</time></trkpt><trkpt lat="42.369705" lon="12.8168417"><ele>665.0</ele><time>2026-04-25T12:27:02.109Z</time></trkpt><trkpt lat="42.369625" lon="12.8167983"><ele>665.0</ele><time>2026-04-25T12:27:03.108Z</time></trkpt><trkpt lat="42.369555" lon="12.81674"><ele>665.0</ele><time>2026-04-25T12:27:04.109Z</time></trkpt><trkpt lat="42.369495" lon="12.81666"><ele>665.0</ele><time>2026-04-25T12:27:05.107Z</time></trkpt><trkpt lat="42.3694467" lon="12.81657"><ele>665.0</ele><time>2026-04-25T12:27:06.109Z</time></trkpt><trkpt lat="42.36942" lon="12.8164483"><ele>665.5</ele><time>2026-04-25T12:27:07.108Z</time></trkpt><trkpt lat="42.3694333" lon="12.81633"><ele>666.0</ele><time>2026-04-25T12:27:08.108Z</time></trkpt><trkpt lat="42.3694583" lon="12.8162183"><ele>666.5</ele><time>2026-04-25T12:27:09.109Z</time></trkpt><trkpt lat="42.3694917" lon="12.8161167"><ele>667.0</ele><time>2026-04-25T12:27:10.109Z</time></trkpt><trkpt lat="42.3695233" lon="12.8160183"><ele>667.5</ele><time>2026-04-25T12:27:11.111Z</time></trkpt><trkpt lat="42.3695517" lon="12.8159233"><ele>668.0</ele><time>2026-04-25T12:27:12.11Z</time></trkpt><trkpt lat="42.3695833" lon="12.8157817"><ele>669.6666666666666</ele><time>2026-04-25T12:27:14.108Z</time></trkpt><trkpt lat="42.3695717" lon="12.8156183"><ele>671.3333333333333</ele><time>2026-04-25T12:27:16.109Z</time></trkpt><trkpt lat="42.3695617" lon="12.8155233"><ele>673.0</ele><time>2026-04-25T12:27:17.109Z</time></trkpt><trkpt lat="42.3695517" lon="12.81543"><ele>674.6666666666666</ele><time>2026-04-25T12:27:18.109Z</time></trkpt><trkpt lat="42.369545" lon="12.8153367"><ele>676.3333333333334</ele><time>2026-04-25T12:27:19.11Z</time></trkpt><trkpt lat="42.3695467" lon="12.8152483"><ele>678.0</ele><time>2026-04-25T12:27:20.111Z</time></trkpt><trkpt lat="42.369545" lon="12.815155"><ele>678.8333333333334</ele><time>2026-04-25T12:27:21.111Z</time></trkpt><trkpt lat="42.3695433" lon="12.815055"><ele>679.6666666666666</ele><time>2026-04-25T12:27:22.11Z</time></trkpt><trkpt lat="42.36954" lon="12.8149533"><ele>680.5</ele><time>2026-04-25T12:27:23.11Z</time></trkpt><trkpt lat="42.3695383" lon="12.8148517"><ele>681.3333333333333</ele><time>2026-04-25T12:27:24.111Z</time></trkpt><trkpt lat="42.36954" lon="12.8147517"><ele>682.1666666666666</ele><time>2026-04-25T12:27:25.109Z</time></trkpt><trkpt lat="42.3695417" lon="12.8146467"><ele>683.0</ele><time>2026-04-25T12:27:26.111Z</time></trkpt><trkpt lat="42.3695467" lon="12.814535"><ele>683.0</ele><time>2026-04-25T12:27:27.111Z</time></trkpt><trkpt lat="42.3695517" lon="12.81442"><ele>683.0</ele><time>2026-04-25T12:27:28.11Z</time></trkpt><trkpt lat="42.369555" lon="12.8143"><ele>683.0</ele><time>2026-04-25T12:27:29.11Z</time></trkpt><trkpt lat="42.3695633" lon="12.8141817"><ele>683.0</ele><time>2026-04-25T12:27:30.11Z</time></trkpt><trkpt lat="42.3695667" lon="12.8140767"><ele>683.0</ele><time>2026-04-25T12:27:31.106Z</time></trkpt><trkpt lat="42.3695667" lon="12.8139867"><ele>683.0</ele><time>2026-04-25T12:27:32.108Z</time></trkpt><trkpt lat="42.3695967" lon="12.813825"><ele>683.8571428571429</ele><time>2026-04-25T12:27:34.139Z</time></trkpt><trkpt lat="42.369635" lon="12.8137517"><ele>684.7142857142857</ele><time>2026-04-25T12:27:35.107Z</time></trkpt><trkpt lat="42.3696883" lon="12.8136867"><ele>685.5714285714286</ele><time>2026-04-25T12:27:36.108Z</time></trkpt><trkpt lat="42.3697583" lon="12.813635"><ele>686.4285714285714</ele><time>2026-04-25T12:27:37.108Z</time></trkpt><trkpt lat="42.3698367" lon="12.8135983"><ele>687.2857142857143</ele><time>2026-04-25T12:27:38.109Z</time></trkpt><trkpt lat="42.3699117" lon="12.8135783"><ele>688.1428571428571</ele><time>2026-04-25T12:27:39.108Z</time></trkpt><trkpt lat="42.3699833" lon="12.81358"><ele>689.0</ele><time>2026-04-25T12:27:40.108Z</time></trkpt><trkpt lat="42.37005" lon="12.81361"><ele>690.6666666666666</ele><time>2026-04-25T12:27:41.109Z</time></trkpt><trkpt lat="42.3701517" lon="12.8136917"><ele>692.3333333333333</ele><time>2026-04-25T12:27:43.108Z</time></trkpt><trkpt lat="42.3702317" lon="12.8137333"><ele>694.0</ele><time>2026-04-25T12:27:45.11Z</time></trkpt><trkpt lat="42.370325" lon="12.81369"><ele>695.6666666666666</ele><time>2026-04-25T12:27:47.109Z</time></trkpt><trkpt lat="42.3703817" lon="12.81364"><ele>697.3333333333334</ele><time>2026-04-25T12:27:48.109Z</time></trkpt><trkpt lat="42.3704433" lon="12.8135883"><ele>699.0</ele><time>2026-04-25T12:27:49.109Z</time></trkpt><trkpt lat="42.3705067" lon="12.8135383"><ele>697.8333333333334</ele><time>2026-04-25T12:27:50.11Z</time></trkpt><trkpt lat="42.3705733" lon="12.813495"><ele>696.6666666666666</ele><time>2026-04-25T12:27:51.11Z</time></trkpt><trkpt lat="42.3706433" lon="12.8134483"><ele>695.5</ele><time>2026-04-25T12:27:52.11Z</time></trkpt><trkpt lat="42.37072" lon="12.813405"><ele>694.3333333333333</ele><time>2026-04-25T12:27:53.11Z</time></trkpt><trkpt lat="42.3707883" lon="12.8133583"><ele>693.1666666666666</ele><time>2026-04-25T12:27:54.11Z</time></trkpt><trkpt lat="42.3708567" lon="12.813315"><ele>692.0</ele><time>2026-04-25T12:27:55.11Z</time></trkpt><trkpt lat="42.3709283" lon="12.813275"><ele>692.0</ele><time>2026-04-25T12:27:56.109Z</time></trkpt><trkpt lat="42.370995" lon="12.81323"><ele>692.0</ele><time>2026-04-25T12:27:57.111Z</time></trkpt><trkpt lat="42.3710583" lon="12.8132"><ele>692.0</ele><time>2026-04-25T12:27:58.109Z</time></trkpt><trkpt lat="42.3711683" lon="12.8131467"><ele>692.0</ele><time>2026-04-25T12:28:00.11Z</time></trkpt><trkpt lat="42.37128" lon="12.8130983"><ele>692.0</ele><time>2026-04-25T12:28:02.107Z</time></trkpt><trkpt lat="42.37135" lon="12.8130817"><ele>692.0</ele><time>2026-04-25T12:28:03.109Z</time></trkpt><trkpt lat="42.3714233" lon="12.8130767"><ele>691.7142857142857</ele><time>2026-04-25T12:28:04.109Z</time></trkpt><trkpt lat="42.371495" lon="12.813085"><ele>691.4285714285714</ele><time>2026-04-25T12:28:05.11Z</time></trkpt><trkpt lat="42.3715667" lon="12.8130933"><ele>691.1428571428571</ele><time>2026-04-25T12:28:06.107Z</time></trkpt><trkpt lat="42.3716367" lon="12.813105"><ele>690.8571428571429</ele><time>2026-04-25T12:28:07.108Z</time></trkpt><trkpt lat="42.3717067" lon="12.8131083"><ele>690.5714285714286</ele><time>2026-04-25T12:28:08.109Z</time></trkpt><trkpt lat="42.3717733" lon="12.813095"><ele>690.2857142857143</ele><time>2026-04-25T12:28:09.109Z</time></trkpt><trkpt lat="42.3718367" lon="12.8130667"><ele>690.0</ele><time>2026-04-25T12:28:10.109Z</time></trkpt><trkpt lat="42.3719433" lon="12.8130117"><ele>690.0</ele><time>2026-04-25T12:28:12.111Z</time></trkpt><trkpt lat="42.3720283" lon="12.8129783"><ele>690.0</ele><time>2026-04-25T12:28:14.108Z</time></trkpt><trkpt lat="42.3721033" lon="12.8129633"><ele>690.0</ele><time>2026-04-25T12:28:16.107Z</time></trkpt><trkpt lat="42.3721783" lon="12.8129517"><ele>690.0</ele><time>2026-04-25T12:28:19.108Z</time></trkpt><trkpt lat="42.3722517" lon="12.8129117"><ele>690.0</ele><time>2026-04-25T12:28:22.108Z</time></trkpt><trkpt lat="42.3723117" lon="12.8128533"><ele>690.0</ele><time>2026-04-25T12:28:24.109Z</time></trkpt><trkpt lat="42.3723683" lon="12.812785"><ele>689.1666666666666</ele><time>2026-04-25T12:28:26.11Z</time></trkpt><trkpt lat="42.3724367" lon="12.8127133"><ele>688.3333333333334</ele><time>2026-04-25T12:28:28.111Z</time></trkpt><trkpt lat="42.37251" lon="12.8126417"><ele>687.5</ele><time>2026-04-25T12:28:30.11Z</time></trkpt><trkpt lat="42.372585" lon="12.812595"><ele>686.6666666666667</ele><time>2026-04-25T12:28:32.107Z</time></trkpt><trkpt lat="42.3726467" lon="12.812545"><ele>685.8333333333334</ele><time>2026-04-25T12:28:34.107Z</time></trkpt><trkpt lat="42.37271" lon="12.812485"><ele>685.0</ele><time>2026-04-25T12:28:36.108Z</time></trkpt><trkpt lat="42.37277" lon="12.81241"><ele>684.6666666666667</ele><time>2026-04-25T12:28:38.106Z</time></trkpt><trkpt lat="42.3728267" lon="12.8123033"><ele>684.3333333333334</ele><time>2026-04-25T12:28:40.108Z</time></trkpt><trkpt lat="42.3728767" lon="12.812225"><ele>684.0</ele><time>2026-04-25T12:28:43.107Z</time></trkpt><trkpt lat="42.37282" lon="12.8123"><ele>683.6666666666666</ele><time>2026-04-25T12:28:49.109Z</time></trkpt><trkpt lat="42.3727417" lon="12.812435"><ele>683.3333333333333</ele><time>2026-04-25T12:28:51.11Z</time></trkpt><trkpt lat="42.3726933" lon="12.8124983"><ele>683.0</ele><time>2026-04-25T12:28:52.11Z</time></trkpt><trkpt lat="42.3726417" lon="12.81255"><ele>683.0</ele><time>2026-04-25T12:28:53.11Z</time></trkpt><trkpt lat="42.3725867" lon="12.8126033"><ele>683.0</ele><time>2026-04-25T12:28:54.111Z</time></trkpt><trkpt lat="42.372525" lon="12.8126517"><ele>683.0</ele><time>2026-04-25T12:28:55.111Z</time></trkpt><trkpt lat="42.37246" lon="12.812705"><ele>683.0</ele><time>2026-04-25T12:28:56.108Z</time></trkpt><trkpt lat="42.3723983" lon="12.8127583"><ele>683.0</ele><time>2026-04-25T12:28:57.112Z</time></trkpt><trkpt lat="42.372345" lon="12.8128267"><ele>683.0</ele><time>2026-04-25T12:28:58.111Z</time></trkpt><trkpt lat="42.37229" lon="12.8128867"><ele>683.0</ele><time>2026-04-25T12:28:59.111Z</time></trkpt><trkpt lat="42.372225" lon="12.812935"><ele>684.1666666666666</ele><time>2026-04-25T12:29:00.11Z</time></trkpt><trkpt lat="42.3721517" lon="12.8129617"><ele>685.3333333333333</ele><time>2026-04-25T12:29:01.11Z</time></trkpt><trkpt lat="42.3720717" lon="12.81298"><ele>686.5</ele><time>2026-04-25T12:29:02.109Z</time></trkpt><trkpt lat="42.3719917" lon="12.8130067"><ele>687.6666666666666</ele><time>2026-04-25T12:29:03.108Z</time></trkpt><trkpt lat="42.371915" lon="12.8130367"><ele>688.8333333333334</ele><time>2026-04-25T12:29:04.11Z</time></trkpt><trkpt lat="42.37184" lon="12.81307"><ele>690.0</ele><time>2026-04-25T12:29:05.11Z</time></trkpt><trkpt lat="42.3717683" lon="12.8130967"><ele>690.0</ele><time>2026-04-25T12:29:06.11Z</time></trkpt><trkpt lat="42.3717017" lon="12.81311"><ele>690.0</ele><time>2026-04-25T12:29:07.11Z</time></trkpt><trkpt lat="42.3715867" lon="12.8131017"><ele>690.0</ele><time>2026-04-25T12:29:09.11Z</time></trkpt><trkpt lat="42.3714683" lon="12.8130767"><ele>690.0</ele><time>2026-04-25T12:29:11.108Z</time></trkpt><trkpt lat="42.371365" lon="12.8130667"><ele>690.0</ele><time>2026-04-25T12:29:13.107Z</time></trkpt><trkpt lat="42.3713017" lon="12.8130467"><ele>690.4</ele><time>2026-04-25T12:29:15.109Z</time></trkpt><trkpt lat="42.3712783" lon="12.8129417"><ele>690.8</ele><time>2026-04-25T12:29:18.109Z</time></trkpt><trkpt lat="42.3713033" lon="12.812815"><ele>691.2</ele><time>2026-04-25T12:29:21.108Z</time></trkpt><trkpt lat="42.3713233" lon="12.81272"><ele>691.6</ele><time>2026-04-25T12:29:24.108Z</time></trkpt><trkpt lat="42.3713783" lon="12.8125983"><ele>692.0</ele><time>2026-04-25T12:29:27.108Z</time></trkpt><trkpt lat="42.37145" lon="12.81248"><ele>690.8</ele><time>2026-04-25T12:29:29.107Z</time></trkpt><trkpt lat="42.3715267" lon="12.812375"><ele>689.6</ele><time>2026-04-25T12:29:31.107Z</time></trkpt><trkpt lat="42.3715967" lon="12.8122683"><ele>688.4</ele><time>2026-04-25T12:29:33.11Z</time></trkpt><trkpt lat="42.3716633" lon="12.8121583"><ele>687.1999999999999</ele><time>2026-04-25T12:29:35.109Z</time></trkpt><trkpt lat="42.3717283" lon="12.8120517"><ele>686.0</ele><time>2026-04-25T12:29:37.108Z</time></trkpt><trkpt lat="42.371755" lon="12.8119233"><ele>683.5999999999999</ele><time>2026-04-25T12:29:39.111Z</time></trkpt><trkpt lat="42.371745" lon="12.8117833"><ele>681.2</ele><time>2026-04-25T12:29:41.108Z</time></trkpt><trkpt lat="42.3717067" lon="12.8116533"><ele>678.8</ele><time>2026-04-25T12:29:43.11Z</time></trkpt><trkpt lat="42.37165" lon="12.8115133"><ele>676.4000000000001</ele><time>2026-04-25T12:29:45.111Z</time></trkpt><trkpt lat="42.3715867" lon="12.8114017"><ele>674.0</ele><time>2026-04-25T12:29:47.108Z</time></trkpt><trkpt lat="42.3715683" lon="12.8113083"><ele>674.0</ele><time>2026-04-25T12:29:49.107Z</time></trkpt><trkpt lat="42.3716267" lon="12.8112317"><ele>674.0</ele><time>2026-04-25T12:29:51.109Z</time></trkpt><trkpt lat="42.3717067" lon="12.8111367"><ele>674.0</ele><time>2026-04-25T12:29:53.109Z</time></trkpt><trkpt lat="42.37176" lon="12.811015"><ele>674.0</ele><time>2026-04-25T12:29:55.109Z</time></trkpt><trkpt lat="42.3717567" lon="12.8108917"><ele>674.0</ele><time>2026-04-25T12:29:57.11Z</time></trkpt><trkpt lat="42.371735" lon="12.8108017"><ele>672.0</ele><time>2026-04-25T12:30:00.11Z</time></trkpt><trkpt lat="42.37174" lon="12.8106783"><ele>670.0</ele><time>2026-04-25T12:30:46.108Z</time></trkpt><trkpt lat="42.37171" lon="12.8105533"><ele>668.0</ele><time>2026-04-25T12:30:48.109Z</time></trkpt><trkpt lat="42.37169" lon="12.81047"><ele>666.0</ele><time>2026-04-25T12:30:49.11Z</time></trkpt><trkpt lat="42.37166" lon="12.8103867"><ele>664.0</ele><time>2026-04-25T12:30:50.111Z</time></trkpt><trkpt lat="42.3716367" lon="12.8102267"><ele>662.0</ele><time>2026-04-25T12:30:52.11Z</time></trkpt><trkpt lat="42.3716433" lon="12.8100767"><ele>661.0</ele><time>2026-04-25T12:30:54.107Z</time></trkpt><trkpt lat="42.37168" lon="12.8099417"><ele>660.0</ele><time>2026-04-25T12:30:56.11Z</time></trkpt><trkpt lat="42.3717167" lon="12.8097917"><ele>659.0</ele><time>2026-04-25T12:30:58.11Z</time></trkpt><trkpt lat="42.371765" lon="12.80965"><ele>658.0</ele><time>2026-04-25T12:31:00.11Z</time></trkpt><trkpt lat="42.3718167" lon="12.8095183"><ele>657.0</ele><time>2026-04-25T12:31:02.108Z</time></trkpt><trkpt lat="42.3718517" lon="12.809395"><ele>656.4000000000001</ele><time>2026-04-25T12:31:04.108Z</time></trkpt><trkpt lat="42.37189" lon="12.8092783"><ele>655.8000000000001</ele><time>2026-04-25T12:31:06.109Z</time></trkpt><trkpt lat="42.3719333" lon="12.8091633"><ele>655.2</ele><time>2026-04-25T12:31:08.108Z</time></trkpt><trkpt lat="42.3719917" lon="12.80905"><ele>654.6</ele><time>2026-04-25T12:31:10.109Z</time></trkpt><trkpt lat="42.3720733" lon="12.8089233"><ele>654.0</ele><time>2026-04-25T12:31:12.108Z</time></trkpt><trkpt lat="42.37212" lon="12.8088517"><ele>652.4000000000001</ele><time>2026-04-25T12:31:13.109Z</time></trkpt><trkpt lat="42.3722017" lon="12.8087467"><ele>650.8</ele><time>2026-04-25T12:31:15.108Z</time></trkpt><trkpt lat="42.372285" lon="12.808675"><ele>649.2</ele><time>2026-04-25T12:31:17.107Z</time></trkpt><trkpt lat="42.3723883" lon="12.8086333"><ele>647.5999999999999</ele><time>2026-04-25T12:31:19.107Z</time></trkpt><trkpt lat="42.372435" lon="12.808575"><ele>646.0</ele><time>2026-04-25T12:31:21.108Z</time></trkpt><trkpt lat="42.372445" lon="12.808485"><ele>646.0</ele><time>2026-04-25T12:31:23.106Z</time></trkpt><trkpt lat="42.372465" lon="12.8083617"><ele>646.0</ele><time>2026-04-25T12:31:25.108Z</time></trkpt><trkpt lat="42.3725217" lon="12.80824"><ele>646.0</ele><time>2026-04-25T12:31:27.108Z</time></trkpt><trkpt lat="42.3725883" lon="12.80812"><ele>646.0</ele><time>2026-04-25T12:31:29.11Z</time></trkpt><trkpt lat="42.3726683" lon="12.80802"><ele>646.0</ele><time>2026-04-25T12:31:31.11Z</time></trkpt><trkpt lat="42.3727467" lon="12.807935"><ele>646.0</ele><time>2026-04-25T12:31:33.111Z</time></trkpt><trkpt lat="42.37286" lon="12.8078667"><ele>646.0</ele><time>2026-04-25T12:31:35.108Z</time></trkpt><trkpt lat="42.3729283" lon="12.807845"><ele>646.0</ele><time>2026-04-25T12:31:36.11Z</time></trkpt><trkpt lat="42.373" lon="12.8078267"><ele>646.0</ele><time>2026-04-25T12:31:37.109Z</time></trkpt><trkpt lat="42.3730767" lon="12.8078117"><ele>646.0</ele><time>2026-04-25T12:31:38.108Z</time></trkpt><trkpt lat="42.37315" lon="12.807795"><ele>646.0</ele><time>2026-04-25T12:31:39.108Z</time></trkpt><trkpt lat="42.373215" lon="12.8077767"><ele>647.5</ele><time>2026-04-25T12:31:40.109Z</time></trkpt><trkpt lat="42.3732817" lon="12.807765"><ele>649.0</ele><time>2026-04-25T12:31:41.108Z</time></trkpt><trkpt lat="42.3733433" lon="12.8077383"><ele>650.5</ele><time>2026-04-25T12:31:42.11Z</time></trkpt><trkpt lat="42.3734083" lon="12.8077117"><ele>652.0</ele><time>2026-04-25T12:31:43.108Z</time></trkpt><trkpt lat="42.3734783" lon="12.8076733"><ele>653.5</ele><time>2026-04-25T12:31:44.108Z</time></trkpt><trkpt lat="42.373535" lon="12.80763"><ele>655.0</ele><time>2026-04-25T12:31:45.109Z</time></trkpt><trkpt lat="42.3736333" lon="12.80754"><ele>650.6</ele><time>2026-04-25T12:31:47.109Z</time></trkpt><trkpt lat="42.3737217" lon="12.8074433"><ele>646.2</ele><time>2026-04-25T12:31:49.11Z</time></trkpt><trkpt lat="42.3738017" lon="12.80738"><ele>641.8</ele><time>2026-04-25T12:31:51.107Z</time></trkpt><trkpt lat="42.3738883" lon="12.8073083"><ele>637.4</ele><time>2026-04-25T12:31:53.109Z</time></trkpt><trkpt lat="42.3739917" lon="12.8072483"><ele>633.0</ele><time>2026-04-25T12:31:55.108Z</time></trkpt><trkpt lat="42.3741033" lon="12.80718"><ele>633.0</ele><time>2026-04-25T12:31:57.108Z</time></trkpt><trkpt lat="42.3742067" lon="12.8071083"><ele>633.0</ele><time>2026-04-25T12:31:59.109Z</time></trkpt><trkpt lat="42.3743017" lon="12.807035"><ele>633.0</ele><time>2026-04-25T12:32:01.109Z</time></trkpt><trkpt lat="42.3743533" lon="12.8069167"><ele>633.0</ele><time>2026-04-25T12:32:03.11Z</time></trkpt><trkpt lat="42.37441" lon="12.806775"><ele>633.0</ele><time>2026-04-25T12:32:05.109Z</time></trkpt><trkpt lat="42.3744483" lon="12.8067067"><ele>628.5</ele><time>2026-04-25T12:32:06.108Z</time></trkpt><trkpt lat="42.3745183" lon="12.80657"><ele>624.0</ele><time>2026-04-25T12:32:08.11Z</time></trkpt><trkpt lat="42.3745917" lon="12.8064533"><ele>619.5</ele><time>2026-04-25T12:32:10.109Z</time></trkpt><trkpt lat="42.37466" lon="12.8063617"><ele>615.0</ele><time>2026-04-25T12:32:12.106Z</time></trkpt><trkpt lat="42.374765" lon="12.8062817"><ele>615.0</ele><time>2026-04-25T12:32:14.108Z</time></trkpt><trkpt lat="42.3748567" lon="12.8062033"><ele>615.0</ele><time>2026-04-25T12:32:16.108Z</time></trkpt><trkpt lat="42.374945" lon="12.8061233"><ele>615.0</ele><time>2026-04-25T12:32:18.11Z</time></trkpt><trkpt lat="42.3750283" lon="12.806065"><ele>615.0</ele><time>2026-04-25T12:32:20.109Z</time></trkpt><trkpt lat="42.3750883" lon="12.80602"><ele>615.0</ele><time>2026-04-25T12:32:22.11Z</time></trkpt><trkpt lat="42.375145" lon="12.8059233"><ele>610.8333333333334</ele><time>2026-04-25T12:32:25.108Z</time></trkpt><trkpt lat="42.3751533" lon="12.805825"><ele>606.6666666666666</ele><time>2026-04-25T12:32:27.11Z</time></trkpt><trkpt lat="42.375165" lon="12.805715"><ele>602.5</ele><time>2026-04-25T12:32:29.108Z</time></trkpt><trkpt lat="42.3752" lon="12.8056083"><ele>598.3333333333333</ele><time>2026-04-25T12:32:31.11Z</time></trkpt><trkpt lat="42.37523" lon="12.8055317"><ele>594.1666666666666</ele><time>2026-04-25T12:32:33.109Z</time></trkpt><trkpt lat="42.3752533" lon="12.805395"><ele>590.0</ele><time>2026-04-25T12:32:55.109Z</time></trkpt><trkpt lat="42.37517" lon="12.805415"><ele>590.0</ele><time>2026-04-25T12:32:58.108Z</time></trkpt><trkpt lat="42.3750933" lon="12.80542"><ele>590.0</ele><time>2026-04-25T12:33:01.108Z</time></trkpt><trkpt lat="42.375075" lon="12.8053333"><ele>590.0</ele><time>2026-04-25T12:33:04.108Z</time></trkpt><trkpt lat="42.3751383" lon="12.8052317"><ele>590.0</ele><time>2026-04-25T12:33:06.109Z</time></trkpt><trkpt lat="42.3752167" lon="12.8051033"><ele>590.0</ele><time>2026-04-25T12:33:08.108Z</time></trkpt><trkpt lat="42.37528" lon="12.8049983"><ele>589.3333333333333</ele><time>2026-04-25T12:33:10.108Z</time></trkpt><trkpt lat="42.375335" lon="12.8049033"><ele>588.6666666666666</ele><time>2026-04-25T12:33:12.111Z</time></trkpt><trkpt lat="42.37539" lon="12.80482"><ele>588.0</ele><time>2026-04-25T12:33:14.11Z</time></trkpt><trkpt lat="42.375425" lon="12.8047467"><ele>587.3333333333334</ele><time>2026-04-25T12:33:16.109Z</time></trkpt><trkpt lat="42.375485" lon="12.8046117"><ele>586.6666666666667</ele><time>2026-04-25T12:33:24.109Z</time></trkpt><trkpt lat="42.3755167" lon="12.8045233"><ele>586.0</ele><time>2026-04-25T12:33:26.108Z</time></trkpt><trkpt lat="42.3755333" lon="12.8044317"><ele>586.0</ele><time>2026-04-25T12:33:28.11Z</time></trkpt><trkpt lat="42.3755483" lon="12.8043417"><ele>586.0</ele><time>2026-04-25T12:33:31.11Z</time></trkpt><trkpt lat="42.37558" lon="12.8042567"><ele>586.0</ele><time>2026-04-25T12:34:46.108Z</time></trkpt><trkpt lat="42.37555" lon="12.8043433"><ele>586.0</ele><time>2026-04-25T12:34:53.108Z</time></trkpt><trkpt lat="42.3755317" lon="12.804455"><ele>586.0</ele><time>2026-04-25T12:34:56.107Z</time></trkpt><trkpt lat="42.3755133" lon="12.804555"><ele>586.0</ele><time>2026-04-25T12:34:58.109Z</time></trkpt><trkpt lat="42.375485" lon="12.8046767"><ele>586.0</ele><time>2026-04-25T12:35:00.108Z</time></trkpt><trkpt lat="42.3754317" lon="12.8047817"><ele>586.0</ele><time>2026-04-25T12:35:02.108Z</time></trkpt><trkpt lat="42.37536" lon="12.804895"><ele>586.0</ele><time>2026-04-25T12:35:04.107Z</time></trkpt><trkpt lat="42.3752833" lon="12.8050267"><ele>586.0</ele><time>2026-04-25T12:35:06.109Z</time></trkpt><trkpt lat="42.375245" lon="12.8050983"><ele>586.0</ele><time>2026-04-25T12:35:07.111Z</time></trkpt><trkpt lat="42.375175" lon="12.8052133"><ele>586.6666666666667</ele><time>2026-04-25T12:35:09.111Z</time></trkpt><trkpt lat="42.3751133" lon="12.805295"><ele>587.3333333333334</ele><time>2026-04-25T12:35:11.11Z</time></trkpt><trkpt lat="42.3750683" lon="12.8053867"><ele>588.0</ele><time>2026-04-25T12:35:13.111Z</time></trkpt><trkpt lat="42.375125" lon="12.8054467"><ele>588.6666666666666</ele><time>2026-04-25T12:35:17.11Z</time></trkpt><trkpt lat="42.3752133" lon="12.8054317"><ele>589.3333333333333</ele><time>2026-04-25T12:35:19.111Z</time></trkpt><trkpt lat="42.3752933" lon="12.8054233"><ele>590.0</ele><time>2026-04-25T12:35:21.112Z</time></trkpt><trkpt lat="42.3753717" lon="12.8053633"><ele>590.0</ele><time>2026-04-25T12:35:41.108Z</time></trkpt><trkpt lat="42.3754367" lon="12.8052917"><ele>590.0</ele><time>2026-04-25T12:35:43.109Z</time></trkpt><trkpt lat="42.3755033" lon="12.8052217"><ele>590.0</ele><time>2026-04-25T12:35:45.111Z</time></trkpt><trkpt lat="42.3755683" lon="12.8051733"><ele>590.0</ele><time>2026-04-25T12:35:47.11Z</time></trkpt><trkpt lat="42.3756317" lon="12.8051233"><ele>590.0</ele><time>2026-04-25T12:35:50.111Z</time></trkpt><trkpt lat="42.3755617" lon="12.8051633"><ele>590.0</ele><time>2026-04-25T12:37:44.109Z</time></trkpt><trkpt lat="42.3754933" lon="12.8052067"><ele>590.0</ele><time>2026-04-25T12:38:01.11Z</time></trkpt><trkpt lat="42.3754083" lon="12.8052833"><ele>590.0</ele><time>2026-04-25T12:38:03.107Z</time></trkpt><trkpt lat="42.3753333" lon="12.8053717"><ele>590.0</ele><time>2026-04-25T12:38:05.111Z</time></trkpt><trkpt lat="42.37526" lon="12.8055017"><ele>590.0</ele><time>2026-04-25T12:38:07.109Z</time></trkpt><trkpt lat="42.37521" lon="12.80558"><ele>590.0</ele><time>2026-04-25T12:38:08.11Z</time></trkpt><trkpt lat="42.3751717" lon="12.8056683"><ele>590.0</ele><time>2026-04-25T12:38:09.108Z</time></trkpt><trkpt lat="42.37515" lon="12.8057617"><ele>590.0</ele><time>2026-04-25T12:38:10.107Z</time></trkpt><trkpt lat="42.375145" lon="12.8058517"><ele>590.0</ele><time>2026-04-25T12:38:11.108Z</time></trkpt><trkpt lat="42.3751183" lon="12.8059867"><ele>590.0</ele><time>2026-04-25T12:38:13.109Z</time></trkpt><trkpt lat="42.3750567" lon="12.8060767"><ele>590.0</ele><time>2026-04-25T12:38:15.109Z</time></trkpt><trkpt lat="42.3749883" lon="12.8061217"><ele>590.0</ele><time>2026-04-25T12:38:16.109Z</time></trkpt><trkpt lat="42.3749167" lon="12.8061833"><ele>593.2</ele><time>2026-04-25T12:38:17.109Z</time></trkpt><trkpt lat="42.3748417" lon="12.8062617"><ele>596.4</ele><time>2026-04-25T12:38:18.109Z</time></trkpt><trkpt lat="42.3747633" lon="12.8063417"><ele>599.6</ele><time>2026-04-25T12:38:19.11Z</time></trkpt><trkpt lat="42.3746867" lon="12.8064183"><ele>602.8</ele><time>2026-04-25T12:38:20.11Z</time></trkpt><trkpt lat="42.3746133" lon="12.806495"><ele>606.0</ele><time>2026-04-25T12:38:21.109Z</time></trkpt><trkpt lat="42.374545" lon="12.8065717"><ele>606.0</ele><time>2026-04-25T12:38:22.107Z</time></trkpt><trkpt lat="42.3744767" lon="12.8066667"><ele>606.0</ele><time>2026-04-25T12:38:23.111Z</time></trkpt><trkpt lat="42.374415" lon="12.8067817"><ele>606.0</ele><time>2026-04-25T12:38:24.11Z</time></trkpt><trkpt lat="42.374365" lon="12.8069"><ele>606.0</ele><time>2026-04-25T12:38:25.11Z</time></trkpt><trkpt lat="42.3743183" lon="12.8070017"><ele>606.0</ele><time>2026-04-25T12:38:26.11Z</time></trkpt><trkpt lat="42.3742767" lon="12.8070717"><ele>610.5</ele><time>2026-04-25T12:38:27.109Z</time></trkpt><trkpt lat="42.37422" lon="12.8071233"><ele>615.0</ele><time>2026-04-25T12:38:28.109Z</time></trkpt><trkpt lat="42.37415" lon="12.8071667"><ele>619.5</ele><time>2026-04-25T12:38:29.11Z</time></trkpt><trkpt lat="42.3740767" lon="12.8072167"><ele>624.0</ele><time>2026-04-25T12:38:30.11Z</time></trkpt><trkpt lat="42.374005" lon="12.80727"><ele>628.5</ele><time>2026-04-25T12:38:31.109Z</time></trkpt><trkpt lat="42.3739367" lon="12.8073283"><ele>633.0</ele><time>2026-04-25T12:38:32.11Z</time></trkpt><trkpt lat="42.3738617" lon="12.8073867"><ele>631.8</ele><time>2026-04-25T12:38:33.11Z</time></trkpt><trkpt lat="42.373785" lon="12.8074417"><ele>630.5999999999999</ele><time>2026-04-25T12:38:34.11Z</time></trkpt><trkpt lat="42.3737083" lon="12.8075017"><ele>629.4000000000001</ele><time>2026-04-25T12:38:35.109Z</time></trkpt><trkpt lat="42.373625" lon="12.807575"><ele>628.2</ele><time>2026-04-25T12:38:36.11Z</time></trkpt><trkpt lat="42.3735367" lon="12.8076517"><ele>627.0</ele><time>2026-04-25T12:38:37.108Z</time></trkpt><trkpt lat="42.3734367" lon="12.8077167"><ele>630.8</ele><time>2026-04-25T12:38:38.107Z</time></trkpt><trkpt lat="42.373335" lon="12.8077667"><ele>634.6</ele><time>2026-04-25T12:38:39.11Z</time></trkpt><trkpt lat="42.3732217" lon="12.8077933"><ele>638.4</ele><time>2026-04-25T12:38:40.108Z</time></trkpt><trkpt lat="42.3731133" lon="12.80781"><ele>642.1999999999999</ele><time>2026-04-25T12:38:41.107Z</time></trkpt><trkpt lat="42.3730133" lon="12.8078317"><ele>646.0</ele><time>2026-04-25T12:38:42.109Z</time></trkpt><trkpt lat="42.3729217" lon="12.80786"><ele>646.0</ele><time>2026-04-25T12:38:43.109Z</time></trkpt><trkpt lat="42.3728383" lon="12.8079033"><ele>646.0</ele><time>2026-04-25T12:38:44.107Z</time></trkpt><trkpt lat="42.3727567" lon="12.8079617"><ele>646.0</ele><time>2026-04-25T12:38:45.107Z</time></trkpt><trkpt lat="42.37268" lon="12.80803"><ele>646.0</ele><time>2026-04-25T12:38:46.11Z</time></trkpt><trkpt lat="42.3726167" lon="12.8081117"><ele>646.0</ele><time>2026-04-25T12:38:47.11Z</time></trkpt><trkpt lat="42.3725683" lon="12.8081867"><ele>646.0</ele><time>2026-04-25T12:38:48.109Z</time></trkpt><trkpt lat="42.37252" lon="12.808335"><ele>647.5999999999999</ele><time>2026-04-25T12:38:50.107Z</time></trkpt><trkpt lat="42.3724867" lon="12.8084983"><ele>649.2</ele><time>2026-04-25T12:38:52.107Z</time></trkpt><trkpt lat="42.3724517" lon="12.808605"><ele>650.8</ele><time>2026-04-25T12:38:54.108Z</time></trkpt><trkpt lat="42.37238" lon="12.808645"><ele>652.4000000000001</ele><time>2026-04-25T12:38:56.108Z</time></trkpt><trkpt lat="42.372285" lon="12.808675"><ele>654.0</ele><time>2026-04-25T12:38:58.109Z</time></trkpt><trkpt lat="42.3721867" lon="12.80877"><ele>654.0</ele><time>2026-04-25T12:39:00.108Z</time></trkpt><trkpt lat="42.3721433" lon="12.8088433"><ele>654.0</ele><time>2026-04-25T12:39:01.109Z</time></trkpt><trkpt lat="42.3720967" lon="12.8089317"><ele>654.0</ele><time>2026-04-25T12:39:02.108Z</time></trkpt><trkpt lat="42.372045" lon="12.8090217"><ele>654.0</ele><time>2026-04-25T12:39:03.11Z</time></trkpt><trkpt lat="42.3719933" lon="12.8091167"><ele>654.0</ele><time>2026-04-25T12:39:04.11Z</time></trkpt><trkpt lat="42.3719417" lon="12.8092133"><ele>654.0</ele><time>2026-04-25T12:39:05.108Z</time></trkpt><trkpt lat="42.371895" lon="12.80932"><ele>654.5</ele><time>2026-04-25T12:39:06.109Z</time></trkpt><trkpt lat="42.3718517" lon="12.8094267"><ele>655.0</ele><time>2026-04-25T12:39:07.109Z</time></trkpt><trkpt lat="42.371815" lon="12.8095283"><ele>655.5</ele><time>2026-04-25T12:39:08.107Z</time></trkpt><trkpt lat="42.37178" lon="12.8096283"><ele>656.0</ele><time>2026-04-25T12:39:09.109Z</time></trkpt><trkpt lat="42.3717517" lon="12.8097183"><ele>656.5</ele><time>2026-04-25T12:39:10.108Z</time></trkpt><trkpt lat="42.37173" lon="12.8098083"><ele>657.0</ele><time>2026-04-25T12:39:11.107Z</time></trkpt><trkpt lat="42.3717033" lon="12.80989"><ele>657.0</ele><time>2026-04-25T12:39:12.108Z</time></trkpt><trkpt lat="42.3716683" lon="12.809975"><ele>657.0</ele><time>2026-04-25T12:39:13.107Z</time></trkpt><trkpt lat="42.37164" lon="12.8100533"><ele>657.0</ele><time>2026-04-25T12:39:14.107Z</time></trkpt><trkpt lat="42.37161" lon="12.8101917"><ele>657.0</ele><time>2026-04-25T12:39:16.11Z</time></trkpt><trkpt lat="42.37162" lon="12.8103367"><ele>657.0</ele><time>2026-04-25T12:39:18.109Z</time></trkpt><trkpt lat="42.3716533" lon="12.81049"><ele>657.8333333333334</ele><time>2026-04-25T12:39:20.109Z</time></trkpt><trkpt lat="42.3716817" lon="12.8105767"><ele>658.6666666666666</ele><time>2026-04-25T12:39:21.11Z</time></trkpt><trkpt lat="42.37171" lon="12.8106633"><ele>659.5</ele><time>2026-04-25T12:39:22.109Z</time></trkpt><trkpt lat="42.3717417" lon="12.81075"><ele>660.3333333333333</ele><time>2026-04-25T12:39:23.109Z</time></trkpt><trkpt lat="42.3717733" lon="12.8108283"><ele>661.1666666666666</ele><time>2026-04-25T12:39:24.108Z</time></trkpt><trkpt lat="42.371815" lon="12.8109683"><ele>662.0</ele><time>2026-04-25T12:39:26.109Z</time></trkpt><trkpt lat="42.3717833" lon="12.811075"><ele>664.4000000000001</ele><time>2026-04-25T12:39:28.109Z</time></trkpt><trkpt lat="42.3717083" lon="12.811165"><ele>666.8000000000001</ele><time>2026-04-25T12:39:30.109Z</time></trkpt><trkpt lat="42.37162" lon="12.8112333"><ele>669.2</ele><time>2026-04-25T12:39:32.107Z</time></trkpt><trkpt lat="42.3716017" lon="12.8113383"><ele>671.6</ele><time>2026-04-25T12:39:34.108Z</time></trkpt><trkpt lat="42.3716467" lon="12.8114667"><ele>674.0</ele><time>2026-04-25T12:39:36.11Z</time></trkpt><trkpt lat="42.3717017" lon="12.8116067"><ele>674.0</ele><time>2026-04-25T12:39:38.11Z</time></trkpt><trkpt lat="42.371725" lon="12.8117533"><ele>674.0</ele><time>2026-04-25T12:39:40.106Z</time></trkpt><trkpt lat="42.3717083" lon="12.8119167"><ele>674.0</ele><time>2026-04-25T12:39:42.106Z</time></trkpt><trkpt lat="42.3716833" lon="12.8120017"><ele>674.0</ele><time>2026-04-25T12:39:43.109Z</time></trkpt><trkpt lat="42.3716483" lon="12.8120783"><ele>674.0</ele><time>2026-04-25T12:39:44.109Z</time></trkpt><trkpt lat="42.37161" lon="12.8121533"><ele>674.0</ele><time>2026-04-25T12:39:45.108Z</time></trkpt><trkpt lat="42.3715617" lon="12.81223"><ele>676.0</ele><time>2026-04-25T12:39:46.108Z</time></trkpt><trkpt lat="42.3715083" lon="12.8123167"><ele>678.0</ele><time>2026-04-25T12:39:47.109Z</time></trkpt><trkpt lat="42.3714633" lon="12.812405"><ele>680.0</ele><time>2026-04-25T12:39:48.109Z</time></trkpt><trkpt lat="42.3714183" lon="12.812495"><ele>682.0</ele><time>2026-04-25T12:39:49.109Z</time></trkpt><trkpt lat="42.3713717" lon="12.8125833"><ele>684.0</ele><time>2026-04-25T12:39:50.109Z</time></trkpt><trkpt lat="42.3713333" lon="12.8126617"><ele>686.0</ele><time>2026-04-25T12:39:51.11Z</time></trkpt><trkpt lat="42.3712833" lon="12.8128083"><ele>687.1999999999999</ele><time>2026-04-25T12:39:53.109Z</time></trkpt><trkpt lat="42.3712483" lon="12.8129583"><ele>688.4</ele><time>2026-04-25T12:39:55.109Z</time></trkpt><trkpt lat="42.37123" lon="12.81312"><ele>689.6</ele><time>2026-04-25T12:41:05.107Z</time></trkpt><trkpt lat="42.3711133" lon="12.8131667"><ele>690.8</ele><time>2026-04-25T12:41:07.108Z</time></trkpt><trkpt lat="42.3710367" lon="12.813195"><ele>692.0</ele><time>2026-04-25T12:41:08.107Z</time></trkpt><trkpt lat="42.3709583" lon="12.813235"><ele>692.0</ele><time>2026-04-25T12:41:09.108Z</time></trkpt><trkpt lat="42.37088" lon="12.8132767"><ele>692.0</ele><time>2026-04-25T12:41:10.108Z</time></trkpt><trkpt lat="42.3708067" lon="12.8133267"><ele>692.0</ele><time>2026-04-25T12:41:11.109Z</time></trkpt><trkpt lat="42.3707317" lon="12.8133767"><ele>692.0</ele><time>2026-04-25T12:41:12.108Z</time></trkpt><trkpt lat="42.3706583" lon="12.81343"><ele>692.0</ele><time>2026-04-25T12:41:13.109Z</time></trkpt><trkpt lat="42.3705833" lon="12.813485"><ele>692.0</ele><time>2026-04-25T12:41:14.107Z</time></trkpt><trkpt lat="42.37051" lon="12.81354"><ele>693.1666666666666</ele><time>2026-04-25T12:41:15.109Z</time></trkpt><trkpt lat="42.37044" lon="12.8135933"><ele>694.3333333333333</ele><time>2026-04-25T12:41:16.111Z</time></trkpt><trkpt lat="42.370375" lon="12.8136417"><ele>695.5</ele><time>2026-04-25T12:41:17.11Z</time></trkpt><trkpt lat="42.3702733" lon="12.8136967"><ele>696.6666666666666</ele><time>2026-04-25T12:41:19.108Z</time></trkpt><trkpt lat="42.370205" lon="12.8137"><ele>697.8333333333334</ele><time>2026-04-25T12:41:21.108Z</time></trkpt><trkpt lat="42.37013" lon="12.8136517"><ele>699.0</ele><time>2026-04-25T12:41:23.108Z</time></trkpt><trkpt lat="42.3700417" lon="12.8135883"><ele>699.0</ele><time>2026-04-25T12:41:25.109Z</time></trkpt><trkpt lat="42.3699333" lon="12.81358"><ele>699.0</ele><time>2026-04-25T12:41:27.111Z</time></trkpt><trkpt lat="42.3698117" lon="12.813605"><ele>699.0</ele><time>2026-04-25T12:41:29.106Z</time></trkpt><trkpt lat="42.36975" lon="12.8136317"><ele>699.0</ele><time>2026-04-25T12:41:30.107Z</time></trkpt><trkpt lat="42.3696917" lon="12.81367"><ele>699.0</ele><time>2026-04-25T12:41:31.108Z</time></trkpt><trkpt lat="42.3696133" lon="12.8137583"><ele>697.3333333333334</ele><time>2026-04-25T12:41:33.109Z</time></trkpt><trkpt lat="42.3695467" lon="12.8138217"><ele>695.6666666666666</ele><time>2026-04-25T12:41:38.111Z</time></trkpt><trkpt lat="42.3695083" lon="12.8139067"><ele>694.0</ele><time>2026-04-25T12:41:42.108Z</time></trkpt><trkpt lat="42.3695083" lon="12.8137983"><ele>692.3333333333333</ele><time>2026-04-25T12:41:52.107Z</time></trkpt><trkpt lat="42.3694583" lon="12.8137067"><ele>690.6666666666666</ele><time>2026-04-25T12:41:53.106Z</time></trkpt><trkpt lat="42.3693983" lon="12.8136"><ele>689.0</ele><time>2026-04-25T12:41:54.108Z</time></trkpt><trkpt lat="42.3693367" lon="12.8135017"><ele>690.2</ele><time>2026-04-25T12:41:55.108Z</time></trkpt><trkpt lat="42.3692833" lon="12.8134033"><ele>691.4000000000001</ele><time>2026-04-25T12:41:56.109Z</time></trkpt><trkpt lat="42.369215" lon="12.8132967"><ele>692.6</ele><time>2026-04-25T12:41:57.107Z</time></trkpt><trkpt lat="42.3691467" lon="12.813205"><ele>693.8</ele><time>2026-04-25T12:41:58.108Z</time></trkpt><trkpt lat="42.3690767" lon="12.8131317"><ele>695.0</ele><time>2026-04-25T12:41:59.109Z</time></trkpt><trkpt lat="42.3690117" lon="12.8130767"><ele>695.0</ele><time>2026-04-25T12:42:00.108Z</time></trkpt><trkpt lat="42.3689533" lon="12.8130233"><ele>695.0</ele><time>2026-04-25T12:42:01.108Z</time></trkpt><trkpt lat="42.3688483" lon="12.8129633"><ele>695.0</ele><time>2026-04-25T12:42:03.11Z</time></trkpt><trkpt lat="42.3687467" lon="12.8129083"><ele>695.0</ele><time>2026-04-25T12:42:05.109Z</time></trkpt><trkpt lat="42.3686483" lon="12.8128483"><ele>695.0</ele><time>2026-04-25T12:42:07.107Z</time></trkpt><trkpt lat="42.3685467" lon="12.8127633"><ele>694.1666666666666</ele><time>2026-04-25T12:42:09.109Z</time></trkpt><trkpt lat="42.36845" lon="12.812675"><ele>693.3333333333333</ele><time>2026-04-25T12:42:11.111Z</time></trkpt><trkpt lat="42.368385" lon="12.8126067"><ele>692.5</ele><time>2026-04-25T12:42:13.109Z</time></trkpt><trkpt lat="42.368405" lon="12.8126883"><ele>691.6666666666666</ele><time>2026-04-25T12:42:19.107Z</time></trkpt><trkpt lat="42.3684583" lon="12.812735"><ele>690.8333333333334</ele><time>2026-04-25T12:42:20.107Z</time></trkpt><trkpt lat="42.3685333" lon="12.8127883"><ele>690.0</ele><time>2026-04-25T12:42:21.108Z</time></trkpt><trkpt lat="42.368605" lon="12.8128517"><ele>689.4</ele><time>2026-04-25T12:42:22.107Z</time></trkpt><trkpt lat="42.36869" lon="12.8129167"><ele>688.8</ele><time>2026-04-25T12:42:23.106Z</time></trkpt><trkpt lat="42.36879" lon="12.812985"><ele>688.2</ele><time>2026-04-25T12:42:24.107Z</time></trkpt><trkpt lat="42.3688917" lon="12.8130517"><ele>687.6</ele><time>2026-04-25T12:42:25.106Z</time></trkpt><trkpt lat="42.36899" lon="12.8131183"><ele>687.0</ele><time>2026-04-25T12:42:26.11Z</time></trkpt><trkpt lat="42.36907" lon="12.8131867"><ele>687.4000000000001</ele><time>2026-04-25T12:42:27.108Z</time></trkpt><trkpt lat="42.3691467" lon="12.8132683"><ele>687.8000000000001</ele><time>2026-04-25T12:42:28.109Z</time></trkpt><trkpt lat="42.369225" lon="12.813365"><ele>688.2</ele><time>2026-04-25T12:42:29.11Z</time></trkpt><trkpt lat="42.3693033" lon="12.813475"><ele>688.6</ele><time>2026-04-25T12:42:30.108Z</time></trkpt><trkpt lat="42.3693717" lon="12.8135967"><ele>689.0</ele><time>2026-04-25T12:42:31.108Z</time></trkpt><trkpt lat="42.3694333" lon="12.8137233"><ele>689.0</ele><time>2026-04-25T12:42:32.108Z</time></trkpt><trkpt lat="42.3694783" lon="12.813855"><ele>689.0</ele><time>2026-04-25T12:42:33.109Z</time></trkpt><trkpt lat="42.36951" lon="12.8139833"><ele>689.0</ele><time>2026-04-25T12:42:34.109Z</time></trkpt><trkpt lat="42.3695217" lon="12.8141267"><ele>689.0</ele><time>2026-04-25T12:42:35.109Z</time></trkpt><trkpt lat="42.3695217" lon="12.8142833"><ele>689.0</ele><time>2026-04-25T12:42:36.107Z</time></trkpt><trkpt lat="42.3695217" lon="12.8144467"><ele>687.8000000000001</ele><time>2026-04-25T12:42:37.108Z</time></trkpt><trkpt lat="42.36952" lon="12.8146133"><ele>686.6</ele><time>2026-04-25T12:42:38.107Z</time></trkpt><trkpt lat="42.369525" lon="12.81477"><ele>685.4</ele><time>2026-04-25T12:42:39.11Z</time></trkpt><trkpt lat="42.369525" lon="12.8149017"><ele>684.2</ele><time>2026-04-25T12:42:40.109Z</time></trkpt><trkpt lat="42.3695283" lon="12.8149983"><ele>683.0</ele><time>2026-04-25T12:42:41.11Z</time></trkpt><trkpt lat="42.3695317" lon="12.8151083"><ele>683.0</ele><time>2026-04-25T12:42:43.108Z</time></trkpt><trkpt lat="42.3695167" lon="12.8152133"><ele>683.0</ele><time>2026-04-25T12:42:46.108Z</time></trkpt><trkpt lat="42.369535" lon="12.81513"><ele>683.0</ele><time>2026-04-25T12:42:52.107Z</time></trkpt><trkpt lat="42.3695267" lon="12.81504"><ele>683.0</ele><time>2026-04-25T12:42:53.108Z</time></trkpt><trkpt lat="42.3695217" lon="12.8149383"><ele>683.0</ele><time>2026-04-25T12:42:54.107Z</time></trkpt><trkpt lat="42.36952" lon="12.8148267"><ele>683.0</ele><time>2026-04-25T12:42:55.108Z</time></trkpt><trkpt lat="42.36952" lon="12.8146983"><ele>683.0</ele><time>2026-04-25T12:42:56.106Z</time></trkpt><trkpt lat="42.3695217" lon="12.8145617"><ele>683.0</ele><time>2026-04-25T12:42:57.106Z</time></trkpt><trkpt lat="42.36953" lon="12.8144317"><ele>683.0</ele><time>2026-04-25T12:42:58.107Z</time></trkpt><trkpt lat="42.3695367" lon="12.8143067"><ele>683.0</ele><time>2026-04-25T12:42:59.106Z</time></trkpt><trkpt lat="42.3695417" lon="12.814195"><ele>683.0</ele><time>2026-04-25T12:43:00.106Z</time></trkpt><trkpt lat="42.3695483" lon="12.8141"><ele>683.0</ele><time>2026-04-25T12:43:01.107Z</time></trkpt><trkpt lat="42.36955" lon="12.8139433"><ele>684.0</ele><time>2026-04-25T12:43:03.109Z</time></trkpt><trkpt lat="42.36957" lon="12.8138267"><ele>685.0</ele><time>2026-04-25T12:43:05.107Z</time></trkpt><trkpt lat="42.3696267" lon="12.8137267"><ele>686.0</ele><time>2026-04-25T12:43:07.107Z</time></trkpt><trkpt lat="42.3697367" lon="12.8136467"><ele>687.0</ele><time>2026-04-25T12:43:09.107Z</time></trkpt><trkpt lat="42.3697983" lon="12.8136183"><ele>688.0</ele><time>2026-04-25T12:43:10.108Z</time></trkpt><trkpt lat="42.36986" lon="12.8135933"><ele>689.0</ele><time>2026-04-25T12:43:11.108Z</time></trkpt><trkpt lat="42.3699283" lon="12.8135833"><ele>691.0</ele><time>2026-04-25T12:43:12.107Z</time></trkpt><trkpt lat="42.3699983" lon="12.8135917"><ele>693.0</ele><time>2026-04-25T12:43:13.107Z</time></trkpt><trkpt lat="42.37006" lon="12.8136233"><ele>695.0</ele><time>2026-04-25T12:43:14.106Z</time></trkpt><trkpt lat="42.3701517" lon="12.8136933"><ele>697.0</ele><time>2026-04-25T12:43:16.109Z</time></trkpt><trkpt lat="42.3702417" lon="12.8137267"><ele>699.0</ele><time>2026-04-25T12:43:18.108Z</time></trkpt><trkpt lat="42.370355" lon="12.8136617"><ele>699.0</ele><time>2026-04-25T12:43:20.106Z</time></trkpt><trkpt lat="42.3704267" lon="12.8136083"><ele>699.0</ele><time>2026-04-25T12:43:21.108Z</time></trkpt><trkpt lat="42.3704983" lon="12.8135517"><ele>699.0</ele><time>2026-04-25T12:43:22.108Z</time></trkpt><trkpt lat="42.3705683" lon="12.8135017"><ele>699.0</ele><time>2026-04-25T12:43:23.106Z</time></trkpt><trkpt lat="42.3706417" lon="12.8134517"><ele>699.0</ele><time>2026-04-25T12:43:24.108Z</time></trkpt><trkpt lat="42.3707217" lon="12.8134067"><ele>699.0</ele><time>2026-04-25T12:43:25.107Z</time></trkpt><trkpt lat="42.370795" lon="12.81336"><ele>697.8333333333334</ele><time>2026-04-25T12:43:26.109Z</time></trkpt><trkpt lat="42.3708667" lon="12.81332"><ele>696.6666666666666</ele><time>2026-04-25T12:43:27.108Z</time></trkpt><trkpt lat="42.37093" lon="12.8132733"><ele>695.5</ele><time>2026-04-25T12:43:28.109Z</time></trkpt><trkpt lat="42.3709883" lon="12.8132367"><ele>694.3333333333333</ele><time>2026-04-25T12:43:29.108Z</time></trkpt><trkpt lat="42.3711017" lon="12.8131817"><ele>693.1666666666666</ele><time>2026-04-25T12:43:31.109Z</time></trkpt><trkpt lat="42.3711617" lon="12.8131533"><ele>692.0</ele><time>2026-04-25T12:43:32.107Z</time></trkpt><trkpt lat="42.3712267" lon="12.8131217"><ele>692.0</ele><time>2026-04-25T12:43:33.109Z</time></trkpt><trkpt lat="42.371295" lon="12.8131017"><ele>692.0</ele><time>2026-04-25T12:43:34.109Z</time></trkpt><trkpt lat="42.3713733" lon="12.8130933"><ele>692.0</ele><time>2026-04-25T12:43:35.108Z</time></trkpt><trkpt lat="42.371455" lon="12.8130933"><ele>692.0</ele><time>2026-04-25T12:43:36.108Z</time></trkpt><trkpt lat="42.3715367" lon="12.8131017"><ele>692.0</ele><time>2026-04-25T12:43:37.108Z</time></trkpt><trkpt lat="42.3716183" lon="12.8131083"><ele>692.0</ele><time>2026-04-25T12:43:38.107Z</time></trkpt><trkpt lat="42.3716983" lon="12.813105"><ele>691.6666666666666</ele><time>2026-04-25T12:43:39.108Z</time></trkpt><trkpt lat="42.3717767" lon="12.8130883"><ele>691.3333333333333</ele><time>2026-04-25T12:43:40.108Z</time></trkpt><trkpt lat="42.371855" lon="12.8130583"><ele>691.0</ele><time>2026-04-25T12:43:41.109Z</time></trkpt><trkpt lat="42.371935" lon="12.8130183"><ele>690.6666666666666</ele><time>2026-04-25T12:43:42.107Z</time></trkpt><trkpt lat="42.372015" lon="12.81299"><ele>690.3333333333334</ele><time>2026-04-25T12:43:43.109Z</time></trkpt><trkpt lat="42.3720967" lon="12.8129733"><ele>690.0</ele><time>2026-04-25T12:43:44.107Z</time></trkpt><trkpt lat="42.3721733" lon="12.812955"><ele>689.1666666666666</ele><time>2026-04-25T12:43:45.108Z</time></trkpt><trkpt lat="42.3722483" lon="12.81292"><ele>688.3333333333334</ele><time>2026-04-25T12:43:46.108Z</time></trkpt><trkpt lat="42.3723133" lon="12.8128667"><ele>687.5</ele><time>2026-04-25T12:43:47.108Z</time></trkpt><trkpt lat="42.37237" lon="12.8127983"><ele>686.6666666666667</ele><time>2026-04-25T12:43:48.108Z</time></trkpt><trkpt lat="42.3724267" lon="12.8127317"><ele>685.8333333333334</ele><time>2026-04-25T12:43:49.109Z</time></trkpt><trkpt lat="42.3724883" lon="12.812675"><ele>685.0</ele><time>2026-04-25T12:43:50.109Z</time></trkpt><trkpt lat="42.3725533" lon="12.8126233"><ele>684.6666666666667</ele><time>2026-04-25T12:43:51.109Z</time></trkpt><trkpt lat="42.3726217" lon="12.81257"><ele>684.3333333333334</ele><time>2026-04-25T12:43:52.11Z</time></trkpt><trkpt lat="42.3726817" lon="12.8125133"><ele>684.0</ele><time>2026-04-25T12:43:53.11Z</time></trkpt><trkpt lat="42.3727383" lon="12.8124533"><ele>683.6666666666666</ele><time>2026-04-25T12:43:54.11Z</time></trkpt><trkpt lat="42.37279" lon="12.8123783"><ele>683.3333333333333</ele><time>2026-04-25T12:43:55.109Z</time></trkpt><trkpt lat="42.3728433" lon="12.8122883"><ele>683.0</ele><time>2026-04-25T12:43:56.109Z</time></trkpt><trkpt lat="42.372885" lon="12.812195"><ele>683.0</ele><time>2026-04-25T12:43:57.11Z</time></trkpt><trkpt lat="42.37292" lon="12.8121033"><ele>683.0</ele><time>2026-04-25T12:43:58.11Z</time></trkpt><trkpt lat="42.3729583" lon="12.8120117"><ele>683.0</ele><time>2026-04-25T12:43:59.107Z</time></trkpt><trkpt lat="42.373005" lon="12.81192"><ele>683.0</ele><time>2026-04-25T12:44:00.109Z</time></trkpt><trkpt lat="42.3730567" lon="12.8118333"><ele>683.0</ele><time>2026-04-25T12:44:01.11Z</time></trkpt><trkpt lat="42.3731133" lon="12.8117433"><ele>683.0</ele><time>2026-04-25T12:44:02.11Z</time></trkpt><trkpt lat="42.3731783" lon="12.81165"><ele>683.0</ele><time>2026-04-25T12:44:03.11Z</time></trkpt><trkpt lat="42.37325" lon="12.8115583"><ele>683.0</ele><time>2026-04-25T12:44:04.111Z</time></trkpt><trkpt lat="42.3733233" lon="12.8114683"><ele>683.0</ele><time>2026-04-25T12:44:05.11Z</time></trkpt><trkpt lat="42.373405" lon="12.811385"><ele>683.0</ele><time>2026-04-25T12:44:06.107Z</time></trkpt><trkpt lat="42.3734867" lon="12.8113117"><ele>683.0</ele><time>2026-04-25T12:44:07.11Z</time></trkpt><trkpt lat="42.3735667" lon="12.8112433"><ele>683.0</ele><time>2026-04-25T12:44:08.106Z</time></trkpt><trkpt lat="42.3736383" lon="12.8111767"><ele>683.0</ele><time>2026-04-25T12:44:09.108Z</time></trkpt><trkpt lat="42.3736933" lon="12.8111067"><ele>683.0</ele><time>2026-04-25T12:44:10.109Z</time></trkpt><trkpt lat="42.3737467" lon="12.8109983"><ele>683.0</ele><time>2026-04-25T12:44:12.11Z</time></trkpt><trkpt lat="42.3737617" lon="12.8108983"><ele>683.0</ele><time>2026-04-25T12:44:14.109Z</time></trkpt><trkpt lat="42.3737567" lon="12.81075"><ele>683.0</ele><time>2026-04-25T12:44:16.109Z</time></trkpt><trkpt lat="42.3737567" lon="12.8105817"><ele>685.0</ele><time>2026-04-25T12:44:18.107Z</time></trkpt><trkpt lat="42.373755" lon="12.8104933"><ele>687.0</ele><time>2026-04-25T12:44:19.108Z</time></trkpt><trkpt lat="42.3737583" lon="12.8104033"><ele>689.0</ele><time>2026-04-25T12:44:20.107Z</time></trkpt><trkpt lat="42.3737617" lon="12.8103117"><ele>691.0</ele><time>2026-04-25T12:44:21.108Z</time></trkpt><trkpt lat="42.37377" lon="12.8102133"><ele>693.0</ele><time>2026-04-25T12:44:22.11Z</time></trkpt><trkpt lat="42.3737833" lon="12.8101117"><ele>695.0</ele><time>2026-04-25T12:44:23.109Z</time></trkpt><trkpt lat="42.3738017" lon="12.81001"><ele>697.0</ele><time>2026-04-25T12:44:24.108Z</time></trkpt><trkpt lat="42.373825" lon="12.8099117"><ele>697.0</ele><time>2026-04-25T12:44:25.111Z</time></trkpt><trkpt lat="42.37385" lon="12.8098183"><ele>697.0</ele><time>2026-04-25T12:44:26.107Z</time></trkpt><trkpt lat="42.3738833" lon="12.8097333"><ele>697.0</ele><time>2026-04-25T12:44:27.111Z</time></trkpt><trkpt lat="42.373925" lon="12.80965"><ele>697.0</ele><time>2026-04-25T12:44:28.108Z</time></trkpt><trkpt lat="42.37397" lon="12.809565"><ele>697.0</ele><time>2026-04-25T12:44:29.109Z</time></trkpt><trkpt lat="42.3740167" lon="12.8094817"><ele>697.0</ele><time>2026-04-25T12:44:30.109Z</time></trkpt><trkpt lat="42.3740733" lon="12.8094067"><ele>694.6666666666667</ele><time>2026-04-25T12:44:31.109Z</time></trkpt><trkpt lat="42.3741333" lon="12.80934"><ele>692.3333333333334</ele><time>2026-04-25T12:44:32.109Z</time></trkpt><trkpt lat="42.3742017" lon="12.8092833"><ele>690.0</ele><time>2026-04-25T12:44:33.11Z</time></trkpt><trkpt lat="42.374275" lon="12.8092283"><ele>687.6666666666666</ele><time>2026-04-25T12:44:34.108Z</time></trkpt><trkpt lat="42.3743483" lon="12.80917"><ele>685.3333333333333</ele><time>2026-04-25T12:44:35.11Z</time></trkpt><trkpt lat="42.3744233" lon="12.8091117"><ele>683.0</ele><time>2026-04-25T12:44:36.109Z</time></trkpt><trkpt lat="42.3744933" lon="12.8090533"><ele>683.0</ele><time>2026-04-25T12:44:37.109Z</time></trkpt><trkpt lat="42.374565" lon="12.8089967"><ele>683.0</ele><time>2026-04-25T12:44:38.11Z</time></trkpt><trkpt lat="42.374635" lon="12.80894"><ele>683.0</ele><time>2026-04-25T12:44:39.111Z</time></trkpt><trkpt lat="42.374705" lon="12.808885"><ele>683.0</ele><time>2026-04-25T12:44:40.109Z</time></trkpt><trkpt lat="42.3747733" lon="12.80883"><ele>683.0</ele><time>2026-04-25T12:44:41.108Z</time></trkpt><trkpt lat="42.3748467" lon="12.808785"><ele>683.0</ele><time>2026-04-25T12:44:42.108Z</time></trkpt><trkpt lat="42.3749217" lon="12.80875"><ele>680.6666666666666</ele><time>2026-04-25T12:44:43.109Z</time></trkpt><trkpt lat="42.375" lon="12.8087233"><ele>678.3333333333333</ele><time>2026-04-25T12:44:44.106Z</time></trkpt><trkpt lat="42.3750767" lon="12.8086967"><ele>676.0</ele><time>2026-04-25T12:44:45.108Z</time></trkpt><trkpt lat="42.3751533" lon="12.8086733"><ele>673.6666666666666</ele><time>2026-04-25T12:44:46.108Z</time></trkpt><trkpt lat="42.37523" lon="12.8086517"><ele>671.3333333333334</ele><time>2026-04-25T12:44:47.108Z</time></trkpt><trkpt lat="42.3753067" lon="12.8086233"><ele>669.0</ele><time>2026-04-25T12:44:48.107Z</time></trkpt><trkpt lat="42.3753833" lon="12.808585"><ele>669.0</ele><time>2026-04-25T12:44:49.108Z</time></trkpt><trkpt lat="42.3754617" lon="12.808535"><ele>669.0</ele><time>2026-04-25T12:44:50.109Z</time></trkpt><trkpt lat="42.3755417" lon="12.808485"><ele>669.0</ele><time>2026-04-25T12:44:51.111Z</time></trkpt><trkpt lat="42.3756167" lon="12.8084317"><ele>669.0</ele><time>2026-04-25T12:44:52.108Z</time></trkpt><trkpt lat="42.37569" lon="12.8083933"><ele>669.0</ele><time>2026-04-25T12:44:53.109Z</time></trkpt><trkpt lat="42.3757683" lon="12.8083633"><ele>669.0</ele><time>2026-04-25T12:44:54.109Z</time></trkpt><trkpt lat="42.3758433" lon="12.808335"><ele>668.1666666666666</ele><time>2026-04-25T12:44:55.108Z</time></trkpt><trkpt lat="42.3759133" lon="12.8083033"><ele>667.3333333333334</ele><time>2026-04-25T12:44:56.109Z</time></trkpt><trkpt lat="42.3759933" lon="12.80827"><ele>666.5</ele><time>2026-04-25T12:44:57.109Z</time></trkpt><trkpt lat="42.3760667" lon="12.8082233"><ele>665.6666666666667</ele><time>2026-04-25T12:44:58.109Z</time></trkpt><trkpt lat="42.3761467" lon="12.8081733"><ele>664.8333333333334</ele><time>2026-04-25T12:44:59.11Z</time></trkpt><trkpt lat="42.3762217" lon="12.808125"><ele>664.0</ele><time>2026-04-25T12:45:00.109Z</time></trkpt><trkpt lat="42.37629" lon="12.80808"><ele>662.8333333333334</ele><time>2026-04-25T12:45:01.109Z</time></trkpt><trkpt lat="42.3763533" lon="12.808035"><ele>661.6666666666667</ele><time>2026-04-25T12:45:02.109Z</time></trkpt><trkpt lat="42.3764083" lon="12.8079833"><ele>660.5</ele><time>2026-04-25T12:45:03.109Z</time></trkpt><trkpt lat="42.3764617" lon="12.8079267"><ele>659.3333333333334</ele><time>2026-04-25T12:45:04.108Z</time></trkpt><trkpt lat="42.3765167" lon="12.80787"><ele>658.1666666666666</ele><time>2026-04-25T12:45:05.109Z</time></trkpt><trkpt lat="42.3766067" lon="12.80779"><ele>657.0</ele><time>2026-04-25T12:45:07.11Z</time></trkpt><trkpt lat="42.376695" lon="12.80775"><ele>657.0</ele><time>2026-04-25T12:45:09.11Z</time></trkpt><trkpt lat="42.3768083" lon="12.8077183"><ele>657.0</ele><time>2026-04-25T12:45:11.11Z</time></trkpt><trkpt lat="42.3768733" lon="12.8076967"><ele>657.0</ele><time>2026-04-25T12:45:12.108Z</time></trkpt><trkpt lat="42.3769417" lon="12.8076683"><ele>657.0</ele><time>2026-04-25T12:45:13.108Z</time></trkpt><trkpt lat="42.3770183" lon="12.8076433"><ele>657.0</ele><time>2026-04-25T12:45:14.107Z</time></trkpt><trkpt lat="42.3771" lon="12.8076217"><ele>657.0</ele><time>2026-04-25T12:45:15.109Z</time></trkpt><trkpt lat="42.37719" lon="12.8076067"><ele>655.2</ele><time>2026-04-25T12:45:16.11Z</time></trkpt><trkpt lat="42.37728" lon="12.8076017"><ele>653.4000000000001</ele><time>2026-04-25T12:45:17.111Z</time></trkpt><trkpt lat="42.37737" lon="12.8075983"><ele>651.5999999999999</ele><time>2026-04-25T12:45:18.111Z</time></trkpt><trkpt lat="42.3774633" lon="12.8075983"><ele>649.8</ele><time>2026-04-25T12:45:19.111Z</time></trkpt><trkpt lat="42.37756" lon="12.8075933"><ele>648.0</ele><time>2026-04-25T12:45:20.108Z</time></trkpt><trkpt lat="42.3776567" lon="12.8075883"><ele>648.0</ele><time>2026-04-25T12:45:21.108Z</time></trkpt><trkpt lat="42.3777517" lon="12.80759"><ele>648.0</ele><time>2026-04-25T12:45:22.11Z</time></trkpt><trkpt lat="42.3778467" lon="12.8076"><ele>648.0</ele><time>2026-04-25T12:45:23.108Z</time></trkpt><trkpt lat="42.3779383" lon="12.8076267"><ele>648.0</ele><time>2026-04-25T12:45:24.107Z</time></trkpt><trkpt lat="42.37803" lon="12.8076583"><ele>648.0</ele><time>2026-04-25T12:45:25.11Z</time></trkpt><trkpt lat="42.37812" lon="12.8076917"><ele>645.8333333333334</ele><time>2026-04-25T12:45:26.112Z</time></trkpt><trkpt lat="42.3782117" lon="12.807715"><ele>643.6666666666666</ele><time>2026-04-25T12:45:27.109Z</time></trkpt><trkpt lat="42.378305" lon="12.807725"><ele>641.5</ele><time>2026-04-25T12:45:28.109Z</time></trkpt><trkpt lat="42.3783883" lon="12.8077267"><ele>639.3333333333333</ele><time>2026-04-25T12:45:29.109Z</time></trkpt><trkpt lat="42.3784517" lon="12.8077267"><ele>637.1666666666666</ele><time>2026-04-25T12:45:30.11Z</time></trkpt><trkpt lat="42.3785167" lon="12.80771"><ele>635.0</ele><time>2026-04-25T12:45:32.11Z</time></trkpt><trkpt lat="42.3785767" lon="12.8076533"><ele>635.0</ele><time>2026-04-25T12:45:49.108Z</time></trkpt><trkpt lat="42.378685" lon="12.8076"><ele>635.0</ele><time>2026-04-25T12:45:51.11Z</time></trkpt><trkpt lat="42.3787683" lon="12.8075733"><ele>635.0</ele><time>2026-04-25T12:45:52.108Z</time></trkpt><trkpt lat="42.3788483" lon="12.8075517"><ele>635.0</ele><time>2026-04-25T12:45:53.107Z</time></trkpt><trkpt lat="42.3789267" lon="12.80753"><ele>635.0</ele><time>2026-04-25T12:45:54.109Z</time></trkpt><trkpt lat="42.3790067" lon="12.8075167"><ele>635.0</ele><time>2026-04-25T12:45:55.111Z</time></trkpt><trkpt lat="42.37909" lon="12.807505"><ele>634.3333333333333</ele><time>2026-04-25T12:45:56.109Z</time></trkpt><trkpt lat="42.3791683" lon="12.807495"><ele>633.6666666666666</ele><time>2026-04-25T12:45:57.109Z</time></trkpt><trkpt lat="42.3792417" lon="12.8074783"><ele>633.0</ele><time>2026-04-25T12:45:58.109Z</time></trkpt><trkpt lat="42.3793167" lon="12.8074683"><ele>632.3333333333334</ele><time>2026-04-25T12:45:59.11Z</time></trkpt><trkpt lat="42.3793883" lon="12.807465"><ele>631.6666666666667</ele><time>2026-04-25T12:46:00.109Z</time></trkpt><trkpt lat="42.3794633" lon="12.8074633"><ele>631.0</ele><time>2026-04-25T12:46:01.11Z</time></trkpt><trkpt lat="42.3795383" lon="12.807455"><ele>631.0</ele><time>2026-04-25T12:46:02.111Z</time></trkpt><trkpt lat="42.3796133" lon="12.8074417"><ele>631.0</ele><time>2026-04-25T12:46:03.109Z</time></trkpt><trkpt lat="42.3796833" lon="12.807425"><ele>631.0</ele><time>2026-04-25T12:46:04.11Z</time></trkpt><trkpt lat="42.3797783" lon="12.807395"><ele>631.0</ele><time>2026-04-25T12:46:06.11Z</time></trkpt><trkpt lat="42.3798533" lon="12.8073733"><ele>631.0</ele><time>2026-04-25T12:46:08.109Z</time></trkpt><trkpt lat="42.37993" lon="12.807355"><ele>631.0</ele><time>2026-04-25T12:46:10.109Z</time></trkpt><trkpt lat="42.3800017" lon="12.8073333"><ele>630.0</ele><time>2026-04-25T12:46:12.109Z</time></trkpt><trkpt lat="42.380085" lon="12.8073117"><ele>629.0</ele><time>2026-04-25T12:46:14.108Z</time></trkpt><trkpt lat="42.3801983" lon="12.8072783"><ele>628.0</ele><time>2026-04-25T12:46:16.11Z</time></trkpt><trkpt lat="42.3802633" lon="12.807245"><ele>627.0</ele><time>2026-04-25T12:46:17.11Z</time></trkpt><trkpt lat="42.3803383" lon="12.8072083"><ele>626.0</ele><time>2026-04-25T12:46:18.109Z</time></trkpt><trkpt lat="42.380415" lon="12.8071683"><ele>625.0</ele><time>2026-04-25T12:46:19.111Z</time></trkpt><trkpt lat="42.3804867" lon="12.8071183"><ele>623.7142857142858</ele><time>2026-04-25T12:46:20.109Z</time></trkpt><trkpt lat="42.3805567" lon="12.8070717"><ele>622.4285714285714</ele><time>2026-04-25T12:46:21.111Z</time></trkpt><trkpt lat="42.3806283" lon="12.8070267"><ele>621.1428571428571</ele><time>2026-04-25T12:46:22.11Z</time></trkpt><trkpt lat="42.3807" lon="12.8069883"><ele>619.8571428571429</ele><time>2026-04-25T12:46:23.11Z</time></trkpt><trkpt lat="42.3807683" lon="12.806955"><ele>618.5714285714286</ele><time>2026-04-25T12:46:24.109Z</time></trkpt><trkpt lat="42.380835" lon="12.80692"><ele>617.2857142857143</ele><time>2026-04-25T12:46:25.109Z</time></trkpt><trkpt lat="42.3808983" lon="12.8068967"><ele>616.0</ele><time>2026-04-25T12:46:26.109Z</time></trkpt><trkpt lat="42.3809633" lon="12.80688"><ele>616.0</ele><time>2026-04-25T12:46:27.11Z</time></trkpt><trkpt lat="42.3810833" lon="12.8068383"><ele>616.0</ele><time>2026-04-25T12:46:29.108Z</time></trkpt><trkpt lat="42.381195" lon="12.8067617"><ele>616.0</ele><time>2026-04-25T12:46:31.107Z</time></trkpt><trkpt lat="42.3812533" lon="12.8067083"><ele>616.0</ele><time>2026-04-25T12:46:32.108Z</time></trkpt><trkpt lat="42.38135" lon="12.8066083"><ele>616.0</ele><time>2026-04-25T12:46:34.109Z</time></trkpt><trkpt lat="42.3813917" lon="12.8065133"><ele>612.2</ele><time>2026-04-25T12:46:36.107Z</time></trkpt><trkpt lat="42.381435" lon="12.8064167"><ele>608.4000000000001</ele><time>2026-04-25T12:46:38.11Z</time></trkpt><trkpt lat="42.3815017" lon="12.8063217"><ele>604.6</ele><time>2026-04-25T12:46:40.109Z</time></trkpt><trkpt lat="42.3816" lon="12.80623"><ele>600.8000000000001</ele><time>2026-04-25T12:46:42.108Z</time></trkpt><trkpt lat="42.38169" lon="12.80615"><ele>597.0</ele><time>2026-04-25T12:46:44.109Z</time></trkpt><trkpt lat="42.3817467" lon="12.806095"><ele>595.4</ele><time>2026-04-25T12:46:46.11Z</time></trkpt><trkpt lat="42.381775" lon="12.8059933"><ele>593.8000000000001</ele><time>2026-04-25T12:47:46.11Z</time></trkpt><trkpt lat="42.381825" lon="12.8059117"><ele>592.2</ele><time>2026-04-25T12:47:48.11Z</time></trkpt><trkpt lat="42.3818917" lon="12.8058233"><ele>590.6</ele><time>2026-04-25T12:47:50.11Z</time></trkpt><trkpt lat="42.3819917" lon="12.8057217"><ele>589.0</ele><time>2026-04-25T12:47:52.111Z</time></trkpt><trkpt lat="42.382075" lon="12.80559"><ele>589.0</ele><time>2026-04-25T12:47:54.109Z</time></trkpt><trkpt lat="42.3821233" lon="12.80551"><ele>589.0</ele><time>2026-04-25T12:47:55.108Z</time></trkpt><trkpt lat="42.3821617" lon="12.805425"><ele>589.0</ele><time>2026-04-25T12:47:56.108Z</time></trkpt><trkpt lat="42.3821983" lon="12.8053417"><ele>589.0</ele><time>2026-04-25T12:47:57.108Z</time></trkpt><trkpt lat="42.3822317" lon="12.8052633"><ele>589.0</ele><time>2026-04-25T12:47:58.107Z</time></trkpt><trkpt lat="42.3822633" lon="12.8051833"><ele>589.0</ele><time>2026-04-25T12:47:59.109Z</time></trkpt><trkpt lat="42.382285" lon="12.8050967"><ele>589.0</ele><time>2026-04-25T12:48:00.11Z</time></trkpt><trkpt lat="42.3823" lon="12.8050133"><ele>586.8333333333334</ele><time>2026-04-25T12:48:01.109Z</time></trkpt><trkpt lat="42.3823483" lon="12.804855"><ele>584.6666666666667</ele><time>2026-04-25T12:48:03.109Z</time></trkpt><trkpt lat="42.3823783" lon="12.804775"><ele>582.5</ele><time>2026-04-25T12:48:04.108Z</time></trkpt><trkpt lat="42.3824033" lon="12.8046883"><ele>580.3333333333334</ele><time>2026-04-25T12:48:05.108Z</time></trkpt><trkpt lat="42.3824317" lon="12.8046017"><ele>578.1666666666666</ele><time>2026-04-25T12:48:06.108Z</time></trkpt><trkpt lat="42.38246" lon="12.8045217"><ele>576.0</ele><time>2026-04-25T12:48:07.109Z</time></trkpt><trkpt lat="42.38251" lon="12.8043933"><ele>573.6</ele><time>2026-04-25T12:48:09.109Z</time></trkpt><trkpt lat="42.3825583" lon="12.80427"><ele>571.2</ele><time>2026-04-25T12:48:11.109Z</time></trkpt><trkpt lat="42.382635" lon="12.8041383"><ele>568.8</ele><time>2026-04-25T12:48:13.111Z</time></trkpt><trkpt lat="42.3826767" lon="12.80406"><ele>566.4</ele><time>2026-04-25T12:48:14.11Z</time></trkpt><trkpt lat="42.3827217" lon="12.80398"><ele>564.0</ele><time>2026-04-25T12:48:15.111Z</time></trkpt><trkpt lat="42.3827667" lon="12.8038933"><ele>564.0</ele><time>2026-04-25T12:48:16.109Z</time></trkpt><trkpt lat="42.3828117" lon="12.803805"><ele>564.0</ele><time>2026-04-25T12:48:17.111Z</time></trkpt><trkpt lat="42.382855" lon="12.8037167"><ele>564.0</ele><time>2026-04-25T12:48:18.11Z</time></trkpt><trkpt lat="42.3828917" lon="12.803635"><ele>564.0</ele><time>2026-04-25T12:48:19.11Z</time></trkpt><trkpt lat="42.3829283" lon="12.803555"><ele>564.0</ele><time>2026-04-25T12:48:20.11Z</time></trkpt><trkpt lat="42.3829583" lon="12.8034767"><ele>564.0</ele><time>2026-04-25T12:48:21.109Z</time></trkpt><trkpt lat="42.38299" lon="12.8033917"><ele>564.0</ele><time>2026-04-25T12:48:22.111Z</time></trkpt><trkpt lat="42.3830283" lon="12.8033117"><ele>562.8333333333334</ele><time>2026-04-25T12:48:23.113Z</time></trkpt><trkpt lat="42.3830683" lon="12.8032367"><ele>561.6666666666666</ele><time>2026-04-25T12:48:24.108Z</time></trkpt><trkpt lat="42.3831167" lon="12.8031583"><ele>560.5</ele><time>2026-04-25T12:48:25.107Z</time></trkpt><trkpt lat="42.383165" lon="12.8030767"><ele>559.3333333333333</ele><time>2026-04-25T12:48:26.108Z</time></trkpt><trkpt lat="42.3832117" lon="12.8029833"><ele>558.1666666666666</ele><time>2026-04-25T12:48:27.108Z</time></trkpt><trkpt lat="42.3832633" lon="12.8028983"><ele>557.0</ele><time>2026-04-25T12:48:28.11Z</time></trkpt><trkpt lat="42.383305" lon="12.802825"><ele>557.0</ele><time>2026-04-25T12:48:29.107Z</time></trkpt><trkpt lat="42.3833517" lon="12.8027667"><ele>557.0</ele><time>2026-04-25T12:48:30.11Z</time></trkpt><trkpt lat="42.3834067" lon="12.8027133"><ele>557.0</ele><time>2026-04-25T12:48:31.109Z</time></trkpt><trkpt lat="42.3834633" lon="12.8026533"><ele>557.0</ele><time>2026-04-25T12:48:32.11Z</time></trkpt><trkpt lat="42.3835233" lon="12.8025833"><ele>557.0</ele><time>2026-04-25T12:48:33.11Z</time></trkpt><trkpt lat="42.38358" lon="12.8025033"><ele>557.0</ele><time>2026-04-25T12:48:34.108Z</time></trkpt><trkpt lat="42.3836317" lon="12.8024183"><ele>557.0</ele><time>2026-04-25T12:48:35.107Z</time></trkpt><trkpt lat="42.3836833" lon="12.8023433"><ele>555.7142857142858</ele><time>2026-04-25T12:48:36.108Z</time></trkpt><trkpt lat="42.38373" lon="12.802265"><ele>554.4285714285714</ele><time>2026-04-25T12:48:37.111Z</time></trkpt><trkpt lat="42.3837717" lon="12.80219"><ele>553.1428571428571</ele><time>2026-04-25T12:48:38.111Z</time></trkpt><trkpt lat="42.3838183" lon="12.802125"><ele>551.8571428571429</ele><time>2026-04-25T12:48:39.109Z</time></trkpt><trkpt lat="42.383875" lon="12.802065"><ele>550.5714285714286</ele><time>2026-04-25T12:48:40.109Z</time></trkpt><trkpt lat="42.3839267" lon="12.802005"><ele>549.2857142857143</ele><time>2026-04-25T12:48:41.109Z</time></trkpt><trkpt lat="42.3839767" lon="12.80195"><ele>548.0</ele><time>2026-04-25T12:48:42.109Z</time></trkpt><trkpt lat="42.3840283" lon="12.8018883"><ele>546.8571428571429</ele><time>2026-04-25T12:48:43.111Z</time></trkpt><trkpt lat="42.3840683" lon="12.80181"><ele>545.7142857142858</ele><time>2026-04-25T12:48:44.107Z</time></trkpt><trkpt lat="42.3841083" lon="12.801725"><ele>544.5714285714286</ele><time>2026-04-25T12:48:45.108Z</time></trkpt><trkpt lat="42.38415" lon="12.8016533"><ele>543.4285714285714</ele><time>2026-04-25T12:48:46.109Z</time></trkpt><trkpt lat="42.3842033" lon="12.8015933"><ele>542.2857142857142</ele><time>2026-04-25T12:48:47.11Z</time></trkpt><trkpt lat="42.3842617" lon="12.80154"><ele>541.1428571428571</ele><time>2026-04-25T12:48:48.109Z</time></trkpt><trkpt lat="42.3843267" lon="12.80149"><ele>540.0</ele><time>2026-04-25T12:48:49.109Z</time></trkpt><trkpt lat="42.3843883" lon="12.8014417"><ele>540.0</ele><time>2026-04-25T12:48:50.11Z</time></trkpt><trkpt lat="42.384445" lon="12.8013967"><ele>540.0</ele><time>2026-04-25T12:48:51.11Z</time></trkpt><trkpt lat="42.3845017" lon="12.801355"><ele>540.0</ele><time>2026-04-25T12:48:52.11Z</time></trkpt><trkpt lat="42.3845933" lon="12.801265"><ele>540.0</ele><time>2026-04-25T12:48:54.11Z</time></trkpt><trkpt lat="42.3846767" lon="12.8011433"><ele>540.0</ele><time>2026-04-25T12:48:56.11Z</time></trkpt><trkpt lat="42.3847167" lon="12.801075"><ele>540.0</ele><time>2026-04-25T12:48:57.111Z</time></trkpt><trkpt lat="42.384805" lon="12.80095"><ele>540.0</ele><time>2026-04-25T12:48:59.109Z</time></trkpt><trkpt lat="42.3848467" lon="12.8008833"><ele>540.0</ele><time>2026-04-25T12:49:00.109Z</time></trkpt><trkpt lat="42.3849083" lon="12.80077"><ele>540.0</ele><time>2026-04-25T12:49:02.109Z</time></trkpt><trkpt lat="42.3849717" lon="12.8006667"><ele>540.0</ele><time>2026-04-25T12:49:04.108Z</time></trkpt><trkpt lat="42.3850517" lon="12.800545"><ele>540.0</ele><time>2026-04-25T12:49:06.109Z</time></trkpt><trkpt lat="42.3850983" lon="12.8004817"><ele>540.0</ele><time>2026-04-25T12:49:07.11Z</time></trkpt><trkpt lat="42.3851533" lon="12.8004167"><ele>540.0</ele><time>2026-04-25T12:49:08.109Z</time></trkpt><trkpt lat="42.3852167" lon="12.80036"><ele>540.0</ele><time>2026-04-25T12:49:09.109Z</time></trkpt><trkpt lat="42.38528" lon="12.8003233"><ele>540.0</ele><time>2026-04-25T12:49:10.109Z</time></trkpt><trkpt lat="42.3853517" lon="12.8002967"><ele>540.0</ele><time>2026-04-25T12:49:11.108Z</time></trkpt><trkpt lat="42.3854317" lon="12.8002817"><ele>540.0</ele><time>2026-04-25T12:49:12.109Z</time></trkpt><trkpt lat="42.3855117" lon="12.800255"><ele>539.0</ele><time>2026-04-25T12:49:13.109Z</time></trkpt><trkpt lat="42.3856" lon="12.8002233"><ele>538.0</ele><time>2026-04-25T12:49:14.106Z</time></trkpt><trkpt lat="42.3856817" lon="12.8001767"><ele>537.0</ele><time>2026-04-25T12:49:15.109Z</time></trkpt><trkpt lat="42.385755" lon="12.8001117"><ele>536.0</ele><time>2026-04-25T12:49:16.108Z</time></trkpt><trkpt lat="42.3858233" lon="12.8000467"><ele>535.0</ele><time>2026-04-25T12:49:17.109Z</time></trkpt><trkpt lat="42.3858817" lon="12.7999783"><ele>534.0</ele><time>2026-04-25T12:49:18.109Z</time></trkpt><trkpt lat="42.3859367" lon="12.7999117"><ele>534.0000000000001</ele><time>2026-04-25T12:49:19.108Z</time></trkpt><trkpt lat="42.3859867" lon="12.79985"><ele>534.0</ele><time>2026-04-25T12:49:20.108Z</time></trkpt><trkpt lat="42.3860367" lon="12.7997817"><ele>534.0</ele><time>2026-04-25T12:49:21.109Z</time></trkpt><trkpt lat="42.386085" lon="12.7997133"><ele>534.0</ele><time>2026-04-25T12:49:22.108Z</time></trkpt><trkpt lat="42.3861333" lon="12.7996417"><ele>534.0</ele><time>2026-04-25T12:49:23.11Z</time></trkpt><trkpt lat="42.3861833" lon="12.7995633"><ele>534.0000000000001</ele><time>2026-04-25T12:49:24.108Z</time></trkpt><trkpt lat="42.386235" lon="12.799485"><ele>534.0</ele><time>2026-04-25T12:49:25.109Z</time></trkpt><trkpt lat="42.3862967" lon="12.7994133"><ele>532.1666666666666</ele><time>2026-04-25T12:49:26.108Z</time></trkpt><trkpt lat="42.3863483" lon="12.7993383"><ele>530.3333333333334</ele><time>2026-04-25T12:49:27.112Z</time></trkpt><trkpt lat="42.3864083" lon="12.799255"><ele>528.5</ele><time>2026-04-25T12:49:28.108Z</time></trkpt><trkpt lat="42.3864433" lon="12.7991733"><ele>526.6666666666667</ele><time>2026-04-25T12:49:29.108Z</time></trkpt><trkpt lat="42.3864817" lon="12.79909"><ele>524.8333333333334</ele><time>2026-04-25T12:49:30.109Z</time></trkpt><trkpt lat="42.3865317" lon="12.799"><ele>523.0</ele><time>2026-04-25T12:49:31.111Z</time></trkpt><trkpt lat="42.3865817" lon="12.798905"><ele>523.0</ele><time>2026-04-25T12:49:32.107Z</time></trkpt><trkpt lat="42.38663" lon="12.79881"><ele>523.0</ele><time>2026-04-25T12:49:33.11Z</time></trkpt><trkpt lat="42.3866767" lon="12.7987133"><ele>523.0</ele><time>2026-04-25T12:49:34.108Z</time></trkpt><trkpt lat="42.386725" lon="12.7986267"><ele>523.0</ele><time>2026-04-25T12:49:35.11Z</time></trkpt><trkpt lat="42.3867767" lon="12.7985517"><ele>523.0</ele><time>2026-04-25T12:49:36.107Z</time></trkpt><trkpt lat="42.3868283" lon="12.79849"><ele>523.0</ele><time>2026-04-25T12:49:37.107Z</time></trkpt><trkpt lat="42.386885" lon="12.7984383"><ele>521.4285714285713</ele><time>2026-04-25T12:49:38.109Z</time></trkpt><trkpt lat="42.38695" lon="12.7983933"><ele>519.8571428571429</ele><time>2026-04-25T12:49:39.11Z</time></trkpt><trkpt lat="42.387015" lon="12.7983483"><ele>518.2857142857142</ele><time>2026-04-25T12:49:40.109Z</time></trkpt><trkpt lat="42.3870833" lon="12.7983117"><ele>516.7142857142857</ele><time>2026-04-25T12:49:41.106Z</time></trkpt><trkpt lat="42.3871533" lon="12.798285"><ele>515.1428571428571</ele><time>2026-04-25T12:49:42.107Z</time></trkpt><trkpt lat="42.3872183" lon="12.7982533"><ele>513.5714285714286</ele><time>2026-04-25T12:49:43.109Z</time></trkpt><trkpt lat="42.3872867" lon="12.7982233"><ele>512.0</ele><time>2026-04-25T12:49:44.108Z</time></trkpt><trkpt lat="42.3873517" lon="12.7981833"><ele>511.71428571428567</ele><time>2026-04-25T12:49:45.112Z</time></trkpt><trkpt lat="42.3874133" lon="12.7981333"><ele>511.4285714285714</ele><time>2026-04-25T12:49:46.109Z</time></trkpt><trkpt lat="42.3874717" lon="12.7980717"><ele>511.1428571428571</ele><time>2026-04-25T12:49:47.111Z</time></trkpt><trkpt lat="42.3875267" lon="12.7979983"><ele>510.8571428571429</ele><time>2026-04-25T12:49:48.109Z</time></trkpt><trkpt lat="42.3875817" lon="12.7979267"><ele>510.5714285714286</ele><time>2026-04-25T12:49:49.106Z</time></trkpt><trkpt lat="42.3876367" lon="12.7978567"><ele>510.28571428571433</ele><time>2026-04-25T12:49:50.11Z</time></trkpt><trkpt lat="42.3876817" lon="12.7977867"><ele>510.0</ele><time>2026-04-25T12:49:51.109Z</time></trkpt><trkpt lat="42.3877283" lon="12.7977117"><ele>508.5714285714286</ele><time>2026-04-25T12:49:52.109Z</time></trkpt><trkpt lat="42.3877717" lon="12.7976317"><ele>507.1428571428572</ele><time>2026-04-25T12:49:53.109Z</time></trkpt><trkpt lat="42.3878133" lon="12.7975517"><ele>505.7142857142857</ele><time>2026-04-25T12:49:54.108Z</time></trkpt><trkpt lat="42.3878533" lon="12.7974733"><ele>504.28571428571433</ele><time>2026-04-25T12:49:55.109Z</time></trkpt><trkpt lat="42.3878967" lon="12.7973983"><ele>502.8571428571429</ele><time>2026-04-25T12:49:56.107Z</time></trkpt><trkpt lat="42.3879467" lon="12.7973267"><ele>501.42857142857144</ele><time>2026-04-25T12:49:57.11Z</time></trkpt><trkpt lat="42.388005" lon="12.797265"><ele>500.0</ele><time>2026-04-25T12:49:58.108Z</time></trkpt><trkpt lat="42.3880667" lon="12.79721"><ele>497.85714285714283</ele><time>2026-04-25T12:49:59.108Z</time></trkpt><trkpt lat="42.3881333" lon="12.79717"><ele>495.7142857142858</ele><time>2026-04-25T12:50:00.109Z</time></trkpt><trkpt lat="42.3881983" lon="12.7971333"><ele>493.5714285714286</ele><time>2026-04-25T12:50:01.107Z</time></trkpt><trkpt lat="42.38826" lon="12.797095"><ele>491.42857142857144</ele><time>2026-04-25T12:50:02.106Z</time></trkpt><trkpt lat="42.3883183" lon="12.797055"><ele>489.28571428571433</ele><time>2026-04-25T12:50:03.108Z</time></trkpt><trkpt lat="42.388375" lon="12.797015"><ele>487.1428571428572</ele><time>2026-04-25T12:50:04.108Z</time></trkpt><trkpt lat="42.3884317" lon="12.79697"><ele>485.00000000000006</ele><time>2026-04-25T12:50:05.108Z</time></trkpt><trkpt lat="42.3885283" lon="12.79687"><ele>483.2</ele><time>2026-04-25T12:50:07.108Z</time></trkpt><trkpt lat="42.3885883" lon="12.79675"><ele>481.4</ele><time>2026-04-25T12:50:09.109Z</time></trkpt><trkpt lat="42.3886433" lon="12.7966033"><ele>479.6</ele><time>2026-04-25T12:50:11.108Z</time></trkpt><trkpt lat="42.3887017" lon="12.79645"><ele>477.8</ele><time>2026-04-25T12:50:13.107Z</time></trkpt><trkpt lat="42.3887233" lon="12.79636"><ele>476.0</ele><time>2026-04-25T12:50:14.108Z</time></trkpt><trkpt lat="42.3887383" lon="12.79627"><ele>476.0</ele><time>2026-04-25T12:50:15.11Z</time></trkpt><trkpt lat="42.3887483" lon="12.79618"><ele>476.0</ele><time>2026-04-25T12:50:16.107Z</time></trkpt><trkpt lat="42.3887717" lon="12.7960217"><ele>476.0</ele><time>2026-04-25T12:50:18.111Z</time></trkpt><trkpt lat="42.38878" lon="12.7958517"><ele>476.0</ele><time>2026-04-25T12:50:20.108Z</time></trkpt><trkpt lat="42.3887817" lon="12.795765"><ele>476.0</ele><time>2026-04-25T12:50:21.109Z</time></trkpt><trkpt lat="42.3887817" lon="12.7956083"><ele>471.66666666666663</ele><time>2026-04-25T12:50:23.108Z</time></trkpt><trkpt lat="42.3887767" lon="12.7954533"><ele>467.3333333333333</ele><time>2026-04-25T12:50:25.107Z</time></trkpt><trkpt lat="42.3887817" lon="12.7952933"><ele>463.0</ele><time>2026-04-25T12:50:27.109Z</time></trkpt><trkpt lat="42.388785" lon="12.7952033"><ele>458.66666666666663</ele><time>2026-04-25T12:50:28.11Z</time></trkpt><trkpt lat="42.3887867" lon="12.795115"><ele>454.3333333333333</ele><time>2026-04-25T12:50:29.109Z</time></trkpt><trkpt lat="42.388785" lon="12.7950267"><ele>450.0</ele><time>2026-04-25T12:50:30.109Z</time></trkpt><trkpt lat="42.38878" lon="12.7949267"><ele>446.0</ele><time>2026-04-25T12:50:31.108Z</time></trkpt><trkpt lat="42.3887883" lon="12.794825"><ele>442.0</ele><time>2026-04-25T12:50:32.108Z</time></trkpt><trkpt lat="42.3887983" lon="12.79473"><ele>438.0</ele><time>2026-04-25T12:50:33.108Z</time></trkpt><trkpt lat="42.3888083" lon="12.7946333"><ele>434.0</ele><time>2026-04-25T12:50:34.109Z</time></trkpt><trkpt lat="42.3888167" lon="12.7945367"><ele>430.0</ele><time>2026-04-25T12:50:35.108Z</time></trkpt><trkpt lat="42.3888267" lon="12.794445"><ele>426.0</ele><time>2026-04-25T12:50:36.108Z</time></trkpt><trkpt lat="42.388875" lon="12.7942917"><ele>425.57142857142856</ele><time>2026-04-25T12:50:38.107Z</time></trkpt><trkpt lat="42.388905" lon="12.7942133"><ele>425.1428571428571</ele><time>2026-04-25T12:50:39.107Z</time></trkpt><trkpt lat="42.3889417" lon="12.7941317"><ele>424.71428571428567</ele><time>2026-04-25T12:50:40.108Z</time></trkpt><trkpt lat="42.3889783" lon="12.7940483"><ele>424.2857142857143</ele><time>2026-04-25T12:50:41.107Z</time></trkpt><trkpt lat="42.389015" lon="12.7939667"><ele>423.8571428571429</ele><time>2026-04-25T12:50:42.109Z</time></trkpt><trkpt lat="42.3890533" lon="12.7938817"><ele>423.4285714285714</ele><time>2026-04-25T12:50:43.11Z</time></trkpt><trkpt lat="42.3890933" lon="12.793795"><ele>423.0</ele><time>2026-04-25T12:50:44.107Z</time></trkpt><trkpt lat="42.38913" lon="12.7937083"><ele>423.0</ele><time>2026-04-25T12:50:45.109Z</time></trkpt><trkpt lat="42.38917" lon="12.7936233"><ele>423.0</ele><time>2026-04-25T12:50:46.108Z</time></trkpt><trkpt lat="42.3892133" lon="12.79354"><ele>423.0</ele><time>2026-04-25T12:50:47.108Z</time></trkpt><trkpt lat="42.389265" lon="12.7934683"><ele>423.0</ele><time>2026-04-25T12:50:48.106Z</time></trkpt><trkpt lat="42.3893217" lon="12.7934083"><ele>423.0</ele><time>2026-04-25T12:50:49.108Z</time></trkpt><trkpt lat="42.3893833" lon="12.793355"><ele>423.0</ele><time>2026-04-25T12:50:50.108Z</time></trkpt><trkpt lat="42.389445" lon="12.7933183"><ele>423.0</ele><time>2026-04-25T12:50:51.109Z</time></trkpt><trkpt lat="42.38954" lon="12.7932917"><ele>421.5</ele><time>2026-04-25T12:50:53.108Z</time></trkpt><trkpt lat="42.3896083" lon="12.7932933"><ele>420.0</ele><time>2026-04-25T12:50:55.108Z</time></trkpt><trkpt lat="42.38968" lon="12.7933267"><ele>418.5</ele><time>2026-04-25T12:50:58.108Z</time></trkpt><trkpt lat="42.3897533" lon="12.7933483"><ele>417.0</ele><time>2026-04-25T12:51:01.108Z</time></trkpt><trkpt lat="42.3898267" lon="12.79337"><ele>415.5</ele><time>2026-04-25T12:51:04.11Z</time></trkpt><trkpt lat="42.3899067" lon="12.7933983"><ele>414.0</ele><time>2026-04-25T12:51:46.107Z</time></trkpt><trkpt lat="42.390015" lon="12.793485"><ele>415.3333333333333</ele><time>2026-04-25T12:51:48.107Z</time></trkpt><trkpt lat="42.3901033" lon="12.7935533"><ele>416.66666666666663</ele><time>2026-04-25T12:51:50.109Z</time></trkpt><trkpt lat="42.390215" lon="12.7936033"><ele>418.0</ele><time>2026-04-25T12:51:52.108Z</time></trkpt><trkpt lat="42.39028" lon="12.79362"><ele>419.3333333333333</ele><time>2026-04-25T12:51:53.107Z</time></trkpt><trkpt lat="42.39035" lon="12.793635"><ele>420.66666666666663</ele><time>2026-04-25T12:51:54.107Z</time></trkpt><trkpt lat="42.39042" lon="12.7936467"><ele>422.0</ele><time>2026-04-25T12:51:55.108Z</time></trkpt><trkpt lat="42.3904917" lon="12.79366"><ele>419.49999999999994</ele><time>2026-04-25T12:51:56.108Z</time></trkpt><trkpt lat="42.39056" lon="12.7936767"><ele>417.0</ele><time>2026-04-25T12:51:57.108Z</time></trkpt><trkpt lat="42.39063" lon="12.7937"><ele>414.5</ele><time>2026-04-25T12:51:58.108Z</time></trkpt><trkpt lat="42.3907" lon="12.7937317"><ele>412.0</ele><time>2026-04-25T12:51:59.108Z</time></trkpt><trkpt lat="42.39081" lon="12.7937833"><ele>409.49999999999994</ele><time>2026-04-25T12:52:01.108Z</time></trkpt><trkpt lat="42.3909017" lon="12.7938383"><ele>407.0</ele><time>2026-04-25T12:52:03.107Z</time></trkpt><trkpt lat="42.3909867" lon="12.7939417"><ele>406.99999999999994</ele><time>2026-04-25T12:52:30.106Z</time></trkpt><trkpt lat="42.391045" lon="12.7940767"><ele>407.0</ele><time>2026-04-25T12:52:32.106Z</time></trkpt><trkpt lat="42.3910967" lon="12.7942317"><ele>407.0</ele><time>2026-04-25T12:52:34.109Z</time></trkpt><trkpt lat="42.39112" lon="12.7943183"><ele>407.0</ele><time>2026-04-25T12:52:35.106Z</time></trkpt><trkpt lat="42.39114" lon="12.7944017"><ele>406.99999999999994</ele><time>2026-04-25T12:52:36.107Z</time></trkpt><trkpt lat="42.3911667" lon="12.794485"><ele>407.0</ele><time>2026-04-25T12:52:37.108Z</time></trkpt><trkpt lat="42.3912017" lon="12.7945633"><ele>406.7142857142857</ele><time>2026-04-25T12:52:38.107Z</time></trkpt><trkpt lat="42.391245" lon="12.7946367"><ele>406.42857142857144</ele><time>2026-04-25T12:52:39.109Z</time></trkpt><trkpt lat="42.3912983" lon="12.7947067"><ele>406.1428571428571</ele><time>2026-04-25T12:52:40.106Z</time></trkpt><trkpt lat="42.3913583" lon="12.7947633"><ele>405.8571428571429</ele><time>2026-04-25T12:52:41.107Z</time></trkpt><trkpt lat="42.3914167" lon="12.7948167"><ele>405.57142857142856</ele><time>2026-04-25T12:52:42.11Z</time></trkpt><trkpt lat="42.3914783" lon="12.7948617"><ele>405.2857142857143</ele><time>2026-04-25T12:52:43.108Z</time></trkpt><trkpt lat="42.3915483" lon="12.7949067"><ele>405.0</ele><time>2026-04-25T12:52:44.108Z</time></trkpt><trkpt lat="42.3916233" lon="12.7949533"><ele>403.4</ele><time>2026-04-25T12:52:45.107Z</time></trkpt><trkpt lat="42.3917017" lon="12.7950033"><ele>401.8</ele><time>2026-04-25T12:52:46.11Z</time></trkpt><trkpt lat="42.39179" lon="12.7950633"><ele>400.20000000000005</ele><time>2026-04-25T12:52:47.109Z</time></trkpt><trkpt lat="42.3918833" lon="12.7951333"><ele>398.6</ele><time>2026-04-25T12:52:48.107Z</time></trkpt><trkpt lat="42.391975" lon="12.7952067"><ele>397.0</ele><time>2026-04-25T12:52:49.108Z</time></trkpt><trkpt lat="42.3920667" lon="12.795285"><ele>396.8</ele><time>2026-04-25T12:52:50.108Z</time></trkpt><trkpt lat="42.3921567" lon="12.7953667"><ele>396.6</ele><time>2026-04-25T12:52:51.11Z</time></trkpt><trkpt lat="42.3922417" lon="12.7954533"><ele>396.40000000000003</ele><time>2026-04-25T12:52:52.108Z</time></trkpt><trkpt lat="42.3923267" lon="12.7955383"><ele>396.20000000000005</ele><time>2026-04-25T12:52:53.109Z</time></trkpt><trkpt lat="42.3924133" lon="12.7956167"><ele>396.0</ele><time>2026-04-25T12:52:54.108Z</time></trkpt><trkpt lat="42.3925067" lon="12.7956933"><ele>396.0</ele><time>2026-04-25T12:52:55.109Z</time></trkpt><trkpt lat="42.3925983" lon="12.7957633"><ele>396.0</ele><time>2026-04-25T12:52:56.109Z</time></trkpt><trkpt lat="42.3926833" lon="12.7958283"><ele>396.0</ele><time>2026-04-25T12:52:57.109Z</time></trkpt><trkpt lat="42.3927617" lon="12.7958917"><ele>396.0</ele><time>2026-04-25T12:52:58.109Z</time></trkpt><trkpt lat="42.392835" lon="12.7959483"><ele>396.0</ele><time>2026-04-25T12:52:59.109Z</time></trkpt><trkpt lat="42.3928967" lon="12.7959933"><ele>396.0</ele><time>2026-04-25T12:53:00.107Z</time></trkpt><trkpt lat="42.392955" lon="12.796035"><ele>395.3333333333333</ele><time>2026-04-25T12:53:01.109Z</time></trkpt><trkpt lat="42.3930483" lon="12.796095"><ele>394.66666666666663</ele><time>2026-04-25T12:53:03.107Z</time></trkpt><trkpt lat="42.3931167" lon="12.7961"><ele>394.0</ele><time>2026-04-25T12:53:06.107Z</time></trkpt><trkpt lat="42.39318" lon="12.796045"><ele>393.3333333333333</ele><time>2026-04-25T12:53:08.108Z</time></trkpt><trkpt lat="42.3932367" lon="12.795935"><ele>392.66666666666663</ele><time>2026-04-25T12:53:10.11Z</time></trkpt><trkpt lat="42.3932667" lon="12.795855"><ele>392.0</ele><time>2026-04-25T12:53:11.107Z</time></trkpt><trkpt lat="42.3933033" lon="12.795765"><ele>391.99999999999994</ele><time>2026-04-25T12:53:12.108Z</time></trkpt><trkpt lat="42.3933417" lon="12.79567"><ele>392.0</ele><time>2026-04-25T12:53:13.11Z</time></trkpt><trkpt lat="42.3933783" lon="12.7955667"><ele>392.0</ele><time>2026-04-25T12:53:14.109Z</time></trkpt><trkpt lat="42.3934167" lon="12.79546"><ele>392.0</ele><time>2026-04-25T12:53:15.11Z</time></trkpt><trkpt lat="42.3934533" lon="12.7953483"><ele>391.99999999999994</ele><time>2026-04-25T12:53:16.109Z</time></trkpt><trkpt lat="42.3934883" lon="12.7952333"><ele>392.0</ele><time>2026-04-25T12:53:17.109Z</time></trkpt><trkpt lat="42.3935283" lon="12.7951183"><ele>392.6</ele><time>2026-04-25T12:53:18.109Z</time></trkpt><trkpt lat="42.3935683" lon="12.7950017"><ele>393.20000000000005</ele><time>2026-04-25T12:53:19.108Z</time></trkpt><trkpt lat="42.3936117" lon="12.79488"><ele>393.8</ele><time>2026-04-25T12:53:20.108Z</time></trkpt><trkpt lat="42.3936517" lon="12.794755"><ele>394.4</ele><time>2026-04-25T12:53:21.109Z</time></trkpt><trkpt lat="42.3936917" lon="12.7946267"><ele>395.0</ele><time>2026-04-25T12:53:22.109Z</time></trkpt><trkpt lat="42.3937333" lon="12.7944967"><ele>395.0</ele><time>2026-04-25T12:53:23.109Z</time></trkpt><trkpt lat="42.3937717" lon="12.79436"><ele>395.0</ele><time>2026-04-25T12:53:24.108Z</time></trkpt><trkpt lat="42.3938" lon="12.7942183"><ele>395.0</ele><time>2026-04-25T12:53:25.109Z</time></trkpt><trkpt lat="42.393815" lon="12.7940717"><ele>395.0</ele><time>2026-04-25T12:53:26.108Z</time></trkpt><trkpt lat="42.39382" lon="12.79392"><ele>395.0</ele><time>2026-04-25T12:53:27.109Z</time></trkpt><trkpt lat="42.3938083" lon="12.793755"><ele>395.0</ele><time>2026-04-25T12:53:28.109Z</time></trkpt><trkpt lat="42.3937917" lon="12.7935833"><ele>395.0</ele><time>2026-04-25T12:53:29.109Z</time></trkpt><trkpt lat="42.3937733" lon="12.79341"><ele>395.0</ele><time>2026-04-25T12:53:30.107Z</time></trkpt><trkpt lat="42.393755" lon="12.7932367"><ele>395.0</ele><time>2026-04-25T12:53:31.109Z</time></trkpt><trkpt lat="42.3937333" lon="12.7930633"><ele>395.0</ele><time>2026-04-25T12:53:32.108Z</time></trkpt><trkpt lat="42.3937117" lon="12.79289"><ele>395.0</ele><time>2026-04-25T12:53:33.111Z</time></trkpt><trkpt lat="42.3936917" lon="12.7927217"><ele>395.0</ele><time>2026-04-25T12:53:34.109Z</time></trkpt><trkpt lat="42.3936783" lon="12.79256"><ele>395.0</ele><time>2026-04-25T12:53:35.108Z</time></trkpt><trkpt lat="42.393665" lon="12.792405"><ele>395.0</ele><time>2026-04-25T12:53:36.108Z</time></trkpt><trkpt lat="42.3936467" lon="12.79225"><ele>395.0</ele><time>2026-04-25T12:53:37.109Z</time></trkpt><trkpt lat="42.3936267" lon="12.7920983"><ele>395.0</ele><time>2026-04-25T12:53:38.109Z</time></trkpt><trkpt lat="42.3936067" lon="12.7919483"><ele>395.0</ele><time>2026-04-25T12:53:39.108Z</time></trkpt><trkpt lat="42.3935883" lon="12.7917967"><ele>394.5</ele><time>2026-04-25T12:53:40.11Z</time></trkpt><trkpt lat="42.3935683" lon="12.7916383"><ele>394.0</ele><time>2026-04-25T12:53:41.108Z</time></trkpt><trkpt lat="42.39355" lon="12.7914833"><ele>393.5</ele><time>2026-04-25T12:53:42.108Z</time></trkpt><trkpt lat="42.39353" lon="12.7913367"><ele>393.0</ele><time>2026-04-25T12:53:43.111Z</time></trkpt><trkpt lat="42.39351" lon="12.791195"><ele>393.0</ele><time>2026-04-25T12:53:44.108Z</time></trkpt><trkpt lat="42.3934883" lon="12.7910567"><ele>393.0</ele><time>2026-04-25T12:53:45.11Z</time></trkpt><trkpt lat="42.39347" lon="12.7909183"><ele>393.0</ele><time>2026-04-25T12:53:46.111Z</time></trkpt><trkpt lat="42.393455" lon="12.7907783"><ele>393.0</ele><time>2026-04-25T12:53:47.109Z</time></trkpt><trkpt lat="42.3934383" lon="12.79064"><ele>393.0</ele><time>2026-04-25T12:53:48.107Z</time></trkpt><trkpt lat="42.393425" lon="12.7904967"><ele>393.0</ele><time>2026-04-25T12:53:49.108Z</time></trkpt><trkpt lat="42.3934167" lon="12.790355"><ele>393.0</ele><time>2026-04-25T12:53:50.108Z</time></trkpt><trkpt lat="42.3934133" lon="12.7902217"><ele>393.0</ele><time>2026-04-25T12:53:51.111Z</time></trkpt><trkpt lat="42.39341" lon="12.7901017"><ele>393.0</ele><time>2026-04-25T12:53:52.108Z</time></trkpt><trkpt lat="42.393405" lon="12.79"><ele>393.0</ele><time>2026-04-25T12:53:53.108Z</time></trkpt><trkpt lat="42.3933683" lon="12.7898617"><ele>392.8333333333333</ele><time>2026-04-25T12:53:55.11Z</time></trkpt><trkpt lat="42.3933183" lon="12.789785"><ele>392.66666666666663</ele><time>2026-04-25T12:53:57.109Z</time></trkpt><trkpt lat="42.3933083" lon="12.7896817"><ele>392.5</ele><time>2026-04-25T12:59:21.108Z</time></trkpt><trkpt lat="42.393385" lon="12.7896183"><ele>392.3333333333333</ele><time>2026-04-25T12:59:24.106Z</time></trkpt><trkpt lat="42.3934333" lon="12.7895017"><ele>392.16666666666663</ele><time>2026-04-25T12:59:26.11Z</time></trkpt><trkpt lat="42.3934417" lon="12.789405"><ele>392.0</ele><time>2026-04-25T12:59:27.109Z</time></trkpt><trkpt lat="42.3934483" lon="12.7892917"><ele>393.0</ele><time>2026-04-25T12:59:28.11Z</time></trkpt><trkpt lat="42.3934567" lon="12.789165"><ele>394.0</ele><time>2026-04-25T12:59:29.109Z</time></trkpt><trkpt lat="42.393465" lon="12.78903"><ele>395.0</ele><time>2026-04-25T12:59:30.109Z</time></trkpt><trkpt lat="42.393475" lon="12.7888967"><ele>396.0</ele><time>2026-04-25T12:59:31.109Z</time></trkpt><trkpt lat="42.393485" lon="12.7887683"><ele>397.0</ele><time>2026-04-25T12:59:32.109Z</time></trkpt><trkpt lat="42.3934983" lon="12.788635"><ele>398.40000000000003</ele><time>2026-04-25T12:59:33.108Z</time></trkpt><trkpt lat="42.39351" lon="12.7885017"><ele>399.8</ele><time>2026-04-25T12:59:34.109Z</time></trkpt><trkpt lat="42.3935167" lon="12.788365"><ele>401.2</ele><time>2026-04-25T12:59:35.107Z</time></trkpt><trkpt lat="42.3935117" lon="12.7882233"><ele>402.6</ele><time>2026-04-25T12:59:36.109Z</time></trkpt><trkpt lat="42.39349" lon="12.7880833"><ele>404.0</ele><time>2026-04-25T12:59:37.107Z</time></trkpt><trkpt lat="42.3934483" lon="12.78795"><ele>404.0</ele><time>2026-04-25T12:59:38.108Z</time></trkpt><trkpt lat="42.3933867" lon="12.787825"><ele>404.0</ele><time>2026-04-25T12:59:39.109Z</time></trkpt><trkpt lat="42.3933133" lon="12.7877083"><ele>404.0</ele><time>2026-04-25T12:59:40.107Z</time></trkpt><trkpt lat="42.3932367" lon="12.7876"><ele>404.0</ele><time>2026-04-25T12:59:41.106Z</time></trkpt><trkpt lat="42.3931583" lon="12.7874933"><ele>404.0</ele><time>2026-04-25T12:59:42.108Z</time></trkpt><trkpt lat="42.3930833" lon="12.7873867"><ele>404.0</ele><time>2026-04-25T12:59:43.11Z</time></trkpt><trkpt lat="42.3930083" lon="12.7872817"><ele>404.0</ele><time>2026-04-25T12:59:44.11Z</time></trkpt><trkpt lat="42.3929367" lon="12.78718"><ele>404.0</ele><time>2026-04-25T12:59:45.109Z</time></trkpt><trkpt lat="42.392865" lon="12.7870783"><ele>404.0</ele><time>2026-04-25T12:59:46.107Z</time></trkpt><trkpt lat="42.3927983" lon="12.7869683"><ele>404.0</ele><time>2026-04-25T12:59:47.108Z</time></trkpt><trkpt lat="42.3927367" lon="12.7868417"><ele>404.0</ele><time>2026-04-25T12:59:48.106Z</time></trkpt><trkpt lat="42.39269" lon="12.786705"><ele>404.0</ele><time>2026-04-25T12:59:49.107Z</time></trkpt><trkpt lat="42.3926617" lon="12.78656"><ele>404.0</ele><time>2026-04-25T12:59:50.107Z</time></trkpt><trkpt lat="42.3926467" lon="12.7864217"><ele>404.0</ele><time>2026-04-25T12:59:51.108Z</time></trkpt><trkpt lat="42.3926417" lon="12.7862983"><ele>404.0</ele><time>2026-04-25T12:59:52.108Z</time></trkpt><trkpt lat="42.3926433" lon="12.7861867"><ele>403.99999999999994</ele><time>2026-04-25T12:59:53.107Z</time></trkpt><trkpt lat="42.39265" lon="12.7860833"><ele>404.0</ele><time>2026-04-25T12:59:54.109Z</time></trkpt><trkpt lat="42.392665" lon="12.78598"><ele>404.0</ele><time>2026-04-25T12:59:55.107Z</time></trkpt><trkpt lat="42.3926883" lon="12.78587"><ele>404.0</ele><time>2026-04-25T12:59:56.108Z</time></trkpt><trkpt lat="42.3927167" lon="12.7857567"><ele>403.99999999999994</ele><time>2026-04-25T12:59:57.111Z</time></trkpt><trkpt lat="42.3927517" lon="12.7856433"><ele>404.0</ele><time>2026-04-25T12:59:58.111Z</time></trkpt><trkpt lat="42.392795" lon="12.7855267"><ele>404.4</ele><time>2026-04-25T12:59:59.108Z</time></trkpt><trkpt lat="42.392845" lon="12.7854117"><ele>404.79999999999995</ele><time>2026-04-25T13:00:00.109Z</time></trkpt><trkpt lat="42.3929033" lon="12.7852983"><ele>405.20000000000005</ele><time>2026-04-25T13:00:01.109Z</time></trkpt><trkpt lat="42.3929633" lon="12.7851883"><ele>405.6</ele><time>2026-04-25T13:00:02.108Z</time></trkpt><trkpt lat="42.393025" lon="12.7850817"><ele>406.0</ele><time>2026-04-25T13:00:03.108Z</time></trkpt><trkpt lat="42.393085" lon="12.7849767"><ele>404.1666666666667</ele><time>2026-04-25T13:00:04.11Z</time></trkpt><trkpt lat="42.393145" lon="12.7848767"><ele>402.33333333333337</ele><time>2026-04-25T13:00:05.108Z</time></trkpt><trkpt lat="42.3931983" lon="12.7847867"><ele>400.5</ele><time>2026-04-25T13:00:06.111Z</time></trkpt><trkpt lat="42.3932483" lon="12.7847033"><ele>398.66666666666663</ele><time>2026-04-25T13:00:07.108Z</time></trkpt><trkpt lat="42.393295" lon="12.7846283"><ele>396.8333333333333</ele><time>2026-04-25T13:00:08.107Z</time></trkpt><trkpt lat="42.3933433" lon="12.78455"><ele>395.0</ele><time>2026-04-25T13:00:09.108Z</time></trkpt><trkpt lat="42.3933917" lon="12.7844733"><ele>394.99999999999994</ele><time>2026-04-25T13:00:10.107Z</time></trkpt><trkpt lat="42.3934367" lon="12.7844017"><ele>395.0</ele><time>2026-04-25T13:00:11.108Z</time></trkpt><trkpt lat="42.39348" lon="12.78433"><ele>395.0</ele><time>2026-04-25T13:00:12.107Z</time></trkpt><trkpt lat="42.393525" lon="12.7842583"><ele>395.0</ele><time>2026-04-25T13:00:13.106Z</time></trkpt><trkpt lat="42.3935917" lon="12.784145"><ele>394.99999999999994</ele><time>2026-04-25T13:00:15.108Z</time></trkpt><trkpt lat="42.393645" lon="12.7840517"><ele>395.0</ele><time>2026-04-25T13:00:18.106Z</time></trkpt><trkpt lat="42.3937067" lon="12.7839517"><ele>394.99999999999994</ele><time>2026-04-25T13:00:21.108Z</time></trkpt><trkpt lat="42.3937683" lon="12.7838433"><ele>395.0</ele><time>2026-04-25T13:00:23.108Z</time></trkpt><trkpt lat="42.39381" lon="12.7837783"><ele>395.0</ele><time>2026-04-25T13:00:24.108Z</time></trkpt><trkpt lat="42.393855" lon="12.7837117"><ele>395.0</ele><time>2026-04-25T13:00:25.106Z</time></trkpt><trkpt lat="42.3939267" lon="12.7836"><ele>394.99999999999994</ele><time>2026-04-25T13:00:27.107Z</time></trkpt><trkpt lat="42.393945" lon="12.7834883"><ele>395.0</ele><time>2026-04-25T13:00:29.108Z</time></trkpt><trkpt lat="42.3939133" lon="12.783395"><ele>396.0</ele><time>2026-04-25T13:00:31.109Z</time></trkpt><trkpt lat="42.3938583" lon="12.7833267"><ele>397.0</ele><time>2026-04-25T13:00:33.108Z</time></trkpt><trkpt lat="42.3937767" lon="12.783255"><ele>398.0</ele><time>2026-04-25T13:00:35.107Z</time></trkpt><trkpt lat="42.3936683" lon="12.783155"><ele>399.0</ele><time>2026-04-25T13:00:37.108Z</time></trkpt><trkpt lat="42.3936067" lon="12.78309"><ele>400.0</ele><time>2026-04-25T13:00:38.109Z</time></trkpt><trkpt lat="42.3935417" lon="12.7830183"><ele>400.00000000000006</ele><time>2026-04-25T13:00:39.11Z</time></trkpt><trkpt lat="42.3934783" lon="12.78294"><ele>400.0</ele><time>2026-04-25T13:00:40.108Z</time></trkpt><trkpt lat="42.393415" lon="12.78286"><ele>400.0</ele><time>2026-04-25T13:00:41.11Z</time></trkpt><trkpt lat="42.3933517" lon="12.7827783"><ele>400.0</ele><time>2026-04-25T13:00:42.11Z</time></trkpt><trkpt lat="42.39329" lon="12.7826883"><ele>400.00000000000006</ele><time>2026-04-25T13:00:43.109Z</time></trkpt><trkpt lat="42.39323" lon="12.7825833"><ele>400.0</ele><time>2026-04-25T13:00:44.109Z</time></trkpt><trkpt lat="42.3931833" lon="12.78246"><ele>401.4</ele><time>2026-04-25T13:00:45.109Z</time></trkpt><trkpt lat="42.3931483" lon="12.782325"><ele>402.8</ele><time>2026-04-25T13:00:46.107Z</time></trkpt><trkpt lat="42.3931233" lon="12.782185"><ele>404.20000000000005</ele><time>2026-04-25T13:00:47.109Z</time></trkpt><trkpt lat="42.3931133" lon="12.7820433"><ele>405.6</ele><time>2026-04-25T13:00:48.106Z</time></trkpt><trkpt lat="42.39311" lon="12.7819017"><ele>407.0</ele><time>2026-04-25T13:00:49.108Z</time></trkpt><trkpt lat="42.3931067" lon="12.781765"><ele>407.8</ele><time>2026-04-25T13:00:50.109Z</time></trkpt><trkpt lat="42.3931067" lon="12.7816283"><ele>408.6</ele><time>2026-04-25T13:00:51.108Z</time></trkpt><trkpt lat="42.3931067" lon="12.7814967"><ele>409.40000000000003</ele><time>2026-04-25T13:00:52.107Z</time></trkpt><trkpt lat="42.393105" lon="12.7813617"><ele>410.20000000000005</ele><time>2026-04-25T13:00:53.108Z</time></trkpt><trkpt lat="42.3931017" lon="12.7812233"><ele>411.0</ele><time>2026-04-25T13:00:54.107Z</time></trkpt><trkpt lat="42.3930983" lon="12.781085"><ele>411.6</ele><time>2026-04-25T13:00:55.106Z</time></trkpt><trkpt lat="42.3930933" lon="12.780945"><ele>412.20000000000005</ele><time>2026-04-25T13:00:56.109Z</time></trkpt><trkpt lat="42.39309" lon="12.7808083"><ele>412.79999999999995</ele><time>2026-04-25T13:00:57.11Z</time></trkpt><trkpt lat="42.393085" lon="12.780675"><ele>413.4</ele><time>2026-04-25T13:00:58.106Z</time></trkpt><trkpt lat="42.3930783" lon="12.78054"><ele>414.0</ele><time>2026-04-25T13:00:59.108Z</time></trkpt><trkpt lat="42.3930733" lon="12.7804083"><ele>414.0</ele><time>2026-04-25T13:01:00.107Z</time></trkpt><trkpt lat="42.3930633" lon="12.7802783"><ele>414.0</ele><time>2026-04-25T13:01:01.109Z</time></trkpt><trkpt lat="42.3930483" lon="12.7801533"><ele>414.0</ele><time>2026-04-25T13:01:02.107Z</time></trkpt><trkpt lat="42.3930283" lon="12.7800317"><ele>414.0</ele><time>2026-04-25T13:01:03.109Z</time></trkpt><trkpt lat="42.3930067" lon="12.779915"><ele>414.0</ele><time>2026-04-25T13:01:04.108Z</time></trkpt><trkpt lat="42.3929767" lon="12.7798"><ele>411.79999999999995</ele><time>2026-04-25T13:01:05.108Z</time></trkpt><trkpt lat="42.3929367" lon="12.7796917"><ele>409.59999999999997</ele><time>2026-04-25T13:01:06.107Z</time></trkpt><trkpt lat="42.3928833" lon="12.7795883"><ele>407.4</ele><time>2026-04-25T13:01:07.108Z</time></trkpt><trkpt lat="42.392815" lon="12.7794983"><ele>405.2</ele><time>2026-04-25T13:01:08.108Z</time></trkpt><trkpt lat="42.392735" lon="12.7794217"><ele>403.0</ele><time>2026-04-25T13:01:09.11Z</time></trkpt><trkpt lat="42.392645" lon="12.7793567"><ele>405.75</ele><time>2026-04-25T13:01:10.108Z</time></trkpt><trkpt lat="42.3925517" lon="12.7792967"><ele>408.5</ele><time>2026-04-25T13:01:11.108Z</time></trkpt><trkpt lat="42.392455" lon="12.779225"><ele>411.25</ele><time>2026-04-25T13:01:12.107Z</time></trkpt><trkpt lat="42.3923583" lon="12.7791317"><ele>414.0</ele><time>2026-04-25T13:01:13.109Z</time></trkpt><trkpt lat="42.392265" lon="12.7790217"><ele>412.0</ele><time>2026-04-25T13:01:14.109Z</time></trkpt><trkpt lat="42.3921683" lon="12.77891"><ele>410.0</ele><time>2026-04-25T13:01:15.107Z</time></trkpt><trkpt lat="42.3920683" lon="12.7788117"><ele>408.0</ele><time>2026-04-25T13:01:16.11Z</time></trkpt><trkpt lat="42.3919633" lon="12.7787167"><ele>406.0</ele><time>2026-04-25T13:01:17.109Z</time></trkpt><trkpt lat="42.39187" lon="12.7786317"><ele>406.0</ele><time>2026-04-25T13:01:18.109Z</time></trkpt><trkpt lat="42.3917917" lon="12.77853"><ele>406.0</ele><time>2026-04-25T13:01:19.106Z</time></trkpt><trkpt lat="42.3917283" lon="12.7784033"><ele>406.0</ele><time>2026-04-25T13:01:20.108Z</time></trkpt><trkpt lat="42.391675" lon="12.7782567"><ele>406.0</ele><time>2026-04-25T13:01:21.107Z</time></trkpt><trkpt lat="42.3916267" lon="12.7780967"><ele>409.25</ele><time>2026-04-25T13:01:22.107Z</time></trkpt><trkpt lat="42.3915817" lon="12.7779367"><ele>412.5</ele><time>2026-04-25T13:01:23.107Z</time></trkpt><trkpt lat="42.39154" lon="12.7777767"><ele>415.75</ele><time>2026-04-25T13:01:24.106Z</time></trkpt><trkpt lat="42.3915" lon="12.77762"><ele>419.0</ele><time>2026-04-25T13:01:25.108Z</time></trkpt><trkpt lat="42.3914717" lon="12.7774667"><ele>421.0</ele><time>2026-04-25T13:01:26.107Z</time></trkpt><trkpt lat="42.3914583" lon="12.77732"><ele>423.0</ele><time>2026-04-25T13:01:27.11Z</time></trkpt><trkpt lat="42.391465" lon="12.7771767"><ele>425.0</ele><time>2026-04-25T13:01:28.107Z</time></trkpt><trkpt lat="42.3914983" lon="12.777035"><ele>427.0</ele><time>2026-04-25T13:01:29.109Z</time></trkpt><trkpt lat="42.3915517" lon="12.7769"><ele>429.0</ele><time>2026-04-25T13:01:30.108Z</time></trkpt><trkpt lat="42.3916117" lon="12.7767733"><ele>429.6</ele><time>2026-04-25T13:01:31.108Z</time></trkpt><trkpt lat="42.391675" lon="12.77666"><ele>430.2</ele><time>2026-04-25T13:01:32.109Z</time></trkpt><trkpt lat="42.39174" lon="12.7765533"><ele>430.80000000000007</ele><time>2026-04-25T13:01:33.108Z</time></trkpt><trkpt lat="42.3918" lon="12.7764467"><ele>431.40000000000003</ele><time>2026-04-25T13:01:34.108Z</time></trkpt><trkpt lat="42.3918467" lon="12.7763367"><ele>432.0</ele><time>2026-04-25T13:01:35.108Z</time></trkpt><trkpt lat="42.3918717" lon="12.776225"><ele>432.0</ele><time>2026-04-25T13:01:36.108Z</time></trkpt><trkpt lat="42.3918733" lon="12.7761183"><ele>432.00000000000006</ele><time>2026-04-25T13:01:37.108Z</time></trkpt><trkpt lat="42.3918517" lon="12.7760167"><ele>432.00000000000006</ele><time>2026-04-25T13:01:38.108Z</time></trkpt><trkpt lat="42.391795" lon="12.7759367"><ele>432.0</ele><time>2026-04-25T13:01:39.109Z</time></trkpt><trkpt lat="42.3916967" lon="12.775905"><ele>432.0</ele><time>2026-04-25T13:01:40.109Z</time></trkpt><trkpt lat="42.391585" lon="12.7759067"><ele>436.5</ele><time>2026-04-25T13:01:41.108Z</time></trkpt><trkpt lat="42.391465" lon="12.7759217"><ele>441.0</ele><time>2026-04-25T13:01:42.109Z</time></trkpt><trkpt lat="42.391345" lon="12.775935"><ele>445.5</ele><time>2026-04-25T13:01:43.108Z</time></trkpt><trkpt lat="42.3912183" lon="12.7759483"><ele>450.0</ele><time>2026-04-25T13:01:44.107Z</time></trkpt><trkpt lat="42.391095" lon="12.77596"><ele>450.0</ele><time>2026-04-25T13:01:45.109Z</time></trkpt><trkpt lat="42.390975" lon="12.77596"><ele>450.0</ele><time>2026-04-25T13:01:46.107Z</time></trkpt><trkpt lat="42.3908667" lon="12.77596"><ele>450.0</ele><time>2026-04-25T13:01:47.108Z</time></trkpt><trkpt lat="42.39077" lon="12.7759483"><ele>450.0</ele><time>2026-04-25T13:01:48.107Z</time></trkpt><trkpt lat="42.3906767" lon="12.7759217"><ele>450.0</ele><time>2026-04-25T13:01:49.108Z</time></trkpt><trkpt lat="42.3905917" lon="12.7758667"><ele>450.0</ele><time>2026-04-25T13:01:50.108Z</time></trkpt><trkpt lat="42.39052" lon="12.775775"><ele>450.0</ele><time>2026-04-25T13:01:51.108Z</time></trkpt><trkpt lat="42.3904683" lon="12.7756483"><ele>450.0</ele><time>2026-04-25T13:01:52.108Z</time></trkpt><trkpt lat="42.3904333" lon="12.7755217"><ele>450.0</ele><time>2026-04-25T13:01:53.108Z</time></trkpt><trkpt lat="42.390425" lon="12.7753833"><ele>450.0</ele><time>2026-04-25T13:01:54.109Z</time></trkpt><trkpt lat="42.3904267" lon="12.7752433"><ele>449.8</ele><time>2026-04-25T13:01:55.106Z</time></trkpt><trkpt lat="42.3904317" lon="12.7751"><ele>449.6</ele><time>2026-04-25T13:01:56.107Z</time></trkpt><trkpt lat="42.3904483" lon="12.774955"><ele>449.4</ele><time>2026-04-25T13:01:57.107Z</time></trkpt><trkpt lat="42.3904783" lon="12.7748167"><ele>449.2</ele><time>2026-04-25T13:01:58.107Z</time></trkpt><trkpt lat="42.3905183" lon="12.7746883"><ele>449.0</ele><time>2026-04-25T13:01:59.107Z</time></trkpt><trkpt lat="42.3905683" lon="12.7745683"><ele>453.0</ele><time>2026-04-25T13:02:00.109Z</time></trkpt><trkpt lat="42.3906167" lon="12.77445"><ele>457.0</ele><time>2026-04-25T13:02:01.109Z</time></trkpt><trkpt lat="42.39065" lon="12.7743283"><ele>461.0</ele><time>2026-04-25T13:02:02.108Z</time></trkpt><trkpt lat="42.3906667" lon="12.774205"><ele>465.0</ele><time>2026-04-25T13:02:03.11Z</time></trkpt><trkpt lat="42.39066" lon="12.7740867"><ele>469.0</ele><time>2026-04-25T13:02:04.109Z</time></trkpt><trkpt lat="42.3906333" lon="12.7739833"><ele>468.6666666666667</ele><time>2026-04-25T13:02:05.108Z</time></trkpt><trkpt lat="42.390595" lon="12.7739"><ele>468.33333333333337</ele><time>2026-04-25T13:02:06.106Z</time></trkpt><trkpt lat="42.3905383" lon="12.773835"><ele>468.0</ele><time>2026-04-25T13:02:07.109Z</time></trkpt><trkpt lat="42.3904583" lon="12.7738"><ele>467.66666666666663</ele><time>2026-04-25T13:02:08.108Z</time></trkpt><trkpt lat="42.3903617" lon="12.7737983"><ele>467.3333333333333</ele><time>2026-04-25T13:02:09.108Z</time></trkpt><trkpt lat="42.39025" lon="12.7738333"><ele>467.0</ele><time>2026-04-25T13:02:10.107Z</time></trkpt><trkpt lat="42.3901317" lon="12.773875"><ele>467.0</ele><time>2026-04-25T13:02:11.106Z</time></trkpt><trkpt lat="42.390015" lon="12.773915"><ele>467.0</ele><time>2026-04-25T13:02:12.108Z</time></trkpt><trkpt lat="42.3898933" lon="12.7739567"><ele>467.0</ele><time>2026-04-25T13:02:13.109Z</time></trkpt><trkpt lat="42.38977" lon="12.7740033"><ele>467.0</ele><time>2026-04-25T13:02:14.107Z</time></trkpt><trkpt lat="42.389655" lon="12.774065"><ele>465.25</ele><time>2026-04-25T13:02:15.109Z</time></trkpt><trkpt lat="42.3895517" lon="12.774145"><ele>463.5</ele><time>2026-04-25T13:02:16.107Z</time></trkpt><trkpt lat="42.3894617" lon="12.7742467"><ele>461.75</ele><time>2026-04-25T13:02:17.109Z</time></trkpt><trkpt lat="42.3893817" lon="12.7743517"><ele>460.0</ele><time>2026-04-25T13:02:18.109Z</time></trkpt><trkpt lat="42.3893017" lon="12.7744467"><ele>460.0</ele><time>2026-04-25T13:02:19.107Z</time></trkpt><trkpt lat="42.3892117" lon="12.7745217"><ele>460.0</ele><time>2026-04-25T13:02:20.107Z</time></trkpt><trkpt lat="42.3891083" lon="12.77456"><ele>460.0</ele><time>2026-04-25T13:02:21.106Z</time></trkpt><trkpt lat="42.3890117" lon="12.7745517"><ele>460.0</ele><time>2026-04-25T13:02:22.106Z</time></trkpt><trkpt lat="42.3889183" lon="12.7745"><ele>460.0</ele><time>2026-04-25T13:02:23.106Z</time></trkpt><trkpt lat="42.3888233" lon="12.774405"><ele>462.75</ele><time>2026-04-25T13:02:24.11Z</time></trkpt><trkpt lat="42.3887283" lon="12.7743067"><ele>465.5</ele><time>2026-04-25T13:02:25.108Z</time></trkpt><trkpt lat="42.388635" lon="12.7742067"><ele>468.25</ele><time>2026-04-25T13:02:26.109Z</time></trkpt><trkpt lat="42.3885517" lon="12.774095"><ele>471.0</ele><time>2026-04-25T13:02:27.108Z</time></trkpt><trkpt lat="42.3884933" lon="12.7739683"><ele>471.0</ele><time>2026-04-25T13:02:28.107Z</time></trkpt><trkpt lat="42.3884533" lon="12.773825"><ele>471.0</ele><time>2026-04-25T13:02:29.107Z</time></trkpt><trkpt lat="42.3884383" lon="12.7736667"><ele>471.0</ele><time>2026-04-25T13:02:30.109Z</time></trkpt><trkpt lat="42.3884533" lon="12.7735033"><ele>471.0</ele><time>2026-04-25T13:02:31.109Z</time></trkpt><trkpt lat="42.38848" lon="12.7733383"><ele>473.6</ele><time>2026-04-25T13:02:32.108Z</time></trkpt><trkpt lat="42.3885033" lon="12.7731767"><ele>476.20000000000005</ele><time>2026-04-25T13:02:33.11Z</time></trkpt><trkpt lat="42.388515" lon="12.7730217"><ele>478.79999999999995</ele><time>2026-04-25T13:02:34.107Z</time></trkpt><trkpt lat="42.3885167" lon="12.772875"><ele>481.4</ele><time>2026-04-25T13:02:35.108Z</time></trkpt><trkpt lat="42.3885167" lon="12.7727383"><ele>484.0</ele><time>2026-04-25T13:02:36.107Z</time></trkpt><trkpt lat="42.388515" lon="12.772615"><ele>486.6666666666667</ele><time>2026-04-25T13:02:37.107Z</time></trkpt><trkpt lat="42.38852" lon="12.7725067"><ele>489.33333333333337</ele><time>2026-04-25T13:02:38.107Z</time></trkpt><trkpt lat="42.388525" lon="12.77241"><ele>492.0</ele><time>2026-04-25T13:02:39.108Z</time></trkpt><trkpt lat="42.3885367" lon="12.7722633"><ele>494.66666666666663</ele><time>2026-04-25T13:02:41.108Z</time></trkpt><trkpt lat="42.3885633" lon="12.77217"><ele>497.3333333333333</ele><time>2026-04-25T13:02:43.107Z</time></trkpt><trkpt lat="42.3885567" lon="12.7720683"><ele>500.0</ele><time>2026-04-25T13:02:46.107Z</time></trkpt><trkpt lat="42.3885" lon="12.7720067"><ele>500.0</ele><time>2026-04-25T13:02:48.107Z</time></trkpt><trkpt lat="42.38838" lon="12.7720233"><ele>500.0</ele><time>2026-04-25T13:02:50.108Z</time></trkpt><trkpt lat="42.38831" lon="12.7720717"><ele>500.0</ele><time>2026-04-25T13:02:51.107Z</time></trkpt><trkpt lat="42.3882333" lon="12.7721383"><ele>500.0</ele><time>2026-04-25T13:02:52.108Z</time></trkpt><trkpt lat="42.38815" lon="12.77221"><ele>500.0</ele><time>2026-04-25T13:02:53.108Z</time></trkpt><trkpt lat="42.3880583" lon="12.772285"><ele>498.6</ele><time>2026-04-25T13:02:54.107Z</time></trkpt><trkpt lat="42.38796" lon="12.7723383"><ele>497.2</ele><time>2026-04-25T13:02:55.107Z</time></trkpt><trkpt lat="42.3878567" lon="12.77237"><ele>495.79999999999995</ele><time>2026-04-25T13:02:56.106Z</time></trkpt><trkpt lat="42.387755" lon="12.772365"><ele>494.4</ele><time>2026-04-25T13:02:57.109Z</time></trkpt><trkpt lat="42.3876533" lon="12.7723283"><ele>493.0</ele><time>2026-04-25T13:02:58.109Z</time></trkpt><trkpt lat="42.3875567" lon="12.7722567"><ele>493.0</ele><time>2026-04-25T13:02:59.106Z</time></trkpt><trkpt lat="42.3874633" lon="12.7721517"><ele>493.0</ele><time>2026-04-25T13:03:00.109Z</time></trkpt><trkpt lat="42.3873817" lon="12.77203"><ele>493.0</ele><time>2026-04-25T13:03:01.109Z</time></trkpt><trkpt lat="42.3873183" lon="12.7718917"><ele>493.0</ele><time>2026-04-25T13:03:02.108Z</time></trkpt><trkpt lat="42.387275" lon="12.77174"><ele>497.0</ele><time>2026-04-25T13:03:03.107Z</time></trkpt><trkpt lat="42.3872467" lon="12.7715867"><ele>501.0</ele><time>2026-04-25T13:03:04.11Z</time></trkpt><trkpt lat="42.3872283" lon="12.7714317"><ele>505.0</ele><time>2026-04-25T13:03:05.109Z</time></trkpt><trkpt lat="42.3872133" lon="12.7712733"><ele>509.0</ele><time>2026-04-25T13:03:06.109Z</time></trkpt><trkpt lat="42.3872017" lon="12.771115"><ele>507.6</ele><time>2026-04-25T13:03:07.11Z</time></trkpt><trkpt lat="42.387195" lon="12.77097"><ele>506.2</ele><time>2026-04-25T13:03:08.11Z</time></trkpt><trkpt lat="42.3871883" lon="12.7708367"><ele>504.80000000000007</ele><time>2026-04-25T13:03:09.109Z</time></trkpt><trkpt lat="42.3871833" lon="12.7707067"><ele>503.40000000000003</ele><time>2026-04-25T13:03:10.11Z</time></trkpt><trkpt lat="42.38717" lon="12.7705717"><ele>502.0</ele><time>2026-04-25T13:03:11.109Z</time></trkpt><trkpt lat="42.387145" lon="12.770435"><ele>502.0</ele><time>2026-04-25T13:03:12.109Z</time></trkpt><trkpt lat="42.387105" lon="12.7702967"><ele>502.00000000000006</ele><time>2026-04-25T13:03:13.108Z</time></trkpt><trkpt lat="42.387055" lon="12.770165"><ele>502.00000000000006</ele><time>2026-04-25T13:03:14.108Z</time></trkpt><trkpt lat="42.3869883" lon="12.7700467"><ele>502.0</ele><time>2026-04-25T13:03:15.109Z</time></trkpt><trkpt lat="42.3869083" lon="12.769945"><ele>502.0</ele><time>2026-04-25T13:03:16.109Z</time></trkpt><trkpt lat="42.386815" lon="12.76986"><ele>505.0</ele><time>2026-04-25T13:03:17.109Z</time></trkpt><trkpt lat="42.3867183" lon="12.7697783"><ele>508.0</ele><time>2026-04-25T13:03:18.108Z</time></trkpt><trkpt lat="42.3866233" lon="12.76969"><ele>511.0</ele><time>2026-04-25T13:03:19.106Z</time></trkpt><trkpt lat="42.386535" lon="12.7695883"><ele>514.0</ele><time>2026-04-25T13:03:20.109Z</time></trkpt><trkpt lat="42.38645" lon="12.7694817"><ele>514.0</ele><time>2026-04-25T13:03:21.108Z</time></trkpt><trkpt lat="42.3863633" lon="12.7693783"><ele>514.0</ele><time>2026-04-25T13:03:22.108Z</time></trkpt><trkpt lat="42.3862717" lon="12.7692767"><ele>514.0</ele><time>2026-04-25T13:03:23.109Z</time></trkpt><trkpt lat="42.3861733" lon="12.7691883"><ele>514.0</ele><time>2026-04-25T13:03:24.111Z</time></trkpt><trkpt lat="42.38607" lon="12.7691067"><ele>515.5</ele><time>2026-04-25T13:03:25.11Z</time></trkpt><trkpt lat="42.385965" lon="12.769035"><ele>517.0</ele><time>2026-04-25T13:03:26.108Z</time></trkpt><trkpt lat="42.3858583" lon="12.7689667"><ele>518.5</ele><time>2026-04-25T13:03:27.109Z</time></trkpt><trkpt lat="42.3857533" lon="12.7689017"><ele>520.0</ele><time>2026-04-25T13:03:28.109Z</time></trkpt><trkpt lat="42.3856483" lon="12.7688283"><ele>520.0</ele><time>2026-04-25T13:03:29.109Z</time></trkpt><trkpt lat="42.3855483" lon="12.7687483"><ele>520.0</ele><time>2026-04-25T13:03:30.108Z</time></trkpt><trkpt lat="42.3854567" lon="12.7686617"><ele>520.0</ele><time>2026-04-25T13:03:31.108Z</time></trkpt><trkpt lat="42.3853667" lon="12.76857"><ele>520.0</ele><time>2026-04-25T13:03:32.108Z</time></trkpt><trkpt lat="42.3852717" lon="12.7684767"><ele>523.25</ele><time>2026-04-25T13:03:33.108Z</time></trkpt><trkpt lat="42.3851667" lon="12.768395"><ele>526.5</ele><time>2026-04-25T13:03:34.107Z</time></trkpt><trkpt lat="42.3850567" lon="12.76832"><ele>529.75</ele><time>2026-04-25T13:03:35.107Z</time></trkpt><trkpt lat="42.3849433" lon="12.76826"><ele>533.0</ele><time>2026-04-25T13:03:36.107Z</time></trkpt><trkpt lat="42.3848283" lon="12.7681983"><ele>533.0</ele><time>2026-04-25T13:03:37.108Z</time></trkpt><trkpt lat="42.384715" lon="12.7681383"><ele>533.0</ele><time>2026-04-25T13:03:38.108Z</time></trkpt><trkpt lat="42.3846033" lon="12.7680683"><ele>533.0</ele><time>2026-04-25T13:03:39.108Z</time></trkpt><trkpt lat="42.3844967" lon="12.767995"><ele>533.0</ele><time>2026-04-25T13:03:40.11Z</time></trkpt><trkpt lat="42.3843933" lon="12.7679167"><ele>530.0</ele><time>2026-04-25T13:03:41.108Z</time></trkpt><trkpt lat="42.38429" lon="12.7678383"><ele>527.0</ele><time>2026-04-25T13:03:42.109Z</time></trkpt><trkpt lat="42.3841867" lon="12.76776"><ele>524.0</ele><time>2026-04-25T13:03:43.109Z</time></trkpt><trkpt lat="42.3840833" lon="12.7676833"><ele>521.0</ele><time>2026-04-25T13:03:44.108Z</time></trkpt><trkpt lat="42.3839767" lon="12.7676033"><ele>524.0</ele><time>2026-04-25T13:03:45.109Z</time></trkpt><trkpt lat="42.3838667" lon="12.7675183"><ele>527.0</ele><time>2026-04-25T13:03:46.109Z</time></trkpt><trkpt lat="42.3837583" lon="12.767425"><ele>530.0</ele><time>2026-04-25T13:03:47.107Z</time></trkpt><trkpt lat="42.38365" lon="12.76733"><ele>533.0</ele><time>2026-04-25T13:03:48.109Z</time></trkpt><trkpt lat="42.38354" lon="12.7672383"><ele>533.0</ele><time>2026-04-25T13:03:49.109Z</time></trkpt><trkpt lat="42.3834267" lon="12.767145"><ele>533.0</ele><time>2026-04-25T13:03:50.111Z</time></trkpt><trkpt lat="42.3833117" lon="12.7670533"><ele>533.0</ele><time>2026-04-25T13:03:51.109Z</time></trkpt><trkpt lat="42.3832017" lon="12.7669567"><ele>533.0</ele><time>2026-04-25T13:03:52.109Z</time></trkpt><trkpt lat="42.3831" lon="12.7668517"><ele>535.6</ele><time>2026-04-25T13:03:53.11Z</time></trkpt><trkpt lat="42.383015" lon="12.76674"><ele>538.1999999999999</ele><time>2026-04-25T13:03:54.109Z</time></trkpt><trkpt lat="42.3829517" lon="12.7666183"><ele>540.8</ele><time>2026-04-25T13:03:55.109Z</time></trkpt><trkpt lat="42.38291" lon="12.766495"><ele>543.4</ele><time>2026-04-25T13:03:56.109Z</time></trkpt><trkpt lat="42.3828817" lon="12.7663783"><ele>546.0</ele><time>2026-04-25T13:03:57.109Z</time></trkpt><trkpt lat="42.3828533" lon="12.7662733"><ele>546.0</ele><time>2026-04-25T13:03:58.109Z</time></trkpt><trkpt lat="42.38281" lon="12.7661867"><ele>546.0</ele><time>2026-04-25T13:03:59.109Z</time></trkpt><trkpt lat="42.3827367" lon="12.7661383"><ele>546.0</ele><time>2026-04-25T13:04:00.108Z</time></trkpt><trkpt lat="42.382645" lon="12.7661217"><ele>546.0</ele><time>2026-04-25T13:04:01.11Z</time></trkpt><trkpt lat="42.3825467" lon="12.7661367"><ele>546.0</ele><time>2026-04-25T13:04:02.108Z</time></trkpt><trkpt lat="42.3824367" lon="12.766175"><ele>546.0</ele><time>2026-04-25T13:04:03.108Z</time></trkpt><trkpt lat="42.382315" lon="12.7662067"><ele>546.0</ele><time>2026-04-25T13:04:04.107Z</time></trkpt><trkpt lat="42.38219" lon="12.7662233"><ele>546.0</ele><time>2026-04-25T13:04:05.108Z</time></trkpt><trkpt lat="42.3820633" lon="12.7662167"><ele>546.0</ele><time>2026-04-25T13:04:06.11Z</time></trkpt><trkpt lat="42.3819383" lon="12.7661883"><ele>544.5</ele><time>2026-04-25T13:04:07.11Z</time></trkpt><trkpt lat="42.3818133" lon="12.76614"><ele>543.0</ele><time>2026-04-25T13:04:08.111Z</time></trkpt><trkpt lat="42.38168" lon="12.7660817"><ele>541.5</ele><time>2026-04-25T13:04:09.107Z</time></trkpt><trkpt lat="42.3815433" lon="12.7660183"><ele>540.0</ele><time>2026-04-25T13:04:10.108Z</time></trkpt><trkpt lat="42.3814117" lon="12.7659517"><ele>546.75</ele><time>2026-04-25T13:04:11.107Z</time></trkpt><trkpt lat="42.3812817" lon="12.76589"><ele>553.5</ele><time>2026-04-25T13:04:12.108Z</time></trkpt><trkpt lat="42.381155" lon="12.7658317"><ele>560.25</ele><time>2026-04-25T13:04:13.109Z</time></trkpt><trkpt lat="42.3810283" lon="12.7657717"><ele>567.0</ele><time>2026-04-25T13:04:14.109Z</time></trkpt><trkpt lat="42.380905" lon="12.765715"><ele>567.0</ele><time>2026-04-25T13:04:15.109Z</time></trkpt><trkpt lat="42.380785" lon="12.76566"><ele>567.0</ele><time>2026-04-25T13:04:16.108Z</time></trkpt><trkpt lat="42.3806667" lon="12.7656033"><ele>567.0</ele><time>2026-04-25T13:04:17.108Z</time></trkpt><trkpt lat="42.38055" lon="12.7655383"><ele>567.0</ele><time>2026-04-25T13:04:18.108Z</time></trkpt><trkpt lat="42.3804367" lon="12.7654583"><ele>563.5</ele><time>2026-04-25T13:04:19.11Z</time></trkpt><trkpt lat="42.3803283" lon="12.765355"><ele>560.0</ele><time>2026-04-25T13:04:20.109Z</time></trkpt><trkpt lat="42.3802267" lon="12.7652417"><ele>556.5</ele><time>2026-04-25T13:04:21.109Z</time></trkpt><trkpt lat="42.3801267" lon="12.765125"><ele>553.0</ele><time>2026-04-25T13:04:22.109Z</time></trkpt><trkpt lat="42.380025" lon="12.7650117"><ele>552.75</ele><time>2026-04-25T13:04:23.11Z</time></trkpt><trkpt lat="42.3799233" lon="12.7649"><ele>552.5</ele><time>2026-04-25T13:04:24.109Z</time></trkpt><trkpt lat="42.3798267" lon="12.7647783"><ele>552.25</ele><time>2026-04-25T13:04:25.11Z</time></trkpt><trkpt lat="42.3797333" lon="12.7646583"><ele>552.0</ele><time>2026-04-25T13:04:26.109Z</time></trkpt><trkpt lat="42.37964" lon="12.7645433"><ele>552.0</ele><time>2026-04-25T13:04:27.109Z</time></trkpt><trkpt lat="42.37955" lon="12.7644267"><ele>552.0</ele><time>2026-04-25T13:04:28.11Z</time></trkpt><trkpt lat="42.3794617" lon="12.76431"><ele>552.0</ele><time>2026-04-25T13:04:29.109Z</time></trkpt><trkpt lat="42.3793783" lon="12.764185"><ele>552.0</ele><time>2026-04-25T13:04:30.11Z</time></trkpt><trkpt lat="42.3793033" lon="12.764055"><ele>556.75</ele><time>2026-04-25T13:04:31.109Z</time></trkpt><trkpt lat="42.37924" lon="12.763915"><ele>561.5</ele><time>2026-04-25T13:04:32.108Z</time></trkpt><trkpt lat="42.3791917" lon="12.7637483"><ele>566.25</ele><time>2026-04-25T13:04:33.108Z</time></trkpt><trkpt lat="42.3791617" lon="12.76358"><ele>571.0</ele><time>2026-04-25T13:04:34.109Z</time></trkpt><trkpt lat="42.3791467" lon="12.7634033"><ele>574.25</ele><time>2026-04-25T13:04:35.109Z</time></trkpt><trkpt lat="42.3791417" lon="12.7632217"><ele>577.5</ele><time>2026-04-25T13:04:36.109Z</time></trkpt><trkpt lat="42.3791367" lon="12.7630417"><ele>580.75</ele><time>2026-04-25T13:04:37.108Z</time></trkpt><trkpt lat="42.37913" lon="12.762865"><ele>584.0</ele><time>2026-04-25T13:04:38.11Z</time></trkpt><trkpt lat="42.37912" lon="12.7626983"><ele>585.2</ele><time>2026-04-25T13:04:39.11Z</time></trkpt><trkpt lat="42.37911" lon="12.7625467"><ele>586.4</ele><time>2026-04-25T13:04:40.109Z</time></trkpt><trkpt lat="42.3791017" lon="12.7624117"><ele>587.6</ele><time>2026-04-25T13:04:41.108Z</time></trkpt><trkpt lat="42.3790917" lon="12.7622917"><ele>588.8</ele><time>2026-04-25T13:04:42.107Z</time></trkpt><trkpt lat="42.3790833" lon="12.762185"><ele>590.0</ele><time>2026-04-25T13:04:43.108Z</time></trkpt><trkpt lat="42.379075" lon="12.762085"><ele>590.0</ele><time>2026-04-25T13:04:44.109Z</time></trkpt><trkpt lat="42.3790683" lon="12.76198"><ele>590.0</ele><time>2026-04-25T13:04:45.109Z</time></trkpt><trkpt lat="42.3790633" lon="12.76187"><ele>590.0</ele><time>2026-04-25T13:04:46.108Z</time></trkpt><trkpt lat="42.3790583" lon="12.7617567"><ele>590.0</ele><time>2026-04-25T13:04:47.109Z</time></trkpt><trkpt lat="42.3790517" lon="12.7616383"><ele>590.0</ele><time>2026-04-25T13:04:48.107Z</time></trkpt><trkpt lat="42.3790483" lon="12.7615217"><ele>590.0</ele><time>2026-04-25T13:04:49.109Z</time></trkpt><trkpt lat="42.3790433" lon="12.7614033"><ele>590.8333333333333</ele><time>2026-04-25T13:04:50.108Z</time></trkpt><trkpt lat="42.3790383" lon="12.7612867"><ele>591.6666666666666</ele><time>2026-04-25T13:04:51.109Z</time></trkpt><trkpt lat="42.3790333" lon="12.76117"><ele>592.5</ele><time>2026-04-25T13:04:52.109Z</time></trkpt><trkpt lat="42.379025" lon="12.761055"><ele>593.3333333333334</ele><time>2026-04-25T13:04:53.109Z</time></trkpt><trkpt lat="42.3790083" lon="12.76094"><ele>594.1666666666667</ele><time>2026-04-25T13:04:54.108Z</time></trkpt><trkpt lat="42.3789833" lon="12.7608317"><ele>595.0</ele><time>2026-04-25T13:04:55.109Z</time></trkpt><trkpt lat="42.3789483" lon="12.7607317"><ele>595.6666666666667</ele><time>2026-04-25T13:04:56.11Z</time></trkpt><trkpt lat="42.378895" lon="12.7606517"><ele>596.3333333333334</ele><time>2026-04-25T13:04:57.11Z</time></trkpt><trkpt lat="42.3788333" lon="12.7605917"><ele>597.0</ele><time>2026-04-25T13:04:58.108Z</time></trkpt><trkpt lat="42.3787583" lon="12.7605517"><ele>597.6666666666666</ele><time>2026-04-25T13:04:59.109Z</time></trkpt><trkpt lat="42.3786783" lon="12.760525"><ele>598.3333333333333</ele><time>2026-04-25T13:05:00.11Z</time></trkpt><trkpt lat="42.378595" lon="12.7605083"><ele>599.0</ele><time>2026-04-25T13:05:01.11Z</time></trkpt><trkpt lat="42.3785133" lon="12.7604917"><ele>599.0</ele><time>2026-04-25T13:05:02.109Z</time></trkpt><trkpt lat="42.37844" lon="12.7604717"><ele>599.0</ele><time>2026-04-25T13:05:03.111Z</time></trkpt><trkpt lat="42.378375" lon="12.7604533"><ele>599.0</ele><time>2026-04-25T13:05:04.108Z</time></trkpt><trkpt lat="42.3782633" lon="12.7604167"><ele>599.0</ele><time>2026-04-25T13:05:06.108Z</time></trkpt><trkpt lat="42.3781717" lon="12.760365"><ele>599.0</ele><time>2026-04-25T13:05:08.11Z</time></trkpt><trkpt lat="42.3780817" lon="12.7602767"><ele>599.0</ele><time>2026-04-25T13:05:10.107Z</time></trkpt><trkpt lat="42.378025" lon="12.7602133"><ele>599.0</ele><time>2026-04-25T13:05:11.108Z</time></trkpt><trkpt lat="42.377965" lon="12.7601417"><ele>599.0</ele><time>2026-04-25T13:05:12.11Z</time></trkpt><trkpt lat="42.3779067" lon="12.7600717"><ele>599.0</ele><time>2026-04-25T13:05:13.109Z</time></trkpt><trkpt lat="42.3778517" lon="12.760005"><ele>599.0</ele><time>2026-04-25T13:05:14.108Z</time></trkpt><trkpt lat="42.3777933" lon="12.75994"><ele>599.0</ele><time>2026-04-25T13:05:15.11Z</time></trkpt><trkpt lat="42.3777233" lon="12.7598867"><ele>597.8333333333333</ele><time>2026-04-25T13:05:16.11Z</time></trkpt><trkpt lat="42.37765" lon="12.7598517"><ele>596.6666666666666</ele><time>2026-04-25T13:05:17.108Z</time></trkpt><trkpt lat="42.377575" lon="12.7598317"><ele>595.5</ele><time>2026-04-25T13:05:18.108Z</time></trkpt><trkpt lat="42.3775017" lon="12.7598217"><ele>594.3333333333334</ele><time>2026-04-25T13:05:19.109Z</time></trkpt><trkpt lat="42.3774383" lon="12.7598033"><ele>593.1666666666667</ele><time>2026-04-25T13:05:20.108Z</time></trkpt><trkpt lat="42.3773567" lon="12.75971"><ele>592.0</ele><time>2026-04-25T13:05:22.109Z</time></trkpt><trkpt lat="42.37734" lon="12.7595383"><ele>592.0</ele><time>2026-04-25T13:05:24.109Z</time></trkpt><trkpt lat="42.377345" lon="12.7594433"><ele>592.0</ele><time>2026-04-25T13:05:25.108Z</time></trkpt><trkpt lat="42.377355" lon="12.7593533"><ele>592.0</ele><time>2026-04-25T13:05:26.108Z</time></trkpt><trkpt lat="42.3773867" lon="12.7591983"><ele>592.0</ele><time>2026-04-25T13:05:28.107Z</time></trkpt><trkpt lat="42.3774417" lon="12.75905"><ele>592.0</ele><time>2026-04-25T13:05:30.11Z</time></trkpt><trkpt lat="42.377505" lon="12.7589033"><ele>591.0</ele><time>2026-04-25T13:05:32.11Z</time></trkpt><trkpt lat="42.3775683" lon="12.75876"><ele>590.0</ele><time>2026-04-25T13:05:34.109Z</time></trkpt><trkpt lat="42.3776267" lon="12.7586117"><ele>589.0</ele><time>2026-04-25T13:05:36.107Z</time></trkpt><trkpt lat="42.3776567" lon="12.7585367"><ele>588.0</ele><time>2026-04-25T13:05:37.109Z</time></trkpt><trkpt lat="42.377685" lon="12.75846"><ele>587.0</ele><time>2026-04-25T13:05:38.107Z</time></trkpt><trkpt lat="42.3777133" lon="12.7583833"><ele>586.0</ele><time>2026-04-25T13:05:39.11Z</time></trkpt><trkpt lat="42.3777417" lon="12.758305"><ele>583.8333333333334</ele><time>2026-04-25T13:05:40.108Z</time></trkpt><trkpt lat="42.3777717" lon="12.75823"><ele>581.6666666666667</ele><time>2026-04-25T13:05:41.109Z</time></trkpt><trkpt lat="42.377835" lon="12.7580883"><ele>579.5</ele><time>2026-04-25T13:05:43.107Z</time></trkpt><trkpt lat="42.3778483" lon="12.7579467"><ele>577.3333333333334</ele><time>2026-04-25T13:05:45.109Z</time></trkpt><trkpt lat="42.37777" lon="12.7578817"><ele>575.1666666666666</ele><time>2026-04-25T13:05:47.108Z</time></trkpt><trkpt lat="42.3777083" lon="12.7579033"><ele>573.0</ele><time>2026-04-25T13:05:48.107Z</time></trkpt><trkpt lat="42.3776417" lon="12.7579567"><ele>573.0</ele><time>2026-04-25T13:05:49.108Z</time></trkpt><trkpt lat="42.3775717" lon="12.758025"><ele>573.0</ele><time>2026-04-25T13:05:50.109Z</time></trkpt><trkpt lat="42.3775017" lon="12.7580967"><ele>573.0</ele><time>2026-04-25T13:05:51.108Z</time></trkpt><trkpt lat="42.3774467" lon="12.7581683"><ele>573.0</ele><time>2026-04-25T13:05:52.108Z</time></trkpt><trkpt lat="42.3774033" lon="12.7582467"><ele>573.0</ele><time>2026-04-25T13:05:53.109Z</time></trkpt><trkpt lat="42.3773667" lon="12.7583383"><ele>573.0</ele><time>2026-04-25T13:05:54.106Z</time></trkpt><trkpt lat="42.377335" lon="12.758435"><ele>573.0</ele><time>2026-04-25T13:05:55.111Z</time></trkpt><trkpt lat="42.377305" lon="12.7585283"><ele>573.0</ele><time>2026-04-25T13:05:56.108Z</time></trkpt><trkpt lat="42.3772717" lon="12.75862"><ele>573.0</ele><time>2026-04-25T13:05:57.108Z</time></trkpt><trkpt lat="42.3772367" lon="12.75871"><ele>573.0</ele><time>2026-04-25T13:05:58.107Z</time></trkpt><trkpt lat="42.3772" lon="12.7587967"><ele>573.0</ele><time>2026-04-25T13:05:59.109Z</time></trkpt><trkpt lat="42.3771617" lon="12.7588783"><ele>573.0</ele><time>2026-04-25T13:06:00.108Z</time></trkpt><trkpt lat="42.3771283" lon="12.7589583"><ele>573.0</ele><time>2026-04-25T13:06:01.108Z</time></trkpt><trkpt lat="42.377095" lon="12.7590367"><ele>569.8571428571429</ele><time>2026-04-25T13:06:02.107Z</time></trkpt><trkpt lat="42.3770583" lon="12.7591167"><ele>566.7142857142858</ele><time>2026-04-25T13:06:03.109Z</time></trkpt><trkpt lat="42.3770233" lon="12.7591967"><ele>563.5714285714286</ele><time>2026-04-25T13:06:04.108Z</time></trkpt><trkpt lat="42.3769883" lon="12.759285"><ele>560.4285714285714</ele><time>2026-04-25T13:06:05.11Z</time></trkpt><trkpt lat="42.3769517" lon="12.7593733"><ele>557.2857142857142</ele><time>2026-04-25T13:06:06.108Z</time></trkpt><trkpt lat="42.3769217" lon="12.7594667"><ele>554.1428571428571</ele><time>2026-04-25T13:06:07.11Z</time></trkpt><trkpt lat="42.3769" lon="12.7595517"><ele>551.0</ele><time>2026-04-25T13:06:08.107Z</time></trkpt><trkpt lat="42.37688" lon="12.7596967"><ele>551.0</ele><time>2026-04-25T13:06:10.108Z</time></trkpt><trkpt lat="42.3768933" lon="12.7598433"><ele>551.0</ele><time>2026-04-25T13:06:12.108Z</time></trkpt><trkpt lat="42.376915" lon="12.7599533"><ele>551.0</ele><time>2026-04-25T13:06:14.109Z</time></trkpt><trkpt lat="42.3769283" lon="12.76006"><ele>551.0</ele><time>2026-04-25T13:06:17.108Z</time></trkpt><trkpt lat="42.376925" lon="12.7601533"><ele>551.0</ele><time>2026-04-25T13:06:20.109Z</time></trkpt><trkpt lat="42.37693" lon="12.760255"><ele>551.0</ele><time>2026-04-25T13:07:06.106Z</time></trkpt><trkpt lat="42.3769417" lon="12.760355"><ele>550.0</ele><time>2026-04-25T13:07:07.107Z</time></trkpt><trkpt lat="42.3769617" lon="12.7604833"><ele>549.0</ele><time>2026-04-25T13:07:08.107Z</time></trkpt><trkpt lat="42.37699" lon="12.7606317"><ele>548.0</ele><time>2026-04-25T13:07:09.108Z</time></trkpt><trkpt lat="42.3770283" lon="12.7607783"><ele>547.0</ele><time>2026-04-25T13:07:10.108Z</time></trkpt><trkpt lat="42.37707" lon="12.76092"><ele>546.0</ele><time>2026-04-25T13:07:11.111Z</time></trkpt><trkpt lat="42.3771017" lon="12.761045"><ele>546.0</ele><time>2026-04-25T13:07:12.109Z</time></trkpt><trkpt lat="42.3771233" lon="12.7611467"><ele>546.0</ele><time>2026-04-25T13:07:13.11Z</time></trkpt><trkpt lat="42.37712" lon="12.76128"><ele>546.0</ele><time>2026-04-25T13:07:15.108Z</time></trkpt><trkpt lat="42.3770233" lon="12.7611967"><ele>546.0</ele><time>2026-04-25T13:07:18.109Z</time></trkpt><trkpt lat="42.3769883" lon="12.7611"><ele>546.0</ele><time>2026-04-25T13:07:19.107Z</time></trkpt><trkpt lat="42.37695" lon="12.760985"><ele>546.0</ele><time>2026-04-25T13:07:20.107Z</time></trkpt><trkpt lat="42.3769" lon="12.76086"><ele>546.0</ele><time>2026-04-25T13:07:21.11Z</time></trkpt><trkpt lat="42.3768533" lon="12.7607267"><ele>546.0</ele><time>2026-04-25T13:07:22.109Z</time></trkpt><trkpt lat="42.3768133" lon="12.76059"><ele>546.0</ele><time>2026-04-25T13:07:23.106Z</time></trkpt><trkpt lat="42.37678" lon="12.76045"><ele>546.0</ele><time>2026-04-25T13:07:24.107Z</time></trkpt><trkpt lat="42.37676" lon="12.7603"><ele>547.0</ele><time>2026-04-25T13:07:25.108Z</time></trkpt><trkpt lat="42.3767417" lon="12.7601517"><ele>548.0</ele><time>2026-04-25T13:07:26.106Z</time></trkpt><trkpt lat="42.37672" lon="12.7600017"><ele>549.0</ele><time>2026-04-25T13:07:27.108Z</time></trkpt><trkpt lat="42.3766917" lon="12.7598567"><ele>550.0</ele><time>2026-04-25T13:07:28.108Z</time></trkpt><trkpt lat="42.3766617" lon="12.759725"><ele>551.0</ele><time>2026-04-25T13:07:29.108Z</time></trkpt><trkpt lat="42.3766333" lon="12.7596033"><ele>551.0</ele><time>2026-04-25T13:07:30.108Z</time></trkpt><trkpt lat="42.3766117" lon="12.75949"><ele>551.0</ele><time>2026-04-25T13:07:31.109Z</time></trkpt><trkpt lat="42.376605" lon="12.75938"><ele>551.0</ele><time>2026-04-25T13:07:32.108Z</time></trkpt><trkpt lat="42.3766233" lon="12.7592683"><ele>551.0</ele><time>2026-04-25T13:07:33.107Z</time></trkpt><trkpt lat="42.3766533" lon="12.7591383"><ele>551.0</ele><time>2026-04-25T13:07:34.108Z</time></trkpt><trkpt lat="42.3766817" lon="12.7589867"><ele>550.4</ele><time>2026-04-25T13:07:35.109Z</time></trkpt><trkpt lat="42.3767017" lon="12.7588317"><ele>549.8</ele><time>2026-04-25T13:07:36.107Z</time></trkpt><trkpt lat="42.3767183" lon="12.7586867"><ele>549.1999999999999</ele><time>2026-04-25T13:07:37.109Z</time></trkpt><trkpt lat="42.3767383" lon="12.75854"><ele>548.6</ele><time>2026-04-25T13:07:38.109Z</time></trkpt><trkpt lat="42.37677" lon="12.7583933"><ele>548.0</ele><time>2026-04-25T13:07:39.11Z</time></trkpt><trkpt lat="42.3768167" lon="12.7582433"><ele>546.0</ele><time>2026-04-25T13:07:40.109Z</time></trkpt><trkpt lat="42.3768717" lon="12.75809"><ele>544.0</ele><time>2026-04-25T13:07:41.108Z</time></trkpt><trkpt lat="42.3769317" lon="12.75794"><ele>542.0</ele><time>2026-04-25T13:07:42.11Z</time></trkpt><trkpt lat="42.376985" lon="12.7577967"><ele>540.0</ele><time>2026-04-25T13:07:43.108Z</time></trkpt><trkpt lat="42.377025" lon="12.7576567"><ele>537.8</ele><time>2026-04-25T13:07:44.108Z</time></trkpt><trkpt lat="42.3770583" lon="12.75752"><ele>535.6</ele><time>2026-04-25T13:07:45.109Z</time></trkpt><trkpt lat="42.3770833" lon="12.7573833"><ele>533.4</ele><time>2026-04-25T13:07:46.109Z</time></trkpt><trkpt lat="42.3770983" lon="12.7572433"><ele>531.2</ele><time>2026-04-25T13:07:47.107Z</time></trkpt><trkpt lat="42.3771" lon="12.7570967"><ele>529.0</ele><time>2026-04-25T13:07:48.108Z</time></trkpt><trkpt lat="42.3770933" lon="12.7569483"><ele>527.0</ele><time>2026-04-25T13:07:49.108Z</time></trkpt><trkpt lat="42.3770817" lon="12.7568017"><ele>525.0</ele><time>2026-04-25T13:07:50.108Z</time></trkpt><trkpt lat="42.37707" lon="12.7566617"><ele>523.0</ele><time>2026-04-25T13:07:51.107Z</time></trkpt><trkpt lat="42.3770633" lon="12.756525"><ele>521.0</ele><time>2026-04-25T13:07:52.106Z</time></trkpt><trkpt lat="42.3770683" lon="12.7563867"><ele>519.0</ele><time>2026-04-25T13:07:53.106Z</time></trkpt><trkpt lat="42.3770817" lon="12.75625"><ele>519.0</ele><time>2026-04-25T13:07:54.109Z</time></trkpt><trkpt lat="42.3771017" lon="12.75612"><ele>519.0</ele><time>2026-04-25T13:07:55.108Z</time></trkpt><trkpt lat="42.3771233" lon="12.7559933"><ele>519.0</ele><time>2026-04-25T13:07:56.108Z</time></trkpt><trkpt lat="42.3771367" lon="12.7558683"><ele>519.0</ele><time>2026-04-25T13:07:57.11Z</time></trkpt><trkpt lat="42.3771383" lon="12.75574"><ele>519.0</ele><time>2026-04-25T13:07:58.109Z</time></trkpt><trkpt lat="42.37713" lon="12.7556167"><ele>519.8333333333334</ele><time>2026-04-25T13:07:59.108Z</time></trkpt><trkpt lat="42.3771267" lon="12.7554983"><ele>520.6666666666666</ele><time>2026-04-25T13:08:00.109Z</time></trkpt><trkpt lat="42.3771333" lon="12.7553833"><ele>521.5</ele><time>2026-04-25T13:08:01.11Z</time></trkpt><trkpt lat="42.37716" lon="12.7552717"><ele>522.3333333333333</ele><time>2026-04-25T13:08:02.109Z</time></trkpt><trkpt lat="42.3771983" lon="12.7551617"><ele>523.1666666666666</ele><time>2026-04-25T13:08:03.109Z</time></trkpt><trkpt lat="42.3772483" lon="12.75505"><ele>524.0</ele><time>2026-04-25T13:08:04.107Z</time></trkpt><trkpt lat="42.377295" lon="12.75494"><ele>524.0</ele><time>2026-04-25T13:08:05.107Z</time></trkpt><trkpt lat="42.37734" lon="12.7548317"><ele>524.0</ele><time>2026-04-25T13:08:06.108Z</time></trkpt><trkpt lat="42.3773767" lon="12.7547233"><ele>524.0</ele><time>2026-04-25T13:08:07.107Z</time></trkpt><trkpt lat="42.3774" lon="12.7546067"><ele>524.0</ele><time>2026-04-25T13:08:08.109Z</time></trkpt><trkpt lat="42.3774133" lon="12.7544833"><ele>524.0</ele><time>2026-04-25T13:08:09.109Z</time></trkpt><trkpt lat="42.3774133" lon="12.7543567"><ele>522.6666666666666</ele><time>2026-04-25T13:08:10.108Z</time></trkpt><trkpt lat="42.3774083" lon="12.75423"><ele>521.3333333333333</ele><time>2026-04-25T13:08:11.109Z</time></trkpt><trkpt lat="42.3774033" lon="12.75411"><ele>520.0</ele><time>2026-04-25T13:08:12.108Z</time></trkpt><trkpt lat="42.3774017" lon="12.7540017"><ele>518.6666666666666</ele><time>2026-04-25T13:08:13.108Z</time></trkpt><trkpt lat="42.3774067" lon="12.753905"><ele>517.3333333333334</ele><time>2026-04-25T13:08:14.107Z</time></trkpt><trkpt lat="42.3774183" lon="12.7538183"><ele>516.0</ele><time>2026-04-25T13:08:15.109Z</time></trkpt><trkpt lat="42.3774317" lon="12.753735"><ele>516.0</ele><time>2026-04-25T13:08:16.107Z</time></trkpt><trkpt lat="42.3774517" lon="12.7536533"><ele>516.0</ele><time>2026-04-25T13:08:17.115Z</time></trkpt><trkpt lat="42.3774967" lon="12.7534817"><ele>516.0</ele><time>2026-04-25T13:08:19.106Z</time></trkpt><trkpt lat="42.3775133" lon="12.753385"><ele>516.0</ele><time>2026-04-25T13:08:20.106Z</time></trkpt><trkpt lat="42.3775283" lon="12.7532783"><ele>516.0</ele><time>2026-04-25T13:08:21.107Z</time></trkpt><trkpt lat="42.3775417" lon="12.7531633"><ele>516.0</ele><time>2026-04-25T13:08:22.105Z</time></trkpt><trkpt lat="42.3775583" lon="12.7530467"><ele>514.5</ele><time>2026-04-25T13:08:23.105Z</time></trkpt><trkpt lat="42.3775683" lon="12.752925"><ele>513.0</ele><time>2026-04-25T13:08:24.105Z</time></trkpt><trkpt lat="42.3775717" lon="12.752805"><ele>511.5</ele><time>2026-04-25T13:08:25.106Z</time></trkpt><trkpt lat="42.3775617" lon="12.75269"><ele>510.0</ele><time>2026-04-25T13:08:26.106Z</time></trkpt><trkpt lat="42.37753" lon="12.7525783"><ele>508.5</ele><time>2026-04-25T13:08:27.106Z</time></trkpt><trkpt lat="42.3774817" lon="12.752475"><ele>507.0</ele><time>2026-04-25T13:08:28.106Z</time></trkpt><trkpt lat="42.37743" lon="12.752375"><ele>505.8</ele><time>2026-04-25T13:08:29.106Z</time></trkpt><trkpt lat="42.3773733" lon="12.7522783"><ele>504.6</ele><time>2026-04-25T13:08:30.106Z</time></trkpt><trkpt lat="42.3773117" lon="12.7521833"><ele>503.40000000000003</ele><time>2026-04-25T13:08:31.107Z</time></trkpt><trkpt lat="42.3772367" lon="12.7520917"><ele>502.20000000000005</ele><time>2026-04-25T13:08:32.106Z</time></trkpt><trkpt lat="42.3771567" lon="12.7520033"><ele>501.0</ele><time>2026-04-25T13:08:33.107Z</time></trkpt><trkpt lat="42.3770783" lon="12.751915"><ele>499.4</ele><time>2026-04-25T13:08:34.108Z</time></trkpt><trkpt lat="42.376995" lon="12.7518283"><ele>497.8</ele><time>2026-04-25T13:08:35.107Z</time></trkpt><trkpt lat="42.3769117" lon="12.751745"><ele>496.19999999999993</ele><time>2026-04-25T13:08:36.106Z</time></trkpt><trkpt lat="42.3768317" lon="12.7516583"><ele>494.59999999999997</ele><time>2026-04-25T13:08:37.107Z</time></trkpt><trkpt lat="42.3767567" lon="12.751575"><ele>493.0</ele><time>2026-04-25T13:08:38.109Z</time></trkpt><trkpt lat="42.37668" lon="12.7514967"><ele>493.00000000000006</ele><time>2026-04-25T13:08:39.109Z</time></trkpt><trkpt lat="42.376605" lon="12.7514267"><ele>493.0</ele><time>2026-04-25T13:08:40.107Z</time></trkpt><trkpt lat="42.37653" lon="12.751375"><ele>493.0</ele><time>2026-04-25T13:08:41.108Z</time></trkpt><trkpt lat="42.3764567" lon="12.751345"><ele>493.0</ele><time>2026-04-25T13:08:42.108Z</time></trkpt><trkpt lat="42.3763917" lon="12.751355"><ele>493.00000000000006</ele><time>2026-04-25T13:08:43.108Z</time></trkpt><trkpt lat="42.3763283" lon="12.7513933"><ele>493.0</ele><time>2026-04-25T13:08:44.108Z</time></trkpt><trkpt lat="42.3762633" lon="12.7514533"><ele>492.79999999999995</ele><time>2026-04-25T13:08:45.109Z</time></trkpt><trkpt lat="42.3762017" lon="12.75155"><ele>492.59999999999997</ele><time>2026-04-25T13:08:46.108Z</time></trkpt><trkpt lat="42.376145" lon="12.7516633"><ele>492.40000000000003</ele><time>2026-04-25T13:08:47.107Z</time></trkpt><trkpt lat="42.376095" lon="12.7517733"><ele>492.20000000000005</ele><time>2026-04-25T13:08:48.107Z</time></trkpt><trkpt lat="42.3760483" lon="12.751885"><ele>492.0</ele><time>2026-04-25T13:08:49.108Z</time></trkpt><trkpt lat="42.3760083" lon="12.7519983"><ele>491.1666666666667</ele><time>2026-04-25T13:08:50.107Z</time></trkpt><trkpt lat="42.375975" lon="12.7521133"><ele>490.33333333333337</ele><time>2026-04-25T13:08:51.109Z</time></trkpt><trkpt lat="42.3759417" lon="12.7522283"><ele>489.5</ele><time>2026-04-25T13:08:52.108Z</time></trkpt><trkpt lat="42.3759033" lon="12.752335"><ele>488.6666666666667</ele><time>2026-04-25T13:08:53.107Z</time></trkpt><trkpt lat="42.37586" lon="12.7524367"><ele>487.83333333333337</ele><time>2026-04-25T13:08:54.108Z</time></trkpt><trkpt lat="42.3758167" lon="12.7525267"><ele>487.0</ele><time>2026-04-25T13:08:55.108Z</time></trkpt><trkpt lat="42.37576" lon="12.752605"><ele>487.0</ele><time>2026-04-25T13:08:56.108Z</time></trkpt><trkpt lat="42.3756833" lon="12.7526817"><ele>487.00000000000006</ele><time>2026-04-25T13:08:57.108Z</time></trkpt><trkpt lat="42.3756017" lon="12.7527533"><ele>487.00000000000006</ele><time>2026-04-25T13:08:58.108Z</time></trkpt><trkpt lat="42.375515" lon="12.7528167"><ele>487.0</ele><time>2026-04-25T13:08:59.107Z</time></trkpt><trkpt lat="42.37543" lon="12.7528767"><ele>487.0</ele><time>2026-04-25T13:09:00.108Z</time></trkpt><trkpt lat="42.37535" lon="12.7529417"><ele>484.8</ele><time>2026-04-25T13:09:01.107Z</time></trkpt><trkpt lat="42.3752733" lon="12.7530067"><ele>482.6</ele><time>2026-04-25T13:09:02.107Z</time></trkpt><trkpt lat="42.3751967" lon="12.7530767"><ele>480.40000000000003</ele><time>2026-04-25T13:09:03.108Z</time></trkpt><trkpt lat="42.3751217" lon="12.7531517"><ele>478.20000000000005</ele><time>2026-04-25T13:09:04.107Z</time></trkpt><trkpt lat="42.3750467" lon="12.753235"><ele>476.0</ele><time>2026-04-25T13:09:05.106Z</time></trkpt><trkpt lat="42.37497" lon="12.7533283"><ele>476.0</ele><time>2026-04-25T13:09:06.106Z</time></trkpt><trkpt lat="42.374895" lon="12.7534233"><ele>476.0</ele><time>2026-04-25T13:09:07.106Z</time></trkpt><trkpt lat="42.3748283" lon="12.7535083"><ele>476.0</ele><time>2026-04-25T13:09:08.108Z</time></trkpt><trkpt lat="42.3747717" lon="12.75358"><ele>476.0</ele><time>2026-04-25T13:09:09.107Z</time></trkpt><trkpt lat="42.3746867" lon="12.7536717"><ele>476.0</ele><time>2026-04-25T13:09:11.108Z</time></trkpt><trkpt lat="42.374615" lon="12.75373"><ele>475.7142857142857</ele><time>2026-04-25T13:09:13.108Z</time></trkpt><trkpt lat="42.3745483" lon="12.75378"><ele>475.42857142857144</ele><time>2026-04-25T13:09:15.108Z</time></trkpt><trkpt lat="42.374485" lon="12.7538183"><ele>475.1428571428571</ele><time>2026-04-25T13:09:17.107Z</time></trkpt><trkpt lat="42.3744217" lon="12.7538617"><ele>474.85714285714283</ele><time>2026-04-25T13:09:19.107Z</time></trkpt><trkpt lat="42.37437" lon="12.7539167"><ele>474.57142857142856</ele><time>2026-04-25T13:09:21.107Z</time></trkpt><trkpt lat="42.374295" lon="12.7539233"><ele>474.2857142857142</ele><time>2026-04-25T13:09:25.107Z</time></trkpt><trkpt lat="42.3742417" lon="12.7538367"><ele>473.99999999999994</ele><time>2026-04-25T13:09:28.107Z</time></trkpt><trkpt lat="42.3741817" lon="12.753715"><ele>473.99999999999994</ele><time>2026-04-25T13:09:30.108Z</time></trkpt><trkpt lat="42.3741433" lon="12.7536433"><ele>474.0</ele><time>2026-04-25T13:09:31.11Z</time></trkpt><trkpt lat="42.3741033" lon="12.75357"><ele>473.99999999999994</ele><time>2026-04-25T13:09:32.106Z</time></trkpt><trkpt lat="42.3740567" lon="12.7534833"><ele>473.99999999999994</ele><time>2026-04-25T13:09:33.11Z</time></trkpt><trkpt lat="42.374015" lon="12.7533967"><ele>474.0</ele><time>2026-04-25T13:09:34.107Z</time></trkpt><trkpt lat="42.3739717" lon="12.7533083"><ele>473.99999999999994</ele><time>2026-04-25T13:09:35.109Z</time></trkpt><trkpt lat="42.3739283" lon="12.7532267"><ele>473.99999999999994</ele><time>2026-04-25T13:09:36.109Z</time></trkpt><trkpt lat="42.37388" lon="12.7531667"><ele>477.2</ele><time>2026-04-25T13:09:37.109Z</time></trkpt><trkpt lat="42.3737833" lon="12.7530917"><ele>480.4</ele><time>2026-04-25T13:09:39.108Z</time></trkpt><trkpt lat="42.3736717" lon="12.7531033"><ele>483.6</ele><time>2026-04-25T13:09:41.108Z</time></trkpt><trkpt lat="42.37362" lon="12.753155"><ele>486.8</ele><time>2026-04-25T13:09:42.108Z</time></trkpt><trkpt lat="42.3735767" lon="12.75322"><ele>490.0</ele><time>2026-04-25T13:09:43.107Z</time></trkpt><trkpt lat="42.37348" lon="12.7533217"><ele>490.0</ele><time>2026-04-25T13:09:45.108Z</time></trkpt><trkpt lat="42.3734183" lon="12.75336"><ele>490.0</ele><time>2026-04-25T13:09:46.109Z</time></trkpt><trkpt lat="42.3733533" lon="12.7533867"><ele>490.0</ele><time>2026-04-25T13:09:47.107Z</time></trkpt><trkpt lat="42.37328" lon="12.7534033"><ele>490.0</ele><time>2026-04-25T13:09:48.106Z</time></trkpt><trkpt lat="42.3732083" lon="12.7534067"><ele>490.0</ele><time>2026-04-25T13:09:49.109Z</time></trkpt><trkpt lat="42.3731367" lon="12.7534"><ele>490.0</ele><time>2026-04-25T13:09:50.106Z</time></trkpt><trkpt lat="42.3730683" lon="12.7533883"><ele>490.0</ele><time>2026-04-25T13:09:51.106Z</time></trkpt><trkpt lat="42.372995" lon="12.7533617"><ele>491.83333333333337</ele><time>2026-04-25T13:09:52.109Z</time></trkpt><trkpt lat="42.3729267" lon="12.75333"><ele>493.6666666666667</ele><time>2026-04-25T13:09:53.106Z</time></trkpt><trkpt lat="42.3728567" lon="12.7532817"><ele>495.5</ele><time>2026-04-25T13:09:54.107Z</time></trkpt><trkpt lat="42.3727917" lon="12.7532167"><ele>497.33333333333337</ele><time>2026-04-25T13:09:55.106Z</time></trkpt><trkpt lat="42.3727317" lon="12.7531467"><ele>499.1666666666667</ele><time>2026-04-25T13:09:56.108Z</time></trkpt><trkpt lat="42.3726667" lon="12.7530817"><ele>501.0</ele><time>2026-04-25T13:09:57.109Z</time></trkpt><trkpt lat="42.3726" lon="12.7530183"><ele>501.0</ele><time>2026-04-25T13:09:58.109Z</time></trkpt><trkpt lat="42.3725267" lon="12.7529633"><ele>501.0</ele><time>2026-04-25T13:09:59.106Z</time></trkpt><trkpt lat="42.3724417" lon="12.7529233"><ele>501.0</ele><time>2026-04-25T13:10:00.107Z</time></trkpt><trkpt lat="42.37236" lon="12.7528867"><ele>501.0</ele><time>2026-04-25T13:10:01.108Z</time></trkpt><trkpt lat="42.372275" lon="12.7528633"><ele>501.0</ele><time>2026-04-25T13:10:02.115Z</time></trkpt><trkpt lat="42.3721933" lon="12.7528583"><ele>501.0</ele><time>2026-04-25T13:10:03.106Z</time></trkpt><trkpt lat="42.372115" lon="12.7528667"><ele>502.3333333333333</ele><time>2026-04-25T13:10:04.108Z</time></trkpt><trkpt lat="42.3720417" lon="12.7528717"><ele>503.66666666666663</ele><time>2026-04-25T13:10:05.107Z</time></trkpt><trkpt lat="42.37196" lon="12.75287"><ele>505.0</ele><time>2026-04-25T13:10:06.108Z</time></trkpt><trkpt lat="42.3718783" lon="12.752865"><ele>506.3333333333333</ele><time>2026-04-25T13:10:07.109Z</time></trkpt><trkpt lat="42.3717933" lon="12.7528567"><ele>507.66666666666663</ele><time>2026-04-25T13:10:08.108Z</time></trkpt><trkpt lat="42.3717033" lon="12.7528467"><ele>509.0</ele><time>2026-04-25T13:10:09.107Z</time></trkpt><trkpt lat="42.37162" lon="12.7528367"><ele>508.99999999999994</ele><time>2026-04-25T13:10:10.107Z</time></trkpt><trkpt lat="42.3715417" lon="12.7528283"><ele>509.0</ele><time>2026-04-25T13:10:11.105Z</time></trkpt><trkpt lat="42.3714683" lon="12.7528167"><ele>509.0</ele><time>2026-04-25T13:10:12.11Z</time></trkpt><trkpt lat="42.3713933" lon="12.7528083"><ele>509.0</ele><time>2026-04-25T13:10:13.108Z</time></trkpt><trkpt lat="42.3713217" lon="12.7527967"><ele>508.99999999999994</ele><time>2026-04-25T13:10:14.108Z</time></trkpt><trkpt lat="42.37123" lon="12.7527933"><ele>509.0</ele><time>2026-04-25T13:10:16.107Z</time></trkpt><trkpt lat="42.3711417" lon="12.7527717"><ele>511.75</ele><time>2026-04-25T13:10:18.107Z</time></trkpt><trkpt lat="42.3710417" lon="12.7527417"><ele>514.5</ele><time>2026-04-25T13:10:20.106Z</time></trkpt><trkpt lat="42.37094" lon="12.752685"><ele>517.25</ele><time>2026-04-25T13:10:22.106Z</time></trkpt><trkpt lat="42.3708267" lon="12.7527017"><ele>520.0</ele><time>2026-04-25T13:10:24.107Z</time></trkpt><trkpt lat="42.3707067" lon="12.7527817"><ele>520.0</ele><time>2026-04-25T13:10:26.108Z</time></trkpt><trkpt lat="42.3706367" lon="12.7528217"><ele>520.0</ele><time>2026-04-25T13:10:27.106Z</time></trkpt><trkpt lat="42.3705667" lon="12.75286"><ele>520.0</ele><time>2026-04-25T13:10:28.108Z</time></trkpt><trkpt lat="42.370505" lon="12.7528933"><ele>520.0</ele><time>2026-04-25T13:10:29.108Z</time></trkpt><trkpt lat="42.370425" lon="12.7529133"><ele>520.0</ele><time>2026-04-25T13:10:31.108Z</time></trkpt><trkpt lat="42.37036" lon="12.7528633"><ele>520.0</ele><time>2026-04-25T13:10:33.107Z</time></trkpt><trkpt lat="42.3702917" lon="12.7527567"><ele>523.4285714285714</ele><time>2026-04-25T13:10:35.108Z</time></trkpt><trkpt lat="42.370255" lon="12.7526833"><ele>526.8571428571429</ele><time>2026-04-25T13:10:36.108Z</time></trkpt><trkpt lat="42.370215" lon="12.75261"><ele>530.2857142857142</ele><time>2026-04-25T13:10:37.109Z</time></trkpt><trkpt lat="42.3701733" lon="12.752535"><ele>533.7142857142858</ele><time>2026-04-25T13:10:38.109Z</time></trkpt><trkpt lat="42.370135" lon="12.75246"><ele>537.1428571428571</ele><time>2026-04-25T13:10:39.108Z</time></trkpt><trkpt lat="42.3701" lon="12.75238"><ele>540.5714285714286</ele><time>2026-04-25T13:10:40.107Z</time></trkpt><trkpt lat="42.37006" lon="12.7523033"><ele>544.0</ele><time>2026-04-25T13:10:41.106Z</time></trkpt><trkpt lat="42.37003" lon="12.7522267"><ele>544.0</ele><time>2026-04-25T13:10:42.108Z</time></trkpt><trkpt lat="42.37001" lon="12.75214"><ele>544.0</ele><time>2026-04-25T13:10:43.108Z</time></trkpt><trkpt lat="42.3699933" lon="12.7520567"><ele>544.0</ele><time>2026-04-25T13:10:44.108Z</time></trkpt><trkpt lat="42.3699733" lon="12.7519267"><ele>544.0</ele><time>2026-04-25T13:10:46.108Z</time></trkpt><trkpt lat="42.3699883" lon="12.751805"><ele>544.0</ele><time>2026-04-25T13:10:48.107Z</time></trkpt><trkpt lat="42.3700433" lon="12.7516983"><ele>544.0</ele><time>2026-04-25T13:10:50.107Z</time></trkpt><trkpt lat="42.3701217" lon="12.7516283"><ele>548.4</ele><time>2026-04-25T13:10:52.106Z</time></trkpt><trkpt lat="42.3702383" lon="12.7515667"><ele>552.8</ele><time>2026-04-25T13:10:54.106Z</time></trkpt><trkpt lat="42.3703117" lon="12.7515233"><ele>557.2</ele><time>2026-04-25T13:10:55.107Z</time></trkpt><trkpt lat="42.3704" lon="12.7514767"><ele>561.6</ele><time>2026-04-25T13:10:56.106Z</time></trkpt><trkpt lat="42.3704917" lon="12.751425"><ele>566.0</ele><time>2026-04-25T13:10:57.107Z</time></trkpt><trkpt lat="42.37058" lon="12.751385"><ele>566.0</ele><time>2026-04-25T13:10:58.108Z</time></trkpt><trkpt lat="42.3706683" lon="12.7513567"><ele>566.0</ele><time>2026-04-25T13:10:59.106Z</time></trkpt><trkpt lat="42.3707617" lon="12.751335"><ele>566.0</ele><time>2026-04-25T13:11:00.108Z</time></trkpt><trkpt lat="42.3708533" lon="12.7513083"><ele>566.0</ele><time>2026-04-25T13:11:01.109Z</time></trkpt><trkpt lat="42.3709333" lon="12.7512667"><ele>566.0</ele><time>2026-04-25T13:11:02.109Z</time></trkpt><trkpt lat="42.371" lon="12.751205"><ele>566.0</ele><time>2026-04-25T13:11:03.11Z</time></trkpt><trkpt lat="42.3710583" lon="12.7511267"><ele>569.4</ele><time>2026-04-25T13:11:04.108Z</time></trkpt><trkpt lat="42.37112" lon="12.7510267"><ele>572.8</ele><time>2026-04-25T13:11:05.106Z</time></trkpt><trkpt lat="42.371185" lon="12.7509083"><ele>576.1999999999999</ele><time>2026-04-25T13:11:06.109Z</time></trkpt><trkpt lat="42.3712567" lon="12.7507883"><ele>579.6</ele><time>2026-04-25T13:11:07.109Z</time></trkpt><trkpt lat="42.3713317" lon="12.7506733"><ele>583.0</ele><time>2026-04-25T13:11:08.109Z</time></trkpt><trkpt lat="42.3713983" lon="12.7505683"><ele>583.0</ele><time>2026-04-25T13:11:09.107Z</time></trkpt><trkpt lat="42.371455" lon="12.7504617"><ele>583.0</ele><time>2026-04-25T13:11:10.107Z</time></trkpt><trkpt lat="42.3715033" lon="12.7503517"><ele>583.0</ele><time>2026-04-25T13:11:11.109Z</time></trkpt><trkpt lat="42.371545" lon="12.750255"><ele>583.0</ele><time>2026-04-25T13:11:12.107Z</time></trkpt><trkpt lat="42.3715867" lon="12.750185"><ele>583.0</ele><time>2026-04-25T13:11:13.106Z</time></trkpt><trkpt lat="42.3716983" lon="12.7501"><ele>592.1999999999999</ele><time>2026-04-25T13:11:15.107Z</time></trkpt><trkpt lat="42.3717867" lon="12.7500617"><ele>601.4</ele><time>2026-04-25T13:11:16.108Z</time></trkpt><trkpt lat="42.3718717" lon="12.7500067"><ele>610.5999999999999</ele><time>2026-04-25T13:11:17.107Z</time></trkpt><trkpt lat="42.3719567" lon="12.749945"><ele>619.8</ele><time>2026-04-25T13:11:18.106Z</time></trkpt><trkpt lat="42.3720367" lon="12.7498567"><ele>629.0</ele><time>2026-04-25T13:11:19.106Z</time></trkpt><trkpt lat="42.3721217" lon="12.7497567"><ele>632.4</ele><time>2026-04-25T13:11:20.106Z</time></trkpt><trkpt lat="42.3722083" lon="12.7496667"><ele>635.8</ele><time>2026-04-25T13:11:21.108Z</time></trkpt><trkpt lat="42.372295" lon="12.749585"><ele>639.1999999999999</ele><time>2026-04-25T13:11:22.108Z</time></trkpt><trkpt lat="42.372375" lon="12.7494983"><ele>642.5999999999999</ele><time>2026-04-25T13:11:23.107Z</time></trkpt><trkpt lat="42.3724333" lon="12.7494017"><ele>646.0</ele><time>2026-04-25T13:11:24.107Z</time></trkpt><trkpt lat="42.3724767" lon="12.7492933"><ele>646.0</ele><time>2026-04-25T13:11:25.108Z</time></trkpt><trkpt lat="42.37251" lon="12.7491783"><ele>646.0</ele><time>2026-04-25T13:11:26.106Z</time></trkpt><trkpt lat="42.372535" lon="12.7490683"><ele>646.0</ele><time>2026-04-25T13:11:27.109Z</time></trkpt><trkpt lat="42.3725483" lon="12.74897"><ele>646.0</ele><time>2026-04-25T13:11:28.107Z</time></trkpt><trkpt lat="42.3725333" lon="12.7488617"><ele>646.0</ele><time>2026-04-25T13:11:30.108Z</time></trkpt><trkpt lat="42.3724583" lon="12.748895"><ele>646.0</ele><time>2026-04-25T13:11:32.108Z</time></trkpt><trkpt lat="42.3724283" lon="12.7489817"><ele>646.0</ele><time>2026-04-25T13:11:33.108Z</time></trkpt><trkpt lat="42.37239" lon="12.749075"><ele>646.0</ele><time>2026-04-25T13:11:34.109Z</time></trkpt><trkpt lat="42.372345" lon="12.7491533"><ele>646.0</ele><time>2026-04-25T13:11:35.108Z</time></trkpt><trkpt lat="42.3722733" lon="12.7492283"><ele>646.0</ele><time>2026-04-25T13:11:37.106Z</time></trkpt><trkpt lat="42.3722433" lon="12.7491483"><ele>646.0</ele><time>2026-04-25T13:11:40.109Z</time></trkpt><trkpt lat="42.372295" lon="12.7489983"><ele>646.0</ele><time>2026-04-25T13:11:42.107Z</time></trkpt><trkpt lat="42.3723383" lon="12.748885"><ele>646.0</ele><time>2026-04-25T13:11:43.106Z</time></trkpt><trkpt lat="42.3723733" lon="12.74877"><ele>646.0</ele><time>2026-04-25T13:11:44.106Z</time></trkpt><trkpt lat="42.3724083" lon="12.7486533"><ele>646.0</ele><time>2026-04-25T13:11:45.108Z</time></trkpt><trkpt lat="42.3724283" lon="12.74854"><ele>646.0</ele><time>2026-04-25T13:11:46.109Z</time></trkpt><trkpt lat="42.37244" lon="12.7484433"><ele>646.0</ele><time>2026-04-25T13:11:47.109Z</time></trkpt><trkpt lat="42.3724533" lon="12.7483083"><ele>646.0</ele><time>2026-04-25T13:11:49.107Z</time></trkpt><trkpt lat="42.372515" lon="12.748245"><ele>652.0</ele><time>2026-04-25T13:11:52.107Z</time></trkpt><trkpt lat="42.3726283" lon="12.7483433"><ele>658.0</ele><time>2026-04-25T13:12:04.108Z</time></trkpt><trkpt lat="42.3727317" lon="12.7483067"><ele>664.0</ele><time>2026-04-25T13:12:06.106Z</time></trkpt><trkpt lat="42.3727983" lon="12.7482633"><ele>670.0</ele><time>2026-04-25T13:12:07.107Z</time></trkpt><trkpt lat="42.3728683" lon="12.7481833"><ele>676.0</ele><time>2026-04-25T13:12:08.107Z</time></trkpt><trkpt lat="42.3729417" lon="12.7480867"><ele>675.0</ele><time>2026-04-25T13:12:09.108Z</time></trkpt><trkpt lat="42.3730233" lon="12.7479867"><ele>674.0</ele><time>2026-04-25T13:12:10.109Z</time></trkpt><trkpt lat="42.3731133" lon="12.7479"><ele>673.0</ele><time>2026-04-25T13:12:11.105Z</time></trkpt><trkpt lat="42.3732117" lon="12.7478333"><ele>672.0</ele><time>2026-04-25T13:12:12.107Z</time></trkpt><trkpt lat="42.3733217" lon="12.747795"><ele>671.0</ele><time>2026-04-25T13:12:13.108Z</time></trkpt><trkpt lat="42.37344" lon="12.747775"><ele>671.0</ele><time>2026-04-25T13:12:14.106Z</time></trkpt><trkpt lat="42.3735533" lon="12.7477617"><ele>671.0</ele><time>2026-04-25T13:12:15.107Z</time></trkpt><trkpt lat="42.37366" lon="12.7477517"><ele>671.0</ele><time>2026-04-25T13:12:16.107Z</time></trkpt><trkpt lat="42.3737483" lon="12.74774"><ele>671.0</ele><time>2026-04-25T13:12:17.108Z</time></trkpt><trkpt lat="42.37382" lon="12.7477333"><ele>671.0</ele><time>2026-04-25T13:12:18.107Z</time></trkpt><trkpt lat="42.3738867" lon="12.7477"><ele>677.8</ele><time>2026-04-25T13:12:20.108Z</time></trkpt><trkpt lat="42.3738233" lon="12.747635"><ele>684.5999999999999</ele><time>2026-04-25T13:12:40.107Z</time></trkpt><trkpt lat="42.3736883" lon="12.747575"><ele>691.4</ele><time>2026-04-25T13:12:42.108Z</time></trkpt><trkpt lat="42.3736017" lon="12.74753"><ele>698.2</ele><time>2026-04-25T13:12:43.108Z</time></trkpt><trkpt lat="42.3735167" lon="12.7474717"><ele>705.0</ele><time>2026-04-25T13:12:44.107Z</time></trkpt><trkpt lat="42.3734383" lon="12.7473967"><ele>705.0</ele><time>2026-04-25T13:12:45.109Z</time></trkpt><trkpt lat="42.3733617" lon="12.74732"><ele>705.0</ele><time>2026-04-25T13:12:46.107Z</time></trkpt><trkpt lat="42.3732917" lon="12.7472517"><ele>705.0</ele><time>2026-04-25T13:12:47.107Z</time></trkpt><trkpt lat="42.37323" lon="12.7471917"><ele>705.0</ele><time>2026-04-25T13:12:48.108Z</time></trkpt><trkpt lat="42.3731033" lon="12.7471983"><ele>705.0</ele><time>2026-04-25T13:12:50.108Z</time></trkpt><trkpt lat="42.373025" lon="12.747245"><ele>706.6666666666666</ele><time>2026-04-25T13:12:51.109Z</time></trkpt><trkpt lat="42.3729467" lon="12.7473"><ele>708.3333333333334</ele><time>2026-04-25T13:12:52.107Z</time></trkpt><trkpt lat="42.3728733" lon="12.7473333"><ele>710.0</ele><time>2026-04-25T13:12:53.107Z</time></trkpt><trkpt lat="42.3728" lon="12.74736"><ele>711.6666666666667</ele><time>2026-04-25T13:12:54.107Z</time></trkpt><trkpt lat="42.372725" lon="12.74737"><ele>713.3333333333334</ele><time>2026-04-25T13:12:55.108Z</time></trkpt><trkpt lat="42.3726533" lon="12.747375"><ele>715.0</ele><time>2026-04-25T13:12:56.108Z</time></trkpt><trkpt lat="42.372585" lon="12.7473583"><ele>715.0</ele><time>2026-04-25T13:12:57.108Z</time></trkpt><trkpt lat="42.3725133" lon="12.747305"><ele>715.0</ele><time>2026-04-25T13:12:58.108Z</time></trkpt><trkpt lat="42.372445" lon="12.7472417"><ele>715.0</ele><time>2026-04-25T13:12:59.108Z</time></trkpt><trkpt lat="42.3723533" lon="12.7471583"><ele>715.0</ele><time>2026-04-25T13:13:00.11Z</time></trkpt><trkpt lat="42.3722583" lon="12.7470783"><ele>715.0</ele><time>2026-04-25T13:13:01.109Z</time></trkpt><trkpt lat="42.3721517" lon="12.7470067"><ele>717.8333333333334</ele><time>2026-04-25T13:13:02.109Z</time></trkpt><trkpt lat="42.3720467" lon="12.7469567"><ele>720.6666666666667</ele><time>2026-04-25T13:13:03.109Z</time></trkpt><trkpt lat="42.3719567" lon="12.7469233"><ele>723.5</ele><time>2026-04-25T13:13:04.107Z</time></trkpt><trkpt lat="42.37188" lon="12.74691"><ele>726.3333333333334</ele><time>2026-04-25T13:13:05.109Z</time></trkpt><trkpt lat="42.3718117" lon="12.7469283"><ele>729.1666666666666</ele><time>2026-04-25T13:13:06.11Z</time></trkpt><trkpt lat="42.3717517" lon="12.7469783"><ele>732.0</ele><time>2026-04-25T13:13:07.107Z</time></trkpt><trkpt lat="42.371685" lon="12.7470667"><ele>732.0</ele><time>2026-04-25T13:13:08.109Z</time></trkpt><trkpt lat="42.3716117" lon="12.74717"><ele>732.0</ele><time>2026-04-25T13:13:09.109Z</time></trkpt><trkpt lat="42.3715383" lon="12.7472783"><ele>732.0</ele><time>2026-04-25T13:13:10.108Z</time></trkpt><trkpt lat="42.3714617" lon="12.7473667"><ele>732.0</ele><time>2026-04-25T13:13:11.108Z</time></trkpt><trkpt lat="42.3713783" lon="12.7474267"><ele>732.0</ele><time>2026-04-25T13:13:12.108Z</time></trkpt><trkpt lat="42.37129" lon="12.7474867"><ele>738.25</ele><time>2026-04-25T13:13:13.109Z</time></trkpt><trkpt lat="42.3711967" lon="12.7475417"><ele>744.5</ele><time>2026-04-25T13:13:14.109Z</time></trkpt><trkpt lat="42.37109" lon="12.7475817"><ele>750.75</ele><time>2026-04-25T13:13:15.111Z</time></trkpt><trkpt lat="42.370965" lon="12.7476083"><ele>757.0</ele><time>2026-04-25T13:13:16.11Z</time></trkpt><trkpt lat="42.3708367" lon="12.7476317"><ele>757.0</ele><time>2026-04-25T13:13:17.109Z</time></trkpt><trkpt lat="42.370715" lon="12.747655"><ele>757.0</ele><time>2026-04-25T13:13:18.108Z</time></trkpt><trkpt lat="42.3705967" lon="12.7476783"><ele>757.0</ele><time>2026-04-25T13:13:19.109Z</time></trkpt><trkpt lat="42.3704867" lon="12.7476983"><ele>757.0</ele><time>2026-04-25T13:13:20.109Z</time></trkpt><trkpt lat="42.3703933" lon="12.7477017"><ele>757.0</ele><time>2026-04-25T13:13:21.109Z</time></trkpt><trkpt lat="42.3703167" lon="12.7476933"><ele>759.6</ele><time>2026-04-25T13:13:22.108Z</time></trkpt><trkpt lat="42.3702383" lon="12.7476567"><ele>762.2</ele><time>2026-04-25T13:13:23.109Z</time></trkpt><trkpt lat="42.3701633" lon="12.747605"><ele>764.8</ele><time>2026-04-25T13:13:24.108Z</time></trkpt><trkpt lat="42.3700833" lon="12.7475317"><ele>767.4</ele><time>2026-04-25T13:13:25.108Z</time></trkpt><trkpt lat="42.3700017" lon="12.7474533"><ele>770.0</ele><time>2026-04-25T13:13:26.109Z</time></trkpt><trkpt lat="42.3699217" lon="12.7473667"><ele>770.0</ele><time>2026-04-25T13:13:27.109Z</time></trkpt><trkpt lat="42.3698433" lon="12.7472667"><ele>770.0</ele><time>2026-04-25T13:13:28.107Z</time></trkpt><trkpt lat="42.36978" lon="12.7471767"><ele>770.0</ele><time>2026-04-25T13:13:29.107Z</time></trkpt><trkpt lat="42.3697233" lon="12.747105"><ele>770.0</ele><time>2026-04-25T13:13:30.107Z</time></trkpt><trkpt lat="42.369655" lon="12.74698"><ele>770.0</ele><time>2026-04-25T13:13:32.108Z</time></trkpt><trkpt lat="42.369615" lon="12.7468267"><ele>771.8333333333334</ele><time>2026-04-25T13:13:34.109Z</time></trkpt><trkpt lat="42.36959" lon="12.7467333"><ele>773.6666666666667</ele><time>2026-04-25T13:13:35.109Z</time></trkpt><trkpt lat="42.3695633" lon="12.7466367"><ele>775.5</ele><time>2026-04-25T13:13:36.108Z</time></trkpt><trkpt lat="42.3695383" lon="12.74653"><ele>777.3333333333333</ele><time>2026-04-25T13:13:37.108Z</time></trkpt><trkpt lat="42.3695167" lon="12.746415"><ele>779.1666666666666</ele><time>2026-04-25T13:13:38.109Z</time></trkpt><trkpt lat="42.3694933" lon="12.7462867"><ele>781.0</ele><time>2026-04-25T13:13:39.108Z</time></trkpt><trkpt lat="42.36946" lon="12.746165"><ele>786.4</ele><time>2026-04-25T13:13:40.109Z</time></trkpt><trkpt lat="42.36942" lon="12.74604"><ele>791.8</ele><time>2026-04-25T13:13:41.108Z</time></trkpt><trkpt lat="42.3693733" lon="12.745925"><ele>797.1999999999999</ele><time>2026-04-25T13:13:42.107Z</time></trkpt><trkpt lat="42.3693117" lon="12.7458217"><ele>802.5999999999999</ele><time>2026-04-25T13:13:43.109Z</time></trkpt><trkpt lat="42.3692333" lon="12.74573"><ele>808.0</ele><time>2026-04-25T13:13:44.109Z</time></trkpt><trkpt lat="42.369145" lon="12.7456417"><ele>808.0</ele><time>2026-04-25T13:13:45.109Z</time></trkpt><trkpt lat="42.36906" lon="12.74555"><ele>808.0</ele><time>2026-04-25T13:13:46.11Z</time></trkpt><trkpt lat="42.3689783" lon="12.7454583"><ele>808.0</ele><time>2026-04-25T13:13:47.108Z</time></trkpt><trkpt lat="42.3689117" lon="12.7453433"><ele>808.0</ele><time>2026-04-25T13:13:48.108Z</time></trkpt><trkpt lat="42.368855" lon="12.74522"><ele>808.0</ele><time>2026-04-25T13:13:49.109Z</time></trkpt><trkpt lat="42.3688017" lon="12.7451067"><ele>806.4</ele><time>2026-04-25T13:13:50.109Z</time></trkpt><trkpt lat="42.368755" lon="12.7449983"><ele>804.8</ele><time>2026-04-25T13:13:51.108Z</time></trkpt><trkpt lat="42.36871" lon="12.7448767"><ele>803.2</ele><time>2026-04-25T13:13:52.108Z</time></trkpt><trkpt lat="42.3686717" lon="12.7447567"><ele>801.6</ele><time>2026-04-25T13:13:53.109Z</time></trkpt><trkpt lat="42.3686433" lon="12.7446283"><ele>800.0</ele><time>2026-04-25T13:13:54.108Z</time></trkpt><trkpt lat="42.3686233" lon="12.744495"><ele>802.2</ele><time>2026-04-25T13:13:55.11Z</time></trkpt><trkpt lat="42.368615" lon="12.7443633"><ele>804.4</ele><time>2026-04-25T13:13:56.107Z</time></trkpt><trkpt lat="42.368615" lon="12.7442233"><ele>806.5999999999999</ele><time>2026-04-25T13:13:57.109Z</time></trkpt><trkpt lat="42.368625" lon="12.7440833"><ele>808.8</ele><time>2026-04-25T13:13:58.107Z</time></trkpt><trkpt lat="42.36865" lon="12.74393"><ele>811.0</ele><time>2026-04-25T13:13:59.107Z</time></trkpt><trkpt lat="42.3686817" lon="12.7437767"><ele>811.0</ele><time>2026-04-25T13:14:00.109Z</time></trkpt><trkpt lat="42.3687133" lon="12.74362"><ele>811.0</ele><time>2026-04-25T13:14:01.109Z</time></trkpt><trkpt lat="42.3687483" lon="12.743455"><ele>811.0</ele><time>2026-04-25T13:14:02.111Z</time></trkpt><trkpt lat="42.3687867" lon="12.7432767"><ele>811.0</ele><time>2026-04-25T13:14:03.111Z</time></trkpt><trkpt lat="42.368825" lon="12.7430917"><ele>813.75</ele><time>2026-04-25T13:14:04.108Z</time></trkpt><trkpt lat="42.3688533" lon="12.7429"><ele>816.5</ele><time>2026-04-25T13:14:05.107Z</time></trkpt><trkpt lat="42.3688683" lon="12.7427033"><ele>819.25</ele><time>2026-04-25T13:14:06.111Z</time></trkpt><trkpt lat="42.3688783" lon="12.74251"><ele>822.0</ele><time>2026-04-25T13:14:07.108Z</time></trkpt><trkpt lat="42.36889" lon="12.742325"><ele>836.25</ele><time>2026-04-25T13:14:08.109Z</time></trkpt><trkpt lat="42.3688967" lon="12.7421417"><ele>850.5</ele><time>2026-04-25T13:14:09.108Z</time></trkpt><trkpt lat="42.3688917" lon="12.7419517"><ele>864.75</ele><time>2026-04-25T13:14:10.109Z</time></trkpt><trkpt lat="42.368885" lon="12.74175"><ele>879.0</ele><time>2026-04-25T13:14:11.111Z</time></trkpt><trkpt lat="42.3688883" lon="12.7415483"><ele>882.25</ele><time>2026-04-25T13:14:12.108Z</time></trkpt><trkpt lat="42.368895" lon="12.7413567"><ele>885.5</ele><time>2026-04-25T13:14:13.11Z</time></trkpt><trkpt lat="42.368905" lon="12.7411867"><ele>888.75</ele><time>2026-04-25T13:14:14.109Z</time></trkpt><trkpt lat="42.3688983" lon="12.7410233"><ele>892.0</ele><time>2026-04-25T13:14:15.109Z</time></trkpt><trkpt lat="42.368875" lon="12.7408667"><ele>893.0</ele><time>2026-04-25T13:14:16.108Z</time></trkpt><trkpt lat="42.368845" lon="12.7407033"><ele>894.0</ele><time>2026-04-25T13:14:17.109Z</time></trkpt><trkpt lat="42.36881" lon="12.7405617"><ele>895.0</ele><time>2026-04-25T13:14:18.109Z</time></trkpt><trkpt lat="42.3687767" lon="12.7404333"><ele>896.0</ele><time>2026-04-25T13:14:19.11Z</time></trkpt><trkpt lat="42.3687483" lon="12.7403217"><ele>897.0</ele><time>2026-04-25T13:14:20.108Z</time></trkpt><trkpt lat="42.3687533" lon="12.7402283"><ele>897.0</ele><time>2026-04-25T13:15:26.108Z</time></trkpt><trkpt lat="42.3687617" lon="12.7403433"><ele>897.0</ele><time>2026-04-25T13:16:28.106Z</time></trkpt><trkpt lat="42.3688433" lon="12.7404833"><ele>897.0</ele><time>2026-04-25T13:16:30.108Z</time></trkpt><trkpt lat="42.368905" lon="12.7405933"><ele>897.0</ele><time>2026-04-25T13:16:31.108Z</time></trkpt><trkpt lat="42.3689817" lon="12.740715"><ele>897.0</ele><time>2026-04-25T13:16:32.108Z</time></trkpt><trkpt lat="42.36905" lon="12.7408333"><ele>896.0</ele><time>2026-04-25T13:16:33.108Z</time></trkpt><trkpt lat="42.3690983" lon="12.7409567"><ele>895.0</ele><time>2026-04-25T13:16:34.109Z</time></trkpt><trkpt lat="42.369135" lon="12.7410867"><ele>894.0</ele><time>2026-04-25T13:16:35.107Z</time></trkpt><trkpt lat="42.36917" lon="12.7412217"><ele>893.0</ele><time>2026-04-25T13:16:36.108Z</time></trkpt><trkpt lat="42.369205" lon="12.74138"><ele>892.0</ele><time>2026-04-25T13:16:37.108Z</time></trkpt><trkpt lat="42.369235" lon="12.74154"><ele>892.0</ele><time>2026-04-25T13:16:38.109Z</time></trkpt><trkpt lat="42.3692783" lon="12.74171"><ele>892.0</ele><time>2026-04-25T13:16:39.109Z</time></trkpt><trkpt lat="42.369335" lon="12.741885"><ele>892.0</ele><time>2026-04-25T13:16:40.107Z</time></trkpt><trkpt lat="42.3693967" lon="12.7420683"><ele>892.0</ele><time>2026-04-25T13:16:41.108Z</time></trkpt><trkpt lat="42.36946" lon="12.7422617"><ele>888.75</ele><time>2026-04-25T13:16:42.109Z</time></trkpt><trkpt lat="42.3695183" lon="12.742445"><ele>885.5</ele><time>2026-04-25T13:16:43.108Z</time></trkpt><trkpt lat="42.3695683" lon="12.7426183"><ele>882.25</ele><time>2026-04-25T13:16:44.107Z</time></trkpt><trkpt lat="42.3696117" lon="12.74277"><ele>879.0</ele><time>2026-04-25T13:16:45.109Z</time></trkpt><trkpt lat="42.3696517" lon="12.7429"><ele>877.1666666666666</ele><time>2026-04-25T13:16:46.108Z</time></trkpt><trkpt lat="42.3696883" lon="12.74301"><ele>875.3333333333333</ele><time>2026-04-25T13:16:47.109Z</time></trkpt><trkpt lat="42.3697333" lon="12.7431267"><ele>873.5</ele><time>2026-04-25T13:16:48.108Z</time></trkpt><trkpt lat="42.3697783" lon="12.7432217"><ele>871.6666666666666</ele><time>2026-04-25T13:16:49.109Z</time></trkpt><trkpt lat="42.3698183" lon="12.743295"><ele>869.8333333333333</ele><time>2026-04-25T13:16:50.109Z</time></trkpt><trkpt lat="42.36988" lon="12.7434033"><ele>868.0</ele><time>2026-04-25T13:16:52.108Z</time></trkpt><trkpt lat="42.369945" lon="12.743425"><ele>873.6666666666666</ele><time>2026-04-25T13:16:54.109Z</time></trkpt><trkpt lat="42.3699883" lon="12.74331"><ele>879.3333333333333</ele><time>2026-04-25T13:16:58.108Z</time></trkpt><trkpt lat="42.3699867" lon="12.7432233"><ele>885.0</ele><time>2026-04-25T13:16:59.108Z</time></trkpt><trkpt lat="42.3699717" lon="12.743115"><ele>890.6666666666667</ele><time>2026-04-25T13:17:00.107Z</time></trkpt><trkpt lat="42.3699633" lon="12.7429967"><ele>896.3333333333334</ele><time>2026-04-25T13:17:01.106Z</time></trkpt><trkpt lat="42.36996" lon="12.7428733"><ele>902.0</ele><time>2026-04-25T13:17:02.109Z</time></trkpt><trkpt lat="42.36998" lon="12.7427617"><ele>904.6666666666667</ele><time>2026-04-25T13:17:03.108Z</time></trkpt><trkpt lat="42.3700083" lon="12.74265"><ele>907.3333333333334</ele><time>2026-04-25T13:17:04.109Z</time></trkpt><trkpt lat="42.3700267" lon="12.7425417"><ele>910.0</ele><time>2026-04-25T13:17:05.107Z</time></trkpt><trkpt lat="42.37004" lon="12.7424467"><ele>912.6666666666667</ele><time>2026-04-25T13:17:06.108Z</time></trkpt><trkpt lat="42.370045" lon="12.742355"><ele>915.3333333333334</ele><time>2026-04-25T13:17:07.108Z</time></trkpt><trkpt lat="42.3700533" lon="12.7422633"><ele>918.0</ele><time>2026-04-25T13:17:08.108Z</time></trkpt><trkpt lat="42.37006" lon="12.7421533"><ele>918.0</ele><time>2026-04-25T13:17:09.107Z</time></trkpt><trkpt lat="42.3700533" lon="12.7420317"><ele>918.0</ele><time>2026-04-25T13:17:10.108Z</time></trkpt><trkpt lat="42.3700567" lon="12.741915"><ele>918.0</ele><time>2026-04-25T13:17:11.108Z</time></trkpt><trkpt lat="42.37005" lon="12.7417967"><ele>918.0</ele><time>2026-04-25T13:17:12.108Z</time></trkpt><trkpt lat="42.3700467" lon="12.741685"><ele>918.0</ele><time>2026-04-25T13:17:13.109Z</time></trkpt><trkpt lat="42.37005" lon="12.7415817"><ele>918.0</ele><time>2026-04-25T13:17:14.108Z</time></trkpt><trkpt lat="42.3700567" lon="12.741475"><ele>920.5999999999999</ele><time>2026-04-25T13:17:15.108Z</time></trkpt><trkpt lat="42.3700733" lon="12.7413617"><ele>923.1999999999999</ele><time>2026-04-25T13:17:16.108Z</time></trkpt><trkpt lat="42.370085" lon="12.7412433"><ele>925.8</ele><time>2026-04-25T13:17:17.109Z</time></trkpt><trkpt lat="42.3700967" lon="12.741105"><ele>928.4</ele><time>2026-04-25T13:17:18.109Z</time></trkpt><trkpt lat="42.37011" lon="12.7409567"><ele>931.0</ele><time>2026-04-25T13:17:19.109Z</time></trkpt><trkpt lat="42.3701183" lon="12.7408067"><ele>933.5999999999999</ele><time>2026-04-25T13:17:20.109Z</time></trkpt><trkpt lat="42.370125" lon="12.7406633"><ele>936.1999999999999</ele><time>2026-04-25T13:17:21.108Z</time></trkpt><trkpt lat="42.3701383" lon="12.7405333"><ele>938.8000000000001</ele><time>2026-04-25T13:17:22.109Z</time></trkpt><trkpt lat="42.3701383" lon="12.7403833"><ele>941.4000000000001</ele><time>2026-04-25T13:17:23.108Z</time></trkpt><trkpt lat="42.370135" lon="12.74025"><ele>944.0</ele><time>2026-04-25T13:17:24.107Z</time></trkpt><trkpt lat="42.370145" lon="12.740135"><ele>947.5000000000001</ele><time>2026-04-25T13:17:26.11Z</time></trkpt><trkpt lat="42.3701333" lon="12.740045"><ele>951.0</ele><time>2026-04-25T13:17:31.109Z</time></trkpt><trkpt lat="42.3701" lon="12.7399633"><ele>954.5</ele><time>2026-04-25T13:17:32.109Z</time></trkpt><trkpt lat="42.3700667" lon="12.7398783"><ele>958.0</ele><time>2026-04-25T13:17:33.11Z</time></trkpt><trkpt lat="42.3700283" lon="12.7397883"><ele>961.5000000000001</ele><time>2026-04-25T13:17:34.108Z</time></trkpt><trkpt lat="42.3699817" lon="12.7396883"><ele>965.0</ele><time>2026-04-25T13:17:35.109Z</time></trkpt><trkpt lat="42.369935" lon="12.7395817"><ele>965.0</ele><time>2026-04-25T13:17:36.109Z</time></trkpt><trkpt lat="42.369895" lon="12.7394717"><ele>965.0</ele><time>2026-04-25T13:17:37.106Z</time></trkpt><trkpt lat="42.3698633" lon="12.7393567"><ele>965.0</ele><time>2026-04-25T13:17:38.109Z</time></trkpt><trkpt lat="42.3698417" lon="12.7392317"><ele>965.0</ele><time>2026-04-25T13:17:39.11Z</time></trkpt><trkpt lat="42.3698233" lon="12.7391033"><ele>965.0</ele><time>2026-04-25T13:17:40.109Z</time></trkpt><trkpt lat="42.3698033" lon="12.738975"><ele>968.4</ele><time>2026-04-25T13:17:41.109Z</time></trkpt><trkpt lat="42.36979" lon="12.7388483"><ele>971.8</ele><time>2026-04-25T13:17:42.107Z</time></trkpt><trkpt lat="42.36977" lon="12.7387167"><ele>975.2</ele><time>2026-04-25T13:17:43.109Z</time></trkpt><trkpt lat="42.3697567" lon="12.738565"><ele>978.6</ele><time>2026-04-25T13:17:44.109Z</time></trkpt><trkpt lat="42.36974" lon="12.7384367"><ele>982.0</ele><time>2026-04-25T13:17:45.111Z</time></trkpt><trkpt lat="42.3697183" lon="12.7383217"><ele>982.8333333333333</ele><time>2026-04-25T13:17:46.108Z</time></trkpt><trkpt lat="42.3697017" lon="12.7382"><ele>983.6666666666666</ele><time>2026-04-25T13:17:47.108Z</time></trkpt><trkpt lat="42.369675" lon="12.7380767"><ele>984.5</ele><time>2026-04-25T13:17:48.109Z</time></trkpt><trkpt lat="42.36963" lon="12.7379583"><ele>985.3333333333333</ele><time>2026-04-25T13:17:49.109Z</time></trkpt><trkpt lat="42.3696017" lon="12.737855"><ele>986.1666666666666</ele><time>2026-04-25T13:17:50.109Z</time></trkpt><trkpt lat="42.3695833" lon="12.7377667"><ele>987.0</ele><time>2026-04-25T13:17:51.108Z</time></trkpt><trkpt lat="42.3695767" lon="12.73763"><ele>988.1666666666666</ele><time>2026-04-25T13:17:53.108Z</time></trkpt><trkpt lat="42.3695417" lon="12.737535"><ele>989.3333333333333</ele><time>2026-04-25T13:17:55.109Z</time></trkpt><trkpt lat="42.3694967" lon="12.737465"><ele>990.5</ele><time>2026-04-25T13:18:15.11Z</time></trkpt><trkpt lat="42.3694267" lon="12.7373417"><ele>991.6666666666666</ele><time>2026-04-25T13:18:17.108Z</time></trkpt><trkpt lat="42.3693833" lon="12.737255"><ele>992.8333333333333</ele><time>2026-04-25T13:18:18.106Z</time></trkpt><trkpt lat="42.369335" lon="12.737165"><ele>994.0</ele><time>2026-04-25T13:18:19.106Z</time></trkpt><trkpt lat="42.3693033" lon="12.7370767"><ele>994.0</ele><time>2026-04-25T13:18:20.109Z</time></trkpt><trkpt lat="42.36928" lon="12.7369833"><ele>994.0</ele><time>2026-04-25T13:18:21.108Z</time></trkpt><trkpt lat="42.369255" lon="12.7368883"><ele>994.0</ele><time>2026-04-25T13:18:22.107Z</time></trkpt><trkpt lat="42.3692233" lon="12.736805"><ele>994.0</ele><time>2026-04-25T13:18:23.109Z</time></trkpt><trkpt lat="42.3691683" lon="12.7367283"><ele>994.0</ele><time>2026-04-25T13:18:24.109Z</time></trkpt><trkpt lat="42.3691133" lon="12.7366683"><ele>994.0</ele><time>2026-04-25T13:18:25.109Z</time></trkpt><trkpt lat="42.3690567" lon="12.7365933"><ele>994.0</ele><time>2026-04-25T13:18:39.111Z</time></trkpt><trkpt lat="42.369015" lon="12.736435"><ele>997.0</ele><time>2026-04-25T13:18:41.108Z</time></trkpt><trkpt lat="42.3689617" lon="12.736295"><ele>1000.0000000000001</ele><time>2026-04-25T13:18:43.107Z</time></trkpt><trkpt lat="42.3688583" lon="12.7361933"><ele>1003.0000000000001</ele><time>2026-04-25T13:18:45.109Z</time></trkpt><trkpt lat="42.3687883" lon="12.7361717"><ele>1006.0</ele><time>2026-04-25T13:18:46.11Z</time></trkpt><trkpt lat="42.3687083" lon="12.73617"><ele>1009.0</ele><time>2026-04-25T13:18:47.106Z</time></trkpt><trkpt lat="42.3686167" lon="12.7361767"><ele>1012.0</ele><time>2026-04-25T13:18:48.108Z</time></trkpt><trkpt lat="42.3685233" lon="12.7361883"><ele>1015.0000000000001</ele><time>2026-04-25T13:18:49.107Z</time></trkpt><trkpt lat="42.3684383" lon="12.7361933"><ele>1018.0000000000001</ele><time>2026-04-25T13:18:50.107Z</time></trkpt><trkpt lat="42.3683533" lon="12.7361817"><ele>1021.0</ele><time>2026-04-25T13:18:51.106Z</time></trkpt><trkpt lat="42.36826" lon="12.7361717"><ele>1024.0</ele><time>2026-04-25T13:18:52.108Z</time></trkpt><trkpt lat="42.3681633" lon="12.7361767"><ele>1023.9999999999999</ele><time>2026-04-25T13:18:53.108Z</time></trkpt><trkpt lat="42.3680683" lon="12.736195"><ele>1024.0</ele><time>2026-04-25T13:18:54.108Z</time></trkpt><trkpt lat="42.3679767" lon="12.7362033"><ele>1024.0</ele><time>2026-04-25T13:18:55.107Z</time></trkpt><trkpt lat="42.3678833" lon="12.7361917"><ele>1024.0</ele><time>2026-04-25T13:18:56.108Z</time></trkpt><trkpt lat="42.3678017" lon="12.736175"><ele>1023.9999999999999</ele><time>2026-04-25T13:18:57.109Z</time></trkpt><trkpt lat="42.3677317" lon="12.736165"><ele>1024.0</ele><time>2026-04-25T13:18:58.111Z</time></trkpt><trkpt lat="42.3676633" lon="12.73616"><ele>1025.6666666666665</ele><time>2026-04-25T13:19:00.108Z</time></trkpt><trkpt lat="42.367615" lon="12.7360717"><ele>1027.3333333333333</ele><time>2026-04-25T13:19:13.107Z</time></trkpt><trkpt lat="42.3676233" lon="12.7359683"><ele>1029.0</ele><time>2026-04-25T13:19:16.107Z</time></trkpt><trkpt lat="42.36758" lon="12.7358817"><ele>1030.6666666666667</ele><time>2026-04-25T13:19:19.106Z</time></trkpt><trkpt lat="42.3675" lon="12.7358933"><ele>1032.3333333333335</ele><time>2026-04-25T13:19:28.108Z</time></trkpt><trkpt lat="42.367455" lon="12.7358267"><ele>1034.0</ele><time>2026-04-25T13:19:30.108Z</time></trkpt><trkpt lat="42.367415" lon="12.735745"><ele>1035.0</ele><time>2026-04-25T13:19:32.107Z</time></trkpt><trkpt lat="42.3673667" lon="12.73569"><ele>1036.0</ele><time>2026-04-25T13:19:34.108Z</time></trkpt><trkpt lat="42.3673383" lon="12.73561"><ele>1037.0</ele><time>2026-04-25T13:21:12.107Z</time></trkpt><trkpt lat="42.367315" lon="12.7355267"><ele>1038.0</ele><time>2026-04-25T13:21:19.106Z</time></trkpt><trkpt lat="42.3672806" lon="12.7354546"><ele>1039.0</ele><time>2026-04-25T13:21:26.16Z</time></trkpt><trkpt lat="42.3673381" lon="12.7355016"><ele>1040.0</ele><time>2026-04-25T13:21:39.13Z</time></trkpt><trkpt lat="42.367327" lon="12.7356163"><ele>1041.0</ele><time>2026-04-25T13:21:43.159Z</time></trkpt><trkpt lat="42.3673526" lon="12.7357031"><ele>1041.0</ele><time>2026-04-25T13:21:48.26Z</time></trkpt><trkpt lat="42.36726" lon="12.735415"><ele>1041.0</ele><time>2026-04-25T13:22:18.109Z</time></trkpt><trkpt lat="42.367255" lon="12.7352717"><ele>1041.0</ele><time>2026-04-25T13:22:20.107Z</time></trkpt><trkpt lat="42.3672417" lon="12.7351133"><ele>1043.3333333333333</ele><time>2026-04-25T13:22:22.107Z</time></trkpt><trkpt lat="42.367235" lon="12.7350283"><ele>1045.6666666666667</ele><time>2026-04-25T13:22:23.107Z</time></trkpt><trkpt lat="42.3672367" lon="12.7349167"><ele>1048.0</ele><time>2026-04-25T13:22:24.108Z</time></trkpt><trkpt lat="42.3672467" lon="12.734805"><ele>1050.3333333333335</ele><time>2026-04-25T13:22:25.109Z</time></trkpt><trkpt lat="42.36725" lon="12.73471"><ele>1052.6666666666667</ele><time>2026-04-25T13:22:26.108Z</time></trkpt><trkpt lat="42.3672467" lon="12.7345717"><ele>1055.0</ele><time>2026-04-25T13:22:28.11Z</time></trkpt><trkpt lat="42.3672317" lon="12.734475"><ele>1056.5</ele><time>2026-04-25T13:22:30.107Z</time></trkpt><trkpt lat="42.36722" lon="12.7343617"><ele>1058.0</ele><time>2026-04-25T13:22:37.109Z</time></trkpt><trkpt lat="42.3671767" lon="12.734235"><ele>1059.5</ele><time>2026-04-25T13:22:39.109Z</time></trkpt><trkpt lat="42.367145" lon="12.7341317"><ele>1061.0</ele><time>2026-04-25T13:22:41.107Z</time></trkpt><trkpt lat="42.3670833" lon="12.7340567"><ele>1062.5</ele><time>2026-04-25T13:22:43.108Z</time></trkpt><trkpt lat="42.36702" lon="12.734"><ele>1064.0</ele><time>2026-04-25T13:22:45.108Z</time></trkpt><trkpt lat="42.3669633" lon="12.7339533"><ele>1065.0</ele><time>2026-04-25T13:22:48.109Z</time></trkpt><trkpt lat="42.3669017" lon="12.7338917"><ele>1066.0</ele><time>2026-04-25T13:22:59.109Z</time></trkpt><trkpt lat="42.36685" lon="12.7338283"><ele>1067.0</ele><time>2026-04-25T13:23:03.11Z</time></trkpt><trkpt lat="42.36682" lon="12.7337417"><ele>1068.0</ele><time>2026-04-25T13:23:07.107Z</time></trkpt><trkpt lat="42.36677" lon="12.733665"><ele>1069.0</ele><time>2026-04-25T13:23:10.109Z</time></trkpt><trkpt lat="42.3667233" lon="12.733585"><ele>1070.0</ele><time>2026-04-25T13:23:13.107Z</time></trkpt><trkpt lat="42.3666917" lon="12.733495"><ele>1071.0</ele><time>2026-04-25T13:23:15.11Z</time></trkpt><trkpt lat="42.3666517" lon="12.7334067"><ele>1070.8333333333333</ele><time>2026-04-25T13:23:17.108Z</time></trkpt><trkpt lat="42.3666133" lon="12.733325"><ele>1070.6666666666667</ele><time>2026-04-25T13:23:19.109Z</time></trkpt><trkpt lat="42.36658" lon="12.733235"><ele>1070.5</ele><time>2026-04-25T13:23:24.108Z</time></trkpt><trkpt lat="42.3665133" lon="12.7331667"><ele>1070.3333333333335</ele><time>2026-04-25T13:23:28.109Z</time></trkpt><trkpt lat="42.366425" lon="12.7330733"><ele>1070.1666666666667</ele><time>2026-04-25T13:23:36.109Z</time></trkpt><trkpt lat="42.3663633" lon="12.7330233"><ele>1070.0</ele><time>2026-04-25T13:23:39.108Z</time></trkpt><trkpt lat="42.3662917" lon="12.7329733"><ele>1070.0</ele><time>2026-04-25T13:23:42.109Z</time></trkpt><trkpt lat="42.3661667" lon="12.732865"><ele>1070.0</ele><time>2026-04-25T13:23:56.109Z</time></trkpt><trkpt lat="42.36612" lon="12.732805"><ele>1070.0</ele><time>2026-04-25T13:23:59.109Z</time></trkpt><trkpt lat="42.36606" lon="12.73275"><ele>1070.0</ele><time>2026-04-25T13:24:07.108Z</time></trkpt><trkpt lat="42.365955" lon="12.7327033"><ele>1070.0</ele><time>2026-04-25T13:24:16.11Z</time></trkpt><trkpt lat="42.3658967" lon="12.7326683"><ele>1066.3333333333335</ele><time>2026-04-25T13:24:19.109Z</time></trkpt><trkpt lat="42.36584" lon="12.7326267"><ele>1062.6666666666667</ele><time>2026-04-25T13:24:22.11Z</time></trkpt><trkpt lat="42.3658" lon="12.732545"><ele>1059.0</ele><time>2026-04-25T13:24:25.109Z</time></trkpt><trkpt lat="42.3657983" lon="12.73244"><ele>1055.3333333333333</ele><time>2026-04-25T13:24:30.109Z</time></trkpt><trkpt lat="42.36575" lon="12.7323683"><ele>1051.6666666666665</ele><time>2026-04-25T13:24:33.111Z</time></trkpt><trkpt lat="42.36567" lon="12.7322483"><ele>1048.0</ele><time>2026-04-25T13:24:40.105Z</time></trkpt><trkpt lat="42.3656183" lon="12.7321783"><ele>1048.0</ele><time>2026-04-25T13:24:43.11Z</time></trkpt><trkpt lat="42.3655867" lon="12.7321033"><ele>1048.0</ele><time>2026-04-25T13:24:46.108Z</time></trkpt><trkpt lat="42.365555" lon="12.7319933"><ele>1048.0</ele><time>2026-04-25T13:24:49.109Z</time></trkpt><trkpt lat="42.3655667" lon="12.7319"><ele>1048.0</ele><time>2026-04-25T13:24:52.108Z</time></trkpt><trkpt lat="42.3655017" lon="12.73185"><ele>1048.0</ele><time>2026-04-25T13:24:56.108Z</time></trkpt><trkpt lat="42.365425" lon="12.7318583"><ele>1048.0</ele><time>2026-04-25T13:24:59.109Z</time></trkpt><trkpt lat="42.3654733" lon="12.7319667"><ele>1048.0</ele><time>2026-04-25T13:25:07.108Z</time></trkpt><trkpt lat="42.36555" lon="12.7320033"><ele>1048.0</ele><time>2026-04-25T13:25:09.108Z</time></trkpt><trkpt lat="42.3656433" lon="12.7320167"><ele>1048.0</ele><time>2026-04-25T13:25:12.109Z</time></trkpt><trkpt lat="42.3657083" lon="12.7320067"><ele>1048.0</ele><time>2026-04-25T13:25:14.107Z</time></trkpt><trkpt lat="42.36578" lon="12.7320117"><ele>1048.0</ele><time>2026-04-25T13:25:16.108Z</time></trkpt><trkpt lat="42.365885" lon="12.7320583"><ele>1048.0</ele><time>2026-04-25T13:25:38.108Z</time></trkpt><trkpt lat="42.3659667" lon="12.7321"><ele>1048.0</ele><time>2026-04-25T13:25:41.108Z</time></trkpt><trkpt lat="42.36605" lon="12.73213"><ele>1048.0</ele><time>2026-04-25T13:25:44.108Z</time></trkpt><trkpt lat="42.366115" lon="12.7321283"><ele>1048.0</ele><time>2026-04-25T13:25:46.107Z</time></trkpt><trkpt lat="42.3662167" lon="12.732125"><ele>1048.0</ele><time>2026-04-25T13:25:51.109Z</time></trkpt><trkpt lat="42.366295" lon="12.7321417"><ele>1048.0</ele><time>2026-04-25T13:25:54.108Z</time></trkpt><trkpt lat="42.3663567" lon="12.7321733"><ele>1048.0</ele><time>2026-04-25T13:25:57.107Z</time></trkpt><trkpt lat="42.36643" lon="12.732155"><ele>1044.6</ele><time>2026-04-25T13:26:05.106Z</time></trkpt><trkpt lat="42.3664817" lon="12.7320533"><ele>1041.1999999999998</ele><time>2026-04-25T13:26:13.109Z</time></trkpt><trkpt lat="42.3665267" lon="12.7319683"><ele>1037.8</ele><time>2026-04-25T13:26:15.106Z</time></trkpt><trkpt lat="42.3665767" lon="12.7319067"><ele>1034.3999999999999</ele><time>2026-04-25T13:26:18.108Z</time></trkpt><trkpt lat="42.3666367" lon="12.731745"><ele>1031.0</ele><time>2026-04-25T13:26:47.108Z</time></trkpt><trkpt lat="42.3666933" lon="12.7316033"><ele>1030.8333333333335</ele><time>2026-04-25T13:26:58.108Z</time></trkpt><trkpt lat="42.3667317" lon="12.73152"><ele>1030.6666666666667</ele><time>2026-04-25T13:27:01.107Z</time></trkpt><trkpt lat="42.3667783" lon="12.73139"><ele>1030.5</ele><time>2026-04-25T13:27:07.109Z</time></trkpt><trkpt lat="42.3667983" lon="12.7312883"><ele>1030.3333333333333</ele><time>2026-04-25T13:27:11.107Z</time></trkpt><trkpt lat="42.36686" lon="12.7312"><ele>1030.1666666666665</ele><time>2026-04-25T13:27:15.107Z</time></trkpt><trkpt lat="42.36692" lon="12.7311317"><ele>1030.0</ele><time>2026-04-25T13:27:17.108Z</time></trkpt><trkpt lat="42.3669817" lon="12.7310717"><ele>1028.857142857143</ele><time>2026-04-25T13:27:19.108Z</time></trkpt><trkpt lat="42.367045" lon="12.7310083"><ele>1027.7142857142858</ele><time>2026-04-25T13:27:21.106Z</time></trkpt><trkpt lat="42.367105" lon="12.73097"><ele>1026.5714285714284</ele><time>2026-04-25T13:27:23.109Z</time></trkpt><trkpt lat="42.3671667" lon="12.7309433"><ele>1025.4285714285716</ele><time>2026-04-25T13:27:25.111Z</time></trkpt><trkpt lat="42.367245" lon="12.7309317"><ele>1024.2857142857142</ele><time>2026-04-25T13:27:44.108Z</time></trkpt><trkpt lat="42.3672817" lon="12.7310067"><ele>1023.1428571428571</ele><time>2026-04-25T13:27:48.107Z</time></trkpt><trkpt lat="42.3672233" lon="12.7310617"><ele>1022.0</ele><time>2026-04-25T13:27:52.109Z</time></trkpt><trkpt lat="42.3671517" lon="12.7309983"><ele>1025.3333333333335</ele><time>2026-04-25T13:27:54.108Z</time></trkpt><trkpt lat="42.3670833" lon="12.730915"><ele>1028.6666666666667</ele><time>2026-04-25T13:27:56.108Z</time></trkpt><trkpt lat="42.3670383" lon="12.7308133"><ele>1032.0</ele><time>2026-04-25T13:27:58.108Z</time></trkpt><trkpt lat="42.3670083" lon="12.7307067"><ele>1035.3333333333333</ele><time>2026-04-25T13:28:00.107Z</time></trkpt><trkpt lat="42.3669917" lon="12.7306017"><ele>1038.6666666666665</ele><time>2026-04-25T13:28:02.109Z</time></trkpt><trkpt lat="42.3669817" lon="12.73051"><ele>1042.0</ele><time>2026-04-25T13:28:04.109Z</time></trkpt><trkpt lat="42.3669983" lon="12.7304"><ele>1042.0</ele><time>2026-04-25T13:28:07.108Z</time></trkpt><trkpt lat="42.366995" lon="12.7302817"><ele>1042.0</ele><time>2026-04-25T13:28:10.108Z</time></trkpt><trkpt lat="42.3670117" lon="12.73016"><ele>1042.0</ele><time>2026-04-25T13:28:13.108Z</time></trkpt><trkpt lat="42.3670167" lon="12.7300617"><ele>1042.0</ele><time>2026-04-25T13:28:15.107Z</time></trkpt><trkpt lat="42.3670117" lon="12.7299567"><ele>1042.0</ele><time>2026-04-25T13:28:17.11Z</time></trkpt><trkpt lat="42.3669917" lon="12.7298517"><ele>1042.0</ele><time>2026-04-25T13:28:19.109Z</time></trkpt><trkpt lat="42.366935" lon="12.7297333"><ele>1041.0</ele><time>2026-04-25T13:28:21.109Z</time></trkpt><trkpt lat="42.36689" lon="12.7296167"><ele>1040.0</ele><time>2026-04-25T13:28:23.109Z</time></trkpt><trkpt lat="42.3668517" lon="12.72953"><ele>1039.0</ele><time>2026-04-25T13:28:25.109Z</time></trkpt><trkpt lat="42.3668367" lon="12.7294183"><ele>1038.0</ele><time>2026-04-25T13:28:28.111Z</time></trkpt><trkpt lat="42.3668783" lon="12.7293183"><ele>1037.0</ele><time>2026-04-25T13:30:26.108Z</time></trkpt><trkpt lat="42.36691" lon="12.7292183"><ele>1036.0</ele><time>2026-04-25T13:30:28.107Z</time></trkpt><trkpt lat="42.36693" lon="12.7290917"><ele>1035.0</ele><time>2026-04-25T13:30:30.11Z</time></trkpt><trkpt lat="42.3669317" lon="12.7289283"><ele>1034.0</ele><time>2026-04-25T13:30:32.108Z</time></trkpt><trkpt lat="42.3669333" lon="12.7288383"><ele>1033.0</ele><time>2026-04-25T13:30:33.109Z</time></trkpt><trkpt lat="42.3669417" lon="12.7287433"><ele>1032.0</ele><time>2026-04-25T13:30:34.11Z</time></trkpt><trkpt lat="42.366955" lon="12.72864"><ele>1031.0</ele><time>2026-04-25T13:30:35.107Z</time></trkpt><trkpt lat="42.3669633" lon="12.72854"><ele>1030.0</ele><time>2026-04-25T13:30:36.11Z</time></trkpt><trkpt lat="42.3669667" lon="12.7284433"><ele>1030.0</ele><time>2026-04-25T13:30:37.109Z</time></trkpt><trkpt lat="42.3669617" lon="12.7283533"><ele>1030.0</ele><time>2026-04-25T13:30:38.108Z</time></trkpt><trkpt lat="42.3669483" lon="12.7282117"><ele>1030.0</ele><time>2026-04-25T13:30:40.108Z</time></trkpt><trkpt lat="42.3669333" lon="12.7281167"><ele>1030.0</ele><time>2026-04-25T13:30:42.108Z</time></trkpt><trkpt lat="42.3669317" lon="12.7280267"><ele>1030.0</ele><time>2026-04-25T13:30:44.109Z</time></trkpt><trkpt lat="42.3669383" lon="12.7279417"><ele>1030.0</ele><time>2026-04-25T13:30:46.106Z</time></trkpt><trkpt lat="42.366965" lon="12.7278533"><ele>1030.0</ele><time>2026-04-25T13:30:51.108Z</time></trkpt><trkpt lat="42.3670067" lon="12.7277767"><ele>1031.3333333333333</ele><time>2026-04-25T13:31:04.108Z</time></trkpt><trkpt lat="42.3670533" lon="12.727665"><ele>1032.6666666666665</ele><time>2026-04-25T13:31:07.108Z</time></trkpt><trkpt lat="42.367115" lon="12.7275517"><ele>1034.0</ele><time>2026-04-25T13:31:10.108Z</time></trkpt><trkpt lat="42.3671767" lon="12.7274683"><ele>1035.3333333333333</ele><time>2026-04-25T13:31:12.107Z</time></trkpt><trkpt lat="42.3672217" lon="12.7273967"><ele>1036.6666666666667</ele><time>2026-04-25T13:31:14.107Z</time></trkpt><trkpt lat="42.367305" lon="12.7273633"><ele>1038.0</ele><time>2026-04-25T13:31:34.109Z</time></trkpt><trkpt lat="42.3673783" lon="12.7273717"><ele>1040.8333333333333</ele><time>2026-04-25T13:31:36.108Z</time></trkpt><trkpt lat="42.3674633" lon="12.727355"><ele>1043.6666666666667</ele><time>2026-04-25T13:31:39.108Z</time></trkpt><trkpt lat="42.3675367" lon="12.72728"><ele>1046.5</ele><time>2026-04-25T13:31:42.108Z</time></trkpt><trkpt lat="42.3675833" lon="12.7271717"><ele>1049.3333333333335</ele><time>2026-04-25T13:31:45.108Z</time></trkpt><trkpt lat="42.36763" lon="12.727075"><ele>1052.1666666666667</ele><time>2026-04-25T13:31:58.108Z</time></trkpt><trkpt lat="42.3676933" lon="12.7270333"><ele>1055.0</ele><time>2026-04-25T13:32:00.109Z</time></trkpt><trkpt lat="42.367765" lon="12.727015"><ele>1055.0</ele><time>2026-04-25T13:32:02.109Z</time></trkpt><trkpt lat="42.36784" lon="12.7269867"><ele>1055.0</ele><time>2026-04-25T13:32:04.108Z</time></trkpt><trkpt lat="42.3679083" lon="12.7269233"><ele>1055.0</ele><time>2026-04-25T13:32:06.108Z</time></trkpt><trkpt lat="42.3679717" lon="12.726855"><ele>1055.0</ele><time>2026-04-25T13:32:08.109Z</time></trkpt><trkpt lat="42.368035" lon="12.7268283"><ele>1055.0</ele><time>2026-04-25T13:32:10.11Z</time></trkpt><trkpt lat="42.3681017" lon="12.7267867"><ele>1055.0</ele><time>2026-04-25T13:32:12.111Z</time></trkpt><trkpt lat="42.368145" lon="12.726695"><ele>1057.3333333333335</ele><time>2026-04-25T13:32:14.108Z</time></trkpt><trkpt lat="42.368145" lon="12.7265983"><ele>1059.6666666666667</ele><time>2026-04-25T13:32:16.11Z</time></trkpt><trkpt lat="42.3681483" lon="12.7265033"><ele>1062.0</ele><time>2026-04-25T13:32:18.107Z</time></trkpt><trkpt lat="42.36819" lon="12.72637"><ele>1064.3333333333333</ele><time>2026-04-25T13:32:20.107Z</time></trkpt><trkpt lat="42.3682167" lon="12.7262817"><ele>1066.6666666666665</ele><time>2026-04-25T13:32:21.108Z</time></trkpt><trkpt lat="42.3682517" lon="12.7261867"><ele>1069.0</ele><time>2026-04-25T13:32:22.107Z</time></trkpt><trkpt lat="42.3682967" lon="12.7260883"><ele>1071.1666666666665</ele><time>2026-04-25T13:32:23.107Z</time></trkpt><trkpt lat="42.3683467" lon="12.7259867"><ele>1073.3333333333333</ele><time>2026-04-25T13:32:24.106Z</time></trkpt><trkpt lat="42.3684" lon="12.7258817"><ele>1075.5</ele><time>2026-04-25T13:32:25.107Z</time></trkpt><trkpt lat="42.368455" lon="12.7257833"><ele>1077.6666666666667</ele><time>2026-04-25T13:32:26.107Z</time></trkpt><trkpt lat="42.3685" lon="12.7257017"><ele>1079.8333333333335</ele><time>2026-04-25T13:32:27.108Z</time></trkpt><trkpt lat="42.3685433" lon="12.725635"><ele>1082.0</ele><time>2026-04-25T13:32:28.108Z</time></trkpt><trkpt lat="42.3686217" lon="12.7255183"><ele>1082.0</ele><time>2026-04-25T13:32:30.11Z</time></trkpt><trkpt lat="42.3686933" lon="12.7254267"><ele>1082.0</ele><time>2026-04-25T13:32:32.11Z</time></trkpt><trkpt lat="42.3687567" lon="12.7252933"><ele>1082.0</ele><time>2026-04-25T13:32:34.11Z</time></trkpt><trkpt lat="42.3688133" lon="12.72515"><ele>1082.0</ele><time>2026-04-25T13:32:36.109Z</time></trkpt><trkpt lat="42.3688467" lon="12.72507"><ele>1082.0</ele><time>2026-04-25T13:32:37.11Z</time></trkpt><trkpt lat="42.3688833" lon="12.7249867"><ele>1087.6</ele><time>2026-04-25T13:32:38.11Z</time></trkpt><trkpt lat="42.3689183" lon="12.7249067"><ele>1093.2</ele><time>2026-04-25T13:32:39.11Z</time></trkpt><trkpt lat="42.3689517" lon="12.7248333"><ele>1098.8</ele><time>2026-04-25T13:32:40.11Z</time></trkpt><trkpt lat="42.3690183" lon="12.7246983"><ele>1104.4</ele><time>2026-04-25T13:32:42.108Z</time></trkpt><trkpt lat="42.3690833" lon="12.7245833"><ele>1110.0</ele><time>2026-04-25T13:32:44.106Z</time></trkpt><trkpt lat="42.36916" lon="12.7245033"><ele>1110.0</ele><time>2026-04-25T13:32:46.108Z</time></trkpt><trkpt lat="42.369245" lon="12.724435"><ele>1110.0</ele><time>2026-04-25T13:32:48.11Z</time></trkpt><trkpt lat="42.3693333" lon="12.7243533"><ele>1110.0</ele><time>2026-04-25T13:32:50.107Z</time></trkpt><trkpt lat="42.369425" lon="12.7242817"><ele>1110.0</ele><time>2026-04-25T13:32:52.107Z</time></trkpt><trkpt lat="42.3695267" lon="12.7242017"><ele>1110.0</ele><time>2026-04-25T13:32:54.107Z</time></trkpt><trkpt lat="42.3696" lon="12.72414"><ele>1110.0</ele><time>2026-04-25T13:32:56.11Z</time></trkpt><trkpt lat="42.36958" lon="12.7242383"><ele>1110.0</ele><time>2026-04-25T13:33:17.107Z</time></trkpt><trkpt lat="42.3695067" lon="12.724255"><ele>1110.0</ele><time>2026-04-25T13:33:19.108Z</time></trkpt><trkpt lat="42.3693983" lon="12.7242833"><ele>1110.0</ele><time>2026-04-25T13:33:41.107Z</time></trkpt><trkpt lat="42.3693433" lon="12.7243283"><ele>1110.0</ele><time>2026-04-25T13:33:43.109Z</time></trkpt><trkpt lat="42.3692783" lon="12.7243683"><ele>1110.0</ele><time>2026-04-25T13:33:45.108Z</time></trkpt><trkpt lat="42.3692133" lon="12.7244117"><ele>1110.0</ele><time>2026-04-25T13:33:47.105Z</time></trkpt><trkpt lat="42.36914" lon="12.7244483"><ele>1110.0</ele><time>2026-04-25T13:33:49.107Z</time></trkpt><trkpt lat="42.3690667" lon="12.724465"><ele>1110.0</ele><time>2026-04-25T13:33:51.108Z</time></trkpt><trkpt lat="42.368995" lon="12.72448"><ele>1110.0</ele><time>2026-04-25T13:33:53.105Z</time></trkpt><trkpt lat="42.3689283" lon="12.724515"><ele>1110.0</ele><time>2026-04-25T13:33:55.108Z</time></trkpt><trkpt lat="42.3688567" lon="12.72456"><ele>1110.0</ele><time>2026-04-25T13:33:57.109Z</time></trkpt><trkpt lat="42.36878" lon="12.7245967"><ele>1107.7142857142858</ele><time>2026-04-25T13:33:59.108Z</time></trkpt><trkpt lat="42.3687033" lon="12.7246233"><ele>1105.4285714285716</ele><time>2026-04-25T13:34:01.109Z</time></trkpt><trkpt lat="42.3686367" lon="12.7246333"><ele>1103.142857142857</ele><time>2026-04-25T13:34:03.109Z</time></trkpt><trkpt lat="42.3685767" lon="12.7246633"><ele>1100.857142857143</ele><time>2026-04-25T13:34:05.108Z</time></trkpt><trkpt lat="42.3685283" lon="12.7247183"><ele>1098.5714285714284</ele><time>2026-04-25T13:34:07.108Z</time></trkpt><trkpt lat="42.36849" lon="12.72482"><ele>1096.2857142857142</ele><time>2026-04-25T13:34:10.108Z</time></trkpt><trkpt lat="42.36846" lon="12.72492"><ele>1094.0</ele><time>2026-04-25T13:34:13.107Z</time></trkpt><trkpt lat="42.368435" lon="12.7250183"><ele>1094.0</ele><time>2026-04-25T13:34:16.107Z</time></trkpt><trkpt lat="42.36842" lon="12.7251067"><ele>1094.0</ele><time>2026-04-25T13:34:19.106Z</time></trkpt><trkpt lat="42.3683883" lon="12.7252383"><ele>1094.0</ele><time>2026-04-25T13:34:29.106Z</time></trkpt><trkpt lat="42.36837" lon="12.72533"><ele>1094.0</ele><time>2026-04-25T13:34:32.109Z</time></trkpt><trkpt lat="42.368355" lon="12.725425"><ele>1094.0</ele><time>2026-04-25T13:34:35.107Z</time></trkpt><trkpt lat="42.3683317" lon="12.725535"><ele>1094.0</ele><time>2026-04-25T13:34:38.11Z</time></trkpt><trkpt lat="42.3682717" lon="12.7256217"><ele>1092.0</ele><time>2026-04-25T13:34:41.105Z</time></trkpt><trkpt lat="42.3682033" lon="12.7256983"><ele>1090.0</ele><time>2026-04-25T13:34:44.108Z</time></trkpt><trkpt lat="42.36814" lon="12.7257283"><ele>1088.0</ele><time>2026-04-25T13:34:47.108Z</time></trkpt><trkpt lat="42.3680667" lon="12.725705"><ele>1086.0</ele><time>2026-04-25T13:34:51.108Z</time></trkpt><trkpt lat="42.3680267" lon="12.7256233"><ele>1084.0</ele><time>2026-04-25T13:35:03.109Z</time></trkpt><trkpt lat="42.3680233" lon="12.725475"><ele>1082.0</ele><time>2026-04-25T13:35:23.108Z</time></trkpt><trkpt lat="42.3680083" lon="12.7253833"><ele>1082.0</ele><time>2026-04-25T13:35:32.108Z</time></trkpt><trkpt lat="42.36802" lon="12.7252933"><ele>1082.0</ele><time>2026-04-25T13:35:35.107Z</time></trkpt><trkpt lat="42.3680333" lon="12.72538"><ele>1082.0</ele><time>2026-04-25T13:36:28.108Z</time></trkpt><trkpt lat="42.368025" lon="12.7254717"><ele>1082.0</ele><time>2026-04-25T13:36:33.109Z</time></trkpt><trkpt lat="42.368025" lon="12.7253083"><ele>1082.0</ele><time>2026-04-25T13:37:38.107Z</time></trkpt><trkpt lat="42.3679862" lon="12.7252267"><ele>1082.0</ele><time>2026-04-25T13:37:49.156Z</time></trkpt><trkpt lat="42.3679489" lon="12.7251418"><ele>1085.0</ele><time>2026-04-25T13:40:03.19Z</time></trkpt><trkpt lat="42.3679257" lon="12.7250422"><ele>1088.0</ele><time>2026-04-25T13:40:07.135Z</time></trkpt><trkpt lat="42.3680067" lon="12.7247417"><ele>1091.0</ele><time>2026-04-25T13:40:09.108Z</time></trkpt><trkpt lat="42.3680217" lon="12.7246433"><ele>1094.0</ele><time>2026-04-25T13:40:12.108Z</time></trkpt><trkpt lat="42.36804" lon="12.7245583"><ele>1094.0</ele><time>2026-04-25T13:40:14.108Z</time></trkpt><trkpt lat="42.3680667" lon="12.72446"><ele>1094.0</ele><time>2026-04-25T13:40:17.107Z</time></trkpt><trkpt lat="42.3681033" lon="12.7243883"><ele>1094.0</ele><time>2026-04-25T13:40:24.109Z</time></trkpt><trkpt lat="42.3681333" lon="12.7243083"><ele>1094.0</ele><time>2026-04-25T13:40:32.106Z</time></trkpt><trkpt lat="42.36818" lon="12.7242233"><ele>1094.0</ele><time>2026-04-25T13:40:36.11Z</time></trkpt><trkpt lat="42.36822" lon="12.7241517"><ele>1094.0</ele><time>2026-04-25T13:40:38.105Z</time></trkpt><trkpt lat="42.3681833" lon="12.7242333"><ele>1094.0</ele><time>2026-04-25T13:41:04.108Z</time></trkpt><trkpt lat="42.3682117" lon="12.724155"><ele>1093.0</ele><time>2026-04-25T13:41:25.109Z</time></trkpt><trkpt lat="42.3682846" lon="12.7240792"><ele>1092.0</ele><time>2026-04-25T13:43:00.196Z</time></trkpt><trkpt lat="42.36834" lon="12.7239883"><ele>1091.0</ele><time>2026-04-25T13:43:01.106Z</time></trkpt><trkpt lat="42.3683967" lon="12.7239233"><ele>1090.0</ele><time>2026-04-25T13:43:04.107Z</time></trkpt><trkpt lat="42.3684483" lon="12.72387"><ele>1089.0</ele><time>2026-04-25T13:43:10.107Z</time></trkpt><trkpt lat="42.3684733" lon="12.7237867"><ele>1088.0</ele><time>2026-04-25T13:43:22.107Z</time></trkpt><trkpt lat="42.3685217" lon="12.72371"><ele>1088.0</ele><time>2026-04-25T13:43:25.105Z</time></trkpt><trkpt lat="42.3685583" lon="12.7236133"><ele>1088.0</ele><time>2026-04-25T13:43:28.107Z</time></trkpt><trkpt lat="42.3685933" lon="12.723505"><ele>1088.0</ele><time>2026-04-25T13:43:31.106Z</time></trkpt><trkpt lat="42.368635" lon="12.7234117"><ele>1088.0</ele><time>2026-04-25T13:43:34.105Z</time></trkpt><trkpt lat="42.3686817" lon="12.7233333"><ele>1088.0</ele><time>2026-04-25T13:43:36.106Z</time></trkpt><trkpt lat="42.36873" lon="12.7232617"><ele>1088.0</ele><time>2026-04-25T13:43:39.108Z</time></trkpt><trkpt lat="42.36877" lon="12.7231933"><ele>1087.6666666666667</ele><time>2026-04-25T13:43:55.105Z</time></trkpt><trkpt lat="42.36882" lon="12.7231233"><ele>1087.3333333333335</ele><time>2026-04-25T13:43:58.106Z</time></trkpt><trkpt lat="42.3688833" lon="12.723025"><ele>1087.0</ele><time>2026-04-25T13:44:01.106Z</time></trkpt><trkpt lat="42.36893" lon="12.72295"><ele>1086.6666666666667</ele><time>2026-04-25T13:44:03.107Z</time></trkpt><trkpt lat="42.3690017" lon="12.7228717"><ele>1086.3333333333333</ele><time>2026-04-25T13:44:06.105Z</time></trkpt><trkpt lat="42.3690783" lon="12.7227983"><ele>1086.0</ele><time>2026-04-25T13:44:09.108Z</time></trkpt><trkpt lat="42.3691333" lon="12.7227117"><ele>1086.0</ele><time>2026-04-25T13:44:12.107Z</time></trkpt><trkpt lat="42.3691983" lon="12.7226467"><ele>1086.0</ele><time>2026-04-25T13:44:23.106Z</time></trkpt><trkpt lat="42.36924" lon="12.7225817"><ele>1086.0</ele><time>2026-04-25T13:44:27.106Z</time></trkpt><trkpt lat="42.3692833" lon="12.7225167"><ele>1086.0</ele><time>2026-04-25T13:44:29.106Z</time></trkpt><trkpt lat="42.3693117" lon="12.7224083"><ele>1086.0</ele><time>2026-04-25T13:44:31.106Z</time></trkpt><trkpt lat="42.36934" lon="12.7223033"><ele>1086.0</ele><time>2026-04-25T13:44:33.107Z</time></trkpt><trkpt lat="42.369385" lon="12.7222117"><ele>1086.0</ele><time>2026-04-25T13:44:36.11Z</time></trkpt><trkpt lat="42.3694467" lon="12.7222783"><ele>1086.0</ele><time>2026-04-25T13:44:39.108Z</time></trkpt><trkpt lat="42.369495" lon="12.7223883"><ele>1086.0</ele><time>2026-04-25T13:44:42.107Z</time></trkpt><trkpt lat="42.3694867" lon="12.7224833"><ele>1086.0</ele><time>2026-04-25T13:44:45.107Z</time></trkpt><trkpt lat="42.36946" lon="12.7223717"><ele>1086.0</ele><time>2026-04-25T13:44:59.106Z</time></trkpt><trkpt lat="42.3693867" lon="12.7222833"><ele>1086.0</ele><time>2026-04-25T13:45:01.106Z</time></trkpt><trkpt lat="42.3693" lon="12.7221883"><ele>1086.0</ele><time>2026-04-25T13:45:03.106Z</time></trkpt><trkpt lat="42.3692283" lon="12.7221083"><ele>1086.0</ele><time>2026-04-25T13:45:05.106Z</time></trkpt><trkpt lat="42.3691567" lon="12.7220633"><ele>1086.0</ele><time>2026-04-25T13:45:07.108Z</time></trkpt><trkpt lat="42.3690867" lon="12.7220717"><ele>1086.0</ele><time>2026-04-25T13:45:09.108Z</time></trkpt><trkpt lat="42.36901" lon="12.7220683"><ele>1086.0</ele><time>2026-04-25T13:45:11.107Z</time></trkpt><trkpt lat="42.3689283" lon="12.722035"><ele>1086.0</ele><time>2026-04-25T13:45:13.107Z</time></trkpt><trkpt lat="42.36886" lon="12.7219883"><ele>1086.3333333333333</ele><time>2026-04-25T13:45:15.109Z</time></trkpt><trkpt lat="42.3687983" lon="12.721935"><ele>1086.6666666666667</ele><time>2026-04-25T13:45:17.107Z</time></trkpt><trkpt lat="42.3687133" lon="12.72189"><ele>1087.0</ele><time>2026-04-25T13:45:19.107Z</time></trkpt><trkpt lat="42.368615" lon="12.7218733"><ele>1087.3333333333335</ele><time>2026-04-25T13:45:21.107Z</time></trkpt><trkpt lat="42.36852" lon="12.7218633"><ele>1087.6666666666667</ele><time>2026-04-25T13:45:23.107Z</time></trkpt><trkpt lat="42.3684333" lon="12.72184"><ele>1088.0</ele><time>2026-04-25T13:45:25.105Z</time></trkpt><trkpt lat="42.3683317" lon="12.72179"><ele>1088.0</ele><time>2026-04-25T13:45:27.108Z</time></trkpt><trkpt lat="42.3682367" lon="12.7217217"><ele>1088.0</ele><time>2026-04-25T13:45:29.106Z</time></trkpt><trkpt lat="42.3681417" lon="12.72163"><ele>1088.0</ele><time>2026-04-25T13:45:31.106Z</time></trkpt><trkpt lat="42.3680917" lon="12.72157"><ele>1088.0</ele><time>2026-04-25T13:45:32.107Z</time></trkpt><trkpt lat="42.3680417" lon="12.7215"><ele>1088.0</ele><time>2026-04-25T13:45:33.107Z</time></trkpt><trkpt lat="42.3679883" lon="12.7214183"><ele>1088.0</ele><time>2026-04-25T13:45:34.107Z</time></trkpt><trkpt lat="42.367935" lon="12.7213467"><ele>1086.5</ele><time>2026-04-25T13:45:35.109Z</time></trkpt><trkpt lat="42.36788" lon="12.721275"><ele>1085.0</ele><time>2026-04-25T13:45:36.109Z</time></trkpt><trkpt lat="42.3678267" lon="12.7212117"><ele>1083.5</ele><time>2026-04-25T13:45:37.107Z</time></trkpt><trkpt lat="42.3677683" lon="12.7211467"><ele>1082.0</ele><time>2026-04-25T13:45:38.107Z</time></trkpt><trkpt lat="42.3677117" lon="12.7210767"><ele>1080.5</ele><time>2026-04-25T13:45:39.11Z</time></trkpt><trkpt lat="42.367655" lon="12.7210067"><ele>1079.0</ele><time>2026-04-25T13:45:40.106Z</time></trkpt><trkpt lat="42.3676" lon="12.72094"><ele>1079.0</ele><time>2026-04-25T13:45:41.107Z</time></trkpt><trkpt lat="42.3675533" lon="12.7208667"><ele>1079.0</ele><time>2026-04-25T13:45:42.105Z</time></trkpt><trkpt lat="42.36751" lon="12.7207883"><ele>1079.0</ele><time>2026-04-25T13:45:43.106Z</time></trkpt><trkpt lat="42.36747" lon="12.72072"><ele>1079.0</ele><time>2026-04-25T13:45:44.107Z</time></trkpt><trkpt lat="42.367425" lon="12.7206483"><ele>1079.0</ele><time>2026-04-25T13:45:45.108Z</time></trkpt><trkpt lat="42.3673733" lon="12.7205717"><ele>1079.0</ele><time>2026-04-25T13:45:46.106Z</time></trkpt><trkpt lat="42.3673167" lon="12.720485"><ele>1079.0</ele><time>2026-04-25T13:45:47.106Z</time></trkpt><trkpt lat="42.3672717" lon="12.7203817"><ele>1079.0</ele><time>2026-04-25T13:45:48.108Z</time></trkpt><trkpt lat="42.3672233" lon="12.720275"><ele>1079.0</ele><time>2026-04-25T13:45:49.107Z</time></trkpt><trkpt lat="42.3671767" lon="12.72017"><ele>1079.0</ele><time>2026-04-25T13:45:50.107Z</time></trkpt><trkpt lat="42.3671333" lon="12.720065"><ele>1079.0</ele><time>2026-04-25T13:45:51.108Z</time></trkpt><trkpt lat="42.3670883" lon="12.719965"><ele>1079.0</ele><time>2026-04-25T13:45:52.108Z</time></trkpt><trkpt lat="42.367035" lon="12.71987"><ele>1079.0</ele><time>2026-04-25T13:45:53.106Z</time></trkpt><trkpt lat="42.3669833" lon="12.7197733"><ele>1077.1666666666667</ele><time>2026-04-25T13:45:54.107Z</time></trkpt><trkpt lat="42.3669317" lon="12.7196733"><ele>1075.3333333333335</ele><time>2026-04-25T13:45:55.108Z</time></trkpt><trkpt lat="42.36688" lon="12.7195767"><ele>1073.5</ele><time>2026-04-25T13:45:56.109Z</time></trkpt><trkpt lat="42.3668317" lon="12.7194733"><ele>1071.6666666666667</ele><time>2026-04-25T13:45:57.109Z</time></trkpt><trkpt lat="42.36679" lon="12.7193667"><ele>1069.8333333333333</ele><time>2026-04-25T13:45:58.109Z</time></trkpt><trkpt lat="42.3667417" lon="12.7192683"><ele>1068.0</ele><time>2026-04-25T13:45:59.108Z</time></trkpt><trkpt lat="42.3666867" lon="12.7191817"><ele>1068.0</ele><time>2026-04-25T13:46:00.108Z</time></trkpt><trkpt lat="42.36663" lon="12.7190933"><ele>1068.0</ele><time>2026-04-25T13:46:01.109Z</time></trkpt><trkpt lat="42.36658" lon="12.719"><ele>1068.0</ele><time>2026-04-25T13:46:02.108Z</time></trkpt><trkpt lat="42.366535" lon="12.7189067"><ele>1068.0</ele><time>2026-04-25T13:46:03.109Z</time></trkpt><trkpt lat="42.3664967" lon="12.7188017"><ele>1068.0</ele><time>2026-04-25T13:46:04.106Z</time></trkpt><trkpt lat="42.36646" lon="12.7186917"><ele>1068.0</ele><time>2026-04-25T13:46:05.109Z</time></trkpt><trkpt lat="42.366425" lon="12.71858"><ele>1070.3333333333333</ele><time>2026-04-25T13:46:06.108Z</time></trkpt><trkpt lat="42.3663933" lon="12.7184717"><ele>1072.6666666666667</ele><time>2026-04-25T13:46:07.11Z</time></trkpt><trkpt lat="42.3663667" lon="12.718365"><ele>1075.0</ele><time>2026-04-25T13:46:08.108Z</time></trkpt><trkpt lat="42.366335" lon="12.7182617"><ele>1077.3333333333335</ele><time>2026-04-25T13:46:09.107Z</time></trkpt><trkpt lat="42.3663017" lon="12.718155"><ele>1079.6666666666667</ele><time>2026-04-25T13:46:10.108Z</time></trkpt><trkpt lat="42.366265" lon="12.7180483"><ele>1082.0</ele><time>2026-04-25T13:46:11.107Z</time></trkpt><trkpt lat="42.36623" lon="12.7179433"><ele>1076.8333333333335</ele><time>2026-04-25T13:46:12.106Z</time></trkpt><trkpt lat="42.3662033" lon="12.7178283"><ele>1071.6666666666667</ele><time>2026-04-25T13:46:13.106Z</time></trkpt><trkpt lat="42.36617" lon="12.7177217"><ele>1066.5</ele><time>2026-04-25T13:46:14.107Z</time></trkpt><trkpt lat="42.3661367" lon="12.7176133"><ele>1061.3333333333333</ele><time>2026-04-25T13:46:15.108Z</time></trkpt><trkpt lat="42.3661" lon="12.7175183"><ele>1056.1666666666665</ele><time>2026-04-25T13:46:16.107Z</time></trkpt><trkpt lat="42.3660617" lon="12.7174217"><ele>1051.0</ele><time>2026-04-25T13:46:17.109Z</time></trkpt><trkpt lat="42.366025" lon="12.71733"><ele>1051.0</ele><time>2026-04-25T13:46:18.109Z</time></trkpt><trkpt lat="42.3659833" lon="12.7172567"><ele>1051.0</ele><time>2026-04-25T13:46:19.107Z</time></trkpt><trkpt lat="42.3659333" lon="12.7171883"><ele>1051.0</ele><time>2026-04-25T13:46:20.107Z</time></trkpt><trkpt lat="42.365865" lon="12.7171417"><ele>1051.0</ele><time>2026-04-25T13:46:21.108Z</time></trkpt><trkpt lat="42.3658017" lon="12.717095"><ele>1051.0</ele><time>2026-04-25T13:46:22.108Z</time></trkpt><trkpt lat="42.3657433" lon="12.717045"><ele>1051.0</ele><time>2026-04-25T13:46:23.106Z</time></trkpt><trkpt lat="42.365685" lon="12.7169967"><ele>1051.0</ele><time>2026-04-25T13:46:24.106Z</time></trkpt><trkpt lat="42.36563" lon="12.7169333"><ele>1048.1666666666665</ele><time>2026-04-25T13:46:25.107Z</time></trkpt><trkpt lat="42.365585" lon="12.7168583"><ele>1045.3333333333333</ele><time>2026-04-25T13:46:26.106Z</time></trkpt><trkpt lat="42.3655367" lon="12.71678"><ele>1042.5</ele><time>2026-04-25T13:46:27.107Z</time></trkpt><trkpt lat="42.36549" lon="12.7166967"><ele>1039.6666666666667</ele><time>2026-04-25T13:46:28.108Z</time></trkpt><trkpt lat="42.3654383" lon="12.7166117"><ele>1036.8333333333335</ele><time>2026-04-25T13:46:29.105Z</time></trkpt><trkpt lat="42.3653917" lon="12.7165267"><ele>1034.0</ele><time>2026-04-25T13:46:30.107Z</time></trkpt><trkpt lat="42.3653467" lon="12.7164367"><ele>1034.0</ele><time>2026-04-25T13:46:31.106Z</time></trkpt><trkpt lat="42.365305" lon="12.716345"><ele>1034.0</ele><time>2026-04-25T13:46:32.107Z</time></trkpt><trkpt lat="42.3652633" lon="12.7162583"><ele>1034.0</ele><time>2026-04-25T13:46:33.106Z</time></trkpt><trkpt lat="42.3652233" lon="12.7161717"><ele>1034.0</ele><time>2026-04-25T13:46:34.107Z</time></trkpt><trkpt lat="42.3651883" lon="12.7160833"><ele>1034.0</ele><time>2026-04-25T13:46:35.106Z</time></trkpt><trkpt lat="42.3651567" lon="12.7159933"><ele>1034.0</ele><time>2026-04-25T13:46:36.109Z</time></trkpt><trkpt lat="42.3651267" lon="12.715895"><ele>1036.0</ele><time>2026-04-25T13:46:37.109Z</time></trkpt><trkpt lat="42.365095" lon="12.71579"><ele>1038.0</ele><time>2026-04-25T13:46:38.105Z</time></trkpt><trkpt lat="42.3650633" lon="12.7156883"><ele>1040.0</ele><time>2026-04-25T13:46:39.107Z</time></trkpt><trkpt lat="42.365035" lon="12.71559"><ele>1042.0</ele><time>2026-04-25T13:46:40.106Z</time></trkpt><trkpt lat="42.3650083" lon="12.715495"><ele>1044.0</ele><time>2026-04-25T13:46:41.106Z</time></trkpt><trkpt lat="42.3649867" lon="12.71541"><ele>1046.0</ele><time>2026-04-25T13:46:42.106Z</time></trkpt><trkpt lat="42.3649433" lon="12.7152567"><ele>1047.0</ele><time>2026-04-25T13:46:44.107Z</time></trkpt><trkpt lat="42.36492" lon="12.7151767"><ele>1048.0</ele><time>2026-04-25T13:46:45.107Z</time></trkpt><trkpt lat="42.3648967" lon="12.7150933"><ele>1049.0</ele><time>2026-04-25T13:46:46.108Z</time></trkpt><trkpt lat="42.3648683" lon="12.7150167"><ele>1050.0</ele><time>2026-04-25T13:46:47.107Z</time></trkpt><trkpt lat="42.3648367" lon="12.7148583"><ele>1051.0</ele><time>2026-04-25T13:46:49.108Z</time></trkpt><trkpt lat="42.364825" lon="12.714765"><ele>1052.0</ele><time>2026-04-25T13:46:50.108Z</time></trkpt><trkpt lat="42.364815" lon="12.7146767"><ele>1052.0</ele><time>2026-04-25T13:46:51.109Z</time></trkpt><trkpt lat="42.3648017" lon="12.7145217"><ele>1052.0</ele><time>2026-04-25T13:46:53.108Z</time></trkpt><trkpt lat="42.36479" lon="12.7143683"><ele>1052.0</ele><time>2026-04-25T13:46:55.108Z</time></trkpt><trkpt lat="42.3647683" lon="12.71424"><ele>1052.0</ele><time>2026-04-25T13:46:57.107Z</time></trkpt><trkpt lat="42.3647583" lon="12.7141067"><ele>1052.0</ele><time>2026-04-25T13:46:59.107Z</time></trkpt><trkpt lat="42.3647667" lon="12.7139283"><ele>1051.0</ele><time>2026-04-25T13:47:01.105Z</time></trkpt><trkpt lat="42.3647817" lon="12.7138333"><ele>1050.0</ele><time>2026-04-25T13:47:02.108Z</time></trkpt><trkpt lat="42.364785" lon="12.713725"><ele>1049.0</ele><time>2026-04-25T13:47:03.109Z</time></trkpt><trkpt lat="42.3647917" lon="12.71362"><ele>1048.0</ele><time>2026-04-25T13:47:04.107Z</time></trkpt><trkpt lat="42.3648033" lon="12.7135217"><ele>1047.0</ele><time>2026-04-25T13:47:05.107Z</time></trkpt><trkpt lat="42.3648167" lon="12.7134283"><ele>1046.0</ele><time>2026-04-25T13:47:06.108Z</time></trkpt><trkpt lat="42.3648267" lon="12.7133417"><ele>1045.0</ele><time>2026-04-25T13:47:07.107Z</time></trkpt><trkpt lat="42.36483" lon="12.7131783"><ele>1043.6666666666665</ele><time>2026-04-25T13:47:09.11Z</time></trkpt><trkpt lat="42.3648433" lon="12.7130117"><ele>1042.3333333333333</ele><time>2026-04-25T13:47:11.109Z</time></trkpt><trkpt lat="42.3648517" lon="12.7129233"><ele>1041.0</ele><time>2026-04-25T13:47:12.109Z</time></trkpt><trkpt lat="42.3648583" lon="12.712835"><ele>1039.6666666666667</ele><time>2026-04-25T13:47:13.109Z</time></trkpt><trkpt lat="42.364865" lon="12.7127433"><ele>1038.3333333333335</ele><time>2026-04-25T13:47:14.11Z</time></trkpt><trkpt lat="42.364875" lon="12.71265"><ele>1037.0</ele><time>2026-04-25T13:47:15.109Z</time></trkpt><trkpt lat="42.36489" lon="12.712555"><ele>1036.3333333333335</ele><time>2026-04-25T13:47:16.108Z</time></trkpt><trkpt lat="42.3649033" lon="12.712465"><ele>1035.6666666666667</ele><time>2026-04-25T13:47:17.107Z</time></trkpt><trkpt lat="42.3649183" lon="12.7123783"><ele>1035.0</ele><time>2026-04-25T13:47:18.106Z</time></trkpt><trkpt lat="42.3649367" lon="12.7122917"><ele>1034.3333333333333</ele><time>2026-04-25T13:47:19.107Z</time></trkpt><trkpt lat="42.3649833" lon="12.7121633"><ele>1033.6666666666665</ele><time>2026-04-25T13:47:21.107Z</time></trkpt><trkpt lat="42.3650467" lon="12.7120533"><ele>1033.0</ele><time>2026-04-25T13:47:23.108Z</time></trkpt><trkpt lat="42.3651217" lon="12.7119617"><ele>1033.0</ele><time>2026-04-25T13:47:25.18Z</time></trkpt><trkpt lat="42.365195" lon="12.7118617"><ele>1033.0</ele><time>2026-04-25T13:47:27.11Z</time></trkpt><trkpt lat="42.3652583" lon="12.7118083"><ele>1033.0</ele><time>2026-04-25T13:47:30.107Z</time></trkpt><trkpt lat="42.3651733" lon="12.7117767"><ele>1033.0</ele><time>2026-04-25T13:48:50.108Z</time></trkpt><trkpt lat="42.3651033" lon="12.7118183"><ele>1033.0</ele><time>2026-04-25T13:48:53.107Z</time></trkpt><trkpt lat="42.3650417" lon="12.7119"><ele>1033.0</ele><time>2026-04-25T13:48:55.108Z</time></trkpt><trkpt lat="42.3649467" lon="12.7119867"><ele>1033.0</ele><time>2026-04-25T13:48:57.108Z</time></trkpt><trkpt lat="42.3649017" lon="12.712055"><ele>1033.0</ele><time>2026-04-25T13:48:58.107Z</time></trkpt><trkpt lat="42.3648533" lon="12.7121367"><ele>1033.0</ele><time>2026-04-25T13:48:59.107Z</time></trkpt><trkpt lat="42.3648017" lon="12.7122217"><ele>1033.0</ele><time>2026-04-25T13:49:00.108Z</time></trkpt><trkpt lat="42.3647433" lon="12.7122967"><ele>1033.0</ele><time>2026-04-25T13:49:01.108Z</time></trkpt><trkpt lat="42.36468" lon="12.712365"><ele>1033.0</ele><time>2026-04-25T13:49:02.108Z</time></trkpt><trkpt lat="42.3646133" lon="12.7124283"><ele>1031.6</ele><time>2026-04-25T13:49:03.106Z</time></trkpt><trkpt lat="42.36454" lon="12.7124883"><ele>1030.1999999999998</ele><time>2026-04-25T13:49:04.107Z</time></trkpt><trkpt lat="42.36446" lon="12.7125533"><ele>1028.8</ele><time>2026-04-25T13:49:05.107Z</time></trkpt><trkpt lat="42.364385" lon="12.71263"><ele>1027.3999999999999</ele><time>2026-04-25T13:49:06.107Z</time></trkpt><trkpt lat="42.3643117" lon="12.7127233"><ele>1026.0</ele><time>2026-04-25T13:49:07.107Z</time></trkpt><trkpt lat="42.3642417" lon="12.7128267"><ele>1024.6</ele><time>2026-04-25T13:49:08.107Z</time></trkpt><trkpt lat="42.3641767" lon="12.71294"><ele>1023.1999999999999</ele><time>2026-04-25T13:49:09.109Z</time></trkpt><trkpt lat="42.364115" lon="12.7130533"><ele>1021.8000000000001</ele><time>2026-04-25T13:49:10.107Z</time></trkpt><trkpt lat="42.3640583" lon="12.7131567"><ele>1020.4000000000001</ele><time>2026-04-25T13:49:11.107Z</time></trkpt><trkpt lat="42.364005" lon="12.7132533"><ele>1019.0</ele><time>2026-04-25T13:49:12.106Z</time></trkpt><trkpt lat="42.3639567" lon="12.7133417"><ele>1019.0</ele><time>2026-04-25T13:49:13.108Z</time></trkpt><trkpt lat="42.3639133" lon="12.71343"><ele>1019.0000000000001</ele><time>2026-04-25T13:49:14.107Z</time></trkpt><trkpt lat="42.3638783" lon="12.7135133"><ele>1019.0000000000001</ele><time>2026-04-25T13:49:15.107Z</time></trkpt><trkpt lat="42.3638267" lon="12.7136583"><ele>1019.0</ele><time>2026-04-25T13:49:17.108Z</time></trkpt><trkpt lat="42.3637967" lon="12.7138033"><ele>1019.0</ele><time>2026-04-25T13:49:19.106Z</time></trkpt><trkpt lat="42.36379" lon="12.7139217"><ele>1019.0000000000001</ele><time>2026-04-25T13:49:21.11Z</time></trkpt><trkpt lat="42.36382" lon="12.7140283"><ele>1019.0</ele><time>2026-04-25T13:49:24.108Z</time></trkpt><trkpt lat="42.36387" lon="12.7142033"><ele>1019.0</ele><time>2026-04-25T13:52:56.109Z</time></trkpt><trkpt lat="42.363905" lon="12.7143017"><ele>1019.0</ele><time>2026-04-25T13:52:57.108Z</time></trkpt><trkpt lat="42.3639317" lon="12.7143983"><ele>1019.0000000000001</ele><time>2026-04-25T13:52:58.109Z</time></trkpt><trkpt lat="42.36396" lon="12.7144833"><ele>1019.0</ele><time>2026-04-25T13:52:59.107Z</time></trkpt><trkpt lat="42.3639867" lon="12.71457"><ele>1018.7142857142858</ele><time>2026-04-25T13:53:00.109Z</time></trkpt><trkpt lat="42.3640183" lon="12.714655"><ele>1018.4285714285714</ele><time>2026-04-25T13:53:01.109Z</time></trkpt><trkpt lat="42.3640417" lon="12.714745"><ele>1018.1428571428571</ele><time>2026-04-25T13:53:02.107Z</time></trkpt><trkpt lat="42.36406" lon="12.7148517"><ele>1017.8571428571429</ele><time>2026-04-25T13:53:03.109Z</time></trkpt><trkpt lat="42.364065" lon="12.7149567"><ele>1017.5714285714284</ele><time>2026-04-25T13:53:04.109Z</time></trkpt><trkpt lat="42.3640667" lon="12.7150583"><ele>1017.2857142857142</ele><time>2026-04-25T13:53:05.108Z</time></trkpt><trkpt lat="42.36407" lon="12.7151467"><ele>1017.0</ele><time>2026-04-25T13:53:06.109Z</time></trkpt><trkpt lat="42.364075" lon="12.7152517"><ele>1015.0</ele><time>2026-04-25T13:53:07.109Z</time></trkpt><trkpt lat="42.3640883" lon="12.7153733"><ele>1013.0</ele><time>2026-04-25T13:53:08.108Z</time></trkpt><trkpt lat="42.3641" lon="12.7154933"><ele>1011.0</ele><time>2026-04-25T13:53:09.108Z</time></trkpt><trkpt lat="42.364115" lon="12.7156067"><ele>1009.0</ele><time>2026-04-25T13:53:10.108Z</time></trkpt><trkpt lat="42.3641367" lon="12.7157233"><ele>1007.0</ele><time>2026-04-25T13:53:11.109Z</time></trkpt><trkpt lat="42.364155" lon="12.715845"><ele>1005.0</ele><time>2026-04-25T13:53:12.107Z</time></trkpt><trkpt lat="42.36417" lon="12.715965"><ele>1003.5</ele><time>2026-04-25T13:53:13.107Z</time></trkpt><trkpt lat="42.3641833" lon="12.71608"><ele>1002.0</ele><time>2026-04-25T13:53:14.107Z</time></trkpt><trkpt lat="42.3641983" lon="12.71619"><ele>1000.5</ele><time>2026-04-25T13:53:15.107Z</time></trkpt><trkpt lat="42.3642133" lon="12.7162917"><ele>999.0</ele><time>2026-04-25T13:53:16.105Z</time></trkpt><trkpt lat="42.364225" lon="12.7164"><ele>997.5</ele><time>2026-04-25T13:53:17.107Z</time></trkpt><trkpt lat="42.3642317" lon="12.7164917"><ele>996.0</ele><time>2026-04-25T13:53:18.106Z</time></trkpt><trkpt lat="42.3642333" lon="12.7165817"><ele>996.0</ele><time>2026-04-25T13:53:19.105Z</time></trkpt><trkpt lat="42.364235" lon="12.716675"><ele>995.9999999999999</ele><time>2026-04-25T13:53:20.107Z</time></trkpt><trkpt lat="42.3642417" lon="12.716765"><ele>996.0</ele><time>2026-04-25T13:53:21.107Z</time></trkpt><trkpt lat="42.3642533" lon="12.7168567"><ele>996.0</ele><time>2026-04-25T13:53:22.109Z</time></trkpt><trkpt lat="42.3642717" lon="12.716945"><ele>995.9999999999999</ele><time>2026-04-25T13:53:23.109Z</time></trkpt><trkpt lat="42.3642933" lon="12.71704"><ele>996.0</ele><time>2026-04-25T13:53:24.108Z</time></trkpt><trkpt lat="42.3643167" lon="12.7171533"><ele>996.0</ele><time>2026-04-25T13:53:25.108Z</time></trkpt><trkpt lat="42.36434" lon="12.7172667"><ele>994.5</ele><time>2026-04-25T13:53:26.108Z</time></trkpt><trkpt lat="42.364365" lon="12.7173783"><ele>993.0</ele><time>2026-04-25T13:53:27.108Z</time></trkpt><trkpt lat="42.3643967" lon="12.7174833"><ele>991.5</ele><time>2026-04-25T13:53:28.108Z</time></trkpt><trkpt lat="42.3644333" lon="12.7175833"><ele>990.0</ele><time>2026-04-25T13:53:29.107Z</time></trkpt><trkpt lat="42.364475" lon="12.7176683"><ele>988.5</ele><time>2026-04-25T13:53:30.107Z</time></trkpt><trkpt lat="42.3645217" lon="12.7177383"><ele>987.0</ele><time>2026-04-25T13:53:31.109Z</time></trkpt><trkpt lat="42.3645733" lon="12.7177983"><ele>988.4285714285714</ele><time>2026-04-25T13:53:32.108Z</time></trkpt><trkpt lat="42.364635" lon="12.717825"><ele>989.8571428571429</ele><time>2026-04-25T13:53:33.11Z</time></trkpt><trkpt lat="42.3647083" lon="12.7178417"><ele>991.2857142857142</ele><time>2026-04-25T13:53:34.108Z</time></trkpt><trkpt lat="42.36479" lon="12.7178733"><ele>992.7142857142857</ele><time>2026-04-25T13:53:35.107Z</time></trkpt><trkpt lat="42.36486" lon="12.7179283"><ele>994.1428571428571</ele><time>2026-04-25T13:53:36.109Z</time></trkpt><trkpt lat="42.36492" lon="12.7179833"><ele>995.5714285714284</ele><time>2026-04-25T13:53:37.109Z</time></trkpt><trkpt lat="42.3649733" lon="12.7180417"><ele>996.9999999999999</ele><time>2026-04-25T13:53:38.109Z</time></trkpt><trkpt lat="42.3650367" lon="12.7181783"><ele>996.9999999999999</ele><time>2026-04-25T13:53:40.108Z</time></trkpt><trkpt lat="42.3650617" lon="12.7183017"><ele>997.0</ele><time>2026-04-25T13:53:42.108Z</time></trkpt><trkpt lat="42.3650617" lon="12.71839"><ele>997.0</ele><time>2026-04-25T13:53:43.109Z</time></trkpt><trkpt lat="42.3650717" lon="12.7185417"><ele>997.0</ele><time>2026-04-25T13:53:45.108Z</time></trkpt><trkpt lat="42.3650817" lon="12.7186267"><ele>996.9999999999999</ele><time>2026-04-25T13:53:46.107Z</time></trkpt><trkpt lat="42.3650917" lon="12.7187183"><ele>997.0</ele><time>2026-04-25T13:53:47.108Z</time></trkpt><trkpt lat="42.36511" lon="12.718805"><ele>995.8571428571427</ele><time>2026-04-25T13:53:48.107Z</time></trkpt><trkpt lat="42.3651367" lon="12.7188867"><ele>994.7142857142857</ele><time>2026-04-25T13:53:49.109Z</time></trkpt><trkpt lat="42.3651733" lon="12.71898"><ele>993.5714285714284</ele><time>2026-04-25T13:53:50.107Z</time></trkpt><trkpt lat="42.36521" lon="12.71907"><ele>992.4285714285713</ele><time>2026-04-25T13:53:51.107Z</time></trkpt><trkpt lat="42.365255" lon="12.7191517"><ele>991.2857142857142</ele><time>2026-04-25T13:53:52.107Z</time></trkpt><trkpt lat="42.3652933" lon="12.7192433"><ele>990.1428571428571</ele><time>2026-04-25T13:53:53.106Z</time></trkpt><trkpt lat="42.365335" lon="12.71933"><ele>989.0</ele><time>2026-04-25T13:53:54.107Z</time></trkpt><trkpt lat="42.365365" lon="12.7194233"><ele>987.1666666666667</ele><time>2026-04-25T13:53:55.106Z</time></trkpt><trkpt lat="42.3653933" lon="12.7195167"><ele>985.3333333333334</ele><time>2026-04-25T13:53:56.107Z</time></trkpt><trkpt lat="42.36544" lon="12.7196683"><ele>983.5</ele><time>2026-04-25T13:53:58.106Z</time></trkpt><trkpt lat="42.3654517" lon="12.7197883"><ele>981.6666666666667</ele><time>2026-04-25T13:54:00.108Z</time></trkpt><trkpt lat="42.365445" lon="12.7198733"><ele>979.8333333333334</ele><time>2026-04-25T13:54:02.105Z</time></trkpt><trkpt lat="42.3654367" lon="12.72"><ele>978.0</ele><time>2026-04-25T13:54:07.106Z</time></trkpt><trkpt lat="42.36545" lon="12.72013"><ele>975.4</ele><time>2026-04-25T13:54:11.106Z</time></trkpt><trkpt lat="42.3654633" lon="12.72024"><ele>972.8</ele><time>2026-04-25T13:54:13.105Z</time></trkpt><trkpt lat="42.3655183" lon="12.7203617"><ele>970.2</ele><time>2026-04-25T13:54:15.107Z</time></trkpt><trkpt lat="42.3656067" lon="12.7204783"><ele>967.6</ele><time>2026-04-25T13:54:17.107Z</time></trkpt><trkpt lat="42.365685" lon="12.7206083"><ele>965.0</ele><time>2026-04-25T13:54:19.108Z</time></trkpt><trkpt lat="42.3657533" lon="12.72073"><ele>970.6</ele><time>2026-04-25T13:54:21.109Z</time></trkpt><trkpt lat="42.3657633" lon="12.7208633"><ele>976.2</ele><time>2026-04-25T13:54:23.108Z</time></trkpt><trkpt lat="42.36575" lon="12.720955"><ele>981.8</ele><time>2026-04-25T13:54:25.107Z</time></trkpt><trkpt lat="42.3657017" lon="12.7211217"><ele>987.4</ele><time>2026-04-25T13:54:27.106Z</time></trkpt><trkpt lat="42.3656917" lon="12.7212117"><ele>993.0</ele><time>2026-04-25T13:54:28.107Z</time></trkpt><trkpt lat="42.3657033" lon="12.7213783"><ele>993.0</ele><time>2026-04-25T13:54:30.107Z</time></trkpt><trkpt lat="42.36572" lon="12.7214667"><ele>993.0</ele><time>2026-04-25T13:54:31.107Z</time></trkpt><trkpt lat="42.3657167" lon="12.7216483"><ele>993.0</ele><time>2026-04-25T13:54:33.109Z</time></trkpt><trkpt lat="42.3656883" lon="12.72174"><ele>993.0</ele><time>2026-04-25T13:54:34.108Z</time></trkpt><trkpt lat="42.365655" lon="12.72182"><ele>993.0</ele><time>2026-04-25T13:54:35.11Z</time></trkpt><trkpt lat="42.3656" lon="12.721885"><ele>993.0</ele><time>2026-04-25T13:54:36.109Z</time></trkpt><trkpt lat="42.3655517" lon="12.7219517"><ele>988.8333333333334</ele><time>2026-04-25T13:54:37.11Z</time></trkpt><trkpt lat="42.3654967" lon="12.7220133"><ele>984.6666666666667</ele><time>2026-04-25T13:54:38.108Z</time></trkpt><trkpt lat="42.3654467" lon="12.7220817"><ele>980.5</ele><time>2026-04-25T13:54:39.109Z</time></trkpt><trkpt lat="42.3654033" lon="12.7221467"><ele>976.3333333333334</ele><time>2026-04-25T13:54:40.108Z</time></trkpt><trkpt lat="42.3653567" lon="12.7222733"><ele>972.1666666666667</ele><time>2026-04-25T13:54:42.107Z</time></trkpt><trkpt lat="42.3653483" lon="12.7223583"><ele>968.0</ele><time>2026-04-25T13:54:43.106Z</time></trkpt><trkpt lat="42.3653517" lon="12.7225"><ele>968.0</ele><time>2026-04-25T13:54:45.109Z</time></trkpt><trkpt lat="42.3653967" lon="12.7226283"><ele>968.0</ele><time>2026-04-25T13:54:47.107Z</time></trkpt><trkpt lat="42.3654767" lon="12.7227267"><ele>968.0</ele><time>2026-04-25T13:54:49.106Z</time></trkpt><trkpt lat="42.3655833" lon="12.7227783"><ele>968.0</ele><time>2026-04-25T13:54:51.108Z</time></trkpt><trkpt lat="42.3656667" lon="12.7228583"><ele>968.0</ele><time>2026-04-25T13:54:53.106Z</time></trkpt><trkpt lat="42.3657233" lon="12.7229517"><ele>969.5999999999999</ele><time>2026-04-25T13:54:55.107Z</time></trkpt><trkpt lat="42.3657817" lon="12.7230467"><ele>971.1999999999999</ele><time>2026-04-25T13:54:57.107Z</time></trkpt><trkpt lat="42.36588" lon="12.7231317"><ele>972.8</ele><time>2026-04-25T13:54:59.108Z</time></trkpt><trkpt lat="42.3659717" lon="12.723185"><ele>974.4</ele><time>2026-04-25T13:55:01.105Z</time></trkpt><trkpt lat="42.36604" lon="12.7232383"><ele>976.0</ele><time>2026-04-25T13:55:03.107Z</time></trkpt><trkpt lat="42.3660633" lon="12.72332"><ele>975.9999999999999</ele><time>2026-04-25T13:55:05.107Z</time></trkpt><trkpt lat="42.3660233" lon="12.723415"><ele>976.0</ele><time>2026-04-25T13:55:07.106Z</time></trkpt><trkpt lat="42.365975" lon="12.7234733"><ele>976.0</ele><time>2026-04-25T13:55:08.107Z</time></trkpt><trkpt lat="42.3659183" lon="12.7235467"><ele>976.0</ele><time>2026-04-25T13:55:09.106Z</time></trkpt><trkpt lat="42.3658617" lon="12.7236133"><ele>975.9999999999999</ele><time>2026-04-25T13:55:10.107Z</time></trkpt><trkpt lat="42.3658167" lon="12.7236733"><ele>976.0</ele><time>2026-04-25T13:55:11.108Z</time></trkpt><trkpt lat="42.365745" lon="12.7237633"><ele>975.9999999999999</ele><time>2026-04-25T13:55:13.109Z</time></trkpt><trkpt lat="42.3657133" lon="12.7238533"><ele>976.0</ele><time>2026-04-25T13:55:15.109Z</time></trkpt><trkpt lat="42.36572" lon="12.7239967"><ele>976.0</ele><time>2026-04-25T13:55:17.108Z</time></trkpt><trkpt lat="42.36574" lon="12.7240917"><ele>976.0</ele><time>2026-04-25T13:55:18.109Z</time></trkpt><trkpt lat="42.36576" lon="12.7241817"><ele>975.9999999999999</ele><time>2026-04-25T13:55:19.109Z</time></trkpt><trkpt lat="42.3657817" lon="12.7242683"><ele>976.0</ele><time>2026-04-25T13:55:20.108Z</time></trkpt><trkpt lat="42.3658017" lon="12.72436"><ele>976.4999999999999</ele><time>2026-04-25T13:55:21.109Z</time></trkpt><trkpt lat="42.365815" lon="12.7244517"><ele>977.0</ele><time>2026-04-25T13:55:22.107Z</time></trkpt><trkpt lat="42.3658217" lon="12.7245383"><ele>977.5</ele><time>2026-04-25T13:55:23.109Z</time></trkpt><trkpt lat="42.36582" lon="12.7246967"><ele>978.0</ele><time>2026-04-25T13:55:25.109Z</time></trkpt><trkpt lat="42.3657817" lon="12.72485"><ele>978.4999999999999</ele><time>2026-04-25T13:55:27.109Z</time></trkpt><trkpt lat="42.365755" lon="12.7249367"><ele>979.0</ele><time>2026-04-25T13:55:28.106Z</time></trkpt><trkpt lat="42.36573" lon="12.7250283"><ele>979.0</ele><time>2026-04-25T13:55:29.108Z</time></trkpt><trkpt lat="42.3657067" lon="12.7251167"><ele>979.0</ele><time>2026-04-25T13:55:30.108Z</time></trkpt><trkpt lat="42.365685" lon="12.7251983"><ele>979.0</ele><time>2026-04-25T13:55:31.109Z</time></trkpt><trkpt lat="42.3656617" lon="12.7252783"><ele>979.0</ele><time>2026-04-25T13:55:32.107Z</time></trkpt><trkpt lat="42.3656333" lon="12.7253633"><ele>979.0</ele><time>2026-04-25T13:55:33.107Z</time></trkpt><trkpt lat="42.365605" lon="12.7254467"><ele>979.0</ele><time>2026-04-25T13:55:34.107Z</time></trkpt><trkpt lat="42.3655733" lon="12.7255283"><ele>979.0</ele><time>2026-04-25T13:55:35.108Z</time></trkpt><trkpt lat="42.3655383" lon="12.725615"><ele>978.4285714285713</ele><time>2026-04-25T13:55:36.108Z</time></trkpt><trkpt lat="42.36551" lon="12.725705"><ele>977.8571428571429</ele><time>2026-04-25T13:55:37.108Z</time></trkpt><trkpt lat="42.3654767" lon="12.7258017"><ele>977.2857142857142</ele><time>2026-04-25T13:55:38.109Z</time></trkpt><trkpt lat="42.3654383" lon="12.7258983"><ele>976.7142857142857</ele><time>2026-04-25T13:55:39.11Z</time></trkpt><trkpt lat="42.3654067" lon="12.7259867"><ele>976.1428571428571</ele><time>2026-04-25T13:55:40.11Z</time></trkpt><trkpt lat="42.3653783" lon="12.7260683"><ele>975.5714285714286</ele><time>2026-04-25T13:55:41.107Z</time></trkpt><trkpt lat="42.3653567" lon="12.72615"><ele>975.0</ele><time>2026-04-25T13:55:42.108Z</time></trkpt><trkpt lat="42.3653333" lon="12.7262333"><ele>975.0</ele><time>2026-04-25T13:55:43.108Z</time></trkpt><trkpt lat="42.365315" lon="12.7263217"><ele>974.9999999999999</ele><time>2026-04-25T13:55:44.109Z</time></trkpt><trkpt lat="42.3653017" lon="12.726405"><ele>975.0</ele><time>2026-04-25T13:55:45.11Z</time></trkpt><trkpt lat="42.3652883" lon="12.7264967"><ele>975.0</ele><time>2026-04-25T13:55:46.109Z</time></trkpt><trkpt lat="42.3652783" lon="12.72659"><ele>974.9999999999999</ele><time>2026-04-25T13:55:47.109Z</time></trkpt><trkpt lat="42.3652717" lon="12.72668"><ele>975.0</ele><time>2026-04-25T13:55:48.107Z</time></trkpt><trkpt lat="42.3652683" lon="12.7267683"><ele>975.0</ele><time>2026-04-25T13:55:49.108Z</time></trkpt><trkpt lat="42.3652617" lon="12.72686"><ele>976.75</ele><time>2026-04-25T13:55:50.108Z</time></trkpt><trkpt lat="42.3652517" lon="12.72702"><ele>978.5</ele><time>2026-04-25T13:55:52.108Z</time></trkpt><trkpt lat="42.3652567" lon="12.727155"><ele>980.25</ele><time>2026-04-25T13:55:54.109Z</time></trkpt><trkpt lat="42.3652433" lon="12.7273317"><ele>982.0</ele><time>2026-04-25T13:55:56.108Z</time></trkpt><trkpt lat="42.3652517" lon="12.7274817"><ele>982.0</ele><time>2026-04-25T13:55:58.11Z</time></trkpt><trkpt lat="42.3652633" lon="12.7275683"><ele>982.0</ele><time>2026-04-25T13:56:00.107Z</time></trkpt><trkpt lat="42.3652867" lon="12.727665"><ele>982.0</ele><time>2026-04-25T13:56:07.108Z</time></trkpt><trkpt lat="42.3652883" lon="12.7277967"><ele>982.0</ele><time>2026-04-25T13:56:09.111Z</time></trkpt><trkpt lat="42.3652483" lon="12.72789"><ele>982.0</ele><time>2026-04-25T13:56:12.106Z</time></trkpt><trkpt lat="42.3651233" lon="12.7279633"><ele>984.8333333333333</ele><time>2026-04-25T13:56:52.109Z</time></trkpt><trkpt lat="42.3650267" lon="12.72798"><ele>987.6666666666666</ele><time>2026-04-25T13:56:54.107Z</time></trkpt><trkpt lat="42.3649633" lon="12.72799"><ele>990.5</ele><time>2026-04-25T13:56:55.109Z</time></trkpt><trkpt lat="42.36489" lon="12.7280233"><ele>993.3333333333333</ele><time>2026-04-25T13:56:56.108Z</time></trkpt><trkpt lat="42.3648083" lon="12.7280867"><ele>996.1666666666666</ele><time>2026-04-25T13:56:57.111Z</time></trkpt><trkpt lat="42.3647233" lon="12.7281417"><ele>999.0</ele><time>2026-04-25T13:56:58.108Z</time></trkpt><trkpt lat="42.3646233" lon="12.7281983"><ele>999.0</ele><time>2026-04-25T13:56:59.108Z</time></trkpt><trkpt lat="42.3645317" lon="12.7282583"><ele>999.0</ele><time>2026-04-25T13:57:00.11Z</time></trkpt><trkpt lat="42.36444" lon="12.7283083"><ele>999.0</ele><time>2026-04-25T13:57:01.108Z</time></trkpt><trkpt lat="42.3643583" lon="12.728345"><ele>999.0</ele><time>2026-04-25T13:57:02.108Z</time></trkpt><trkpt lat="42.3642833" lon="12.7283783"><ele>999.0</ele><time>2026-04-25T13:57:03.109Z</time></trkpt><trkpt lat="42.3642217" lon="12.7284183"><ele>999.0</ele><time>2026-04-25T13:57:04.109Z</time></trkpt><trkpt lat="42.364155" lon="12.7284583"><ele>999.0</ele><time>2026-04-25T13:57:05.107Z</time></trkpt><trkpt lat="42.3640883" lon="12.7285067"><ele>999.0</ele><time>2026-04-25T13:57:06.109Z</time></trkpt><trkpt lat="42.3640183" lon="12.7285483"><ele>999.0</ele><time>2026-04-25T13:57:07.108Z</time></trkpt><trkpt lat="42.3639483" lon="12.728605"><ele>999.0</ele><time>2026-04-25T13:57:08.108Z</time></trkpt><trkpt lat="42.3638767" lon="12.72866"><ele>999.0</ele><time>2026-04-25T13:57:09.109Z</time></trkpt><trkpt lat="42.3638117" lon="12.7287017"><ele>999.0</ele><time>2026-04-25T13:57:10.108Z</time></trkpt><trkpt lat="42.3637" lon="12.7287517"><ele>1003.4000000000001</ele><time>2026-04-25T13:57:12.109Z</time></trkpt><trkpt lat="42.3636033" lon="12.72874"><ele>1007.8000000000001</ele><time>2026-04-25T13:57:14.107Z</time></trkpt><trkpt lat="42.3635167" lon="12.7286583"><ele>1012.1999999999999</ele><time>2026-04-25T13:57:16.109Z</time></trkpt><trkpt lat="42.36347" lon="12.728585"><ele>1016.5999999999999</ele><time>2026-04-25T13:57:17.109Z</time></trkpt><trkpt lat="42.36342" lon="12.728425"><ele>1021.0</ele><time>2026-04-25T13:57:19.109Z</time></trkpt><trkpt lat="42.363415" lon="12.7283233"><ele>1021.0</ele><time>2026-04-25T13:57:20.108Z</time></trkpt><trkpt lat="42.3634117" lon="12.7282317"><ele>1021.0</ele><time>2026-04-25T13:57:21.109Z</time></trkpt><trkpt lat="42.3634083" lon="12.7281433"><ele>1021.0</ele><time>2026-04-25T13:57:22.107Z</time></trkpt><trkpt lat="42.3634017" lon="12.728045"><ele>1021.0</ele><time>2026-04-25T13:57:23.106Z</time></trkpt><trkpt lat="42.363395" lon="12.7279433"><ele>1021.0</ele><time>2026-04-25T13:57:24.107Z</time></trkpt><trkpt lat="42.3633883" lon="12.7278417"><ele>1021.0</ele><time>2026-04-25T13:57:25.109Z</time></trkpt><trkpt lat="42.36337" lon="12.72776"><ele>1021.0</ele><time>2026-04-25T13:57:26.108Z</time></trkpt><trkpt lat="42.3633083" lon="12.7276317"><ele>1019.4999999999999</ele><time>2026-04-25T13:57:28.108Z</time></trkpt><trkpt lat="42.36321" lon="12.7275383"><ele>1018.0</ele><time>2026-04-25T13:57:30.108Z</time></trkpt><trkpt lat="42.363145" lon="12.72749"><ele>1016.5</ele><time>2026-04-25T13:57:31.108Z</time></trkpt><trkpt lat="42.36307" lon="12.7274267"><ele>1015.0</ele><time>2026-04-25T13:57:32.108Z</time></trkpt><trkpt lat="42.3630017" lon="12.7273583"><ele>1013.4999999999999</ele><time>2026-04-25T13:57:33.108Z</time></trkpt><trkpt lat="42.3629383" lon="12.7272933"><ele>1012.0</ele><time>2026-04-25T13:57:34.109Z</time></trkpt><trkpt lat="42.362895" lon="12.7272267"><ele>1013.9999999999999</ele><time>2026-04-25T13:57:35.11Z</time></trkpt><trkpt lat="42.3628483" lon="12.7271533"><ele>1016.0</ele><time>2026-04-25T13:57:37.108Z</time></trkpt><trkpt lat="42.3628317" lon="12.7270683"><ele>1018.0</ele><time>2026-04-25T13:57:42.107Z</time></trkpt><trkpt lat="42.3627783" lon="12.7270067"><ele>1020.0</ele><time>2026-04-25T13:57:46.109Z</time></trkpt><trkpt lat="42.36271" lon="12.7269517"><ele>1021.9999999999999</ele><time>2026-04-25T13:57:49.108Z</time></trkpt><trkpt lat="42.3626367" lon="12.7268983"><ele>1024.0</ele><time>2026-04-25T13:57:53.108Z</time></trkpt><trkpt lat="42.3625533" lon="12.72683"><ele>1024.0</ele><time>2026-04-25T13:57:57.108Z</time></trkpt><trkpt lat="42.362495" lon="12.7267617"><ele>1024.0</ele><time>2026-04-25T13:57:59.107Z</time></trkpt><trkpt lat="42.3624617" lon="12.7266467"><ele>1024.0</ele><time>2026-04-25T13:58:01.11Z</time></trkpt><trkpt lat="42.36243" lon="12.7265033"><ele>1024.0</ele><time>2026-04-25T13:58:03.108Z</time></trkpt><trkpt lat="42.3624" lon="12.72639"><ele>1024.0</ele><time>2026-04-25T13:58:05.106Z</time></trkpt><trkpt lat="42.36233" lon="12.7263217"><ele>1024.0</ele><time>2026-04-25T13:58:07.108Z</time></trkpt><trkpt lat="42.3622217" lon="12.7262783"><ele>1024.0</ele><time>2026-04-25T13:58:09.108Z</time></trkpt><trkpt lat="42.3621117" lon="12.7262633"><ele>1024.0</ele><time>2026-04-25T13:58:11.109Z</time></trkpt><trkpt lat="42.3619817" lon="12.7262317"><ele>1024.0</ele><time>2026-04-25T13:58:13.107Z</time></trkpt><trkpt lat="42.3619183" lon="12.726225"><ele>1024.0</ele><time>2026-04-25T13:58:14.107Z</time></trkpt><trkpt lat="42.3618033" lon="12.7262067"><ele>1023.4000000000001</ele><time>2026-04-25T13:58:16.107Z</time></trkpt><trkpt lat="42.3616817" lon="12.7262283"><ele>1022.8000000000001</ele><time>2026-04-25T13:58:18.108Z</time></trkpt><trkpt lat="42.361565" lon="12.7263033"><ele>1022.1999999999999</ele><time>2026-04-25T13:58:20.108Z</time></trkpt><trkpt lat="42.36151" lon="12.7263533"><ele>1021.5999999999999</ele><time>2026-04-25T13:58:21.109Z</time></trkpt><trkpt lat="42.361385" lon="12.7263767"><ele>1021.0</ele><time>2026-04-25T13:58:23.108Z</time></trkpt><trkpt lat="42.3612633" lon="12.7263067"><ele>1021.0</ele><time>2026-04-25T13:58:25.108Z</time></trkpt><trkpt lat="42.3611583" lon="12.72623"><ele>1020.9999999999999</ele><time>2026-04-25T13:58:27.11Z</time></trkpt><trkpt lat="42.3610717" lon="12.72621"><ele>1020.9999999999999</ele><time>2026-04-25T13:58:29.108Z</time></trkpt><trkpt lat="42.36098" lon="12.7262783"><ele>1021.0</ele><time>2026-04-25T13:58:38.107Z</time></trkpt><trkpt lat="42.36093" lon="12.726435"><ele>1021.0</ele><time>2026-04-25T13:58:40.106Z</time></trkpt><trkpt lat="42.3609167" lon="12.7265283"><ele>1020.9999999999999</ele><time>2026-04-25T13:58:41.108Z</time></trkpt><trkpt lat="42.3609083" lon="12.7266183"><ele>1021.0</ele><time>2026-04-25T13:58:42.109Z</time></trkpt><trkpt lat="42.360895" lon="12.7267183"><ele>1021.0</ele><time>2026-04-25T13:58:43.106Z</time></trkpt><trkpt lat="42.3608733" lon="12.7268067"><ele>1021.0</ele><time>2026-04-25T13:58:44.107Z</time></trkpt><trkpt lat="42.3608383" lon="12.7268833"><ele>1020.9999999999999</ele><time>2026-04-25T13:58:45.108Z</time></trkpt><trkpt lat="42.360795" lon="12.7269467"><ele>1021.0</ele><time>2026-04-25T13:58:46.107Z</time></trkpt><trkpt lat="42.3606917" lon="12.7270433"><ele>1021.8333333333333</ele><time>2026-04-25T13:58:48.107Z</time></trkpt><trkpt lat="42.3605833" lon="12.7271083"><ele>1022.6666666666666</ele><time>2026-04-25T13:58:50.108Z</time></trkpt><trkpt lat="42.3604683" lon="12.7271667"><ele>1023.5</ele><time>2026-04-25T13:58:52.108Z</time></trkpt><trkpt lat="42.3604083" lon="12.7271967"><ele>1024.3333333333333</ele><time>2026-04-25T13:58:53.106Z</time></trkpt><trkpt lat="42.360355" lon="12.7272433"><ele>1025.1666666666667</ele><time>2026-04-25T13:58:54.109Z</time></trkpt><trkpt lat="42.3603033" lon="12.7272933"><ele>1026.0</ele><time>2026-04-25T13:58:55.109Z</time></trkpt><trkpt lat="42.3602667" lon="12.7273717"><ele>1026.0000000000002</ele><time>2026-04-25T13:58:56.108Z</time></trkpt><trkpt lat="42.36023" lon="12.727455"><ele>1026.0</ele><time>2026-04-25T13:58:57.109Z</time></trkpt><trkpt lat="42.3601883" lon="12.72753"><ele>1026.0</ele><time>2026-04-25T13:58:58.107Z</time></trkpt><trkpt lat="42.3601483" lon="12.7276117"><ele>1026.0</ele><time>2026-04-25T13:58:59.106Z</time></trkpt><trkpt lat="42.3601083" lon="12.7276967"><ele>1026.0</ele><time>2026-04-25T13:59:00.108Z</time></trkpt><trkpt lat="42.3600683" lon="12.7277783"><ele>1026.0000000000002</ele><time>2026-04-25T13:59:01.109Z</time></trkpt><trkpt lat="42.36002" lon="12.727845"><ele>1026.0</ele><time>2026-04-25T13:59:02.107Z</time></trkpt><trkpt lat="42.3599417" lon="12.727915"><ele>1031.3333333333333</ele><time>2026-04-25T13:59:04.107Z</time></trkpt><trkpt lat="42.3598783" lon="12.7278833"><ele>1036.6666666666667</ele><time>2026-04-25T13:59:06.106Z</time></trkpt><trkpt lat="42.3597783" lon="12.7278583"><ele>1042.0</ele><time>2026-04-25T13:59:08.108Z</time></trkpt><trkpt lat="42.3597133" lon="12.7278283"><ele>1047.3333333333335</ele><time>2026-04-25T13:59:09.108Z</time></trkpt><trkpt lat="42.3596433" lon="12.7277967"><ele>1052.6666666666667</ele><time>2026-04-25T13:59:10.109Z</time></trkpt><trkpt lat="42.35957" lon="12.72777"><ele>1058.0</ele><time>2026-04-25T13:59:11.11Z</time></trkpt><trkpt lat="42.3594917" lon="12.7277383"><ele>1054.5</ele><time>2026-04-25T13:59:12.109Z</time></trkpt><trkpt lat="42.35941" lon="12.7277117"><ele>1051.0</ele><time>2026-04-25T13:59:13.107Z</time></trkpt><trkpt lat="42.3593283" lon="12.727695"><ele>1047.5</ele><time>2026-04-25T13:59:14.108Z</time></trkpt><trkpt lat="42.3592467" lon="12.7276883"><ele>1044.0</ele><time>2026-04-25T13:59:15.11Z</time></trkpt><trkpt lat="42.3591667" lon="12.7276767"><ele>1040.5</ele><time>2026-04-25T13:59:16.107Z</time></trkpt><trkpt lat="42.359085" lon="12.7276483"><ele>1037.0</ele><time>2026-04-25T13:59:17.107Z</time></trkpt><trkpt lat="42.3589983" lon="12.7276067"><ele>1037.0</ele><time>2026-04-25T13:59:18.11Z</time></trkpt><trkpt lat="42.358915" lon="12.7275633"><ele>1037.0</ele><time>2026-04-25T13:59:19.108Z</time></trkpt><trkpt lat="42.3588383" lon="12.7275233"><ele>1037.0</ele><time>2026-04-25T13:59:20.108Z</time></trkpt><trkpt lat="42.3587617" lon="12.7274983"><ele>1037.0</ele><time>2026-04-25T13:59:21.108Z</time></trkpt><trkpt lat="42.3586917" lon="12.7274783"><ele>1037.0</ele><time>2026-04-25T13:59:22.108Z</time></trkpt><trkpt lat="42.35862" lon="12.7274683"><ele>1037.0</ele><time>2026-04-25T13:59:23.108Z</time></trkpt><trkpt lat="42.358555" lon="12.727445"><ele>1041.3333333333335</ele><time>2026-04-25T13:59:24.108Z</time></trkpt><trkpt lat="42.3584767" lon="12.7274183"><ele>1045.6666666666667</ele><time>2026-04-25T13:59:25.109Z</time></trkpt><trkpt lat="42.3584" lon="12.727385"><ele>1050.0</ele><time>2026-04-25T13:59:26.107Z</time></trkpt><trkpt lat="42.3583333" lon="12.7273533"><ele>1054.3333333333333</ele><time>2026-04-25T13:59:27.108Z</time></trkpt><trkpt lat="42.3582617" lon="12.72732"><ele>1058.6666666666665</ele><time>2026-04-25T13:59:28.108Z</time></trkpt><trkpt lat="42.35819" lon="12.7272883"><ele>1063.0</ele><time>2026-04-25T13:59:29.108Z</time></trkpt><trkpt lat="42.3581117" lon="12.727255"><ele>1063.0</ele><time>2026-04-25T13:59:30.108Z</time></trkpt><trkpt lat="42.3580367" lon="12.7272283"><ele>1063.0</ele><time>2026-04-25T13:59:31.107Z</time></trkpt><trkpt lat="42.3579717" lon="12.7272067"><ele>1063.0</ele><time>2026-04-25T13:59:32.108Z</time></trkpt><trkpt lat="42.3578583" lon="12.727195"><ele>1063.0</ele><time>2026-04-25T13:59:34.107Z</time></trkpt><trkpt lat="42.357755" lon="12.7272567"><ele>1063.0</ele><time>2026-04-25T13:59:36.11Z</time></trkpt><trkpt lat="42.357695" lon="12.7272833"><ele>1063.0</ele><time>2026-04-25T13:59:37.109Z</time></trkpt><trkpt lat="42.3576233" lon="12.7273067"><ele>1065.3333333333333</ele><time>2026-04-25T13:59:38.107Z</time></trkpt><trkpt lat="42.3575517" lon="12.72734"><ele>1067.6666666666665</ele><time>2026-04-25T13:59:39.109Z</time></trkpt><trkpt lat="42.3574717" lon="12.727365"><ele>1070.0</ele><time>2026-04-25T13:59:40.107Z</time></trkpt><trkpt lat="42.3573867" lon="12.72738"><ele>1072.3333333333333</ele><time>2026-04-25T13:59:41.107Z</time></trkpt><trkpt lat="42.3573017" lon="12.7273817"><ele>1074.6666666666667</ele><time>2026-04-25T13:59:42.106Z</time></trkpt><trkpt lat="42.3572133" lon="12.7273633"><ele>1077.0</ele><time>2026-04-25T13:59:43.107Z</time></trkpt><trkpt lat="42.35713" lon="12.72736"><ele>1077.0</ele><time>2026-04-25T13:59:44.108Z</time></trkpt><trkpt lat="42.3570467" lon="12.727365"><ele>1077.0</ele><time>2026-04-25T13:59:45.107Z</time></trkpt><trkpt lat="42.356965" lon="12.7273617"><ele>1077.0</ele><time>2026-04-25T13:59:46.106Z</time></trkpt><trkpt lat="42.3568733" lon="12.7273567"><ele>1077.0</ele><time>2026-04-25T13:59:47.108Z</time></trkpt><trkpt lat="42.3567783" lon="12.72736"><ele>1077.0</ele><time>2026-04-25T13:59:48.108Z</time></trkpt><trkpt lat="42.3566783" lon="12.7273633"><ele>1077.0</ele><time>2026-04-25T13:59:49.107Z</time></trkpt><trkpt lat="42.3565883" lon="12.727365"><ele>1077.0</ele><time>2026-04-25T13:59:50.107Z</time></trkpt><trkpt lat="42.356505" lon="12.7273717"><ele>1077.0</ele><time>2026-04-25T13:59:51.107Z</time></trkpt><trkpt lat="42.3564233" lon="12.7273733"><ele>1077.0</ele><time>2026-04-25T13:59:52.107Z</time></trkpt><trkpt lat="42.3563367" lon="12.7273617"><ele>1077.0</ele><time>2026-04-25T13:59:53.108Z</time></trkpt><trkpt lat="42.35625" lon="12.727345"><ele>1077.0</ele><time>2026-04-25T13:59:54.108Z</time></trkpt><trkpt lat="42.3561833" lon="12.7273233"><ele>1077.1666666666667</ele><time>2026-04-25T13:59:55.111Z</time></trkpt><trkpt lat="42.35611" lon="12.7272967"><ele>1077.3333333333333</ele><time>2026-04-25T13:59:56.107Z</time></trkpt><trkpt lat="42.3560233" lon="12.7272833"><ele>1077.5</ele><time>2026-04-25T13:59:57.108Z</time></trkpt><trkpt lat="42.3559433" lon="12.72729"><ele>1077.6666666666665</ele><time>2026-04-25T13:59:58.107Z</time></trkpt><trkpt lat="42.35586" lon="12.7272967"><ele>1077.8333333333333</ele><time>2026-04-25T13:59:59.107Z</time></trkpt><trkpt lat="42.355775" lon="12.72731"><ele>1078.0</ele><time>2026-04-25T14:00:00.109Z</time></trkpt><trkpt lat="42.3556733" lon="12.7273083"><ele>1078.0</ele><time>2026-04-25T14:00:01.107Z</time></trkpt><trkpt lat="42.355575" lon="12.7273183"><ele>1078.0</ele><time>2026-04-25T14:00:02.109Z</time></trkpt><trkpt lat="42.3554817" lon="12.7273267"><ele>1078.0</ele><time>2026-04-25T14:00:03.109Z</time></trkpt><trkpt lat="42.355395" lon="12.7273333"><ele>1078.0</ele><time>2026-04-25T14:00:04.108Z</time></trkpt><trkpt lat="42.355305" lon="12.7273283"><ele>1078.0</ele><time>2026-04-25T14:00:05.107Z</time></trkpt><trkpt lat="42.3552217" lon="12.727325"><ele>1078.5714285714287</ele><time>2026-04-25T14:00:06.106Z</time></trkpt><trkpt lat="42.3551417" lon="12.72733"><ele>1079.142857142857</ele><time>2026-04-25T14:00:07.108Z</time></trkpt><trkpt lat="42.3550633" lon="12.727335"><ele>1079.7142857142858</ele><time>2026-04-25T14:00:08.105Z</time></trkpt><trkpt lat="42.3549933" lon="12.72735"><ele>1080.2857142857142</ele><time>2026-04-25T14:00:09.106Z</time></trkpt><trkpt lat="42.3549183" lon="12.7273717"><ele>1080.857142857143</ele><time>2026-04-25T14:00:10.107Z</time></trkpt><trkpt lat="42.3548517" lon="12.7274033"><ele>1081.4285714285716</ele><time>2026-04-25T14:00:11.108Z</time></trkpt><trkpt lat="42.3547867" lon="12.7274233"><ele>1082.0</ele><time>2026-04-25T14:00:12.107Z</time></trkpt><trkpt lat="42.35467" lon="12.7274467"><ele>1082.0</ele><time>2026-04-25T14:00:14.107Z</time></trkpt><trkpt lat="42.3545633" lon="12.7274317"><ele>1082.0</ele><time>2026-04-25T14:00:16.108Z</time></trkpt><trkpt lat="42.3544633" lon="12.7273817"><ele>1082.0</ele><time>2026-04-25T14:00:18.109Z</time></trkpt><trkpt lat="42.3543917" lon="12.727245"><ele>1082.0</ele><time>2026-04-25T14:00:20.108Z</time></trkpt><trkpt lat="42.3543667" lon="12.727135"><ele>1082.0</ele><time>2026-04-25T14:00:21.108Z</time></trkpt><trkpt lat="42.354355" lon="12.7270183"><ele>1079.4</ele><time>2026-04-25T14:00:22.108Z</time></trkpt><trkpt lat="42.3543383" lon="12.72688"><ele>1076.8000000000002</ele><time>2026-04-25T14:00:23.108Z</time></trkpt><trkpt lat="42.3543183" lon="12.7267433"><ele>1074.2</ele><time>2026-04-25T14:00:24.108Z</time></trkpt><trkpt lat="42.3543133" lon="12.7266317"><ele>1071.6000000000001</ele><time>2026-04-25T14:00:25.108Z</time></trkpt><trkpt lat="42.3543083" lon="12.7265367"><ele>1069.0</ele><time>2026-04-25T14:00:26.107Z</time></trkpt><trkpt lat="42.35429" lon="12.72639"><ele>1069.0</ele><time>2026-04-25T14:00:28.108Z</time></trkpt><trkpt lat="42.3542733" lon="12.7262417"><ele>1069.0</ele><time>2026-04-25T14:00:30.109Z</time></trkpt><trkpt lat="42.35429" lon="12.7260917"><ele>1069.0</ele><time>2026-04-25T14:00:32.108Z</time></trkpt><trkpt lat="42.3543233" lon="12.7260033"><ele>1069.0</ele><time>2026-04-25T14:00:33.106Z</time></trkpt><trkpt lat="42.3543667" lon="12.7259133"><ele>1069.0</ele><time>2026-04-25T14:00:34.107Z</time></trkpt><trkpt lat="42.3544467" lon="12.725835"><ele>1069.3333333333333</ele><time>2026-04-25T14:00:35.107Z</time></trkpt><trkpt lat="42.354505" lon="12.7257683"><ele>1069.6666666666665</ele><time>2026-04-25T14:00:36.108Z</time></trkpt><trkpt lat="42.3545767" lon="12.725705"><ele>1070.0</ele><time>2026-04-25T14:00:37.107Z</time></trkpt><trkpt lat="42.354625" lon="12.7256233"><ele>1070.3333333333333</ele><time>2026-04-25T14:00:38.106Z</time></trkpt><trkpt lat="42.35468" lon="12.7255233"><ele>1070.6666666666667</ele><time>2026-04-25T14:00:39.107Z</time></trkpt><trkpt lat="42.35474" lon="12.7253967"><ele>1071.0</ele><time>2026-04-25T14:00:40.107Z</time></trkpt><trkpt lat="42.3547817" lon="12.7252617"><ele>1069.5</ele><time>2026-04-25T14:00:41.107Z</time></trkpt><trkpt lat="42.3548233" lon="12.7251483"><ele>1068.0</ele><time>2026-04-25T14:00:42.107Z</time></trkpt><trkpt lat="42.3548867" lon="12.725065"><ele>1066.5</ele><time>2026-04-25T14:00:43.106Z</time></trkpt><trkpt lat="42.3549217" lon="12.7249917"><ele>1065.0</ele><time>2026-04-25T14:00:44.109Z</time></trkpt><trkpt lat="42.3549483" lon="12.724835"><ele>1063.5</ele><time>2026-04-25T14:00:46.106Z</time></trkpt><trkpt lat="42.3549517" lon="12.7247417"><ele>1062.0</ele><time>2026-04-25T14:00:47.109Z</time></trkpt><trkpt lat="42.3549683" lon="12.7246433"><ele>1062.0</ele><time>2026-04-25T14:00:48.109Z</time></trkpt><trkpt lat="42.35501" lon="12.7245483"><ele>1062.0</ele><time>2026-04-25T14:00:49.108Z</time></trkpt><trkpt lat="42.3550633" lon="12.7244617"><ele>1062.0</ele><time>2026-04-25T14:00:50.106Z</time></trkpt><trkpt lat="42.3551233" lon="12.7243817"><ele>1062.0</ele><time>2026-04-25T14:00:51.109Z</time></trkpt><trkpt lat="42.35518" lon="12.72431"><ele>1062.0</ele><time>2026-04-25T14:00:52.106Z</time></trkpt><trkpt lat="42.35524" lon="12.7242017"><ele>1062.0</ele><time>2026-04-25T14:00:54.108Z</time></trkpt><trkpt lat="42.3552317" lon="12.7240783"><ele>1065.8333333333333</ele><time>2026-04-25T14:00:56.107Z</time></trkpt><trkpt lat="42.3552" lon="12.7239917"><ele>1069.6666666666667</ele><time>2026-04-25T14:00:57.108Z</time></trkpt><trkpt lat="42.3551767" lon="12.7238933"><ele>1073.5</ele><time>2026-04-25T14:00:58.108Z</time></trkpt><trkpt lat="42.3551667" lon="12.7237917"><ele>1077.3333333333335</ele><time>2026-04-25T14:00:59.109Z</time></trkpt><trkpt lat="42.3551783" lon="12.7236933"><ele>1081.1666666666667</ele><time>2026-04-25T14:01:00.107Z</time></trkpt><trkpt lat="42.3552383" lon="12.7236217"><ele>1085.0</ele><time>2026-04-25T14:01:01.107Z</time></trkpt><trkpt lat="42.35531" lon="12.7235633"><ele>1088.2</ele><time>2026-04-25T14:01:02.106Z</time></trkpt><trkpt lat="42.3554133" lon="12.7235283"><ele>1091.4</ele><time>2026-04-25T14:01:03.105Z</time></trkpt><trkpt lat="42.3555183" lon="12.7235"><ele>1094.6</ele><time>2026-04-25T14:01:04.107Z</time></trkpt><trkpt lat="42.3556267" lon="12.7234783"><ele>1097.8</ele><time>2026-04-25T14:01:05.108Z</time></trkpt><trkpt lat="42.355725" lon="12.7234417"><ele>1101.0</ele><time>2026-04-25T14:01:06.108Z</time></trkpt><trkpt lat="42.35582" lon="12.723405"><ele>1094.3333333333333</ele><time>2026-04-25T14:01:07.108Z</time></trkpt><trkpt lat="42.355905" lon="12.7233667"><ele>1087.6666666666667</ele><time>2026-04-25T14:01:08.107Z</time></trkpt><trkpt lat="42.355965" lon="12.7233283"><ele>1081.0</ele><time>2026-04-25T14:01:09.108Z</time></trkpt><trkpt lat="42.3560133" lon="12.723215"><ele>1074.3333333333335</ele><time>2026-04-25T14:01:11.106Z</time></trkpt><trkpt lat="42.35598" lon="12.7230583"><ele>1067.6666666666667</ele><time>2026-04-25T14:01:13.108Z</time></trkpt><trkpt lat="42.355945" lon="12.7229683"><ele>1061.0</ele><time>2026-04-25T14:01:14.108Z</time></trkpt><trkpt lat="42.3558917" lon="12.7228717"><ele>1061.0</ele><time>2026-04-25T14:01:15.109Z</time></trkpt><trkpt lat="42.3558383" lon="12.72277"><ele>1061.0</ele><time>2026-04-25T14:01:16.108Z</time></trkpt><trkpt lat="42.35578" lon="12.7226617"><ele>1061.0</ele><time>2026-04-25T14:01:17.108Z</time></trkpt><trkpt lat="42.3557167" lon="12.722555"><ele>1061.0</ele><time>2026-04-25T14:01:18.108Z</time></trkpt><trkpt lat="42.35564" lon="12.722445"><ele>1061.0</ele><time>2026-04-25T14:01:19.106Z</time></trkpt><trkpt lat="42.3555583" lon="12.7223333"><ele>1069.6</ele><time>2026-04-25T14:01:20.107Z</time></trkpt><trkpt lat="42.3554917" lon="12.7222333"><ele>1078.1999999999998</ele><time>2026-04-25T14:01:21.109Z</time></trkpt><trkpt lat="42.3554367" lon="12.7221283"><ele>1086.8000000000002</ele><time>2026-04-25T14:01:22.109Z</time></trkpt><trkpt lat="42.3553967" lon="12.722015"><ele>1095.4</ele><time>2026-04-25T14:01:23.106Z</time></trkpt><trkpt lat="42.35538" lon="12.721895"><ele>1104.0</ele><time>2026-04-25T14:01:24.107Z</time></trkpt><trkpt lat="42.35537" lon="12.72178"><ele>1104.0</ele><time>2026-04-25T14:01:25.107Z</time></trkpt><trkpt lat="42.3553633" lon="12.7216783"><ele>1104.0</ele><time>2026-04-25T14:01:26.108Z</time></trkpt><trkpt lat="42.35536" lon="12.7215283"><ele>1104.0</ele><time>2026-04-25T14:01:28.106Z</time></trkpt><trkpt lat="42.3553933" lon="12.721435"><ele>1104.0</ele><time>2026-04-25T14:01:30.106Z</time></trkpt><trkpt lat="42.3555767" lon="12.721485"><ele>1098.6000000000001</ele><time>2026-04-25T14:01:43.107Z</time></trkpt><trkpt lat="42.355665" lon="12.7214667"><ele>1093.2</ele><time>2026-04-25T14:01:44.107Z</time></trkpt><trkpt lat="42.355765" lon="12.7214517"><ele>1087.8000000000002</ele><time>2026-04-25T14:01:45.106Z</time></trkpt><trkpt lat="42.355875" lon="12.7214483"><ele>1082.4</ele><time>2026-04-25T14:01:46.108Z</time></trkpt><trkpt lat="42.3559817" lon="12.7214467"><ele>1077.0</ele><time>2026-04-25T14:01:47.107Z</time></trkpt><trkpt lat="42.3560767" lon="12.7214433"><ele>1077.0</ele><time>2026-04-25T14:01:48.106Z</time></trkpt><trkpt lat="42.356165" lon="12.72144"><ele>1077.0</ele><time>2026-04-25T14:01:49.108Z</time></trkpt><trkpt lat="42.35625" lon="12.72143"><ele>1077.0</ele><time>2026-04-25T14:01:50.108Z</time></trkpt><trkpt lat="42.3563183" lon="12.72141"><ele>1077.0</ele><time>2026-04-25T14:01:51.108Z</time></trkpt><trkpt lat="42.356385" lon="12.72137"><ele>1077.0</ele><time>2026-04-25T14:01:52.106Z</time></trkpt><trkpt lat="42.3564517" lon="12.7213067"><ele>1077.0</ele><time>2026-04-25T14:01:53.106Z</time></trkpt><trkpt lat="42.3565067" lon="12.7212367"><ele>1078.5</ele><time>2026-04-25T14:01:54.108Z</time></trkpt><trkpt lat="42.3565567" lon="12.7211733"><ele>1080.0</ele><time>2026-04-25T14:01:55.107Z</time></trkpt><trkpt lat="42.3566033" lon="12.7211083"><ele>1081.5</ele><time>2026-04-25T14:01:56.109Z</time></trkpt><trkpt lat="42.3566617" lon="12.72096"><ele>1083.0</ele><time>2026-04-25T14:01:58.107Z</time></trkpt><trkpt lat="42.3566717" lon="12.7208667"><ele>1084.5</ele><time>2026-04-25T14:01:59.106Z</time></trkpt><trkpt lat="42.3566717" lon="12.72075"><ele>1086.0</ele><time>2026-04-25T14:02:00.106Z</time></trkpt><trkpt lat="42.3566633" lon="12.7206167"><ele>1086.0</ele><time>2026-04-25T14:02:01.106Z</time></trkpt><trkpt lat="42.3566567" lon="12.720475"><ele>1086.0</ele><time>2026-04-25T14:02:02.106Z</time></trkpt><trkpt lat="42.3566717" lon="12.7203367"><ele>1086.0</ele><time>2026-04-25T14:02:03.108Z</time></trkpt><trkpt lat="42.3567" lon="12.7202133"><ele>1086.0</ele><time>2026-04-25T14:02:04.106Z</time></trkpt><trkpt lat="42.3567367" lon="12.720095"><ele>1086.0</ele><time>2026-04-25T14:02:05.106Z</time></trkpt><trkpt lat="42.3567833" lon="12.71999"><ele>1087.1666666666667</ele><time>2026-04-25T14:02:06.109Z</time></trkpt><trkpt lat="42.3568383" lon="12.7198933"><ele>1088.3333333333333</ele><time>2026-04-25T14:02:07.108Z</time></trkpt><trkpt lat="42.3568917" lon="12.7197983"><ele>1089.5</ele><time>2026-04-25T14:02:08.108Z</time></trkpt><trkpt lat="42.3569417" lon="12.7197"><ele>1090.6666666666665</ele><time>2026-04-25T14:02:09.108Z</time></trkpt><trkpt lat="42.3569917" lon="12.7195983"><ele>1091.8333333333333</ele><time>2026-04-25T14:02:10.107Z</time></trkpt><trkpt lat="42.3570417" lon="12.7195017"><ele>1093.0</ele><time>2026-04-25T14:02:11.106Z</time></trkpt><trkpt lat="42.3570933" lon="12.7194083"><ele>1092.6</ele><time>2026-04-25T14:02:12.106Z</time></trkpt><trkpt lat="42.3571417" lon="12.7193117"><ele>1092.1999999999998</ele><time>2026-04-25T14:02:13.108Z</time></trkpt><trkpt lat="42.357185" lon="12.7192017"><ele>1091.8</ele><time>2026-04-25T14:02:14.107Z</time></trkpt><trkpt lat="42.357225" lon="12.7190817"><ele>1091.3999999999999</ele><time>2026-04-25T14:02:15.107Z</time></trkpt><trkpt lat="42.3572617" lon="12.718955"><ele>1091.0</ele><time>2026-04-25T14:02:16.105Z</time></trkpt><trkpt lat="42.3572983" lon="12.7188317"><ele>1090.1666666666667</ele><time>2026-04-25T14:02:17.106Z</time></trkpt><trkpt lat="42.35733" lon="12.7187133"><ele>1089.3333333333335</ele><time>2026-04-25T14:02:18.107Z</time></trkpt><trkpt lat="42.3573517" lon="12.7185967"><ele>1088.5</ele><time>2026-04-25T14:02:19.106Z</time></trkpt><trkpt lat="42.357365" lon="12.71848"><ele>1087.6666666666667</ele><time>2026-04-25T14:02:20.106Z</time></trkpt><trkpt lat="42.35737" lon="12.7183683"><ele>1086.8333333333333</ele><time>2026-04-25T14:02:21.108Z</time></trkpt><trkpt lat="42.3573667" lon="12.7182583"><ele>1086.0</ele><time>2026-04-25T14:02:22.106Z</time></trkpt><trkpt lat="42.3573567" lon="12.7181467"><ele>1086.0</ele><time>2026-04-25T14:02:23.107Z</time></trkpt><trkpt lat="42.35734" lon="12.7180383"><ele>1086.0</ele><time>2026-04-25T14:02:24.108Z</time></trkpt><trkpt lat="42.3573167" lon="12.7179433"><ele>1086.0</ele><time>2026-04-25T14:02:25.106Z</time></trkpt><trkpt lat="42.357285" lon="12.7178567"><ele>1086.0</ele><time>2026-04-25T14:02:26.106Z</time></trkpt><trkpt lat="42.357245" lon="12.71776"><ele>1086.0</ele><time>2026-04-25T14:02:27.107Z</time></trkpt><trkpt lat="42.3572017" lon="12.717655"><ele>1086.0</ele><time>2026-04-25T14:02:28.107Z</time></trkpt><trkpt lat="42.35716" lon="12.717545"><ele>1085.2857142857142</ele><time>2026-04-25T14:02:29.107Z</time></trkpt><trkpt lat="42.357125" lon="12.7174417"><ele>1084.5714285714284</ele><time>2026-04-25T14:02:30.107Z</time></trkpt><trkpt lat="42.357095" lon="12.7173433"><ele>1083.8571428571427</ele><time>2026-04-25T14:02:31.107Z</time></trkpt><trkpt lat="42.3570683" lon="12.7172517"><ele>1083.142857142857</ele><time>2026-04-25T14:02:32.108Z</time></trkpt><trkpt lat="42.357045" lon="12.7171633"><ele>1082.4285714285713</ele><time>2026-04-25T14:02:33.106Z</time></trkpt><trkpt lat="42.357025" lon="12.7170767"><ele>1081.7142857142856</ele><time>2026-04-25T14:02:34.109Z</time></trkpt><trkpt lat="42.3570083" lon="12.716985"><ele>1081.0</ele><time>2026-04-25T14:02:35.108Z</time></trkpt><trkpt lat="42.3569933" lon="12.7168933"><ele>1080.9999999999998</ele><time>2026-04-25T14:02:36.109Z</time></trkpt><trkpt lat="42.3569817" lon="12.7168067"><ele>1081.0</ele><time>2026-04-25T14:02:37.109Z</time></trkpt><trkpt lat="42.3569683" lon="12.7167233"><ele>1081.0</ele><time>2026-04-25T14:02:38.11Z</time></trkpt><trkpt lat="42.3569517" lon="12.716635"><ele>1081.0</ele><time>2026-04-25T14:02:39.107Z</time></trkpt><trkpt lat="42.3569317" lon="12.7165467"><ele>1081.0</ele><time>2026-04-25T14:02:40.108Z</time></trkpt><trkpt lat="42.35691" lon="12.7164667"><ele>1080.9999999999998</ele><time>2026-04-25T14:02:41.106Z</time></trkpt><trkpt lat="42.3568667" lon="12.71633"><ele>1081.0</ele><time>2026-04-25T14:02:43.11Z</time></trkpt><trkpt lat="42.35681" lon="12.7162567"><ele>1081.0</ele><time>2026-04-25T14:02:45.109Z</time></trkpt><trkpt lat="42.3567417" lon="12.716255"><ele>1081.0</ele><time>2026-04-25T14:02:47.108Z</time></trkpt><trkpt lat="42.3566833" lon="12.7163717"><ele>1081.0</ele><time>2026-04-25T14:03:12.106Z</time></trkpt><trkpt lat="42.3566583" lon="12.71646"><ele>1081.0</ele><time>2026-04-25T14:03:13.109Z</time></trkpt><trkpt lat="42.3566283" lon="12.7165617"><ele>1081.0</ele><time>2026-04-25T14:03:14.106Z</time></trkpt><trkpt lat="42.3565967" lon="12.7166683"><ele>1081.0</ele><time>2026-04-25T14:03:15.106Z</time></trkpt><trkpt lat="42.3565617" lon="12.7167817"><ele>1081.0</ele><time>2026-04-25T14:03:16.106Z</time></trkpt><trkpt lat="42.3565283" lon="12.716885"><ele>1081.0</ele><time>2026-04-25T14:03:17.106Z</time></trkpt><trkpt lat="42.3565017" lon="12.7169817"><ele>1081.0</ele><time>2026-04-25T14:03:18.107Z</time></trkpt><trkpt lat="42.3564933" lon="12.7170733"><ele>1081.0</ele><time>2026-04-25T14:03:19.105Z</time></trkpt><trkpt lat="42.3564633" lon="12.71722"><ele>1081.0</ele><time>2026-04-25T14:03:21.106Z</time></trkpt><trkpt lat="42.3564483" lon="12.7173117"><ele>1081.0</ele><time>2026-04-25T14:03:22.106Z</time></trkpt><trkpt lat="42.3564267" lon="12.7174767"><ele>1080.8</ele><time>2026-04-25T14:03:24.107Z</time></trkpt><trkpt lat="42.35641" lon="12.7176267"><ele>1080.6</ele><time>2026-04-25T14:03:26.106Z</time></trkpt><trkpt lat="42.3563833" lon="12.7177667"><ele>1080.4</ele><time>2026-04-25T14:03:28.106Z</time></trkpt><trkpt lat="42.356365" lon="12.7179333"><ele>1080.2</ele><time>2026-04-25T14:03:30.107Z</time></trkpt><trkpt lat="42.3563617" lon="12.7180317"><ele>1080.0</ele><time>2026-04-25T14:03:31.105Z</time></trkpt><trkpt lat="42.3563583" lon="12.7181367"><ele>1078.6666666666667</ele><time>2026-04-25T14:03:32.107Z</time></trkpt><trkpt lat="42.3563517" lon="12.7182367"><ele>1077.3333333333333</ele><time>2026-04-25T14:03:33.108Z</time></trkpt><trkpt lat="42.3563467" lon="12.71833"><ele>1076.0</ele><time>2026-04-25T14:03:34.106Z</time></trkpt><trkpt lat="42.3563467" lon="12.7184883"><ele>1074.6666666666665</ele><time>2026-04-25T14:03:36.105Z</time></trkpt><trkpt lat="42.3563083" lon="12.718595"><ele>1073.3333333333333</ele><time>2026-04-25T14:03:38.108Z</time></trkpt><trkpt lat="42.3562367" lon="12.7185983"><ele>1072.0</ele><time>2026-04-25T14:03:40.107Z</time></trkpt><trkpt lat="42.3561583" lon="12.71851"><ele>1072.0</ele><time>2026-04-25T14:03:42.107Z</time></trkpt><trkpt lat="42.3560767" lon="12.7183867"><ele>1072.0</ele><time>2026-04-25T14:03:44.106Z</time></trkpt><trkpt lat="42.3560217" lon="12.7182833"><ele>1072.0</ele><time>2026-04-25T14:03:46.108Z</time></trkpt><trkpt lat="42.3559483" lon="12.7182133"><ele>1072.0</ele><time>2026-04-25T14:03:48.107Z</time></trkpt><trkpt lat="42.3558567" lon="12.7181767"><ele>1072.0</ele><time>2026-04-25T14:03:50.108Z</time></trkpt><trkpt lat="42.3557683" lon="12.7181967"><ele>1072.0</ele><time>2026-04-25T14:03:52.108Z</time></trkpt><trkpt lat="42.3556833" lon="12.7182233"><ele>1072.0</ele><time>2026-04-25T14:03:54.108Z</time></trkpt><trkpt lat="42.3556083" lon="12.7181667"><ele>1072.0</ele><time>2026-04-25T14:03:57.109Z</time></trkpt><trkpt lat="42.35558" lon="12.71806"><ele>1072.0</ele><time>2026-04-25T14:03:59.107Z</time></trkpt><trkpt lat="42.355535" lon="12.7179133"><ele>1072.0</ele><time>2026-04-25T14:04:01.106Z</time></trkpt><trkpt lat="42.3554983" lon="12.7177733"><ele>1072.4</ele><time>2026-04-25T14:04:03.109Z</time></trkpt><trkpt lat="42.3554583" lon="12.71767"><ele>1072.8000000000002</ele><time>2026-04-25T14:04:05.108Z</time></trkpt><trkpt lat="42.35539" lon="12.7176267"><ele>1073.2</ele><time>2026-04-25T14:04:07.109Z</time></trkpt><trkpt lat="42.355275" lon="12.7175267"><ele>1073.6000000000001</ele><time>2026-04-25T14:04:09.109Z</time></trkpt><trkpt lat="42.3552183" lon="12.71744"><ele>1074.0</ele><time>2026-04-25T14:04:10.107Z</time></trkpt><trkpt lat="42.355195" lon="12.717335"><ele>1074.0</ele><time>2026-04-25T14:04:11.11Z</time></trkpt><trkpt lat="42.3551783" lon="12.7172417"><ele>1074.0</ele><time>2026-04-25T14:04:12.108Z</time></trkpt><trkpt lat="42.3551667" lon="12.717075"><ele>1074.0</ele><time>2026-04-25T14:04:14.109Z</time></trkpt><trkpt lat="42.355125" lon="12.716925"><ele>1074.0</ele><time>2026-04-25T14:04:16.106Z</time></trkpt><trkpt lat="42.3550467" lon="12.7168283"><ele>1074.0</ele><time>2026-04-25T14:04:18.106Z</time></trkpt><trkpt lat="42.3549933" lon="12.7167783"><ele>1070.8333333333333</ele><time>2026-04-25T14:04:19.109Z</time></trkpt><trkpt lat="42.3549283" lon="12.71674"><ele>1067.6666666666667</ele><time>2026-04-25T14:04:20.109Z</time></trkpt><trkpt lat="42.3548567" lon="12.7166983"><ele>1064.5</ele><time>2026-04-25T14:04:21.108Z</time></trkpt><trkpt lat="42.3547867" lon="12.71663"><ele>1061.3333333333335</ele><time>2026-04-25T14:04:22.109Z</time></trkpt><trkpt lat="42.35473" lon="12.7165667"><ele>1058.1666666666667</ele><time>2026-04-25T14:04:23.108Z</time></trkpt><trkpt lat="42.35465" lon="12.7164683"><ele>1055.0</ele><time>2026-04-25T14:04:25.108Z</time></trkpt><trkpt lat="42.35457" lon="12.71644"><ele>1055.0</ele><time>2026-04-25T14:04:27.109Z</time></trkpt><trkpt lat="42.354475" lon="12.7164633"><ele>1055.0</ele><time>2026-04-25T14:04:29.109Z</time></trkpt><trkpt lat="42.3543733" lon="12.7165283"><ele>1055.0</ele><time>2026-04-25T14:04:31.108Z</time></trkpt><trkpt lat="42.3542733" lon="12.71661"><ele>1055.0</ele><time>2026-04-25T14:04:33.107Z</time></trkpt><trkpt lat="42.3541517" lon="12.7166767"><ele>1055.0</ele><time>2026-04-25T14:04:35.109Z</time></trkpt><trkpt lat="42.3540817" lon="12.716705"><ele>1055.0</ele><time>2026-04-25T14:04:36.108Z</time></trkpt><trkpt lat="42.3540133" lon="12.7167333"><ele>1055.0</ele><time>2026-04-25T14:04:37.107Z</time></trkpt><trkpt lat="42.3539483" lon="12.71676"><ele>1055.0</ele><time>2026-04-25T14:04:38.109Z</time></trkpt><trkpt lat="42.3538817" lon="12.7168033"><ele>1055.0</ele><time>2026-04-25T14:04:39.11Z</time></trkpt><trkpt lat="42.3538067" lon="12.71686"><ele>1055.0</ele><time>2026-04-25T14:04:40.108Z</time></trkpt><trkpt lat="42.35373" lon="12.7169167"><ele>1057.6666666666667</ele><time>2026-04-25T14:04:41.106Z</time></trkpt><trkpt lat="42.353655" lon="12.7169933"><ele>1060.3333333333335</ele><time>2026-04-25T14:04:42.107Z</time></trkpt><trkpt lat="42.3535833" lon="12.7170733"><ele>1063.0</ele><time>2026-04-25T14:04:43.107Z</time></trkpt><trkpt lat="42.353515" lon="12.71715"><ele>1065.6666666666667</ele><time>2026-04-25T14:04:44.109Z</time></trkpt><trkpt lat="42.35345" lon="12.7172233"><ele>1068.3333333333333</ele><time>2026-04-25T14:04:45.108Z</time></trkpt><trkpt lat="42.353395" lon="12.717285"><ele>1071.0</ele><time>2026-04-25T14:04:46.108Z</time></trkpt><trkpt lat="42.3533083" lon="12.7173833"><ele>1071.0</ele><time>2026-04-25T14:04:48.107Z</time></trkpt><trkpt lat="42.3532167" lon="12.7174017"><ele>1071.0</ele><time>2026-04-25T14:04:50.108Z</time></trkpt><trkpt lat="42.3531367" lon="12.7173467"><ele>1071.0</ele><time>2026-04-25T14:04:52.108Z</time></trkpt><trkpt lat="42.3530367" lon="12.7172917"><ele>1071.0</ele><time>2026-04-25T14:04:54.11Z</time></trkpt><trkpt lat="42.3529767" lon="12.7172633"><ele>1071.0</ele><time>2026-04-25T14:04:55.108Z</time></trkpt><trkpt lat="42.3528583" lon="12.7172183"><ele>1071.8</ele><time>2026-04-25T14:04:57.109Z</time></trkpt><trkpt lat="42.3527533" lon="12.7171933"><ele>1072.6</ele><time>2026-04-25T14:04:59.106Z</time></trkpt><trkpt lat="42.3526617" lon="12.71718"><ele>1073.4</ele><time>2026-04-25T14:05:01.108Z</time></trkpt><trkpt lat="42.3525783" lon="12.71716"><ele>1074.2</ele><time>2026-04-25T14:05:03.108Z</time></trkpt><trkpt lat="42.3524983" lon="12.7171267"><ele>1075.0</ele><time>2026-04-25T14:05:05.106Z</time></trkpt><trkpt lat="42.3524117" lon="12.7171033"><ele>1075.0</ele><time>2026-04-25T14:05:07.106Z</time></trkpt><trkpt lat="42.3523083" lon="12.717075"><ele>1075.0</ele><time>2026-04-25T14:05:09.109Z</time></trkpt><trkpt lat="42.3522183" lon="12.7170467"><ele>1075.0</ele><time>2026-04-25T14:05:11.108Z</time></trkpt><trkpt lat="42.3521233" lon="12.7170233"><ele>1075.0</ele><time>2026-04-25T14:05:13.109Z</time></trkpt><trkpt lat="42.3520417" lon="12.7170117"><ele>1075.0</ele><time>2026-04-25T14:05:15.108Z</time></trkpt><trkpt lat="42.3519683" lon="12.716985"><ele>1076.0000000000002</ele><time>2026-04-25T14:05:17.107Z</time></trkpt><trkpt lat="42.3520273" lon="12.7170164"><ele>1077.0</ele><time>2026-04-25T14:07:47.126Z</time></trkpt><trkpt lat="42.3519566" lon="12.7170944"><ele>1078.0</ele><time>2026-04-25T14:09:01.231Z</time></trkpt><trkpt lat="42.3519756" lon="12.7172032"><ele>1079.0</ele><time>2026-04-25T14:09:13.173Z</time></trkpt><trkpt lat="42.3520313" lon="12.717253"><ele>1080.0</ele><time>2026-04-25T14:09:19.145Z</time></trkpt><trkpt lat="42.3520516" lon="12.7173343"><ele>1081.0000000000002</ele><time>2026-04-25T14:09:56.159Z</time></trkpt><trkpt lat="42.3520345" lon="12.7174256"><ele>1082.0</ele><time>2026-04-25T14:10:07.238Z</time></trkpt><trkpt lat="42.3520892" lon="12.71747"><ele>1082.0000000000002</ele><time>2026-04-25T14:10:14.163Z</time></trkpt><trkpt lat="42.3519947" lon="12.7175015"><ele>1082.0</ele><time>2026-04-25T14:11:00.135Z</time></trkpt><trkpt lat="42.3519325" lon="12.7175371"><ele>1082.0</ele><time>2026-04-25T14:11:08.224Z</time></trkpt><trkpt lat="42.3518729" lon="12.7175833"><ele>1082.0</ele><time>2026-04-25T14:11:24.219Z</time></trkpt><trkpt lat="42.3518304" lon="12.7176495"><ele>1082.0</ele><time>2026-04-25T14:11:33.121Z</time></trkpt><trkpt lat="42.3518842" lon="12.7175872"><ele>1082.0000000000002</ele><time>2026-04-25T14:11:45.196Z</time></trkpt><trkpt lat="42.3519433" lon="12.7175317"><ele>1082.0</ele><time>2026-04-25T14:12:13.107Z</time></trkpt><trkpt lat="42.3519967" lon="12.7174733"><ele>1082.0000000000002</ele><time>2026-04-25T14:12:34.106Z</time></trkpt><trkpt lat="42.3520583" lon="12.717455"><ele>1082.0</ele><time>2026-04-25T14:12:40.107Z</time></trkpt><trkpt lat="42.3521016" lon="12.7173755"><ele>1082.0</ele><time>2026-04-25T14:12:56.193Z</time></trkpt><trkpt lat="42.3521241" lon="12.7172801"><ele>1082.0</ele><time>2026-04-25T14:13:03.171Z</time></trkpt><trkpt lat="42.3520848" lon="12.7172044"><ele>1082.0</ele><time>2026-04-25T14:13:10.135Z</time></trkpt><trkpt lat="42.3520877" lon="12.7170993"><ele>1082.0000000000002</ele><time>2026-04-25T14:13:26.094Z</time></trkpt><trkpt lat="42.3520608" lon="12.7169919"><ele>1082.0</ele><time>2026-04-25T14:13:29.188Z</time></trkpt><trkpt lat="42.3520124" lon="12.7169278"><ele>1082.0</ele><time>2026-04-25T14:13:32.173Z</time></trkpt><trkpt lat="42.351945" lon="12.7169408"><ele>1082.0</ele><time>2026-04-25T14:13:39.212Z</time></trkpt><trkpt lat="42.352018" lon="12.7169664"><ele>1082.0</ele><time>2026-04-25T14:18:02.201Z</time></trkpt><trkpt lat="42.3521883" lon="12.7170083"><ele>1082.0</ele><time>2026-04-25T14:18:03.107Z</time></trkpt><trkpt lat="42.3522633" lon="12.7169433"><ele>1082.0</ele><time>2026-04-25T14:18:16.107Z</time></trkpt><trkpt lat="42.3523883" lon="12.7169317"><ele>1080.6</ele><time>2026-04-25T14:18:19.107Z</time></trkpt><trkpt lat="42.35249" lon="12.7169433"><ele>1079.2</ele><time>2026-04-25T14:18:21.107Z</time></trkpt><trkpt lat="42.3526" lon="12.7169433"><ele>1077.8</ele><time>2026-04-25T14:18:23.107Z</time></trkpt><trkpt lat="42.3527033" lon="12.71694"><ele>1076.4</ele><time>2026-04-25T14:18:25.109Z</time></trkpt><trkpt lat="42.352785" lon="12.7169333"><ele>1075.0</ele><time>2026-04-25T14:18:27.107Z</time></trkpt><trkpt lat="42.3528483" lon="12.71691"><ele>1075.0</ele><time>2026-04-25T14:18:29.108Z</time></trkpt><trkpt lat="42.3529167" lon="12.7168617"><ele>1075.0</ele><time>2026-04-25T14:18:32.106Z</time></trkpt><trkpt lat="42.3530133" lon="12.7168167"><ele>1075.0</ele><time>2026-04-25T14:19:29.109Z</time></trkpt><trkpt lat="42.35294" lon="12.7168867"><ele>1075.0</ele><time>2026-04-25T14:19:43.109Z</time></trkpt><trkpt lat="42.35285" lon="12.7169183"><ele>1075.0</ele><time>2026-04-25T14:19:45.108Z</time></trkpt><trkpt lat="42.3527417" lon="12.7169633"><ele>1075.0</ele><time>2026-04-25T14:19:47.107Z</time></trkpt><trkpt lat="42.3526267" lon="12.716985"><ele>1075.0</ele><time>2026-04-25T14:19:49.109Z</time></trkpt><trkpt lat="42.3525067" lon="12.7169933"><ele>1075.0</ele><time>2026-04-25T14:19:51.107Z</time></trkpt><trkpt lat="42.3523967" lon="12.71698"><ele>1075.0</ele><time>2026-04-25T14:19:53.108Z</time></trkpt><trkpt lat="42.3523083" lon="12.7169783"><ele>1075.0</ele><time>2026-04-25T14:19:55.11Z</time></trkpt><trkpt lat="42.3522333" lon="12.717"><ele>1076.1666666666665</ele><time>2026-04-25T14:19:57.109Z</time></trkpt><trkpt lat="42.35215" lon="12.7170317"><ele>1077.3333333333333</ele><time>2026-04-25T14:20:39.108Z</time></trkpt><trkpt lat="42.3520683" lon="12.7170917"><ele>1078.5</ele><time>2026-04-25T14:20:41.108Z</time></trkpt><trkpt lat="42.3520033" lon="12.71711"><ele>1079.6666666666667</ele><time>2026-04-25T14:20:43.106Z</time></trkpt><trkpt lat="42.3519667" lon="12.7171867"><ele>1080.8333333333335</ele><time>2026-04-25T14:21:03.108Z</time></trkpt><trkpt lat="42.3519683" lon="12.717285"><ele>1082.0</ele><time>2026-04-25T14:22:26.105Z</time></trkpt><trkpt lat="42.35201" lon="12.71736"><ele>1082.0000000000002</ele><time>2026-04-25T14:22:31.105Z</time></trkpt><trkpt lat="42.35206" lon="12.7174467"><ele>1082.0</ele><time>2026-04-25T14:22:34.108Z</time></trkpt><trkpt lat="42.3519967" lon="12.7175083"><ele>1082.0</ele><time>2026-04-25T14:22:53.106Z</time></trkpt><trkpt lat="42.3519317" lon="12.7175733"><ele>1082.0</ele><time>2026-04-25T14:22:55.106Z</time></trkpt><trkpt lat="42.351875" lon="12.717615"><ele>1082.0</ele><time>2026-04-25T14:22:57.107Z</time></trkpt><trkpt lat="42.3518167" lon="12.7176483"><ele>1082.0000000000002</ele><time>2026-04-25T14:22:59.107Z</time></trkpt><trkpt lat="42.3517533" lon="12.7176783"><ele>1082.0</ele><time>2026-04-25T14:23:01.107Z</time></trkpt><trkpt lat="42.3516867" lon="12.7177133"><ele>1085.1428571428573</ele><time>2026-04-25T14:23:03.108Z</time></trkpt><trkpt lat="42.3516317" lon="12.71777"><ele>1088.2857142857142</ele><time>2026-04-25T14:23:09.109Z</time></trkpt><trkpt lat="42.3515617" lon="12.7177817"><ele>1091.4285714285716</ele><time>2026-04-25T14:23:19.11Z</time></trkpt><trkpt lat="42.3514783" lon="12.717795"><ele>1094.5714285714287</ele><time>2026-04-25T14:23:22.108Z</time></trkpt><trkpt lat="42.35142" lon="12.7178283"><ele>1097.7142857142858</ele><time>2026-04-25T14:23:28.108Z</time></trkpt><trkpt lat="42.3513533" lon="12.7178667"><ele>1100.857142857143</ele><time>2026-04-25T14:24:36.108Z</time></trkpt><trkpt lat="42.3512733" lon="12.7178867"><ele>1104.0</ele><time>2026-04-25T14:24:44.107Z</time></trkpt><trkpt lat="42.3512117" lon="12.717925"><ele>1104.0</ele><time>2026-04-25T14:24:49.107Z</time></trkpt><trkpt lat="42.3511667" lon="12.7179867"><ele>1104.0</ele><time>2026-04-25T14:25:33.107Z</time></trkpt><trkpt lat="42.3511533" lon="12.7180783"><ele>1104.0</ele><time>2026-04-25T14:25:55.105Z</time></trkpt><trkpt lat="42.3510817" lon="12.71813"><ele>1104.0</ele><time>2026-04-25T14:25:58.108Z</time></trkpt><trkpt lat="42.3510017" lon="12.7181617"><ele>1104.0</ele><time>2026-04-25T14:26:00.107Z</time></trkpt><trkpt lat="42.35091" lon="12.7181617"><ele>1104.0</ele><time>2026-04-25T14:26:02.107Z</time></trkpt><trkpt lat="42.3508117" lon="12.7181633"><ele>1104.0</ele><time>2026-04-25T14:26:04.107Z</time></trkpt><trkpt lat="42.3507217" lon="12.7182433"><ele>1104.0</ele><time>2026-04-25T14:26:06.107Z</time></trkpt><trkpt lat="42.3506833" lon="12.7183133"><ele>1104.0</ele><time>2026-04-25T14:26:07.107Z</time></trkpt><trkpt lat="42.350645" lon="12.7183817"><ele>1104.0</ele><time>2026-04-25T14:26:08.107Z</time></trkpt><trkpt lat="42.3505817" lon="12.7184983"><ele>1104.0</ele><time>2026-04-25T14:26:10.108Z</time></trkpt><trkpt lat="42.3505033" lon="12.7185867"><ele>1104.0</ele><time>2026-04-25T14:26:12.107Z</time></trkpt><trkpt lat="42.3504117" lon="12.7186417"><ele>1103.3333333333333</ele><time>2026-04-25T14:26:14.107Z</time></trkpt><trkpt lat="42.3503567" lon="12.7186833"><ele>1102.6666666666667</ele><time>2026-04-25T14:26:15.107Z</time></trkpt><trkpt lat="42.350275" lon="12.7187733"><ele>1102.0</ele><time>2026-04-25T14:26:17.108Z</time></trkpt><trkpt lat="42.3502133" lon="12.718855"><ele>1101.3333333333335</ele><time>2026-04-25T14:26:19.107Z</time></trkpt><trkpt lat="42.3501717" lon="12.7189233"><ele>1100.6666666666667</ele><time>2026-04-25T14:26:21.108Z</time></trkpt><trkpt lat="42.3501383" lon="12.7190617"><ele>1100.0</ele><time>2026-04-25T14:27:53.107Z</time></trkpt><trkpt lat="42.35011" lon="12.7191417"><ele>1100.0</ele><time>2026-04-25T14:27:54.107Z</time></trkpt><trkpt lat="42.3500717" lon="12.71921"><ele>1100.0</ele><time>2026-04-25T14:27:55.108Z</time></trkpt><trkpt lat="42.3500067" lon="12.7193317"><ele>1100.0</ele><time>2026-04-25T14:27:57.108Z</time></trkpt><trkpt lat="42.34996" lon="12.71947"><ele>1100.0</ele><time>2026-04-25T14:27:59.108Z</time></trkpt><trkpt lat="42.349915" lon="12.71959"><ele>1100.0</ele><time>2026-04-25T14:28:01.107Z</time></trkpt><trkpt lat="42.3498583" lon="12.7196967"><ele>1103.0</ele><time>2026-04-25T14:28:03.109Z</time></trkpt><trkpt lat="42.34979" lon="12.7197867"><ele>1106.0</ele><time>2026-04-25T14:28:05.11Z</time></trkpt><trkpt lat="42.3497267" lon="12.7199"><ele>1109.0</ele><time>2026-04-25T14:28:07.109Z</time></trkpt><trkpt lat="42.3496633" lon="12.720025"><ele>1112.0</ele><time>2026-04-25T14:28:09.109Z</time></trkpt><trkpt lat="42.349625" lon="12.7201517"><ele>1115.0</ele><time>2026-04-25T14:28:11.109Z</time></trkpt><trkpt lat="42.349595" lon="12.720255"><ele>1116.3333333333335</ele><time>2026-04-25T14:28:13.112Z</time></trkpt><trkpt lat="42.3495083" lon="12.720385"><ele>1117.6666666666667</ele><time>2026-04-25T14:31:12.106Z</time></trkpt><trkpt lat="42.3495833" lon="12.7203267"><ele>1119.0</ele><time>2026-04-25T14:31:49.11Z</time></trkpt><trkpt lat="42.3495183" lon="12.7203617"><ele>1120.3333333333333</ele><time>2026-04-25T14:32:09.109Z</time></trkpt><trkpt lat="42.34944" lon="12.720375"><ele>1121.6666666666665</ele><time>2026-04-25T14:32:12.109Z</time></trkpt><trkpt lat="42.3493717" lon="12.72036"><ele>1123.0</ele><time>2026-04-25T14:32:14.109Z</time></trkpt><trkpt lat="42.34931" lon="12.72038"><ele>1123.0</ele><time>2026-04-25T14:32:16.108Z</time></trkpt><trkpt lat="42.3492533" lon="12.7204667"><ele>1123.0</ele><time>2026-04-25T14:32:47.108Z</time></trkpt><trkpt lat="42.349205" lon="12.720525"><ele>1123.0</ele><time>2026-04-25T14:32:49.107Z</time></trkpt><trkpt lat="42.3491183" lon="12.7205483"><ele>1123.0</ele><time>2026-04-25T14:32:52.106Z</time></trkpt><trkpt lat="42.3490317" lon="12.7205767"><ele>1123.0</ele><time>2026-04-25T14:32:54.108Z</time></trkpt><trkpt lat="42.34892" lon="12.720655"><ele>1117.6</ele><time>2026-04-25T14:32:56.107Z</time></trkpt><trkpt lat="42.3488617" lon="12.7206917"><ele>1112.1999999999998</ele><time>2026-04-25T14:32:57.11Z</time></trkpt><trkpt lat="42.3487617" lon="12.72076"><ele>1106.8</ele><time>2026-04-25T14:32:59.108Z</time></trkpt><trkpt lat="42.3486783" lon="12.7208267"><ele>1101.3999999999999</ele><time>2026-04-25T14:33:01.11Z</time></trkpt><trkpt lat="42.348605" lon="12.7208783"><ele>1096.0</ele><time>2026-04-25T14:33:03.109Z</time></trkpt><trkpt lat="42.348525" lon="12.7209467"><ele>1096.0</ele><time>2026-04-25T14:33:05.108Z</time></trkpt><trkpt lat="42.3484333" lon="12.7210267"><ele>1096.0</ele><time>2026-04-25T14:33:07.109Z</time></trkpt><trkpt lat="42.3483533" lon="12.7211067"><ele>1096.0</ele><time>2026-04-25T14:33:09.107Z</time></trkpt><trkpt lat="42.3482783" lon="12.721185"><ele>1096.0</ele><time>2026-04-25T14:33:11.107Z</time></trkpt><trkpt lat="42.3481683" lon="12.7212817"><ele>1096.0</ele><time>2026-04-25T14:33:13.109Z</time></trkpt><trkpt lat="42.34811" lon="12.7213217"><ele>1100.0</ele><time>2026-04-25T14:33:14.108Z</time></trkpt><trkpt lat="42.34805" lon="12.7213567"><ele>1104.0</ele><time>2026-04-25T14:33:15.11Z</time></trkpt><trkpt lat="42.3479533" lon="12.72141"><ele>1108.0</ele><time>2026-04-25T14:33:17.108Z</time></trkpt><trkpt lat="42.3478933" lon="12.7214733"><ele>1112.0</ele><time>2026-04-25T14:33:19.109Z</time></trkpt><trkpt lat="42.3478017" lon="12.7215267"><ele>1116.0</ele><time>2026-04-25T14:33:22.108Z</time></trkpt><trkpt lat="42.3477217" lon="12.7215483"><ele>1120.0</ele><time>2026-04-25T14:33:25.11Z</time></trkpt><trkpt lat="42.3476333" lon="12.721575"><ele>1120.0</ele><time>2026-04-25T14:33:28.107Z</time></trkpt><trkpt lat="42.34757" lon="12.7216117"><ele>1120.0</ele><time>2026-04-25T14:33:30.108Z</time></trkpt><trkpt lat="42.3475017" lon="12.7216383"><ele>1120.0</ele><time>2026-04-25T14:33:32.107Z</time></trkpt><trkpt lat="42.347425" lon="12.7216767"><ele>1120.0</ele><time>2026-04-25T14:33:34.108Z</time></trkpt><trkpt lat="42.347345" lon="12.7217467"><ele>1120.0</ele><time>2026-04-25T14:33:36.108Z</time></trkpt><trkpt lat="42.34725" lon="12.7218317"><ele>1120.0</ele><time>2026-04-25T14:33:38.106Z</time></trkpt><trkpt lat="42.3471483" lon="12.7219"><ele>1124.6</ele><time>2026-04-25T14:33:40.108Z</time></trkpt><trkpt lat="42.3470617" lon="12.7219617"><ele>1129.2</ele><time>2026-04-25T14:33:42.107Z</time></trkpt><trkpt lat="42.346995" lon="12.7219917"><ele>1133.8</ele><time>2026-04-25T14:33:44.108Z</time></trkpt><trkpt lat="42.3469183" lon="12.7220217"><ele>1138.4</ele><time>2026-04-25T14:33:48.108Z</time></trkpt><trkpt lat="42.3467817" lon="12.7220283"><ele>1143.0</ele><time>2026-04-25T14:34:14.108Z</time></trkpt><trkpt lat="42.346665" lon="12.7220333"><ele>1143.0</ele><time>2026-04-25T14:34:16.107Z</time></trkpt><trkpt lat="42.3465517" lon="12.7220667"><ele>1143.0</ele><time>2026-04-25T14:34:18.107Z</time></trkpt><trkpt lat="42.3464333" lon="12.7221117"><ele>1143.0</ele><time>2026-04-25T14:34:20.108Z</time></trkpt><trkpt lat="42.3463217" lon="12.722155"><ele>1143.0</ele><time>2026-04-25T14:34:22.107Z</time></trkpt><trkpt lat="42.34623" lon="12.7221883"><ele>1138.6666666666667</ele><time>2026-04-25T14:34:24.107Z</time></trkpt><trkpt lat="42.3461517" lon="12.7222267"><ele>1134.3333333333333</ele><time>2026-04-25T14:34:26.107Z</time></trkpt><trkpt lat="42.3460833" lon="12.72229"><ele>1130.0</ele><time>2026-04-25T14:34:28.107Z</time></trkpt><trkpt lat="42.346025" lon="12.7223283"><ele>1125.6666666666665</ele><time>2026-04-25T14:34:30.108Z</time></trkpt><trkpt lat="42.3459517" lon="12.7224017"><ele>1121.3333333333333</ele><time>2026-04-25T14:34:32.108Z</time></trkpt><trkpt lat="42.3458683" lon="12.7225067"><ele>1117.0</ele><time>2026-04-25T14:34:34.108Z</time></trkpt><trkpt lat="42.3457983" lon="12.72261"><ele>1117.0</ele><time>2026-04-25T14:34:36.107Z</time></trkpt><trkpt lat="42.3457167" lon="12.72272"><ele>1117.0</ele><time>2026-04-25T14:34:38.108Z</time></trkpt><trkpt lat="42.3456367" lon="12.722815"><ele>1117.0</ele><time>2026-04-25T14:34:40.108Z</time></trkpt><trkpt lat="42.3455483" lon="12.7228817"><ele>1117.0</ele><time>2026-04-25T14:34:42.108Z</time></trkpt><trkpt lat="42.3454467" lon="12.7229467"><ele>1117.0</ele><time>2026-04-25T14:34:44.109Z</time></trkpt><trkpt lat="42.3453367" lon="12.7230133"><ele>1119.1666666666665</ele><time>2026-04-25T14:34:46.108Z</time></trkpt><trkpt lat="42.34525" lon="12.7230683"><ele>1121.3333333333333</ele><time>2026-04-25T14:34:48.107Z</time></trkpt><trkpt lat="42.34517" lon="12.7230917"><ele>1123.5</ele><time>2026-04-25T14:34:51.108Z</time></trkpt><trkpt lat="42.3451017" lon="12.723135"><ele>1125.6666666666667</ele><time>2026-04-25T14:34:53.108Z</time></trkpt><trkpt lat="42.3450433" lon="12.72318"><ele>1127.8333333333335</ele><time>2026-04-25T14:34:55.109Z</time></trkpt><trkpt lat="42.344965" lon="12.7232417"><ele>1130.0</ele><time>2026-04-25T14:34:58.108Z</time></trkpt><trkpt lat="42.344895" lon="12.72328"><ele>1130.0</ele><time>2026-04-25T14:35:00.106Z</time></trkpt><trkpt lat="42.3448283" lon="12.723355"><ele>1130.0</ele><time>2026-04-25T14:35:02.107Z</time></trkpt><trkpt lat="42.3447817" lon="12.7234233"><ele>1130.0</ele><time>2026-04-25T14:35:04.107Z</time></trkpt><trkpt lat="42.3447467" lon="12.7235"><ele>1130.0</ele><time>2026-04-25T14:35:06.106Z</time></trkpt><trkpt lat="42.3447167" lon="12.7235867"><ele>1130.0</ele><time>2026-04-25T14:35:08.108Z</time></trkpt><trkpt lat="42.34469" lon="12.7237183"><ele>1130.0</ele><time>2026-04-25T14:35:11.106Z</time></trkpt><trkpt lat="42.3446717" lon="12.723835"><ele>1130.8</ele><time>2026-04-25T14:35:13.106Z</time></trkpt><trkpt lat="42.3446583" lon="12.72394"><ele>1131.6</ele><time>2026-04-25T14:35:15.106Z</time></trkpt><trkpt lat="42.344635" lon="12.7240233"><ele>1132.4</ele><time>2026-04-25T14:35:17.108Z</time></trkpt><trkpt lat="42.3446883" lon="12.72423"><ele>1133.2</ele><time>2026-04-25T14:37:35.109Z</time></trkpt><trkpt lat="42.3447333" lon="12.7243233"><ele>1134.0</ele><time>2026-04-25T14:37:38.111Z</time></trkpt><trkpt lat="42.3447567" lon="12.7244033"><ele>1134.0</ele><time>2026-04-25T14:37:45.11Z</time></trkpt><trkpt lat="42.3447783" lon="12.7244883"><ele>1134.0</ele><time>2026-04-25T14:37:48.109Z</time></trkpt><trkpt lat="42.34479" lon="12.72459"><ele>1134.0</ele><time>2026-04-25T14:37:51.111Z</time></trkpt><trkpt lat="42.3448317" lon="12.7247083"><ele>1134.0</ele><time>2026-04-25T14:37:54.109Z</time></trkpt><trkpt lat="42.3448733" lon="12.7247867"><ele>1134.0</ele><time>2026-04-25T14:37:56.109Z</time></trkpt><trkpt lat="42.3449017" lon="12.7248783"><ele>1134.0</ele><time>2026-04-25T14:37:58.109Z</time></trkpt><trkpt lat="42.3449083" lon="12.7249833"><ele>1134.0</ele><time>2026-04-25T14:38:00.109Z</time></trkpt><trkpt lat="42.34491" lon="12.7250767"><ele>1134.0</ele><time>2026-04-25T14:38:02.11Z</time></trkpt><trkpt lat="42.3449233" lon="12.7251683"><ele>1134.0</ele><time>2026-04-25T14:38:04.109Z</time></trkpt><trkpt lat="42.3449717" lon="12.7252367"><ele>1134.0</ele><time>2026-04-25T14:38:06.109Z</time></trkpt><trkpt lat="42.3450217" lon="12.725305"><ele>1134.0</ele><time>2026-04-25T14:38:08.108Z</time></trkpt><trkpt lat="42.345075" lon="12.7253617"><ele>1134.0</ele><time>2026-04-25T14:38:10.107Z</time></trkpt><trkpt lat="42.3451267" lon="12.7254217"><ele>1134.0</ele><time>2026-04-25T14:38:12.107Z</time></trkpt><trkpt lat="42.345195" lon="12.7254867"><ele>1134.6666666666667</ele><time>2026-04-25T14:38:14.108Z</time></trkpt><trkpt lat="42.3452583" lon="12.7255667"><ele>1135.3333333333333</ele><time>2026-04-25T14:38:16.108Z</time></trkpt><trkpt lat="42.3453117" lon="12.7256383"><ele>1136.0</ele><time>2026-04-25T14:38:18.107Z</time></trkpt><trkpt lat="42.34538" lon="12.725705"><ele>1136.6666666666665</ele><time>2026-04-25T14:38:20.109Z</time></trkpt><trkpt lat="42.3454433" lon="12.7257667"><ele>1137.3333333333333</ele><time>2026-04-25T14:38:22.108Z</time></trkpt><trkpt lat="42.3454967" lon="12.72588"><ele>1138.0</ele><time>2026-04-25T14:38:30.107Z</time></trkpt><trkpt lat="42.34556" lon="12.7259717"><ele>1138.0</ele><time>2026-04-25T14:38:33.107Z</time></trkpt><trkpt lat="42.3456117" lon="12.72605"><ele>1138.0</ele><time>2026-04-25T14:38:35.108Z</time></trkpt><trkpt lat="42.3456667" lon="12.7261383"><ele>1138.0</ele><time>2026-04-25T14:38:37.108Z</time></trkpt><trkpt lat="42.345725" lon="12.7262083"><ele>1138.0</ele><time>2026-04-25T14:38:39.107Z</time></trkpt><trkpt lat="42.3457917" lon="12.7262667"><ele>1138.0</ele><time>2026-04-25T14:38:41.107Z</time></trkpt><trkpt lat="42.345855" lon="12.7263433"><ele>1138.0</ele><time>2026-04-25T14:38:43.108Z</time></trkpt><trkpt lat="42.3459217" lon="12.7263967"><ele>1136.1666666666665</ele><time>2026-04-25T14:38:45.108Z</time></trkpt><trkpt lat="42.3460367" lon="12.72646"><ele>1134.3333333333333</ele><time>2026-04-25T14:39:58.109Z</time></trkpt><trkpt lat="42.3461533" lon="12.72644"><ele>1132.5</ele><time>2026-04-25T14:45:12.108Z</time></trkpt><trkpt lat="42.3462133" lon="12.72641"><ele>1130.6666666666667</ele><time>2026-04-25T14:45:14.108Z</time></trkpt><trkpt lat="42.3462817" lon="12.7263683"><ele>1128.8333333333335</ele><time>2026-04-25T14:45:20.107Z</time></trkpt><trkpt lat="42.3463483" lon="12.7263567"><ele>1127.0</ele><time>2026-04-25T14:45:22.108Z</time></trkpt><trkpt lat="42.3464333" lon="12.7263733"><ele>1127.0</ele><time>2026-04-25T14:45:25.11Z</time></trkpt><trkpt lat="42.34653" lon="12.7263433"><ele>1127.0</ele><time>2026-04-25T14:45:28.109Z</time></trkpt><trkpt lat="42.3464683" lon="12.726385"><ele>1127.0</ele><time>2026-04-25T14:45:50.108Z</time></trkpt><trkpt lat="42.3463833" lon="12.7263817"><ele>1127.0</ele><time>2026-04-25T14:45:59.109Z</time></trkpt><trkpt lat="42.3463183" lon="12.7263733"><ele>1127.0</ele><time>2026-04-25T14:46:04.107Z</time></trkpt><trkpt lat="42.34625" lon="12.7263983"><ele>1127.0</ele><time>2026-04-25T14:46:11.106Z</time></trkpt><trkpt lat="42.3461917" lon="12.7264317"><ele>1127.0</ele><time>2026-04-25T14:46:17.106Z</time></trkpt><trkpt lat="42.34612" lon="12.726445"><ele>1127.0</ele><time>2026-04-25T14:46:23.107Z</time></trkpt><trkpt lat="42.34621" lon="12.72644"><ele>1127.0</ele><time>2026-04-25T14:47:26.109Z</time></trkpt><trkpt lat="42.3462567" lon="12.72638"><ele>1127.0</ele><time>2026-04-25T14:47:35.107Z</time></trkpt><trkpt lat="42.34635" lon="12.726365"><ele>1127.0</ele><time>2026-04-25T14:47:44.107Z</time></trkpt><trkpt lat="42.3464167" lon="12.7263767"><ele>1127.0</ele><time>2026-04-25T14:47:49.108Z</time></trkpt><trkpt lat="42.3465117" lon="12.726375"><ele>1127.0</ele><time>2026-04-25T14:47:57.107Z</time></trkpt><trkpt lat="42.3466033" lon="12.72633"><ele>1127.0</ele><time>2026-04-25T14:48:10.107Z</time></trkpt><trkpt lat="42.34672" lon="12.726465"><ele>1127.0</ele><time>2026-04-25T14:51:22.107Z</time></trkpt><trkpt lat="42.3468283" lon="12.7264967"><ele>1127.0</ele><time>2026-04-25T14:51:24.11Z</time></trkpt><trkpt lat="42.3469333" lon="12.72653"><ele>1127.0</ele><time>2026-04-25T14:51:26.11Z</time></trkpt><trkpt lat="42.3470267" lon="12.7265717"><ele>1127.0</ele><time>2026-04-25T14:51:28.11Z</time></trkpt><trkpt lat="42.347135" lon="12.7265733"><ele>1127.0</ele><time>2026-04-25T14:51:30.109Z</time></trkpt><trkpt lat="42.3472467" lon="12.7265433"><ele>1127.0</ele><time>2026-04-25T14:51:32.106Z</time></trkpt><trkpt lat="42.34737" lon="12.7265417"><ele>1127.0</ele><time>2026-04-25T14:51:34.107Z</time></trkpt><trkpt lat="42.3474333" lon="12.726555"><ele>1129.1666666666667</ele><time>2026-04-25T14:51:35.107Z</time></trkpt><trkpt lat="42.34753" lon="12.7265967"><ele>1131.3333333333335</ele><time>2026-04-25T14:51:37.113Z</time></trkpt><trkpt lat="42.3475917" lon="12.7266183"><ele>1133.5</ele><time>2026-04-25T14:51:40.107Z</time></trkpt><trkpt lat="42.34759" lon="12.726705"><ele>1135.6666666666667</ele><time>2026-04-25T14:51:47.108Z</time></trkpt><trkpt lat="42.3475633" lon="12.7268033"><ele>1137.8333333333333</ele><time>2026-04-25T14:51:53.108Z</time></trkpt><trkpt lat="42.3475567" lon="12.7269"><ele>1140.0</ele><time>2026-04-25T14:51:55.109Z</time></trkpt><trkpt lat="42.347545" lon="12.72702"><ele>1140.0</ele><time>2026-04-25T14:51:57.108Z</time></trkpt><trkpt lat="42.3475317" lon="12.727165"><ele>1140.0</ele><time>2026-04-25T14:51:59.108Z</time></trkpt><trkpt lat="42.3475217" lon="12.7272533"><ele>1140.0</ele><time>2026-04-25T14:52:00.106Z</time></trkpt><trkpt lat="42.3475083" lon="12.7274083"><ele>1140.0</ele><time>2026-04-25T14:52:02.108Z</time></trkpt><trkpt lat="42.3475" lon="12.7275317"><ele>1140.0</ele><time>2026-04-25T14:52:04.108Z</time></trkpt><trkpt lat="42.3474717" lon="12.727645"><ele>1140.2</ele><time>2026-04-25T14:52:06.106Z</time></trkpt><trkpt lat="42.34744" lon="12.727785"><ele>1140.4</ele><time>2026-04-25T14:52:08.107Z</time></trkpt><trkpt lat="42.3474117" lon="12.7279167"><ele>1140.6</ele><time>2026-04-25T14:52:10.106Z</time></trkpt><trkpt lat="42.3473767" lon="12.7280583"><ele>1140.8</ele><time>2026-04-25T14:52:12.107Z</time></trkpt><trkpt lat="42.3473683" lon="12.7282117"><ele>1141.0</ele><time>2026-04-25T14:52:14.108Z</time></trkpt><trkpt lat="42.3473617" lon="12.72836"><ele>1141.0</ele><time>2026-04-25T14:52:16.108Z</time></trkpt><trkpt lat="42.3473567" lon="12.7284833"><ele>1141.0</ele><time>2026-04-25T14:52:18.108Z</time></trkpt><trkpt lat="42.34737" lon="12.728595"><ele>1141.0</ele><time>2026-04-25T14:52:20.109Z</time></trkpt><trkpt lat="42.347385" lon="12.7286783"><ele>1141.0</ele><time>2026-04-25T14:52:22.11Z</time></trkpt><trkpt lat="42.347385" lon="12.7287967"><ele>1141.0</ele><time>2026-04-25T14:52:56.109Z</time></trkpt><trkpt lat="42.34739" lon="12.7289083"><ele>1141.0</ele><time>2026-04-25T14:52:58.109Z</time></trkpt><trkpt lat="42.3474117" lon="12.7290433"><ele>1140.8</ele><time>2026-04-25T14:53:00.109Z</time></trkpt><trkpt lat="42.34745" lon="12.72919"><ele>1140.6</ele><time>2026-04-25T14:53:02.108Z</time></trkpt><trkpt lat="42.3474933" lon="12.7293283"><ele>1140.4</ele><time>2026-04-25T14:53:04.11Z</time></trkpt><trkpt lat="42.34753" lon="12.7294133"><ele>1140.2</ele><time>2026-04-25T14:53:06.108Z</time></trkpt><trkpt lat="42.3475767" lon="12.7295017"><ele>1140.0</ele><time>2026-04-25T14:53:09.107Z</time></trkpt><trkpt lat="42.3476383" lon="12.7295533"><ele>1140.5</ele><time>2026-04-25T14:53:35.107Z</time></trkpt><trkpt lat="42.3477167" lon="12.7295983"><ele>1141.0</ele><time>2026-04-25T14:53:38.107Z</time></trkpt><trkpt lat="42.3477833" lon="12.7296583"><ele>1141.5</ele><time>2026-04-25T14:53:41.107Z</time></trkpt><trkpt lat="42.3478417" lon="12.72974"><ele>1142.0</ele><time>2026-04-25T14:53:44.109Z</time></trkpt><trkpt lat="42.3479033" lon="12.7298233"><ele>1142.5</ele><time>2026-04-25T14:53:47.109Z</time></trkpt><trkpt lat="42.3479317" lon="12.7299083"><ele>1143.0</ele><time>2026-04-25T14:53:49.11Z</time></trkpt><trkpt lat="42.347975" lon="12.729985"><ele>1143.0</ele><time>2026-04-25T14:53:51.11Z</time></trkpt><trkpt lat="42.3480183" lon="12.730065"><ele>1143.0</ele><time>2026-04-25T14:53:53.107Z</time></trkpt><trkpt lat="42.3480483" lon="12.7301567"><ele>1143.0</ele><time>2026-04-25T14:53:55.109Z</time></trkpt><trkpt lat="42.3480717" lon="12.7302467"><ele>1143.0</ele><time>2026-04-25T14:53:57.109Z</time></trkpt><trkpt lat="42.3481" lon="12.73033"><ele>1143.0</ele><time>2026-04-25T14:53:59.107Z</time></trkpt><trkpt lat="42.3481117" lon="12.7304417"><ele>1143.0</ele><time>2026-04-25T14:54:01.11Z</time></trkpt><trkpt lat="42.3481317" lon="12.73055"><ele>1141.6666666666667</ele><time>2026-04-25T14:54:03.112Z</time></trkpt><trkpt lat="42.3481517" lon="12.7306633"><ele>1140.3333333333333</ele><time>2026-04-25T14:54:05.109Z</time></trkpt><trkpt lat="42.3481783" lon="12.7307767"><ele>1139.0</ele><time>2026-04-25T14:54:07.109Z</time></trkpt><trkpt lat="42.3482067" lon="12.73089"><ele>1137.6666666666665</ele><time>2026-04-25T14:54:09.109Z</time></trkpt><trkpt lat="42.348235" lon="12.7309683"><ele>1136.3333333333333</ele><time>2026-04-25T14:54:11.108Z</time></trkpt><trkpt lat="42.3482667" lon="12.7310433"><ele>1135.0</ele><time>2026-04-25T14:54:13.109Z</time></trkpt><trkpt lat="42.3482983" lon="12.7311367"><ele>1133.5</ele><time>2026-04-25T14:54:15.11Z</time></trkpt><trkpt lat="42.34834" lon="12.7312417"><ele>1132.0</ele><time>2026-04-25T14:54:18.109Z</time></trkpt><trkpt lat="42.348365" lon="12.7313467"><ele>1130.5</ele><time>2026-04-25T14:54:22.108Z</time></trkpt><trkpt lat="42.3484417" lon="12.7314417"><ele>1129.0</ele><time>2026-04-25T14:54:34.11Z</time></trkpt><trkpt lat="42.3484883" lon="12.731525"><ele>1127.5</ele><time>2026-04-25T14:54:38.11Z</time></trkpt><trkpt lat="42.3485433" lon="12.731595"><ele>1126.0</ele><time>2026-04-25T14:54:41.107Z</time></trkpt><trkpt lat="42.3485733" lon="12.73168"><ele>1126.0</ele><time>2026-04-25T14:54:44.108Z</time></trkpt><trkpt lat="42.3485983" lon="12.7318083"><ele>1126.0</ele><time>2026-04-25T14:54:47.108Z</time></trkpt><trkpt lat="42.348615" lon="12.7319217"><ele>1126.0</ele><time>2026-04-25T14:54:49.109Z</time></trkpt><trkpt lat="42.3486283" lon="12.73203"><ele>1126.0</ele><time>2026-04-25T14:54:51.111Z</time></trkpt><trkpt lat="42.3486433" lon="12.7321217"><ele>1126.0</ele><time>2026-04-25T14:54:53.111Z</time></trkpt><trkpt lat="42.348635" lon="12.7322317"><ele>1126.0</ele><time>2026-04-25T14:54:55.109Z</time></trkpt><trkpt lat="42.3486417" lon="12.7323433"><ele>1124.5</ele><time>2026-04-25T14:54:58.108Z</time></trkpt><trkpt lat="42.348665" lon="12.732445"><ele>1123.0</ele><time>2026-04-25T14:55:01.109Z</time></trkpt><trkpt lat="42.3486633" lon="12.7325633"><ele>1121.5</ele><time>2026-04-25T14:55:04.111Z</time></trkpt><trkpt lat="42.3486417" lon="12.7326717"><ele>1120.0</ele><time>2026-04-25T14:55:06.111Z</time></trkpt><trkpt lat="42.3486383" lon="12.732765"><ele>1118.5</ele><time>2026-04-25T14:55:08.108Z</time></trkpt><trkpt lat="42.34864" lon="12.7328983"><ele>1117.0</ele><time>2026-04-25T14:55:11.107Z</time></trkpt><trkpt lat="42.348655" lon="12.732995"><ele>1114.8333333333333</ele><time>2026-04-25T14:55:13.109Z</time></trkpt><trkpt lat="42.3486783" lon="12.733085"><ele>1112.6666666666665</ele><time>2026-04-25T14:55:15.109Z</time></trkpt><trkpt lat="42.348715" lon="12.733155"><ele>1110.5</ele><time>2026-04-25T14:55:17.108Z</time></trkpt><trkpt lat="42.348785" lon="12.73324"><ele>1108.3333333333333</ele><time>2026-04-25T14:55:20.107Z</time></trkpt><trkpt lat="42.3488467" lon="12.7332917"><ele>1106.1666666666667</ele><time>2026-04-25T14:55:22.107Z</time></trkpt><trkpt lat="42.3489017" lon="12.7333583"><ele>1104.0</ele><time>2026-04-25T14:55:24.109Z</time></trkpt><trkpt lat="42.3489517" lon="12.7334583"><ele>1104.1666666666667</ele><time>2026-04-25T14:55:26.107Z</time></trkpt><trkpt lat="42.3489783" lon="12.73355"><ele>1104.3333333333333</ele><time>2026-04-25T14:55:28.108Z</time></trkpt><trkpt lat="42.3489817" lon="12.73366"><ele>1104.5</ele><time>2026-04-25T14:55:30.108Z</time></trkpt><trkpt lat="42.348925" lon="12.7337383"><ele>1104.6666666666665</ele><time>2026-04-25T14:55:32.109Z</time></trkpt><trkpt lat="42.348855" lon="12.7337733"><ele>1104.8333333333333</ele><time>2026-04-25T14:55:34.108Z</time></trkpt><trkpt lat="42.3487933" lon="12.7337967"><ele>1105.0</ele><time>2026-04-25T14:55:36.108Z</time></trkpt><trkpt lat="42.3487067" lon="12.73385"><ele>1105.0</ele><time>2026-04-25T14:55:39.109Z</time></trkpt><trkpt lat="42.34864" lon="12.7338933"><ele>1105.0</ele><time>2026-04-25T14:55:41.108Z</time></trkpt><trkpt lat="42.3485767" lon="12.73392"><ele>1105.0</ele><time>2026-04-25T14:55:43.109Z</time></trkpt><trkpt lat="42.348495" lon="12.733955"><ele>1105.0</ele><time>2026-04-25T14:55:45.109Z</time></trkpt><trkpt lat="42.34841" lon="12.7340067"><ele>1105.0</ele><time>2026-04-25T14:55:47.107Z</time></trkpt><trkpt lat="42.34836" lon="12.7340717"><ele>1105.0</ele><time>2026-04-25T14:55:49.109Z</time></trkpt><trkpt lat="42.3483" lon="12.7341517"><ele>1105.0</ele><time>2026-04-25T14:55:51.11Z</time></trkpt><trkpt lat="42.34824" lon="12.7342317"><ele>1105.0</ele><time>2026-04-25T14:55:53.108Z</time></trkpt><trkpt lat="42.348175" lon="12.7343067"><ele>1105.0</ele><time>2026-04-25T14:55:56.108Z</time></trkpt><trkpt lat="42.3481133" lon="12.7343367"><ele>1105.0</ele><time>2026-04-25T14:56:14.105Z</time></trkpt><trkpt lat="42.3480567" lon="12.7343983"><ele>1105.0</ele><time>2026-04-25T14:56:15.108Z</time></trkpt><trkpt lat="42.3480017" lon="12.7344717"><ele>1105.0</ele><time>2026-04-25T14:56:16.11Z</time></trkpt><trkpt lat="42.34795" lon="12.73455"><ele>1104.8333333333333</ele><time>2026-04-25T14:56:17.108Z</time></trkpt><trkpt lat="42.3478983" lon="12.734645"><ele>1104.6666666666665</ele><time>2026-04-25T14:56:18.106Z</time></trkpt><trkpt lat="42.3478567" lon="12.73474"><ele>1104.5</ele><time>2026-04-25T14:56:19.108Z</time></trkpt><trkpt lat="42.3478167" lon="12.7348317"><ele>1104.3333333333333</ele><time>2026-04-25T14:56:20.107Z</time></trkpt><trkpt lat="42.3478" lon="12.73492"><ele>1104.1666666666667</ele><time>2026-04-25T14:56:21.11Z</time></trkpt><trkpt lat="42.3477583" lon="12.73506"><ele>1104.0</ele><time>2026-04-25T14:56:23.108Z</time></trkpt><trkpt lat="42.3477083" lon="12.7351767"><ele>1100.25</ele><time>2026-04-25T14:56:25.108Z</time></trkpt><trkpt lat="42.34766" lon="12.7353083"><ele>1096.5</ele><time>2026-04-25T14:56:27.107Z</time></trkpt><trkpt lat="42.3476383" lon="12.73548"><ele>1092.75</ele><time>2026-04-25T14:56:29.11Z</time></trkpt><trkpt lat="42.3476367" lon="12.73565"><ele>1089.0</ele><time>2026-04-25T14:56:31.108Z</time></trkpt><trkpt lat="42.3476367" lon="12.7358067"><ele>1089.0</ele><time>2026-04-25T14:56:33.109Z</time></trkpt><trkpt lat="42.3476217" lon="12.7359283"><ele>1089.0</ele><time>2026-04-25T14:56:35.109Z</time></trkpt><trkpt lat="42.347595" lon="12.7360417"><ele>1089.0</ele><time>2026-04-25T14:56:37.11Z</time></trkpt><trkpt lat="42.3475567" lon="12.7361417"><ele>1089.0</ele><time>2026-04-25T14:56:39.111Z</time></trkpt><trkpt lat="42.3475117" lon="12.7362633"><ele>1089.0</ele><time>2026-04-25T14:56:41.108Z</time></trkpt><trkpt lat="42.3474617" lon="12.736395"><ele>1087.0</ele><time>2026-04-25T14:56:43.108Z</time></trkpt><trkpt lat="42.347415" lon="12.7365317"><ele>1085.0</ele><time>2026-04-25T14:56:45.111Z</time></trkpt><trkpt lat="42.3473733" lon="12.7366567"><ele>1083.0</ele><time>2026-04-25T14:56:47.107Z</time></trkpt><trkpt lat="42.3473433" lon="12.7367883"><ele>1081.0</ele><time>2026-04-25T14:56:49.111Z</time></trkpt><trkpt lat="42.3472983" lon="12.7369117"><ele>1079.0</ele><time>2026-04-25T14:56:51.111Z</time></trkpt><trkpt lat="42.3472367" lon="12.7370083"><ele>1076.6000000000001</ele><time>2026-04-25T14:56:53.107Z</time></trkpt><trkpt lat="42.3471833" lon="12.7371017"><ele>1074.2</ele><time>2026-04-25T14:56:55.11Z</time></trkpt><trkpt lat="42.3471383" lon="12.7371967"><ele>1071.8000000000002</ele><time>2026-04-25T14:56:57.109Z</time></trkpt><trkpt lat="42.3470967" lon="12.7372933"><ele>1069.4</ele><time>2026-04-25T14:56:59.109Z</time></trkpt><trkpt lat="42.34705" lon="12.737415"><ele>1067.0</ele><time>2026-04-25T14:57:01.109Z</time></trkpt><trkpt lat="42.3470083" lon="12.737545"><ele>1067.0</ele><time>2026-04-25T14:57:03.109Z</time></trkpt><trkpt lat="42.3469333" lon="12.737665"><ele>1067.0</ele><time>2026-04-25T14:57:05.107Z</time></trkpt><trkpt lat="42.3468367" lon="12.7377817"><ele>1067.0</ele><time>2026-04-25T14:57:07.108Z</time></trkpt><trkpt lat="42.34676" lon="12.737905"><ele>1067.0</ele><time>2026-04-25T14:57:09.11Z</time></trkpt><trkpt lat="42.3467183" lon="12.7379767"><ele>1067.0</ele><time>2026-04-25T14:57:10.107Z</time></trkpt><trkpt lat="42.3466283" lon="12.7380783"><ele>1065.1666666666667</ele><time>2026-04-25T14:57:12.108Z</time></trkpt><trkpt lat="42.3465417" lon="12.7381417"><ele>1063.3333333333335</ele><time>2026-04-25T14:57:14.107Z</time></trkpt><trkpt lat="42.3464833" lon="12.7382033"><ele>1061.5</ele><time>2026-04-25T14:57:16.108Z</time></trkpt><trkpt lat="42.3464217" lon="12.7383083"><ele>1059.6666666666667</ele><time>2026-04-25T14:57:18.108Z</time></trkpt><trkpt lat="42.3463633" lon="12.7383867"><ele>1057.8333333333333</ele><time>2026-04-25T14:57:20.108Z</time></trkpt><trkpt lat="42.3463233" lon="12.738475"><ele>1056.0</ele><time>2026-04-25T14:57:22.109Z</time></trkpt><trkpt lat="42.3462717" lon="12.7385717"><ele>1052.6666666666667</ele><time>2026-04-25T14:57:24.11Z</time></trkpt><trkpt lat="42.346215" lon="12.73863"><ele>1049.3333333333333</ele><time>2026-04-25T14:57:26.109Z</time></trkpt><trkpt lat="42.3462133" lon="12.7387217"><ele>1046.0</ele><time>2026-04-25T14:57:35.109Z</time></trkpt><trkpt lat="42.3461717" lon="12.7388"><ele>1042.6666666666665</ele><time>2026-04-25T14:57:38.108Z</time></trkpt><trkpt lat="42.3461467" lon="12.7389083"><ele>1039.3333333333333</ele><time>2026-04-25T14:57:41.108Z</time></trkpt><trkpt lat="42.3461333" lon="12.7390033"><ele>1036.0</ele><time>2026-04-25T14:57:43.108Z</time></trkpt><trkpt lat="42.3460567" lon="12.7391683"><ele>1036.0</ele><time>2026-04-25T14:58:07.108Z</time></trkpt><trkpt lat="42.3459433" lon="12.7392"><ele>1036.0</ele><time>2026-04-25T14:58:09.109Z</time></trkpt><trkpt lat="42.3458467" lon="12.7392133"><ele>1036.0</ele><time>2026-04-25T14:58:11.109Z</time></trkpt><trkpt lat="42.3457783" lon="12.7391433"><ele>1036.0</ele><time>2026-04-25T14:58:13.108Z</time></trkpt><trkpt lat="42.345725" lon="12.7390317"><ele>1036.0</ele><time>2026-04-25T14:58:15.108Z</time></trkpt><trkpt lat="42.3456733" lon="12.7389517"><ele>1036.0</ele><time>2026-04-25T14:58:17.109Z</time></trkpt><trkpt lat="42.34563" lon="12.739015"><ele>1036.0</ele><time>2026-04-25T14:58:42.108Z</time></trkpt><trkpt lat="42.3456767" lon="12.739095"><ele>1036.0</ele><time>2026-04-25T14:58:45.108Z</time></trkpt><trkpt lat="42.3457333" lon="12.7391533"><ele>1036.0</ele><time>2026-04-25T14:58:49.108Z</time></trkpt><trkpt lat="42.345805" lon="12.7391817"><ele>1036.0</ele><time>2026-04-25T14:58:53.108Z</time></trkpt><trkpt lat="42.34588" lon="12.73918"><ele>1036.0</ele><time>2026-04-25T14:58:58.107Z</time></trkpt><trkpt lat="42.3458617" lon="12.7392717"><ele>1036.0</ele><time>2026-04-25T14:59:02.109Z</time></trkpt><trkpt lat="42.3457967" lon="12.739295"><ele>1036.0</ele><time>2026-04-25T14:59:04.108Z</time></trkpt><trkpt lat="42.3457" lon="12.73928"><ele>1036.0</ele><time>2026-04-25T14:59:06.108Z</time></trkpt><trkpt lat="42.34561" lon="12.7392717"><ele>1036.0</ele><time>2026-04-25T14:59:08.109Z</time></trkpt><trkpt lat="42.345515" lon="12.739345"><ele>1036.0</ele><time>2026-04-25T14:59:10.11Z</time></trkpt><trkpt lat="42.3454433" lon="12.7393917"><ele>1036.0</ele><time>2026-04-25T14:59:11.111Z</time></trkpt><trkpt lat="42.345365" lon="12.7394133"><ele>1040.3999999999999</ele><time>2026-04-25T14:59:12.108Z</time></trkpt><trkpt lat="42.345275" lon="12.7394183"><ele>1044.8</ele><time>2026-04-25T14:59:13.108Z</time></trkpt><trkpt lat="42.3451767" lon="12.7394133"><ele>1049.1999999999998</ele><time>2026-04-25T14:59:14.109Z</time></trkpt><trkpt lat="42.34507" lon="12.7394117"><ele>1053.6</ele><time>2026-04-25T14:59:15.11Z</time></trkpt><trkpt lat="42.3449683" lon="12.7393633"><ele>1058.0</ele><time>2026-04-25T14:59:16.108Z</time></trkpt><trkpt lat="42.34487" lon="12.7393133"><ele>1058.0</ele><time>2026-04-25T14:59:17.109Z</time></trkpt><trkpt lat="42.344795" lon="12.7392667"><ele>1058.0</ele><time>2026-04-25T14:59:18.11Z</time></trkpt><trkpt lat="42.34471" lon="12.7391783"><ele>1058.0</ele><time>2026-04-25T14:59:20.108Z</time></trkpt><trkpt lat="42.3447267" lon="12.7390567"><ele>1058.0</ele><time>2026-04-25T15:00:58.109Z</time></trkpt><trkpt lat="42.3446167" lon="12.7390417"><ele>1058.0</ele><time>2026-04-25T15:01:01.108Z</time></trkpt><trkpt lat="42.3444783" lon="12.7390433"><ele>1062.6</ele><time>2026-04-25T15:01:03.109Z</time></trkpt><trkpt lat="42.3443367" lon="12.7390383"><ele>1067.1999999999998</ele><time>2026-04-25T15:01:04.108Z</time></trkpt><trkpt lat="42.3442233" lon="12.7390283"><ele>1071.8</ele><time>2026-04-25T15:01:05.108Z</time></trkpt><trkpt lat="42.3441217" lon="12.7389883"><ele>1076.3999999999999</ele><time>2026-04-25T15:01:06.108Z</time></trkpt><trkpt lat="42.3440367" lon="12.7389733"><ele>1081.0</ele><time>2026-04-25T15:01:07.108Z</time></trkpt><trkpt lat="42.34395" lon="12.7389667"><ele>1083.3333333333333</ele><time>2026-04-25T15:01:08.109Z</time></trkpt><trkpt lat="42.34388" lon="12.7389633"><ele>1085.6666666666665</ele><time>2026-04-25T15:01:09.113Z</time></trkpt><trkpt lat="42.3437983" lon="12.7389367"><ele>1088.0</ele><time>2026-04-25T15:01:10.107Z</time></trkpt><trkpt lat="42.3437233" lon="12.7389283"><ele>1090.3333333333333</ele><time>2026-04-25T15:01:11.109Z</time></trkpt><trkpt lat="42.343645" lon="12.7389183"><ele>1092.6666666666667</ele><time>2026-04-25T15:01:12.109Z</time></trkpt><trkpt lat="42.3435683" lon="12.7389167"><ele>1095.0</ele><time>2026-04-25T15:01:13.109Z</time></trkpt><trkpt lat="42.3434833" lon="12.7389217"><ele>1095.0</ele><time>2026-04-25T15:01:14.108Z</time></trkpt><trkpt lat="42.3434083" lon="12.7389233"><ele>1095.0</ele><time>2026-04-25T15:01:15.108Z</time></trkpt><trkpt lat="42.34334" lon="12.7389233"><ele>1095.0</ele><time>2026-04-25T15:01:16.108Z</time></trkpt><trkpt lat="42.3432283" lon="12.7389167"><ele>1095.0</ele><time>2026-04-25T15:01:18.138Z</time></trkpt><trkpt lat="42.343115" lon="12.73889"><ele>1095.0</ele><time>2026-04-25T15:01:20.11Z</time></trkpt><trkpt lat="42.34304" lon="12.7388717"><ele>1095.0</ele><time>2026-04-25T15:01:21.108Z</time></trkpt><trkpt lat="42.34296" lon="12.738855"><ele>1096.6666666666667</ele><time>2026-04-25T15:01:22.107Z</time></trkpt><trkpt lat="42.3428817" lon="12.7388183"><ele>1098.3333333333333</ele><time>2026-04-25T15:01:23.107Z</time></trkpt><trkpt lat="42.3428133" lon="12.738765"><ele>1100.0</ele><time>2026-04-25T15:01:24.109Z</time></trkpt><trkpt lat="42.342755" lon="12.73869"><ele>1101.6666666666665</ele><time>2026-04-25T15:01:25.108Z</time></trkpt><trkpt lat="42.3427017" lon="12.738605"><ele>1103.3333333333333</ele><time>2026-04-25T15:01:26.11Z</time></trkpt><trkpt lat="42.3426417" lon="12.7385217"><ele>1105.0</ele><time>2026-04-25T15:01:27.111Z</time></trkpt><trkpt lat="42.3425667" lon="12.73843"><ele>1105.0</ele><time>2026-04-25T15:01:28.111Z</time></trkpt><trkpt lat="42.34249" lon="12.73835"><ele>1105.0</ele><time>2026-04-25T15:01:29.111Z</time></trkpt><trkpt lat="42.3424067" lon="12.7382867"><ele>1105.0</ele><time>2026-04-25T15:01:30.108Z</time></trkpt><trkpt lat="42.3423183" lon="12.738245"><ele>1105.0</ele><time>2026-04-25T15:01:31.11Z</time></trkpt><trkpt lat="42.3422317" lon="12.738215"><ele>1105.0</ele><time>2026-04-25T15:01:32.112Z</time></trkpt><trkpt lat="42.3421533" lon="12.7381817"><ele>1108.1666666666665</ele><time>2026-04-25T15:01:33.11Z</time></trkpt><trkpt lat="42.3420717" lon="12.7381533"><ele>1111.3333333333333</ele><time>2026-04-25T15:01:34.11Z</time></trkpt><trkpt lat="42.3419933" lon="12.738125"><ele>1114.5</ele><time>2026-04-25T15:01:35.108Z</time></trkpt><trkpt lat="42.3419233" lon="12.7380967"><ele>1117.6666666666667</ele><time>2026-04-25T15:01:36.109Z</time></trkpt><trkpt lat="42.3418533" lon="12.7380583"><ele>1120.8333333333335</ele><time>2026-04-25T15:01:37.11Z</time></trkpt><trkpt lat="42.3417867" lon="12.7379967"><ele>1124.0</ele><time>2026-04-25T15:01:38.108Z</time></trkpt><trkpt lat="42.3417167" lon="12.7379267"><ele>1124.0</ele><time>2026-04-25T15:01:39.109Z</time></trkpt><trkpt lat="42.34164" lon="12.737855"><ele>1124.0</ele><time>2026-04-25T15:01:40.109Z</time></trkpt><trkpt lat="42.341575" lon="12.737775"><ele>1124.0</ele><time>2026-04-25T15:01:41.109Z</time></trkpt><trkpt lat="42.341525" lon="12.7377033"><ele>1124.0</ele><time>2026-04-25T15:01:42.108Z</time></trkpt><trkpt lat="42.3414883" lon="12.7376117"><ele>1124.0</ele><time>2026-04-25T15:01:44.109Z</time></trkpt><trkpt lat="42.34146" lon="12.7375167"><ele>1124.0</ele><time>2026-04-25T15:01:46.11Z</time></trkpt><trkpt lat="42.3414433" lon="12.737425"><ele>1124.6666666666667</ele><time>2026-04-25T15:01:48.108Z</time></trkpt><trkpt lat="42.34137" lon="12.73738"><ele>1125.3333333333335</ele><time>2026-04-25T15:01:51.109Z</time></trkpt><trkpt lat="42.3413033" lon="12.7374133"><ele>1126.0</ele><time>2026-04-25T15:01:54.111Z</time></trkpt><trkpt lat="42.34124" lon="12.7374617"><ele>1126.6666666666667</ele><time>2026-04-25T15:01:56.107Z</time></trkpt><trkpt lat="42.3411467" lon="12.7374683"><ele>1127.3333333333333</ele><time>2026-04-25T15:01:58.111Z</time></trkpt><trkpt lat="42.3410533" lon="12.7374367"><ele>1128.0</ele><time>2026-04-25T15:02:00.11Z</time></trkpt><trkpt lat="42.3409667" lon="12.737415"><ele>1128.0</ele><time>2026-04-25T15:02:02.109Z</time></trkpt><trkpt lat="42.340875" lon="12.7373467"><ele>1128.0</ele><time>2026-04-25T15:02:04.108Z</time></trkpt><trkpt lat="42.340795" lon="12.7372783"><ele>1128.0</ele><time>2026-04-25T15:02:06.11Z</time></trkpt><trkpt lat="42.3407217" lon="12.7372217"><ele>1128.0</ele><time>2026-04-25T15:02:08.108Z</time></trkpt><trkpt lat="42.3406583" lon="12.737165"><ele>1128.0</ele><time>2026-04-25T15:02:10.109Z</time></trkpt><trkpt lat="42.3405883" lon="12.7371383"><ele>1128.0</ele><time>2026-04-25T15:02:12.109Z</time></trkpt><trkpt lat="42.3405017" lon="12.73709"><ele>1128.8</ele><time>2026-04-25T15:02:42.11Z</time></trkpt><trkpt lat="42.3404367" lon="12.737055"><ele>1129.6</ele><time>2026-04-25T15:02:44.108Z</time></trkpt><trkpt lat="42.3403317" lon="12.7369917"><ele>1130.4</ele><time>2026-04-25T15:02:46.109Z</time></trkpt><trkpt lat="42.3402583" lon="12.7369417"><ele>1131.2</ele><time>2026-04-25T15:02:47.109Z</time></trkpt><trkpt lat="42.34017" lon="12.7368883"><ele>1132.0</ele><time>2026-04-25T15:02:48.107Z</time></trkpt><trkpt lat="42.3400733" lon="12.7368383"><ele>1129.0</ele><time>2026-04-25T15:02:49.109Z</time></trkpt><trkpt lat="42.3399817" lon="12.7367933"><ele>1126.0</ele><time>2026-04-25T15:02:50.108Z</time></trkpt><trkpt lat="42.3398917" lon="12.736745"><ele>1123.0</ele><time>2026-04-25T15:02:51.11Z</time></trkpt><trkpt lat="42.3398" lon="12.7366867"><ele>1120.0</ele><time>2026-04-25T15:02:52.11Z</time></trkpt><trkpt lat="42.3396967" lon="12.7366217"><ele>1117.0</ele><time>2026-04-25T15:02:53.11Z</time></trkpt><trkpt lat="42.3395817" lon="12.7365583"><ele>1116.4</ele><time>2026-04-25T15:02:54.109Z</time></trkpt><trkpt lat="42.3394667" lon="12.7365067"><ele>1115.8000000000002</ele><time>2026-04-25T15:02:55.109Z</time></trkpt><trkpt lat="42.339355" lon="12.736465"><ele>1115.2</ele><time>2026-04-25T15:02:56.11Z</time></trkpt><trkpt lat="42.3392533" lon="12.73643"><ele>1114.6000000000001</ele><time>2026-04-25T15:02:57.11Z</time></trkpt><trkpt lat="42.339165" lon="12.7363983"><ele>1114.0</ele><time>2026-04-25T15:02:58.107Z</time></trkpt><trkpt lat="42.3390933" lon="12.7363683"><ele>1114.0</ele><time>2026-04-25T15:02:59.106Z</time></trkpt><trkpt lat="42.339025" lon="12.73634"><ele>1114.0</ele><time>2026-04-25T15:03:00.106Z</time></trkpt><trkpt lat="42.33895" lon="12.73631"><ele>1114.0</ele><time>2026-04-25T15:03:01.106Z</time></trkpt><trkpt lat="42.3388717" lon="12.736275"><ele>1114.0</ele><time>2026-04-25T15:03:02.107Z</time></trkpt><trkpt lat="42.3387983" lon="12.7362433"><ele>1114.0</ele><time>2026-04-25T15:03:03.11Z</time></trkpt><trkpt lat="42.3387217" lon="12.736215"><ele>1114.0</ele><time>2026-04-25T15:03:04.108Z</time></trkpt><trkpt lat="42.3386317" lon="12.7361767"><ele>1113.8</ele><time>2026-04-25T15:03:05.107Z</time></trkpt><trkpt lat="42.338535" lon="12.7361417"><ele>1113.6000000000001</ele><time>2026-04-25T15:03:06.11Z</time></trkpt><trkpt lat="42.33844" lon="12.7361217"><ele>1113.4</ele><time>2026-04-25T15:03:07.108Z</time></trkpt><trkpt lat="42.33835" lon="12.7361133"><ele>1113.2</ele><time>2026-04-25T15:03:08.108Z</time></trkpt><trkpt lat="42.338265" lon="12.736115"><ele>1113.0</ele><time>2026-04-25T15:03:09.109Z</time></trkpt><trkpt lat="42.338185" lon="12.7361133"><ele>1113.0</ele><time>2026-04-25T15:03:10.108Z</time></trkpt><trkpt lat="42.338105" lon="12.7361133"><ele>1113.0</ele><time>2026-04-25T15:03:11.108Z</time></trkpt><trkpt lat="42.3380233" lon="12.7361067"><ele>1113.0</ele><time>2026-04-25T15:03:12.107Z</time></trkpt><trkpt lat="42.3379433" lon="12.736095"><ele>1113.0</ele><time>2026-04-25T15:03:13.109Z</time></trkpt><trkpt lat="42.3378617" lon="12.7360817"><ele>1113.0</ele><time>2026-04-25T15:03:14.109Z</time></trkpt><trkpt lat="42.3377783" lon="12.7360633"><ele>1113.0</ele><time>2026-04-25T15:03:15.109Z</time></trkpt><trkpt lat="42.337695" lon="12.7360417"><ele>1108.4</ele><time>2026-04-25T15:03:16.11Z</time></trkpt><trkpt lat="42.33761" lon="12.7360233"><ele>1103.8</ele><time>2026-04-25T15:03:17.109Z</time></trkpt><trkpt lat="42.337515" lon="12.7360067"><ele>1099.2</ele><time>2026-04-25T15:03:18.108Z</time></trkpt><trkpt lat="42.33742" lon="12.73599"><ele>1094.6</ele><time>2026-04-25T15:03:19.108Z</time></trkpt><trkpt lat="42.3373217" lon="12.7359667"><ele>1090.0</ele><time>2026-04-25T15:03:20.108Z</time></trkpt><trkpt lat="42.3372267" lon="12.7359433"><ele>1089.0</ele><time>2026-04-25T15:03:21.108Z</time></trkpt><trkpt lat="42.3371333" lon="12.7359233"><ele>1088.0</ele><time>2026-04-25T15:03:22.108Z</time></trkpt><trkpt lat="42.3370467" lon="12.73591"><ele>1087.0</ele><time>2026-04-25T15:03:23.108Z</time></trkpt><trkpt lat="42.3369617" lon="12.7358917"><ele>1086.0</ele><time>2026-04-25T15:03:24.111Z</time></trkpt><trkpt lat="42.336875" lon="12.735875"><ele>1085.0</ele><time>2026-04-25T15:03:25.11Z</time></trkpt><trkpt lat="42.3367883" lon="12.73586"><ele>1084.0</ele><time>2026-04-25T15:03:26.11Z</time></trkpt><trkpt lat="42.3367" lon="12.735845"><ele>1084.0</ele><time>2026-04-25T15:03:27.108Z</time></trkpt><trkpt lat="42.336615" lon="12.7358383"><ele>1084.0</ele><time>2026-04-25T15:03:28.108Z</time></trkpt><trkpt lat="42.3365317" lon="12.7358383"><ele>1084.0</ele><time>2026-04-25T15:03:29.108Z</time></trkpt><trkpt lat="42.3364517" lon="12.7358417"><ele>1084.0</ele><time>2026-04-25T15:03:30.107Z</time></trkpt><trkpt lat="42.3363767" lon="12.7358483"><ele>1084.0</ele><time>2026-04-25T15:03:31.107Z</time></trkpt><trkpt lat="42.336305" lon="12.7358517"><ele>1084.0</ele><time>2026-04-25T15:03:32.108Z</time></trkpt><trkpt lat="42.3362317" lon="12.7358483"><ele>1083.5</ele><time>2026-04-25T15:03:33.109Z</time></trkpt><trkpt lat="42.336155" lon="12.7358333"><ele>1083.0</ele><time>2026-04-25T15:03:34.109Z</time></trkpt><trkpt lat="42.3360783" lon="12.735805"><ele>1082.5</ele><time>2026-04-25T15:03:35.108Z</time></trkpt><trkpt lat="42.3360017" lon="12.7357667"><ele>1082.0</ele><time>2026-04-25T15:03:36.108Z</time></trkpt><trkpt lat="42.3359233" lon="12.7357267"><ele>1081.5</ele><time>2026-04-25T15:03:37.108Z</time></trkpt><trkpt lat="42.3358433" lon="12.735685"><ele>1081.0</ele><time>2026-04-25T15:03:38.107Z</time></trkpt><trkpt lat="42.3357667" lon="12.7356417"><ele>1081.0</ele><time>2026-04-25T15:03:39.11Z</time></trkpt><trkpt lat="42.3356917" lon="12.735595"><ele>1081.0</ele><time>2026-04-25T15:03:40.108Z</time></trkpt><trkpt lat="42.3356183" lon="12.735545"><ele>1081.0</ele><time>2026-04-25T15:03:41.107Z</time></trkpt><trkpt lat="42.3355483" lon="12.7355"><ele>1081.0</ele><time>2026-04-25T15:03:42.106Z</time></trkpt><trkpt lat="42.3354833" lon="12.73546"><ele>1081.0</ele><time>2026-04-25T15:03:43.107Z</time></trkpt><trkpt lat="42.3354183" lon="12.7354233"><ele>1081.0</ele><time>2026-04-25T15:03:44.107Z</time></trkpt><trkpt lat="42.335355" lon="12.735385"><ele>1081.3999999999999</ele><time>2026-04-25T15:03:45.109Z</time></trkpt><trkpt lat="42.3352983" lon="12.7353467"><ele>1081.8</ele><time>2026-04-25T15:03:46.108Z</time></trkpt><trkpt lat="42.3351933" lon="12.7352617"><ele>1082.1999999999998</ele><time>2026-04-25T15:03:48.108Z</time></trkpt><trkpt lat="42.3351017" lon="12.73515"><ele>1082.6</ele><time>2026-04-25T15:03:50.109Z</time></trkpt><trkpt lat="42.3350567" lon="12.7350883"><ele>1083.0</ele><time>2026-04-25T15:03:51.109Z</time></trkpt><trkpt lat="42.3349667" lon="12.7349933"><ele>1083.0</ele><time>2026-04-25T15:03:53.109Z</time></trkpt><trkpt lat="42.33488" lon="12.7349067"><ele>1083.0</ele><time>2026-04-25T15:03:55.109Z</time></trkpt><trkpt lat="42.334805" lon="12.73483"><ele>1083.0</ele><time>2026-04-25T15:03:57.109Z</time></trkpt><trkpt lat="42.334755" lon="12.7347717"><ele>1083.0</ele><time>2026-04-25T15:03:59.109Z</time></trkpt><trkpt lat="42.3347067" lon="12.7347117"><ele>1083.0</ele><time>2026-04-25T15:04:01.109Z</time></trkpt><trkpt lat="42.33466" lon="12.73465"><ele>1083.0</ele><time>2026-04-25T15:04:03.109Z</time></trkpt><trkpt lat="42.33462" lon="12.7345333"><ele>1083.8333333333333</ele><time>2026-04-25T15:04:05.108Z</time></trkpt><trkpt lat="42.3345683" lon="12.7344167"><ele>1084.6666666666667</ele><time>2026-04-25T15:04:07.11Z</time></trkpt><trkpt lat="42.33451" lon="12.7343517"><ele>1085.5</ele><time>2026-04-25T15:04:09.108Z</time></trkpt><trkpt lat="42.3344517" lon="12.7343033"><ele>1086.3333333333335</ele><time>2026-04-25T15:04:11.11Z</time></trkpt><trkpt lat="42.3343717" lon="12.734235"><ele>1087.1666666666667</ele><time>2026-04-25T15:04:14.11Z</time></trkpt><trkpt lat="42.3343067" lon="12.7342067"><ele>1088.0</ele><time>2026-04-25T15:04:16.107Z</time></trkpt><trkpt lat="42.3342417" lon="12.7341617"><ele>1088.0</ele><time>2026-04-25T15:04:19.109Z</time></trkpt><trkpt lat="42.3341617" lon="12.7341133"><ele>1088.0</ele><time>2026-04-25T15:04:51.109Z</time></trkpt><trkpt lat="42.3340583" lon="12.7340567"><ele>1088.0</ele><time>2026-04-25T15:04:54.108Z</time></trkpt><trkpt lat="42.3339433" lon="12.7340117"><ele>1088.0</ele><time>2026-04-25T15:04:56.108Z</time></trkpt><trkpt lat="42.333825" lon="12.7339733"><ele>1088.0</ele><time>2026-04-25T15:04:58.109Z</time></trkpt><trkpt lat="42.3337633" lon="12.733955"><ele>1086.4</ele><time>2026-04-25T15:04:59.109Z</time></trkpt><trkpt lat="42.33365" lon="12.7339083"><ele>1084.8</ele><time>2026-04-25T15:05:01.107Z</time></trkpt><trkpt lat="42.3335633" lon="12.7339117"><ele>1083.2</ele><time>2026-04-25T15:05:03.109Z</time></trkpt><trkpt lat="42.33346" lon="12.733925"><ele>1081.6</ele><time>2026-04-25T15:05:05.108Z</time></trkpt><trkpt lat="42.333355" lon="12.7339217"><ele>1080.0</ele><time>2026-04-25T15:05:07.108Z</time></trkpt><trkpt lat="42.3332633" lon="12.73389"><ele>1080.0</ele><time>2026-04-25T15:05:09.109Z</time></trkpt><trkpt lat="42.3332017" lon="12.73385"><ele>1080.0</ele><time>2026-04-25T15:05:10.108Z</time></trkpt><trkpt lat="42.3331367" lon="12.7338167"><ele>1080.0</ele><time>2026-04-25T15:05:11.109Z</time></trkpt><trkpt lat="42.33307" lon="12.7337917"><ele>1080.0</ele><time>2026-04-25T15:05:12.109Z</time></trkpt><trkpt lat="42.33295" lon="12.733765"><ele>1080.0</ele><time>2026-04-25T15:05:14.109Z</time></trkpt><trkpt lat="42.3328433" lon="12.7337567"><ele>1080.0</ele><time>2026-04-25T15:05:16.109Z</time></trkpt><trkpt lat="42.3327833" lon="12.7337217"><ele>1079.2857142857142</ele><time>2026-04-25T15:05:17.109Z</time></trkpt><trkpt lat="42.3327117" lon="12.7336967"><ele>1078.5714285714284</ele><time>2026-04-25T15:05:18.11Z</time></trkpt><trkpt lat="42.3326433" lon="12.7336883"><ele>1077.857142857143</ele><time>2026-04-25T15:05:19.111Z</time></trkpt><trkpt lat="42.332565" lon="12.7336783"><ele>1077.142857142857</ele><time>2026-04-25T15:05:20.11Z</time></trkpt><trkpt lat="42.3324833" lon="12.7336733"><ele>1076.4285714285716</ele><time>2026-04-25T15:05:21.11Z</time></trkpt><trkpt lat="42.33242" lon="12.7337017"><ele>1075.7142857142858</ele><time>2026-04-25T15:05:22.109Z</time></trkpt><trkpt lat="42.3323483" lon="12.733725"><ele>1075.0</ele><time>2026-04-25T15:05:23.109Z</time></trkpt><trkpt lat="42.3322767" lon="12.733755"><ele>1072.8333333333333</ele><time>2026-04-25T15:05:24.109Z</time></trkpt><trkpt lat="42.3321967" lon="12.73377"><ele>1070.6666666666665</ele><time>2026-04-25T15:05:25.109Z</time></trkpt><trkpt lat="42.33213" lon="12.7337883"><ele>1068.5</ele><time>2026-04-25T15:05:26.11Z</time></trkpt><trkpt lat="42.33202" lon="12.7337767"><ele>1066.3333333333333</ele><time>2026-04-25T15:05:28.11Z</time></trkpt><trkpt lat="42.331945" lon="12.7337417"><ele>1064.1666666666667</ele><time>2026-04-25T15:05:30.109Z</time></trkpt><trkpt lat="42.3318767" lon="12.7337017"><ele>1062.0</ele><time>2026-04-25T15:05:33.109Z</time></trkpt><trkpt lat="42.3318083" lon="12.73364"><ele>1062.0</ele><time>2026-04-25T15:05:35.108Z</time></trkpt><trkpt lat="42.331735" lon="12.7335833"><ele>1062.0</ele><time>2026-04-25T15:05:37.11Z</time></trkpt><trkpt lat="42.3316633" lon="12.7335533"><ele>1062.0</ele><time>2026-04-25T15:05:39.109Z</time></trkpt><trkpt lat="42.3315833" lon="12.73353"><ele>1062.0</ele><time>2026-04-25T15:05:41.108Z</time></trkpt><trkpt lat="42.33147" lon="12.73349"><ele>1062.0</ele><time>2026-04-25T15:05:43.11Z</time></trkpt><trkpt lat="42.33136" lon="12.7334933"><ele>1059.5</ele><time>2026-04-25T15:05:45.108Z</time></trkpt><trkpt lat="42.33124" lon="12.73352"><ele>1057.0</ele><time>2026-04-25T15:05:47.109Z</time></trkpt><trkpt lat="42.331175" lon="12.7335367"><ele>1054.5</ele><time>2026-04-25T15:05:48.109Z</time></trkpt><trkpt lat="42.3311067" lon="12.7335533"><ele>1052.0</ele><time>2026-04-25T15:05:49.109Z</time></trkpt><trkpt lat="42.3310367" lon="12.7335817"><ele>1049.5</ele><time>2026-04-25T15:05:50.11Z</time></trkpt><trkpt lat="42.3309633" lon="12.7335983"><ele>1047.0</ele><time>2026-04-25T15:05:51.109Z</time></trkpt><trkpt lat="42.3308967" lon="12.7336133"><ele>1047.0000000000002</ele><time>2026-04-25T15:05:52.109Z</time></trkpt><trkpt lat="42.3308333" lon="12.73363"><ele>1047.0</ele><time>2026-04-25T15:05:53.109Z</time></trkpt><trkpt lat="42.3307683" lon="12.7336383"><ele>1047.0</ele><time>2026-04-25T15:05:54.108Z</time></trkpt><trkpt lat="42.330705" lon="12.7336383"><ele>1047.0</ele><time>2026-04-25T15:05:55.109Z</time></trkpt><trkpt lat="42.3306417" lon="12.733635"><ele>1047.0</ele><time>2026-04-25T15:05:56.109Z</time></trkpt><trkpt lat="42.3305667" lon="12.73365"><ele>1047.0000000000002</ele><time>2026-04-25T15:06:35.107Z</time></trkpt><trkpt lat="42.33048" lon="12.7336483"><ele>1047.0</ele><time>2026-04-25T15:06:38.108Z</time></trkpt><trkpt lat="42.33037" lon="12.7336367"><ele>1045.5</ele><time>2026-04-25T15:06:58.108Z</time></trkpt><trkpt lat="42.3302717" lon="12.733605"><ele>1044.0</ele><time>2026-04-25T15:07:00.107Z</time></trkpt><trkpt lat="42.3302" lon="12.7336017"><ele>1042.5</ele><time>2026-04-25T15:07:01.106Z</time></trkpt><trkpt lat="42.330115" lon="12.7336067"><ele>1041.0</ele><time>2026-04-25T15:07:02.108Z</time></trkpt><trkpt lat="42.3300367" lon="12.7336217"><ele>1039.5</ele><time>2026-04-25T15:07:03.108Z</time></trkpt><trkpt lat="42.3299467" lon="12.73366"><ele>1038.0</ele><time>2026-04-25T15:07:04.106Z</time></trkpt><trkpt lat="42.3298717" lon="12.7336817"><ele>1038.0</ele><time>2026-04-25T15:07:05.108Z</time></trkpt><trkpt lat="42.3298067" lon="12.7336933"><ele>1038.0</ele><time>2026-04-25T15:07:06.109Z</time></trkpt><trkpt lat="42.3296933" lon="12.73373"><ele>1038.0</ele><time>2026-04-25T15:07:08.108Z</time></trkpt><trkpt lat="42.329575" lon="12.733725"><ele>1038.0</ele><time>2026-04-25T15:07:10.108Z</time></trkpt><trkpt lat="42.329445" lon="12.733735"><ele>1038.0</ele><time>2026-04-25T15:07:12.109Z</time></trkpt><trkpt lat="42.32937" lon="12.73374"><ele>1035.7142857142858</ele><time>2026-04-25T15:07:13.11Z</time></trkpt><trkpt lat="42.3293033" lon="12.7337533"><ele>1033.4285714285713</ele><time>2026-04-25T15:07:14.107Z</time></trkpt><trkpt lat="42.3292417" lon="12.7337783"><ele>1031.142857142857</ele><time>2026-04-25T15:07:15.11Z</time></trkpt><trkpt lat="42.329165" lon="12.7338083"><ele>1028.857142857143</ele><time>2026-04-25T15:07:16.108Z</time></trkpt><trkpt lat="42.3290967" lon="12.73383"><ele>1026.5714285714284</ele><time>2026-04-25T15:07:17.109Z</time></trkpt><trkpt lat="42.329025" lon="12.7338483"><ele>1024.2857142857142</ele><time>2026-04-25T15:07:18.109Z</time></trkpt><trkpt lat="42.3289433" lon="12.7338717"><ele>1022.0</ele><time>2026-04-25T15:07:19.109Z</time></trkpt><trkpt lat="42.3288633" lon="12.7338783"><ele>1019.5000000000001</ele><time>2026-04-25T15:07:20.109Z</time></trkpt><trkpt lat="42.3287883" lon="12.733895"><ele>1017.0</ele><time>2026-04-25T15:07:21.109Z</time></trkpt><trkpt lat="42.3287067" lon="12.7339233"><ele>1014.5</ele><time>2026-04-25T15:07:22.11Z</time></trkpt><trkpt lat="42.328625" lon="12.7339483"><ele>1012.0</ele><time>2026-04-25T15:07:23.107Z</time></trkpt><trkpt lat="42.328545" lon="12.7339617"><ele>1009.5000000000001</ele><time>2026-04-25T15:07:24.109Z</time></trkpt><trkpt lat="42.3284267" lon="12.7339583"><ele>1007.0</ele><time>2026-04-25T15:07:26.11Z</time></trkpt><trkpt lat="42.328305" lon="12.733925"><ele>1007.0000000000001</ele><time>2026-04-25T15:07:28.11Z</time></trkpt><trkpt lat="42.3282467" lon="12.7338783"><ele>1007.0</ele><time>2026-04-25T15:07:29.109Z</time></trkpt><trkpt lat="42.3281867" lon="12.7338083"><ele>1007.0</ele><time>2026-04-25T15:07:30.11Z</time></trkpt><trkpt lat="42.3280733" lon="12.7337133"><ele>1007.0</ele><time>2026-04-25T15:07:32.108Z</time></trkpt><trkpt lat="42.32801" lon="12.7336617"><ele>1007.0000000000001</ele><time>2026-04-25T15:07:33.108Z</time></trkpt><trkpt lat="42.3279383" lon="12.7336017"><ele>1007.0</ele><time>2026-04-25T15:07:34.108Z</time></trkpt><trkpt lat="42.32787" lon="12.7335583"><ele>1005.1666666666667</ele><time>2026-04-25T15:07:35.108Z</time></trkpt><trkpt lat="42.3277967" lon="12.73353"><ele>1003.3333333333334</ele><time>2026-04-25T15:07:36.108Z</time></trkpt><trkpt lat="42.3277233" lon="12.7335"><ele>1001.5</ele><time>2026-04-25T15:07:37.109Z</time></trkpt><trkpt lat="42.32766" lon="12.7334933"><ele>999.6666666666667</ele><time>2026-04-25T15:07:38.108Z</time></trkpt><trkpt lat="42.3275967" lon="12.73351"><ele>997.8333333333334</ele><time>2026-04-25T15:07:39.109Z</time></trkpt><trkpt lat="42.3274933" lon="12.733565"><ele>996.0</ele><time>2026-04-25T15:07:41.107Z</time></trkpt><trkpt lat="42.327435" lon="12.7336033"><ele>996.0</ele><time>2026-04-25T15:07:42.11Z</time></trkpt><trkpt lat="42.3273667" lon="12.7336417"><ele>996.0</ele><time>2026-04-25T15:07:43.109Z</time></trkpt><trkpt lat="42.3272917" lon="12.733685"><ele>996.0</ele><time>2026-04-25T15:07:44.109Z</time></trkpt><trkpt lat="42.3272167" lon="12.733735"><ele>996.0</ele><time>2026-04-25T15:07:45.107Z</time></trkpt><trkpt lat="42.3271433" lon="12.7337917"><ele>996.0</ele><time>2026-04-25T15:07:46.109Z</time></trkpt><trkpt lat="42.32707" lon="12.7338567"><ele>996.0</ele><time>2026-04-25T15:07:47.108Z</time></trkpt><trkpt lat="42.3270017" lon="12.7339083"><ele>993.0</ele><time>2026-04-25T15:07:48.108Z</time></trkpt><trkpt lat="42.326945" lon="12.73396"><ele>989.9999999999999</ele><time>2026-04-25T15:07:49.11Z</time></trkpt><trkpt lat="42.3268483" lon="12.734045"><ele>986.9999999999999</ele><time>2026-04-25T15:07:51.108Z</time></trkpt><trkpt lat="42.3267317" lon="12.7340633"><ele>984.0</ele><time>2026-04-25T15:07:53.11Z</time></trkpt><trkpt lat="42.3266333" lon="12.7340733"><ele>981.0</ele><time>2026-04-25T15:07:55.109Z</time></trkpt><trkpt lat="42.3265583" lon="12.734055"><ele>981.0</ele><time>2026-04-25T15:07:56.109Z</time></trkpt><trkpt lat="42.3264717" lon="12.734045"><ele>981.0</ele><time>2026-04-25T15:07:57.11Z</time></trkpt><trkpt lat="42.3263817" lon="12.7340383"><ele>981.0</ele><time>2026-04-25T15:07:58.109Z</time></trkpt><trkpt lat="42.3262867" lon="12.7340067"><ele>981.0</ele><time>2026-04-25T15:07:59.108Z</time></trkpt><trkpt lat="42.3262083" lon="12.7340017"><ele>981.0</ele><time>2026-04-25T15:08:00.108Z</time></trkpt><trkpt lat="42.326125" lon="12.7339917"><ele>981.0</ele><time>2026-04-25T15:08:01.109Z</time></trkpt><trkpt lat="42.3260533" lon="12.7339983"><ele>979.3333333333334</ele><time>2026-04-25T15:08:02.108Z</time></trkpt><trkpt lat="42.3259833" lon="12.7340183"><ele>977.6666666666667</ele><time>2026-04-25T15:08:03.108Z</time></trkpt><trkpt lat="42.3258983" lon="12.7340467"><ele>976.0</ele><time>2026-04-25T15:08:04.109Z</time></trkpt><trkpt lat="42.3258167" lon="12.7340733"><ele>974.3333333333334</ele><time>2026-04-25T15:08:05.108Z</time></trkpt><trkpt lat="42.3257333" lon="12.7341067"><ele>972.6666666666667</ele><time>2026-04-25T15:08:06.11Z</time></trkpt><trkpt lat="42.32565" lon="12.734135"><ele>971.0</ele><time>2026-04-25T15:08:07.109Z</time></trkpt><trkpt lat="42.3255767" lon="12.7341633"><ele>969.3333333333334</ele><time>2026-04-25T15:08:08.109Z</time></trkpt><trkpt lat="42.3254883" lon="12.7341667"><ele>967.6666666666667</ele><time>2026-04-25T15:08:09.108Z</time></trkpt><trkpt lat="42.3254" lon="12.7341667"><ele>966.0</ele><time>2026-04-25T15:08:10.109Z</time></trkpt><trkpt lat="42.32532" lon="12.7341633"><ele>964.3333333333333</ele><time>2026-04-25T15:08:11.107Z</time></trkpt><trkpt lat="42.3252533" lon="12.734155"><ele>962.6666666666666</ele><time>2026-04-25T15:08:13.111Z</time></trkpt><trkpt lat="42.32516" lon="12.7342033"><ele>961.0</ele><time>2026-04-25T15:08:20.108Z</time></trkpt><trkpt lat="42.325085" lon="12.7342283"><ele>961.0</ele><time>2026-04-25T15:08:22.109Z</time></trkpt><trkpt lat="42.3250167" lon="12.7342567"><ele>960.9999999999999</ele><time>2026-04-25T15:08:24.108Z</time></trkpt><trkpt lat="42.3249267" lon="12.7342533"><ele>961.0</ele><time>2026-04-25T15:08:27.108Z</time></trkpt><trkpt lat="42.3248633" lon="12.734255"><ele>961.0</ele><time>2026-04-25T15:08:29.107Z</time></trkpt><trkpt lat="42.324795" lon="12.7342717"><ele>960.9999999999999</ele><time>2026-04-25T15:08:32.109Z</time></trkpt><trkpt lat="42.3247167" lon="12.7343"><ele>961.0</ele><time>2026-04-25T15:08:36.108Z</time></trkpt><trkpt lat="42.3246467" lon="12.7342983"><ele>961.0</ele><time>2026-04-25T15:08:39.11Z</time></trkpt><trkpt lat="42.324555" lon="12.7342567"><ele>958.8</ele><time>2026-04-25T15:08:42.108Z</time></trkpt><trkpt lat="42.3244767" lon="12.7342583"><ele>956.5999999999999</ele><time>2026-04-25T15:08:44.11Z</time></trkpt><trkpt lat="42.3243817" lon="12.7342583"><ele>954.4</ele><time>2026-04-25T15:08:46.108Z</time></trkpt><trkpt lat="42.324255" lon="12.7342317"><ele>952.2</ele><time>2026-04-25T15:08:48.108Z</time></trkpt><trkpt lat="42.32418" lon="12.7342283"><ele>950.0</ele><time>2026-04-25T15:08:49.108Z</time></trkpt><trkpt lat="42.3240967" lon="12.7342267"><ele>950.0000000000001</ele><time>2026-04-25T15:08:50.108Z</time></trkpt><trkpt lat="42.324015" lon="12.7342367"><ele>950.0</ele><time>2026-04-25T15:08:51.109Z</time></trkpt><trkpt lat="42.32394" lon="12.7342517"><ele>950.0</ele><time>2026-04-25T15:08:52.107Z</time></trkpt><trkpt lat="42.3238733" lon="12.7342583"><ele>950.0</ele><time>2026-04-25T15:08:53.108Z</time></trkpt><trkpt lat="42.32381" lon="12.73428"><ele>950.0000000000001</ele><time>2026-04-25T15:08:54.109Z</time></trkpt><trkpt lat="42.3236783" lon="12.734315"><ele>950.0</ele><time>2026-04-25T15:08:56.109Z</time></trkpt><trkpt lat="42.3236033" lon="12.7343267"><ele>950.5000000000001</ele><time>2026-04-25T15:08:57.109Z</time></trkpt><trkpt lat="42.32353" lon="12.7343433"><ele>951.0</ele><time>2026-04-25T15:08:58.109Z</time></trkpt><trkpt lat="42.323465" lon="12.7343633"><ele>951.5</ele><time>2026-04-25T15:08:59.11Z</time></trkpt><trkpt lat="42.3233833" lon="12.7344133"><ele>952.0</ele><time>2026-04-25T15:09:01.109Z</time></trkpt><trkpt lat="42.3232967" lon="12.7344533"><ele>952.5000000000001</ele><time>2026-04-25T15:09:03.11Z</time></trkpt><trkpt lat="42.3232033" lon="12.734485"><ele>953.0</ele><time>2026-04-25T15:09:05.107Z</time></trkpt><trkpt lat="42.32314" lon="12.7345067"><ele>952.4</ele><time>2026-04-25T15:09:08.106Z</time></trkpt><trkpt lat="42.3230383" lon="12.7344683"><ele>951.8</ele><time>2026-04-25T15:09:11.108Z</time></trkpt><trkpt lat="42.3229317" lon="12.734425"><ele>951.2</ele><time>2026-04-25T15:09:13.109Z</time></trkpt><trkpt lat="42.3228033" lon="12.7344333"><ele>950.6</ele><time>2026-04-25T15:09:15.107Z</time></trkpt><trkpt lat="42.32271" lon="12.734475"><ele>950.0</ele><time>2026-04-25T15:09:17.107Z</time></trkpt><trkpt lat="42.32261" lon="12.734505"><ele>950.0</ele><time>2026-04-25T15:09:19.108Z</time></trkpt><trkpt lat="42.3225217" lon="12.7345267"><ele>950.0</ele><time>2026-04-25T15:09:21.108Z</time></trkpt><trkpt lat="42.322415" lon="12.7345417"><ele>950.0</ele><time>2026-04-25T15:09:23.109Z</time></trkpt><trkpt lat="42.3223217" lon="12.7345517"><ele>950.0</ele><time>2026-04-25T15:09:25.108Z</time></trkpt><trkpt lat="42.32223" lon="12.7345967"><ele>950.0</ele><time>2026-04-25T15:09:33.109Z</time></trkpt><trkpt lat="42.3221217" lon="12.73452"><ele>947.6666666666667</ele><time>2026-04-25T15:09:35.108Z</time></trkpt><trkpt lat="42.322" lon="12.734455"><ele>945.3333333333334</ele><time>2026-04-25T15:09:37.109Z</time></trkpt><trkpt lat="42.3219367" lon="12.7344333"><ele>943.0</ele><time>2026-04-25T15:09:38.107Z</time></trkpt><trkpt lat="42.3218633" lon="12.7344267"><ele>940.6666666666667</ele><time>2026-04-25T15:09:39.108Z</time></trkpt><trkpt lat="42.3217817" lon="12.73444"><ele>938.3333333333334</ele><time>2026-04-25T15:09:40.108Z</time></trkpt><trkpt lat="42.3217183" lon="12.7344683"><ele>936.0</ele><time>2026-04-25T15:09:41.109Z</time></trkpt><trkpt lat="42.321655" lon="12.7344917"><ele>936.0</ele><time>2026-04-25T15:09:42.109Z</time></trkpt><trkpt lat="42.32159" lon="12.7345083"><ele>936.0000000000001</ele><time>2026-04-25T15:09:43.108Z</time></trkpt><trkpt lat="42.3215183" lon="12.734525"><ele>936.0</ele><time>2026-04-25T15:09:44.107Z</time></trkpt><trkpt lat="42.321445" lon="12.73454"><ele>936.0</ele><time>2026-04-25T15:09:45.109Z</time></trkpt><trkpt lat="42.3213833" lon="12.7345733"><ele>936.0000000000001</ele><time>2026-04-25T15:09:46.107Z</time></trkpt><trkpt lat="42.321305" lon="12.7345867"><ele>936.0</ele><time>2026-04-25T15:09:47.108Z</time></trkpt><trkpt lat="42.321225" lon="12.7345983"><ele>936.0</ele><time>2026-04-25T15:09:48.108Z</time></trkpt><trkpt lat="42.321155" lon="12.734625"><ele>933.5999999999999</ele><time>2026-04-25T15:09:49.108Z</time></trkpt><trkpt lat="42.3210783" lon="12.7346483"><ele>931.1999999999999</ele><time>2026-04-25T15:09:50.109Z</time></trkpt><trkpt lat="42.3209933" lon="12.7346617"><ele>928.8000000000001</ele><time>2026-04-25T15:09:51.108Z</time></trkpt><trkpt lat="42.3208967" lon="12.7346533"><ele>926.4000000000001</ele><time>2026-04-25T15:09:52.108Z</time></trkpt><trkpt lat="42.3208" lon="12.73466"><ele>924.0</ele><time>2026-04-25T15:09:53.108Z</time></trkpt><trkpt lat="42.3207" lon="12.734655"><ele>924.0</ele><time>2026-04-25T15:09:54.108Z</time></trkpt><trkpt lat="42.3205983" lon="12.7346667"><ele>924.0</ele><time>2026-04-25T15:09:55.11Z</time></trkpt><trkpt lat="42.3205083" lon="12.7346917"><ele>924.0</ele><time>2026-04-25T15:09:56.109Z</time></trkpt><trkpt lat="42.3204233" lon="12.73473"><ele>924.0</ele><time>2026-04-25T15:09:57.109Z</time></trkpt><trkpt lat="42.32034" lon="12.7347617"><ele>924.0</ele><time>2026-04-25T15:09:58.108Z</time></trkpt><trkpt lat="42.32027" lon="12.7347767"><ele>924.0</ele><time>2026-04-25T15:09:59.109Z</time></trkpt><trkpt lat="42.3201583" lon="12.7347967"><ele>921.6666666666666</ele><time>2026-04-25T15:10:01.108Z</time></trkpt><trkpt lat="42.320085" lon="12.73478"><ele>919.3333333333333</ele><time>2026-04-25T15:10:03.108Z</time></trkpt><trkpt lat="42.32001" lon="12.7347467"><ele>917.0</ele><time>2026-04-25T15:10:05.109Z</time></trkpt><trkpt lat="42.3199217" lon="12.7347433"><ele>914.6666666666666</ele><time>2026-04-25T15:10:07.109Z</time></trkpt><trkpt lat="42.3198317" lon="12.7347633"><ele>912.3333333333333</ele><time>2026-04-25T15:10:09.11Z</time></trkpt><trkpt lat="42.3197367" lon="12.7347817"><ele>910.0</ele><time>2026-04-25T15:10:11.108Z</time></trkpt><trkpt lat="42.3196567" lon="12.7347983"><ele>908.1666666666666</ele><time>2026-04-25T15:10:13.108Z</time></trkpt><trkpt lat="42.3195917" lon="12.7348233"><ele>906.3333333333333</ele><time>2026-04-25T15:10:15.109Z</time></trkpt><trkpt lat="42.319525" lon="12.7348667"><ele>904.5</ele><time>2026-04-25T15:10:17.108Z</time></trkpt><trkpt lat="42.3194117" lon="12.73488"><ele>902.6666666666667</ele><time>2026-04-25T15:10:19.109Z</time></trkpt><trkpt lat="42.3193367" lon="12.7348817"><ele>900.8333333333334</ele><time>2026-04-25T15:10:20.109Z</time></trkpt><trkpt lat="42.319275" lon="12.7349183"><ele>899.0</ele><time>2026-04-25T15:10:21.111Z</time></trkpt><trkpt lat="42.3191967" lon="12.7349233"><ele>899.0000000000001</ele><time>2026-04-25T15:10:22.109Z</time></trkpt><trkpt lat="42.3191217" lon="12.7349317"><ele>899.0</ele><time>2026-04-25T15:10:23.109Z</time></trkpt><trkpt lat="42.3190467" lon="12.7349467"><ele>899.0</ele><time>2026-04-25T15:10:24.108Z</time></trkpt><trkpt lat="42.3189633" lon="12.7349583"><ele>899.0</ele><time>2026-04-25T15:10:25.111Z</time></trkpt><trkpt lat="42.318875" lon="12.734965"><ele>899.0000000000001</ele><time>2026-04-25T15:10:26.108Z</time></trkpt><trkpt lat="42.3187717" lon="12.7349367"><ele>899.0</ele><time>2026-04-25T15:10:27.108Z</time></trkpt><trkpt lat="42.3186767" lon="12.7349067"><ele>898.0000000000001</ele><time>2026-04-25T15:10:28.109Z</time></trkpt><trkpt lat="42.318585" lon="12.7348917"><ele>897.0</ele><time>2026-04-25T15:10:29.108Z</time></trkpt><trkpt lat="42.318495" lon="12.7348783"><ele>896.0</ele><time>2026-04-25T15:10:30.109Z</time></trkpt><trkpt lat="42.318405" lon="12.73485"><ele>895.0</ele><time>2026-04-25T15:10:31.109Z</time></trkpt><trkpt lat="42.318315" lon="12.7348333"><ele>894.0000000000001</ele><time>2026-04-25T15:10:32.108Z</time></trkpt><trkpt lat="42.3182333" lon="12.734825"><ele>893.0</ele><time>2026-04-25T15:10:33.108Z</time></trkpt><trkpt lat="42.31817" lon="12.73482"><ele>890.4</ele><time>2026-04-25T15:10:34.111Z</time></trkpt><trkpt lat="42.3180667" lon="12.73479"><ele>887.8</ele><time>2026-04-25T15:10:36.109Z</time></trkpt><trkpt lat="42.3179667" lon="12.734775"><ele>885.2</ele><time>2026-04-25T15:10:38.109Z</time></trkpt><trkpt lat="42.3178617" lon="12.7347833"><ele>882.6</ele><time>2026-04-25T15:10:40.109Z</time></trkpt><trkpt lat="42.31779" lon="12.734785"><ele>880.0</ele><time>2026-04-25T15:10:43.109Z</time></trkpt><trkpt lat="42.3177167" lon="12.7347433"><ele>880.0</ele><time>2026-04-25T15:10:48.109Z</time></trkpt><trkpt lat="42.3176533" lon="12.7347583"><ele>880.0</ele><time>2026-04-25T15:10:50.109Z</time></trkpt><trkpt lat="42.317545" lon="12.73474"><ele>880.0</ele><time>2026-04-25T15:10:56.108Z</time></trkpt><trkpt lat="42.3174567" lon="12.7347383"><ele>880.0</ele><time>2026-04-25T15:11:00.106Z</time></trkpt><trkpt lat="42.3173783" lon="12.7346767"><ele>880.0</ele><time>2026-04-25T15:11:02.108Z</time></trkpt><trkpt lat="42.3172883" lon="12.7345767"><ele>880.0</ele><time>2026-04-25T15:11:04.109Z</time></trkpt><trkpt lat="42.317185" lon="12.73452"><ele>880.0</ele><time>2026-04-25T15:11:06.108Z</time></trkpt><trkpt lat="42.3171167" lon="12.7344567"><ele>880.0</ele><time>2026-04-25T15:11:08.109Z</time></trkpt><trkpt lat="42.3170433" lon="12.7343967"><ele>880.0</ele><time>2026-04-25T15:11:10.107Z</time></trkpt><trkpt lat="42.3169367" lon="12.7343667"><ele>880.0</ele><time>2026-04-25T15:11:12.109Z</time></trkpt><trkpt lat="42.3168183" lon="12.7343633"><ele>879.9999999999999</ele><time>2026-04-25T15:11:14.108Z</time></trkpt><trkpt lat="42.316725" lon="12.7343767"><ele>880.0</ele><time>2026-04-25T15:11:16.109Z</time></trkpt><trkpt lat="42.3166233" lon="12.7344167"><ele>880.0</ele><time>2026-04-25T15:11:18.107Z</time></trkpt><trkpt lat="42.3165483" lon="12.7343883"><ele>880.0</ele><time>2026-04-25T15:11:24.109Z</time></trkpt><trkpt lat="42.3164883" lon="12.7343483"><ele>879.9999999999999</ele><time>2026-04-25T15:11:28.109Z</time></trkpt><trkpt lat="42.3164267" lon="12.73433"><ele>880.0</ele><time>2026-04-25T15:11:30.108Z</time></trkpt><trkpt lat="42.31636" lon="12.7343317"><ele>879.2857142857142</ele><time>2026-04-25T15:11:32.108Z</time></trkpt><trkpt lat="42.3162967" lon="12.7343117"><ele>878.5714285714286</ele><time>2026-04-25T15:11:34.108Z</time></trkpt><trkpt lat="42.3162183" lon="12.7342983"><ele>877.8571428571429</ele><time>2026-04-25T15:11:36.109Z</time></trkpt><trkpt lat="42.31613" lon="12.7342933"><ele>877.1428571428571</ele><time>2026-04-25T15:11:38.108Z</time></trkpt><trkpt lat="42.31607" lon="12.7343233"><ele>876.4285714285714</ele><time>2026-04-25T15:11:40.107Z</time></trkpt><trkpt lat="42.3160167" lon="12.7343817"><ele>875.7142857142857</ele><time>2026-04-25T15:11:44.108Z</time></trkpt><trkpt lat="42.3159567" lon="12.7344367"><ele>875.0</ele><time>2026-04-25T15:11:50.11Z</time></trkpt><trkpt lat="42.31588" lon="12.7344733"><ele>875.0000000000001</ele><time>2026-04-25T15:11:53.11Z</time></trkpt><trkpt lat="42.315805" lon="12.7345033"><ele>875.0</ele><time>2026-04-25T15:11:55.108Z</time></trkpt><trkpt lat="42.3157217" lon="12.7345283"><ele>875.0</ele><time>2026-04-25T15:11:57.109Z</time></trkpt><trkpt lat="42.315645" lon="12.73456"><ele>875.0</ele><time>2026-04-25T15:11:59.108Z</time></trkpt><trkpt lat="42.3155317" lon="12.7345767"><ele>875.0000000000001</ele><time>2026-04-25T15:12:01.109Z</time></trkpt><trkpt lat="42.3154633" lon="12.7345817"><ele>875.0</ele><time>2026-04-25T15:12:02.109Z</time></trkpt><trkpt lat="42.3153683" lon="12.7345933"><ele>872.0000000000001</ele><time>2026-04-25T15:12:04.109Z</time></trkpt><trkpt lat="42.3152967" lon="12.7346083"><ele>869.0</ele><time>2026-04-25T15:12:06.108Z</time></trkpt><trkpt lat="42.31522" lon="12.7346417"><ele>866.0</ele><time>2026-04-25T15:12:09.109Z</time></trkpt><trkpt lat="42.3151483" lon="12.7347317"><ele>863.0</ele><time>2026-04-25T15:12:16.108Z</time></trkpt><trkpt lat="42.3150883" lon="12.7347583"><ele>860.0000000000001</ele><time>2026-04-25T15:12:17.109Z</time></trkpt><trkpt lat="42.314985" lon="12.7347933"><ele>857.0</ele><time>2026-04-25T15:12:19.109Z</time></trkpt><trkpt lat="42.314915" lon="12.7348133"><ele>857.0</ele><time>2026-04-25T15:12:20.109Z</time></trkpt><trkpt lat="42.31484" lon="12.734845"><ele>857.0</ele><time>2026-04-25T15:12:21.108Z</time></trkpt><trkpt lat="42.3147683" lon="12.7348817"><ele>857.0</ele><time>2026-04-25T15:12:22.11Z</time></trkpt><trkpt lat="42.3147" lon="12.7349133"><ele>857.0</ele><time>2026-04-25T15:12:23.109Z</time></trkpt><trkpt lat="42.314585" lon="12.7349483"><ele>857.0</ele><time>2026-04-25T15:12:25.109Z</time></trkpt><trkpt lat="42.3144567" lon="12.7349417"><ele>856.0000000000001</ele><time>2026-04-25T15:12:27.109Z</time></trkpt><trkpt lat="42.3143717" lon="12.7349217"><ele>855.0</ele><time>2026-04-25T15:12:28.109Z</time></trkpt><trkpt lat="42.31429" lon="12.7348767"><ele>854.0</ele><time>2026-04-25T15:12:29.108Z</time></trkpt><trkpt lat="42.3142083" lon="12.7348167"><ele>853.0</ele><time>2026-04-25T15:12:30.109Z</time></trkpt><trkpt lat="42.314145" lon="12.7347333"><ele>852.0000000000001</ele><time>2026-04-25T15:12:31.108Z</time></trkpt><trkpt lat="42.31409" lon="12.7346517"><ele>851.0</ele><time>2026-04-25T15:12:32.108Z</time></trkpt><trkpt lat="42.3140467" lon="12.7345817"><ele>851.0</ele><time>2026-04-25T15:12:33.109Z</time></trkpt><trkpt lat="42.3140033" lon="12.73451"><ele>851.0</ele><time>2026-04-25T15:12:34.109Z</time></trkpt><trkpt lat="42.3139383" lon="12.734415"><ele>851.0</ele><time>2026-04-25T15:12:36.109Z</time></trkpt><trkpt lat="42.3138467" lon="12.7344"><ele>851.0</ele><time>2026-04-25T15:12:39.11Z</time></trkpt><trkpt lat="42.3137433" lon="12.7344067"><ele>851.0</ele><time>2026-04-25T15:12:41.109Z</time></trkpt><trkpt lat="42.3136383" lon="12.7344233"><ele>849.1999999999999</ele><time>2026-04-25T15:12:43.108Z</time></trkpt><trkpt lat="42.3135133" lon="12.7344333"><ele>847.4</ele><time>2026-04-25T15:12:45.108Z</time></trkpt><trkpt lat="42.313435" lon="12.7344383"><ele>845.6</ele><time>2026-04-25T15:12:46.109Z</time></trkpt><trkpt lat="42.31336" lon="12.734445"><ele>843.8</ele><time>2026-04-25T15:12:47.109Z</time></trkpt><trkpt lat="42.3132583" lon="12.73446"><ele>842.0</ele><time>2026-04-25T15:12:49.108Z</time></trkpt><trkpt lat="42.3131567" lon="12.734475"><ele>842.0</ele><time>2026-04-25T15:12:51.11Z</time></trkpt><trkpt lat="42.3130933" lon="12.73449"><ele>842.0</ele><time>2026-04-25T15:12:53.109Z</time></trkpt><trkpt lat="42.3130033" lon="12.7345367"><ele>842.0</ele><time>2026-04-25T15:12:56.11Z</time></trkpt><trkpt lat="42.3129183" lon="12.7345967"><ele>842.0</ele><time>2026-04-25T15:12:58.109Z</time></trkpt><trkpt lat="42.3128217" lon="12.7346417"><ele>842.0</ele><time>2026-04-25T15:13:00.109Z</time></trkpt><trkpt lat="42.312725" lon="12.7346967"><ele>835.8</ele><time>2026-04-25T15:13:02.11Z</time></trkpt><trkpt lat="42.3126267" lon="12.7347417"><ele>829.6</ele><time>2026-04-25T15:13:04.109Z</time></trkpt><trkpt lat="42.3125233" lon="12.7348233"><ele>823.4</ele><time>2026-04-25T15:13:06.108Z</time></trkpt><trkpt lat="42.3124317" lon="12.734905"><ele>817.1999999999999</ele><time>2026-04-25T15:13:08.109Z</time></trkpt><trkpt lat="42.312365" lon="12.735005"><ele>811.0</ele><time>2026-04-25T15:13:10.107Z</time></trkpt><trkpt lat="42.3123067" lon="12.7350667"><ele>809.5999999999999</ele><time>2026-04-25T15:13:12.109Z</time></trkpt><trkpt lat="42.3122133" lon="12.73513"><ele>808.2</ele><time>2026-04-25T15:13:14.109Z</time></trkpt><trkpt lat="42.3121017" lon="12.73517"><ele>806.8</ele><time>2026-04-25T15:13:16.109Z</time></trkpt><trkpt lat="42.3120033" lon="12.7351633"><ele>805.4000000000001</ele><time>2026-04-25T15:13:18.107Z</time></trkpt><trkpt lat="42.311905" lon="12.7351483"><ele>804.0</ele><time>2026-04-25T15:13:20.106Z</time></trkpt><trkpt lat="42.31182" lon="12.7351233"><ele>804.0</ele><time>2026-04-25T15:13:22.108Z</time></trkpt><trkpt lat="42.3117583" lon="12.7350883"><ele>804.0</ele><time>2026-04-25T15:13:24.108Z</time></trkpt><trkpt lat="42.3116967" lon="12.73501"><ele>804.0</ele><time>2026-04-25T15:13:27.109Z</time></trkpt><trkpt lat="42.3116417" lon="12.73495"><ele>804.0</ele><time>2026-04-25T15:13:29.108Z</time></trkpt><trkpt lat="42.311565" lon="12.73484"><ele>804.0</ele><time>2026-04-25T15:13:31.109Z</time></trkpt><trkpt lat="42.3114667" lon="12.73474"><ele>803.0</ele><time>2026-04-25T15:13:33.109Z</time></trkpt><trkpt lat="42.3113883" lon="12.734645"><ele>802.0</ele><time>2026-04-25T15:13:35.108Z</time></trkpt><trkpt lat="42.3113083" lon="12.7345333"><ele>801.0</ele><time>2026-04-25T15:13:37.109Z</time></trkpt><trkpt lat="42.3112467" lon="12.73443"><ele>800.0</ele><time>2026-04-25T15:13:39.109Z</time></trkpt><trkpt lat="42.3112" lon="12.7343683"><ele>799.0</ele><time>2026-04-25T15:13:40.109Z</time></trkpt><trkpt lat="42.3111417" lon="12.73432"><ele>794.6666666666666</ele><time>2026-04-25T15:13:41.108Z</time></trkpt><trkpt lat="42.3110433" lon="12.7342517"><ele>790.3333333333333</ele><time>2026-04-25T15:13:43.109Z</time></trkpt><trkpt lat="42.310955" lon="12.7342767"><ele>786.0</ele><time>2026-04-25T15:13:46.108Z</time></trkpt><trkpt lat="42.3108733" lon="12.7342917"><ele>781.6666666666667</ele><time>2026-04-25T15:13:48.109Z</time></trkpt><trkpt lat="42.3108017" lon="12.734295"><ele>777.3333333333334</ele><time>2026-04-25T15:13:50.109Z</time></trkpt><trkpt lat="42.3107267" lon="12.7343133"><ele>773.0</ele><time>2026-04-25T15:13:52.109Z</time></trkpt><trkpt lat="42.3106583" lon="12.7343133"><ele>773.0</ele><time>2026-04-25T15:13:54.107Z</time></trkpt><trkpt lat="42.3106017" lon="12.7342717"><ele>773.0</ele><time>2026-04-25T15:13:56.109Z</time></trkpt><trkpt lat="42.3105417" lon="12.7341383"><ele>773.0</ele><time>2026-04-25T15:13:58.109Z</time></trkpt><trkpt lat="42.31046" lon="12.7339967"><ele>773.0</ele><time>2026-04-25T15:14:00.109Z</time></trkpt><trkpt lat="42.3104133" lon="12.7339267"><ele>773.0</ele><time>2026-04-25T15:14:01.109Z</time></trkpt><trkpt lat="42.3103567" lon="12.7338467"><ele>773.2857142857142</ele><time>2026-04-25T15:14:02.109Z</time></trkpt><trkpt lat="42.3102983" lon="12.733765"><ele>773.5714285714286</ele><time>2026-04-25T15:14:03.109Z</time></trkpt><trkpt lat="42.31025" lon="12.73369"><ele>773.8571428571429</ele><time>2026-04-25T15:14:04.11Z</time></trkpt><trkpt lat="42.3101967" lon="12.73363"><ele>774.1428571428571</ele><time>2026-04-25T15:14:05.109Z</time></trkpt><trkpt lat="42.310135" lon="12.7335783"><ele>774.4285714285714</ele><time>2026-04-25T15:14:06.108Z</time></trkpt><trkpt lat="42.3100733" lon="12.7335233"><ele>774.7142857142857</ele><time>2026-04-25T15:14:07.108Z</time></trkpt><trkpt lat="42.3100117" lon="12.7334717"><ele>775.0</ele><time>2026-04-25T15:14:08.108Z</time></trkpt><trkpt lat="42.3099517" lon="12.7334317"><ele>775.0</ele><time>2026-04-25T15:14:09.109Z</time></trkpt><trkpt lat="42.30989" lon="12.7334017"><ele>775.0</ele><time>2026-04-25T15:14:10.108Z</time></trkpt><trkpt lat="42.309795" lon="12.7333517"><ele>775.0</ele><time>2026-04-25T15:14:12.108Z</time></trkpt><trkpt lat="42.30971" lon="12.7333383"><ele>775.0</ele><time>2026-04-25T15:14:14.107Z</time></trkpt><trkpt lat="42.3096217" lon="12.7333683"><ele>775.0</ele><time>2026-04-25T15:14:16.109Z</time></trkpt><trkpt lat="42.309515" lon="12.73344"><ele>771.8333333333333</ele><time>2026-04-25T15:14:18.11Z</time></trkpt><trkpt lat="42.309445" lon="12.7334883"><ele>768.6666666666666</ele><time>2026-04-25T15:14:19.11Z</time></trkpt><trkpt lat="42.309375" lon="12.73353"><ele>765.5</ele><time>2026-04-25T15:14:20.111Z</time></trkpt><trkpt lat="42.3093083" lon="12.7335617"><ele>762.3333333333333</ele><time>2026-04-25T15:14:21.108Z</time></trkpt><trkpt lat="42.309195" lon="12.733595"><ele>759.1666666666666</ele><time>2026-04-25T15:14:23.109Z</time></trkpt><trkpt lat="42.309095" lon="12.7335717"><ele>756.0</ele><time>2026-04-25T15:14:25.107Z</time></trkpt><trkpt lat="42.308995" lon="12.7335467"><ele>751.1999999999999</ele><time>2026-04-25T15:14:27.109Z</time></trkpt><trkpt lat="42.3088967" lon="12.7335183"><ele>746.4</ele><time>2026-04-25T15:14:29.11Z</time></trkpt><trkpt lat="42.3087867" lon="12.7335033"><ele>741.6</ele><time>2026-04-25T15:14:31.108Z</time></trkpt><trkpt lat="42.3086883" lon="12.7334633"><ele>736.8</ele><time>2026-04-25T15:14:33.107Z</time></trkpt><trkpt lat="42.3085967" lon="12.733425"><ele>732.0</ele><time>2026-04-25T15:14:35.109Z</time></trkpt><trkpt lat="42.3084767" lon="12.7333583"><ele>732.0</ele><time>2026-04-25T15:14:37.108Z</time></trkpt><trkpt lat="42.308415" lon="12.7333267"><ele>732.0</ele><time>2026-04-25T15:14:38.111Z</time></trkpt><trkpt lat="42.308345" lon="12.7333083"><ele>732.0</ele><time>2026-04-25T15:14:39.111Z</time></trkpt><trkpt lat="42.3082783" lon="12.7332967"><ele>732.0</ele><time>2026-04-25T15:14:40.107Z</time></trkpt><trkpt lat="42.308185" lon="12.7332783"><ele>732.0</ele><time>2026-04-25T15:14:42.109Z</time></trkpt><trkpt lat="42.3081183" lon="12.7332467"><ele>732.0</ele><time>2026-04-25T15:14:44.107Z</time></trkpt><trkpt lat="42.308025" lon="12.7332183"><ele>728.2</ele><time>2026-04-25T15:14:46.108Z</time></trkpt><trkpt lat="42.3079233" lon="12.7331967"><ele>724.4000000000001</ele><time>2026-04-25T15:14:48.108Z</time></trkpt><trkpt lat="42.3078383" lon="12.7331683"><ele>720.5999999999999</ele><time>2026-04-25T15:14:50.108Z</time></trkpt><trkpt lat="42.3077233" lon="12.7331517"><ele>716.8</ele><time>2026-04-25T15:15:07.108Z</time></trkpt><trkpt lat="42.3076" lon="12.7330933"><ele>713.0</ele><time>2026-04-25T15:15:09.108Z</time></trkpt><trkpt lat="42.30748" lon="12.73306"><ele>713.0</ele><time>2026-04-25T15:15:11.108Z</time></trkpt><trkpt lat="42.3074167" lon="12.7330417"><ele>713.0</ele><time>2026-04-25T15:15:12.108Z</time></trkpt><trkpt lat="42.307345" lon="12.7330233"><ele>713.0</ele><time>2026-04-25T15:15:13.109Z</time></trkpt><trkpt lat="42.3072767" lon="12.7330117"><ele>713.0</ele><time>2026-04-25T15:15:14.109Z</time></trkpt><trkpt lat="42.3072117" lon="12.733"><ele>713.0</ele><time>2026-04-25T15:15:15.109Z</time></trkpt><trkpt lat="42.3070983" lon="12.732995"><ele>713.0</ele><time>2026-04-25T15:15:17.108Z</time></trkpt><trkpt lat="42.3070183" lon="12.7329933"><ele>710.8333333333333</ele><time>2026-04-25T15:15:19.108Z</time></trkpt><trkpt lat="42.3069533" lon="12.73299"><ele>708.6666666666666</ele><time>2026-04-25T15:15:21.109Z</time></trkpt><trkpt lat="42.3068467" lon="12.7329583"><ele>706.5</ele><time>2026-04-25T15:15:23.108Z</time></trkpt><trkpt lat="42.3067817" lon="12.7329333"><ele>704.3333333333334</ele><time>2026-04-25T15:15:24.108Z</time></trkpt><trkpt lat="42.3067033" lon="12.7328983"><ele>702.1666666666667</ele><time>2026-04-25T15:15:25.11Z</time></trkpt><trkpt lat="42.3066117" lon="12.7328667"><ele>700.0</ele><time>2026-04-25T15:15:26.109Z</time></trkpt><trkpt lat="42.306515" lon="12.7328467"><ele>700.0</ele><time>2026-04-25T15:15:27.11Z</time></trkpt><trkpt lat="42.3064233" lon="12.7328433"><ele>700.0</ele><time>2026-04-25T15:15:28.108Z</time></trkpt><trkpt lat="42.3063283" lon="12.7328317"><ele>700.0</ele><time>2026-04-25T15:15:29.11Z</time></trkpt><trkpt lat="42.3062417" lon="12.7328283"><ele>700.0</ele><time>2026-04-25T15:15:30.108Z</time></trkpt><trkpt lat="42.3061567" lon="12.7328283"><ele>700.0</ele><time>2026-04-25T15:15:31.109Z</time></trkpt><trkpt lat="42.3060833" lon="12.7328517"><ele>700.0</ele><time>2026-04-25T15:15:32.11Z</time></trkpt><trkpt lat="42.3060033" lon="12.7328883"><ele>697.6666666666667</ele><time>2026-04-25T15:15:33.109Z</time></trkpt><trkpt lat="42.30592" lon="12.73293"><ele>695.3333333333334</ele><time>2026-04-25T15:15:34.109Z</time></trkpt><trkpt lat="42.3058367" lon="12.7329717"><ele>693.0</ele><time>2026-04-25T15:15:35.108Z</time></trkpt><trkpt lat="42.3057533" lon="12.7330117"><ele>690.6666666666666</ele><time>2026-04-25T15:15:36.109Z</time></trkpt><trkpt lat="42.30568" lon="12.7330367"><ele>688.3333333333333</ele><time>2026-04-25T15:15:37.108Z</time></trkpt><trkpt lat="42.3055983" lon="12.73306"><ele>686.0</ele><time>2026-04-25T15:15:38.108Z</time></trkpt><trkpt lat="42.305515" lon="12.7330733"><ele>684.1666666666666</ele><time>2026-04-25T15:15:39.109Z</time></trkpt><trkpt lat="42.3054333" lon="12.7330633"><ele>682.3333333333333</ele><time>2026-04-25T15:15:40.107Z</time></trkpt><trkpt lat="42.3053583" lon="12.7330583"><ele>680.5</ele><time>2026-04-25T15:15:41.108Z</time></trkpt><trkpt lat="42.3052867" lon="12.7330533"><ele>678.6666666666666</ele><time>2026-04-25T15:15:42.109Z</time></trkpt><trkpt lat="42.3052167" lon="12.7330533"><ele>676.8333333333334</ele><time>2026-04-25T15:15:43.107Z</time></trkpt><trkpt lat="42.3051133" lon="12.7330317"><ele>675.0</ele><time>2026-04-25T15:15:45.109Z</time></trkpt><trkpt lat="42.3050183" lon="12.7330567"><ele>675.0</ele><time>2026-04-25T15:15:47.108Z</time></trkpt><trkpt lat="42.3049233" lon="12.7330867"><ele>675.0</ele><time>2026-04-25T15:15:49.107Z</time></trkpt><trkpt lat="42.3048133" lon="12.7330617"><ele>675.0</ele><time>2026-04-25T15:15:51.108Z</time></trkpt><trkpt lat="42.3047183" lon="12.733025"><ele>675.0</ele><time>2026-04-25T15:15:53.108Z</time></trkpt><trkpt lat="42.3046067" lon="12.73302"><ele>675.0</ele><time>2026-04-25T15:15:55.109Z</time></trkpt><trkpt lat="42.3044883" lon="12.73303"><ele>670.5</ele><time>2026-04-25T15:15:57.109Z</time></trkpt><trkpt lat="42.3043683" lon="12.73304"><ele>666.0</ele><time>2026-04-25T15:15:59.109Z</time></trkpt><trkpt lat="42.30425" lon="12.73304"><ele>661.5</ele><time>2026-04-25T15:16:01.109Z</time></trkpt><trkpt lat="42.3041383" lon="12.73301"><ele>657.0</ele><time>2026-04-25T15:16:03.109Z</time></trkpt><trkpt lat="42.3040283" lon="12.7329567"><ele>657.0</ele><time>2026-04-25T15:16:05.107Z</time></trkpt><trkpt lat="42.3039267" lon="12.7328833"><ele>657.0</ele><time>2026-04-25T15:16:07.108Z</time></trkpt><trkpt lat="42.3038383" lon="12.732795"><ele>657.0</ele><time>2026-04-25T15:16:09.109Z</time></trkpt><trkpt lat="42.3446167" lon="12.7390417"><ele>763.0</ele><time>2026-04-25T15:01:01.108Z</time></trkpt><trkpt lat="42.3444783" lon="12.7390433"><ele>869.0</ele><time>2026-04-25T15:01:03.109Z</time></trkpt><trkpt lat="42.3443367" lon="12.7390383"><ele>975.0</ele><time>2026-04-25T15:01:04.108Z</time></trkpt><trkpt lat="42.3442233" lon="12.7390283"><ele>1081.0</ele><time>2026-04-25T15:01:05.108Z</time></trkpt><trkpt lat="42.3441217" lon="12.7389883"><ele>1081.0</ele><time>2026-04-25T15:01:06.108Z</time></trkpt><trkpt lat="42.3440367" lon="12.7389733"><ele>1081.0</ele><time>2026-04-25T15:01:07.108Z</time></trkpt><trkpt lat="42.34395" lon="12.7389667"><ele>1081.0</ele><time>2026-04-25T15:01:08.109Z</time></trkpt><trkpt lat="42.34388" lon="12.7389633"><ele>1081.0</ele><time>2026-04-25T15:01:09.113Z</time></trkpt><trkpt lat="42.3437983" lon="12.7389367"><ele>1081.0</ele><time>2026-04-25T15:01:10.107Z</time></trkpt><trkpt lat="42.3437233" lon="12.7389283"><ele>1081.0</ele><time>2026-04-25T15:01:11.109Z</time></trkpt><trkpt lat="42.343645" lon="12.7389183"><ele>1083.3333333333333</ele><time>2026-04-25T15:01:12.109Z</time></trkpt><trkpt lat="42.3435683" lon="12.7389167"><ele>1085.6666666666665</ele><time>2026-04-25T15:01:13.109Z</time></trkpt><trkpt lat="42.3434833" lon="12.7389217"><ele>1088.0</ele><time>2026-04-25T15:01:14.108Z</time></trkpt><trkpt lat="42.3434083" lon="12.7389233"><ele>1090.3333333333333</ele><time>2026-04-25T15:01:15.108Z</time></trkpt><trkpt lat="42.34334" lon="12.7389233"><ele>1092.6666666666667</ele><time>2026-04-25T15:01:16.108Z</time></trkpt><trkpt lat="42.3432283" lon="12.7389167"><ele>1095.0</ele><time>2026-04-25T15:01:18.138Z</time></trkpt><trkpt lat="42.343115" lon="12.73889"><ele>1098.0</ele><time>2026-04-25T15:01:20.11Z</time></trkpt><trkpt lat="42.34304" lon="12.7388717"><ele>1101.0</ele><time>2026-04-25T15:01:21.108Z</time></trkpt><trkpt lat="42.34296" lon="12.738855"><ele>1104.0</ele><time>2026-04-25T15:01:22.107Z</time></trkpt><trkpt lat="42.3428817" lon="12.7388183"><ele>1107.0</ele><time>2026-04-25T15:01:23.107Z</time></trkpt><trkpt lat="42.3428133" lon="12.738765"><ele>1110.0</ele><time>2026-04-25T15:01:24.109Z</time></trkpt><trkpt lat="42.342755" lon="12.73869"><ele>1113.0</ele><time>2026-04-25T15:01:25.108Z</time></trkpt><trkpt lat="42.3427017" lon="12.738605"><ele>1111.4</ele><time>2026-04-25T15:01:26.11Z</time></trkpt><trkpt lat="42.3426417" lon="12.7385217"><ele>1109.8</ele><time>2026-04-25T15:01:27.111Z</time></trkpt><trkpt lat="42.3425667" lon="12.73843"><ele>1108.2</ele><time>2026-04-25T15:01:28.111Z</time></trkpt><trkpt lat="42.34249" lon="12.73835"><ele>1106.6</ele><time>2026-04-25T15:01:29.111Z</time></trkpt><trkpt lat="42.3424067" lon="12.7382867"><ele>1105.0</ele><time>2026-04-25T15:01:30.108Z</time></trkpt><trkpt lat="42.3423183" lon="12.738245"><ele>1105.0</ele><time>2026-04-25T15:01:31.11Z</time></trkpt><trkpt lat="42.3422317" lon="12.738215"><ele>1105.0</ele><time>2026-04-25T15:01:32.112Z</time></trkpt><trkpt lat="42.3421533" lon="12.7381817"><ele>1105.0</ele><time>2026-04-25T15:01:33.11Z</time></trkpt><trkpt lat="42.3420717" lon="12.7381533"><ele>1105.0</ele><time>2026-04-25T15:01:34.11Z</time></trkpt><trkpt lat="42.3419933" lon="12.738125"><ele>1105.0</ele><time>2026-04-25T15:01:35.108Z</time></trkpt><trkpt lat="42.3419233" lon="12.7380967"><ele>1105.0</ele><time>2026-04-25T15:01:36.109Z</time></trkpt><trkpt lat="42.3418533" lon="12.7380583"><ele>1107.8333333333333</ele><time>2026-04-25T15:01:37.11Z</time></trkpt><trkpt lat="42.3417867" lon="12.7379967"><ele>1110.6666666666665</ele><time>2026-04-25T15:01:38.108Z</time></trkpt><trkpt lat="42.3417167" lon="12.7379267"><ele>1113.5</ele><time>2026-04-25T15:01:39.109Z</time></trkpt><trkpt lat="42.34164" lon="12.737855"><ele>1116.3333333333333</ele><time>2026-04-25T15:01:40.109Z</time></trkpt><trkpt lat="42.341575" lon="12.737775"><ele>1119.1666666666667</ele><time>2026-04-25T15:01:41.109Z</time></trkpt><trkpt lat="42.341525" lon="12.7377033"><ele>1122.0</ele><time>2026-04-25T15:01:42.108Z</time></trkpt><trkpt lat="42.3414883" lon="12.7376117"><ele>1122.0</ele><time>2026-04-25T15:01:44.109Z</time></trkpt><trkpt lat="42.34146" lon="12.7375167"><ele>1122.0</ele><time>2026-04-25T15:01:46.11Z</time></trkpt><trkpt lat="42.3414433" lon="12.737425"><ele>1122.0</ele><time>2026-04-25T15:01:48.108Z</time></trkpt><trkpt lat="42.34137" lon="12.73738"><ele>1122.0</ele><time>2026-04-25T15:01:51.109Z</time></trkpt><trkpt lat="42.3413033" lon="12.7374133"><ele>1122.0</ele><time>2026-04-25T15:01:54.111Z</time></trkpt><trkpt lat="42.34124" lon="12.7374617"><ele>1122.0</ele><time>2026-04-25T15:01:56.107Z</time></trkpt><trkpt lat="42.3411467" lon="12.7374683"><ele>1123.2</ele><time>2026-04-25T15:01:58.111Z</time></trkpt><trkpt lat="42.3410533" lon="12.7374367"><ele>1124.4</ele><time>2026-04-25T15:02:00.11Z</time></trkpt><trkpt lat="42.3409667" lon="12.737415"><ele>1125.6</ele><time>2026-04-25T15:02:02.109Z</time></trkpt><trkpt lat="42.340875" lon="12.7373467"><ele>1126.8</ele><time>2026-04-25T15:02:04.108Z</time></trkpt><trkpt lat="42.340795" lon="12.7372783"><ele>1128.0</ele><time>2026-04-25T15:02:06.11Z</time></trkpt><trkpt lat="42.3407217" lon="12.7372217"><ele>1128.0</ele><time>2026-04-25T15:02:08.108Z</time></trkpt><trkpt lat="42.3406583" lon="12.737165"><ele>1128.0</ele><time>2026-04-25T15:02:10.109Z</time></trkpt><trkpt lat="42.3405883" lon="12.7371383"><ele>1128.0</ele><time>2026-04-25T15:02:12.109Z</time></trkpt><trkpt lat="42.3405017" lon="12.73709"><ele>1128.0</ele><time>2026-04-25T15:02:42.11Z</time></trkpt><trkpt lat="42.3404367" lon="12.737055"><ele>1128.0</ele><time>2026-04-25T15:02:44.108Z</time></trkpt><trkpt lat="42.3403317" lon="12.7369917"><ele>1128.0</ele><time>2026-04-25T15:02:46.109Z</time></trkpt><trkpt lat="42.3402583" lon="12.7369417"><ele>1128.8</ele><time>2026-04-25T15:02:47.109Z</time></trkpt><trkpt lat="42.34017" lon="12.7368883"><ele>1129.6</ele><time>2026-04-25T15:02:48.107Z</time></trkpt><trkpt lat="42.3400733" lon="12.7368383"><ele>1130.4</ele><time>2026-04-25T15:02:49.109Z</time></trkpt><trkpt lat="42.3399817" lon="12.7367933"><ele>1131.2</ele><time>2026-04-25T15:02:50.108Z</time></trkpt><trkpt lat="42.3398917" lon="12.736745"><ele>1132.0</ele><time>2026-04-25T15:02:51.11Z</time></trkpt><trkpt lat="42.3398" lon="12.7366867"><ele>1127.5</ele><time>2026-04-25T15:02:52.11Z</time></trkpt><trkpt lat="42.3396967" lon="12.7366217"><ele>1123.0</ele><time>2026-04-25T15:02:53.11Z</time></trkpt><trkpt lat="42.3395817" lon="12.7365583"><ele>1118.5</ele><time>2026-04-25T15:02:54.109Z</time></trkpt><trkpt lat="42.3394667" lon="12.7365067"><ele>1114.0</ele><time>2026-04-25T15:02:55.109Z</time></trkpt><trkpt lat="42.339355" lon="12.736465"><ele>1114.0</ele><time>2026-04-25T15:02:56.11Z</time></trkpt><trkpt lat="42.3392533" lon="12.73643"><ele>1114.0</ele><time>2026-04-25T15:02:57.11Z</time></trkpt><trkpt lat="42.339165" lon="12.7363983"><ele>1114.0</ele><time>2026-04-25T15:02:58.107Z</time></trkpt><trkpt lat="42.3390933" lon="12.7363683"><ele>1114.0</ele><time>2026-04-25T15:02:59.106Z</time></trkpt><trkpt lat="42.339025" lon="12.73634"><ele>1114.0</ele><time>2026-04-25T15:03:00.106Z</time></trkpt><trkpt lat="42.33895" lon="12.73631"><ele>1114.0</ele><time>2026-04-25T15:03:01.106Z</time></trkpt><trkpt lat="42.3388717" lon="12.736275"><ele>1113.8333333333333</ele><time>2026-04-25T15:03:02.107Z</time></trkpt><trkpt lat="42.3387983" lon="12.7362433"><ele>1113.6666666666665</ele><time>2026-04-25T15:03:03.11Z</time></trkpt><trkpt lat="42.3387217" lon="12.736215"><ele>1113.5</ele><time>2026-04-25T15:03:04.108Z</time></trkpt><trkpt lat="42.3386317" lon="12.7361767"><ele>1113.3333333333333</ele><time>2026-04-25T15:03:05.107Z</time></trkpt><trkpt lat="42.338535" lon="12.7361417"><ele>1113.1666666666667</ele><time>2026-04-25T15:03:06.11Z</time></trkpt><trkpt lat="42.33844" lon="12.7361217"><ele>1113.0</ele><time>2026-04-25T15:03:07.108Z</time></trkpt><trkpt lat="42.33835" lon="12.7361133"><ele>1113.0</ele><time>2026-04-25T15:03:08.108Z</time></trkpt><trkpt lat="42.338265" lon="12.736115"><ele>1113.0</ele><time>2026-04-25T15:03:09.109Z</time></trkpt><trkpt lat="42.338185" lon="12.7361133"><ele>1113.0</ele><time>2026-04-25T15:03:10.108Z</time></trkpt><trkpt lat="42.338105" lon="12.7361133"><ele>1113.0</ele><time>2026-04-25T15:03:11.108Z</time></trkpt><trkpt lat="42.3380233" lon="12.7361067"><ele>1113.0</ele><time>2026-04-25T15:03:12.107Z</time></trkpt><trkpt lat="42.3379433" lon="12.736095"><ele>1113.0</ele><time>2026-04-25T15:03:13.109Z</time></trkpt><trkpt lat="42.3378617" lon="12.7360817"><ele>1111.8333333333333</ele><time>2026-04-25T15:03:14.109Z</time></trkpt><trkpt lat="42.3377783" lon="12.7360633"><ele>1110.6666666666667</ele><time>2026-04-25T15:03:15.109Z</time></trkpt><trkpt lat="42.337695" lon="12.7360417"><ele>1109.5</ele><time>2026-04-25T15:03:16.11Z</time></trkpt><trkpt lat="42.33761" lon="12.7360233"><ele>1108.3333333333335</ele><time>2026-04-25T15:03:17.109Z</time></trkpt><trkpt lat="42.337515" lon="12.7360067"><ele>1107.1666666666667</ele><time>2026-04-25T15:03:18.108Z</time></trkpt><trkpt lat="42.33742" lon="12.73599"><ele>1106.0</ele><time>2026-04-25T15:03:19.108Z</time></trkpt><trkpt lat="42.3373217" lon="12.7359667"><ele>1102.8</ele><time>2026-04-25T15:03:20.108Z</time></trkpt><trkpt lat="42.3372267" lon="12.7359433"><ele>1099.6</ele><time>2026-04-25T15:03:21.108Z</time></trkpt><trkpt lat="42.3371333" lon="12.7359233"><ele>1096.4</ele><time>2026-04-25T15:03:22.108Z</time></trkpt><trkpt lat="42.3370467" lon="12.73591"><ele>1093.2</ele><time>2026-04-25T15:03:23.108Z</time></trkpt><trkpt lat="42.3369617" lon="12.7358917"><ele>1090.0</ele><time>2026-04-25T15:03:24.111Z</time></trkpt><trkpt lat="42.336875" lon="12.735875"><ele>1089.0</ele><time>2026-04-25T15:03:25.11Z</time></trkpt><trkpt lat="42.3367883" lon="12.73586"><ele>1088.0</ele><time>2026-04-25T15:03:26.11Z</time></trkpt><trkpt lat="42.3367" lon="12.735845"><ele>1087.0</ele><time>2026-04-25T15:03:27.108Z</time></trkpt><trkpt lat="42.336615" lon="12.7358383"><ele>1086.0</ele><time>2026-04-25T15:03:28.108Z</time></trkpt><trkpt lat="42.3365317" lon="12.7358383"><ele>1085.0</ele><time>2026-04-25T15:03:29.108Z</time></trkpt><trkpt lat="42.3364517" lon="12.7358417"><ele>1084.0</ele><time>2026-04-25T15:03:30.107Z</time></trkpt><trkpt lat="42.3363767" lon="12.7358483"><ele>1083.5</ele><time>2026-04-25T15:03:31.107Z</time></trkpt><trkpt lat="42.336305" lon="12.7358517"><ele>1083.0</ele><time>2026-04-25T15:03:32.108Z</time></trkpt><trkpt lat="42.3362317" lon="12.7358483"><ele>1082.5</ele><time>2026-04-25T15:03:33.109Z</time></trkpt><trkpt lat="42.336155" lon="12.7358333"><ele>1082.0</ele><time>2026-04-25T15:03:34.109Z</time></trkpt><trkpt lat="42.3360783" lon="12.735805"><ele>1081.5</ele><time>2026-04-25T15:03:35.108Z</time></trkpt><trkpt lat="42.3360017" lon="12.7357667"><ele>1081.0</ele><time>2026-04-25T15:03:36.108Z</time></trkpt><trkpt lat="42.3359233" lon="12.7357267"><ele>1081.0</ele><time>2026-04-25T15:03:37.108Z</time></trkpt><trkpt lat="42.3358433" lon="12.735685"><ele>1081.0</ele><time>2026-04-25T15:03:38.107Z</time></trkpt><trkpt lat="42.3357667" lon="12.7356417"><ele>1081.0</ele><time>2026-04-25T15:03:39.11Z</time></trkpt><trkpt lat="42.3356917" lon="12.735595"><ele>1081.0</ele><time>2026-04-25T15:03:40.108Z</time></trkpt><trkpt lat="42.3356183" lon="12.735545"><ele>1081.0</ele><time>2026-04-25T15:03:41.107Z</time></trkpt><trkpt lat="42.3355483" lon="12.7355"><ele>1081.0</ele><time>2026-04-25T15:03:42.106Z</time></trkpt><trkpt lat="42.3354833" lon="12.73546"><ele>1081.3333333333333</ele><time>2026-04-25T15:03:43.107Z</time></trkpt><trkpt lat="42.3354183" lon="12.7354233"><ele>1081.6666666666665</ele><time>2026-04-25T15:03:44.107Z</time></trkpt><trkpt lat="42.335355" lon="12.735385"><ele>1082.0</ele><time>2026-04-25T15:03:45.109Z</time></trkpt><trkpt lat="42.3352983" lon="12.7353467"><ele>1082.3333333333333</ele><time>2026-04-25T15:03:46.108Z</time></trkpt><trkpt lat="42.3351933" lon="12.7352617"><ele>1082.6666666666667</ele><time>2026-04-25T15:03:48.108Z</time></trkpt><trkpt lat="42.3351017" lon="12.73515"><ele>1083.0</ele><time>2026-04-25T15:03:50.109Z</time></trkpt><trkpt lat="42.3350567" lon="12.7350883"><ele>1083.0</ele><time>2026-04-25T15:03:51.109Z</time></trkpt><trkpt lat="42.3349667" lon="12.7349933"><ele>1083.0</ele><time>2026-04-25T15:03:53.109Z</time></trkpt><trkpt lat="42.33488" lon="12.7349067"><ele>1083.0</ele><time>2026-04-25T15:03:55.109Z</time></trkpt><trkpt lat="42.334805" lon="12.73483"><ele>1083.0</ele><time>2026-04-25T15:03:57.109Z</time></trkpt><trkpt lat="42.334755" lon="12.7347717"><ele>1083.0</ele><time>2026-04-25T15:03:59.109Z</time></trkpt><trkpt lat="42.3347067" lon="12.7347117"><ele>1083.0</ele><time>2026-04-25T15:04:01.109Z</time></trkpt><trkpt lat="42.33466" lon="12.73465"><ele>1083.8333333333333</ele><time>2026-04-25T15:04:03.109Z</time></trkpt><trkpt lat="42.33462" lon="12.7345333"><ele>1084.6666666666667</ele><time>2026-04-25T15:04:05.108Z</time></trkpt><trkpt lat="42.3345683" lon="12.7344167"><ele>1085.5</ele><time>2026-04-25T15:04:07.11Z</time></trkpt><trkpt lat="42.33451" lon="12.7343517"><ele>1086.3333333333335</ele><time>2026-04-25T15:04:09.108Z</time></trkpt><trkpt lat="42.3344517" lon="12.7343033"><ele>1087.1666666666667</ele><time>2026-04-25T15:04:11.11Z</time></trkpt><trkpt lat="42.3343717" lon="12.734235"><ele>1088.0</ele><time>2026-04-25T15:04:14.11Z</time></trkpt><trkpt lat="42.3343067" lon="12.7342067"><ele>1088.0</ele><time>2026-04-25T15:04:16.107Z</time></trkpt><trkpt lat="42.3342417" lon="12.7341617"><ele>1088.0</ele><time>2026-04-25T15:04:19.109Z</time></trkpt><trkpt lat="42.3341617" lon="12.7341133"><ele>1088.0</ele><time>2026-04-25T15:04:51.109Z</time></trkpt><trkpt lat="42.3340583" lon="12.7340567"><ele>1088.0</ele><time>2026-04-25T15:04:54.108Z</time></trkpt><trkpt lat="42.3339433" lon="12.7340117"><ele>1088.0</ele><time>2026-04-25T15:04:56.108Z</time></trkpt><trkpt lat="42.333825" lon="12.7339733"><ele>1086.4</ele><time>2026-04-25T15:04:58.109Z</time></trkpt><trkpt lat="42.3337633" lon="12.733955"><ele>1084.8</ele><time>2026-04-25T15:04:59.109Z</time></trkpt><trkpt lat="42.33365" lon="12.7339083"><ele>1083.2</ele><time>2026-04-25T15:05:01.107Z</time></trkpt><trkpt lat="42.3335633" lon="12.7339117"><ele>1081.6</ele><time>2026-04-25T15:05:03.109Z</time></trkpt><trkpt lat="42.33346" lon="12.733925"><ele>1080.0</ele><time>2026-04-25T15:05:05.108Z</time></trkpt><trkpt lat="42.333355" lon="12.7339217"><ele>1080.0</ele><time>2026-04-25T15:05:07.108Z</time></trkpt><trkpt lat="42.3332633" lon="12.73389"><ele>1080.0</ele><time>2026-04-25T15:05:09.109Z</time></trkpt><trkpt lat="42.3332017" lon="12.73385"><ele>1080.0</ele><time>2026-04-25T15:05:10.108Z</time></trkpt><trkpt lat="42.3331367" lon="12.7338167"><ele>1080.0</ele><time>2026-04-25T15:05:11.109Z</time></trkpt><trkpt lat="42.33307" lon="12.7337917"><ele>1080.0</ele><time>2026-04-25T15:05:12.109Z</time></trkpt><trkpt lat="42.33295" lon="12.733765"><ele>1080.0</ele><time>2026-04-25T15:05:14.109Z</time></trkpt><trkpt lat="42.3328433" lon="12.7337567"><ele>1079.2857142857142</ele><time>2026-04-25T15:05:16.109Z</time></trkpt><trkpt lat="42.3327833" lon="12.7337217"><ele>1078.5714285714284</ele><time>2026-04-25T15:05:17.109Z</time></trkpt><trkpt lat="42.3327117" lon="12.7336967"><ele>1077.857142857143</ele><time>2026-04-25T15:05:18.11Z</time></trkpt><trkpt lat="42.3326433" lon="12.7336883"><ele>1077.142857142857</ele><time>2026-04-25T15:05:19.111Z</time></trkpt><trkpt lat="42.332565" lon="12.7336783"><ele>1076.4285714285716</ele><time>2026-04-25T15:05:20.11Z</time></trkpt><trkpt lat="42.3324833" lon="12.7336733"><ele>1075.7142857142858</ele><time>2026-04-25T15:05:21.11Z</time></trkpt><trkpt lat="42.33242" lon="12.7337017"><ele>1075.0</ele><time>2026-04-25T15:05:22.109Z</time></trkpt><trkpt lat="42.3323483" lon="12.733725"><ele>1075.0</ele><time>2026-04-25T15:05:23.109Z</time></trkpt><trkpt lat="42.3322767" lon="12.733755"><ele>1075.0</ele><time>2026-04-25T15:05:24.109Z</time></trkpt><trkpt lat="42.3321967" lon="12.73377"><ele>1075.0</ele><time>2026-04-25T15:05:25.109Z</time></trkpt><trkpt lat="42.33213" lon="12.7337883"><ele>1075.0</ele><time>2026-04-25T15:05:26.11Z</time></trkpt><trkpt lat="42.33202" lon="12.7337767"><ele>1075.0</ele><time>2026-04-25T15:05:28.11Z</time></trkpt><trkpt lat="42.331945" lon="12.7337417"><ele>1075.0</ele><time>2026-04-25T15:05:30.109Z</time></trkpt><trkpt lat="42.3318767" lon="12.7337017"><ele>1072.8333333333333</ele><time>2026-04-25T15:05:33.109Z</time></trkpt><trkpt lat="42.3318083" lon="12.73364"><ele>1070.6666666666665</ele><time>2026-04-25T15:05:35.108Z</time></trkpt><trkpt lat="42.331735" lon="12.7335833"><ele>1068.5</ele><time>2026-04-25T15:05:37.11Z</time></trkpt><trkpt lat="42.3316633" lon="12.7335533"><ele>1066.3333333333333</ele><time>2026-04-25T15:05:39.109Z</time></trkpt><trkpt lat="42.3315833" lon="12.73353"><ele>1064.1666666666667</ele><time>2026-04-25T15:05:41.108Z</time></trkpt><trkpt lat="42.33147" lon="12.73349"><ele>1062.0</ele><time>2026-04-25T15:05:43.11Z</time></trkpt><trkpt lat="42.33136" lon="12.7334933"><ele>1059.5</ele><time>2026-04-25T15:05:45.108Z</time></trkpt><trkpt lat="42.33124" lon="12.73352"><ele>1057.0</ele><time>2026-04-25T15:05:47.109Z</time></trkpt><trkpt lat="42.331175" lon="12.7335367"><ele>1054.5</ele><time>2026-04-25T15:05:48.109Z</time></trkpt><trkpt lat="42.3311067" lon="12.7335533"><ele>1052.0</ele><time>2026-04-25T15:05:49.109Z</time></trkpt><trkpt lat="42.3310367" lon="12.7335817"><ele>1049.5</ele><time>2026-04-25T15:05:50.11Z</time></trkpt><trkpt lat="42.3309633" lon="12.7335983"><ele>1047.0</ele><time>2026-04-25T15:05:51.109Z</time></trkpt><trkpt lat="42.3308967" lon="12.7336133"><ele>1047.0000000000002</ele><time>2026-04-25T15:05:52.109Z</time></trkpt><trkpt lat="42.3308333" lon="12.73363"><ele>1047.0</ele><time>2026-04-25T15:05:53.109Z</time></trkpt><trkpt lat="42.3307683" lon="12.7336383"><ele>1047.0</ele><time>2026-04-25T15:05:54.108Z</time></trkpt><trkpt lat="42.330705" lon="12.7336383"><ele>1047.0</ele><time>2026-04-25T15:05:55.109Z</time></trkpt><trkpt lat="42.3306417" lon="12.733635"><ele>1047.0</ele><time>2026-04-25T15:05:56.109Z</time></trkpt><trkpt lat="42.3305667" lon="12.73365"><ele>1047.0000000000002</ele><time>2026-04-25T15:06:35.107Z</time></trkpt><trkpt lat="42.33048" lon="12.7336483"><ele>1047.0</ele><time>2026-04-25T15:06:38.108Z</time></trkpt><trkpt lat="42.33037" lon="12.7336367"><ele>1045.5</ele><time>2026-04-25T15:06:58.108Z</time></trkpt><trkpt lat="42.3302717" lon="12.733605"><ele>1044.0</ele><time>2026-04-25T15:07:00.107Z</time></trkpt><trkpt lat="42.3302" lon="12.7336017"><ele>1042.5</ele><time>2026-04-25T15:07:01.106Z</time></trkpt><trkpt lat="42.330115" lon="12.7336067"><ele>1041.0</ele><time>2026-04-25T15:07:02.108Z</time></trkpt><trkpt lat="42.3300367" lon="12.7336217"><ele>1039.5</ele><time>2026-04-25T15:07:03.108Z</time></trkpt><trkpt lat="42.3299467" lon="12.73366"><ele>1038.0</ele><time>2026-04-25T15:07:04.106Z</time></trkpt><trkpt lat="42.3298717" lon="12.7336817"><ele>1038.0</ele><time>2026-04-25T15:07:05.108Z</time></trkpt><trkpt lat="42.3298067" lon="12.7336933"><ele>1038.0</ele><time>2026-04-25T15:07:06.109Z</time></trkpt><trkpt lat="42.3296933" lon="12.73373"><ele>1038.0</ele><time>2026-04-25T15:07:08.108Z</time></trkpt><trkpt lat="42.329575" lon="12.733725"><ele>1038.0</ele><time>2026-04-25T15:07:10.108Z</time></trkpt><trkpt lat="42.329445" lon="12.733735"><ele>1038.0</ele><time>2026-04-25T15:07:12.109Z</time></trkpt><trkpt lat="42.32937" lon="12.73374"><ele>1035.7142857142858</ele><time>2026-04-25T15:07:13.11Z</time></trkpt><trkpt lat="42.3293033" lon="12.7337533"><ele>1033.4285714285713</ele><time>2026-04-25T15:07:14.107Z</time></trkpt><trkpt lat="42.3292417" lon="12.7337783"><ele>1031.142857142857</ele><time>2026-04-25T15:07:15.11Z</time></trkpt><trkpt lat="42.329165" lon="12.7338083"><ele>1028.857142857143</ele><time>2026-04-25T15:07:16.108Z</time></trkpt><trkpt lat="42.3290967" lon="12.73383"><ele>1026.5714285714284</ele><time>2026-04-25T15:07:17.109Z</time></trkpt><trkpt lat="42.329025" lon="12.7338483"><ele>1024.2857142857142</ele><time>2026-04-25T15:07:18.109Z</time></trkpt><trkpt lat="42.3289433" lon="12.7338717"><ele>1022.0</ele><time>2026-04-25T15:07:19.109Z</time></trkpt><trkpt lat="42.3288633" lon="12.7338783"><ele>1019.5000000000001</ele><time>2026-04-25T15:07:20.109Z</time></trkpt><trkpt lat="42.3287883" lon="12.733895"><ele>1017.0</ele><time>2026-04-25T15:07:21.109Z</time></trkpt><trkpt lat="42.3287067" lon="12.7339233"><ele>1014.5</ele><time>2026-04-25T15:07:22.11Z</time></trkpt><trkpt lat="42.328625" lon="12.7339483"><ele>1012.0</ele><time>2026-04-25T15:07:23.107Z</time></trkpt><trkpt lat="42.328545" lon="12.7339617"><ele>1009.5000000000001</ele><time>2026-04-25T15:07:24.109Z</time></trkpt><trkpt lat="42.3284267" lon="12.7339583"><ele>1007.0</ele><time>2026-04-25T15:07:26.11Z</time></trkpt><trkpt lat="42.328305" lon="12.733925"><ele>1007.0000000000001</ele><time>2026-04-25T15:07:28.11Z</time></trkpt><trkpt lat="42.3282467" lon="12.7338783"><ele>1007.0</ele><time>2026-04-25T15:07:29.109Z</time></trkpt><trkpt lat="42.3281867" lon="12.7338083"><ele>1007.0</ele><time>2026-04-25T15:07:30.11Z</time></trkpt><trkpt lat="42.3280733" lon="12.7337133"><ele>1007.0</ele><time>2026-04-25T15:07:32.108Z</time></trkpt><trkpt lat="42.32801" lon="12.7336617"><ele>1007.0000000000001</ele><time>2026-04-25T15:07:33.108Z</time></trkpt><trkpt lat="42.3279383" lon="12.7336017"><ele>1007.0</ele><time>2026-04-25T15:07:34.108Z</time></trkpt><trkpt lat="42.32787" lon="12.7335583"><ele>1005.1666666666667</ele><time>2026-04-25T15:07:35.108Z</time></trkpt><trkpt lat="42.3277967" lon="12.73353"><ele>1003.3333333333334</ele><time>2026-04-25T15:07:36.108Z</time></trkpt><trkpt lat="42.3277233" lon="12.7335"><ele>1001.5</ele><time>2026-04-25T15:07:37.109Z</time></trkpt><trkpt lat="42.32766" lon="12.7334933"><ele>999.6666666666667</ele><time>2026-04-25T15:07:38.108Z</time></trkpt><trkpt lat="42.3275967" lon="12.73351"><ele>997.8333333333334</ele><time>2026-04-25T15:07:39.109Z</time></trkpt><trkpt lat="42.3274933" lon="12.733565"><ele>996.0</ele><time>2026-04-25T15:07:41.107Z</time></trkpt><trkpt lat="42.327435" lon="12.7336033"><ele>996.0</ele><time>2026-04-25T15:07:42.11Z</time></trkpt><trkpt lat="42.3273667" lon="12.7336417"><ele>996.0</ele><time>2026-04-25T15:07:43.109Z</time></trkpt><trkpt lat="42.3272917" lon="12.733685"><ele>996.0</ele><time>2026-04-25T15:07:44.109Z</time></trkpt><trkpt lat="42.3272167" lon="12.733735"><ele>996.0</ele><time>2026-04-25T15:07:45.107Z</time></trkpt><trkpt lat="42.3271433" lon="12.7337917"><ele>996.0</ele><time>2026-04-25T15:07:46.109Z</time></trkpt><trkpt lat="42.32707" lon="12.7338567"><ele>996.0</ele><time>2026-04-25T15:07:47.108Z</time></trkpt><trkpt lat="42.3270017" lon="12.7339083"><ele>993.0</ele><time>2026-04-25T15:07:48.108Z</time></trkpt><trkpt lat="42.326945" lon="12.73396"><ele>989.9999999999999</ele><time>2026-04-25T15:07:49.11Z</time></trkpt><trkpt lat="42.3268483" lon="12.734045"><ele>986.9999999999999</ele><time>2026-04-25T15:07:51.108Z</time></trkpt><trkpt lat="42.3267317" lon="12.7340633"><ele>984.0</ele><time>2026-04-25T15:07:53.11Z</time></trkpt><trkpt lat="42.3266333" lon="12.7340733"><ele>981.0</ele><time>2026-04-25T15:07:55.109Z</time></trkpt><trkpt lat="42.3265583" lon="12.734055"><ele>981.0</ele><time>2026-04-25T15:07:56.109Z</time></trkpt><trkpt lat="42.3264717" lon="12.734045"><ele>981.0</ele><time>2026-04-25T15:07:57.11Z</time></trkpt><trkpt lat="42.3263817" lon="12.7340383"><ele>981.0</ele><time>2026-04-25T15:07:58.109Z</time></trkpt><trkpt lat="42.3262867" lon="12.7340067"><ele>981.0</ele><time>2026-04-25T15:07:59.108Z</time></trkpt><trkpt lat="42.3262083" lon="12.7340017"><ele>981.0</ele><time>2026-04-25T15:08:00.108Z</time></trkpt><trkpt lat="42.326125" lon="12.7339917"><ele>981.0</ele><time>2026-04-25T15:08:01.109Z</time></trkpt><trkpt lat="42.3260533" lon="12.7339983"><ele>979.3333333333334</ele><time>2026-04-25T15:08:02.108Z</time></trkpt><trkpt lat="42.3259833" lon="12.7340183"><ele>977.6666666666667</ele><time>2026-04-25T15:08:03.108Z</time></trkpt><trkpt lat="42.3258983" lon="12.7340467"><ele>976.0</ele><time>2026-04-25T15:08:04.109Z</time></trkpt><trkpt lat="42.3258167" lon="12.7340733"><ele>974.3333333333334</ele><time>2026-04-25T15:08:05.108Z</time></trkpt><trkpt lat="42.3257333" lon="12.7341067"><ele>972.6666666666667</ele><time>2026-04-25T15:08:06.11Z</time></trkpt><trkpt lat="42.32565" lon="12.734135"><ele>971.0</ele><time>2026-04-25T15:08:07.109Z</time></trkpt><trkpt lat="42.3255767" lon="12.7341633"><ele>969.3333333333334</ele><time>2026-04-25T15:08:08.109Z</time></trkpt><trkpt lat="42.3254883" lon="12.7341667"><ele>967.6666666666667</ele><time>2026-04-25T15:08:09.108Z</time></trkpt><trkpt lat="42.3254" lon="12.7341667"><ele>966.0</ele><time>2026-04-25T15:08:10.109Z</time></trkpt><trkpt lat="42.32532" lon="12.7341633"><ele>964.3333333333333</ele><time>2026-04-25T15:08:11.107Z</time></trkpt><trkpt lat="42.3252533" lon="12.734155"><ele>962.6666666666666</ele><time>2026-04-25T15:08:13.111Z</time></trkpt><trkpt lat="42.32516" lon="12.7342033"><ele>961.0</ele><time>2026-04-25T15:08:20.108Z</time></trkpt><trkpt lat="42.325085" lon="12.7342283"><ele>961.0</ele><time>2026-04-25T15:08:22.109Z</time></trkpt><trkpt lat="42.3250167" lon="12.7342567"><ele>960.9999999999999</ele><time>2026-04-25T15:08:24.108Z</time></trkpt><trkpt lat="42.3249267" lon="12.7342533"><ele>961.0</ele><time>2026-04-25T15:08:27.108Z</time></trkpt><trkpt lat="42.3248633" lon="12.734255"><ele>961.0</ele><time>2026-04-25T15:08:29.107Z</time></trkpt><trkpt lat="42.324795" lon="12.7342717"><ele>960.9999999999999</ele><time>2026-04-25T15:08:32.109Z</time></trkpt><trkpt lat="42.3247167" lon="12.7343"><ele>961.0</ele><time>2026-04-25T15:08:36.108Z</time></trkpt><trkpt lat="42.3246467" lon="12.7342983"><ele>961.0</ele><time>2026-04-25T15:08:39.11Z</time></trkpt><trkpt lat="42.324555" lon="12.7342567"><ele>958.8</ele><time>2026-04-25T15:08:42.108Z</time></trkpt><trkpt lat="42.3244767" lon="12.7342583"><ele>956.5999999999999</ele><time>2026-04-25T15:08:44.11Z</time></trkpt><trkpt lat="42.3243817" lon="12.7342583"><ele>954.4</ele><time>2026-04-25T15:08:46.108Z</time></trkpt><trkpt lat="42.324255" lon="12.7342317"><ele>952.2</ele><time>2026-04-25T15:08:48.108Z</time></trkpt><trkpt lat="42.32418" lon="12.7342283"><ele>950.0</ele><time>2026-04-25T15:08:49.108Z</time></trkpt><trkpt lat="42.3240967" lon="12.7342267"><ele>950.0000000000001</ele><time>2026-04-25T15:08:50.108Z</time></trkpt><trkpt lat="42.324015" lon="12.7342367"><ele>950.0</ele><time>2026-04-25T15:08:51.109Z</time></trkpt><trkpt lat="42.32394" lon="12.7342517"><ele>950.0</ele><time>2026-04-25T15:08:52.107Z</time></trkpt><trkpt lat="42.3238733" lon="12.7342583"><ele>950.0</ele><time>2026-04-25T15:08:53.108Z</time></trkpt><trkpt lat="42.32381" lon="12.73428"><ele>950.0000000000001</ele><time>2026-04-25T15:08:54.109Z</time></trkpt><trkpt lat="42.3236783" lon="12.734315"><ele>950.0</ele><time>2026-04-25T15:08:56.109Z</time></trkpt><trkpt lat="42.3236033" lon="12.7343267"><ele>950.5000000000001</ele><time>2026-04-25T15:08:57.109Z</time></trkpt><trkpt lat="42.32353" lon="12.7343433"><ele>951.0</ele><time>2026-04-25T15:08:58.109Z</time></trkpt><trkpt lat="42.323465" lon="12.7343633"><ele>951.5</ele><time>2026-04-25T15:08:59.11Z</time></trkpt><trkpt lat="42.3233833" lon="12.7344133"><ele>952.0</ele><time>2026-04-25T15:09:01.109Z</time></trkpt><trkpt lat="42.3232967" lon="12.7344533"><ele>952.5000000000001</ele><time>2026-04-25T15:09:03.11Z</time></trkpt><trkpt lat="42.3232033" lon="12.734485"><ele>953.0</ele><time>2026-04-25T15:09:05.107Z</time></trkpt><trkpt lat="42.32314" lon="12.7345067"><ele>952.4</ele><time>2026-04-25T15:09:08.106Z</time></trkpt><trkpt lat="42.3230383" lon="12.7344683"><ele>951.8</ele><time>2026-04-25T15:09:11.108Z</time></trkpt><trkpt lat="42.3229317" lon="12.734425"><ele>951.2</ele><time>2026-04-25T15:09:13.109Z</time></trkpt><trkpt lat="42.3228033" lon="12.7344333"><ele>950.6</ele><time>2026-04-25T15:09:15.107Z</time></trkpt><trkpt lat="42.32271" lon="12.734475"><ele>950.0</ele><time>2026-04-25T15:09:17.107Z</time></trkpt><trkpt lat="42.32261" lon="12.734505"><ele>950.0</ele><time>2026-04-25T15:09:19.108Z</time></trkpt><trkpt lat="42.3225217" lon="12.7345267"><ele>950.0</ele><time>2026-04-25T15:09:21.108Z</time></trkpt><trkpt lat="42.322415" lon="12.7345417"><ele>950.0</ele><time>2026-04-25T15:09:23.109Z</time></trkpt><trkpt lat="42.3223217" lon="12.7345517"><ele>950.0</ele><time>2026-04-25T15:09:25.108Z</time></trkpt><trkpt lat="42.32223" lon="12.7345967"><ele>950.0</ele><time>2026-04-25T15:09:33.109Z</time></trkpt><trkpt lat="42.3221217" lon="12.73452"><ele>947.6666666666667</ele><time>2026-04-25T15:09:35.108Z</time></trkpt><trkpt lat="42.322" lon="12.734455"><ele>945.3333333333334</ele><time>2026-04-25T15:09:37.109Z</time></trkpt><trkpt lat="42.3219367" lon="12.7344333"><ele>943.0</ele><time>2026-04-25T15:09:38.107Z</time></trkpt><trkpt lat="42.3218633" lon="12.7344267"><ele>940.6666666666667</ele><time>2026-04-25T15:09:39.108Z</time></trkpt><trkpt lat="42.3217817" lon="12.73444"><ele>938.3333333333334</ele><time>2026-04-25T15:09:40.108Z</time></trkpt><trkpt lat="42.3217183" lon="12.7344683"><ele>936.0</ele><time>2026-04-25T15:09:41.109Z</time></trkpt><trkpt lat="42.321655" lon="12.7344917"><ele>936.0</ele><time>2026-04-25T15:09:42.109Z</time></trkpt><trkpt lat="42.32159" lon="12.7345083"><ele>936.0000000000001</ele><time>2026-04-25T15:09:43.108Z</time></trkpt><trkpt lat="42.3215183" lon="12.734525"><ele>936.0</ele><time>2026-04-25T15:09:44.107Z</time></trkpt><trkpt lat="42.321445" lon="12.73454"><ele>936.0</ele><time>2026-04-25T15:09:45.109Z</time></trkpt><trkpt lat="42.3213833" lon="12.7345733"><ele>936.0000000000001</ele><time>2026-04-25T15:09:46.107Z</time></trkpt><trkpt lat="42.321305" lon="12.7345867"><ele>936.0</ele><time>2026-04-25T15:09:47.108Z</time></trkpt><trkpt lat="42.321225" lon="12.7345983"><ele>936.0</ele><time>2026-04-25T15:09:48.108Z</time></trkpt><trkpt lat="42.321155" lon="12.734625"><ele>933.5999999999999</ele><time>2026-04-25T15:09:49.108Z</time></trkpt><trkpt lat="42.3210783" lon="12.7346483"><ele>931.1999999999999</ele><time>2026-04-25T15:09:50.109Z</time></trkpt><trkpt lat="42.3209933" lon="12.7346617"><ele>928.8000000000001</ele><time>2026-04-25T15:09:51.108Z</time></trkpt><trkpt lat="42.3208967" lon="12.7346533"><ele>926.4000000000001</ele><time>2026-04-25T15:09:52.108Z</time></trkpt><trkpt lat="42.3208" lon="12.73466"><ele>924.0</ele><time>2026-04-25T15:09:53.108Z</time></trkpt><trkpt lat="42.3207" lon="12.734655"><ele>924.0</ele><time>2026-04-25T15:09:54.108Z</time></trkpt><trkpt lat="42.3205983" lon="12.7346667"><ele>924.0</ele><time>2026-04-25T15:09:55.11Z</time></trkpt><trkpt lat="42.3205083" lon="12.7346917"><ele>924.0</ele><time>2026-04-25T15:09:56.109Z</time></trkpt><trkpt lat="42.3204233" lon="12.73473"><ele>924.0</ele><time>2026-04-25T15:09:57.109Z</time></trkpt><trkpt lat="42.32034" lon="12.7347617"><ele>924.0</ele><time>2026-04-25T15:09:58.108Z</time></trkpt><trkpt lat="42.32027" lon="12.7347767"><ele>924.0</ele><time>2026-04-25T15:09:59.109Z</time></trkpt><trkpt lat="42.3201583" lon="12.7347967"><ele>921.6666666666666</ele><time>2026-04-25T15:10:01.108Z</time></trkpt><trkpt lat="42.320085" lon="12.73478"><ele>919.3333333333333</ele><time>2026-04-25T15:10:03.108Z</time></trkpt><trkpt lat="42.32001" lon="12.7347467"><ele>917.0</ele><time>2026-04-25T15:10:05.109Z</time></trkpt><trkpt lat="42.3199217" lon="12.7347433"><ele>914.6666666666666</ele><time>2026-04-25T15:10:07.109Z</time></trkpt><trkpt lat="42.3198317" lon="12.7347633"><ele>912.3333333333333</ele><time>2026-04-25T15:10:09.11Z</time></trkpt><trkpt lat="42.3197367" lon="12.7347817"><ele>910.0</ele><time>2026-04-25T15:10:11.108Z</time></trkpt><trkpt lat="42.3196567" lon="12.7347983"><ele>908.1666666666666</ele><time>2026-04-25T15:10:13.108Z</time></trkpt><trkpt lat="42.3195917" lon="12.7348233"><ele>906.3333333333333</ele><time>2026-04-25T15:10:15.109Z</time></trkpt><trkpt lat="42.319525" lon="12.7348667"><ele>904.5</ele><time>2026-04-25T15:10:17.108Z</time></trkpt><trkpt lat="42.3194117" lon="12.73488"><ele>902.6666666666667</ele><time>2026-04-25T15:10:19.109Z</time></trkpt><trkpt lat="42.3193367" lon="12.7348817"><ele>900.8333333333334</ele><time>2026-04-25T15:10:20.109Z</time></trkpt><trkpt lat="42.319275" lon="12.7349183"><ele>899.0</ele><time>2026-04-25T15:10:21.111Z</time></trkpt><trkpt lat="42.3191967" lon="12.7349233"><ele>899.0000000000001</ele><time>2026-04-25T15:10:22.109Z</time></trkpt><trkpt lat="42.3191217" lon="12.7349317"><ele>899.0</ele><time>2026-04-25T15:10:23.109Z</time></trkpt><trkpt lat="42.3190467" lon="12.7349467"><ele>899.0</ele><time>2026-04-25T15:10:24.108Z</time></trkpt><trkpt lat="42.3189633" lon="12.7349583"><ele>899.0</ele><time>2026-04-25T15:10:25.111Z</time></trkpt><trkpt lat="42.318875" lon="12.734965"><ele>899.0000000000001</ele><time>2026-04-25T15:10:26.108Z</time></trkpt><trkpt lat="42.3187717" lon="12.7349367"><ele>899.0</ele><time>2026-04-25T15:10:27.108Z</time></trkpt><trkpt lat="42.3186767" lon="12.7349067"><ele>898.0000000000001</ele><time>2026-04-25T15:10:28.109Z</time></trkpt><trkpt lat="42.318585" lon="12.7348917"><ele>897.0</ele><time>2026-04-25T15:10:29.108Z</time></trkpt><trkpt lat="42.318495" lon="12.7348783"><ele>896.0</ele><time>2026-04-25T15:10:30.109Z</time></trkpt><trkpt lat="42.318405" lon="12.73485"><ele>895.0</ele><time>2026-04-25T15:10:31.109Z</time></trkpt><trkpt lat="42.318315" lon="12.7348333"><ele>894.0000000000001</ele><time>2026-04-25T15:10:32.108Z</time></trkpt><trkpt lat="42.3182333" lon="12.734825"><ele>893.0</ele><time>2026-04-25T15:10:33.108Z</time></trkpt><trkpt lat="42.31817" lon="12.73482"><ele>890.4</ele><time>2026-04-25T15:10:34.111Z</time></trkpt><trkpt lat="42.3180667" lon="12.73479"><ele>887.8</ele><time>2026-04-25T15:10:36.109Z</time></trkpt><trkpt lat="42.3179667" lon="12.734775"><ele>885.2</ele><time>2026-04-25T15:10:38.109Z</time></trkpt><trkpt lat="42.3178617" lon="12.7347833"><ele>882.6</ele><time>2026-04-25T15:10:40.109Z</time></trkpt><trkpt lat="42.31779" lon="12.734785"><ele>880.0</ele><time>2026-04-25T15:10:43.109Z</time></trkpt><trkpt lat="42.3177167" lon="12.7347433"><ele>880.0</ele><time>2026-04-25T15:10:48.109Z</time></trkpt><trkpt lat="42.3176533" lon="12.7347583"><ele>880.0</ele><time>2026-04-25T15:10:50.109Z</time></trkpt><trkpt lat="42.317545" lon="12.73474"><ele>880.0</ele><time>2026-04-25T15:10:56.108Z</time></trkpt><trkpt lat="42.3174567" lon="12.7347383"><ele>880.0</ele><time>2026-04-25T15:11:00.106Z</time></trkpt><trkpt lat="42.3173783" lon="12.7346767"><ele>880.0</ele><time>2026-04-25T15:11:02.108Z</time></trkpt><trkpt lat="42.3172883" lon="12.7345767"><ele>880.0</ele><time>2026-04-25T15:11:04.109Z</time></trkpt><trkpt lat="42.317185" lon="12.73452"><ele>880.0</ele><time>2026-04-25T15:11:06.108Z</time></trkpt><trkpt lat="42.3171167" lon="12.7344567"><ele>880.0</ele><time>2026-04-25T15:11:08.109Z</time></trkpt><trkpt lat="42.3170433" lon="12.7343967"><ele>880.0</ele><time>2026-04-25T15:11:10.107Z</time></trkpt><trkpt lat="42.3169367" lon="12.7343667"><ele>880.0</ele><time>2026-04-25T15:11:12.109Z</time></trkpt><trkpt lat="42.3168183" lon="12.7343633"><ele>879.9999999999999</ele><time>2026-04-25T15:11:14.108Z</time></trkpt><trkpt lat="42.316725" lon="12.7343767"><ele>880.0</ele><time>2026-04-25T15:11:16.109Z</time></trkpt><trkpt lat="42.3166233" lon="12.7344167"><ele>880.0</ele><time>2026-04-25T15:11:18.107Z</time></trkpt><trkpt lat="42.3165483" lon="12.7343883"><ele>880.0</ele><time>2026-04-25T15:11:24.109Z</time></trkpt><trkpt lat="42.3164883" lon="12.7343483"><ele>879.9999999999999</ele><time>2026-04-25T15:11:28.109Z</time></trkpt><trkpt lat="42.3164267" lon="12.73433"><ele>880.0</ele><time>2026-04-25T15:11:30.108Z</time></trkpt><trkpt lat="42.31636" lon="12.7343317"><ele>879.2857142857142</ele><time>2026-04-25T15:11:32.108Z</time></trkpt><trkpt lat="42.3162967" lon="12.7343117"><ele>878.5714285714286</ele><time>2026-04-25T15:11:34.108Z</time></trkpt><trkpt lat="42.3162183" lon="12.7342983"><ele>877.8571428571429</ele><time>2026-04-25T15:11:36.109Z</time></trkpt><trkpt lat="42.31613" lon="12.7342933"><ele>877.1428571428571</ele><time>2026-04-25T15:11:38.108Z</time></trkpt><trkpt lat="42.31607" lon="12.7343233"><ele>876.4285714285714</ele><time>2026-04-25T15:11:40.107Z</time></trkpt><trkpt lat="42.3160167" lon="12.7343817"><ele>875.7142857142857</ele><time>2026-04-25T15:11:44.108Z</time></trkpt><trkpt lat="42.3159567" lon="12.7344367"><ele>875.0</ele><time>2026-04-25T15:11:50.11Z</time></trkpt><trkpt lat="42.31588" lon="12.7344733"><ele>875.0000000000001</ele><time>2026-04-25T15:11:53.11Z</time></trkpt><trkpt lat="42.315805" lon="12.7345033"><ele>875.0</ele><time>2026-04-25T15:11:55.108Z</time></trkpt><trkpt lat="42.3157217" lon="12.7345283"><ele>875.0</ele><time>2026-04-25T15:11:57.109Z</time></trkpt><trkpt lat="42.315645" lon="12.73456"><ele>875.0</ele><time>2026-04-25T15:11:59.108Z</time></trkpt><trkpt lat="42.3155317" lon="12.7345767"><ele>875.0000000000001</ele><time>2026-04-25T15:12:01.109Z</time></trkpt><trkpt lat="42.3154633" lon="12.7345817"><ele>875.0</ele><time>2026-04-25T15:12:02.109Z</time></trkpt><trkpt lat="42.3153683" lon="12.7345933"><ele>872.0000000000001</ele><time>2026-04-25T15:12:04.109Z</time></trkpt><trkpt lat="42.3152967" lon="12.7346083"><ele>869.0</ele><time>2026-04-25T15:12:06.108Z</time></trkpt><trkpt lat="42.31522" lon="12.7346417"><ele>866.0</ele><time>2026-04-25T15:12:09.109Z</time></trkpt><trkpt lat="42.3151483" lon="12.7347317"><ele>863.0</ele><time>2026-04-25T15:12:16.108Z</time></trkpt><trkpt lat="42.3150883" lon="12.7347583"><ele>860.0000000000001</ele><time>2026-04-25T15:12:17.109Z</time></trkpt><trkpt lat="42.314985" lon="12.7347933"><ele>857.0</ele><time>2026-04-25T15:12:19.109Z</time></trkpt><trkpt lat="42.314915" lon="12.7348133"><ele>857.0</ele><time>2026-04-25T15:12:20.109Z</time></trkpt><trkpt lat="42.31484" lon="12.734845"><ele>857.0</ele><time>2026-04-25T15:12:21.108Z</time></trkpt><trkpt lat="42.3147683" lon="12.7348817"><ele>857.0</ele><time>2026-04-25T15:12:22.11Z</time></trkpt><trkpt lat="42.3147" lon="12.7349133"><ele>857.0</ele><time>2026-04-25T15:12:23.109Z</time></trkpt><trkpt lat="42.314585" lon="12.7349483"><ele>857.0</ele><time>2026-04-25T15:12:25.109Z</time></trkpt><trkpt lat="42.3144567" lon="12.7349417"><ele>856.0000000000001</ele><time>2026-04-25T15:12:27.109Z</time></trkpt><trkpt lat="42.3143717" lon="12.7349217"><ele>855.0</ele><time>2026-04-25T15:12:28.109Z</time></trkpt><trkpt lat="42.31429" lon="12.7348767"><ele>854.0</ele><time>2026-04-25T15:12:29.108Z</time></trkpt><trkpt lat="42.3142083" lon="12.7348167"><ele>853.0</ele><time>2026-04-25T15:12:30.109Z</time></trkpt><trkpt lat="42.314145" lon="12.7347333"><ele>852.0000000000001</ele><time>2026-04-25T15:12:31.108Z</time></trkpt><trkpt lat="42.31409" lon="12.7346517"><ele>851.0</ele><time>2026-04-25T15:12:32.108Z</time></trkpt><trkpt lat="42.3140467" lon="12.7345817"><ele>851.0</ele><time>2026-04-25T15:12:33.109Z</time></trkpt><trkpt lat="42.3140033" lon="12.73451"><ele>851.0</ele><time>2026-04-25T15:12:34.109Z</time></trkpt><trkpt lat="42.3139383" lon="12.734415"><ele>851.0</ele><time>2026-04-25T15:12:36.109Z</time></trkpt><trkpt lat="42.3138467" lon="12.7344"><ele>851.0</ele><time>2026-04-25T15:12:39.11Z</time></trkpt><trkpt lat="42.3137433" lon="12.7344067"><ele>851.0</ele><time>2026-04-25T15:12:41.109Z</time></trkpt><trkpt lat="42.3136383" lon="12.7344233"><ele>849.1999999999999</ele><time>2026-04-25T15:12:43.108Z</time></trkpt><trkpt lat="42.3135133" lon="12.7344333"><ele>847.4</ele><time>2026-04-25T15:12:45.108Z</time></trkpt><trkpt lat="42.313435" lon="12.7344383"><ele>845.6</ele><time>2026-04-25T15:12:46.109Z</time></trkpt><trkpt lat="42.31336" lon="12.734445"><ele>843.8</ele><time>2026-04-25T15:12:47.109Z</time></trkpt><trkpt lat="42.3132583" lon="12.73446"><ele>842.0</ele><time>2026-04-25T15:12:49.108Z</time></trkpt><trkpt lat="42.3131567" lon="12.734475"><ele>842.0</ele><time>2026-04-25T15:12:51.11Z</time></trkpt><trkpt lat="42.3130933" lon="12.73449"><ele>842.0</ele><time>2026-04-25T15:12:53.109Z</time></trkpt><trkpt lat="42.3130033" lon="12.7345367"><ele>842.0</ele><time>2026-04-25T15:12:56.11Z</time></trkpt><trkpt lat="42.3129183" lon="12.7345967"><ele>842.0</ele><time>2026-04-25T15:12:58.109Z</time></trkpt><trkpt lat="42.3128217" lon="12.7346417"><ele>842.0</ele><time>2026-04-25T15:13:00.109Z</time></trkpt><trkpt lat="42.312725" lon="12.7346967"><ele>835.8</ele><time>2026-04-25T15:13:02.11Z</time></trkpt><trkpt lat="42.3126267" lon="12.7347417"><ele>829.6</ele><time>2026-04-25T15:13:04.109Z</time></trkpt><trkpt lat="42.3125233" lon="12.7348233"><ele>823.4</ele><time>2026-04-25T15:13:06.108Z</time></trkpt><trkpt lat="42.3124317" lon="12.734905"><ele>817.1999999999999</ele><time>2026-04-25T15:13:08.109Z</time></trkpt><trkpt lat="42.312365" lon="12.735005"><ele>811.0</ele><time>2026-04-25T15:13:10.107Z</time></trkpt><trkpt lat="42.3123067" lon="12.7350667"><ele>809.5999999999999</ele><time>2026-04-25T15:13:12.109Z</time></trkpt><trkpt lat="42.3122133" lon="12.73513"><ele>808.2</ele><time>2026-04-25T15:13:14.109Z</time></trkpt><trkpt lat="42.3121017" lon="12.73517"><ele>806.8</ele><time>2026-04-25T15:13:16.109Z</time></trkpt><trkpt lat="42.3120033" lon="12.7351633"><ele>805.4000000000001</ele><time>2026-04-25T15:13:18.107Z</time></trkpt><trkpt lat="42.311905" lon="12.7351483"><ele>804.0</ele><time>2026-04-25T15:13:20.106Z</time></trkpt><trkpt lat="42.31182" lon="12.7351233"><ele>804.0</ele><time>2026-04-25T15:13:22.108Z</time></trkpt><trkpt lat="42.3117583" lon="12.7350883"><ele>804.0</ele><time>2026-04-25T15:13:24.108Z</time></trkpt><trkpt lat="42.3116967" lon="12.73501"><ele>804.0</ele><time>2026-04-25T15:13:27.109Z</time></trkpt><trkpt lat="42.3116417" lon="12.73495"><ele>804.0</ele><time>2026-04-25T15:13:29.108Z</time></trkpt><trkpt lat="42.311565" lon="12.73484"><ele>804.0</ele><time>2026-04-25T15:13:31.109Z</time></trkpt><trkpt lat="42.3114667" lon="12.73474"><ele>803.0</ele><time>2026-04-25T15:13:33.109Z</time></trkpt><trkpt lat="42.3113883" lon="12.734645"><ele>802.0</ele><time>2026-04-25T15:13:35.108Z</time></trkpt><trkpt lat="42.3113083" lon="12.7345333"><ele>801.0</ele><time>2026-04-25T15:13:37.109Z</time></trkpt><trkpt lat="42.3112467" lon="12.73443"><ele>800.0</ele><time>2026-04-25T15:13:39.109Z</time></trkpt><trkpt lat="42.3112" lon="12.7343683"><ele>799.0</ele><time>2026-04-25T15:13:40.109Z</time></trkpt><trkpt lat="42.3111417" lon="12.73432"><ele>794.6666666666666</ele><time>2026-04-25T15:13:41.108Z</time></trkpt><trkpt lat="42.3110433" lon="12.7342517"><ele>790.3333333333333</ele><time>2026-04-25T15:13:43.109Z</time></trkpt><trkpt lat="42.310955" lon="12.7342767"><ele>786.0</ele><time>2026-04-25T15:13:46.108Z</time></trkpt><trkpt lat="42.3108733" lon="12.7342917"><ele>781.6666666666667</ele><time>2026-04-25T15:13:48.109Z</time></trkpt><trkpt lat="42.3108017" lon="12.734295"><ele>777.3333333333334</ele><time>2026-04-25T15:13:50.109Z</time></trkpt><trkpt lat="42.3107267" lon="12.7343133"><ele>773.0</ele><time>2026-04-25T15:13:52.109Z</time></trkpt><trkpt lat="42.3106583" lon="12.7343133"><ele>773.0</ele><time>2026-04-25T15:13:54.107Z</time></trkpt><trkpt lat="42.3106017" lon="12.7342717"><ele>773.0</ele><time>2026-04-25T15:13:56.109Z</time></trkpt><trkpt lat="42.3105417" lon="12.7341383"><ele>773.0</ele><time>2026-04-25T15:13:58.109Z</time></trkpt><trkpt lat="42.31046" lon="12.7339967"><ele>773.0</ele><time>2026-04-25T15:14:00.109Z</time></trkpt><trkpt lat="42.3104133" lon="12.7339267"><ele>773.0</ele><time>2026-04-25T15:14:01.109Z</time></trkpt><trkpt lat="42.3103567" lon="12.7338467"><ele>773.2857142857142</ele><time>2026-04-25T15:14:02.109Z</time></trkpt><trkpt lat="42.3102983" lon="12.733765"><ele>773.5714285714286</ele><time>2026-04-25T15:14:03.109Z</time></trkpt><trkpt lat="42.31025" lon="12.73369"><ele>773.8571428571429</ele><time>2026-04-25T15:14:04.11Z</time></trkpt><trkpt lat="42.3101967" lon="12.73363"><ele>774.1428571428571</ele><time>2026-04-25T15:14:05.109Z</time></trkpt><trkpt lat="42.310135" lon="12.7335783"><ele>774.4285714285714</ele><time>2026-04-25T15:14:06.108Z</time></trkpt><trkpt lat="42.3100733" lon="12.7335233"><ele>774.7142857142857</ele><time>2026-04-25T15:14:07.108Z</time></trkpt><trkpt lat="42.3100117" lon="12.7334717"><ele>775.0</ele><time>2026-04-25T15:14:08.108Z</time></trkpt><trkpt lat="42.3099517" lon="12.7334317"><ele>775.0</ele><time>2026-04-25T15:14:09.109Z</time></trkpt><trkpt lat="42.30989" lon="12.7334017"><ele>775.0</ele><time>2026-04-25T15:14:10.108Z</time></trkpt><trkpt lat="42.309795" lon="12.7333517"><ele>775.0</ele><time>2026-04-25T15:14:12.108Z</time></trkpt><trkpt lat="42.30971" lon="12.7333383"><ele>775.0</ele><time>2026-04-25T15:14:14.107Z</time></trkpt><trkpt lat="42.3096217" lon="12.7333683"><ele>775.0</ele><time>2026-04-25T15:14:16.109Z</time></trkpt><trkpt lat="42.309515" lon="12.73344"><ele>771.8333333333333</ele><time>2026-04-25T15:14:18.11Z</time></trkpt><trkpt lat="42.309445" lon="12.7334883"><ele>768.6666666666666</ele><time>2026-04-25T15:14:19.11Z</time></trkpt><trkpt lat="42.309375" lon="12.73353"><ele>765.5</ele><time>2026-04-25T15:14:20.111Z</time></trkpt><trkpt lat="42.3093083" lon="12.7335617"><ele>762.3333333333333</ele><time>2026-04-25T15:14:21.108Z</time></trkpt><trkpt lat="42.309195" lon="12.733595"><ele>759.1666666666666</ele><time>2026-04-25T15:14:23.109Z</time></trkpt><trkpt lat="42.309095" lon="12.7335717"><ele>756.0</ele><time>2026-04-25T15:14:25.107Z</time></trkpt><trkpt lat="42.308995" lon="12.7335467"><ele>751.1999999999999</ele><time>2026-04-25T15:14:27.109Z</time></trkpt><trkpt lat="42.3088967" lon="12.7335183"><ele>746.4</ele><time>2026-04-25T15:14:29.11Z</time></trkpt><trkpt lat="42.3087867" lon="12.7335033"><ele>741.6</ele><time>2026-04-25T15:14:31.108Z</time></trkpt><trkpt lat="42.3086883" lon="12.7334633"><ele>736.8</ele><time>2026-04-25T15:14:33.107Z</time></trkpt><trkpt lat="42.3085967" lon="12.733425"><ele>732.0</ele><time>2026-04-25T15:14:35.109Z</time></trkpt><trkpt lat="42.3084767" lon="12.7333583"><ele>732.0</ele><time>2026-04-25T15:14:37.108Z</time></trkpt><trkpt lat="42.308415" lon="12.7333267"><ele>732.0</ele><time>2026-04-25T15:14:38.111Z</time></trkpt><trkpt lat="42.308345" lon="12.7333083"><ele>732.0</ele><time>2026-04-25T15:14:39.111Z</time></trkpt><trkpt lat="42.3082783" lon="12.7332967"><ele>732.0</ele><time>2026-04-25T15:14:40.107Z</time></trkpt><trkpt lat="42.308185" lon="12.7332783"><ele>732.0</ele><time>2026-04-25T15:14:42.109Z</time></trkpt><trkpt lat="42.3081183" lon="12.7332467"><ele>732.0</ele><time>2026-04-25T15:14:44.107Z</time></trkpt><trkpt lat="42.308025" lon="12.7332183"><ele>728.2</ele><time>2026-04-25T15:14:46.108Z</time></trkpt><trkpt lat="42.3079233" lon="12.7331967"><ele>724.4000000000001</ele><time>2026-04-25T15:14:48.108Z</time></trkpt><trkpt lat="42.3078383" lon="12.7331683"><ele>720.5999999999999</ele><time>2026-04-25T15:14:50.108Z</time></trkpt><trkpt lat="42.3077233" lon="12.7331517"><ele>716.8</ele><time>2026-04-25T15:15:07.108Z</time></trkpt><trkpt lat="42.3076" lon="12.7330933"><ele>713.0</ele><time>2026-04-25T15:15:09.108Z</time></trkpt><trkpt lat="42.30748" lon="12.73306"><ele>713.0</ele><time>2026-04-25T15:15:11.108Z</time></trkpt><trkpt lat="42.3074167" lon="12.7330417"><ele>713.0</ele><time>2026-04-25T15:15:12.108Z</time></trkpt><trkpt lat="42.307345" lon="12.7330233"><ele>713.0</ele><time>2026-04-25T15:15:13.109Z</time></trkpt><trkpt lat="42.3072767" lon="12.7330117"><ele>713.0</ele><time>2026-04-25T15:15:14.109Z</time></trkpt><trkpt lat="42.3072117" lon="12.733"><ele>713.0</ele><time>2026-04-25T15:15:15.109Z</time></trkpt><trkpt lat="42.3070983" lon="12.732995"><ele>713.0</ele><time>2026-04-25T15:15:17.108Z</time></trkpt><trkpt lat="42.3070183" lon="12.7329933"><ele>710.8333333333333</ele><time>2026-04-25T15:15:19.108Z</time></trkpt><trkpt lat="42.3069533" lon="12.73299"><ele>708.6666666666666</ele><time>2026-04-25T15:15:21.109Z</time></trkpt><trkpt lat="42.3068467" lon="12.7329583"><ele>706.5</ele><time>2026-04-25T15:15:23.108Z</time></trkpt><trkpt lat="42.3067817" lon="12.7329333"><ele>704.3333333333334</ele><time>2026-04-25T15:15:24.108Z</time></trkpt><trkpt lat="42.3067033" lon="12.7328983"><ele>702.1666666666667</ele><time>2026-04-25T15:15:25.11Z</time></trkpt><trkpt lat="42.3066117" lon="12.7328667"><ele>700.0</ele><time>2026-04-25T15:15:26.109Z</time></trkpt><trkpt lat="42.306515" lon="12.7328467"><ele>700.0</ele><time>2026-04-25T15:15:27.11Z</time></trkpt><trkpt lat="42.3064233" lon="12.7328433"><ele>700.0</ele><time>2026-04-25T15:15:28.108Z</time></trkpt><trkpt lat="42.3063283" lon="12.7328317"><ele>700.0</ele><time>2026-04-25T15:15:29.11Z</time></trkpt><trkpt lat="42.3062417" lon="12.7328283"><ele>700.0</ele><time>2026-04-25T15:15:30.108Z</time></trkpt><trkpt lat="42.3061567" lon="12.7328283"><ele>700.0</ele><time>2026-04-25T15:15:31.109Z</time></trkpt><trkpt lat="42.3060833" lon="12.7328517"><ele>700.0</ele><time>2026-04-25T15:15:32.11Z</time></trkpt><trkpt lat="42.3060033" lon="12.7328883"><ele>697.6666666666667</ele><time>2026-04-25T15:15:33.109Z</time></trkpt><trkpt lat="42.30592" lon="12.73293"><ele>695.3333333333334</ele><time>2026-04-25T15:15:34.109Z</time></trkpt><trkpt lat="42.3058367" lon="12.7329717"><ele>693.0</ele><time>2026-04-25T15:15:35.108Z</time></trkpt><trkpt lat="42.3057533" lon="12.7330117"><ele>690.6666666666666</ele><time>2026-04-25T15:15:36.109Z</time></trkpt><trkpt lat="42.30568" lon="12.7330367"><ele>688.3333333333333</ele><time>2026-04-25T15:15:37.108Z</time></trkpt><trkpt lat="42.3055983" lon="12.73306"><ele>686.0</ele><time>2026-04-25T15:15:38.108Z</time></trkpt><trkpt lat="42.305515" lon="12.7330733"><ele>684.1666666666666</ele><time>2026-04-25T15:15:39.109Z</time></trkpt><trkpt lat="42.3054333" lon="12.7330633"><ele>682.3333333333333</ele><time>2026-04-25T15:15:40.107Z</time></trkpt><trkpt lat="42.3053583" lon="12.7330583"><ele>680.5</ele><time>2026-04-25T15:15:41.108Z</time></trkpt><trkpt lat="42.3052867" lon="12.7330533"><ele>678.6666666666666</ele><time>2026-04-25T15:15:42.109Z</time></trkpt><trkpt lat="42.3052167" lon="12.7330533"><ele>676.8333333333334</ele><time>2026-04-25T15:15:43.107Z</time></trkpt><trkpt lat="42.3051133" lon="12.7330317"><ele>675.0</ele><time>2026-04-25T15:15:45.109Z</time></trkpt><trkpt lat="42.3050183" lon="12.7330567"><ele>675.0</ele><time>2026-04-25T15:15:47.108Z</time></trkpt><trkpt lat="42.3049233" lon="12.7330867"><ele>675.0</ele><time>2026-04-25T15:15:49.107Z</time></trkpt><trkpt lat="42.3048133" lon="12.7330617"><ele>675.0</ele><time>2026-04-25T15:15:51.108Z</time></trkpt><trkpt lat="42.3047183" lon="12.733025"><ele>675.0</ele><time>2026-04-25T15:15:53.108Z</time></trkpt><trkpt lat="42.3046067" lon="12.73302"><ele>675.0</ele><time>2026-04-25T15:15:55.109Z</time></trkpt><trkpt lat="42.3044883" lon="12.73303"><ele>670.5</ele><time>2026-04-25T15:15:57.109Z</time></trkpt><trkpt lat="42.3043683" lon="12.73304"><ele>666.0</ele><time>2026-04-25T15:15:59.109Z</time></trkpt><trkpt lat="42.30425" lon="12.73304"><ele>661.5</ele><time>2026-04-25T15:16:01.109Z</time></trkpt><trkpt lat="42.3041383" lon="12.73301"><ele>657.0</ele><time>2026-04-25T15:16:03.109Z</time></trkpt><trkpt lat="42.3040283" lon="12.7329567"><ele>657.0</ele><time>2026-04-25T15:16:05.107Z</time></trkpt><trkpt lat="42.3039267" lon="12.7328833"><ele>657.0</ele><time>2026-04-25T15:16:07.108Z</time></trkpt><trkpt lat="42.3038383" lon="12.732795"><ele>657.0</ele><time>2026-04-25T15:16:09.109Z</time></trkpt><trkpt lat="42.30376" lon="12.732705"><ele>657.0</ele><time>2026-04-25T15:16:11.109Z</time></trkpt><trkpt lat="42.3037033" lon="12.7326517"><ele>657.0</ele><time>2026-04-25T15:16:13.108Z</time></trkpt><trkpt lat="42.3036267" lon="12.73265"><ele>658.8333333333334</ele><time>2026-04-25T15:17:27.108Z</time></trkpt><trkpt lat="42.3035983" lon="12.732735"><ele>660.6666666666666</ele><time>2026-04-25T15:20:18.107Z</time></trkpt><trkpt lat="42.303625" lon="12.73288"><ele>662.5</ele><time>2026-04-25T15:20:20.108Z</time></trkpt><trkpt lat="42.303635" lon="12.7329767"><ele>664.3333333333333</ele><time>2026-04-25T15:20:21.107Z</time></trkpt><trkpt lat="42.3036483" lon="12.7330733"><ele>666.1666666666666</ele><time>2026-04-25T15:20:22.108Z</time></trkpt><trkpt lat="42.3036683" lon="12.733155"><ele>668.0</ele><time>2026-04-25T15:20:23.109Z</time></trkpt><trkpt lat="42.3037017" lon="12.733305"><ele>668.0</ele><time>2026-04-25T15:20:25.111Z</time></trkpt><trkpt lat="42.3037267" lon="12.7333833"><ele>668.0</ele><time>2026-04-25T15:20:26.11Z</time></trkpt><trkpt lat="42.3037583" lon="12.73346"><ele>668.0</ele><time>2026-04-25T15:20:27.108Z</time></trkpt><trkpt lat="42.3037817" lon="12.7335417"><ele>668.0</ele><time>2026-04-25T15:20:28.107Z</time></trkpt><trkpt lat="42.303795" lon="12.7336283"><ele>668.0</ele><time>2026-04-25T15:20:29.108Z</time></trkpt><trkpt lat="42.3037967" lon="12.733725"><ele>668.0</ele><time>2026-04-25T15:20:30.108Z</time></trkpt><trkpt lat="42.3037933" lon="12.7338317"><ele>668.0</ele><time>2026-04-25T15:20:31.11Z</time></trkpt><trkpt lat="42.30379" lon="12.7339433"><ele>668.0</ele><time>2026-04-25T15:20:32.11Z</time></trkpt><trkpt lat="42.3037817" lon="12.7340533"><ele>668.0</ele><time>2026-04-25T15:20:33.111Z</time></trkpt><trkpt lat="42.3037767" lon="12.7341517"><ele>668.0</ele><time>2026-04-25T15:20:34.111Z</time></trkpt><trkpt lat="42.3037633" lon="12.73424"><ele>668.0</ele><time>2026-04-25T15:20:35.11Z</time></trkpt><trkpt lat="42.3037333" lon="12.7343283"><ele>668.0</ele><time>2026-04-25T15:20:36.11Z</time></trkpt><trkpt lat="42.3036983" lon="12.7344067"><ele>668.0</ele><time>2026-04-25T15:20:37.109Z</time></trkpt><trkpt lat="42.3036617" lon="12.73448"><ele>668.0</ele><time>2026-04-25T15:20:38.108Z</time></trkpt><trkpt lat="42.3035883" lon="12.7345783"><ele>668.0</ele><time>2026-04-25T15:20:40.111Z</time></trkpt><trkpt lat="42.3035083" lon="12.7346717"><ele>668.0</ele><time>2026-04-25T15:20:42.11Z</time></trkpt><trkpt lat="42.3034583" lon="12.7347267"><ele>668.0</ele><time>2026-04-25T15:20:43.11Z</time></trkpt><trkpt lat="42.303415" lon="12.734795"><ele>668.0</ele><time>2026-04-25T15:20:44.109Z</time></trkpt><trkpt lat="42.3033767" lon="12.7348733"><ele>668.0</ele><time>2026-04-25T15:20:45.109Z</time></trkpt><trkpt lat="42.3033417" lon="12.734955"><ele>668.0</ele><time>2026-04-25T15:20:46.109Z</time></trkpt><trkpt lat="42.3033133" lon="12.7350333"><ele>668.0</ele><time>2026-04-25T15:20:47.11Z</time></trkpt><trkpt lat="42.303285" lon="12.7351117"><ele>668.5</ele><time>2026-04-25T15:20:48.109Z</time></trkpt><trkpt lat="42.3032367" lon="12.735235"><ele>669.0</ele><time>2026-04-25T15:20:50.11Z</time></trkpt><trkpt lat="42.303185" lon="12.735325"><ele>669.5</ele><time>2026-04-25T15:20:53.108Z</time></trkpt><trkpt lat="42.3031017" lon="12.7353367"><ele>670.0</ele><time>2026-04-25T15:21:22.109Z</time></trkpt><trkpt lat="42.3030183" lon="12.7353617"><ele>670.5</ele><time>2026-04-25T15:21:25.11Z</time></trkpt><trkpt lat="42.302955" lon="12.7354183"><ele>671.0</ele><time>2026-04-25T15:21:29.109Z</time></trkpt><trkpt lat="42.3029317" lon="12.73551"><ele>673.1666666666666</ele><time>2026-04-25T15:21:32.109Z</time></trkpt><trkpt lat="42.3029833" lon="12.73562"><ele>675.3333333333333</ele><time>2026-04-25T15:21:54.108Z</time></trkpt><trkpt lat="42.303015" lon="12.73573"><ele>677.5</ele><time>2026-04-25T15:21:57.109Z</time></trkpt><trkpt lat="42.3030633" lon="12.7358183"><ele>679.6666666666666</ele><time>2026-04-25T15:22:01.107Z</time></trkpt><trkpt lat="42.3030567" lon="12.73592"><ele>681.8333333333334</ele><time>2026-04-25T15:22:04.107Z</time></trkpt><trkpt lat="42.3030367" lon="12.7360317"><ele>684.0</ele><time>2026-04-25T15:22:06.108Z</time></trkpt><trkpt lat="42.3029817" lon="12.73612"><ele>684.0</ele><time>2026-04-25T15:22:08.108Z</time></trkpt><trkpt lat="42.3029017" lon="12.7361883"><ele>684.0</ele><time>2026-04-25T15:22:10.108Z</time></trkpt><trkpt lat="42.3028467" lon="12.7362433"><ele>684.0</ele><time>2026-04-25T15:22:11.108Z</time></trkpt><trkpt lat="42.30279" lon="12.7363067"><ele>684.0</ele><time>2026-04-25T15:22:12.108Z</time></trkpt><trkpt lat="42.302745" lon="12.7363683"><ele>684.0</ele><time>2026-04-25T15:22:13.109Z</time></trkpt><trkpt lat="42.302705" lon="12.7364417"><ele>684.0</ele><time>2026-04-25T15:22:15.109Z</time></trkpt><trkpt lat="42.30266" lon="12.736555"><ele>684.0</ele><time>2026-04-25T15:22:20.108Z</time></trkpt><trkpt lat="42.3026067" lon="12.73668"><ele>684.0</ele><time>2026-04-25T15:22:22.109Z</time></trkpt><trkpt lat="42.3025517" lon="12.73682"><ele>684.0</ele><time>2026-04-25T15:22:24.108Z</time></trkpt><trkpt lat="42.3025133" lon="12.7369017"><ele>684.0</ele><time>2026-04-25T15:22:25.108Z</time></trkpt><trkpt lat="42.3024583" lon="12.7369833"><ele>684.0</ele><time>2026-04-25T15:22:26.108Z</time></trkpt><trkpt lat="42.3024117" lon="12.7370733"><ele>684.8000000000001</ele><time>2026-04-25T15:22:27.11Z</time></trkpt><trkpt lat="42.3023783" lon="12.737175"><ele>685.6</ele><time>2026-04-25T15:22:28.108Z</time></trkpt><trkpt lat="42.3023567" lon="12.7372767"><ele>686.4</ele><time>2026-04-25T15:22:29.108Z</time></trkpt><trkpt lat="42.3023033" lon="12.7374017"><ele>687.2</ele><time>2026-04-25T15:22:31.109Z</time></trkpt><trkpt lat="42.3022033" lon="12.7374583"><ele>688.0</ele><time>2026-04-25T15:22:33.109Z</time></trkpt><trkpt lat="42.302085" lon="12.73751"><ele>688.0</ele><time>2026-04-25T15:22:35.108Z</time></trkpt><trkpt lat="42.30197" lon="12.7375167"><ele>688.0</ele><time>2026-04-25T15:22:37.109Z</time></trkpt><trkpt lat="42.3018483" lon="12.7375217"><ele>688.0</ele><time>2026-04-25T15:22:39.109Z</time></trkpt><trkpt lat="42.3017883" lon="12.73755"><ele>688.0</ele><time>2026-04-25T15:22:40.109Z</time></trkpt><trkpt lat="42.3016883" lon="12.7376367"><ele>688.0</ele><time>2026-04-25T15:22:42.109Z</time></trkpt><trkpt lat="42.3016017" lon="12.737745"><ele>689.3333333333334</ele><time>2026-04-25T15:22:44.108Z</time></trkpt><trkpt lat="42.3014983" lon="12.7378217"><ele>690.6666666666667</ele><time>2026-04-25T15:22:46.108Z</time></trkpt><trkpt lat="42.3014317" lon="12.73785"><ele>692.0</ele><time>2026-04-25T15:22:47.109Z</time></trkpt><trkpt lat="42.3013633" lon="12.73788"><ele>693.3333333333334</ele><time>2026-04-25T15:22:48.109Z</time></trkpt><trkpt lat="42.3013" lon="12.7379267"><ele>694.6666666666666</ele><time>2026-04-25T15:22:49.11Z</time></trkpt><trkpt lat="42.3012117" lon="12.7379983"><ele>696.0</ele><time>2026-04-25T15:22:51.11Z</time></trkpt><trkpt lat="42.3011017" lon="12.737985"><ele>696.0</ele><time>2026-04-25T15:22:53.109Z</time></trkpt><trkpt lat="42.3009733" lon="12.7379533"><ele>696.0</ele><time>2026-04-25T15:22:55.108Z</time></trkpt><trkpt lat="42.3008483" lon="12.7379333"><ele>696.0</ele><time>2026-04-25T15:22:57.108Z</time></trkpt><trkpt lat="42.30078" lon="12.7379033"><ele>696.0</ele><time>2026-04-25T15:22:58.108Z</time></trkpt><trkpt lat="42.3007133" lon="12.7378683"><ele>696.0</ele><time>2026-04-25T15:22:59.109Z</time></trkpt><trkpt lat="42.3006083" lon="12.7378217"><ele>697.5</ele><time>2026-04-25T15:23:01.107Z</time></trkpt><trkpt lat="42.3005383" lon="12.737785"><ele>699.0</ele><time>2026-04-25T15:23:03.109Z</time></trkpt><trkpt lat="42.3004667" lon="12.73772"><ele>700.5</ele><time>2026-04-25T15:23:05.11Z</time></trkpt><trkpt lat="42.3003983" lon="12.7376533"><ele>702.0</ele><time>2026-04-25T15:23:07.107Z</time></trkpt><trkpt lat="42.3003483" lon="12.7375733"><ele>703.5</ele><time>2026-04-25T15:23:09.107Z</time></trkpt><trkpt lat="42.3002533" lon="12.7374817"><ele>705.0</ele><time>2026-04-25T15:23:11.107Z</time></trkpt><trkpt lat="42.3001917" lon="12.7374417"><ele>705.0</ele><time>2026-04-25T15:23:12.108Z</time></trkpt><trkpt lat="42.3000867" lon="12.737405"><ele>705.0</ele><time>2026-04-25T15:23:14.109Z</time></trkpt><trkpt lat="42.2999683" lon="12.7374033"><ele>705.0</ele><time>2026-04-25T15:23:16.108Z</time></trkpt><trkpt lat="42.2998683" lon="12.7374217"><ele>705.0</ele><time>2026-04-25T15:23:18.108Z</time></trkpt><trkpt lat="42.2997767" lon="12.7374317"><ele>705.0</ele><time>2026-04-25T15:23:20.109Z</time></trkpt><trkpt lat="42.2997217" lon="12.737485"><ele>705.5</ele><time>2026-04-25T15:23:23.107Z</time></trkpt><trkpt lat="42.2996467" lon="12.7374767"><ele>706.0</ele><time>2026-04-25T15:23:30.107Z</time></trkpt><trkpt lat="42.2995517" lon="12.7374467"><ele>706.5</ele><time>2026-04-25T15:23:32.106Z</time></trkpt><trkpt lat="42.299475" lon="12.7373933"><ele>707.0</ele><time>2026-04-25T15:23:34.106Z</time></trkpt><trkpt lat="42.2994983" lon="12.73748"><ele>707.5</ele><time>2026-04-25T15:24:03.107Z</time></trkpt><trkpt lat="42.299555" lon="12.73752"><ele>708.0</ele><time>2026-04-25T15:24:08.108Z</time></trkpt><trkpt lat="42.2996167" lon="12.7375517"><ele>708.0</ele><time>2026-04-25T15:24:14.107Z</time></trkpt><trkpt lat="42.299685" lon="12.7375333"><ele>708.0</ele><time>2026-04-25T15:24:20.107Z</time></trkpt><trkpt lat="42.2996033" lon="12.73752"><ele>708.0</ele><time>2026-04-25T15:27:06.106Z</time></trkpt><trkpt lat="42.2995083" lon="12.7374733"><ele>708.0</ele><time>2026-04-25T15:32:47.108Z</time></trkpt><trkpt lat="42.2994117" lon="12.7374467"><ele>708.0</ele><time>2026-04-25T15:33:18.107Z</time></trkpt><trkpt lat="42.2993233" lon="12.737465"><ele>708.0</ele><time>2026-04-25T15:33:20.108Z</time></trkpt><trkpt lat="42.29923" lon="12.737465"><ele>708.0</ele><time>2026-04-25T15:33:22.106Z</time></trkpt><trkpt lat="42.2991483" lon="12.7374333"><ele>708.0</ele><time>2026-04-25T15:33:24.108Z</time></trkpt><trkpt lat="42.2990517" lon="12.73737"><ele>708.0</ele><time>2026-04-25T15:33:26.108Z</time></trkpt><trkpt lat="42.29893" lon="12.7373767"><ele>708.0</ele><time>2026-04-25T15:33:28.107Z</time></trkpt><trkpt lat="42.298865" lon="12.73741"><ele>708.0</ele><time>2026-04-25T15:33:29.108Z</time></trkpt><trkpt lat="42.2988083" lon="12.73745"><ele>708.0</ele><time>2026-04-25T15:33:30.108Z</time></trkpt><trkpt lat="42.298715" lon="12.7374967"><ele>708.5999999999999</ele><time>2026-04-25T15:33:32.109Z</time></trkpt><trkpt lat="42.29862" lon="12.7375533"><ele>709.1999999999999</ele><time>2026-04-25T15:33:42.109Z</time></trkpt><trkpt lat="42.29853" lon="12.73757"><ele>709.8</ele><time>2026-04-25T15:33:44.109Z</time></trkpt><trkpt lat="42.2984483" lon="12.7375567"><ele>710.4</ele><time>2026-04-25T15:33:46.108Z</time></trkpt><trkpt lat="42.2983517" lon="12.737545"><ele>711.0</ele><time>2026-04-25T15:33:48.108Z</time></trkpt><trkpt lat="42.2982367" lon="12.7375567"><ele>711.0</ele><time>2026-04-25T15:33:50.108Z</time></trkpt><trkpt lat="42.2981633" lon="12.7375717"><ele>711.0</ele><time>2026-04-25T15:33:51.109Z</time></trkpt><trkpt lat="42.2980917" lon="12.73759"><ele>711.0</ele><time>2026-04-25T15:33:52.108Z</time></trkpt><trkpt lat="42.2980217" lon="12.7375983"><ele>711.0</ele><time>2026-04-25T15:33:53.108Z</time></trkpt><trkpt lat="42.2979133" lon="12.73763"><ele>711.0</ele><time>2026-04-25T15:33:55.109Z</time></trkpt><trkpt lat="42.2978517" lon="12.73765"><ele>711.0</ele><time>2026-04-25T15:33:56.108Z</time></trkpt><trkpt lat="42.2977817" lon="12.7376733"><ele>712.1999999999999</ele><time>2026-04-25T15:33:57.109Z</time></trkpt><trkpt lat="42.2976967" lon="12.7376933"><ele>713.4</ele><time>2026-04-25T15:33:58.107Z</time></trkpt><trkpt lat="42.2976" lon="12.7376967"><ele>714.6</ele><time>2026-04-25T15:33:59.109Z</time></trkpt><trkpt lat="42.2975083" lon="12.7376917"><ele>715.8</ele><time>2026-04-25T15:34:00.11Z</time></trkpt><trkpt lat="42.2974167" lon="12.7376733"><ele>717.0</ele><time>2026-04-25T15:34:01.111Z</time></trkpt><trkpt lat="42.2973167" lon="12.7376467"><ele>717.8333333333334</ele><time>2026-04-25T15:34:02.107Z</time></trkpt><trkpt lat="42.2972283" lon="12.7376117"><ele>718.6666666666666</ele><time>2026-04-25T15:34:03.11Z</time></trkpt><trkpt lat="42.2971483" lon="12.73759"><ele>719.5</ele><time>2026-04-25T15:34:04.11Z</time></trkpt><trkpt lat="42.2970683" lon="12.73757"><ele>720.3333333333333</ele><time>2026-04-25T15:34:05.111Z</time></trkpt><trkpt lat="42.29698" lon="12.7375583"><ele>721.1666666666666</ele><time>2026-04-25T15:34:06.11Z</time></trkpt><trkpt lat="42.296885" lon="12.7375283"><ele>722.0</ele><time>2026-04-25T15:34:07.109Z</time></trkpt><trkpt lat="42.2968033" lon="12.7375117"><ele>722.0</ele><time>2026-04-25T15:34:08.11Z</time></trkpt><trkpt lat="42.2967333" lon="12.7374817"><ele>722.0</ele><time>2026-04-25T15:34:09.11Z</time></trkpt><trkpt lat="42.2966667" lon="12.7374483"><ele>722.0</ele><time>2026-04-25T15:34:10.112Z</time></trkpt><trkpt lat="42.2965833" lon="12.7373933"><ele>722.0</ele><time>2026-04-25T15:34:11.11Z</time></trkpt><trkpt lat="42.2965083" lon="12.7373417"><ele>722.0</ele><time>2026-04-25T15:34:12.108Z</time></trkpt><trkpt lat="42.2964417" lon="12.737305"><ele>722.0</ele><time>2026-04-25T15:34:13.106Z</time></trkpt><trkpt lat="42.29636" lon="12.7372783"><ele>721.8571428571429</ele><time>2026-04-25T15:34:15.109Z</time></trkpt><trkpt lat="42.2963117" lon="12.737345"><ele>721.7142857142857</ele><time>2026-04-25T15:34:18.109Z</time></trkpt><trkpt lat="42.2962117" lon="12.73735"><ele>721.5714285714286</ele><time>2026-04-25T15:34:20.108Z</time></trkpt><trkpt lat="42.296145" lon="12.7373483"><ele>721.4285714285714</ele><time>2026-04-25T15:34:21.109Z</time></trkpt><trkpt lat="42.2960667" lon="12.73734"><ele>721.2857142857142</ele><time>2026-04-25T15:34:22.108Z</time></trkpt><trkpt lat="42.296" lon="12.7373317"><ele>721.1428571428571</ele><time>2026-04-25T15:34:23.109Z</time></trkpt><trkpt lat="42.2959333" lon="12.7373183"><ele>721.0</ele><time>2026-04-25T15:34:24.109Z</time></trkpt><trkpt lat="42.2958617" lon="12.73729"><ele>721.0</ele><time>2026-04-25T15:34:25.11Z</time></trkpt><trkpt lat="42.2957867" lon="12.7372417"><ele>721.0</ele><time>2026-04-25T15:34:27.11Z</time></trkpt><trkpt lat="42.2957433" lon="12.73717"><ele>721.0</ele><time>2026-04-25T15:34:50.107Z</time></trkpt><trkpt lat="42.2956767" lon="12.73718"><ele>721.0</ele><time>2026-04-25T15:34:52.107Z</time></trkpt><trkpt lat="42.295565" lon="12.7371983"><ele>721.0</ele><time>2026-04-25T15:34:54.108Z</time></trkpt><trkpt lat="42.2955017" lon="12.7372017"><ele>721.0</ele><time>2026-04-25T15:34:55.11Z</time></trkpt><trkpt lat="42.2954" lon="12.737225"><ele>720.8</ele><time>2026-04-25T15:34:57.108Z</time></trkpt><trkpt lat="42.29531" lon="12.7372883"><ele>720.5999999999999</ele><time>2026-04-25T15:34:59.11Z</time></trkpt><trkpt lat="42.2952183" lon="12.737385"><ele>720.4</ele><time>2026-04-25T15:35:01.107Z</time></trkpt><trkpt lat="42.2951633" lon="12.737445"><ele>720.2</ele><time>2026-04-25T15:35:03.107Z</time></trkpt><trkpt lat="42.2950883" lon="12.7375233"><ele>720.0</ele><time>2026-04-25T15:35:45.11Z</time></trkpt><trkpt lat="42.2950367" lon="12.737605"><ele>720.0</ele><time>2026-04-25T15:35:47.108Z</time></trkpt><trkpt lat="42.2949567" lon="12.7376533"><ele>720.0</ele><time>2026-04-25T15:35:49.109Z</time></trkpt><trkpt lat="42.2948667" lon="12.7376617"><ele>720.0</ele><time>2026-04-25T15:35:51.108Z</time></trkpt><trkpt lat="42.294785" lon="12.7376617"><ele>720.0</ele><time>2026-04-25T15:36:01.108Z</time></trkpt><trkpt lat="42.2947183" lon="12.7376833"><ele>720.0</ele><time>2026-04-25T15:36:02.106Z</time></trkpt><trkpt lat="42.2946517" lon="12.7377017"><ele>720.0</ele><time>2026-04-25T15:36:03.106Z</time></trkpt><trkpt lat="42.2945883" lon="12.7377217"><ele>723.8</ele><time>2026-04-25T15:36:04.107Z</time></trkpt><trkpt lat="42.2945233" lon="12.7377333"><ele>727.6</ele><time>2026-04-25T15:36:05.111Z</time></trkpt><trkpt lat="42.2944133" lon="12.7377683"><ele>731.4000000000001</ele><time>2026-04-25T15:36:07.11Z</time></trkpt><trkpt lat="42.2943083" lon="12.737785"><ele>735.2</ele><time>2026-04-25T15:36:09.109Z</time></trkpt><trkpt lat="42.2942017" lon="12.7378133"><ele>739.0</ele><time>2026-04-25T15:36:11.109Z</time></trkpt><trkpt lat="42.29412" lon="12.7379133"><ele>739.0</ele><time>2026-04-25T15:36:13.109Z</time></trkpt><trkpt lat="42.2940383" lon="12.7380017"><ele>739.0</ele><time>2026-04-25T15:36:15.11Z</time></trkpt><trkpt lat="42.2939533" lon="12.73808"><ele>739.0</ele><time>2026-04-25T15:36:17.107Z</time></trkpt><trkpt lat="42.2938733" lon="12.738145"><ele>739.0</ele><time>2026-04-25T15:36:19.11Z</time></trkpt><trkpt lat="42.2937983" lon="12.7382067"><ele>739.0</ele><time>2026-04-25T15:36:21.109Z</time></trkpt><trkpt lat="42.2937333" lon="12.738245"><ele>739.5</ele><time>2026-04-25T15:36:23.106Z</time></trkpt><trkpt lat="42.2936717" lon="12.7382767"><ele>740.0</ele><time>2026-04-25T15:36:31.107Z</time></trkpt><trkpt lat="42.293605" lon="12.7383767"><ele>740.5</ele><time>2026-04-25T15:36:33.108Z</time></trkpt><trkpt lat="42.2935133" lon="12.7384717"><ele>741.0</ele><time>2026-04-25T15:36:35.109Z</time></trkpt><trkpt lat="42.2934467" lon="12.7385483"><ele>741.5</ele><time>2026-04-25T15:36:37.109Z</time></trkpt><trkpt lat="42.2934133" lon="12.7386467"><ele>742.0</ele><time>2026-04-25T15:36:39.107Z</time></trkpt><trkpt lat="42.2933917" lon="12.7387733"><ele>743.4000000000001</ele><time>2026-04-25T15:36:41.107Z</time></trkpt><trkpt lat="42.2933367" lon="12.7388917"><ele>744.8000000000001</ele><time>2026-04-25T15:36:43.108Z</time></trkpt><trkpt lat="42.29327" lon="12.7390383"><ele>746.2</ele><time>2026-04-25T15:36:45.109Z</time></trkpt><trkpt lat="42.2932417" lon="12.739115"><ele>747.6</ele><time>2026-04-25T15:36:46.109Z</time></trkpt><trkpt lat="42.2931867" lon="12.7392183"><ele>749.0</ele><time>2026-04-25T15:36:48.108Z</time></trkpt><trkpt lat="42.2931167" lon="12.73933"><ele>750.1666666666666</ele><time>2026-04-25T15:36:56.107Z</time></trkpt><trkpt lat="42.293065" lon="12.73941"><ele>751.3333333333333</ele><time>2026-04-25T15:37:00.108Z</time></trkpt><trkpt lat="42.2930817" lon="12.7395133"><ele>752.5</ele><time>2026-04-25T15:37:02.108Z</time></trkpt><trkpt lat="42.29311" lon="12.73962"><ele>753.6666666666666</ele><time>2026-04-25T15:37:04.106Z</time></trkpt><trkpt lat="42.29312" lon="12.73971"><ele>754.8333333333334</ele><time>2026-04-25T15:37:06.109Z</time></trkpt><trkpt lat="42.2930033" lon="12.7396817"><ele>756.0</ele><time>2026-04-25T15:37:29.108Z</time></trkpt><trkpt lat="42.29292" lon="12.739625"><ele>755.0</ele><time>2026-04-25T15:37:30.109Z</time></trkpt><trkpt lat="42.2928133" lon="12.73956"><ele>754.0</ele><time>2026-04-25T15:37:31.108Z</time></trkpt><trkpt lat="42.2927067" lon="12.7394983"><ele>753.0</ele><time>2026-04-25T15:37:32.107Z</time></trkpt><trkpt lat="42.292615" lon="12.73945"><ele>752.0</ele><time>2026-04-25T15:37:33.107Z</time></trkpt><trkpt lat="42.292525" lon="12.739385"><ele>751.0</ele><time>2026-04-25T15:37:34.108Z</time></trkpt><trkpt lat="42.2924483" lon="12.7393233"><ele>751.0</ele><time>2026-04-25T15:37:35.109Z</time></trkpt><trkpt lat="42.292375" lon="12.73924"><ele>751.0</ele><time>2026-04-25T15:37:36.11Z</time></trkpt><trkpt lat="42.29231" lon="12.73915"><ele>751.0</ele><time>2026-04-25T15:37:37.107Z</time></trkpt><trkpt lat="42.29225" lon="12.739065"><ele>751.0</ele><time>2026-04-25T15:37:38.109Z</time></trkpt><trkpt lat="42.2921867" lon="12.7389867"><ele>751.0</ele><time>2026-04-25T15:37:39.111Z</time></trkpt><trkpt lat="42.2921267" lon="12.7389117"><ele>751.0</ele><time>2026-04-25T15:37:40.109Z</time></trkpt><trkpt lat="42.2920733" lon="12.73884"><ele>752.6666666666667</ele><time>2026-04-25T15:37:41.108Z</time></trkpt><trkpt lat="42.292025" lon="12.738785"><ele>754.3333333333334</ele><time>2026-04-25T15:37:42.108Z</time></trkpt><trkpt lat="42.29191" lon="12.7387033"><ele>756.0</ele><time>2026-04-25T15:37:44.107Z</time></trkpt><trkpt lat="42.2918383" lon="12.7386833"><ele>757.6666666666666</ele><time>2026-04-25T15:37:45.108Z</time></trkpt><trkpt lat="42.2917717" lon="12.7386717"><ele>759.3333333333333</ele><time>2026-04-25T15:37:46.107Z</time></trkpt><trkpt lat="42.2917033" lon="12.73866"><ele>761.0</ele><time>2026-04-25T15:37:47.108Z</time></trkpt><trkpt lat="42.29164" lon="12.7386383"><ele>761.0</ele><time>2026-04-25T15:37:48.11Z</time></trkpt><trkpt lat="42.2915367" lon="12.73856"><ele>761.0</ele><time>2026-04-25T15:37:50.108Z</time></trkpt><trkpt lat="42.2914433" lon="12.7384467"><ele>761.0</ele><time>2026-04-25T15:37:52.11Z</time></trkpt><trkpt lat="42.2913883" lon="12.7383867"><ele>761.0</ele><time>2026-04-25T15:37:53.11Z</time></trkpt><trkpt lat="42.2913317" lon="12.73833"><ele>761.0</ele><time>2026-04-25T15:37:54.109Z</time></trkpt><trkpt lat="42.291275" lon="12.7382717"><ele>758.5</ele><time>2026-04-25T15:37:55.108Z</time></trkpt><trkpt lat="42.2912267" lon="12.7382083"><ele>756.0</ele><time>2026-04-25T15:37:56.108Z</time></trkpt><trkpt lat="42.2911583" lon="12.7380717"><ele>753.5</ele><time>2026-04-25T15:37:58.108Z</time></trkpt><trkpt lat="42.2911433" lon="12.7379817"><ele>751.0</ele><time>2026-04-25T15:37:59.108Z</time></trkpt><trkpt lat="42.291125" lon="12.73788"><ele>748.5</ele><time>2026-04-25T15:38:00.108Z</time></trkpt><trkpt lat="42.2911017" lon="12.7377867"><ele>746.0</ele><time>2026-04-25T15:38:01.108Z</time></trkpt><trkpt lat="42.291075" lon="12.7377"><ele>744.4</ele><time>2026-04-25T15:38:02.108Z</time></trkpt><trkpt lat="42.291015" lon="12.7375533"><ele>742.8</ele><time>2026-04-25T15:38:04.106Z</time></trkpt><trkpt lat="42.29095" lon="12.7374367"><ele>741.1999999999999</ele><time>2026-04-25T15:38:06.108Z</time></trkpt><trkpt lat="42.2909017" lon="12.7373383"><ele>739.5999999999999</ele><time>2026-04-25T15:38:08.108Z</time></trkpt><trkpt lat="42.2908733" lon="12.73723"><ele>738.0</ele><time>2026-04-25T15:38:10.108Z</time></trkpt><trkpt lat="42.2908483" lon="12.7370983"><ele>738.0</ele><time>2026-04-25T15:38:12.108Z</time></trkpt><trkpt lat="42.2907933" lon="12.7369583"><ele>738.0</ele><time>2026-04-25T15:38:14.107Z</time></trkpt><trkpt lat="42.2907667" lon="12.7368683"><ele>738.0</ele><time>2026-04-25T15:38:15.105Z</time></trkpt><trkpt lat="42.290745" lon="12.736765"><ele>738.0</ele><time>2026-04-25T15:38:16.107Z</time></trkpt><trkpt lat="42.2907367" lon="12.7366333"><ele>738.0</ele><time>2026-04-25T15:38:17.106Z</time></trkpt><trkpt lat="42.2907283" lon="12.7365"><ele>738.8333333333334</ele><time>2026-04-25T15:38:18.106Z</time></trkpt><trkpt lat="42.290715" lon="12.7363717"><ele>739.6666666666666</ele><time>2026-04-25T15:38:19.107Z</time></trkpt><trkpt lat="42.2907017" lon="12.7362483"><ele>740.5</ele><time>2026-04-25T15:38:20.108Z</time></trkpt><trkpt lat="42.29068" lon="12.7361233"><ele>741.3333333333333</ele><time>2026-04-25T15:38:21.109Z</time></trkpt><trkpt lat="42.2906617" lon="12.7360083"><ele>742.1666666666666</ele><time>2026-04-25T15:38:22.107Z</time></trkpt><trkpt lat="42.2906583" lon="12.7359083"><ele>743.0</ele><time>2026-04-25T15:38:23.108Z</time></trkpt><trkpt lat="42.2906717" lon="12.7358083"><ele>745.5</ele><time>2026-04-25T15:38:24.106Z</time></trkpt><trkpt lat="42.2906967" lon="12.7356967"><ele>748.0</ele><time>2026-04-25T15:38:25.107Z</time></trkpt><trkpt lat="42.290725" lon="12.7355867"><ele>750.5</ele><time>2026-04-25T15:38:26.107Z</time></trkpt><trkpt lat="42.2907467" lon="12.735485"><ele>753.0</ele><time>2026-04-25T15:38:27.108Z</time></trkpt><trkpt lat="42.2907567" lon="12.73536"><ele>755.5</ele><time>2026-04-25T15:38:29.108Z</time></trkpt><trkpt lat="42.2906967" lon="12.7353267"><ele>758.0</ele><time>2026-04-25T15:38:35.107Z</time></trkpt><trkpt lat="42.2906483" lon="12.73523"><ele>761.0</ele><time>2026-04-25T15:38:37.11Z</time></trkpt><trkpt lat="42.290575" lon="12.7350883"><ele>764.0</ele><time>2026-04-25T15:38:39.111Z</time></trkpt><trkpt lat="42.2905267" lon="12.7350317"><ele>767.0</ele><time>2026-04-25T15:38:40.11Z</time></trkpt><trkpt lat="42.2904217" lon="12.7349617"><ele>770.0</ele><time>2026-04-25T15:38:42.11Z</time></trkpt><trkpt lat="42.2903133" lon="12.7349883"><ele>773.0</ele><time>2026-04-25T15:38:44.108Z</time></trkpt><trkpt lat="42.290215" lon="12.7350317"><ele>773.0</ele><time>2026-04-25T15:38:51.109Z</time></trkpt><trkpt lat="42.290105" lon="12.735025"><ele>773.0</ele><time>2026-04-25T15:38:53.109Z</time></trkpt><trkpt lat="42.2899383" lon="12.735045"><ele>773.0</ele><time>2026-04-25T15:38:55.109Z</time></trkpt><trkpt lat="42.2898133" lon="12.7350533"><ele>773.0</ele><time>2026-04-25T15:38:56.109Z</time></trkpt><trkpt lat="42.2896917" lon="12.73506"><ele>772.5999999999999</ele><time>2026-04-25T15:38:57.111Z</time></trkpt><trkpt lat="42.2895767" lon="12.73506"><ele>772.1999999999999</ele><time>2026-04-25T15:38:58.109Z</time></trkpt><trkpt lat="42.2894717" lon="12.73505"><ele>771.8</ele><time>2026-04-25T15:38:59.109Z</time></trkpt><trkpt lat="42.2893683" lon="12.7350317"><ele>771.4</ele><time>2026-04-25T15:39:00.11Z</time></trkpt><trkpt lat="42.2892733" lon="12.7349967"><ele>771.0</ele><time>2026-04-25T15:39:01.111Z</time></trkpt><trkpt lat="42.2891783" lon="12.734945"><ele>771.0</ele><time>2026-04-25T15:39:02.11Z</time></trkpt><trkpt lat="42.2890883" lon="12.7348867"><ele>771.0</ele><time>2026-04-25T15:39:03.11Z</time></trkpt><trkpt lat="42.2889933" lon="12.734825"><ele>771.0</ele><time>2026-04-25T15:39:04.109Z</time></trkpt><trkpt lat="42.2889067" lon="12.7347617"><ele>771.0</ele><time>2026-04-25T15:39:05.108Z</time></trkpt><trkpt lat="42.2888167" lon="12.7346933"><ele>771.0</ele><time>2026-04-25T15:39:06.109Z</time></trkpt><trkpt lat="42.2887367" lon="12.7346233"><ele>769.3333333333334</ele><time>2026-04-25T15:39:07.109Z</time></trkpt><trkpt lat="42.2886633" lon="12.734545"><ele>767.6666666666666</ele><time>2026-04-25T15:39:08.109Z</time></trkpt><trkpt lat="42.2885933" lon="12.7344767"><ele>766.0</ele><time>2026-04-25T15:39:09.112Z</time></trkpt><trkpt lat="42.2885217" lon="12.734425"><ele>764.3333333333333</ele><time>2026-04-25T15:39:10.11Z</time></trkpt><trkpt lat="42.2884483" lon="12.7343817"><ele>762.6666666666666</ele><time>2026-04-25T15:39:11.11Z</time></trkpt><trkpt lat="42.2883683" lon="12.7343533"><ele>761.0</ele><time>2026-04-25T15:39:12.11Z</time></trkpt><trkpt lat="42.2882833" lon="12.734345"><ele>764.0</ele><time>2026-04-25T15:39:13.111Z</time></trkpt><trkpt lat="42.288195" lon="12.7343417"><ele>767.0</ele><time>2026-04-25T15:39:14.109Z</time></trkpt><trkpt lat="42.2881067" lon="12.7343483"><ele>770.0</ele><time>2026-04-25T15:39:15.109Z</time></trkpt><trkpt lat="42.2880267" lon="12.7343417"><ele>773.0</ele><time>2026-04-25T15:39:16.109Z</time></trkpt><trkpt lat="42.287945" lon="12.7343333"><ele>776.0000000000001</ele><time>2026-04-25T15:39:17.107Z</time></trkpt><trkpt lat="42.28786" lon="12.734325"><ele>779.0</ele><time>2026-04-25T15:39:18.109Z</time></trkpt><trkpt lat="42.2877783" lon="12.734315"><ele>779.0000000000001</ele><time>2026-04-25T15:39:19.111Z</time></trkpt><trkpt lat="42.28769" lon="12.7342933"><ele>779.0</ele><time>2026-04-25T15:39:20.11Z</time></trkpt><trkpt lat="42.2876017" lon="12.7342667"><ele>779.0</ele><time>2026-04-25T15:39:21.109Z</time></trkpt><trkpt lat="42.2875383" lon="12.7342483"><ele>779.0</ele><time>2026-04-25T15:39:22.11Z</time></trkpt><trkpt lat="42.287465" lon="12.73422"><ele>779.0000000000001</ele><time>2026-04-25T15:39:23.109Z</time></trkpt><trkpt lat="42.2874033" lon="12.7341917"><ele>779.0</ele><time>2026-04-25T15:39:24.109Z</time></trkpt><trkpt lat="42.2872983" lon="12.7341333"><ele>777.4000000000001</ele><time>2026-04-25T15:39:26.11Z</time></trkpt><trkpt lat="42.2872167" lon="12.7340467"><ele>775.8</ele><time>2026-04-25T15:39:28.109Z</time></trkpt><trkpt lat="42.2871567" lon="12.733935"><ele>774.2</ele><time>2026-04-25T15:39:30.111Z</time></trkpt><trkpt lat="42.287085" lon="12.7338067"><ele>772.5999999999999</ele><time>2026-04-25T15:39:32.109Z</time></trkpt><trkpt lat="42.287045" lon="12.7336783"><ele>771.0</ele><time>2026-04-25T15:39:34.11Z</time></trkpt><trkpt lat="42.2870333" lon="12.7335183"><ele>771.0</ele><time>2026-04-25T15:39:36.109Z</time></trkpt><trkpt lat="42.2869917" lon="12.73336"><ele>771.0</ele><time>2026-04-25T15:39:38.11Z</time></trkpt><trkpt lat="42.28695" lon="12.73328"><ele>771.0</ele><time>2026-04-25T15:39:39.109Z</time></trkpt><trkpt lat="42.28691" lon="12.73318"><ele>771.0</ele><time>2026-04-25T15:39:40.109Z</time></trkpt><trkpt lat="42.2868717" lon="12.7330817"><ele>771.0</ele><time>2026-04-25T15:39:41.109Z</time></trkpt><trkpt lat="42.2868433" lon="12.732975"><ele>771.0</ele><time>2026-04-25T15:39:42.109Z</time></trkpt><trkpt lat="42.2868183" lon="12.7328483"><ele>771.0</ele><time>2026-04-25T15:39:43.111Z</time></trkpt><trkpt lat="42.2867917" lon="12.732725"><ele>771.0</ele><time>2026-04-25T15:39:44.11Z</time></trkpt><trkpt lat="42.2867667" lon="12.7325933"><ele>771.0</ele><time>2026-04-25T15:39:45.109Z</time></trkpt><trkpt lat="42.2867433" lon="12.7324733"><ele>771.0</ele><time>2026-04-25T15:39:46.109Z</time></trkpt><trkpt lat="42.286715" lon="12.7323683"><ele>771.0</ele><time>2026-04-25T15:39:47.109Z</time></trkpt><trkpt lat="42.2866883" lon="12.7322667"><ele>773.0</ele><time>2026-04-25T15:39:48.109Z</time></trkpt><trkpt lat="42.2866583" lon="12.7321767"><ele>775.0</ele><time>2026-04-25T15:39:49.109Z</time></trkpt><trkpt lat="42.2865667" lon="12.7320833"><ele>777.0</ele><time>2026-04-25T15:39:51.111Z</time></trkpt><trkpt lat="42.2864633" lon="12.7320633"><ele>779.0</ele><time>2026-04-25T15:39:53.108Z</time></trkpt><trkpt lat="42.2863933" lon="12.7320783"><ele>781.0</ele><time>2026-04-25T15:39:54.108Z</time></trkpt><trkpt lat="42.2863167" lon="12.7320783"><ele>783.0</ele><time>2026-04-25T15:39:55.109Z</time></trkpt><trkpt lat="42.286245" lon="12.7320783"><ele>783.0</ele><time>2026-04-25T15:39:56.109Z</time></trkpt><trkpt lat="42.2861767" lon="12.7320583"><ele>783.0</ele><time>2026-04-25T15:39:57.109Z</time></trkpt><trkpt lat="42.2861067" lon="12.73203"><ele>783.0</ele><time>2026-04-25T15:39:58.11Z</time></trkpt><trkpt lat="42.286045" lon="12.732"><ele>783.0</ele><time>2026-04-25T15:39:59.11Z</time></trkpt><trkpt lat="42.2859783" lon="12.73198"><ele>783.0</ele><time>2026-04-25T15:40:00.11Z</time></trkpt><trkpt lat="42.28588" lon="12.7319567"><ele>783.0</ele><time>2026-04-25T15:40:02.109Z</time></trkpt><trkpt lat="42.2857617" lon="12.7319033"><ele>783.5</ele><time>2026-04-25T15:40:04.11Z</time></trkpt><trkpt lat="42.2857" lon="12.73186"><ele>784.0</ele><time>2026-04-25T15:40:05.108Z</time></trkpt><trkpt lat="42.2856417" lon="12.731815"><ele>784.5</ele><time>2026-04-25T15:40:06.108Z</time></trkpt><trkpt lat="42.2855667" lon="12.7317367"><ele>785.0</ele><time>2026-04-25T15:40:08.11Z</time></trkpt><trkpt lat="42.2855017" lon="12.7316767"><ele>785.5</ele><time>2026-04-25T15:40:11.107Z</time></trkpt><trkpt lat="42.2854317" lon="12.7316917"><ele>786.0</ele><time>2026-04-25T15:40:13.107Z</time></trkpt><trkpt lat="42.285305" lon="12.7317833"><ele>786.1666666666666</ele><time>2026-04-25T15:40:15.107Z</time></trkpt><trkpt lat="42.2852283" lon="12.73184"><ele>786.3333333333333</ele><time>2026-04-25T15:40:16.107Z</time></trkpt><trkpt lat="42.2851483" lon="12.7319"><ele>786.5</ele><time>2026-04-25T15:40:17.108Z</time></trkpt><trkpt lat="42.2850783" lon="12.731965"><ele>786.6666666666666</ele><time>2026-04-25T15:40:18.107Z</time></trkpt><trkpt lat="42.2850217" lon="12.73203"><ele>786.8333333333333</ele><time>2026-04-25T15:40:19.109Z</time></trkpt><trkpt lat="42.2849733" lon="12.7320967"><ele>787.0</ele><time>2026-04-25T15:40:20.109Z</time></trkpt><trkpt lat="42.2849283" lon="12.732165"><ele>787.0</ele><time>2026-04-25T15:40:21.11Z</time></trkpt><trkpt lat="42.2848417" lon="12.7322667"><ele>787.0</ele><time>2026-04-25T15:40:23.109Z</time></trkpt><trkpt lat="42.2847417" lon="12.732325"><ele>787.0</ele><time>2026-04-25T15:40:25.111Z</time></trkpt><trkpt lat="42.2846167" lon="12.7323383"><ele>787.0</ele><time>2026-04-25T15:40:27.111Z</time></trkpt><trkpt lat="42.2845467" lon="12.732365"><ele>787.0</ele><time>2026-04-25T15:40:28.108Z</time></trkpt><trkpt lat="42.2844767" lon="12.7324083"><ele>786.6666666666666</ele><time>2026-04-25T15:40:29.11Z</time></trkpt><trkpt lat="42.2844083" lon="12.7324633"><ele>786.3333333333333</ele><time>2026-04-25T15:40:30.109Z</time></trkpt><trkpt lat="42.2843483" lon="12.73252"><ele>786.0</ele><time>2026-04-25T15:40:31.11Z</time></trkpt><trkpt lat="42.284275" lon="12.73261"><ele>785.6666666666667</ele><time>2026-04-25T15:40:33.109Z</time></trkpt><trkpt lat="42.28422" lon="12.73267"><ele>785.3333333333334</ele><time>2026-04-25T15:40:35.109Z</time></trkpt><trkpt lat="42.28416" lon="12.732705"><ele>785.0</ele><time>2026-04-25T15:40:37.109Z</time></trkpt><trkpt lat="42.2840733" lon="12.7327"><ele>785.0</ele><time>2026-04-25T15:40:40.107Z</time></trkpt><trkpt lat="42.2840017" lon="12.7327133"><ele>785.0</ele><time>2026-04-25T15:40:42.108Z</time></trkpt><trkpt lat="42.2839033" lon="12.7328083"><ele>785.0</ele><time>2026-04-25T15:40:44.109Z</time></trkpt><trkpt lat="42.2838033" lon="12.7328867"><ele>785.0</ele><time>2026-04-25T15:40:46.109Z</time></trkpt><trkpt lat="42.2837067" lon="12.7329217"><ele>785.0</ele><time>2026-04-25T15:40:48.11Z</time></trkpt><trkpt lat="42.28359" lon="12.7329633"><ele>784.0</ele><time>2026-04-25T15:40:50.109Z</time></trkpt><trkpt lat="42.283475" lon="12.733005"><ele>783.0</ele><time>2026-04-25T15:40:52.109Z</time></trkpt><trkpt lat="42.2833617" lon="12.73302"><ele>782.0</ele><time>2026-04-25T15:40:54.108Z</time></trkpt><trkpt lat="42.2832583" lon="12.733005"><ele>781.0</ele><time>2026-04-25T15:40:56.109Z</time></trkpt><trkpt lat="42.2831567" lon="12.7329783"><ele>780.0</ele><time>2026-04-25T15:40:58.109Z</time></trkpt><trkpt lat="42.2830367" lon="12.7330083"><ele>778.3333333333334</ele><time>2026-04-25T15:41:00.108Z</time></trkpt><trkpt lat="42.2829633" lon="12.7330733"><ele>776.6666666666667</ele><time>2026-04-25T15:41:02.107Z</time></trkpt><trkpt lat="42.2829017" lon="12.7331033"><ele>775.0</ele><time>2026-04-25T15:41:04.109Z</time></trkpt><trkpt lat="42.2827933" lon="12.7330833"><ele>773.3333333333334</ele><time>2026-04-25T15:41:42.105Z</time></trkpt><trkpt lat="42.2827383" lon="12.73302"><ele>771.6666666666667</ele><time>2026-04-25T15:41:44.106Z</time></trkpt><trkpt lat="42.282685" lon="12.7329683"><ele>770.0</ele><time>2026-04-25T15:41:46.107Z</time></trkpt><trkpt lat="42.2826233" lon="12.73291"><ele>770.0000000000001</ele><time>2026-04-25T15:41:49.107Z</time></trkpt><trkpt lat="42.2825517" lon="12.7328183"><ele>770.0</ele><time>2026-04-25T15:42:05.108Z</time></trkpt><trkpt lat="42.282515" lon="12.7326983"><ele>770.0</ele><time>2026-04-25T15:42:08.109Z</time></trkpt><trkpt lat="42.2824533" lon="12.7326567"><ele>770.0</ele><time>2026-04-25T15:42:11.108Z</time></trkpt><trkpt lat="42.2823667" lon="12.7326983"><ele>770.0000000000001</ele><time>2026-04-25T15:42:14.108Z</time></trkpt><trkpt lat="42.2822917" lon="12.7326967"><ele>770.0</ele><time>2026-04-25T15:42:16.11Z</time></trkpt><trkpt lat="42.2822117" lon="12.7326883"><ele>767.7142857142857</ele><time>2026-04-25T15:42:18.108Z</time></trkpt><trkpt lat="42.2821417" lon="12.73269"><ele>765.4285714285714</ele><time>2026-04-25T15:42:20.109Z</time></trkpt><trkpt lat="42.282075" lon="12.7326833"><ele>763.1428571428571</ele><time>2026-04-25T15:42:22.109Z</time></trkpt><trkpt lat="42.28201" lon="12.7326783"><ele>760.8571428571429</ele><time>2026-04-25T15:42:25.11Z</time></trkpt><trkpt lat="42.28193" lon="12.7327083"><ele>758.5714285714286</ele><time>2026-04-25T15:42:29.106Z</time></trkpt><trkpt lat="42.2818567" lon="12.732715"><ele>756.2857142857142</ele><time>2026-04-25T15:42:31.107Z</time></trkpt><trkpt lat="42.2817867" lon="12.73274"><ele>754.0</ele><time>2026-04-25T15:42:33.108Z</time></trkpt><trkpt lat="42.2817283" lon="12.7327867"><ele>753.9999999999999</ele><time>2026-04-25T15:42:35.107Z</time></trkpt><trkpt lat="42.281655" lon="12.7328183"><ele>754.0</ele><time>2026-04-25T15:42:37.108Z</time></trkpt><trkpt lat="42.28158" lon="12.7328017"><ele>754.0</ele><time>2026-04-25T15:42:39.108Z</time></trkpt><trkpt lat="42.2815183" lon="12.7327633"><ele>754.0</ele><time>2026-04-25T15:42:41.106Z</time></trkpt><trkpt lat="42.2814833" lon="12.7326833"><ele>754.0</ele><time>2026-04-25T15:42:44.109Z</time></trkpt><trkpt lat="42.281465" lon="12.7325733"><ele>753.9999999999999</ele><time>2026-04-25T15:42:50.107Z</time></trkpt><trkpt lat="42.2814717" lon="12.7324867"><ele>754.0</ele><time>2026-04-25T15:42:52.107Z</time></trkpt><trkpt lat="42.28145" lon="12.7323833"><ele>754.6666666666667</ele><time>2026-04-25T15:42:55.109Z</time></trkpt><trkpt lat="42.2814283" lon="12.73226"><ele>755.3333333333334</ele><time>2026-04-25T15:42:58.105Z</time></trkpt><trkpt lat="42.28141" lon="12.7321633"><ele>756.0</ele><time>2026-04-25T15:43:00.108Z</time></trkpt><trkpt lat="42.2814017" lon="12.732075"><ele>756.6666666666666</ele><time>2026-04-25T15:43:02.107Z</time></trkpt><trkpt lat="42.2813983" lon="12.7319783"><ele>757.3333333333333</ele><time>2026-04-25T15:43:04.108Z</time></trkpt><trkpt lat="42.2813967" lon="12.73183"><ele>758.0</ele><time>2026-04-25T15:43:06.107Z</time></trkpt><trkpt lat="42.28139" lon="12.7316567"><ele>756.2</ele><time>2026-04-25T15:43:08.109Z</time></trkpt><trkpt lat="42.28136" lon="12.7314917"><ele>754.4</ele><time>2026-04-25T15:43:10.11Z</time></trkpt><trkpt lat="42.2813383" lon="12.7313483"><ele>752.6</ele><time>2026-04-25T15:43:12.108Z</time></trkpt><trkpt lat="42.2813283" lon="12.7312267"><ele>750.8000000000001</ele><time>2026-04-25T15:43:14.108Z</time></trkpt><trkpt lat="42.28131" lon="12.7311267"><ele>749.0</ele><time>2026-04-25T15:43:16.106Z</time></trkpt><trkpt lat="42.2812617" lon="12.7310417"><ele>746.4000000000001</ele><time>2026-04-25T15:43:18.108Z</time></trkpt><trkpt lat="42.2812083" lon="12.7309633"><ele>743.8</ele><time>2026-04-25T15:43:20.107Z</time></trkpt><trkpt lat="42.2811483" lon="12.7308733"><ele>741.2</ele><time>2026-04-25T15:43:22.108Z</time></trkpt><trkpt lat="42.281085" lon="12.7307483"><ele>738.5999999999999</ele><time>2026-04-25T15:43:24.111Z</time></trkpt><trkpt lat="42.2810317" lon="12.730615"><ele>736.0</ele><time>2026-04-25T15:43:26.139Z</time></trkpt><trkpt lat="42.2810083" lon="12.7305233"><ele>736.0</ele><time>2026-04-25T15:43:28.109Z</time></trkpt><trkpt lat="42.2809983" lon="12.7303833"><ele>736.0</ele><time>2026-04-25T15:43:30.108Z</time></trkpt><trkpt lat="42.2810117" lon="12.7302467"><ele>736.0</ele><time>2026-04-25T15:43:32.109Z</time></trkpt><trkpt lat="42.281045" lon="12.7301117"><ele>736.0</ele><time>2026-04-25T15:43:34.108Z</time></trkpt><trkpt lat="42.281085" lon="12.7299633"><ele>736.0</ele><time>2026-04-25T15:43:36.107Z</time></trkpt><trkpt lat="42.2811333" lon="12.7298083"><ele>734.1666666666667</ele><time>2026-04-25T15:43:38.106Z</time></trkpt><trkpt lat="42.2811517" lon="12.7297267"><ele>732.3333333333334</ele><time>2026-04-25T15:43:39.107Z</time></trkpt><trkpt lat="42.28117" lon="12.7295783"><ele>730.5</ele><time>2026-04-25T15:43:41.107Z</time></trkpt><trkpt lat="42.2811783" lon="12.729465"><ele>728.6666666666666</ele><time>2026-04-25T15:43:43.108Z</time></trkpt><trkpt lat="42.2811683" lon="12.7293483"><ele>726.8333333333333</ele><time>2026-04-25T15:43:46.107Z</time></trkpt><trkpt lat="42.2811333" lon="12.7292317"><ele>725.0</ele><time>2026-04-25T15:43:49.108Z</time></trkpt><trkpt lat="42.2811033" lon="12.729155"><ele>724.0</ele><time>2026-04-25T15:43:51.108Z</time></trkpt><trkpt lat="42.2810617" lon="12.729085"><ele>723.0</ele><time>2026-04-25T15:43:53.108Z</time></trkpt><trkpt lat="42.2810283" lon="12.7290117"><ele>722.0</ele><time>2026-04-25T15:43:55.109Z</time></trkpt><trkpt lat="42.2809833" lon="12.72893"><ele>721.0</ele><time>2026-04-25T15:43:57.111Z</time></trkpt><trkpt lat="42.2809233" lon="12.7288283"><ele>720.0</ele><time>2026-04-25T15:43:59.108Z</time></trkpt><trkpt lat="42.28085" lon="12.7287183"><ele>719.0</ele><time>2026-04-25T15:44:01.11Z</time></trkpt><trkpt lat="42.2807817" lon="12.728615"><ele>717.3333333333333</ele><time>2026-04-25T15:44:03.11Z</time></trkpt><trkpt lat="42.2807067" lon="12.728545"><ele>715.6666666666666</ele><time>2026-04-25T15:44:05.107Z</time></trkpt><trkpt lat="42.28064" lon="12.7284783"><ele>714.0</ele><time>2026-04-25T15:44:07.11Z</time></trkpt><trkpt lat="42.2805767" lon="12.7284017"><ele>712.3333333333334</ele><time>2026-04-25T15:44:09.109Z</time></trkpt><trkpt lat="42.280515" lon="12.7283333"><ele>710.6666666666667</ele><time>2026-04-25T15:44:11.107Z</time></trkpt><trkpt lat="42.2804617" lon="12.7282483"><ele>709.0</ele><time>2026-04-25T15:44:14.11Z</time></trkpt><trkpt lat="42.280405" lon="12.728155"><ele>708.0000000000001</ele><time>2026-04-25T15:44:17.107Z</time></trkpt><trkpt lat="42.280345" lon="12.7281217"><ele>707.0</ele><time>2026-04-25T15:44:19.107Z</time></trkpt><trkpt lat="42.28029" lon="12.728075"><ele>706.0</ele><time>2026-04-25T15:44:22.107Z</time></trkpt><trkpt lat="42.280215" lon="12.7280167"><ele>705.0</ele><time>2026-04-25T15:44:26.108Z</time></trkpt><trkpt lat="42.28019" lon="12.727935"><ele>704.0</ele><time>2026-04-25T15:44:29.108Z</time></trkpt><trkpt lat="42.280165" lon="12.7278533"><ele>703.0000000000001</ele><time>2026-04-25T15:44:32.11Z</time></trkpt><trkpt lat="42.2800983" lon="12.7278017"><ele>702.0</ele><time>2026-04-25T15:44:36.109Z</time></trkpt><trkpt lat="42.2800283" lon="12.7277833"><ele>702.0</ele><time>2026-04-25T15:44:39.109Z</time></trkpt><trkpt lat="42.279965" lon="12.7277633"><ele>702.0</ele><time>2026-04-25T15:44:42.108Z</time></trkpt><trkpt lat="42.2799" lon="12.7277467"><ele>702.0</ele><time>2026-04-25T15:44:45.109Z</time></trkpt><trkpt lat="42.27982" lon="12.7277033"><ele>702.0</ele><time>2026-04-25T15:44:49.107Z</time></trkpt><trkpt lat="42.2797433" lon="12.7276733"><ele>702.0</ele><time>2026-04-25T15:44:52.107Z</time></trkpt><trkpt lat="42.27966" lon="12.7277"><ele>702.0</ele><time>2026-04-25T15:44:55.109Z</time></trkpt><trkpt lat="42.2795933" lon="12.7277267"><ele>698.0</ele><time>2026-04-25T15:44:57.108Z</time></trkpt><trkpt lat="42.2795233" lon="12.7277783"><ele>694.0</ele><time>2026-04-25T15:44:59.107Z</time></trkpt><trkpt lat="42.2794733" lon="12.7278483"><ele>690.0</ele><time>2026-04-25T15:45:01.11Z</time></trkpt><trkpt lat="42.27941" lon="12.72793"><ele>686.0</ele><time>2026-04-25T15:45:04.11Z</time></trkpt><trkpt lat="42.27935" lon="12.7279833"><ele>682.0</ele><time>2026-04-25T15:45:06.109Z</time></trkpt><trkpt lat="42.2792833" lon="12.7280517"><ele>678.0</ele><time>2026-04-25T15:45:08.108Z</time></trkpt><trkpt lat="42.2792183" lon="12.7281417"><ele>678.0</ele><time>2026-04-25T15:45:10.108Z</time></trkpt><trkpt lat="42.279145" lon="12.728205"><ele>678.0</ele><time>2026-04-25T15:45:12.109Z</time></trkpt><trkpt lat="42.2790717" lon="12.7282583"><ele>678.0</ele><time>2026-04-25T15:45:14.109Z</time></trkpt><trkpt lat="42.279" lon="12.7283167"><ele>678.0</ele><time>2026-04-25T15:45:16.108Z</time></trkpt><trkpt lat="42.278905" lon="12.7283417"><ele>678.0</ele><time>2026-04-25T15:45:18.108Z</time></trkpt><trkpt lat="42.27881" lon="12.7283733"><ele>678.0</ele><time>2026-04-25T15:45:20.108Z</time></trkpt><trkpt lat="42.27871" lon="12.72842"><ele>673.3333333333334</ele><time>2026-04-25T15:45:22.109Z</time></trkpt><trkpt lat="42.2786067" lon="12.7284467"><ele>668.6666666666666</ele><time>2026-04-25T15:45:24.108Z</time></trkpt><trkpt lat="42.278515" lon="12.72845"><ele>664.0</ele><time>2026-04-25T15:45:26.11Z</time></trkpt><trkpt lat="42.2784233" lon="12.728445"><ele>659.3333333333333</ele><time>2026-04-25T15:45:28.108Z</time></trkpt><trkpt lat="42.27834" lon="12.7284717"><ele>654.6666666666666</ele><time>2026-04-25T15:45:30.11Z</time></trkpt><trkpt lat="42.2782683" lon="12.7284817"><ele>650.0</ele><time>2026-04-25T15:45:32.107Z</time></trkpt><trkpt lat="42.2781767" lon="12.7284933"><ele>648.0</ele><time>2026-04-25T15:45:35.108Z</time></trkpt><trkpt lat="42.2780983" lon="12.72855"><ele>646.0</ele><time>2026-04-25T15:45:37.108Z</time></trkpt><trkpt lat="42.27803" lon="12.728605"><ele>644.0</ele><time>2026-04-25T15:45:39.109Z</time></trkpt><trkpt lat="42.2779533" lon="12.7286517"><ele>642.0</ele><time>2026-04-25T15:45:41.108Z</time></trkpt><trkpt lat="42.2779" lon="12.728705"><ele>640.0</ele><time>2026-04-25T15:45:43.107Z</time></trkpt><trkpt lat="42.27783" lon="12.7287833"><ele>638.0</ele><time>2026-04-25T15:45:45.108Z</time></trkpt><trkpt lat="42.2777433" lon="12.7288633"><ele>638.0</ele><time>2026-04-25T15:45:47.108Z</time></trkpt><trkpt lat="42.27766" lon="12.7289583"><ele>638.0</ele><time>2026-04-25T15:45:49.109Z</time></trkpt><trkpt lat="42.2775817" lon="12.7290433"><ele>638.0</ele><time>2026-04-25T15:45:51.11Z</time></trkpt><trkpt lat="42.27752" lon="12.7291183"><ele>638.0</ele><time>2026-04-25T15:45:53.108Z</time></trkpt><trkpt lat="42.2774633" lon="12.7291617"><ele>638.0</ele><time>2026-04-25T15:45:55.108Z</time></trkpt><trkpt lat="42.2774" lon="12.7292183"><ele>638.0</ele><time>2026-04-25T15:45:57.106Z</time></trkpt><trkpt lat="42.27733" lon="12.7292783"><ele>636.5</ele><time>2026-04-25T15:45:59.107Z</time></trkpt><trkpt lat="42.2772567" lon="12.72934"><ele>635.0</ele><time>2026-04-25T15:46:01.106Z</time></trkpt><trkpt lat="42.2771867" lon="12.72939"><ele>633.5</ele><time>2026-04-25T15:46:03.107Z</time></trkpt><trkpt lat="42.2771167" lon="12.72943"><ele>632.0</ele><time>2026-04-25T15:46:05.107Z</time></trkpt><trkpt lat="42.277045" lon="12.7294667"><ele>630.5</ele><time>2026-04-25T15:46:07.108Z</time></trkpt><trkpt lat="42.2769883" lon="12.7295067"><ele>629.0</ele><time>2026-04-25T15:46:09.108Z</time></trkpt><trkpt lat="42.2769033" lon="12.7295417"><ele>629.0</ele><time>2026-04-25T15:46:12.108Z</time></trkpt><trkpt lat="42.2768267" lon="12.7295767"><ele>629.0</ele><time>2026-04-25T15:46:14.11Z</time></trkpt><trkpt lat="42.27674" lon="12.7296133"><ele>629.0</ele><time>2026-04-25T15:46:16.107Z</time></trkpt><trkpt lat="42.276635" lon="12.72968"><ele>629.0</ele><time>2026-04-25T15:46:23.108Z</time></trkpt><trkpt lat="42.27655" lon="12.729725"><ele>629.0</ele><time>2026-04-25T15:46:26.107Z</time></trkpt><trkpt lat="42.276425" lon="12.7297367"><ele>626.1666666666666</ele><time>2026-04-25T15:46:28.106Z</time></trkpt><trkpt lat="42.2763483" lon="12.729745"><ele>623.3333333333333</ele><time>2026-04-25T15:46:29.108Z</time></trkpt><trkpt lat="42.2762733" lon="12.7297483"><ele>620.5</ele><time>2026-04-25T15:46:30.109Z</time></trkpt><trkpt lat="42.2761967" lon="12.7297333"><ele>617.6666666666666</ele><time>2026-04-25T15:46:31.109Z</time></trkpt><trkpt lat="42.276115" lon="12.7297067"><ele>614.8333333333334</ele><time>2026-04-25T15:46:32.109Z</time></trkpt><trkpt lat="42.2760333" lon="12.72967"><ele>612.0</ele><time>2026-04-25T15:46:33.11Z</time></trkpt><trkpt lat="42.2759583" lon="12.729625"><ele>612.0</ele><time>2026-04-25T15:46:34.106Z</time></trkpt><trkpt lat="42.27589" lon="12.7295817"><ele>612.0</ele><time>2026-04-25T15:46:35.107Z</time></trkpt><trkpt lat="42.275825" lon="12.7295417"><ele>612.0</ele><time>2026-04-25T15:46:36.107Z</time></trkpt><trkpt lat="42.2757583" lon="12.729505"><ele>612.0</ele><time>2026-04-25T15:46:37.106Z</time></trkpt><trkpt lat="42.2756967" lon="12.7294817"><ele>612.0</ele><time>2026-04-25T15:46:38.108Z</time></trkpt><trkpt lat="42.2756317" lon="12.7294817"><ele>612.0</ele><time>2026-04-25T15:46:39.11Z</time></trkpt><trkpt lat="42.27557" lon="12.729505"><ele>612.0</ele><time>2026-04-25T15:46:40.107Z</time></trkpt><trkpt lat="42.2755117" lon="12.7295467"><ele>609.4</ele><time>2026-04-25T15:46:41.109Z</time></trkpt><trkpt lat="42.2754517" lon="12.7295933"><ele>606.8000000000001</ele><time>2026-04-25T15:46:42.106Z</time></trkpt><trkpt lat="42.27535" lon="12.7296717"><ele>604.2</ele><time>2026-04-25T15:46:44.109Z</time></trkpt><trkpt lat="42.2752517" lon="12.7297267"><ele>601.6</ele><time>2026-04-25T15:46:46.107Z</time></trkpt><trkpt lat="42.2751433" lon="12.7297667"><ele>599.0</ele><time>2026-04-25T15:46:48.107Z</time></trkpt><trkpt lat="42.2750483" lon="12.7298033"><ele>599.0</ele><time>2026-04-25T15:46:50.108Z</time></trkpt><trkpt lat="42.2749283" lon="12.72983"><ele>599.0</ele><time>2026-04-25T15:46:52.106Z</time></trkpt><trkpt lat="42.274815" lon="12.7298417"><ele>599.0</ele><time>2026-04-25T15:46:54.109Z</time></trkpt><trkpt lat="42.2747083" lon="12.7298133"><ele>599.0</ele><time>2026-04-25T15:46:56.11Z</time></trkpt><trkpt lat="42.274595" lon="12.7297683"><ele>597.1428571428571</ele><time>2026-04-25T15:46:58.108Z</time></trkpt><trkpt lat="42.2745233" lon="12.729745"><ele>595.2857142857142</ele><time>2026-04-25T15:46:59.109Z</time></trkpt><trkpt lat="42.2744467" lon="12.72973"><ele>593.4285714285713</ele><time>2026-04-25T15:47:00.109Z</time></trkpt><trkpt lat="42.27437" lon="12.7297183"><ele>591.5714285714286</ele><time>2026-04-25T15:47:01.108Z</time></trkpt><trkpt lat="42.2742967" lon="12.7297117"><ele>589.7142857142857</ele><time>2026-04-25T15:47:02.109Z</time></trkpt><trkpt lat="42.274225" lon="12.729695"><ele>587.8571428571428</ele><time>2026-04-25T15:47:03.108Z</time></trkpt><trkpt lat="42.2741617" lon="12.7296683"><ele>586.0</ele><time>2026-04-25T15:47:04.106Z</time></trkpt><trkpt lat="42.2740933" lon="12.7296317"><ele>585.9999999999999</ele><time>2026-04-25T15:47:05.107Z</time></trkpt><trkpt lat="42.2740317" lon="12.72959"><ele>586.0</ele><time>2026-04-25T15:47:06.108Z</time></trkpt><trkpt lat="42.2739683" lon="12.7295483"><ele>586.0</ele><time>2026-04-25T15:47:07.11Z</time></trkpt><trkpt lat="42.2739033" lon="12.7295217"><ele>586.0</ele><time>2026-04-25T15:47:08.109Z</time></trkpt><trkpt lat="42.2738383" lon="12.7295033"><ele>586.0</ele><time>2026-04-25T15:47:09.108Z</time></trkpt><trkpt lat="42.2737383" lon="12.729495"><ele>585.9999999999999</ele><time>2026-04-25T15:47:11.108Z</time></trkpt><trkpt lat="42.273665" lon="12.7294967"><ele>586.0</ele><time>2026-04-25T15:47:13.107Z</time></trkpt><trkpt lat="42.2735817" lon="12.729535"><ele>584.0</ele><time>2026-04-25T15:47:15.107Z</time></trkpt><trkpt lat="42.27353" lon="12.7296"><ele>582.0</ele><time>2026-04-25T15:47:17.107Z</time></trkpt><trkpt lat="42.2734267" lon="12.7295833"><ele>580.0</ele><time>2026-04-25T15:47:20.108Z</time></trkpt><trkpt lat="42.2733767" lon="12.7295183"><ele>578.0</ele><time>2026-04-25T15:47:21.109Z</time></trkpt><trkpt lat="42.27333" lon="12.7294483"><ele>576.0</ele><time>2026-04-25T15:47:22.109Z</time></trkpt><trkpt lat="42.2732767" lon="12.729375"><ele>574.0</ele><time>2026-04-25T15:47:23.11Z</time></trkpt><trkpt lat="42.2732233" lon="12.729295"><ele>573.8333333333334</ele><time>2026-04-25T15:47:24.106Z</time></trkpt><trkpt lat="42.27317" lon="12.7292067"><ele>573.6666666666667</ele><time>2026-04-25T15:47:25.108Z</time></trkpt><trkpt lat="42.2731183" lon="12.72912"><ele>573.5</ele><time>2026-04-25T15:47:26.106Z</time></trkpt><trkpt lat="42.27307" lon="12.72903"><ele>573.3333333333334</ele><time>2026-04-25T15:47:27.108Z</time></trkpt><trkpt lat="42.273025" lon="12.7289483"><ele>573.1666666666666</ele><time>2026-04-25T15:47:28.108Z</time></trkpt><trkpt lat="42.2729717" lon="12.7288733"><ele>573.0</ele><time>2026-04-25T15:47:29.107Z</time></trkpt><trkpt lat="42.2729383" lon="12.72879"><ele>570.8571428571429</ele><time>2026-04-25T15:47:30.106Z</time></trkpt><trkpt lat="42.2728983" lon="12.7287117"><ele>568.7142857142858</ele><time>2026-04-25T15:47:31.108Z</time></trkpt><trkpt lat="42.2728517" lon="12.7286333"><ele>566.5714285714286</ele><time>2026-04-25T15:47:32.109Z</time></trkpt><trkpt lat="42.2727967" lon="12.728565"><ele>564.4285714285714</ele><time>2026-04-25T15:47:33.11Z</time></trkpt><trkpt lat="42.272735" lon="12.7285183"><ele>562.2857142857142</ele><time>2026-04-25T15:47:34.107Z</time></trkpt><trkpt lat="42.27267" lon="12.7285083"><ele>560.1428571428571</ele><time>2026-04-25T15:47:35.109Z</time></trkpt><trkpt lat="42.2726017" lon="12.7284883"><ele>558.0</ele><time>2026-04-25T15:47:36.109Z</time></trkpt><trkpt lat="42.272515" lon="12.7284683"><ele>556.8</ele><time>2026-04-25T15:47:37.11Z</time></trkpt><trkpt lat="42.2724167" lon="12.7284483"><ele>555.5999999999999</ele><time>2026-04-25T15:47:38.11Z</time></trkpt><trkpt lat="42.272325" lon="12.7284217"><ele>554.4000000000001</ele><time>2026-04-25T15:47:39.11Z</time></trkpt><trkpt lat="42.2722267" lon="12.7283917"><ele>553.2</ele><time>2026-04-25T15:47:40.11Z</time></trkpt><trkpt lat="42.2721383" lon="12.7283583"><ele>552.0</ele><time>2026-04-25T15:47:41.109Z</time></trkpt><trkpt lat="42.27205" lon="12.7283417"><ele>549.4</ele><time>2026-04-25T15:47:42.109Z</time></trkpt><trkpt lat="42.271965" lon="12.7283283"><ele>546.8000000000001</ele><time>2026-04-25T15:47:43.108Z</time></trkpt><trkpt lat="42.2718783" lon="12.72831"><ele>544.2</ele><time>2026-04-25T15:47:44.109Z</time></trkpt><trkpt lat="42.2717917" lon="12.7282867"><ele>541.6</ele><time>2026-04-25T15:47:45.109Z</time></trkpt><trkpt lat="42.2717" lon="12.7282617"><ele>539.0</ele><time>2026-04-25T15:47:46.109Z</time></trkpt><trkpt lat="42.2716017" lon="12.7282383"><ele>539.0</ele><time>2026-04-25T15:47:47.11Z</time></trkpt><trkpt lat="42.2715017" lon="12.7282267"><ele>539.0</ele><time>2026-04-25T15:47:48.11Z</time></trkpt><trkpt lat="42.2713967" lon="12.72821"><ele>539.0</ele><time>2026-04-25T15:47:49.11Z</time></trkpt><trkpt lat="42.2713" lon="12.7281933"><ele>539.0</ele><time>2026-04-25T15:47:50.108Z</time></trkpt><trkpt lat="42.2712133" lon="12.72819"><ele>539.0</ele><time>2026-04-25T15:47:51.111Z</time></trkpt><trkpt lat="42.2711283" lon="12.7281967"><ele>536.8</ele><time>2026-04-25T15:47:52.11Z</time></trkpt><trkpt lat="42.27104" lon="12.72822"><ele>534.5999999999999</ele><time>2026-04-25T15:47:53.109Z</time></trkpt><trkpt lat="42.2709533" lon="12.728255"><ele>532.4</ele><time>2026-04-25T15:47:54.107Z</time></trkpt><trkpt lat="42.2708667" lon="12.728295"><ele>530.1999999999999</ele><time>2026-04-25T15:47:55.109Z</time></trkpt><trkpt lat="42.2707767" lon="12.72835"><ele>528.0</ele><time>2026-04-25T15:47:56.109Z</time></trkpt><trkpt lat="42.2707" lon="12.7284017"><ele>528.0</ele><time>2026-04-25T15:47:57.11Z</time></trkpt><trkpt lat="42.270635" lon="12.728445"><ele>528.0</ele><time>2026-04-25T15:47:58.107Z</time></trkpt><trkpt lat="42.270545" lon="12.728475"><ele>528.0</ele><time>2026-04-25T15:48:00.107Z</time></trkpt><trkpt lat="42.2704783" lon="12.72842"><ele>528.0</ele><time>2026-04-25T15:48:02.109Z</time></trkpt><trkpt lat="42.2704667" lon="12.7283133"><ele>528.0</ele><time>2026-04-25T15:48:04.109Z</time></trkpt><trkpt lat="42.270515" lon="12.728195"><ele>528.0</ele><time>2026-04-25T15:48:06.11Z</time></trkpt><trkpt lat="42.2705767" lon="12.72809"><ele>525.8</ele><time>2026-04-25T15:48:08.107Z</time></trkpt><trkpt lat="42.2705917" lon="12.72798"><ele>523.5999999999999</ele><time>2026-04-25T15:48:10.108Z</time></trkpt><trkpt lat="42.270555" lon="12.72788"><ele>521.4000000000001</ele><time>2026-04-25T15:48:12.108Z</time></trkpt><trkpt lat="42.270435" lon="12.72787"><ele>519.2</ele><time>2026-04-25T15:48:14.108Z</time></trkpt><trkpt lat="42.270335" lon="12.72789"><ele>517.0</ele><time>2026-04-25T15:48:15.109Z</time></trkpt><trkpt lat="42.2702233" lon="12.727875"><ele>517.0</ele><time>2026-04-25T15:48:16.106Z</time></trkpt><trkpt lat="42.2701133" lon="12.7278633"><ele>517.0</ele><time>2026-04-25T15:48:17.108Z</time></trkpt><trkpt lat="42.2699983" lon="12.7278567"><ele>517.0</ele><time>2026-04-25T15:48:18.11Z</time></trkpt><trkpt lat="42.2698733" lon="12.7278383"><ele>517.0</ele><time>2026-04-25T15:48:19.108Z</time></trkpt><trkpt lat="42.2697367" lon="12.727815"><ele>513.0</ele><time>2026-04-25T15:48:20.108Z</time></trkpt><trkpt lat="42.2695917" lon="12.7277917"><ele>509.0</ele><time>2026-04-25T15:48:21.108Z</time></trkpt><trkpt lat="42.2694567" lon="12.72778"><ele>505.0</ele><time>2026-04-25T15:48:22.109Z</time></trkpt><trkpt lat="42.269335" lon="12.7277683"><ele>501.0</ele><time>2026-04-25T15:48:23.108Z</time></trkpt><trkpt lat="42.2692333" lon="12.7277533"><ele>501.0</ele><time>2026-04-25T15:48:24.107Z</time></trkpt><trkpt lat="42.26913" lon="12.7277317"><ele>501.0</ele><time>2026-04-25T15:48:25.108Z</time></trkpt><trkpt lat="42.2690317" lon="12.7277083"><ele>501.0</ele><time>2026-04-25T15:48:26.107Z</time></trkpt><trkpt lat="42.2689367" lon="12.7276883"><ele>501.0</ele><time>2026-04-25T15:48:27.109Z</time></trkpt><trkpt lat="42.26884" lon="12.727675"><ele>501.0</ele><time>2026-04-25T15:48:28.107Z</time></trkpt><trkpt lat="42.2687383" lon="12.72765"><ele>500.20000000000005</ele><time>2026-04-25T15:48:29.106Z</time></trkpt><trkpt lat="42.2686383" lon="12.727615"><ele>499.40000000000003</ele><time>2026-04-25T15:48:30.108Z</time></trkpt><trkpt lat="42.2685433" lon="12.7275767"><ele>498.6</ele><time>2026-04-25T15:48:31.107Z</time></trkpt><trkpt lat="42.2684483" lon="12.72755"><ele>497.8</ele><time>2026-04-25T15:48:32.107Z</time></trkpt><trkpt lat="42.2683633" lon="12.7275317"><ele>497.0</ele><time>2026-04-25T15:48:33.109Z</time></trkpt><trkpt lat="42.2682817" lon="12.7275183"><ele>497.0</ele><time>2026-04-25T15:48:34.109Z</time></trkpt><trkpt lat="42.2681983" lon="12.7275017"><ele>497.00000000000006</ele><time>2026-04-25T15:48:35.109Z</time></trkpt><trkpt lat="42.2681083" lon="12.72748"><ele>497.00000000000006</ele><time>2026-04-25T15:48:36.107Z</time></trkpt><trkpt lat="42.2680083" lon="12.7274533"><ele>497.0</ele><time>2026-04-25T15:48:37.108Z</time></trkpt><trkpt lat="42.2679017" lon="12.727425"><ele>497.0</ele><time>2026-04-25T15:48:38.108Z</time></trkpt><trkpt lat="42.2677867" lon="12.727395"><ele>495.40000000000003</ele><time>2026-04-25T15:48:39.107Z</time></trkpt><trkpt lat="42.2676717" lon="12.7273633"><ele>493.80000000000007</ele><time>2026-04-25T15:48:40.108Z</time></trkpt><trkpt lat="42.2675617" lon="12.7273317"><ele>492.2</ele><time>2026-04-25T15:48:41.107Z</time></trkpt><trkpt lat="42.2674583" lon="12.7273067"><ele>490.6</ele><time>2026-04-25T15:48:42.108Z</time></trkpt><trkpt lat="42.267355" lon="12.7272883"><ele>489.0</ele><time>2026-04-25T15:48:43.108Z</time></trkpt><trkpt lat="42.26726" lon="12.7272683"><ele>486.6</ele><time>2026-04-25T15:48:44.109Z</time></trkpt><trkpt lat="42.2671683" lon="12.727235"><ele>484.2</ele><time>2026-04-25T15:48:45.107Z</time></trkpt><trkpt lat="42.2670783" lon="12.7271883"><ele>481.80000000000007</ele><time>2026-04-25T15:48:46.108Z</time></trkpt><trkpt lat="42.2669867" lon="12.727125"><ele>479.40000000000003</ele><time>2026-04-25T15:48:47.108Z</time></trkpt><trkpt lat="42.266895" lon="12.72706"><ele>477.0</ele><time>2026-04-25T15:48:48.107Z</time></trkpt><trkpt lat="42.2668" lon="12.727"><ele>477.0</ele><time>2026-04-25T15:48:49.106Z</time></trkpt><trkpt lat="42.266705" lon="12.726945"><ele>477.00000000000006</ele><time>2026-04-25T15:48:50.107Z</time></trkpt><trkpt lat="42.2666067" lon="12.7269017"><ele>477.00000000000006</ele><time>2026-04-25T15:48:51.108Z</time></trkpt><trkpt lat="42.2665033" lon="12.7268633"><ele>477.0</ele><time>2026-04-25T15:48:52.109Z</time></trkpt><trkpt lat="42.2664" lon="12.7268233"><ele>477.0</ele><time>2026-04-25T15:48:53.109Z</time></trkpt><trkpt lat="42.2662933" lon="12.7267817"><ele>477.20000000000005</ele><time>2026-04-25T15:48:54.107Z</time></trkpt><trkpt lat="42.266185" lon="12.7267383"><ele>477.40000000000003</ele><time>2026-04-25T15:48:55.108Z</time></trkpt><trkpt lat="42.2660783" lon="12.7267"><ele>477.59999999999997</ele><time>2026-04-25T15:48:56.106Z</time></trkpt><trkpt lat="42.265975" lon="12.72667"><ele>477.79999999999995</ele><time>2026-04-25T15:48:57.107Z</time></trkpt><trkpt lat="42.2658683" lon="12.7266483"><ele>478.0</ele><time>2026-04-25T15:48:58.108Z</time></trkpt><trkpt lat="42.2657683" lon="12.7266333"><ele>478.00000000000006</ele><time>2026-04-25T15:48:59.109Z</time></trkpt><trkpt lat="42.2656733" lon="12.7266133"><ele>478.0</ele><time>2026-04-25T15:49:00.108Z</time></trkpt><trkpt lat="42.265585" lon="12.726585"><ele>478.0</ele><time>2026-04-25T15:49:01.107Z</time></trkpt><trkpt lat="42.2655033" lon="12.7265467"><ele>478.0</ele><time>2026-04-25T15:49:02.108Z</time></trkpt><trkpt lat="42.26543" lon="12.7264933"><ele>478.00000000000006</ele><time>2026-04-25T15:49:03.107Z</time></trkpt><trkpt lat="42.2653583" lon="12.726425"><ele>478.0</ele><time>2026-04-25T15:49:04.109Z</time></trkpt><trkpt lat="42.2652883" lon="12.7263433"><ele>476.4</ele><time>2026-04-25T15:49:05.109Z</time></trkpt><trkpt lat="42.26521" lon="12.7262633"><ele>474.79999999999995</ele><time>2026-04-25T15:49:06.107Z</time></trkpt><trkpt lat="42.2651183" lon="12.7261983"><ele>473.2</ele><time>2026-04-25T15:49:07.109Z</time></trkpt><trkpt lat="42.2650183" lon="12.726135"><ele>471.6</ele><time>2026-04-25T15:49:08.107Z</time></trkpt><trkpt lat="42.26492" lon="12.7260783"><ele>470.0</ele><time>2026-04-25T15:49:09.108Z</time></trkpt><trkpt lat="42.2648283" lon="12.7260283"><ele>466.8333333333333</ele><time>2026-04-25T15:49:10.107Z</time></trkpt><trkpt lat="42.2647483" lon="12.7259817"><ele>463.66666666666663</ele><time>2026-04-25T15:49:11.109Z</time></trkpt><trkpt lat="42.2646833" lon="12.7259333"><ele>460.5</ele><time>2026-04-25T15:49:12.108Z</time></trkpt><trkpt lat="42.2646233" lon="12.7258733"><ele>457.33333333333337</ele><time>2026-04-25T15:49:13.106Z</time></trkpt><trkpt lat="42.2645633" lon="12.7258017"><ele>454.1666666666667</ele><time>2026-04-25T15:49:14.108Z</time></trkpt><trkpt lat="42.264495" lon="12.7257217"><ele>451.0</ele><time>2026-04-25T15:49:15.109Z</time></trkpt><trkpt lat="42.2644183" lon="12.72564"><ele>451.0</ele><time>2026-04-25T15:49:16.106Z</time></trkpt><trkpt lat="42.2643367" lon="12.7255533"><ele>451.0</ele><time>2026-04-25T15:49:17.106Z</time></trkpt><trkpt lat="42.264255" lon="12.7254583"><ele>451.0</ele><time>2026-04-25T15:49:18.108Z</time></trkpt><trkpt lat="42.26417" lon="12.7253583"><ele>451.0</ele><time>2026-04-25T15:49:19.108Z</time></trkpt><trkpt lat="42.2640817" lon="12.725255"><ele>451.0</ele><time>2026-04-25T15:49:20.108Z</time></trkpt><trkpt lat="42.2639883" lon="12.7251483"><ele>449.25</ele><time>2026-04-25T15:49:21.108Z</time></trkpt><trkpt lat="42.26389" lon="12.7250383"><ele>447.5</ele><time>2026-04-25T15:49:22.108Z</time></trkpt><trkpt lat="42.2637933" lon="12.724925"><ele>445.75</ele><time>2026-04-25T15:49:23.108Z</time></trkpt><trkpt lat="42.2637" lon="12.7248083"><ele>444.0</ele><time>2026-04-25T15:49:24.106Z</time></trkpt><trkpt lat="42.2636067" lon="12.724695"><ele>444.0</ele><time>2026-04-25T15:49:25.108Z</time></trkpt><trkpt lat="42.263515" lon="12.7245867"><ele>444.0</ele><time>2026-04-25T15:49:26.106Z</time></trkpt><trkpt lat="42.2634267" lon="12.7244817"><ele>444.0</ele><time>2026-04-25T15:49:27.108Z</time></trkpt><trkpt lat="42.263345" lon="12.7243783"><ele>444.0</ele><time>2026-04-25T15:49:28.105Z</time></trkpt><trkpt lat="42.2632683" lon="12.72428"><ele>443.79999999999995</ele><time>2026-04-25T15:49:29.108Z</time></trkpt><trkpt lat="42.2631917" lon="12.7241883"><ele>443.59999999999997</ele><time>2026-04-25T15:49:30.107Z</time></trkpt><trkpt lat="42.263105" lon="12.72411"><ele>443.4</ele><time>2026-04-25T15:49:31.109Z</time></trkpt><trkpt lat="42.2630117" lon="12.72404"><ele>443.2</ele><time>2026-04-25T15:49:32.109Z</time></trkpt><trkpt lat="42.262915" lon="12.7239783"><ele>443.0</ele><time>2026-04-25T15:49:33.109Z</time></trkpt><trkpt lat="42.2628167" lon="12.7239217"><ele>443.0</ele><time>2026-04-25T15:49:34.109Z</time></trkpt><trkpt lat="42.2627183" lon="12.7238633"><ele>442.99999999999994</ele><time>2026-04-25T15:49:35.11Z</time></trkpt><trkpt lat="42.2626217" lon="12.723805"><ele>442.99999999999994</ele><time>2026-04-25T15:49:36.107Z</time></trkpt><trkpt lat="42.2625233" lon="12.723755"><ele>443.0</ele><time>2026-04-25T15:49:37.11Z</time></trkpt><trkpt lat="42.26242" lon="12.723715"><ele>443.0</ele><time>2026-04-25T15:49:38.109Z</time></trkpt><trkpt lat="42.2623183" lon="12.723685"><ele>442.79999999999995</ele><time>2026-04-25T15:49:39.107Z</time></trkpt><trkpt lat="42.2622117" lon="12.7236567"><ele>442.59999999999997</ele><time>2026-04-25T15:49:40.107Z</time></trkpt><trkpt lat="42.2621033" lon="12.7236317"><ele>442.40000000000003</ele><time>2026-04-25T15:49:41.108Z</time></trkpt><trkpt lat="42.261995" lon="12.7236133"><ele>442.20000000000005</ele><time>2026-04-25T15:49:42.108Z</time></trkpt><trkpt lat="42.2618867" lon="12.723595"><ele>442.0</ele><time>2026-04-25T15:49:43.109Z</time></trkpt><trkpt lat="42.26178" lon="12.72357"><ele>442.40000000000003</ele><time>2026-04-25T15:49:44.108Z</time></trkpt><trkpt lat="42.2616767" lon="12.7235433"><ele>442.80000000000007</ele><time>2026-04-25T15:49:45.108Z</time></trkpt><trkpt lat="42.261575" lon="12.7235083"><ele>443.2</ele><time>2026-04-25T15:49:46.107Z</time></trkpt><trkpt lat="42.26148" lon="12.723455"><ele>443.6</ele><time>2026-04-25T15:49:47.107Z</time></trkpt><trkpt lat="42.261395" lon="12.7233867"><ele>444.0</ele><time>2026-04-25T15:49:48.108Z</time></trkpt><trkpt lat="42.26131" lon="12.72332"><ele>443.3333333333333</ele><time>2026-04-25T15:49:49.109Z</time></trkpt><trkpt lat="42.2612233" lon="12.723265"><ele>442.66666666666663</ele><time>2026-04-25T15:49:50.109Z</time></trkpt><trkpt lat="42.26113" lon="12.7232233"><ele>442.0</ele><time>2026-04-25T15:49:51.106Z</time></trkpt><trkpt lat="42.26104" lon="12.7231917"><ele>441.3333333333333</ele><time>2026-04-25T15:49:52.107Z</time></trkpt><trkpt lat="42.2609567" lon="12.7231667"><ele>440.66666666666663</ele><time>2026-04-25T15:49:53.109Z</time></trkpt><trkpt lat="42.2608867" lon="12.723155"><ele>440.0</ele><time>2026-04-25T15:49:54.108Z</time></trkpt><trkpt lat="42.26082" lon="12.7231583"><ele>439.99999999999994</ele><time>2026-04-25T15:49:55.107Z</time></trkpt><trkpt lat="42.260755" lon="12.7231833"><ele>440.0</ele><time>2026-04-25T15:49:56.108Z</time></trkpt><trkpt lat="42.2606967" lon="12.723225"><ele>440.0</ele><time>2026-04-25T15:49:57.106Z</time></trkpt><trkpt lat="42.2606417" lon="12.7232767"><ele>440.0</ele><time>2026-04-25T15:49:58.106Z</time></trkpt><trkpt lat="42.2605833" lon="12.7233317"><ele>440.0</ele><time>2026-04-25T15:49:59.106Z</time></trkpt><trkpt lat="42.26052" lon="12.723375"><ele>439.99999999999994</ele><time>2026-04-25T15:50:00.107Z</time></trkpt><trkpt lat="42.260455" lon="12.7234083"><ele>440.0</ele><time>2026-04-25T15:50:01.107Z</time></trkpt><trkpt lat="42.2603867" lon="12.7234333"><ele>437.99999999999994</ele><time>2026-04-25T15:50:02.106Z</time></trkpt><trkpt lat="42.2603167" lon="12.7234583"><ele>436.0</ele><time>2026-04-25T15:50:03.111Z</time></trkpt><trkpt lat="42.2602467" lon="12.72348"><ele>434.0</ele><time>2026-04-25T15:50:04.108Z</time></trkpt><trkpt lat="42.260185" lon="12.7235017"><ele>432.0</ele><time>2026-04-25T15:50:05.108Z</time></trkpt><trkpt lat="42.26008" lon="12.7235817"><ele>429.99999999999994</ele><time>2026-04-25T15:50:07.11Z</time></trkpt><trkpt lat="42.2600383" lon="12.7236467"><ele>428.0</ele><time>2026-04-25T15:50:08.11Z</time></trkpt><trkpt lat="42.259965" lon="12.723765"><ele>428.0</ele><time>2026-04-25T15:50:10.108Z</time></trkpt><trkpt lat="42.259875" lon="12.72381"><ele>427.99999999999994</ele><time>2026-04-25T15:50:12.107Z</time></trkpt><trkpt lat="42.2597833" lon="12.7237533"><ele>427.99999999999994</ele><time>2026-04-25T15:50:14.109Z</time></trkpt><trkpt lat="42.259705" lon="12.72367"><ele>428.0</ele><time>2026-04-25T15:50:16.107Z</time></trkpt><trkpt lat="42.259645" lon="12.7236017"><ele>428.0</ele><time>2026-04-25T15:50:18.107Z</time></trkpt><trkpt lat="42.25957" lon="12.7235417"><ele>425.49999999999994</ele><time>2026-04-25T15:50:21.109Z</time></trkpt><trkpt lat="42.2595017" lon="12.7235417"><ele>423.0</ele><time>2026-04-25T15:50:23.107Z</time></trkpt><trkpt lat="42.2594033" lon="12.7235383"><ele>420.5</ele><time>2026-04-25T15:50:25.11Z</time></trkpt><trkpt lat="42.25934" lon="12.7235383"><ele>418.0</ele><time>2026-04-25T15:50:26.106Z</time></trkpt><trkpt lat="42.2592717" lon="12.72354"><ele>415.49999999999994</ele><time>2026-04-25T15:50:27.108Z</time></trkpt><trkpt lat="42.2591967" lon="12.7235383"><ele>413.0</ele><time>2026-04-25T15:50:28.108Z</time></trkpt><trkpt lat="42.2591167" lon="12.7235283"><ele>412.99999999999994</ele><time>2026-04-25T15:50:29.107Z</time></trkpt><trkpt lat="42.2590333" lon="12.7235167"><ele>413.0</ele><time>2026-04-25T15:50:30.109Z</time></trkpt><trkpt lat="42.2589533" lon="12.7235017"><ele>413.0</ele><time>2026-04-25T15:50:31.109Z</time></trkpt><trkpt lat="42.258875" lon="12.723485"><ele>413.0</ele><time>2026-04-25T15:50:32.108Z</time></trkpt><trkpt lat="42.2588" lon="12.7234667"><ele>412.99999999999994</ele><time>2026-04-25T15:50:33.109Z</time></trkpt><trkpt lat="42.2587217" lon="12.723455"><ele>413.0</ele><time>2026-04-25T15:50:34.108Z</time></trkpt><trkpt lat="42.25864" lon="12.723445"><ele>410.3333333333333</ele><time>2026-04-25T15:50:35.108Z</time></trkpt><trkpt lat="42.25856" lon="12.7234333"><ele>407.66666666666663</ele><time>2026-04-25T15:50:36.109Z</time></trkpt><trkpt lat="42.2584817" lon="12.72342"><ele>405.0</ele><time>2026-04-25T15:50:37.108Z</time></trkpt><trkpt lat="42.2584067" lon="12.7233933"><ele>402.33333333333337</ele><time>2026-04-25T15:50:38.107Z</time></trkpt><trkpt lat="42.2583317" lon="12.7233583"><ele>399.6666666666667</ele><time>2026-04-25T15:50:39.108Z</time></trkpt><trkpt lat="42.258265" lon="12.7233017"><ele>397.0</ele><time>2026-04-25T15:50:40.108Z</time></trkpt><trkpt lat="42.2582033" lon="12.7232283"><ele>397.0</ele><time>2026-04-25T15:50:41.107Z</time></trkpt><trkpt lat="42.25814" lon="12.723145"><ele>397.0</ele><time>2026-04-25T15:50:42.106Z</time></trkpt><trkpt lat="42.2580733" lon="12.723065"><ele>397.0</ele><time>2026-04-25T15:50:43.107Z</time></trkpt><trkpt lat="42.2580067" lon="12.7229783"><ele>397.0</ele><time>2026-04-25T15:50:44.108Z</time></trkpt><trkpt lat="42.2579333" lon="12.72289"><ele>397.0</ele><time>2026-04-25T15:50:45.107Z</time></trkpt><trkpt lat="42.25786" lon="12.722795"><ele>394.00000000000006</ele><time>2026-04-25T15:50:46.108Z</time></trkpt><trkpt lat="42.25779" lon="12.722705"><ele>391.0</ele><time>2026-04-25T15:50:47.108Z</time></trkpt><trkpt lat="42.2577267" lon="12.72262"><ele>388.0</ele><time>2026-04-25T15:50:48.108Z</time></trkpt><trkpt lat="42.2576783" lon="12.7225333"><ele>385.0</ele><time>2026-04-25T15:50:49.11Z</time></trkpt><trkpt lat="42.2576417" lon="12.72244"><ele>382.0</ele><time>2026-04-25T15:50:50.108Z</time></trkpt><trkpt lat="42.2576117" lon="12.72234"><ele>379.0</ele><time>2026-04-25T15:50:51.107Z</time></trkpt><trkpt lat="42.257585" lon="12.7222383"><ele>379.0</ele><time>2026-04-25T15:50:52.109Z</time></trkpt><trkpt lat="42.2575567" lon="12.722135"><ele>379.0</ele><time>2026-04-25T15:50:53.11Z</time></trkpt><trkpt lat="42.257535" lon="12.7220283"><ele>379.0</ele><time>2026-04-25T15:50:54.107Z</time></trkpt><trkpt lat="42.257515" lon="12.7219183"><ele>379.0</ele><time>2026-04-25T15:50:55.107Z</time></trkpt><trkpt lat="42.2574883" lon="12.72181"><ele>379.0</ele><time>2026-04-25T15:50:56.106Z</time></trkpt><trkpt lat="42.2574517" lon="12.7216983"><ele>379.0</ele><time>2026-04-25T15:50:57.108Z</time></trkpt><trkpt lat="42.257405" lon="12.7215933"><ele>380.79999999999995</ele><time>2026-04-25T15:50:58.108Z</time></trkpt><trkpt lat="42.257345" lon="12.7214967"><ele>382.59999999999997</ele><time>2026-04-25T15:50:59.108Z</time></trkpt><trkpt lat="42.257275" lon="12.7214067"><ele>384.4</ele><time>2026-04-25T15:51:00.108Z</time></trkpt><trkpt lat="42.2571983" lon="12.7213233"><ele>386.2</ele><time>2026-04-25T15:51:01.109Z</time></trkpt><trkpt lat="42.2571183" lon="12.7212433"><ele>388.0</ele><time>2026-04-25T15:51:02.105Z</time></trkpt><trkpt lat="42.257035" lon="12.721165"><ele>384.79999999999995</ele><time>2026-04-25T15:51:03.108Z</time></trkpt><trkpt lat="42.2569483" lon="12.72108"><ele>381.6</ele><time>2026-04-25T15:51:04.107Z</time></trkpt><trkpt lat="42.2568633" lon="12.720995"><ele>378.4</ele><time>2026-04-25T15:51:05.108Z</time></trkpt><trkpt lat="42.2567867" lon="12.720905"><ele>375.20000000000005</ele><time>2026-04-25T15:51:06.106Z</time></trkpt><trkpt lat="42.2567117" lon="12.72082"><ele>372.0</ele><time>2026-04-25T15:51:07.108Z</time></trkpt><trkpt lat="42.256635" lon="12.7207383"><ele>372.0</ele><time>2026-04-25T15:51:08.107Z</time></trkpt><trkpt lat="42.25656" lon="12.72066"><ele>372.0</ele><time>2026-04-25T15:51:09.107Z</time></trkpt><trkpt lat="42.2564933" lon="12.7205767"><ele>372.0</ele><time>2026-04-25T15:51:10.107Z</time></trkpt><trkpt lat="42.2564417" lon="12.7204783"><ele>372.0</ele><time>2026-04-25T15:51:11.108Z</time></trkpt><trkpt lat="42.2563933" lon="12.7203783"><ele>372.0</ele><time>2026-04-25T15:51:12.109Z</time></trkpt><trkpt lat="42.2563567" lon="12.720275"><ele>372.0</ele><time>2026-04-25T15:51:13.108Z</time></trkpt><trkpt lat="42.256335" lon="12.7201717"><ele>372.42857142857144</ele><time>2026-04-25T15:51:14.108Z</time></trkpt><trkpt lat="42.25633" lon="12.72007"><ele>372.8571428571429</ele><time>2026-04-25T15:51:15.109Z</time></trkpt><trkpt lat="42.2563383" lon="12.7199683"><ele>373.28571428571433</ele><time>2026-04-25T15:51:16.109Z</time></trkpt><trkpt lat="42.2563583" lon="12.7198717"><ele>373.7142857142857</ele><time>2026-04-25T15:51:17.107Z</time></trkpt><trkpt lat="42.256385" lon="12.7197767"><ele>374.1428571428571</ele><time>2026-04-25T15:51:18.108Z</time></trkpt><trkpt lat="42.256415" lon="12.719685"><ele>374.5714285714286</ele><time>2026-04-25T15:51:19.107Z</time></trkpt><trkpt lat="42.256445" lon="12.7196"><ele>375.0</ele><time>2026-04-25T15:51:20.109Z</time></trkpt><trkpt lat="42.25647" lon="12.719515"><ele>375.0</ele><time>2026-04-25T15:51:21.108Z</time></trkpt><trkpt lat="42.2564917" lon="12.7194317"><ele>375.0</ele><time>2026-04-25T15:51:22.108Z</time></trkpt><trkpt lat="42.2565283" lon="12.7192833"><ele>375.0</ele><time>2026-04-25T15:51:24.107Z</time></trkpt><trkpt lat="42.256555" lon="12.7191517"><ele>375.0</ele><time>2026-04-25T15:51:26.108Z</time></trkpt><trkpt lat="42.256575" lon="12.7190383"><ele>375.0</ele><time>2026-04-25T15:51:28.11Z</time></trkpt><trkpt lat="42.2565967" lon="12.7189167"><ele>373.8</ele><time>2026-04-25T15:51:30.108Z</time></trkpt><trkpt lat="42.2566167" lon="12.7187667"><ele>372.6</ele><time>2026-04-25T15:51:32.108Z</time></trkpt><trkpt lat="42.2566467" lon="12.7186483"><ele>371.4</ele><time>2026-04-25T15:51:34.11Z</time></trkpt><trkpt lat="42.2566967" lon="12.71851"><ele>370.2</ele><time>2026-04-25T15:51:36.109Z</time></trkpt><trkpt lat="42.2567333" lon="12.71844"><ele>369.0</ele><time>2026-04-25T15:51:37.11Z</time></trkpt><trkpt lat="42.25679" lon="12.718305"><ele>368.0</ele><time>2026-04-25T15:51:39.109Z</time></trkpt><trkpt lat="42.2567867" lon="12.7181417"><ele>367.0</ele><time>2026-04-25T15:51:41.109Z</time></trkpt><trkpt lat="42.256775" lon="12.7180417"><ele>366.0</ele><time>2026-04-25T15:51:42.107Z</time></trkpt><trkpt lat="42.256765" lon="12.7179367"><ele>365.0</ele><time>2026-04-25T15:51:43.107Z</time></trkpt><trkpt lat="42.2567583" lon="12.71784"><ele>364.0</ele><time>2026-04-25T15:51:44.107Z</time></trkpt><trkpt lat="42.2567567" lon="12.7176917"><ele>363.14285714285717</ele><time>2026-04-25T15:51:46.107Z</time></trkpt><trkpt lat="42.2568083" lon="12.7175883"><ele>362.2857142857143</ele><time>2026-04-25T15:51:48.106Z</time></trkpt><trkpt lat="42.2568767" lon="12.7175633"><ele>361.42857142857144</ele><time>2026-04-25T15:51:50.109Z</time></trkpt><trkpt lat="42.2569367" lon="12.7175183"><ele>360.57142857142856</ele><time>2026-04-25T15:51:53.108Z</time></trkpt><trkpt lat="42.2569233" lon="12.71743"><ele>359.7142857142857</ele><time>2026-04-25T15:52:46.108Z</time></trkpt><trkpt lat="42.25688" lon="12.7173283"><ele>358.8571428571429</ele><time>2026-04-25T15:52:48.109Z</time></trkpt><trkpt lat="42.25685" lon="12.7172533"><ele>358.0</ele><time>2026-04-25T15:52:49.11Z</time></trkpt><trkpt lat="42.25682" lon="12.7171617"><ele>358.0</ele><time>2026-04-25T15:52:50.109Z</time></trkpt><trkpt lat="42.2567867" lon="12.717055"><ele>358.0</ele><time>2026-04-25T15:52:51.109Z</time></trkpt><trkpt lat="42.2567617" lon="12.71693"><ele>358.0</ele><time>2026-04-25T15:52:52.11Z</time></trkpt><trkpt lat="42.2567433" lon="12.7167783"><ele>358.0</ele><time>2026-04-25T15:52:53.111Z</time></trkpt><trkpt lat="42.2567283" lon="12.7166183"><ele>358.0</ele><time>2026-04-25T15:52:54.109Z</time></trkpt><trkpt lat="42.256715" lon="12.7164617"><ele>356.25</ele><time>2026-04-25T15:52:55.108Z</time></trkpt><trkpt lat="42.2567067" lon="12.7163017"><ele>354.5</ele><time>2026-04-25T15:52:56.11Z</time></trkpt><trkpt lat="42.2567" lon="12.716145"><ele>352.75</ele><time>2026-04-25T15:52:57.109Z</time></trkpt><trkpt lat="42.2566933" lon="12.71599"><ele>351.0</ele><time>2026-04-25T15:52:58.109Z</time></trkpt><trkpt lat="42.2566867" lon="12.7158333"><ele>348.25</ele><time>2026-04-25T15:52:59.109Z</time></trkpt><trkpt lat="42.2566733" lon="12.7156767"><ele>345.5</ele><time>2026-04-25T15:53:00.107Z</time></trkpt><trkpt lat="42.2566467" lon="12.7155283"><ele>342.75</ele><time>2026-04-25T15:53:01.108Z</time></trkpt><trkpt lat="42.2565967" lon="12.7153917"><ele>340.0</ele><time>2026-04-25T15:53:02.109Z</time></trkpt><trkpt lat="42.256525" lon="12.7152833"><ele>336.2</ele><time>2026-04-25T15:53:03.107Z</time></trkpt><trkpt lat="42.2564333" lon="12.7152017"><ele>332.4</ele><time>2026-04-25T15:53:04.109Z</time></trkpt><trkpt lat="42.2563367" lon="12.715135"><ele>328.6</ele><time>2026-04-25T15:53:05.108Z</time></trkpt><trkpt lat="42.2562367" lon="12.7151"><ele>324.8</ele><time>2026-04-25T15:53:06.108Z</time></trkpt><trkpt lat="42.2561417" lon="12.715105"><ele>321.0</ele><time>2026-04-25T15:53:07.107Z</time></trkpt><trkpt lat="42.2560517" lon="12.7151633"><ele>323.5</ele><time>2026-04-25T15:53:08.107Z</time></trkpt><trkpt lat="42.2559783" lon="12.7152633"><ele>326.0</ele><time>2026-04-25T15:53:09.109Z</time></trkpt><trkpt lat="42.2559067" lon="12.71539"><ele>328.5</ele><time>2026-04-25T15:53:10.109Z</time></trkpt><trkpt lat="42.2558483" lon="12.7155433"><ele>331.0</ele><time>2026-04-25T15:53:11.108Z</time></trkpt><trkpt lat="42.2557983" lon="12.7157083"><ele>331.0</ele><time>2026-04-25T15:53:12.11Z</time></trkpt><trkpt lat="42.2557667" lon="12.7158933"><ele>331.0</ele><time>2026-04-25T15:53:13.108Z</time></trkpt><trkpt lat="42.2557517" lon="12.716075"><ele>331.0</ele><time>2026-04-25T15:53:14.109Z</time></trkpt><trkpt lat="42.25574" lon="12.71626"><ele>331.0</ele><time>2026-04-25T15:53:15.109Z</time></trkpt><trkpt lat="42.2557333" lon="12.7164417"><ele>332.0</ele><time>2026-04-25T15:53:16.107Z</time></trkpt><trkpt lat="42.255725" lon="12.71662"><ele>333.0</ele><time>2026-04-25T15:53:17.107Z</time></trkpt><trkpt lat="42.255715" lon="12.716795"><ele>334.0</ele><time>2026-04-25T15:53:18.107Z</time></trkpt><trkpt lat="42.2557" lon="12.716965"><ele>335.0</ele><time>2026-04-25T15:53:19.106Z</time></trkpt><trkpt lat="42.2556867" lon="12.7171333"><ele>335.0</ele><time>2026-04-25T15:53:20.109Z</time></trkpt><trkpt lat="42.2556717" lon="12.7173033"><ele>335.0</ele><time>2026-04-25T15:53:21.107Z</time></trkpt><trkpt lat="42.2556617" lon="12.7174733"><ele>335.0</ele><time>2026-04-25T15:53:22.108Z</time></trkpt><trkpt lat="42.2556467" lon="12.7176417"><ele>335.0</ele><time>2026-04-25T15:53:23.108Z</time></trkpt><trkpt lat="42.2556283" lon="12.7178083"><ele>328.75</ele><time>2026-04-25T15:53:24.109Z</time></trkpt><trkpt lat="42.2556033" lon="12.7179717"><ele>322.5</ele><time>2026-04-25T15:53:25.11Z</time></trkpt><trkpt lat="42.2555667" lon="12.7181317"><ele>316.25</ele><time>2026-04-25T15:53:26.109Z</time></trkpt><trkpt lat="42.2555283" lon="12.71829"><ele>310.0</ele><time>2026-04-25T15:53:27.107Z</time></trkpt><trkpt lat="42.25549" lon="12.7184467"><ele>310.6</ele><time>2026-04-25T15:53:28.108Z</time></trkpt><trkpt lat="42.2554467" lon="12.718595"><ele>311.2</ele><time>2026-04-25T15:53:29.107Z</time></trkpt><trkpt lat="42.2554033" lon="12.71873"><ele>311.8</ele><time>2026-04-25T15:53:30.108Z</time></trkpt><trkpt lat="42.2553633" lon="12.7188467"><ele>312.4</ele><time>2026-04-25T15:53:31.108Z</time></trkpt><trkpt lat="42.2553183" lon="12.7189417"><ele>313.0</ele><time>2026-04-25T15:53:32.108Z</time></trkpt><trkpt lat="42.25526" lon="12.7190133"><ele>313.0</ele><time>2026-04-25T15:53:33.107Z</time></trkpt><trkpt lat="42.2551967" lon="12.719055"><ele>313.0</ele><time>2026-04-25T15:53:34.108Z</time></trkpt><trkpt lat="42.25512" lon="12.7190683"><ele>313.0</ele><time>2026-04-25T15:53:35.108Z</time></trkpt><trkpt lat="42.2550367" lon="12.7190567"><ele>313.0</ele><time>2026-04-25T15:53:36.106Z</time></trkpt><trkpt lat="42.25495" lon="12.7190433"><ele>313.0</ele><time>2026-04-25T15:53:37.108Z</time></trkpt><trkpt lat="42.2548667" lon="12.7190233"><ele>313.0</ele><time>2026-04-25T15:53:38.108Z</time></trkpt><trkpt lat="42.2547967" lon="12.719005"><ele>310.2</ele><time>2026-04-25T15:53:39.108Z</time></trkpt><trkpt lat="42.2547117" lon="12.7189717"><ele>307.4</ele><time>2026-04-25T15:53:41.11Z</time></trkpt><trkpt lat="42.254645" lon="12.7189367"><ele>304.59999999999997</ele><time>2026-04-25T15:53:44.11Z</time></trkpt><trkpt lat="42.254585" lon="12.718865"><ele>301.8</ele><time>2026-04-25T15:53:46.107Z</time></trkpt><trkpt lat="42.2545533" lon="12.7187283"><ele>299.0</ele><time>2026-04-25T15:53:48.107Z</time></trkpt><trkpt lat="42.2545433" lon="12.71857"><ele>298.83333333333337</ele><time>2026-04-25T15:53:50.109Z</time></trkpt><trkpt lat="42.2545417" lon="12.71848"><ele>298.6666666666667</ele><time>2026-04-25T15:53:51.11Z</time></trkpt><trkpt lat="42.2545433" lon="12.7183767"><ele>298.5</ele><time>2026-04-25T15:53:52.107Z</time></trkpt><trkpt lat="42.254545" lon="12.7182717"><ele>298.3333333333333</ele><time>2026-04-25T15:53:53.107Z</time></trkpt><trkpt lat="42.2545533" lon="12.7181617"><ele>298.16666666666663</ele><time>2026-04-25T15:53:54.11Z</time></trkpt><trkpt lat="42.2545633" lon="12.718045"><ele>298.0</ele><time>2026-04-25T15:53:55.108Z</time></trkpt><trkpt lat="42.2545717" lon="12.7179283"><ele>298.0</ele><time>2026-04-25T15:53:56.105Z</time></trkpt><trkpt lat="42.2545817" lon="12.7178117"><ele>298.0</ele><time>2026-04-25T15:53:57.112Z</time></trkpt><trkpt lat="42.25459" lon="12.7177083"><ele>298.0</ele><time>2026-04-25T15:53:58.109Z</time></trkpt><trkpt lat="42.254595" lon="12.7176183"><ele>298.0</ele><time>2026-04-25T15:53:59.106Z</time></trkpt><trkpt lat="42.2545867" lon="12.717465"><ele>298.0</ele><time>2026-04-25T15:54:01.105Z</time></trkpt><trkpt lat="42.2545217" lon="12.71734"><ele>296.85714285714283</ele><time>2026-04-25T15:54:03.11Z</time></trkpt><trkpt lat="42.25447" lon="12.71729"><ele>295.71428571428567</ele><time>2026-04-25T15:54:04.109Z</time></trkpt><trkpt lat="42.2544183" lon="12.717235"><ele>294.57142857142856</ele><time>2026-04-25T15:54:05.107Z</time></trkpt><trkpt lat="42.2543617" lon="12.7171767"><ele>293.42857142857144</ele><time>2026-04-25T15:54:06.109Z</time></trkpt><trkpt lat="42.2543067" lon="12.717105"><ele>292.28571428571433</ele><time>2026-04-25T15:54:07.108Z</time></trkpt><trkpt lat="42.254255" lon="12.7170217"><ele>291.14285714285717</ele><time>2026-04-25T15:54:08.107Z</time></trkpt><trkpt lat="42.254205" lon="12.7169283"><ele>290.0</ele><time>2026-04-25T15:54:09.109Z</time></trkpt><trkpt lat="42.2541567" lon="12.7168267"><ele>288.8</ele><time>2026-04-25T15:54:10.109Z</time></trkpt><trkpt lat="42.25411" lon="12.7167217"><ele>287.6</ele><time>2026-04-25T15:54:11.109Z</time></trkpt><trkpt lat="42.2540617" lon="12.7166133"><ele>286.4</ele><time>2026-04-25T15:54:12.11Z</time></trkpt><trkpt lat="42.2540083" lon="12.7165133"><ele>285.2</ele><time>2026-04-25T15:54:13.11Z</time></trkpt><trkpt lat="42.2539483" lon="12.716415"><ele>284.0</ele><time>2026-04-25T15:54:14.109Z</time></trkpt><trkpt lat="42.2538833" lon="12.7163233"><ele>281.59999999999997</ele><time>2026-04-25T15:54:15.109Z</time></trkpt><trkpt lat="42.2538167" lon="12.7162317"><ele>279.2</ele><time>2026-04-25T15:54:16.107Z</time></trkpt><trkpt lat="42.253755" lon="12.7161317"><ele>276.79999999999995</ele><time>2026-04-25T15:54:17.109Z</time></trkpt><trkpt lat="42.25368" lon="12.716035"><ele>274.4</ele><time>2026-04-25T15:54:18.108Z</time></trkpt><trkpt lat="42.25361" lon="12.715935"><ele>272.0</ele><time>2026-04-25T15:54:19.108Z</time></trkpt><trkpt lat="42.2535417" lon="12.715835"><ele>271.4</ele><time>2026-04-25T15:54:20.109Z</time></trkpt><trkpt lat="42.2534833" lon="12.7157367"><ele>270.79999999999995</ele><time>2026-04-25T15:54:21.107Z</time></trkpt><trkpt lat="42.2534283" lon="12.71564"><ele>270.2</ele><time>2026-04-25T15:54:22.107Z</time></trkpt><trkpt lat="42.25338" lon="12.715535"><ele>269.59999999999997</ele><time>2026-04-25T15:54:23.108Z</time></trkpt><trkpt lat="42.253325" lon="12.715435"><ele>269.0</ele><time>2026-04-25T15:54:24.107Z</time></trkpt><trkpt lat="42.2532733" lon="12.7153367"><ele>268.6666666666667</ele><time>2026-04-25T15:54:25.109Z</time></trkpt><trkpt lat="42.25323" lon="12.715235"><ele>268.33333333333337</ele><time>2026-04-25T15:54:26.11Z</time></trkpt><trkpt lat="42.2531983" lon="12.715125"><ele>268.0</ele><time>2026-04-25T15:54:27.109Z</time></trkpt><trkpt lat="42.2531733" lon="12.7150267"><ele>267.6666666666667</ele><time>2026-04-25T15:54:28.108Z</time></trkpt><trkpt lat="42.253155" lon="12.714935"><ele>267.3333333333333</ele><time>2026-04-25T15:54:29.108Z</time></trkpt><trkpt lat="42.25313" lon="12.7148517"><ele>267.0</ele><time>2026-04-25T15:54:30.105Z</time></trkpt><trkpt lat="42.25309" lon="12.7147767"><ele>265.0</ele><time>2026-04-25T15:54:31.108Z</time></trkpt><trkpt lat="42.2530367" lon="12.7147017"><ele>263.0</ele><time>2026-04-25T15:54:32.109Z</time></trkpt><trkpt lat="42.2529833" lon="12.71462"><ele>261.0</ele><time>2026-04-25T15:54:33.108Z</time></trkpt><trkpt lat="42.2529283" lon="12.7145383"><ele>259.0</ele><time>2026-04-25T15:54:34.11Z</time></trkpt><trkpt lat="42.2528717" lon="12.7144683"><ele>257.0</ele><time>2026-04-25T15:54:35.11Z</time></trkpt><trkpt lat="42.2528067" lon="12.7144133"><ele>255.0</ele><time>2026-04-25T15:54:36.109Z</time></trkpt><trkpt lat="42.252735" lon="12.7143717"><ele>255.0</ele><time>2026-04-25T15:54:37.109Z</time></trkpt><trkpt lat="42.2526517" lon="12.7143383"><ele>255.0</ele><time>2026-04-25T15:54:38.108Z</time></trkpt><trkpt lat="42.252565" lon="12.714305"><ele>255.0</ele><time>2026-04-25T15:54:39.107Z</time></trkpt><trkpt lat="42.2524783" lon="12.7142717"><ele>255.0</ele><time>2026-04-25T15:54:40.109Z</time></trkpt><trkpt lat="42.2523867" lon="12.7142217"><ele>255.0</ele><time>2026-04-25T15:54:41.107Z</time></trkpt><trkpt lat="42.25229" lon="12.7141733"><ele>252.8</ele><time>2026-04-25T15:54:42.107Z</time></trkpt><trkpt lat="42.2521917" lon="12.7141417"><ele>250.6</ele><time>2026-04-25T15:54:43.109Z</time></trkpt><trkpt lat="42.252095" lon="12.7141217"><ele>248.39999999999998</ele><time>2026-04-25T15:54:44.109Z</time></trkpt><trkpt lat="42.2519933" lon="12.714115"><ele>246.2</ele><time>2026-04-25T15:54:45.109Z</time></trkpt><trkpt lat="42.2518967" lon="12.714105"><ele>244.0</ele><time>2026-04-25T15:54:46.11Z</time></trkpt><trkpt lat="42.2518033" lon="12.7141067"><ele>243.99999999999997</ele><time>2026-04-25T15:54:47.108Z</time></trkpt><trkpt lat="42.2517117" lon="12.7141317"><ele>244.0</ele><time>2026-04-25T15:54:48.108Z</time></trkpt><trkpt lat="42.2516167" lon="12.71418"><ele>244.0</ele><time>2026-04-25T15:54:49.106Z</time></trkpt><trkpt lat="42.251535" lon="12.71423"><ele>244.0</ele><time>2026-04-25T15:54:50.107Z</time></trkpt><trkpt lat="42.2514567" lon="12.7142783"><ele>243.99999999999997</ele><time>2026-04-25T15:54:51.108Z</time></trkpt><trkpt lat="42.251385" lon="12.7143"><ele>244.0</ele><time>2026-04-25T15:54:52.108Z</time></trkpt><trkpt lat="42.2513033" lon="12.7143183"><ele>241.39999999999998</ele><time>2026-04-25T15:54:53.109Z</time></trkpt><trkpt lat="42.2512183" lon="12.714325"><ele>238.79999999999998</ele><time>2026-04-25T15:54:54.108Z</time></trkpt><trkpt lat="42.25113" lon="12.7143183"><ele>236.20000000000002</ele><time>2026-04-25T15:54:55.109Z</time></trkpt><trkpt lat="42.2510367" lon="12.71429"><ele>233.60000000000002</ele><time>2026-04-25T15:54:56.107Z</time></trkpt><trkpt lat="42.2509467" lon="12.714245"><ele>231.0</ele><time>2026-04-25T15:54:57.108Z</time></trkpt><trkpt lat="42.2508583" lon="12.714195"><ele>231.0</ele><time>2026-04-25T15:54:58.107Z</time></trkpt><trkpt lat="42.2507667" lon="12.7141467"><ele>231.00000000000003</ele><time>2026-04-25T15:54:59.108Z</time></trkpt><trkpt lat="42.2506783" lon="12.7140933"><ele>231.00000000000003</ele><time>2026-04-25T15:55:00.107Z</time></trkpt><trkpt lat="42.2505917" lon="12.7140317"><ele>231.0</ele><time>2026-04-25T15:55:01.107Z</time></trkpt><trkpt lat="42.25051" lon="12.7139633"><ele>231.0</ele><time>2026-04-25T15:55:02.109Z</time></trkpt><trkpt lat="42.2504317" lon="12.7138867"><ele>229.0</ele><time>2026-04-25T15:55:03.111Z</time></trkpt><trkpt lat="42.2503533" lon="12.7138083"><ele>227.0</ele><time>2026-04-25T15:55:04.107Z</time></trkpt><trkpt lat="42.250285" lon="12.7137267"><ele>225.0</ele><time>2026-04-25T15:55:05.107Z</time></trkpt><trkpt lat="42.2502167" lon="12.7136483"><ele>223.0</ele><time>2026-04-25T15:55:06.107Z</time></trkpt><trkpt lat="42.2501483" lon="12.713575"><ele>221.0</ele><time>2026-04-25T15:55:07.107Z</time></trkpt><trkpt lat="42.2500767" lon="12.7135183"><ele>219.0</ele><time>2026-04-25T15:55:08.108Z</time></trkpt><trkpt lat="42.250015" lon="12.7134783"><ele>219.0</ele><time>2026-04-25T15:55:09.108Z</time></trkpt><trkpt lat="42.2499383" lon="12.71346"><ele>219.0</ele><time>2026-04-25T15:55:10.107Z</time></trkpt><trkpt lat="42.2498617" lon="12.7134667"><ele>219.0</ele><time>2026-04-25T15:55:11.108Z</time></trkpt><trkpt lat="42.2497817" lon="12.7134933"><ele>219.0</ele><time>2026-04-25T15:55:12.106Z</time></trkpt><trkpt lat="42.249705" lon="12.7135283"><ele>219.0</ele><time>2026-04-25T15:55:13.107Z</time></trkpt><trkpt lat="42.2496217" lon="12.7135633"><ele>219.0</ele><time>2026-04-25T15:55:14.108Z</time></trkpt><trkpt lat="42.2495367" lon="12.7136083"><ele>216.39999999999998</ele><time>2026-04-25T15:55:15.108Z</time></trkpt><trkpt lat="42.2494517" lon="12.7136533"><ele>213.79999999999998</ele><time>2026-04-25T15:55:16.107Z</time></trkpt><trkpt lat="42.249355" lon="12.7137"><ele>211.2</ele><time>2026-04-25T15:55:17.107Z</time></trkpt><trkpt lat="42.2492517" lon="12.7137467"><ele>208.60000000000002</ele><time>2026-04-25T15:55:18.108Z</time></trkpt><trkpt lat="42.2491317" lon="12.7137933"><ele>206.0</ele><time>2026-04-25T15:55:19.107Z</time></trkpt><trkpt lat="42.2490083" lon="12.7138483"><ele>202.5</ele><time>2026-04-25T15:55:20.107Z</time></trkpt><trkpt lat="42.248885" lon="12.7139117"><ele>199.0</ele><time>2026-04-25T15:55:21.11Z</time></trkpt><trkpt lat="42.2487667" lon="12.7139883"><ele>195.5</ele><time>2026-04-25T15:55:22.107Z</time></trkpt><trkpt lat="42.248655" lon="12.7140717"><ele>192.0</ele><time>2026-04-25T15:55:23.107Z</time></trkpt><trkpt lat="42.248555" lon="12.71415"><ele>192.0</ele><time>2026-04-25T15:55:24.108Z</time></trkpt><trkpt lat="42.248465" lon="12.7142217"><ele>192.0</ele><time>2026-04-25T15:55:25.108Z</time></trkpt><trkpt lat="42.24839" lon="12.714285"><ele>192.0</ele><time>2026-04-25T15:55:26.108Z</time></trkpt><trkpt lat="42.2483217" lon="12.7143367"><ele>192.0</ele><time>2026-04-25T15:55:27.107Z</time></trkpt><trkpt lat="42.24825" lon="12.7143717"><ele>192.0</ele><time>2026-04-25T15:55:28.106Z</time></trkpt><trkpt lat="42.248185" lon="12.7143867"><ele>192.0</ele><time>2026-04-25T15:55:29.109Z</time></trkpt><trkpt lat="42.248085" lon="12.7143117"><ele>189.83333333333334</ele><time>2026-04-25T15:55:31.107Z</time></trkpt><trkpt lat="42.2480333" lon="12.7142333"><ele>187.66666666666666</ele><time>2026-04-25T15:55:32.109Z</time></trkpt><trkpt lat="42.2479817" lon="12.71415"><ele>185.5</ele><time>2026-04-25T15:55:33.109Z</time></trkpt><trkpt lat="42.2479283" lon="12.714075"><ele>183.33333333333331</ele><time>2026-04-25T15:55:34.107Z</time></trkpt><trkpt lat="42.2478783" lon="12.714"><ele>181.16666666666666</ele><time>2026-04-25T15:55:35.107Z</time></trkpt><trkpt lat="42.2478233" lon="12.7139217"><ele>179.0</ele><time>2026-04-25T15:55:36.108Z</time></trkpt><trkpt lat="42.2477633" lon="12.7138333"><ele>179.0</ele><time>2026-04-25T15:55:37.109Z</time></trkpt><trkpt lat="42.247705" lon="12.7137383"><ele>179.0</ele><time>2026-04-25T15:55:38.108Z</time></trkpt><trkpt lat="42.247645" lon="12.7136383"><ele>179.0</ele><time>2026-04-25T15:55:39.11Z</time></trkpt><trkpt lat="42.2475933" lon="12.71354"><ele>179.0</ele><time>2026-04-25T15:55:40.106Z</time></trkpt><trkpt lat="42.2475433" lon="12.7134383"><ele>179.0</ele><time>2026-04-25T15:55:41.105Z</time></trkpt><trkpt lat="42.2474867" lon="12.7133367"><ele>178.39999999999998</ele><time>2026-04-25T15:55:42.107Z</time></trkpt><trkpt lat="42.2474267" lon="12.713225"><ele>177.8</ele><time>2026-04-25T15:55:43.109Z</time></trkpt><trkpt lat="42.2473717" lon="12.71311"><ele>177.2</ele><time>2026-04-25T15:55:44.108Z</time></trkpt><trkpt lat="42.24731" lon="12.71302"><ele>176.60000000000002</ele><time>2026-04-25T15:55:45.109Z</time></trkpt><trkpt lat="42.2472583" lon="12.7129383"><ele>176.0</ele><time>2026-04-25T15:55:46.107Z</time></trkpt><trkpt lat="42.2472" lon="12.712855"><ele>173.66666666666666</ele><time>2026-04-25T15:55:47.108Z</time></trkpt><trkpt lat="42.2471467" lon="12.712765"><ele>171.33333333333331</ele><time>2026-04-25T15:55:48.107Z</time></trkpt><trkpt lat="42.2470883" lon="12.712675"><ele>169.0</ele><time>2026-04-25T15:55:49.11Z</time></trkpt><trkpt lat="42.2470267" lon="12.7125833"><ele>166.66666666666666</ele><time>2026-04-25T15:55:50.109Z</time></trkpt><trkpt lat="42.2469633" lon="12.7124883"><ele>164.33333333333334</ele><time>2026-04-25T15:55:51.109Z</time></trkpt><trkpt lat="42.246905" lon="12.7124017"><ele>162.0</ele><time>2026-04-25T15:55:52.108Z</time></trkpt><trkpt lat="42.24685" lon="12.712315"><ele>161.0</ele><time>2026-04-25T15:55:53.109Z</time></trkpt><trkpt lat="42.2468017" lon="12.7122383"><ele>160.0</ele><time>2026-04-25T15:55:54.109Z</time></trkpt><trkpt lat="42.24671" lon="12.7121383"><ele>159.0</ele><time>2026-04-25T15:55:56.109Z</time></trkpt><trkpt lat="42.2466467" lon="12.712125"><ele>158.0</ele><time>2026-04-25T15:55:57.11Z</time></trkpt><trkpt lat="42.24658" lon="12.7121267"><ele>157.0</ele><time>2026-04-25T15:55:58.108Z</time></trkpt><trkpt lat="42.2465033" lon="12.712145"><ele>156.0</ele><time>2026-04-25T15:55:59.107Z</time></trkpt><trkpt lat="42.2464267" lon="12.7121633"><ele>153.5</ele><time>2026-04-25T15:56:00.11Z</time></trkpt><trkpt lat="42.24636" lon="12.7121733"><ele>151.0</ele><time>2026-04-25T15:56:01.108Z</time></trkpt><trkpt lat="42.2462967" lon="12.71218"><ele>148.5</ele><time>2026-04-25T15:56:02.11Z</time></trkpt><trkpt lat="42.246225" lon="12.712185"><ele>146.0</ele><time>2026-04-25T15:56:03.108Z</time></trkpt><trkpt lat="42.2460933" lon="12.7122017"><ele>143.5</ele><time>2026-04-25T15:56:05.108Z</time></trkpt><trkpt lat="42.246015" lon="12.7122083"><ele>141.0</ele><time>2026-04-25T15:56:06.11Z</time></trkpt><trkpt lat="42.2459283" lon="12.7122167"><ele>141.0</ele><time>2026-04-25T15:56:07.108Z</time></trkpt><trkpt lat="42.245835" lon="12.71221"><ele>141.0</ele><time>2026-04-25T15:56:08.109Z</time></trkpt><trkpt lat="42.2457317" lon="12.7121783"><ele>141.0</ele><time>2026-04-25T15:56:09.109Z</time></trkpt><trkpt lat="42.24563" lon="12.71214"><ele>141.0</ele><time>2026-04-25T15:56:10.108Z</time></trkpt><trkpt lat="42.2455283" lon="12.71209"><ele>141.0</ele><time>2026-04-25T15:56:11.109Z</time></trkpt><trkpt lat="42.2454267" lon="12.7120383"><ele>138.8</ele><time>2026-04-25T15:56:12.109Z</time></trkpt><trkpt lat="42.24533" lon="12.711985"><ele>136.6</ele><time>2026-04-25T15:56:13.109Z</time></trkpt><trkpt lat="42.24523" lon="12.7119383"><ele>134.4</ele><time>2026-04-25T15:56:14.11Z</time></trkpt><trkpt lat="42.2451333" lon="12.7118967"><ele>132.2</ele><time>2026-04-25T15:56:15.109Z</time></trkpt><trkpt lat="42.245035" lon="12.7118567"><ele>130.0</ele><time>2026-04-25T15:56:16.108Z</time></trkpt><trkpt lat="42.2449333" lon="12.7118267"><ele>130.0</ele><time>2026-04-25T15:56:17.108Z</time></trkpt><trkpt lat="42.24483" lon="12.71181"><ele>130.0</ele><time>2026-04-25T15:56:18.108Z</time></trkpt><trkpt lat="42.2447267" lon="12.7118"><ele>130.0</ele><time>2026-04-25T15:56:19.107Z</time></trkpt><trkpt lat="42.244625" lon="12.711785"><ele>130.0</ele><time>2026-04-25T15:56:20.109Z</time></trkpt><trkpt lat="42.2445267" lon="12.7117717"><ele>130.0</ele><time>2026-04-25T15:56:21.109Z</time></trkpt><trkpt lat="42.24443" lon="12.7117583"><ele>129.66666666666669</ele><time>2026-04-25T15:56:22.107Z</time></trkpt><trkpt lat="42.2443383" lon="12.7117417"><ele>129.33333333333334</ele><time>2026-04-25T15:56:23.109Z</time></trkpt><trkpt lat="42.2442483" lon="12.71172"><ele>129.0</ele><time>2026-04-25T15:56:24.107Z</time></trkpt><trkpt lat="42.2441617" lon="12.7116983"><ele>128.66666666666666</ele><time>2026-04-25T15:56:25.11Z</time></trkpt><trkpt lat="42.24408" lon="12.7116733"><ele>128.33333333333331</ele><time>2026-04-25T15:56:26.109Z</time></trkpt><trkpt lat="42.2440033" lon="12.711645"><ele>128.0</ele><time>2026-04-25T15:56:27.109Z</time></trkpt><trkpt lat="42.2439317" lon="12.7116133"><ele>127.57142857142857</ele><time>2026-04-25T15:56:28.11Z</time></trkpt><trkpt lat="42.2438667" lon="12.711585"><ele>127.14285714285714</ele><time>2026-04-25T15:56:29.109Z</time></trkpt><trkpt lat="42.243805" lon="12.711565"><ele>126.71428571428571</ele><time>2026-04-25T15:56:30.109Z</time></trkpt><trkpt lat="42.2437017" lon="12.711555"><ele>126.28571428571428</ele><time>2026-04-25T15:56:32.107Z</time></trkpt><trkpt lat="42.2436283" lon="12.7115483"><ele>125.85714285714286</ele><time>2026-04-25T15:56:34.108Z</time></trkpt><trkpt lat="42.2435517" lon="12.7115583"><ele>125.42857142857142</ele><time>2026-04-25T15:56:36.107Z</time></trkpt><trkpt lat="42.24349" lon="12.7115783"><ele>125.0</ele><time>2026-04-25T15:56:37.107Z</time></trkpt><trkpt lat="42.2434" lon="12.71161"><ele>125.0</ele><time>2026-04-25T15:56:38.109Z</time></trkpt><trkpt lat="42.2433" lon="12.71165"><ele>125.0</ele><time>2026-04-25T15:56:39.108Z</time></trkpt><trkpt lat="42.2432133" lon="12.7116817"><ele>125.0</ele><time>2026-04-25T15:56:40.109Z</time></trkpt><trkpt lat="42.2431467" lon="12.7117017"><ele>125.0</ele><time>2026-04-25T15:56:41.109Z</time></trkpt><trkpt lat="42.243075" lon="12.7116817"><ele>125.0</ele><time>2026-04-25T15:56:43.108Z</time></trkpt><trkpt lat="42.2430083" lon="12.71154"><ele>124.2</ele><time>2026-04-25T15:56:45.109Z</time></trkpt><trkpt lat="42.2429617" lon="12.711425"><ele>123.4</ele><time>2026-04-25T15:56:46.108Z</time></trkpt><trkpt lat="42.2429117" lon="12.711305"><ele>122.6</ele><time>2026-04-25T15:56:47.108Z</time></trkpt><trkpt lat="42.24286" lon="12.7111817"><ele>121.8</ele><time>2026-04-25T15:56:48.108Z</time></trkpt><trkpt lat="42.2428133" lon="12.7110533"><ele>121.0</ele><time>2026-04-25T15:56:49.11Z</time></trkpt><trkpt lat="42.2427683" lon="12.710925"><ele>121.0</ele><time>2026-04-25T15:56:50.107Z</time></trkpt><trkpt lat="42.2427267" lon="12.7108033"><ele>121.0</ele><time>2026-04-25T15:56:51.106Z</time></trkpt><trkpt lat="42.2426833" lon="12.7106767"><ele>121.0</ele><time>2026-04-25T15:56:52.107Z</time></trkpt><trkpt lat="42.2426383" lon="12.7105517"><ele>121.0</ele><time>2026-04-25T15:56:53.109Z</time></trkpt><trkpt lat="42.2425917" lon="12.7104267"><ele>121.0</ele><time>2026-04-25T15:56:54.108Z</time></trkpt><trkpt lat="42.242545" lon="12.710305"><ele>120.4</ele><time>2026-04-25T15:56:55.108Z</time></trkpt><trkpt lat="42.2424917" lon="12.7101817"><ele>119.8</ele><time>2026-04-25T15:56:56.107Z</time></trkpt><trkpt lat="42.2424333" lon="12.7100617"><ele>119.20000000000002</ele><time>2026-04-25T15:56:57.109Z</time></trkpt><trkpt lat="42.2423683" lon="12.7099417"><ele>118.60000000000001</ele><time>2026-04-25T15:56:58.108Z</time></trkpt><trkpt lat="42.2423017" lon="12.709825"><ele>118.0</ele><time>2026-04-25T15:56:59.107Z</time></trkpt><trkpt lat="42.2422333" lon="12.709705"><ele>118.0</ele><time>2026-04-25T15:57:00.108Z</time></trkpt><trkpt lat="42.24216" lon="12.7095933"><ele>118.00000000000001</ele><time>2026-04-25T15:57:01.11Z</time></trkpt><trkpt lat="42.242085" lon="12.709485"><ele>118.00000000000001</ele><time>2026-04-25T15:57:02.108Z</time></trkpt><trkpt lat="42.24201" lon="12.7093767"><ele>118.0</ele><time>2026-04-25T15:57:03.109Z</time></trkpt><trkpt lat="42.241935" lon="12.70926"><ele>118.0</ele><time>2026-04-25T15:57:04.109Z</time></trkpt><trkpt lat="42.2418617" lon="12.7091367"><ele>117.5</ele><time>2026-04-25T15:57:05.107Z</time></trkpt><trkpt lat="42.2417883" lon="12.70901"><ele>117.0</ele><time>2026-04-25T15:57:06.107Z</time></trkpt><trkpt lat="42.241715" lon="12.7088817"><ele>116.5</ele><time>2026-04-25T15:57:07.108Z</time></trkpt><trkpt lat="42.2416383" lon="12.7087533"><ele>116.0</ele><time>2026-04-25T15:57:08.11Z</time></trkpt><trkpt lat="42.241565" lon="12.7086233"><ele>115.25</ele><time>2026-04-25T15:57:09.108Z</time></trkpt><trkpt lat="42.24149" lon="12.7084933"><ele>114.5</ele><time>2026-04-25T15:57:10.108Z</time></trkpt><trkpt lat="42.2414167" lon="12.70836"><ele>113.75</ele><time>2026-04-25T15:57:11.108Z</time></trkpt><trkpt lat="42.241345" lon="12.708225"><ele>113.0</ele><time>2026-04-25T15:57:12.109Z</time></trkpt><trkpt lat="42.2412767" lon="12.708085"><ele>112.25</ele><time>2026-04-25T15:57:13.109Z</time></trkpt><trkpt lat="42.2412117" lon="12.7079417"><ele>111.5</ele><time>2026-04-25T15:57:14.109Z</time></trkpt><trkpt lat="42.2411467" lon="12.7077983"><ele>110.75</ele><time>2026-04-25T15:57:15.109Z</time></trkpt><trkpt lat="42.24108" lon="12.7076533"><ele>110.0</ele><time>2026-04-25T15:57:16.108Z</time></trkpt><trkpt lat="42.24101" lon="12.70751"><ele>110.0</ele><time>2026-04-25T15:57:17.109Z</time></trkpt><trkpt lat="42.2409417" lon="12.70737"><ele>110.0</ele><time>2026-04-25T15:57:18.107Z</time></trkpt><trkpt lat="42.2408767" lon="12.7072383"><ele>110.0</ele><time>2026-04-25T15:57:19.109Z</time></trkpt><trkpt lat="42.2408117" lon="12.707115"><ele>110.0</ele><time>2026-04-25T15:57:20.109Z</time></trkpt><trkpt lat="42.2407467" lon="12.707005"><ele>109.99999999999999</ele><time>2026-04-25T15:57:21.107Z</time></trkpt><trkpt lat="42.2406883" lon="12.706905"><ele>110.0</ele><time>2026-04-25T15:57:22.109Z</time></trkpt><trkpt lat="42.2406367" lon="12.7068133"><ele>110.0</ele><time>2026-04-25T15:57:23.11Z</time></trkpt><trkpt lat="42.2405967" lon="12.706725"><ele>110.0</ele><time>2026-04-25T15:57:24.109Z</time></trkpt><trkpt lat="42.2405733" lon="12.7066383"><ele>109.99999999999999</ele><time>2026-04-25T15:57:25.11Z</time></trkpt><trkpt lat="42.2406033" lon="12.706495"><ele>110.0</ele><time>2026-04-25T15:57:27.108Z</time></trkpt><trkpt lat="42.240675" lon="12.7064"><ele>110.0</ele><time>2026-04-25T15:57:29.109Z</time></trkpt><trkpt lat="42.2406633" lon="12.7062817"><ele>110.0</ele><time>2026-04-25T15:57:36.108Z</time></trkpt><trkpt lat="42.2405533" lon="12.70623"><ele>110.0</ele><time>2026-04-25T15:57:38.111Z</time></trkpt><trkpt lat="42.2404633" lon="12.7062067"><ele>110.0</ele><time>2026-04-25T15:57:39.107Z</time></trkpt><trkpt lat="42.2403617" lon="12.7061817"><ele>110.0</ele><time>2026-04-25T15:57:40.108Z</time></trkpt><trkpt lat="42.24025" lon="12.7061583"><ele>110.25</ele><time>2026-04-25T15:57:41.11Z</time></trkpt><trkpt lat="42.2401333" lon="12.7061333"><ele>110.5</ele><time>2026-04-25T15:57:42.108Z</time></trkpt><trkpt lat="42.2400133" lon="12.7061017"><ele>110.75</ele><time>2026-04-25T15:57:43.109Z</time></trkpt><trkpt lat="42.2398967" lon="12.7060733"><ele>111.0</ele><time>2026-04-25T15:57:44.109Z</time></trkpt><trkpt lat="42.2397767" lon="12.7060417"><ele>111.0</ele><time>2026-04-25T15:57:45.109Z</time></trkpt><trkpt lat="42.2396567" lon="12.7060067"><ele>111.0</ele><time>2026-04-25T15:57:46.107Z</time></trkpt><trkpt lat="42.2395367" lon="12.7059733"><ele>111.0</ele><time>2026-04-25T15:57:47.108Z</time></trkpt><trkpt lat="42.2394217" lon="12.7059317"><ele>111.0</ele><time>2026-04-25T15:57:48.108Z</time></trkpt><trkpt lat="42.2393067" lon="12.705885"><ele>111.0</ele><time>2026-04-25T15:57:49.108Z</time></trkpt><trkpt lat="42.2391917" lon="12.7058383"><ele>111.0</ele><time>2026-04-25T15:57:50.107Z</time></trkpt><trkpt lat="42.2390733" lon="12.7057917"><ele>111.0</ele><time>2026-04-25T15:57:51.11Z</time></trkpt><trkpt lat="42.23896" lon="12.7057417"><ele>111.0</ele><time>2026-04-25T15:57:52.107Z</time></trkpt><trkpt lat="42.238845" lon="12.7056883"><ele>109.25</ele><time>2026-04-25T15:57:53.109Z</time></trkpt><trkpt lat="42.2387333" lon="12.7056317"><ele>107.5</ele><time>2026-04-25T15:57:54.108Z</time></trkpt><trkpt lat="42.238625" lon="12.7055583"><ele>105.75</ele><time>2026-04-25T15:57:55.11Z</time></trkpt><trkpt lat="42.238525" lon="12.7054683"><ele>104.0</ele><time>2026-04-25T15:57:56.107Z</time></trkpt><trkpt lat="42.23843" lon="12.7053667"><ele>104.0</ele><time>2026-04-25T15:57:57.109Z</time></trkpt><trkpt lat="42.2383367" lon="12.7052583"><ele>104.0</ele><time>2026-04-25T15:57:58.108Z</time></trkpt><trkpt lat="42.2382433" lon="12.70515"><ele>104.0</ele><time>2026-04-25T15:57:59.108Z</time></trkpt><trkpt lat="42.2381483" lon="12.70504"><ele>104.0</ele><time>2026-04-25T15:58:00.107Z</time></trkpt><trkpt lat="42.2380567" lon="12.70493"><ele>103.75</ele><time>2026-04-25T15:58:01.11Z</time></trkpt><trkpt lat="42.2379633" lon="12.70482"><ele>103.5</ele><time>2026-04-25T15:58:02.107Z</time></trkpt><trkpt lat="42.2378733" lon="12.704705"><ele>103.25</ele><time>2026-04-25T15:58:03.11Z</time></trkpt><trkpt lat="42.237785" lon="12.7045867"><ele>103.0</ele><time>2026-04-25T15:58:04.107Z</time></trkpt><trkpt lat="42.2377" lon="12.70446"><ele>103.5</ele><time>2026-04-25T15:58:05.109Z</time></trkpt><trkpt lat="42.2376183" lon="12.7043267"><ele>104.0</ele><time>2026-04-25T15:58:06.109Z</time></trkpt><trkpt lat="42.23754" lon="12.7041883"><ele>104.5</ele><time>2026-04-25T15:58:07.107Z</time></trkpt><trkpt lat="42.2374617" lon="12.7040517"><ele>105.0</ele><time>2026-04-25T15:58:08.108Z</time></trkpt><trkpt lat="42.237385" lon="12.7039133"><ele>105.0</ele><time>2026-04-25T15:58:09.109Z</time></trkpt><trkpt lat="42.23731" lon="12.7037767"><ele>105.0</ele><time>2026-04-25T15:58:10.109Z</time></trkpt><trkpt lat="42.237235" lon="12.7036417"><ele>105.0</ele><time>2026-04-25T15:58:11.108Z</time></trkpt><trkpt lat="42.2371567" lon="12.70351"><ele>105.0</ele><time>2026-04-25T15:58:12.108Z</time></trkpt><trkpt lat="42.23708" lon="12.7033767"><ele>104.6</ele><time>2026-04-25T15:58:13.109Z</time></trkpt><trkpt lat="42.237005" lon="12.7032467"><ele>104.2</ele><time>2026-04-25T15:58:14.109Z</time></trkpt><trkpt lat="42.236935" lon="12.7031267"><ele>103.80000000000001</ele><time>2026-04-25T15:58:15.109Z</time></trkpt><trkpt lat="42.2368717" lon="12.7030167"><ele>103.4</ele><time>2026-04-25T15:58:16.107Z</time></trkpt><trkpt lat="42.2368183" lon="12.7029167"><ele>103.0</ele><time>2026-04-25T15:58:17.109Z</time></trkpt><trkpt lat="42.236775" lon="12.702835"><ele>103.16666666666667</ele><time>2026-04-25T15:58:18.108Z</time></trkpt><trkpt lat="42.2367183" lon="12.7027283"><ele>103.33333333333334</ele><time>2026-04-25T15:58:20.107Z</time></trkpt><trkpt lat="42.2366783" lon="12.7026617"><ele>103.5</ele><time>2026-04-25T15:58:23.109Z</time></trkpt><trkpt lat="42.2366083" lon="12.702665"><ele>103.66666666666666</ele><time>2026-04-25T15:58:25.107Z</time></trkpt><trkpt lat="42.2365083" lon="12.702745"><ele>103.83333333333333</ele><time>2026-04-25T15:58:27.11Z</time></trkpt><trkpt lat="42.2364467" lon="12.7028083"><ele>104.0</ele><time>2026-04-25T15:58:28.108Z</time></trkpt><trkpt lat="42.236375" lon="12.7028783"><ele>103.0</ele><time>2026-04-25T15:58:29.109Z</time></trkpt><trkpt lat="42.2362933" lon="12.70296"><ele>102.0</ele><time>2026-04-25T15:58:30.108Z</time></trkpt><trkpt lat="42.2362033" lon="12.7030483"><ele>101.0</ele><time>2026-04-25T15:58:31.109Z</time></trkpt><trkpt lat="42.2361083" lon="12.7031433"><ele>100.0</ele><time>2026-04-25T15:58:32.108Z</time></trkpt><trkpt lat="42.2360083" lon="12.70324"><ele>100.0</ele><time>2026-04-25T15:58:33.109Z</time></trkpt><trkpt lat="42.235905" lon="12.7033383"><ele>100.0</ele><time>2026-04-25T15:58:34.107Z</time></trkpt><trkpt lat="42.2358033" lon="12.7034383"><ele>100.0</ele><time>2026-04-25T15:58:35.11Z</time></trkpt><trkpt lat="42.2357" lon="12.7035367"><ele>100.0</ele><time>2026-04-25T15:58:36.11Z</time></trkpt><trkpt lat="42.2355967" lon="12.7036417"><ele>99.5</ele><time>2026-04-25T15:58:37.11Z</time></trkpt><trkpt lat="42.2354933" lon="12.7037467"><ele>99.0</ele><time>2026-04-25T15:58:38.11Z</time></trkpt><trkpt lat="42.2353867" lon="12.7038517"><ele>98.5</ele><time>2026-04-25T15:58:39.109Z</time></trkpt><trkpt lat="42.23528" lon="12.7039567"><ele>98.0</ele><time>2026-04-25T15:58:40.107Z</time></trkpt><trkpt lat="42.2351733" lon="12.7040633"><ele>98.0</ele><time>2026-04-25T15:58:41.107Z</time></trkpt><trkpt lat="42.2350683" lon="12.7041683"><ele>98.0</ele><time>2026-04-25T15:58:42.107Z</time></trkpt><trkpt lat="42.234965" lon="12.7042733"><ele>98.0</ele><time>2026-04-25T15:58:43.106Z</time></trkpt><trkpt lat="42.2348617" lon="12.7043733"><ele>98.0</ele><time>2026-04-25T15:58:44.108Z</time></trkpt><trkpt lat="42.23476" lon="12.704475"><ele>98.0</ele><time>2026-04-25T15:58:45.11Z</time></trkpt><trkpt lat="42.2346617" lon="12.7045767"><ele>98.0</ele><time>2026-04-25T15:58:46.11Z</time></trkpt><trkpt lat="42.2345667" lon="12.7046783"><ele>98.0</ele><time>2026-04-25T15:58:47.108Z</time></trkpt><trkpt lat="42.2344733" lon="12.7047733"><ele>98.0</ele><time>2026-04-25T15:58:48.107Z</time></trkpt><trkpt lat="42.234385" lon="12.7048633"><ele>98.0</ele><time>2026-04-25T15:58:49.108Z</time></trkpt><trkpt lat="42.2342967" lon="12.7049533"><ele>98.0</ele><time>2026-04-25T15:58:50.108Z</time></trkpt><trkpt lat="42.2342083" lon="12.70504"><ele>98.0</ele><time>2026-04-25T15:58:51.109Z</time></trkpt><trkpt lat="42.2341217" lon="12.7051283"><ele>98.0</ele><time>2026-04-25T15:58:52.108Z</time></trkpt><trkpt lat="42.2340333" lon="12.7052183"><ele>98.0</ele><time>2026-04-25T15:58:53.108Z</time></trkpt><trkpt lat="42.2339433" lon="12.7053067"><ele>99.25</ele><time>2026-04-25T15:58:54.108Z</time></trkpt><trkpt lat="42.2338517" lon="12.7053967"><ele>100.5</ele><time>2026-04-25T15:58:55.109Z</time></trkpt><trkpt lat="42.23376" lon="12.7054867"><ele>101.75</ele><time>2026-04-25T15:58:56.108Z</time></trkpt><trkpt lat="42.2336683" lon="12.70558"><ele>103.0</ele><time>2026-04-25T15:58:57.107Z</time></trkpt><trkpt lat="42.23358" lon="12.7056683"><ele>103.00000000000001</ele><time>2026-04-25T15:58:58.107Z</time></trkpt><trkpt lat="42.2334933" lon="12.70575"><ele>103.0</ele><time>2026-04-25T15:58:59.109Z</time></trkpt><trkpt lat="42.23341" lon="12.7058233"><ele>103.0</ele><time>2026-04-25T15:59:00.11Z</time></trkpt><trkpt lat="42.2333333" lon="12.7058867"><ele>103.0</ele><time>2026-04-25T15:59:01.111Z</time></trkpt><trkpt lat="42.2332633" lon="12.7059317"><ele>103.00000000000001</ele><time>2026-04-25T15:59:02.109Z</time></trkpt><trkpt lat="42.2331983" lon="12.705955"><ele>103.0</ele><time>2026-04-25T15:59:03.11Z</time></trkpt><trkpt lat="42.2331083" lon="12.7059283"><ele>100.0</ele><time>2026-04-25T15:59:05.109Z</time></trkpt><trkpt lat="42.2331233" lon="12.7058367"><ele>100.0</ele><time>2026-04-25T15:59:08.111Z</time></trkpt></trkseg></trk></gpx>